<?xml version="1.0" encoding="UTF-8" standalone="no" ?>
<gpx xmlns="http://www.topografix.com/GPX/1/1" xmlns:xsi="http://www.w3.org/2001/XMLSchema-instance" xsi:schemaLocation="http://www.topografix.com/GPX/1/1 http://www.topografix.com/GPX/1/1/gpx.xsd" version="1.1" creator="VisuGPX - https://www.visugpx.com">
  <metadata>
    <name>POULDU 2018-2019</name>
  </metadata>
  <trk>
    <name><![CDATA[Laïta-Quimperlé]]></name>
    <trkseg>
      <trkpt lat="47.77271" lon="-3.55103">
        <ele>42</ele>
        <time>2019-07-15T09:09:32Z</time>
      </trkpt>
      <trkpt lat="47.77271" lon="-3.55103">
        <ele>42</ele>
        <time>2019-07-15T09:09:33Z</time>
      </trkpt>
      <trkpt lat="47.77271" lon="-3.55103">
        <ele>42</ele>
        <time>2019-07-15T09:09:34Z</time>
      </trkpt>
      <trkpt lat="47.77271" lon="-3.55103">
        <ele>42</ele>
        <time>2019-07-15T09:09:35Z</time>
      </trkpt>
      <trkpt lat="47.77271" lon="-3.55103">
        <ele>42</ele>
        <time>2019-07-15T09:09:36Z</time>
      </trkpt>
      <trkpt lat="47.77271" lon="-3.55103">
        <ele>41</ele>
        <time>2019-07-15T09:09:37Z</time>
      </trkpt>
      <trkpt lat="47.77271" lon="-3.55103">
        <ele>41</ele>
        <time>2019-07-15T09:09:38Z</time>
      </trkpt>
      <trkpt lat="47.77271" lon="-3.55103">
        <ele>41</ele>
        <time>2019-07-15T09:09:39Z</time>
      </trkpt>
      <trkpt lat="47.77271" lon="-3.55103">
        <ele>41</ele>
        <time>2019-07-15T09:09:40Z</time>
      </trkpt>
      <trkpt lat="47.77271" lon="-3.55104">
        <ele>41</ele>
        <time>2019-07-15T09:09:41Z</time>
      </trkpt>
      <trkpt lat="47.77271" lon="-3.55104">
        <ele>41</ele>
        <time>2019-07-15T09:09:42Z</time>
      </trkpt>
      <trkpt lat="47.77271" lon="-3.55104">
        <ele>41</ele>
        <time>2019-07-15T09:09:43Z</time>
      </trkpt>
      <trkpt lat="47.77271" lon="-3.55104">
        <ele>41</ele>
        <time>2019-07-15T09:09:44Z</time>
      </trkpt>
      <trkpt lat="47.77271" lon="-3.55104">
        <ele>41</ele>
        <time>2019-07-15T09:09:45Z</time>
      </trkpt>
      <trkpt lat="47.77271" lon="-3.55104">
        <ele>41</ele>
        <time>2019-07-15T09:09:46Z</time>
      </trkpt>
      <trkpt lat="47.77271" lon="-3.55104">
        <ele>41</ele>
        <time>2019-07-15T09:09:47Z</time>
      </trkpt>
      <trkpt lat="47.77271" lon="-3.55104">
        <ele>41</ele>
        <time>2019-07-15T09:09:48Z</time>
      </trkpt>
      <trkpt lat="47.77271" lon="-3.55104">
        <ele>41</ele>
        <time>2019-07-15T09:09:49Z</time>
      </trkpt>
      <trkpt lat="47.77271" lon="-3.55104">
        <ele>41</ele>
        <time>2019-07-15T09:09:50Z</time>
      </trkpt>
      <trkpt lat="47.77272" lon="-3.55104">
        <ele>41</ele>
        <time>2019-07-15T09:09:51Z</time>
      </trkpt>
      <trkpt lat="47.77273" lon="-3.55104">
        <ele>41</ele>
        <time>2019-07-15T09:09:52Z</time>
      </trkpt>
      <trkpt lat="47.77274" lon="-3.55104">
        <ele>41</ele>
        <time>2019-07-15T09:09:53Z</time>
      </trkpt>
      <trkpt lat="47.77275" lon="-3.55104">
        <ele>41</ele>
        <time>2019-07-15T09:09:54Z</time>
      </trkpt>
      <trkpt lat="47.77276" lon="-3.55104">
        <ele>41</ele>
        <time>2019-07-15T09:09:55Z</time>
      </trkpt>
      <trkpt lat="47.77277" lon="-3.55103">
        <ele>41</ele>
        <time>2019-07-15T09:09:56Z</time>
      </trkpt>
      <trkpt lat="47.77278" lon="-3.55101">
        <ele>40</ele>
        <time>2019-07-15T09:09:57Z</time>
      </trkpt>
      <trkpt lat="47.77279" lon="-3.55099">
        <ele>40</ele>
        <time>2019-07-15T09:09:58Z</time>
      </trkpt>
      <trkpt lat="47.77279" lon="-3.55095">
        <ele>40</ele>
        <time>2019-07-15T09:09:59Z</time>
      </trkpt>
      <trkpt lat="47.77279" lon="-3.55091">
        <ele>40</ele>
        <time>2019-07-15T09:10:00Z</time>
      </trkpt>
      <trkpt lat="47.7728" lon="-3.55088">
        <ele>40</ele>
        <time>2019-07-15T09:10:01Z</time>
      </trkpt>
      <trkpt lat="47.77281" lon="-3.55085">
        <ele>40</ele>
        <time>2019-07-15T09:10:02Z</time>
      </trkpt>
      <trkpt lat="47.77282" lon="-3.55082">
        <ele>40</ele>
        <time>2019-07-15T09:10:03Z</time>
      </trkpt>
      <trkpt lat="47.77284" lon="-3.55081">
        <ele>40</ele>
        <time>2019-07-15T09:10:04Z</time>
      </trkpt>
      <trkpt lat="47.77285" lon="-3.55079">
        <ele>39</ele>
        <time>2019-07-15T09:10:05Z</time>
      </trkpt>
      <trkpt lat="47.77286" lon="-3.55077">
        <ele>39</ele>
        <time>2019-07-15T09:10:06Z</time>
      </trkpt>
      <trkpt lat="47.77287" lon="-3.55075">
        <ele>39</ele>
        <time>2019-07-15T09:10:07Z</time>
      </trkpt>
      <trkpt lat="47.77287" lon="-3.55073">
        <ele>39</ele>
        <time>2019-07-15T09:10:08Z</time>
      </trkpt>
      <trkpt lat="47.77287" lon="-3.5507">
        <ele>38</ele>
        <time>2019-07-15T09:10:09Z</time>
      </trkpt>
      <trkpt lat="47.77287" lon="-3.55068">
        <ele>38</ele>
        <time>2019-07-15T09:10:10Z</time>
      </trkpt>
      <trkpt lat="47.77287" lon="-3.55065">
        <ele>38</ele>
        <time>2019-07-15T09:10:11Z</time>
      </trkpt>
      <trkpt lat="47.77287" lon="-3.55062">
        <ele>38</ele>
        <time>2019-07-15T09:10:12Z</time>
      </trkpt>
      <trkpt lat="47.77287" lon="-3.55058">
        <ele>38</ele>
        <time>2019-07-15T09:10:13Z</time>
      </trkpt>
      <trkpt lat="47.77287" lon="-3.55054">
        <ele>38</ele>
        <time>2019-07-15T09:10:14Z</time>
      </trkpt>
      <trkpt lat="47.77287" lon="-3.55049">
        <ele>38</ele>
        <time>2019-07-15T09:10:15Z</time>
      </trkpt>
      <trkpt lat="47.77287" lon="-3.55044">
        <ele>37</ele>
        <time>2019-07-15T09:10:16Z</time>
      </trkpt>
      <trkpt lat="47.77287" lon="-3.55039">
        <ele>37</ele>
        <time>2019-07-15T09:10:17Z</time>
      </trkpt>
      <trkpt lat="47.77288" lon="-3.55032">
        <ele>37</ele>
        <time>2019-07-15T09:10:18Z</time>
      </trkpt>
      <trkpt lat="47.77289" lon="-3.55026">
        <ele>37</ele>
        <time>2019-07-15T09:10:19Z</time>
      </trkpt>
      <trkpt lat="47.7729" lon="-3.55019">
        <ele>37</ele>
        <time>2019-07-15T09:10:20Z</time>
      </trkpt>
      <trkpt lat="47.77292" lon="-3.55013">
        <ele>37</ele>
        <time>2019-07-15T09:10:21Z</time>
      </trkpt>
      <trkpt lat="47.77293" lon="-3.55007">
        <ele>37</ele>
        <time>2019-07-15T09:10:22Z</time>
      </trkpt>
      <trkpt lat="47.77295" lon="-3.55001">
        <ele>37</ele>
        <time>2019-07-15T09:10:23Z</time>
      </trkpt>
      <trkpt lat="47.77296" lon="-3.54995">
        <ele>37</ele>
        <time>2019-07-15T09:10:24Z</time>
      </trkpt>
      <trkpt lat="47.77298" lon="-3.54989">
        <ele>37</ele>
        <time>2019-07-15T09:10:25Z</time>
      </trkpt>
      <trkpt lat="47.77299" lon="-3.54984">
        <ele>37</ele>
        <time>2019-07-15T09:10:26Z</time>
      </trkpt>
      <trkpt lat="47.773" lon="-3.5498">
        <ele>37</ele>
        <time>2019-07-15T09:10:27Z</time>
      </trkpt>
      <trkpt lat="47.77301" lon="-3.54976">
        <ele>37</ele>
        <time>2019-07-15T09:10:28Z</time>
      </trkpt>
      <trkpt lat="47.77301" lon="-3.54973">
        <ele>37</ele>
        <time>2019-07-15T09:10:29Z</time>
      </trkpt>
      <trkpt lat="47.77302" lon="-3.54969">
        <ele>37</ele>
        <time>2019-07-15T09:10:30Z</time>
      </trkpt>
      <trkpt lat="47.77303" lon="-3.54965">
        <ele>37</ele>
        <time>2019-07-15T09:10:31Z</time>
      </trkpt>
      <trkpt lat="47.77303" lon="-3.54963">
        <ele>37</ele>
        <time>2019-07-15T09:10:32Z</time>
      </trkpt>
      <trkpt lat="47.77305" lon="-3.54961">
        <ele>37</ele>
        <time>2019-07-15T09:10:33Z</time>
      </trkpt>
      <trkpt lat="47.77306" lon="-3.54962">
        <ele>37</ele>
        <time>2019-07-15T09:10:34Z</time>
      </trkpt>
      <trkpt lat="47.77309" lon="-3.54962">
        <ele>37</ele>
        <time>2019-07-15T09:10:35Z</time>
      </trkpt>
      <trkpt lat="47.7731" lon="-3.54963">
        <ele>37</ele>
        <time>2019-07-15T09:10:36Z</time>
      </trkpt>
      <trkpt lat="47.77312" lon="-3.54962">
        <ele>37</ele>
        <time>2019-07-15T09:10:37Z</time>
      </trkpt>
      <trkpt lat="47.77313" lon="-3.54962">
        <ele>36</ele>
        <time>2019-07-15T09:10:38Z</time>
      </trkpt>
      <trkpt lat="47.77314" lon="-3.54962">
        <ele>36</ele>
        <time>2019-07-15T09:10:39Z</time>
      </trkpt>
      <trkpt lat="47.77315" lon="-3.54961">
        <ele>36</ele>
        <time>2019-07-15T09:10:40Z</time>
      </trkpt>
      <trkpt lat="47.77315" lon="-3.54961">
        <ele>36</ele>
        <time>2019-07-15T09:10:41Z</time>
      </trkpt>
      <trkpt lat="47.77316" lon="-3.54961">
        <ele>36</ele>
        <time>2019-07-15T09:10:42Z</time>
      </trkpt>
      <trkpt lat="47.77316" lon="-3.54962">
        <ele>36</ele>
        <time>2019-07-15T09:10:43Z</time>
      </trkpt>
      <trkpt lat="47.77316" lon="-3.54962">
        <ele>35</ele>
        <time>2019-07-15T09:10:44Z</time>
      </trkpt>
      <trkpt lat="47.77317" lon="-3.54959">
        <ele>34</ele>
        <time>2019-07-15T09:10:45Z</time>
      </trkpt>
      <trkpt lat="47.77317" lon="-3.54956">
        <ele>34</ele>
        <time>2019-07-15T09:10:46Z</time>
      </trkpt>
      <trkpt lat="47.77318" lon="-3.54952">
        <ele>34</ele>
        <time>2019-07-15T09:10:47Z</time>
      </trkpt>
      <trkpt lat="47.77319" lon="-3.54949">
        <ele>34</ele>
        <time>2019-07-15T09:10:48Z</time>
      </trkpt>
      <trkpt lat="47.7732" lon="-3.54946">
        <ele>34</ele>
        <time>2019-07-15T09:10:49Z</time>
      </trkpt>
      <trkpt lat="47.77322" lon="-3.54942">
        <ele>34</ele>
        <time>2019-07-15T09:10:50Z</time>
      </trkpt>
      <trkpt lat="47.77323" lon="-3.54938">
        <ele>34</ele>
        <time>2019-07-15T09:10:51Z</time>
      </trkpt>
      <trkpt lat="47.77325" lon="-3.54934">
        <ele>34</ele>
        <time>2019-07-15T09:10:52Z</time>
      </trkpt>
      <trkpt lat="47.77325" lon="-3.5493">
        <ele>34</ele>
        <time>2019-07-15T09:10:53Z</time>
      </trkpt>
      <trkpt lat="47.77325" lon="-3.54926">
        <ele>34</ele>
        <time>2019-07-15T09:10:54Z</time>
      </trkpt>
      <trkpt lat="47.77325" lon="-3.54923">
        <ele>34</ele>
        <time>2019-07-15T09:10:55Z</time>
      </trkpt>
      <trkpt lat="47.77324" lon="-3.54921">
        <ele>34</ele>
        <time>2019-07-15T09:10:56Z</time>
      </trkpt>
      <trkpt lat="47.77323" lon="-3.54918">
        <ele>34</ele>
        <time>2019-07-15T09:10:57Z</time>
      </trkpt>
      <trkpt lat="47.77322" lon="-3.54916">
        <ele>34</ele>
        <time>2019-07-15T09:10:58Z</time>
      </trkpt>
      <trkpt lat="47.77322" lon="-3.54914">
        <ele>34</ele>
        <time>2019-07-15T09:10:59Z</time>
      </trkpt>
      <trkpt lat="47.77322" lon="-3.54911">
        <ele>34</ele>
        <time>2019-07-15T09:11:00Z</time>
      </trkpt>
      <trkpt lat="47.77322" lon="-3.54909">
        <ele>34</ele>
        <time>2019-07-15T09:11:01Z</time>
      </trkpt>
      <trkpt lat="47.77322" lon="-3.54907">
        <ele>34</ele>
        <time>2019-07-15T09:11:02Z</time>
      </trkpt>
      <trkpt lat="47.77323" lon="-3.54904">
        <ele>34</ele>
        <time>2019-07-15T09:11:03Z</time>
      </trkpt>
      <trkpt lat="47.77324" lon="-3.54902">
        <ele>34</ele>
        <time>2019-07-15T09:11:04Z</time>
      </trkpt>
      <trkpt lat="47.77325" lon="-3.549">
        <ele>34</ele>
        <time>2019-07-15T09:11:05Z</time>
      </trkpt>
      <trkpt lat="47.77326" lon="-3.54898">
        <ele>34</ele>
        <time>2019-07-15T09:11:06Z</time>
      </trkpt>
      <trkpt lat="47.77327" lon="-3.54895">
        <ele>34</ele>
        <time>2019-07-15T09:11:07Z</time>
      </trkpt>
      <trkpt lat="47.77328" lon="-3.54892">
        <ele>34</ele>
        <time>2019-07-15T09:11:08Z</time>
      </trkpt>
      <trkpt lat="47.77328" lon="-3.54889">
        <ele>34</ele>
        <time>2019-07-15T09:11:09Z</time>
      </trkpt>
      <trkpt lat="47.77329" lon="-3.54885">
        <ele>34</ele>
        <time>2019-07-15T09:11:10Z</time>
      </trkpt>
      <trkpt lat="47.77329" lon="-3.54882">
        <ele>34</ele>
        <time>2019-07-15T09:11:11Z</time>
      </trkpt>
      <trkpt lat="47.7733" lon="-3.54878">
        <ele>34</ele>
        <time>2019-07-15T09:11:12Z</time>
      </trkpt>
      <trkpt lat="47.7733" lon="-3.54875">
        <ele>34</ele>
        <time>2019-07-15T09:11:13Z</time>
      </trkpt>
      <trkpt lat="47.77331" lon="-3.54871">
        <ele>34</ele>
        <time>2019-07-15T09:11:14Z</time>
      </trkpt>
      <trkpt lat="47.77331" lon="-3.54867">
        <ele>34</ele>
        <time>2019-07-15T09:11:15Z</time>
      </trkpt>
      <trkpt lat="47.77332" lon="-3.54864">
        <ele>34</ele>
        <time>2019-07-15T09:11:16Z</time>
      </trkpt>
      <trkpt lat="47.77332" lon="-3.54861">
        <ele>34</ele>
        <time>2019-07-15T09:11:17Z</time>
      </trkpt>
      <trkpt lat="47.77333" lon="-3.54857">
        <ele>34</ele>
        <time>2019-07-15T09:11:18Z</time>
      </trkpt>
      <trkpt lat="47.77334" lon="-3.54853">
        <ele>34</ele>
        <time>2019-07-15T09:11:19Z</time>
      </trkpt>
      <trkpt lat="47.77335" lon="-3.54849">
        <ele>34</ele>
        <time>2019-07-15T09:11:20Z</time>
      </trkpt>
      <trkpt lat="47.77336" lon="-3.54846">
        <ele>34</ele>
        <time>2019-07-15T09:11:21Z</time>
      </trkpt>
      <trkpt lat="47.77336" lon="-3.54842">
        <ele>34</ele>
        <time>2019-07-15T09:11:22Z</time>
      </trkpt>
      <trkpt lat="47.77337" lon="-3.54839">
        <ele>34</ele>
        <time>2019-07-15T09:11:23Z</time>
      </trkpt>
      <trkpt lat="47.77338" lon="-3.54835">
        <ele>34</ele>
        <time>2019-07-15T09:11:24Z</time>
      </trkpt>
      <trkpt lat="47.77339" lon="-3.54831">
        <ele>34</ele>
        <time>2019-07-15T09:11:25Z</time>
      </trkpt>
      <trkpt lat="47.77339" lon="-3.54827">
        <ele>34</ele>
        <time>2019-07-15T09:11:26Z</time>
      </trkpt>
      <trkpt lat="47.77338" lon="-3.54823">
        <ele>34</ele>
        <time>2019-07-15T09:11:27Z</time>
      </trkpt>
      <trkpt lat="47.77337" lon="-3.5482">
        <ele>33</ele>
        <time>2019-07-15T09:11:28Z</time>
      </trkpt>
      <trkpt lat="47.77336" lon="-3.54816">
        <ele>33</ele>
        <time>2019-07-15T09:11:29Z</time>
      </trkpt>
      <trkpt lat="47.77335" lon="-3.54812">
        <ele>33</ele>
        <time>2019-07-15T09:11:30Z</time>
      </trkpt>
      <trkpt lat="47.77333" lon="-3.54808">
        <ele>33</ele>
        <time>2019-07-15T09:11:31Z</time>
      </trkpt>
      <trkpt lat="47.77332" lon="-3.54804">
        <ele>33</ele>
        <time>2019-07-15T09:11:32Z</time>
      </trkpt>
      <trkpt lat="47.7733" lon="-3.548">
        <ele>33</ele>
        <time>2019-07-15T09:11:33Z</time>
      </trkpt>
      <trkpt lat="47.77329" lon="-3.54796">
        <ele>32</ele>
        <time>2019-07-15T09:11:34Z</time>
      </trkpt>
      <trkpt lat="47.77328" lon="-3.54793">
        <ele>32</ele>
        <time>2019-07-15T09:11:35Z</time>
      </trkpt>
      <trkpt lat="47.77326" lon="-3.54789">
        <ele>32</ele>
        <time>2019-07-15T09:11:36Z</time>
      </trkpt>
      <trkpt lat="47.77325" lon="-3.54786">
        <ele>32</ele>
        <time>2019-07-15T09:11:37Z</time>
      </trkpt>
      <trkpt lat="47.77323" lon="-3.54782">
        <ele>32</ele>
        <time>2019-07-15T09:11:38Z</time>
      </trkpt>
      <trkpt lat="47.77321" lon="-3.54778">
        <ele>32</ele>
        <time>2019-07-15T09:11:39Z</time>
      </trkpt>
      <trkpt lat="47.7732" lon="-3.54775">
        <ele>32</ele>
        <time>2019-07-15T09:11:40Z</time>
      </trkpt>
      <trkpt lat="47.77318" lon="-3.54771">
        <ele>31</ele>
        <time>2019-07-15T09:11:41Z</time>
      </trkpt>
      <trkpt lat="47.77316" lon="-3.54767">
        <ele>31</ele>
        <time>2019-07-15T09:11:42Z</time>
      </trkpt>
      <trkpt lat="47.77314" lon="-3.54764">
        <ele>31</ele>
        <time>2019-07-15T09:11:43Z</time>
      </trkpt>
      <trkpt lat="47.77312" lon="-3.54761">
        <ele>31</ele>
        <time>2019-07-15T09:11:44Z</time>
      </trkpt>
      <trkpt lat="47.7731" lon="-3.54757">
        <ele>31</ele>
        <time>2019-07-15T09:11:45Z</time>
      </trkpt>
      <trkpt lat="47.77308" lon="-3.54753">
        <ele>31</ele>
        <time>2019-07-15T09:11:46Z</time>
      </trkpt>
      <trkpt lat="47.77306" lon="-3.5475">
        <ele>31</ele>
        <time>2019-07-15T09:11:47Z</time>
      </trkpt>
      <trkpt lat="47.77303" lon="-3.54746">
        <ele>31</ele>
        <time>2019-07-15T09:11:48Z</time>
      </trkpt>
      <trkpt lat="47.77302" lon="-3.54741">
        <ele>31</ele>
        <time>2019-07-15T09:11:49Z</time>
      </trkpt>
      <trkpt lat="47.773" lon="-3.54737">
        <ele>31</ele>
        <time>2019-07-15T09:11:50Z</time>
      </trkpt>
      <trkpt lat="47.77298" lon="-3.54733">
        <ele>31</ele>
        <time>2019-07-15T09:11:51Z</time>
      </trkpt>
      <trkpt lat="47.77297" lon="-3.54729">
        <ele>31</ele>
        <time>2019-07-15T09:11:52Z</time>
      </trkpt>
      <trkpt lat="47.77295" lon="-3.54725">
        <ele>31</ele>
        <time>2019-07-15T09:11:53Z</time>
      </trkpt>
      <trkpt lat="47.77294" lon="-3.54721">
        <ele>32</ele>
        <time>2019-07-15T09:11:54Z</time>
      </trkpt>
      <trkpt lat="47.77293" lon="-3.54717">
        <ele>32</ele>
        <time>2019-07-15T09:11:55Z</time>
      </trkpt>
      <trkpt lat="47.77292" lon="-3.54712">
        <ele>32</ele>
        <time>2019-07-15T09:11:56Z</time>
      </trkpt>
      <trkpt lat="47.77292" lon="-3.54707">
        <ele>32</ele>
        <time>2019-07-15T09:11:57Z</time>
      </trkpt>
      <trkpt lat="47.77292" lon="-3.54703">
        <ele>33</ele>
        <time>2019-07-15T09:11:58Z</time>
      </trkpt>
      <trkpt lat="47.77291" lon="-3.54697">
        <ele>33</ele>
        <time>2019-07-15T09:11:59Z</time>
      </trkpt>
      <trkpt lat="47.77291" lon="-3.54691">
        <ele>33</ele>
        <time>2019-07-15T09:12:00Z</time>
      </trkpt>
      <trkpt lat="47.77291" lon="-3.54686">
        <ele>33</ele>
        <time>2019-07-15T09:12:01Z</time>
      </trkpt>
      <trkpt lat="47.77291" lon="-3.5468">
        <ele>34</ele>
        <time>2019-07-15T09:12:02Z</time>
      </trkpt>
      <trkpt lat="47.77291" lon="-3.54674">
        <ele>34</ele>
        <time>2019-07-15T09:12:03Z</time>
      </trkpt>
      <trkpt lat="47.77292" lon="-3.54669">
        <ele>34</ele>
        <time>2019-07-15T09:12:04Z</time>
      </trkpt>
      <trkpt lat="47.77292" lon="-3.54664">
        <ele>34</ele>
        <time>2019-07-15T09:12:05Z</time>
      </trkpt>
      <trkpt lat="47.77293" lon="-3.5466">
        <ele>35</ele>
        <time>2019-07-15T09:12:06Z</time>
      </trkpt>
      <trkpt lat="47.77293" lon="-3.54656">
        <ele>35</ele>
        <time>2019-07-15T09:12:07Z</time>
      </trkpt>
      <trkpt lat="47.77295" lon="-3.54653">
        <ele>35</ele>
        <time>2019-07-15T09:12:08Z</time>
      </trkpt>
      <trkpt lat="47.77296" lon="-3.54651">
        <ele>35</ele>
        <time>2019-07-15T09:12:09Z</time>
      </trkpt>
      <trkpt lat="47.77298" lon="-3.54648">
        <ele>35</ele>
        <time>2019-07-15T09:12:10Z</time>
      </trkpt>
      <trkpt lat="47.77301" lon="-3.54647">
        <ele>36</ele>
        <time>2019-07-15T09:12:11Z</time>
      </trkpt>
      <trkpt lat="47.77304" lon="-3.54646">
        <ele>36</ele>
        <time>2019-07-15T09:12:12Z</time>
      </trkpt>
      <trkpt lat="47.77307" lon="-3.54646">
        <ele>36</ele>
        <time>2019-07-15T09:12:13Z</time>
      </trkpt>
      <trkpt lat="47.77311" lon="-3.54647">
        <ele>36</ele>
        <time>2019-07-15T09:12:14Z</time>
      </trkpt>
      <trkpt lat="47.77315" lon="-3.54647">
        <ele>36</ele>
        <time>2019-07-15T09:12:15Z</time>
      </trkpt>
      <trkpt lat="47.77318" lon="-3.54648">
        <ele>36</ele>
        <time>2019-07-15T09:12:16Z</time>
      </trkpt>
      <trkpt lat="47.77322" lon="-3.54649">
        <ele>36</ele>
        <time>2019-07-15T09:12:17Z</time>
      </trkpt>
      <trkpt lat="47.77326" lon="-3.54649">
        <ele>36</ele>
        <time>2019-07-15T09:12:18Z</time>
      </trkpt>
      <trkpt lat="47.77329" lon="-3.54649">
        <ele>36</ele>
        <time>2019-07-15T09:12:19Z</time>
      </trkpt>
      <trkpt lat="47.77333" lon="-3.54649">
        <ele>36</ele>
        <time>2019-07-15T09:12:20Z</time>
      </trkpt>
      <trkpt lat="47.77337" lon="-3.54648">
        <ele>36</ele>
        <time>2019-07-15T09:12:21Z</time>
      </trkpt>
      <trkpt lat="47.77341" lon="-3.54648">
        <ele>36</ele>
        <time>2019-07-15T09:12:22Z</time>
      </trkpt>
      <trkpt lat="47.77344" lon="-3.54647">
        <ele>36</ele>
        <time>2019-07-15T09:12:23Z</time>
      </trkpt>
      <trkpt lat="47.77348" lon="-3.54647">
        <ele>36</ele>
        <time>2019-07-15T09:12:24Z</time>
      </trkpt>
      <trkpt lat="47.77351" lon="-3.54646">
        <ele>36</ele>
        <time>2019-07-15T09:12:25Z</time>
      </trkpt>
      <trkpt lat="47.77355" lon="-3.54645">
        <ele>36</ele>
        <time>2019-07-15T09:12:26Z</time>
      </trkpt>
      <trkpt lat="47.77358" lon="-3.54644">
        <ele>36</ele>
        <time>2019-07-15T09:12:27Z</time>
      </trkpt>
      <trkpt lat="47.77361" lon="-3.54642">
        <ele>37</ele>
        <time>2019-07-15T09:12:28Z</time>
      </trkpt>
      <trkpt lat="47.77363" lon="-3.5464">
        <ele>37</ele>
        <time>2019-07-15T09:12:29Z</time>
      </trkpt>
      <trkpt lat="47.77366" lon="-3.54638">
        <ele>37</ele>
        <time>2019-07-15T09:12:30Z</time>
      </trkpt>
      <trkpt lat="47.77369" lon="-3.54635">
        <ele>37</ele>
        <time>2019-07-15T09:12:31Z</time>
      </trkpt>
      <trkpt lat="47.77372" lon="-3.54632">
        <ele>37</ele>
        <time>2019-07-15T09:12:32Z</time>
      </trkpt>
      <trkpt lat="47.77375" lon="-3.54628">
        <ele>37</ele>
        <time>2019-07-15T09:12:33Z</time>
      </trkpt>
      <trkpt lat="47.77379" lon="-3.54625">
        <ele>38</ele>
        <time>2019-07-15T09:12:34Z</time>
      </trkpt>
      <trkpt lat="47.77384" lon="-3.54621">
        <ele>38</ele>
        <time>2019-07-15T09:12:35Z</time>
      </trkpt>
      <trkpt lat="47.77388" lon="-3.54617">
        <ele>38</ele>
        <time>2019-07-15T09:12:36Z</time>
      </trkpt>
      <trkpt lat="47.77391" lon="-3.54613">
        <ele>38</ele>
        <time>2019-07-15T09:12:37Z</time>
      </trkpt>
      <trkpt lat="47.77396" lon="-3.5461">
        <ele>38</ele>
        <time>2019-07-15T09:12:38Z</time>
      </trkpt>
      <trkpt lat="47.774" lon="-3.54606">
        <ele>38</ele>
        <time>2019-07-15T09:12:39Z</time>
      </trkpt>
      <trkpt lat="47.77404" lon="-3.54603">
        <ele>38</ele>
        <time>2019-07-15T09:12:40Z</time>
      </trkpt>
      <trkpt lat="47.77408" lon="-3.546">
        <ele>38</ele>
        <time>2019-07-15T09:12:41Z</time>
      </trkpt>
      <trkpt lat="47.77413" lon="-3.54597">
        <ele>38</ele>
        <time>2019-07-15T09:12:42Z</time>
      </trkpt>
      <trkpt lat="47.77417" lon="-3.54593">
        <ele>38</ele>
        <time>2019-07-15T09:12:43Z</time>
      </trkpt>
      <trkpt lat="47.77421" lon="-3.5459">
        <ele>38</ele>
        <time>2019-07-15T09:12:44Z</time>
      </trkpt>
      <trkpt lat="47.77425" lon="-3.54588">
        <ele>38</ele>
        <time>2019-07-15T09:12:45Z</time>
      </trkpt>
      <trkpt lat="47.77429" lon="-3.54585">
        <ele>38</ele>
        <time>2019-07-15T09:12:46Z</time>
      </trkpt>
      <trkpt lat="47.77432" lon="-3.5458">
        <ele>38</ele>
        <time>2019-07-15T09:12:47Z</time>
      </trkpt>
      <trkpt lat="47.77434" lon="-3.54575">
        <ele>38</ele>
        <time>2019-07-15T09:12:48Z</time>
      </trkpt>
      <trkpt lat="47.77434" lon="-3.54568">
        <ele>38</ele>
        <time>2019-07-15T09:12:49Z</time>
      </trkpt>
      <trkpt lat="47.77434" lon="-3.54562">
        <ele>38</ele>
        <time>2019-07-15T09:12:50Z</time>
      </trkpt>
      <trkpt lat="47.77432" lon="-3.54556">
        <ele>38</ele>
        <time>2019-07-15T09:12:51Z</time>
      </trkpt>
      <trkpt lat="47.77431" lon="-3.5455">
        <ele>38</ele>
        <time>2019-07-15T09:12:52Z</time>
      </trkpt>
      <trkpt lat="47.77429" lon="-3.54543">
        <ele>38</ele>
        <time>2019-07-15T09:12:53Z</time>
      </trkpt>
      <trkpt lat="47.77427" lon="-3.54537">
        <ele>37</ele>
        <time>2019-07-15T09:12:54Z</time>
      </trkpt>
      <trkpt lat="47.77425" lon="-3.5453">
        <ele>37</ele>
        <time>2019-07-15T09:12:55Z</time>
      </trkpt>
      <trkpt lat="47.77423" lon="-3.54524">
        <ele>37</ele>
        <time>2019-07-15T09:12:56Z</time>
      </trkpt>
      <trkpt lat="47.7742" lon="-3.54518">
        <ele>37</ele>
        <time>2019-07-15T09:12:57Z</time>
      </trkpt>
      <trkpt lat="47.77418" lon="-3.54511">
        <ele>37</ele>
        <time>2019-07-15T09:12:58Z</time>
      </trkpt>
      <trkpt lat="47.77415" lon="-3.54505">
        <ele>36</ele>
        <time>2019-07-15T09:12:59Z</time>
      </trkpt>
      <trkpt lat="47.77412" lon="-3.54499">
        <ele>36</ele>
        <time>2019-07-15T09:13:00Z</time>
      </trkpt>
      <trkpt lat="47.77409" lon="-3.54493">
        <ele>36</ele>
        <time>2019-07-15T09:13:01Z</time>
      </trkpt>
      <trkpt lat="47.77406" lon="-3.54487">
        <ele>36</ele>
        <time>2019-07-15T09:13:02Z</time>
      </trkpt>
      <trkpt lat="47.77404" lon="-3.5448">
        <ele>36</ele>
        <time>2019-07-15T09:13:03Z</time>
      </trkpt>
      <trkpt lat="47.77401" lon="-3.54474">
        <ele>36</ele>
        <time>2019-07-15T09:13:04Z</time>
      </trkpt>
      <trkpt lat="47.77398" lon="-3.54468">
        <ele>36</ele>
        <time>2019-07-15T09:13:05Z</time>
      </trkpt>
      <trkpt lat="47.77394" lon="-3.54462">
        <ele>36</ele>
        <time>2019-07-15T09:13:06Z</time>
      </trkpt>
      <trkpt lat="47.77391" lon="-3.54457">
        <ele>35</ele>
        <time>2019-07-15T09:13:07Z</time>
      </trkpt>
      <trkpt lat="47.77388" lon="-3.54451">
        <ele>35</ele>
        <time>2019-07-15T09:13:08Z</time>
      </trkpt>
      <trkpt lat="47.77384" lon="-3.54445">
        <ele>35</ele>
        <time>2019-07-15T09:13:09Z</time>
      </trkpt>
      <trkpt lat="47.77381" lon="-3.5444">
        <ele>35</ele>
        <time>2019-07-15T09:13:10Z</time>
      </trkpt>
      <trkpt lat="47.77377" lon="-3.54435">
        <ele>35</ele>
        <time>2019-07-15T09:13:11Z</time>
      </trkpt>
      <trkpt lat="47.77374" lon="-3.54429">
        <ele>35</ele>
        <time>2019-07-15T09:13:12Z</time>
      </trkpt>
      <trkpt lat="47.7737" lon="-3.54424">
        <ele>35</ele>
        <time>2019-07-15T09:13:13Z</time>
      </trkpt>
      <trkpt lat="47.77366" lon="-3.54418">
        <ele>35</ele>
        <time>2019-07-15T09:13:14Z</time>
      </trkpt>
      <trkpt lat="47.77362" lon="-3.54413">
        <ele>35</ele>
        <time>2019-07-15T09:13:15Z</time>
      </trkpt>
      <trkpt lat="47.77358" lon="-3.54408">
        <ele>35</ele>
        <time>2019-07-15T09:13:16Z</time>
      </trkpt>
      <trkpt lat="47.77354" lon="-3.54403">
        <ele>35</ele>
        <time>2019-07-15T09:13:17Z</time>
      </trkpt>
      <trkpt lat="47.7735" lon="-3.54398">
        <ele>35</ele>
        <time>2019-07-15T09:13:18Z</time>
      </trkpt>
      <trkpt lat="47.77346" lon="-3.54393">
        <ele>35</ele>
        <time>2019-07-15T09:13:19Z</time>
      </trkpt>
      <trkpt lat="47.77342" lon="-3.54388">
        <ele>35</ele>
        <time>2019-07-15T09:13:20Z</time>
      </trkpt>
      <trkpt lat="47.77339" lon="-3.54383">
        <ele>35</ele>
        <time>2019-07-15T09:13:21Z</time>
      </trkpt>
      <trkpt lat="47.77335" lon="-3.54379">
        <ele>35</ele>
        <time>2019-07-15T09:13:22Z</time>
      </trkpt>
      <trkpt lat="47.77332" lon="-3.54374">
        <ele>35</ele>
        <time>2019-07-15T09:13:23Z</time>
      </trkpt>
      <trkpt lat="47.77328" lon="-3.5437">
        <ele>35</ele>
        <time>2019-07-15T09:13:24Z</time>
      </trkpt>
      <trkpt lat="47.77325" lon="-3.54366">
        <ele>35</ele>
        <time>2019-07-15T09:13:25Z</time>
      </trkpt>
      <trkpt lat="47.77322" lon="-3.54361">
        <ele>35</ele>
        <time>2019-07-15T09:13:26Z</time>
      </trkpt>
      <trkpt lat="47.77319" lon="-3.54357">
        <ele>35</ele>
        <time>2019-07-15T09:13:27Z</time>
      </trkpt>
      <trkpt lat="47.77316" lon="-3.54353">
        <ele>35</ele>
        <time>2019-07-15T09:13:28Z</time>
      </trkpt>
      <trkpt lat="47.77313" lon="-3.54349">
        <ele>35</ele>
        <time>2019-07-15T09:13:29Z</time>
      </trkpt>
      <trkpt lat="47.77309" lon="-3.54345">
        <ele>35</ele>
        <time>2019-07-15T09:13:30Z</time>
      </trkpt>
      <trkpt lat="47.77306" lon="-3.5434">
        <ele>35</ele>
        <time>2019-07-15T09:13:31Z</time>
      </trkpt>
      <trkpt lat="47.77303" lon="-3.54336">
        <ele>35</ele>
        <time>2019-07-15T09:13:32Z</time>
      </trkpt>
      <trkpt lat="47.773" lon="-3.54332">
        <ele>35</ele>
        <time>2019-07-15T09:13:33Z</time>
      </trkpt>
      <trkpt lat="47.77297" lon="-3.54328">
        <ele>35</ele>
        <time>2019-07-15T09:13:34Z</time>
      </trkpt>
      <trkpt lat="47.77295" lon="-3.54324">
        <ele>35</ele>
        <time>2019-07-15T09:13:35Z</time>
      </trkpt>
      <trkpt lat="47.77292" lon="-3.5432">
        <ele>35</ele>
        <time>2019-07-15T09:13:36Z</time>
      </trkpt>
      <trkpt lat="47.7729" lon="-3.54317">
        <ele>35</ele>
        <time>2019-07-15T09:13:37Z</time>
      </trkpt>
      <trkpt lat="47.77288" lon="-3.54313">
        <ele>35</ele>
        <time>2019-07-15T09:13:38Z</time>
      </trkpt>
      <trkpt lat="47.77286" lon="-3.5431">
        <ele>35</ele>
        <time>2019-07-15T09:13:39Z</time>
      </trkpt>
      <trkpt lat="47.77284" lon="-3.54307">
        <ele>35</ele>
        <time>2019-07-15T09:13:40Z</time>
      </trkpt>
      <trkpt lat="47.77282" lon="-3.54303">
        <ele>36</ele>
        <time>2019-07-15T09:13:41Z</time>
      </trkpt>
      <trkpt lat="47.7728" lon="-3.54299">
        <ele>36</ele>
        <time>2019-07-15T09:13:42Z</time>
      </trkpt>
      <trkpt lat="47.77278" lon="-3.54294">
        <ele>36</ele>
        <time>2019-07-15T09:13:43Z</time>
      </trkpt>
      <trkpt lat="47.77276" lon="-3.54288">
        <ele>36</ele>
        <time>2019-07-15T09:13:44Z</time>
      </trkpt>
      <trkpt lat="47.77273" lon="-3.54282">
        <ele>36</ele>
        <time>2019-07-15T09:13:45Z</time>
      </trkpt>
      <trkpt lat="47.7727" lon="-3.54276">
        <ele>36</ele>
        <time>2019-07-15T09:13:46Z</time>
      </trkpt>
      <trkpt lat="47.77268" lon="-3.5427">
        <ele>36</ele>
        <time>2019-07-15T09:13:47Z</time>
      </trkpt>
      <trkpt lat="47.77265" lon="-3.54264">
        <ele>36</ele>
        <time>2019-07-15T09:13:48Z</time>
      </trkpt>
      <trkpt lat="47.77262" lon="-3.54258">
        <ele>36</ele>
        <time>2019-07-15T09:13:49Z</time>
      </trkpt>
      <trkpt lat="47.77259" lon="-3.54252">
        <ele>36</ele>
        <time>2019-07-15T09:13:50Z</time>
      </trkpt>
      <trkpt lat="47.77256" lon="-3.54247">
        <ele>36</ele>
        <time>2019-07-15T09:13:51Z</time>
      </trkpt>
      <trkpt lat="47.77254" lon="-3.54242">
        <ele>36</ele>
        <time>2019-07-15T09:13:52Z</time>
      </trkpt>
      <trkpt lat="47.77251" lon="-3.54237">
        <ele>36</ele>
        <time>2019-07-15T09:13:53Z</time>
      </trkpt>
      <trkpt lat="47.77248" lon="-3.54232">
        <ele>36</ele>
        <time>2019-07-15T09:13:54Z</time>
      </trkpt>
      <trkpt lat="47.77246" lon="-3.54228">
        <ele>36</ele>
        <time>2019-07-15T09:13:55Z</time>
      </trkpt>
      <trkpt lat="47.77243" lon="-3.54223">
        <ele>36</ele>
        <time>2019-07-15T09:13:56Z</time>
      </trkpt>
      <trkpt lat="47.7724" lon="-3.54218">
        <ele>36</ele>
        <time>2019-07-15T09:13:57Z</time>
      </trkpt>
      <trkpt lat="47.77238" lon="-3.54213">
        <ele>36</ele>
        <time>2019-07-15T09:13:58Z</time>
      </trkpt>
      <trkpt lat="47.77235" lon="-3.54208">
        <ele>36</ele>
        <time>2019-07-15T09:13:59Z</time>
      </trkpt>
      <trkpt lat="47.77233" lon="-3.54203">
        <ele>36</ele>
        <time>2019-07-15T09:14:00Z</time>
      </trkpt>
      <trkpt lat="47.7723" lon="-3.54198">
        <ele>36</ele>
        <time>2019-07-15T09:14:01Z</time>
      </trkpt>
      <trkpt lat="47.77227" lon="-3.54192">
        <ele>37</ele>
        <time>2019-07-15T09:14:02Z</time>
      </trkpt>
      <trkpt lat="47.77225" lon="-3.54185">
        <ele>37</ele>
        <time>2019-07-15T09:14:03Z</time>
      </trkpt>
      <trkpt lat="47.77223" lon="-3.54178">
        <ele>37</ele>
        <time>2019-07-15T09:14:04Z</time>
      </trkpt>
      <trkpt lat="47.77221" lon="-3.54171">
        <ele>37</ele>
        <time>2019-07-15T09:14:05Z</time>
      </trkpt>
      <trkpt lat="47.77219" lon="-3.54164">
        <ele>37</ele>
        <time>2019-07-15T09:14:06Z</time>
      </trkpt>
      <trkpt lat="47.77217" lon="-3.54157">
        <ele>37</ele>
        <time>2019-07-15T09:14:07Z</time>
      </trkpt>
      <trkpt lat="47.77215" lon="-3.54149">
        <ele>37</ele>
        <time>2019-07-15T09:14:08Z</time>
      </trkpt>
      <trkpt lat="47.77213" lon="-3.54142">
        <ele>38</ele>
        <time>2019-07-15T09:14:09Z</time>
      </trkpt>
      <trkpt lat="47.77212" lon="-3.54135">
        <ele>38</ele>
        <time>2019-07-15T09:14:10Z</time>
      </trkpt>
      <trkpt lat="47.7721" lon="-3.54127">
        <ele>38</ele>
        <time>2019-07-15T09:14:11Z</time>
      </trkpt>
      <trkpt lat="47.77208" lon="-3.5412">
        <ele>38</ele>
        <time>2019-07-15T09:14:12Z</time>
      </trkpt>
      <trkpt lat="47.77207" lon="-3.54112">
        <ele>38</ele>
        <time>2019-07-15T09:14:13Z</time>
      </trkpt>
      <trkpt lat="47.77205" lon="-3.54104">
        <ele>38</ele>
        <time>2019-07-15T09:14:14Z</time>
      </trkpt>
      <trkpt lat="47.77203" lon="-3.54097">
        <ele>39</ele>
        <time>2019-07-15T09:14:15Z</time>
      </trkpt>
      <trkpt lat="47.77201" lon="-3.54089">
        <ele>39</ele>
        <time>2019-07-15T09:14:16Z</time>
      </trkpt>
      <trkpt lat="47.772" lon="-3.54081">
        <ele>39</ele>
        <time>2019-07-15T09:14:17Z</time>
      </trkpt>
      <trkpt lat="47.77198" lon="-3.54073">
        <ele>39</ele>
        <time>2019-07-15T09:14:18Z</time>
      </trkpt>
      <trkpt lat="47.77196" lon="-3.54066">
        <ele>39</ele>
        <time>2019-07-15T09:14:19Z</time>
      </trkpt>
      <trkpt lat="47.77194" lon="-3.5406">
        <ele>39</ele>
        <time>2019-07-15T09:14:20Z</time>
      </trkpt>
      <trkpt lat="47.77191" lon="-3.54055">
        <ele>39</ele>
        <time>2019-07-15T09:14:21Z</time>
      </trkpt>
      <trkpt lat="47.77189" lon="-3.54052">
        <ele>39</ele>
        <time>2019-07-15T09:14:22Z</time>
      </trkpt>
      <trkpt lat="47.77187" lon="-3.54049">
        <ele>40</ele>
        <time>2019-07-15T09:14:23Z</time>
      </trkpt>
      <trkpt lat="47.77184" lon="-3.54048">
        <ele>40</ele>
        <time>2019-07-15T09:14:24Z</time>
      </trkpt>
      <trkpt lat="47.77181" lon="-3.54047">
        <ele>40</ele>
        <time>2019-07-15T09:14:25Z</time>
      </trkpt>
      <trkpt lat="47.77179" lon="-3.54047">
        <ele>40</ele>
        <time>2019-07-15T09:14:26Z</time>
      </trkpt>
      <trkpt lat="47.77177" lon="-3.54047">
        <ele>40</ele>
        <time>2019-07-15T09:14:27Z</time>
      </trkpt>
      <trkpt lat="47.77177" lon="-3.54046">
        <ele>39</ele>
        <time>2019-07-15T09:14:28Z</time>
      </trkpt>
      <trkpt lat="47.77176" lon="-3.54046">
        <ele>39</ele>
        <time>2019-07-15T09:14:29Z</time>
      </trkpt>
      <trkpt lat="47.77173" lon="-3.54046">
        <ele>39</ele>
        <time>2019-07-15T09:14:30Z</time>
      </trkpt>
      <trkpt lat="47.77171" lon="-3.54046">
        <ele>39</ele>
        <time>2019-07-15T09:14:31Z</time>
      </trkpt>
      <trkpt lat="47.77168" lon="-3.54046">
        <ele>38</ele>
        <time>2019-07-15T09:14:32Z</time>
      </trkpt>
      <trkpt lat="47.77166" lon="-3.54046">
        <ele>38</ele>
        <time>2019-07-15T09:14:33Z</time>
      </trkpt>
      <trkpt lat="47.77162" lon="-3.54046">
        <ele>38</ele>
        <time>2019-07-15T09:14:34Z</time>
      </trkpt>
      <trkpt lat="47.77158" lon="-3.54047">
        <ele>38</ele>
        <time>2019-07-15T09:14:35Z</time>
      </trkpt>
      <trkpt lat="47.77154" lon="-3.54047">
        <ele>38</ele>
        <time>2019-07-15T09:14:36Z</time>
      </trkpt>
      <trkpt lat="47.7715" lon="-3.54047">
        <ele>37</ele>
        <time>2019-07-15T09:14:37Z</time>
      </trkpt>
      <trkpt lat="47.77145" lon="-3.54046">
        <ele>37</ele>
        <time>2019-07-15T09:14:38Z</time>
      </trkpt>
      <trkpt lat="47.77141" lon="-3.54045">
        <ele>37</ele>
        <time>2019-07-15T09:14:39Z</time>
      </trkpt>
      <trkpt lat="47.77136" lon="-3.54044">
        <ele>37</ele>
        <time>2019-07-15T09:14:40Z</time>
      </trkpt>
      <trkpt lat="47.77132" lon="-3.54043">
        <ele>37</ele>
        <time>2019-07-15T09:14:41Z</time>
      </trkpt>
      <trkpt lat="47.77127" lon="-3.5404">
        <ele>36</ele>
        <time>2019-07-15T09:14:42Z</time>
      </trkpt>
      <trkpt lat="47.77123" lon="-3.54038">
        <ele>36</ele>
        <time>2019-07-15T09:14:43Z</time>
      </trkpt>
      <trkpt lat="47.77118" lon="-3.54036">
        <ele>36</ele>
        <time>2019-07-15T09:14:44Z</time>
      </trkpt>
      <trkpt lat="47.77112" lon="-3.54034">
        <ele>36</ele>
        <time>2019-07-15T09:14:45Z</time>
      </trkpt>
      <trkpt lat="47.77106" lon="-3.54031">
        <ele>36</ele>
        <time>2019-07-15T09:14:46Z</time>
      </trkpt>
      <trkpt lat="47.771" lon="-3.54029">
        <ele>35</ele>
        <time>2019-07-15T09:14:47Z</time>
      </trkpt>
      <trkpt lat="47.77094" lon="-3.54027">
        <ele>35</ele>
        <time>2019-07-15T09:14:48Z</time>
      </trkpt>
      <trkpt lat="47.77088" lon="-3.54025">
        <ele>35</ele>
        <time>2019-07-15T09:14:49Z</time>
      </trkpt>
      <trkpt lat="47.77081" lon="-3.54023">
        <ele>35</ele>
        <time>2019-07-15T09:14:50Z</time>
      </trkpt>
      <trkpt lat="47.77074" lon="-3.5402">
        <ele>34</ele>
        <time>2019-07-15T09:14:51Z</time>
      </trkpt>
      <trkpt lat="47.77066" lon="-3.54018">
        <ele>34</ele>
        <time>2019-07-15T09:14:52Z</time>
      </trkpt>
      <trkpt lat="47.77057" lon="-3.54016">
        <ele>33</ele>
        <time>2019-07-15T09:14:53Z</time>
      </trkpt>
      <trkpt lat="47.77048" lon="-3.54015">
        <ele>33</ele>
        <time>2019-07-15T09:14:54Z</time>
      </trkpt>
      <trkpt lat="47.7704" lon="-3.54015">
        <ele>32</ele>
        <time>2019-07-15T09:14:55Z</time>
      </trkpt>
      <trkpt lat="47.77033" lon="-3.54017">
        <ele>31</ele>
        <time>2019-07-15T09:14:56Z</time>
      </trkpt>
      <trkpt lat="47.77027" lon="-3.5402">
        <ele>31</ele>
        <time>2019-07-15T09:14:57Z</time>
      </trkpt>
      <trkpt lat="47.77023" lon="-3.54022">
        <ele>31</ele>
        <time>2019-07-15T09:14:58Z</time>
      </trkpt>
      <trkpt lat="47.77018" lon="-3.54023">
        <ele>30</ele>
        <time>2019-07-15T09:14:59Z</time>
      </trkpt>
      <trkpt lat="47.77014" lon="-3.54024">
        <ele>30</ele>
        <time>2019-07-15T09:15:00Z</time>
      </trkpt>
      <trkpt lat="47.7701" lon="-3.54024">
        <ele>29</ele>
        <time>2019-07-15T09:15:01Z</time>
      </trkpt>
      <trkpt lat="47.77006" lon="-3.54025">
        <ele>29</ele>
        <time>2019-07-15T09:15:02Z</time>
      </trkpt>
      <trkpt lat="47.77002" lon="-3.54026">
        <ele>29</ele>
        <time>2019-07-15T09:15:03Z</time>
      </trkpt>
      <trkpt lat="47.76999" lon="-3.54028">
        <ele>28</ele>
        <time>2019-07-15T09:15:04Z</time>
      </trkpt>
      <trkpt lat="47.76997" lon="-3.54028">
        <ele>28</ele>
        <time>2019-07-15T09:15:05Z</time>
      </trkpt>
      <trkpt lat="47.76993" lon="-3.54028">
        <ele>27</ele>
        <time>2019-07-15T09:15:06Z</time>
      </trkpt>
      <trkpt lat="47.7699" lon="-3.5403">
        <ele>27</ele>
        <time>2019-07-15T09:15:07Z</time>
      </trkpt>
      <trkpt lat="47.76986" lon="-3.54031">
        <ele>27</ele>
        <time>2019-07-15T09:15:08Z</time>
      </trkpt>
      <trkpt lat="47.76982" lon="-3.54032">
        <ele>26</ele>
        <time>2019-07-15T09:15:09Z</time>
      </trkpt>
      <trkpt lat="47.76977" lon="-3.54034">
        <ele>26</ele>
        <time>2019-07-15T09:15:10Z</time>
      </trkpt>
      <trkpt lat="47.76972" lon="-3.54034">
        <ele>26</ele>
        <time>2019-07-15T09:15:11Z</time>
      </trkpt>
      <trkpt lat="47.76968" lon="-3.54034">
        <ele>25</ele>
        <time>2019-07-15T09:15:12Z</time>
      </trkpt>
      <trkpt lat="47.76963" lon="-3.54035">
        <ele>25</ele>
        <time>2019-07-15T09:15:13Z</time>
      </trkpt>
      <trkpt lat="47.76958" lon="-3.54035">
        <ele>25</ele>
        <time>2019-07-15T09:15:14Z</time>
      </trkpt>
      <trkpt lat="47.76952" lon="-3.54037">
        <ele>24</ele>
        <time>2019-07-15T09:15:15Z</time>
      </trkpt>
      <trkpt lat="47.76947" lon="-3.54038">
        <ele>24</ele>
        <time>2019-07-15T09:15:16Z</time>
      </trkpt>
      <trkpt lat="47.76942" lon="-3.5404">
        <ele>24</ele>
        <time>2019-07-15T09:15:17Z</time>
      </trkpt>
      <trkpt lat="47.76937" lon="-3.54044">
        <ele>23</ele>
        <time>2019-07-15T09:15:18Z</time>
      </trkpt>
      <trkpt lat="47.76933" lon="-3.54048">
        <ele>23</ele>
        <time>2019-07-15T09:15:19Z</time>
      </trkpt>
      <trkpt lat="47.76931" lon="-3.54054">
        <ele>23</ele>
        <time>2019-07-15T09:15:20Z</time>
      </trkpt>
      <trkpt lat="47.76928" lon="-3.5406">
        <ele>22</ele>
        <time>2019-07-15T09:15:21Z</time>
      </trkpt>
      <trkpt lat="47.76925" lon="-3.54065">
        <ele>22</ele>
        <time>2019-07-15T09:15:22Z</time>
      </trkpt>
      <trkpt lat="47.76923" lon="-3.54069">
        <ele>22</ele>
        <time>2019-07-15T09:15:23Z</time>
      </trkpt>
      <trkpt lat="47.76922" lon="-3.54074">
        <ele>21</ele>
        <time>2019-07-15T09:15:24Z</time>
      </trkpt>
      <trkpt lat="47.7692" lon="-3.54078">
        <ele>21</ele>
        <time>2019-07-15T09:15:25Z</time>
      </trkpt>
      <trkpt lat="47.76918" lon="-3.54083">
        <ele>21</ele>
        <time>2019-07-15T09:15:26Z</time>
      </trkpt>
      <trkpt lat="47.76916" lon="-3.54087">
        <ele>21</ele>
        <time>2019-07-15T09:15:27Z</time>
      </trkpt>
      <trkpt lat="47.76914" lon="-3.54089">
        <ele>20</ele>
        <time>2019-07-15T09:15:28Z</time>
      </trkpt>
      <trkpt lat="47.76911" lon="-3.5409">
        <ele>20</ele>
        <time>2019-07-15T09:15:29Z</time>
      </trkpt>
      <trkpt lat="47.76908" lon="-3.5409">
        <ele>20</ele>
        <time>2019-07-15T09:15:30Z</time>
      </trkpt>
      <trkpt lat="47.76904" lon="-3.54091">
        <ele>20</ele>
        <time>2019-07-15T09:15:31Z</time>
      </trkpt>
      <trkpt lat="47.76901" lon="-3.54091">
        <ele>20</ele>
        <time>2019-07-15T09:15:32Z</time>
      </trkpt>
      <trkpt lat="47.76897" lon="-3.54091">
        <ele>20</ele>
        <time>2019-07-15T09:15:33Z</time>
      </trkpt>
      <trkpt lat="47.76894" lon="-3.54092">
        <ele>19</ele>
        <time>2019-07-15T09:15:34Z</time>
      </trkpt>
      <trkpt lat="47.76891" lon="-3.54092">
        <ele>19</ele>
        <time>2019-07-15T09:15:35Z</time>
      </trkpt>
      <trkpt lat="47.76888" lon="-3.54093">
        <ele>19</ele>
        <time>2019-07-15T09:15:36Z</time>
      </trkpt>
      <trkpt lat="47.76885" lon="-3.54093">
        <ele>19</ele>
        <time>2019-07-15T09:15:37Z</time>
      </trkpt>
      <trkpt lat="47.76882" lon="-3.54093">
        <ele>19</ele>
        <time>2019-07-15T09:15:38Z</time>
      </trkpt>
      <trkpt lat="47.76879" lon="-3.54094">
        <ele>19</ele>
        <time>2019-07-15T09:15:39Z</time>
      </trkpt>
      <trkpt lat="47.76876" lon="-3.54094">
        <ele>19</ele>
        <time>2019-07-15T09:15:40Z</time>
      </trkpt>
      <trkpt lat="47.76873" lon="-3.54095">
        <ele>19</ele>
        <time>2019-07-15T09:15:41Z</time>
      </trkpt>
      <trkpt lat="47.7687" lon="-3.54095">
        <ele>19</ele>
        <time>2019-07-15T09:15:42Z</time>
      </trkpt>
      <trkpt lat="47.76867" lon="-3.54096">
        <ele>18</ele>
        <time>2019-07-15T09:15:43Z</time>
      </trkpt>
      <trkpt lat="47.76864" lon="-3.54096">
        <ele>18</ele>
        <time>2019-07-15T09:15:44Z</time>
      </trkpt>
      <trkpt lat="47.76862" lon="-3.54097">
        <ele>18</ele>
        <time>2019-07-15T09:15:45Z</time>
      </trkpt>
      <trkpt lat="47.76859" lon="-3.54096">
        <ele>18</ele>
        <time>2019-07-15T09:15:46Z</time>
      </trkpt>
      <trkpt lat="47.76856" lon="-3.54097">
        <ele>19</ele>
        <time>2019-07-15T09:15:47Z</time>
      </trkpt>
      <trkpt lat="47.76854" lon="-3.54096">
        <ele>19</ele>
        <time>2019-07-15T09:15:48Z</time>
      </trkpt>
      <trkpt lat="47.76852" lon="-3.54097">
        <ele>19</ele>
        <time>2019-07-15T09:15:49Z</time>
      </trkpt>
      <trkpt lat="47.76849" lon="-3.54097">
        <ele>19</ele>
        <time>2019-07-15T09:15:50Z</time>
      </trkpt>
      <trkpt lat="47.76846" lon="-3.54097">
        <ele>19</ele>
        <time>2019-07-15T09:15:51Z</time>
      </trkpt>
      <trkpt lat="47.76843" lon="-3.54098">
        <ele>19</ele>
        <time>2019-07-15T09:15:52Z</time>
      </trkpt>
      <trkpt lat="47.7684" lon="-3.54098">
        <ele>19</ele>
        <time>2019-07-15T09:15:53Z</time>
      </trkpt>
      <trkpt lat="47.76837" lon="-3.54099">
        <ele>19</ele>
        <time>2019-07-15T09:15:54Z</time>
      </trkpt>
      <trkpt lat="47.76834" lon="-3.54099">
        <ele>19</ele>
        <time>2019-07-15T09:15:55Z</time>
      </trkpt>
      <trkpt lat="47.76831" lon="-3.54099">
        <ele>19</ele>
        <time>2019-07-15T09:15:56Z</time>
      </trkpt>
      <trkpt lat="47.76829" lon="-3.54099">
        <ele>20</ele>
        <time>2019-07-15T09:15:57Z</time>
      </trkpt>
      <trkpt lat="47.76826" lon="-3.541">
        <ele>20</ele>
        <time>2019-07-15T09:15:58Z</time>
      </trkpt>
      <trkpt lat="47.76823" lon="-3.541">
        <ele>20</ele>
        <time>2019-07-15T09:15:59Z</time>
      </trkpt>
      <trkpt lat="47.76819" lon="-3.54101">
        <ele>20</ele>
        <time>2019-07-15T09:16:00Z</time>
      </trkpt>
      <trkpt lat="47.76816" lon="-3.54101">
        <ele>21</ele>
        <time>2019-07-15T09:16:01Z</time>
      </trkpt>
      <trkpt lat="47.76813" lon="-3.54102">
        <ele>21</ele>
        <time>2019-07-15T09:16:02Z</time>
      </trkpt>
      <trkpt lat="47.7681" lon="-3.54102">
        <ele>21</ele>
        <time>2019-07-15T09:16:03Z</time>
      </trkpt>
      <trkpt lat="47.76807" lon="-3.54103">
        <ele>21</ele>
        <time>2019-07-15T09:16:04Z</time>
      </trkpt>
      <trkpt lat="47.76804" lon="-3.54103">
        <ele>22</ele>
        <time>2019-07-15T09:16:05Z</time>
      </trkpt>
      <trkpt lat="47.768" lon="-3.54103">
        <ele>22</ele>
        <time>2019-07-15T09:16:06Z</time>
      </trkpt>
      <trkpt lat="47.76797" lon="-3.54104">
        <ele>22</ele>
        <time>2019-07-15T09:16:07Z</time>
      </trkpt>
      <trkpt lat="47.76794" lon="-3.54104">
        <ele>22</ele>
        <time>2019-07-15T09:16:08Z</time>
      </trkpt>
      <trkpt lat="47.7679" lon="-3.54105">
        <ele>22</ele>
        <time>2019-07-15T09:16:09Z</time>
      </trkpt>
      <trkpt lat="47.76787" lon="-3.54105">
        <ele>23</ele>
        <time>2019-07-15T09:16:10Z</time>
      </trkpt>
      <trkpt lat="47.76784" lon="-3.54106">
        <ele>23</ele>
        <time>2019-07-15T09:16:11Z</time>
      </trkpt>
      <trkpt lat="47.7678" lon="-3.54105">
        <ele>23</ele>
        <time>2019-07-15T09:16:12Z</time>
      </trkpt>
      <trkpt lat="47.76776" lon="-3.54105">
        <ele>23</ele>
        <time>2019-07-15T09:16:13Z</time>
      </trkpt>
      <trkpt lat="47.76773" lon="-3.54104">
        <ele>23</ele>
        <time>2019-07-15T09:16:14Z</time>
      </trkpt>
      <trkpt lat="47.76769" lon="-3.54103">
        <ele>23</ele>
        <time>2019-07-15T09:16:15Z</time>
      </trkpt>
      <trkpt lat="47.76765" lon="-3.54102">
        <ele>24</ele>
        <time>2019-07-15T09:16:16Z</time>
      </trkpt>
      <trkpt lat="47.76762" lon="-3.541">
        <ele>24</ele>
        <time>2019-07-15T09:16:17Z</time>
      </trkpt>
      <trkpt lat="47.76759" lon="-3.54099">
        <ele>24</ele>
        <time>2019-07-15T09:16:18Z</time>
      </trkpt>
      <trkpt lat="47.76757" lon="-3.54099">
        <ele>24</ele>
        <time>2019-07-15T09:16:19Z</time>
      </trkpt>
      <trkpt lat="47.76755" lon="-3.54099">
        <ele>24</ele>
        <time>2019-07-15T09:16:20Z</time>
      </trkpt>
      <trkpt lat="47.76755" lon="-3.54099">
        <ele>24</ele>
        <time>2019-07-15T09:16:21Z</time>
      </trkpt>
      <trkpt lat="47.76755" lon="-3.54099">
        <ele>24</ele>
        <time>2019-07-15T09:16:22Z</time>
      </trkpt>
      <trkpt lat="47.76755" lon="-3.54099">
        <ele>24</ele>
        <time>2019-07-15T09:16:23Z</time>
      </trkpt>
      <trkpt lat="47.76751" lon="-3.54099">
        <ele>25</ele>
        <time>2019-07-15T09:16:24Z</time>
      </trkpt>
      <trkpt lat="47.76748" lon="-3.541">
        <ele>25</ele>
        <time>2019-07-15T09:16:25Z</time>
      </trkpt>
      <trkpt lat="47.76744" lon="-3.54103">
        <ele>25</ele>
        <time>2019-07-15T09:16:26Z</time>
      </trkpt>
      <trkpt lat="47.76741" lon="-3.54106">
        <ele>25</ele>
        <time>2019-07-15T09:16:27Z</time>
      </trkpt>
      <trkpt lat="47.76737" lon="-3.54109">
        <ele>25</ele>
        <time>2019-07-15T09:16:28Z</time>
      </trkpt>
      <trkpt lat="47.76733" lon="-3.54113">
        <ele>25</ele>
        <time>2019-07-15T09:16:29Z</time>
      </trkpt>
      <trkpt lat="47.7673" lon="-3.54117">
        <ele>25</ele>
        <time>2019-07-15T09:16:30Z</time>
      </trkpt>
      <trkpt lat="47.76726" lon="-3.5412">
        <ele>25</ele>
        <time>2019-07-15T09:16:31Z</time>
      </trkpt>
      <trkpt lat="47.76722" lon="-3.54122">
        <ele>25</ele>
        <time>2019-07-15T09:16:32Z</time>
      </trkpt>
      <trkpt lat="47.76718" lon="-3.54122">
        <ele>25</ele>
        <time>2019-07-15T09:16:33Z</time>
      </trkpt>
      <trkpt lat="47.76713" lon="-3.5412">
        <ele>25</ele>
        <time>2019-07-15T09:16:34Z</time>
      </trkpt>
      <trkpt lat="47.76708" lon="-3.54119">
        <ele>25</ele>
        <time>2019-07-15T09:16:35Z</time>
      </trkpt>
      <trkpt lat="47.76703" lon="-3.54118">
        <ele>25</ele>
        <time>2019-07-15T09:16:36Z</time>
      </trkpt>
      <trkpt lat="47.76699" lon="-3.54116">
        <ele>25</ele>
        <time>2019-07-15T09:16:37Z</time>
      </trkpt>
      <trkpt lat="47.76693" lon="-3.54115">
        <ele>25</ele>
        <time>2019-07-15T09:16:38Z</time>
      </trkpt>
      <trkpt lat="47.76688" lon="-3.54113">
        <ele>25</ele>
        <time>2019-07-15T09:16:39Z</time>
      </trkpt>
      <trkpt lat="47.76682" lon="-3.54111">
        <ele>24</ele>
        <time>2019-07-15T09:16:40Z</time>
      </trkpt>
      <trkpt lat="47.76676" lon="-3.54109">
        <ele>24</ele>
        <time>2019-07-15T09:16:41Z</time>
      </trkpt>
      <trkpt lat="47.7667" lon="-3.54107">
        <ele>24</ele>
        <time>2019-07-15T09:16:42Z</time>
      </trkpt>
      <trkpt lat="47.76663" lon="-3.54105">
        <ele>24</ele>
        <time>2019-07-15T09:16:43Z</time>
      </trkpt>
      <trkpt lat="47.76656" lon="-3.54103">
        <ele>24</ele>
        <time>2019-07-15T09:16:44Z</time>
      </trkpt>
      <trkpt lat="47.7665" lon="-3.541">
        <ele>24</ele>
        <time>2019-07-15T09:16:45Z</time>
      </trkpt>
      <trkpt lat="47.76643" lon="-3.54097">
        <ele>23</ele>
        <time>2019-07-15T09:16:46Z</time>
      </trkpt>
      <trkpt lat="47.76636" lon="-3.54093">
        <ele>23</ele>
        <time>2019-07-15T09:16:47Z</time>
      </trkpt>
      <trkpt lat="47.76629" lon="-3.5409">
        <ele>23</ele>
        <time>2019-07-15T09:16:48Z</time>
      </trkpt>
      <trkpt lat="47.76621" lon="-3.54088">
        <ele>22</ele>
        <time>2019-07-15T09:16:49Z</time>
      </trkpt>
      <trkpt lat="47.76614" lon="-3.54086">
        <ele>22</ele>
        <time>2019-07-15T09:16:50Z</time>
      </trkpt>
      <trkpt lat="47.76606" lon="-3.54084">
        <ele>22</ele>
        <time>2019-07-15T09:16:51Z</time>
      </trkpt>
      <trkpt lat="47.76598" lon="-3.54083">
        <ele>21</ele>
        <time>2019-07-15T09:16:52Z</time>
      </trkpt>
      <trkpt lat="47.76591" lon="-3.54083">
        <ele>21</ele>
        <time>2019-07-15T09:16:53Z</time>
      </trkpt>
      <trkpt lat="47.76582" lon="-3.54082">
        <ele>20</ele>
        <time>2019-07-15T09:16:54Z</time>
      </trkpt>
      <trkpt lat="47.76574" lon="-3.54081">
        <ele>20</ele>
        <time>2019-07-15T09:16:55Z</time>
      </trkpt>
      <trkpt lat="47.76566" lon="-3.5408">
        <ele>19</ele>
        <time>2019-07-15T09:16:56Z</time>
      </trkpt>
      <trkpt lat="47.76558" lon="-3.54078">
        <ele>19</ele>
        <time>2019-07-15T09:16:57Z</time>
      </trkpt>
      <trkpt lat="47.7655" lon="-3.54077">
        <ele>18</ele>
        <time>2019-07-15T09:16:58Z</time>
      </trkpt>
      <trkpt lat="47.76541" lon="-3.54076">
        <ele>18</ele>
        <time>2019-07-15T09:16:59Z</time>
      </trkpt>
      <trkpt lat="47.76533" lon="-3.54076">
        <ele>18</ele>
        <time>2019-07-15T09:17:00Z</time>
      </trkpt>
      <trkpt lat="47.76525" lon="-3.54076">
        <ele>17</ele>
        <time>2019-07-15T09:17:01Z</time>
      </trkpt>
      <trkpt lat="47.76518" lon="-3.54075">
        <ele>17</ele>
        <time>2019-07-15T09:17:02Z</time>
      </trkpt>
      <trkpt lat="47.7651" lon="-3.54075">
        <ele>17</ele>
        <time>2019-07-15T09:17:03Z</time>
      </trkpt>
      <trkpt lat="47.76502" lon="-3.54074">
        <ele>17</ele>
        <time>2019-07-15T09:17:04Z</time>
      </trkpt>
      <trkpt lat="47.76495" lon="-3.54074">
        <ele>17</ele>
        <time>2019-07-15T09:17:05Z</time>
      </trkpt>
      <trkpt lat="47.76488" lon="-3.54074">
        <ele>16</ele>
        <time>2019-07-15T09:17:06Z</time>
      </trkpt>
      <trkpt lat="47.76481" lon="-3.54074">
        <ele>16</ele>
        <time>2019-07-15T09:17:07Z</time>
      </trkpt>
      <trkpt lat="47.76474" lon="-3.54073">
        <ele>16</ele>
        <time>2019-07-15T09:17:08Z</time>
      </trkpt>
      <trkpt lat="47.76468" lon="-3.54072">
        <ele>16</ele>
        <time>2019-07-15T09:17:09Z</time>
      </trkpt>
      <trkpt lat="47.76461" lon="-3.54071">
        <ele>16</ele>
        <time>2019-07-15T09:17:10Z</time>
      </trkpt>
      <trkpt lat="47.76455" lon="-3.5407">
        <ele>16</ele>
        <time>2019-07-15T09:17:11Z</time>
      </trkpt>
      <trkpt lat="47.76449" lon="-3.5407">
        <ele>15</ele>
        <time>2019-07-15T09:17:12Z</time>
      </trkpt>
      <trkpt lat="47.76443" lon="-3.54068">
        <ele>15</ele>
        <time>2019-07-15T09:17:13Z</time>
      </trkpt>
      <trkpt lat="47.76437" lon="-3.54067">
        <ele>15</ele>
        <time>2019-07-15T09:17:14Z</time>
      </trkpt>
      <trkpt lat="47.76432" lon="-3.54067">
        <ele>15</ele>
        <time>2019-07-15T09:17:15Z</time>
      </trkpt>
      <trkpt lat="47.76426" lon="-3.54066">
        <ele>15</ele>
        <time>2019-07-15T09:17:16Z</time>
      </trkpt>
      <trkpt lat="47.76421" lon="-3.54065">
        <ele>15</ele>
        <time>2019-07-15T09:17:17Z</time>
      </trkpt>
      <trkpt lat="47.76416" lon="-3.54064">
        <ele>15</ele>
        <time>2019-07-15T09:17:18Z</time>
      </trkpt>
      <trkpt lat="47.7641" lon="-3.54062">
        <ele>14</ele>
        <time>2019-07-15T09:17:19Z</time>
      </trkpt>
      <trkpt lat="47.76405" lon="-3.5406">
        <ele>14</ele>
        <time>2019-07-15T09:17:20Z</time>
      </trkpt>
      <trkpt lat="47.764" lon="-3.54057">
        <ele>14</ele>
        <time>2019-07-15T09:17:21Z</time>
      </trkpt>
      <trkpt lat="47.76395" lon="-3.54053">
        <ele>14</ele>
        <time>2019-07-15T09:17:22Z</time>
      </trkpt>
      <trkpt lat="47.76391" lon="-3.54049">
        <ele>14</ele>
        <time>2019-07-15T09:17:23Z</time>
      </trkpt>
      <trkpt lat="47.76387" lon="-3.54044">
        <ele>14</ele>
        <time>2019-07-15T09:17:24Z</time>
      </trkpt>
      <trkpt lat="47.76382" lon="-3.54038">
        <ele>14</ele>
        <time>2019-07-15T09:17:25Z</time>
      </trkpt>
      <trkpt lat="47.76378" lon="-3.54033">
        <ele>13</ele>
        <time>2019-07-15T09:17:26Z</time>
      </trkpt>
      <trkpt lat="47.76373" lon="-3.54028">
        <ele>13</ele>
        <time>2019-07-15T09:17:27Z</time>
      </trkpt>
      <trkpt lat="47.76368" lon="-3.54024">
        <ele>13</ele>
        <time>2019-07-15T09:17:28Z</time>
      </trkpt>
      <trkpt lat="47.76363" lon="-3.5402">
        <ele>13</ele>
        <time>2019-07-15T09:17:29Z</time>
      </trkpt>
      <trkpt lat="47.76358" lon="-3.54016">
        <ele>13</ele>
        <time>2019-07-15T09:17:30Z</time>
      </trkpt>
      <trkpt lat="47.76353" lon="-3.54012">
        <ele>13</ele>
        <time>2019-07-15T09:17:31Z</time>
      </trkpt>
      <trkpt lat="47.76349" lon="-3.54009">
        <ele>13</ele>
        <time>2019-07-15T09:17:32Z</time>
      </trkpt>
      <trkpt lat="47.76345" lon="-3.54006">
        <ele>14</ele>
        <time>2019-07-15T09:17:33Z</time>
      </trkpt>
      <trkpt lat="47.76341" lon="-3.54003">
        <ele>14</ele>
        <time>2019-07-15T09:17:34Z</time>
      </trkpt>
      <trkpt lat="47.76337" lon="-3.54001">
        <ele>14</ele>
        <time>2019-07-15T09:17:35Z</time>
      </trkpt>
      <trkpt lat="47.76334" lon="-3.53999">
        <ele>14</ele>
        <time>2019-07-15T09:17:36Z</time>
      </trkpt>
      <trkpt lat="47.7633" lon="-3.53996">
        <ele>14</ele>
        <time>2019-07-15T09:17:37Z</time>
      </trkpt>
      <trkpt lat="47.76327" lon="-3.53994">
        <ele>14</ele>
        <time>2019-07-15T09:17:38Z</time>
      </trkpt>
      <trkpt lat="47.76323" lon="-3.53992">
        <ele>14</ele>
        <time>2019-07-15T09:17:39Z</time>
      </trkpt>
      <trkpt lat="47.76319" lon="-3.5399">
        <ele>14</ele>
        <time>2019-07-15T09:17:40Z</time>
      </trkpt>
      <trkpt lat="47.76316" lon="-3.53988">
        <ele>14</ele>
        <time>2019-07-15T09:17:41Z</time>
      </trkpt>
      <trkpt lat="47.76314" lon="-3.53985">
        <ele>15</ele>
        <time>2019-07-15T09:17:42Z</time>
      </trkpt>
      <trkpt lat="47.76311" lon="-3.53983">
        <ele>15</ele>
        <time>2019-07-15T09:17:43Z</time>
      </trkpt>
      <trkpt lat="47.76309" lon="-3.5398">
        <ele>15</ele>
        <time>2019-07-15T09:17:44Z</time>
      </trkpt>
      <trkpt lat="47.76308" lon="-3.53977">
        <ele>15</ele>
        <time>2019-07-15T09:17:45Z</time>
      </trkpt>
      <trkpt lat="47.76306" lon="-3.53974">
        <ele>15</ele>
        <time>2019-07-15T09:17:46Z</time>
      </trkpt>
      <trkpt lat="47.76304" lon="-3.53971">
        <ele>15</ele>
        <time>2019-07-15T09:17:47Z</time>
      </trkpt>
      <trkpt lat="47.76301" lon="-3.53967">
        <ele>15</ele>
        <time>2019-07-15T09:17:48Z</time>
      </trkpt>
      <trkpt lat="47.76298" lon="-3.53962">
        <ele>15</ele>
        <time>2019-07-15T09:17:49Z</time>
      </trkpt>
      <trkpt lat="47.76295" lon="-3.53957">
        <ele>15</ele>
        <time>2019-07-15T09:17:50Z</time>
      </trkpt>
      <trkpt lat="47.76291" lon="-3.53952">
        <ele>14</ele>
        <time>2019-07-15T09:17:51Z</time>
      </trkpt>
      <trkpt lat="47.76288" lon="-3.53947">
        <ele>14</ele>
        <time>2019-07-15T09:17:52Z</time>
      </trkpt>
      <trkpt lat="47.76287" lon="-3.53941">
        <ele>14</ele>
        <time>2019-07-15T09:17:53Z</time>
      </trkpt>
      <trkpt lat="47.76287" lon="-3.53935">
        <ele>14</ele>
        <time>2019-07-15T09:17:54Z</time>
      </trkpt>
      <trkpt lat="47.76288" lon="-3.53929">
        <ele>14</ele>
        <time>2019-07-15T09:17:55Z</time>
      </trkpt>
      <trkpt lat="47.76289" lon="-3.53922">
        <ele>14</ele>
        <time>2019-07-15T09:17:56Z</time>
      </trkpt>
      <trkpt lat="47.76292" lon="-3.53915">
        <ele>14</ele>
        <time>2019-07-15T09:17:57Z</time>
      </trkpt>
      <trkpt lat="47.76295" lon="-3.53909">
        <ele>14</ele>
        <time>2019-07-15T09:17:58Z</time>
      </trkpt>
      <trkpt lat="47.76298" lon="-3.53904">
        <ele>14</ele>
        <time>2019-07-15T09:17:59Z</time>
      </trkpt>
      <trkpt lat="47.76299" lon="-3.53898">
        <ele>14</ele>
        <time>2019-07-15T09:18:00Z</time>
      </trkpt>
      <trkpt lat="47.76299" lon="-3.53892">
        <ele>14</ele>
        <time>2019-07-15T09:18:01Z</time>
      </trkpt>
      <trkpt lat="47.76296" lon="-3.53885">
        <ele>14</ele>
        <time>2019-07-15T09:18:02Z</time>
      </trkpt>
      <trkpt lat="47.76294" lon="-3.53878">
        <ele>14</ele>
        <time>2019-07-15T09:18:03Z</time>
      </trkpt>
      <trkpt lat="47.76293" lon="-3.5387">
        <ele>14</ele>
        <time>2019-07-15T09:18:04Z</time>
      </trkpt>
      <trkpt lat="47.76293" lon="-3.53861">
        <ele>14</ele>
        <time>2019-07-15T09:18:05Z</time>
      </trkpt>
      <trkpt lat="47.76295" lon="-3.53853">
        <ele>15</ele>
        <time>2019-07-15T09:18:06Z</time>
      </trkpt>
      <trkpt lat="47.76297" lon="-3.53845">
        <ele>15</ele>
        <time>2019-07-15T09:18:07Z</time>
      </trkpt>
      <trkpt lat="47.76299" lon="-3.53838">
        <ele>15</ele>
        <time>2019-07-15T09:18:08Z</time>
      </trkpt>
      <trkpt lat="47.76301" lon="-3.53832">
        <ele>15</ele>
        <time>2019-07-15T09:18:09Z</time>
      </trkpt>
      <trkpt lat="47.76304" lon="-3.53827">
        <ele>15</ele>
        <time>2019-07-15T09:18:10Z</time>
      </trkpt>
      <trkpt lat="47.76307" lon="-3.53823">
        <ele>16</ele>
        <time>2019-07-15T09:18:11Z</time>
      </trkpt>
      <trkpt lat="47.7631" lon="-3.53819">
        <ele>16</ele>
        <time>2019-07-15T09:18:12Z</time>
      </trkpt>
      <trkpt lat="47.76314" lon="-3.53817">
        <ele>16</ele>
        <time>2019-07-15T09:18:13Z</time>
      </trkpt>
      <trkpt lat="47.76317" lon="-3.53815">
        <ele>16</ele>
        <time>2019-07-15T09:18:14Z</time>
      </trkpt>
      <trkpt lat="47.7632" lon="-3.53814">
        <ele>16</ele>
        <time>2019-07-15T09:18:15Z</time>
      </trkpt>
      <trkpt lat="47.76323" lon="-3.53813">
        <ele>17</ele>
        <time>2019-07-15T09:18:16Z</time>
      </trkpt>
      <trkpt lat="47.76326" lon="-3.53812">
        <ele>17</ele>
        <time>2019-07-15T09:18:17Z</time>
      </trkpt>
      <trkpt lat="47.76329" lon="-3.53811">
        <ele>17</ele>
        <time>2019-07-15T09:18:18Z</time>
      </trkpt>
      <trkpt lat="47.76332" lon="-3.53812">
        <ele>16</ele>
        <time>2019-07-15T09:18:19Z</time>
      </trkpt>
      <trkpt lat="47.76337" lon="-3.53812">
        <ele>16</ele>
        <time>2019-07-15T09:18:20Z</time>
      </trkpt>
      <trkpt lat="47.76341" lon="-3.53812">
        <ele>16</ele>
        <time>2019-07-15T09:18:21Z</time>
      </trkpt>
      <trkpt lat="47.76345" lon="-3.53812">
        <ele>16</ele>
        <time>2019-07-15T09:18:22Z</time>
      </trkpt>
      <trkpt lat="47.76348" lon="-3.53813">
        <ele>16</ele>
        <time>2019-07-15T09:18:23Z</time>
      </trkpt>
      <trkpt lat="47.76351" lon="-3.53814">
        <ele>15</ele>
        <time>2019-07-15T09:18:24Z</time>
      </trkpt>
      <trkpt lat="47.76353" lon="-3.53817">
        <ele>15</ele>
        <time>2019-07-15T09:18:25Z</time>
      </trkpt>
      <trkpt lat="47.76355" lon="-3.53821">
        <ele>15</ele>
        <time>2019-07-15T09:18:26Z</time>
      </trkpt>
      <trkpt lat="47.76357" lon="-3.53823">
        <ele>15</ele>
        <time>2019-07-15T09:18:27Z</time>
      </trkpt>
      <trkpt lat="47.76359" lon="-3.53827">
        <ele>15</ele>
        <time>2019-07-15T09:18:28Z</time>
      </trkpt>
      <trkpt lat="47.76362" lon="-3.53831">
        <ele>15</ele>
        <time>2019-07-15T09:18:29Z</time>
      </trkpt>
      <trkpt lat="47.76364" lon="-3.53835">
        <ele>14</ele>
        <time>2019-07-15T09:18:30Z</time>
      </trkpt>
      <trkpt lat="47.76368" lon="-3.53839">
        <ele>14</ele>
        <time>2019-07-15T09:18:31Z</time>
      </trkpt>
      <trkpt lat="47.76371" lon="-3.53844">
        <ele>14</ele>
        <time>2019-07-15T09:18:32Z</time>
      </trkpt>
      <trkpt lat="47.76375" lon="-3.53848">
        <ele>14</ele>
        <time>2019-07-15T09:18:33Z</time>
      </trkpt>
      <trkpt lat="47.76379" lon="-3.53852">
        <ele>14</ele>
        <time>2019-07-15T09:18:34Z</time>
      </trkpt>
      <trkpt lat="47.76383" lon="-3.53856">
        <ele>14</ele>
        <time>2019-07-15T09:18:35Z</time>
      </trkpt>
      <trkpt lat="47.76388" lon="-3.53858">
        <ele>14</ele>
        <time>2019-07-15T09:18:36Z</time>
      </trkpt>
      <trkpt lat="47.76393" lon="-3.53858">
        <ele>14</ele>
        <time>2019-07-15T09:18:37Z</time>
      </trkpt>
      <trkpt lat="47.76398" lon="-3.53858">
        <ele>14</ele>
        <time>2019-07-15T09:18:38Z</time>
      </trkpt>
      <trkpt lat="47.76403" lon="-3.53858">
        <ele>14</ele>
        <time>2019-07-15T09:18:39Z</time>
      </trkpt>
      <trkpt lat="47.76408" lon="-3.53859">
        <ele>14</ele>
        <time>2019-07-15T09:18:40Z</time>
      </trkpt>
      <trkpt lat="47.76413" lon="-3.5386">
        <ele>14</ele>
        <time>2019-07-15T09:18:41Z</time>
      </trkpt>
      <trkpt lat="47.76417" lon="-3.53863">
        <ele>14</ele>
        <time>2019-07-15T09:18:42Z</time>
      </trkpt>
      <trkpt lat="47.76422" lon="-3.53866">
        <ele>14</ele>
        <time>2019-07-15T09:18:43Z</time>
      </trkpt>
      <trkpt lat="47.76427" lon="-3.53868">
        <ele>13</ele>
        <time>2019-07-15T09:18:44Z</time>
      </trkpt>
      <trkpt lat="47.76432" lon="-3.53871">
        <ele>13</ele>
        <time>2019-07-15T09:18:45Z</time>
      </trkpt>
      <trkpt lat="47.76436" lon="-3.53873">
        <ele>13</ele>
        <time>2019-07-15T09:18:46Z</time>
      </trkpt>
      <trkpt lat="47.76441" lon="-3.53874">
        <ele>13</ele>
        <time>2019-07-15T09:18:47Z</time>
      </trkpt>
      <trkpt lat="47.76445" lon="-3.53873">
        <ele>13</ele>
        <time>2019-07-15T09:18:48Z</time>
      </trkpt>
      <trkpt lat="47.76448" lon="-3.5387">
        <ele>13</ele>
        <time>2019-07-15T09:18:49Z</time>
      </trkpt>
      <trkpt lat="47.76451" lon="-3.53866">
        <ele>13</ele>
        <time>2019-07-15T09:18:50Z</time>
      </trkpt>
      <trkpt lat="47.76453" lon="-3.53861">
        <ele>13</ele>
        <time>2019-07-15T09:18:51Z</time>
      </trkpt>
      <trkpt lat="47.76457" lon="-3.53857">
        <ele>13</ele>
        <time>2019-07-15T09:18:52Z</time>
      </trkpt>
      <trkpt lat="47.76461" lon="-3.53854">
        <ele>13</ele>
        <time>2019-07-15T09:18:53Z</time>
      </trkpt>
      <trkpt lat="47.76466" lon="-3.53853">
        <ele>13</ele>
        <time>2019-07-15T09:18:54Z</time>
      </trkpt>
      <trkpt lat="47.7647" lon="-3.53856">
        <ele>12</ele>
        <time>2019-07-15T09:18:55Z</time>
      </trkpt>
      <trkpt lat="47.76474" lon="-3.53859">
        <ele>12</ele>
        <time>2019-07-15T09:18:56Z</time>
      </trkpt>
      <trkpt lat="47.76478" lon="-3.53862">
        <ele>12</ele>
        <time>2019-07-15T09:18:57Z</time>
      </trkpt>
      <trkpt lat="47.76482" lon="-3.53864">
        <ele>12</ele>
        <time>2019-07-15T09:18:58Z</time>
      </trkpt>
      <trkpt lat="47.76487" lon="-3.53864">
        <ele>12</ele>
        <time>2019-07-15T09:18:59Z</time>
      </trkpt>
      <trkpt lat="47.76491" lon="-3.53862">
        <ele>12</ele>
        <time>2019-07-15T09:19:00Z</time>
      </trkpt>
      <trkpt lat="47.76495" lon="-3.5386">
        <ele>12</ele>
        <time>2019-07-15T09:19:01Z</time>
      </trkpt>
      <trkpt lat="47.76499" lon="-3.53857">
        <ele>12</ele>
        <time>2019-07-15T09:19:02Z</time>
      </trkpt>
      <trkpt lat="47.76503" lon="-3.53852">
        <ele>12</ele>
        <time>2019-07-15T09:19:03Z</time>
      </trkpt>
      <trkpt lat="47.76506" lon="-3.53848">
        <ele>13</ele>
        <time>2019-07-15T09:19:04Z</time>
      </trkpt>
      <trkpt lat="47.7651" lon="-3.53843">
        <ele>13</ele>
        <time>2019-07-15T09:19:05Z</time>
      </trkpt>
      <trkpt lat="47.76512" lon="-3.53838">
        <ele>13</ele>
        <time>2019-07-15T09:19:06Z</time>
      </trkpt>
      <trkpt lat="47.76514" lon="-3.53833">
        <ele>13</ele>
        <time>2019-07-15T09:19:07Z</time>
      </trkpt>
      <trkpt lat="47.76517" lon="-3.53828">
        <ele>13</ele>
        <time>2019-07-15T09:19:08Z</time>
      </trkpt>
      <trkpt lat="47.7652" lon="-3.53824">
        <ele>13</ele>
        <time>2019-07-15T09:19:09Z</time>
      </trkpt>
      <trkpt lat="47.76524" lon="-3.53821">
        <ele>13</ele>
        <time>2019-07-15T09:19:10Z</time>
      </trkpt>
      <trkpt lat="47.76527" lon="-3.53818">
        <ele>13</ele>
        <time>2019-07-15T09:19:11Z</time>
      </trkpt>
      <trkpt lat="47.7653" lon="-3.53812">
        <ele>13</ele>
        <time>2019-07-15T09:19:12Z</time>
      </trkpt>
      <trkpt lat="47.76534" lon="-3.53807">
        <ele>13</ele>
        <time>2019-07-15T09:19:13Z</time>
      </trkpt>
      <trkpt lat="47.76537" lon="-3.53804">
        <ele>13</ele>
        <time>2019-07-15T09:19:14Z</time>
      </trkpt>
      <trkpt lat="47.76542" lon="-3.53804">
        <ele>13</ele>
        <time>2019-07-15T09:19:15Z</time>
      </trkpt>
      <trkpt lat="47.76546" lon="-3.53805">
        <ele>13</ele>
        <time>2019-07-15T09:19:16Z</time>
      </trkpt>
      <trkpt lat="47.76551" lon="-3.53807">
        <ele>13</ele>
        <time>2019-07-15T09:19:17Z</time>
      </trkpt>
      <trkpt lat="47.76555" lon="-3.53806">
        <ele>13</ele>
        <time>2019-07-15T09:19:18Z</time>
      </trkpt>
      <trkpt lat="47.76559" lon="-3.53803">
        <ele>13</ele>
        <time>2019-07-15T09:19:19Z</time>
      </trkpt>
      <trkpt lat="47.76561" lon="-3.53798">
        <ele>13</ele>
        <time>2019-07-15T09:19:20Z</time>
      </trkpt>
      <trkpt lat="47.76564" lon="-3.53793">
        <ele>13</ele>
        <time>2019-07-15T09:19:21Z</time>
      </trkpt>
      <trkpt lat="47.76567" lon="-3.53788">
        <ele>13</ele>
        <time>2019-07-15T09:19:22Z</time>
      </trkpt>
      <trkpt lat="47.7657" lon="-3.53785">
        <ele>14</ele>
        <time>2019-07-15T09:19:23Z</time>
      </trkpt>
      <trkpt lat="47.76574" lon="-3.53782">
        <ele>14</ele>
        <time>2019-07-15T09:19:24Z</time>
      </trkpt>
      <trkpt lat="47.76577" lon="-3.5378">
        <ele>14</ele>
        <time>2019-07-15T09:19:25Z</time>
      </trkpt>
      <trkpt lat="47.76582" lon="-3.53778">
        <ele>14</ele>
        <time>2019-07-15T09:19:26Z</time>
      </trkpt>
      <trkpt lat="47.76586" lon="-3.53777">
        <ele>14</ele>
        <time>2019-07-15T09:19:27Z</time>
      </trkpt>
      <trkpt lat="47.7659" lon="-3.53775">
        <ele>14</ele>
        <time>2019-07-15T09:19:28Z</time>
      </trkpt>
      <trkpt lat="47.76594" lon="-3.53773">
        <ele>14</ele>
        <time>2019-07-15T09:19:29Z</time>
      </trkpt>
      <trkpt lat="47.76599" lon="-3.53769">
        <ele>14</ele>
        <time>2019-07-15T09:19:30Z</time>
      </trkpt>
      <trkpt lat="47.76603" lon="-3.53765">
        <ele>14</ele>
        <time>2019-07-15T09:19:31Z</time>
      </trkpt>
      <trkpt lat="47.76606" lon="-3.5376">
        <ele>14</ele>
        <time>2019-07-15T09:19:32Z</time>
      </trkpt>
      <trkpt lat="47.76609" lon="-3.53754">
        <ele>14</ele>
        <time>2019-07-15T09:19:33Z</time>
      </trkpt>
      <trkpt lat="47.76611" lon="-3.53748">
        <ele>14</ele>
        <time>2019-07-15T09:19:34Z</time>
      </trkpt>
      <trkpt lat="47.76612" lon="-3.5374">
        <ele>14</ele>
        <time>2019-07-15T09:19:35Z</time>
      </trkpt>
      <trkpt lat="47.76612" lon="-3.53733">
        <ele>14</ele>
        <time>2019-07-15T09:19:36Z</time>
      </trkpt>
      <trkpt lat="47.76612" lon="-3.53726">
        <ele>14</ele>
        <time>2019-07-15T09:19:37Z</time>
      </trkpt>
      <trkpt lat="47.76612" lon="-3.53719">
        <ele>15</ele>
        <time>2019-07-15T09:19:38Z</time>
      </trkpt>
      <trkpt lat="47.76613" lon="-3.53712">
        <ele>15</ele>
        <time>2019-07-15T09:19:39Z</time>
      </trkpt>
      <trkpt lat="47.76616" lon="-3.53706">
        <ele>15</ele>
        <time>2019-07-15T09:19:40Z</time>
      </trkpt>
      <trkpt lat="47.76618" lon="-3.53699">
        <ele>15</ele>
        <time>2019-07-15T09:19:41Z</time>
      </trkpt>
      <trkpt lat="47.76621" lon="-3.53693">
        <ele>15</ele>
        <time>2019-07-15T09:19:42Z</time>
      </trkpt>
      <trkpt lat="47.76623" lon="-3.53687">
        <ele>15</ele>
        <time>2019-07-15T09:19:43Z</time>
      </trkpt>
      <trkpt lat="47.76625" lon="-3.53682">
        <ele>15</ele>
        <time>2019-07-15T09:19:44Z</time>
      </trkpt>
      <trkpt lat="47.76627" lon="-3.53675">
        <ele>15</ele>
        <time>2019-07-15T09:19:45Z</time>
      </trkpt>
      <trkpt lat="47.76629" lon="-3.53669">
        <ele>15</ele>
        <time>2019-07-15T09:19:46Z</time>
      </trkpt>
      <trkpt lat="47.7663" lon="-3.53661">
        <ele>15</ele>
        <time>2019-07-15T09:19:47Z</time>
      </trkpt>
      <trkpt lat="47.76631" lon="-3.53654">
        <ele>15</ele>
        <time>2019-07-15T09:19:48Z</time>
      </trkpt>
      <trkpt lat="47.76633" lon="-3.53647">
        <ele>15</ele>
        <time>2019-07-15T09:19:49Z</time>
      </trkpt>
      <trkpt lat="47.76633" lon="-3.53639">
        <ele>15</ele>
        <time>2019-07-15T09:19:50Z</time>
      </trkpt>
      <trkpt lat="47.76634" lon="-3.53631">
        <ele>15</ele>
        <time>2019-07-15T09:19:51Z</time>
      </trkpt>
      <trkpt lat="47.76636" lon="-3.53624">
        <ele>15</ele>
        <time>2019-07-15T09:19:52Z</time>
      </trkpt>
      <trkpt lat="47.76637" lon="-3.53617">
        <ele>15</ele>
        <time>2019-07-15T09:19:53Z</time>
      </trkpt>
      <trkpt lat="47.76639" lon="-3.5361">
        <ele>15</ele>
        <time>2019-07-15T09:19:54Z</time>
      </trkpt>
      <trkpt lat="47.7664" lon="-3.53603">
        <ele>15</ele>
        <time>2019-07-15T09:19:55Z</time>
      </trkpt>
      <trkpt lat="47.76642" lon="-3.53597">
        <ele>15</ele>
        <time>2019-07-15T09:19:56Z</time>
      </trkpt>
      <trkpt lat="47.76644" lon="-3.53591">
        <ele>15</ele>
        <time>2019-07-15T09:19:57Z</time>
      </trkpt>
      <trkpt lat="47.76645" lon="-3.53585">
        <ele>15</ele>
        <time>2019-07-15T09:19:58Z</time>
      </trkpt>
      <trkpt lat="47.76646" lon="-3.53578">
        <ele>15</ele>
        <time>2019-07-15T09:19:59Z</time>
      </trkpt>
      <trkpt lat="47.76646" lon="-3.53571">
        <ele>15</ele>
        <time>2019-07-15T09:20:00Z</time>
      </trkpt>
      <trkpt lat="47.76646" lon="-3.53564">
        <ele>15</ele>
        <time>2019-07-15T09:20:01Z</time>
      </trkpt>
      <trkpt lat="47.76647" lon="-3.53556">
        <ele>15</ele>
        <time>2019-07-15T09:20:02Z</time>
      </trkpt>
      <trkpt lat="47.76647" lon="-3.53548">
        <ele>15</ele>
        <time>2019-07-15T09:20:03Z</time>
      </trkpt>
      <trkpt lat="47.76647" lon="-3.5354">
        <ele>15</ele>
        <time>2019-07-15T09:20:04Z</time>
      </trkpt>
      <trkpt lat="47.76649" lon="-3.53532">
        <ele>15</ele>
        <time>2019-07-15T09:20:05Z</time>
      </trkpt>
      <trkpt lat="47.76653" lon="-3.53527">
        <ele>15</ele>
        <time>2019-07-15T09:20:06Z</time>
      </trkpt>
      <trkpt lat="47.76656" lon="-3.53524">
        <ele>15</ele>
        <time>2019-07-15T09:20:07Z</time>
      </trkpt>
      <trkpt lat="47.7666" lon="-3.53521">
        <ele>15</ele>
        <time>2019-07-15T09:20:08Z</time>
      </trkpt>
      <trkpt lat="47.76662" lon="-3.53519">
        <ele>15</ele>
        <time>2019-07-15T09:20:09Z</time>
      </trkpt>
      <trkpt lat="47.76664" lon="-3.53518">
        <ele>16</ele>
        <time>2019-07-15T09:20:10Z</time>
      </trkpt>
      <trkpt lat="47.76666" lon="-3.53516">
        <ele>16</ele>
        <time>2019-07-15T09:20:11Z</time>
      </trkpt>
      <trkpt lat="47.76667" lon="-3.53515">
        <ele>16</ele>
        <time>2019-07-15T09:20:12Z</time>
      </trkpt>
      <trkpt lat="47.76668" lon="-3.53514">
        <ele>16</ele>
        <time>2019-07-15T09:20:13Z</time>
      </trkpt>
      <trkpt lat="47.76669" lon="-3.53512">
        <ele>16</ele>
        <time>2019-07-15T09:20:14Z</time>
      </trkpt>
      <trkpt lat="47.76671" lon="-3.5351">
        <ele>16</ele>
        <time>2019-07-15T09:20:15Z</time>
      </trkpt>
      <trkpt lat="47.76673" lon="-3.53506">
        <ele>17</ele>
        <time>2019-07-15T09:20:16Z</time>
      </trkpt>
      <trkpt lat="47.76674" lon="-3.53501">
        <ele>17</ele>
        <time>2019-07-15T09:20:17Z</time>
      </trkpt>
      <trkpt lat="47.76674" lon="-3.53495">
        <ele>17</ele>
        <time>2019-07-15T09:20:18Z</time>
      </trkpt>
      <trkpt lat="47.76675" lon="-3.53489">
        <ele>17</ele>
        <time>2019-07-15T09:20:19Z</time>
      </trkpt>
      <trkpt lat="47.76676" lon="-3.53483">
        <ele>17</ele>
        <time>2019-07-15T09:20:20Z</time>
      </trkpt>
      <trkpt lat="47.76676" lon="-3.53477">
        <ele>17</ele>
        <time>2019-07-15T09:20:21Z</time>
      </trkpt>
      <trkpt lat="47.76677" lon="-3.53473">
        <ele>17</ele>
        <time>2019-07-15T09:20:22Z</time>
      </trkpt>
      <trkpt lat="47.76679" lon="-3.53471">
        <ele>17</ele>
        <time>2019-07-15T09:20:23Z</time>
      </trkpt>
      <trkpt lat="47.7668" lon="-3.53467">
        <ele>17</ele>
        <time>2019-07-15T09:20:24Z</time>
      </trkpt>
      <trkpt lat="47.76683" lon="-3.53464">
        <ele>17</ele>
        <time>2019-07-15T09:20:25Z</time>
      </trkpt>
      <trkpt lat="47.76686" lon="-3.53463">
        <ele>17</ele>
        <time>2019-07-15T09:20:26Z</time>
      </trkpt>
      <trkpt lat="47.7669" lon="-3.53463">
        <ele>17</ele>
        <time>2019-07-15T09:20:27Z</time>
      </trkpt>
      <trkpt lat="47.76695" lon="-3.53461">
        <ele>17</ele>
        <time>2019-07-15T09:20:28Z</time>
      </trkpt>
      <trkpt lat="47.76699" lon="-3.53459">
        <ele>17</ele>
        <time>2019-07-15T09:20:29Z</time>
      </trkpt>
      <trkpt lat="47.76702" lon="-3.53456">
        <ele>17</ele>
        <time>2019-07-15T09:20:30Z</time>
      </trkpt>
      <trkpt lat="47.76706" lon="-3.53453">
        <ele>17</ele>
        <time>2019-07-15T09:20:31Z</time>
      </trkpt>
      <trkpt lat="47.76709" lon="-3.53448">
        <ele>17</ele>
        <time>2019-07-15T09:20:32Z</time>
      </trkpt>
      <trkpt lat="47.76712" lon="-3.53443">
        <ele>17</ele>
        <time>2019-07-15T09:20:33Z</time>
      </trkpt>
      <trkpt lat="47.76713" lon="-3.53436">
        <ele>17</ele>
        <time>2019-07-15T09:20:34Z</time>
      </trkpt>
      <trkpt lat="47.76713" lon="-3.53429">
        <ele>17</ele>
        <time>2019-07-15T09:20:35Z</time>
      </trkpt>
      <trkpt lat="47.76712" lon="-3.53422">
        <ele>16</ele>
        <time>2019-07-15T09:20:36Z</time>
      </trkpt>
      <trkpt lat="47.7671" lon="-3.53415">
        <ele>16</ele>
        <time>2019-07-15T09:20:37Z</time>
      </trkpt>
      <trkpt lat="47.76707" lon="-3.53408">
        <ele>16</ele>
        <time>2019-07-15T09:20:38Z</time>
      </trkpt>
      <trkpt lat="47.76706" lon="-3.53401">
        <ele>16</ele>
        <time>2019-07-15T09:20:39Z</time>
      </trkpt>
      <trkpt lat="47.76707" lon="-3.53393">
        <ele>16</ele>
        <time>2019-07-15T09:20:40Z</time>
      </trkpt>
      <trkpt lat="47.7671" lon="-3.53385">
        <ele>16</ele>
        <time>2019-07-15T09:20:41Z</time>
      </trkpt>
      <trkpt lat="47.76713" lon="-3.53377">
        <ele>15</ele>
        <time>2019-07-15T09:20:42Z</time>
      </trkpt>
      <trkpt lat="47.76716" lon="-3.53371">
        <ele>15</ele>
        <time>2019-07-15T09:20:43Z</time>
      </trkpt>
      <trkpt lat="47.76719" lon="-3.53367">
        <ele>16</ele>
        <time>2019-07-15T09:20:44Z</time>
      </trkpt>
      <trkpt lat="47.7672" lon="-3.53365">
        <ele>16</ele>
        <time>2019-07-15T09:20:45Z</time>
      </trkpt>
      <trkpt lat="47.76721" lon="-3.5336">
        <ele>16</ele>
        <time>2019-07-15T09:20:46Z</time>
      </trkpt>
      <trkpt lat="47.76721" lon="-3.53355">
        <ele>15</ele>
        <time>2019-07-15T09:20:47Z</time>
      </trkpt>
      <trkpt lat="47.76721" lon="-3.53348">
        <ele>15</ele>
        <time>2019-07-15T09:20:48Z</time>
      </trkpt>
      <trkpt lat="47.76721" lon="-3.53341">
        <ele>15</ele>
        <time>2019-07-15T09:20:49Z</time>
      </trkpt>
      <trkpt lat="47.76721" lon="-3.53334">
        <ele>15</ele>
        <time>2019-07-15T09:20:50Z</time>
      </trkpt>
      <trkpt lat="47.7672" lon="-3.53326">
        <ele>15</ele>
        <time>2019-07-15T09:20:51Z</time>
      </trkpt>
      <trkpt lat="47.7672" lon="-3.53318">
        <ele>15</ele>
        <time>2019-07-15T09:20:52Z</time>
      </trkpt>
      <trkpt lat="47.76722" lon="-3.5331">
        <ele>15</ele>
        <time>2019-07-15T09:20:53Z</time>
      </trkpt>
      <trkpt lat="47.76724" lon="-3.53303">
        <ele>14</ele>
        <time>2019-07-15T09:20:54Z</time>
      </trkpt>
      <trkpt lat="47.76728" lon="-3.53296">
        <ele>14</ele>
        <time>2019-07-15T09:20:55Z</time>
      </trkpt>
      <trkpt lat="47.76731" lon="-3.5329">
        <ele>14</ele>
        <time>2019-07-15T09:20:56Z</time>
      </trkpt>
      <trkpt lat="47.76735" lon="-3.53284">
        <ele>14</ele>
        <time>2019-07-15T09:20:57Z</time>
      </trkpt>
      <trkpt lat="47.76737" lon="-3.53278">
        <ele>14</ele>
        <time>2019-07-15T09:20:58Z</time>
      </trkpt>
      <trkpt lat="47.76737" lon="-3.53271">
        <ele>13</ele>
        <time>2019-07-15T09:20:59Z</time>
      </trkpt>
      <trkpt lat="47.76738" lon="-3.53265">
        <ele>13</ele>
        <time>2019-07-15T09:21:00Z</time>
      </trkpt>
      <trkpt lat="47.7674" lon="-3.5326">
        <ele>13</ele>
        <time>2019-07-15T09:21:01Z</time>
      </trkpt>
      <trkpt lat="47.76744" lon="-3.53255">
        <ele>13</ele>
        <time>2019-07-15T09:21:02Z</time>
      </trkpt>
      <trkpt lat="47.76747" lon="-3.53251">
        <ele>13</ele>
        <time>2019-07-15T09:21:03Z</time>
      </trkpt>
      <trkpt lat="47.76751" lon="-3.53247">
        <ele>13</ele>
        <time>2019-07-15T09:21:04Z</time>
      </trkpt>
      <trkpt lat="47.76756" lon="-3.53244">
        <ele>13</ele>
        <time>2019-07-15T09:21:05Z</time>
      </trkpt>
      <trkpt lat="47.7676" lon="-3.53242">
        <ele>12</ele>
        <time>2019-07-15T09:21:06Z</time>
      </trkpt>
      <trkpt lat="47.76762" lon="-3.5324">
        <ele>12</ele>
        <time>2019-07-15T09:21:07Z</time>
      </trkpt>
      <trkpt lat="47.76764" lon="-3.53239">
        <ele>12</ele>
        <time>2019-07-15T09:21:08Z</time>
      </trkpt>
      <trkpt lat="47.76764" lon="-3.53239">
        <ele>12</ele>
        <time>2019-07-15T09:21:09Z</time>
      </trkpt>
      <trkpt lat="47.76764" lon="-3.53239">
        <ele>12</ele>
        <time>2019-07-15T09:21:10Z</time>
      </trkpt>
      <trkpt lat="47.76762" lon="-3.53239">
        <ele>10</ele>
        <time>2019-07-15T09:21:11Z</time>
      </trkpt>
      <trkpt lat="47.7676" lon="-3.5324">
        <ele>10</ele>
        <time>2019-07-15T09:21:12Z</time>
      </trkpt>
      <trkpt lat="47.76758" lon="-3.53242">
        <ele>10</ele>
        <time>2019-07-15T09:21:13Z</time>
      </trkpt>
      <trkpt lat="47.76755" lon="-3.53243">
        <ele>10</ele>
        <time>2019-07-15T09:21:14Z</time>
      </trkpt>
      <trkpt lat="47.76752" lon="-3.53245">
        <ele>9</ele>
        <time>2019-07-15T09:21:15Z</time>
      </trkpt>
      <trkpt lat="47.7675" lon="-3.53248">
        <ele>9</ele>
        <time>2019-07-15T09:21:16Z</time>
      </trkpt>
      <trkpt lat="47.76747" lon="-3.53251">
        <ele>9</ele>
        <time>2019-07-15T09:21:17Z</time>
      </trkpt>
      <trkpt lat="47.76744" lon="-3.53254">
        <ele>9</ele>
        <time>2019-07-15T09:21:18Z</time>
      </trkpt>
      <trkpt lat="47.76741" lon="-3.53257">
        <ele>9</ele>
        <time>2019-07-15T09:21:19Z</time>
      </trkpt>
      <trkpt lat="47.76739" lon="-3.53262">
        <ele>9</ele>
        <time>2019-07-15T09:21:20Z</time>
      </trkpt>
      <trkpt lat="47.76738" lon="-3.53266">
        <ele>9</ele>
        <time>2019-07-15T09:21:21Z</time>
      </trkpt>
      <trkpt lat="47.76738" lon="-3.5327">
        <ele>9</ele>
        <time>2019-07-15T09:21:22Z</time>
      </trkpt>
      <trkpt lat="47.76738" lon="-3.53275">
        <ele>9</ele>
        <time>2019-07-15T09:21:23Z</time>
      </trkpt>
      <trkpt lat="47.76737" lon="-3.53279">
        <ele>9</ele>
        <time>2019-07-15T09:21:24Z</time>
      </trkpt>
      <trkpt lat="47.76735" lon="-3.53283">
        <ele>8</ele>
        <time>2019-07-15T09:21:25Z</time>
      </trkpt>
      <trkpt lat="47.76733" lon="-3.53287">
        <ele>8</ele>
        <time>2019-07-15T09:21:26Z</time>
      </trkpt>
      <trkpt lat="47.76731" lon="-3.5329">
        <ele>8</ele>
        <time>2019-07-15T09:21:27Z</time>
      </trkpt>
      <trkpt lat="47.76729" lon="-3.53294">
        <ele>8</ele>
        <time>2019-07-15T09:21:28Z</time>
      </trkpt>
      <trkpt lat="47.76727" lon="-3.53298">
        <ele>8</ele>
        <time>2019-07-15T09:21:29Z</time>
      </trkpt>
      <trkpt lat="47.76725" lon="-3.53301">
        <ele>8</ele>
        <time>2019-07-15T09:21:30Z</time>
      </trkpt>
      <trkpt lat="47.76724" lon="-3.53306">
        <ele>8</ele>
        <time>2019-07-15T09:21:31Z</time>
      </trkpt>
      <trkpt lat="47.76723" lon="-3.5331">
        <ele>9</ele>
        <time>2019-07-15T09:21:32Z</time>
      </trkpt>
      <trkpt lat="47.76722" lon="-3.53313">
        <ele>9</ele>
        <time>2019-07-15T09:21:33Z</time>
      </trkpt>
      <trkpt lat="47.76722" lon="-3.53316">
        <ele>9</ele>
        <time>2019-07-15T09:21:34Z</time>
      </trkpt>
      <trkpt lat="47.76722" lon="-3.53318">
        <ele>9</ele>
        <time>2019-07-15T09:21:35Z</time>
      </trkpt>
      <trkpt lat="47.76722" lon="-3.53319">
        <ele>9</ele>
        <time>2019-07-15T09:21:36Z</time>
      </trkpt>
      <trkpt lat="47.76723" lon="-3.53319">
        <ele>9</ele>
        <time>2019-07-15T09:21:37Z</time>
      </trkpt>
      <trkpt lat="47.76723" lon="-3.53319">
        <ele>9</ele>
        <time>2019-07-15T09:21:38Z</time>
      </trkpt>
      <trkpt lat="47.76722" lon="-3.53323">
        <ele>9</ele>
        <time>2019-07-15T09:21:39Z</time>
      </trkpt>
      <trkpt lat="47.76722" lon="-3.53325">
        <ele>9</ele>
        <time>2019-07-15T09:21:40Z</time>
      </trkpt>
      <trkpt lat="47.76721" lon="-3.53328">
        <ele>9</ele>
        <time>2019-07-15T09:21:41Z</time>
      </trkpt>
      <trkpt lat="47.76722" lon="-3.5333">
        <ele>9</ele>
        <time>2019-07-15T09:21:42Z</time>
      </trkpt>
      <trkpt lat="47.76722" lon="-3.53334">
        <ele>9</ele>
        <time>2019-07-15T09:21:43Z</time>
      </trkpt>
      <trkpt lat="47.76722" lon="-3.53338">
        <ele>9</ele>
        <time>2019-07-15T09:21:44Z</time>
      </trkpt>
      <trkpt lat="47.76723" lon="-3.53342">
        <ele>9</ele>
        <time>2019-07-15T09:21:45Z</time>
      </trkpt>
      <trkpt lat="47.76723" lon="-3.53346">
        <ele>9</ele>
        <time>2019-07-15T09:21:46Z</time>
      </trkpt>
      <trkpt lat="47.76723" lon="-3.53351">
        <ele>9</ele>
        <time>2019-07-15T09:21:47Z</time>
      </trkpt>
      <trkpt lat="47.76723" lon="-3.53355">
        <ele>9</ele>
        <time>2019-07-15T09:21:48Z</time>
      </trkpt>
      <trkpt lat="47.76723" lon="-3.53358">
        <ele>9</ele>
        <time>2019-07-15T09:21:49Z</time>
      </trkpt>
      <trkpt lat="47.76723" lon="-3.53361">
        <ele>9</ele>
        <time>2019-07-15T09:21:50Z</time>
      </trkpt>
      <trkpt lat="47.76724" lon="-3.53364">
        <ele>9</ele>
        <time>2019-07-15T09:21:51Z</time>
      </trkpt>
      <trkpt lat="47.76725" lon="-3.53366">
        <ele>9</ele>
        <time>2019-07-15T09:21:52Z</time>
      </trkpt>
      <trkpt lat="47.76728" lon="-3.53367">
        <ele>9</ele>
        <time>2019-07-15T09:21:53Z</time>
      </trkpt>
      <trkpt lat="47.76731" lon="-3.53368">
        <ele>9</ele>
        <time>2019-07-15T09:21:54Z</time>
      </trkpt>
      <trkpt lat="47.76734" lon="-3.5337">
        <ele>9</ele>
        <time>2019-07-15T09:21:55Z</time>
      </trkpt>
      <trkpt lat="47.76736" lon="-3.53371">
        <ele>10</ele>
        <time>2019-07-15T09:21:56Z</time>
      </trkpt>
      <trkpt lat="47.76739" lon="-3.53373">
        <ele>10</ele>
        <time>2019-07-15T09:21:57Z</time>
      </trkpt>
      <trkpt lat="47.76742" lon="-3.53374">
        <ele>10</ele>
        <time>2019-07-15T09:21:58Z</time>
      </trkpt>
      <trkpt lat="47.76746" lon="-3.53376">
        <ele>10</ele>
        <time>2019-07-15T09:21:59Z</time>
      </trkpt>
      <trkpt lat="47.76749" lon="-3.53378">
        <ele>10</ele>
        <time>2019-07-15T09:22:00Z</time>
      </trkpt>
      <trkpt lat="47.76752" lon="-3.53379">
        <ele>10</ele>
        <time>2019-07-15T09:22:01Z</time>
      </trkpt>
      <trkpt lat="47.76755" lon="-3.5338">
        <ele>10</ele>
        <time>2019-07-15T09:22:02Z</time>
      </trkpt>
      <trkpt lat="47.76758" lon="-3.53381">
        <ele>10</ele>
        <time>2019-07-15T09:22:03Z</time>
      </trkpt>
      <trkpt lat="47.76761" lon="-3.53381">
        <ele>10</ele>
        <time>2019-07-15T09:22:04Z</time>
      </trkpt>
      <trkpt lat="47.76764" lon="-3.53381">
        <ele>11</ele>
        <time>2019-07-15T09:22:05Z</time>
      </trkpt>
      <trkpt lat="47.76767" lon="-3.53382">
        <ele>11</ele>
        <time>2019-07-15T09:22:06Z</time>
      </trkpt>
      <trkpt lat="47.7677" lon="-3.53383">
        <ele>11</ele>
        <time>2019-07-15T09:22:07Z</time>
      </trkpt>
      <trkpt lat="47.76774" lon="-3.53384">
        <ele>11</ele>
        <time>2019-07-15T09:22:08Z</time>
      </trkpt>
      <trkpt lat="47.76777" lon="-3.53385">
        <ele>11</ele>
        <time>2019-07-15T09:22:09Z</time>
      </trkpt>
      <trkpt lat="47.76781" lon="-3.53387">
        <ele>11</ele>
        <time>2019-07-15T09:22:10Z</time>
      </trkpt>
      <trkpt lat="47.76785" lon="-3.53389">
        <ele>12</ele>
        <time>2019-07-15T09:22:11Z</time>
      </trkpt>
      <trkpt lat="47.76789" lon="-3.53391">
        <ele>12</ele>
        <time>2019-07-15T09:22:12Z</time>
      </trkpt>
      <trkpt lat="47.76793" lon="-3.53393">
        <ele>12</ele>
        <time>2019-07-15T09:22:13Z</time>
      </trkpt>
      <trkpt lat="47.76797" lon="-3.53395">
        <ele>12</ele>
        <time>2019-07-15T09:22:14Z</time>
      </trkpt>
      <trkpt lat="47.76801" lon="-3.53397">
        <ele>12</ele>
        <time>2019-07-15T09:22:15Z</time>
      </trkpt>
      <trkpt lat="47.76804" lon="-3.53398">
        <ele>12</ele>
        <time>2019-07-15T09:22:16Z</time>
      </trkpt>
      <trkpt lat="47.76809" lon="-3.53397">
        <ele>12</ele>
        <time>2019-07-15T09:22:17Z</time>
      </trkpt>
      <trkpt lat="47.76812" lon="-3.53393">
        <ele>12</ele>
        <time>2019-07-15T09:22:18Z</time>
      </trkpt>
      <trkpt lat="47.76814" lon="-3.53386">
        <ele>12</ele>
        <time>2019-07-15T09:22:19Z</time>
      </trkpt>
      <trkpt lat="47.76816" lon="-3.53378">
        <ele>12</ele>
        <time>2019-07-15T09:22:20Z</time>
      </trkpt>
      <trkpt lat="47.76817" lon="-3.53369">
        <ele>12</ele>
        <time>2019-07-15T09:22:21Z</time>
      </trkpt>
      <trkpt lat="47.76819" lon="-3.5336">
        <ele>12</ele>
        <time>2019-07-15T09:22:22Z</time>
      </trkpt>
      <trkpt lat="47.7682" lon="-3.5335">
        <ele>11</ele>
        <time>2019-07-15T09:22:23Z</time>
      </trkpt>
      <trkpt lat="47.76823" lon="-3.5334">
        <ele>11</ele>
        <time>2019-07-15T09:22:24Z</time>
      </trkpt>
      <trkpt lat="47.76826" lon="-3.5333">
        <ele>11</ele>
        <time>2019-07-15T09:22:25Z</time>
      </trkpt>
      <trkpt lat="47.7683" lon="-3.53319">
        <ele>10</ele>
        <time>2019-07-15T09:22:26Z</time>
      </trkpt>
      <trkpt lat="47.76833" lon="-3.5331">
        <ele>10</ele>
        <time>2019-07-15T09:22:27Z</time>
      </trkpt>
      <trkpt lat="47.76836" lon="-3.533">
        <ele>10</ele>
        <time>2019-07-15T09:22:28Z</time>
      </trkpt>
      <trkpt lat="47.76839" lon="-3.5329">
        <ele>9</ele>
        <time>2019-07-15T09:22:29Z</time>
      </trkpt>
      <trkpt lat="47.76843" lon="-3.53282">
        <ele>9</ele>
        <time>2019-07-15T09:22:30Z</time>
      </trkpt>
      <trkpt lat="47.76848" lon="-3.53273">
        <ele>8</ele>
        <time>2019-07-15T09:22:31Z</time>
      </trkpt>
      <trkpt lat="47.76853" lon="-3.53266">
        <ele>8</ele>
        <time>2019-07-15T09:22:32Z</time>
      </trkpt>
      <trkpt lat="47.7686" lon="-3.53258">
        <ele>7</ele>
        <time>2019-07-15T09:22:33Z</time>
      </trkpt>
      <trkpt lat="47.76866" lon="-3.53251">
        <ele>7</ele>
        <time>2019-07-15T09:22:34Z</time>
      </trkpt>
      <trkpt lat="47.76873" lon="-3.53244">
        <ele>6</ele>
        <time>2019-07-15T09:22:35Z</time>
      </trkpt>
      <trkpt lat="47.7688" lon="-3.53239">
        <ele>6</ele>
        <time>2019-07-15T09:22:36Z</time>
      </trkpt>
      <trkpt lat="47.76887" lon="-3.53235">
        <ele>6</ele>
        <time>2019-07-15T09:22:37Z</time>
      </trkpt>
      <trkpt lat="47.76893" lon="-3.53231">
        <ele>5</ele>
        <time>2019-07-15T09:22:38Z</time>
      </trkpt>
      <trkpt lat="47.769" lon="-3.53228">
        <ele>5</ele>
        <time>2019-07-15T09:22:39Z</time>
      </trkpt>
      <trkpt lat="47.76907" lon="-3.53226">
        <ele>5</ele>
        <time>2019-07-15T09:22:40Z</time>
      </trkpt>
      <trkpt lat="47.76913" lon="-3.53224">
        <ele>5</ele>
        <time>2019-07-15T09:22:41Z</time>
      </trkpt>
      <trkpt lat="47.76919" lon="-3.53223">
        <ele>5</ele>
        <time>2019-07-15T09:22:42Z</time>
      </trkpt>
      <trkpt lat="47.76925" lon="-3.53223">
        <ele>5</ele>
        <time>2019-07-15T09:22:43Z</time>
      </trkpt>
      <trkpt lat="47.76931" lon="-3.53222">
        <ele>5</ele>
        <time>2019-07-15T09:22:44Z</time>
      </trkpt>
      <trkpt lat="47.76936" lon="-3.53221">
        <ele>5</ele>
        <time>2019-07-15T09:22:45Z</time>
      </trkpt>
      <trkpt lat="47.76942" lon="-3.5322">
        <ele>5</ele>
        <time>2019-07-15T09:22:46Z</time>
      </trkpt>
      <trkpt lat="47.76948" lon="-3.5322">
        <ele>5</ele>
        <time>2019-07-15T09:22:47Z</time>
      </trkpt>
      <trkpt lat="47.76953" lon="-3.53219">
        <ele>4</ele>
        <time>2019-07-15T09:22:48Z</time>
      </trkpt>
      <trkpt lat="47.76958" lon="-3.53219">
        <ele>4</ele>
        <time>2019-07-15T09:22:49Z</time>
      </trkpt>
      <trkpt lat="47.76963" lon="-3.53218">
        <ele>4</ele>
        <time>2019-07-15T09:22:50Z</time>
      </trkpt>
      <trkpt lat="47.76968" lon="-3.53218">
        <ele>4</ele>
        <time>2019-07-15T09:22:51Z</time>
      </trkpt>
      <trkpt lat="47.76973" lon="-3.53218">
        <ele>5</ele>
        <time>2019-07-15T09:22:52Z</time>
      </trkpt>
      <trkpt lat="47.76978" lon="-3.53219">
        <ele>5</ele>
        <time>2019-07-15T09:22:53Z</time>
      </trkpt>
      <trkpt lat="47.76982" lon="-3.5322">
        <ele>5</ele>
        <time>2019-07-15T09:22:54Z</time>
      </trkpt>
      <trkpt lat="47.76986" lon="-3.53222">
        <ele>5</ele>
        <time>2019-07-15T09:22:55Z</time>
      </trkpt>
      <trkpt lat="47.7699" lon="-3.53224">
        <ele>5</ele>
        <time>2019-07-15T09:22:56Z</time>
      </trkpt>
      <trkpt lat="47.76993" lon="-3.53226">
        <ele>5</ele>
        <time>2019-07-15T09:22:57Z</time>
      </trkpt>
      <trkpt lat="47.76997" lon="-3.53227">
        <ele>5</ele>
        <time>2019-07-15T09:22:58Z</time>
      </trkpt>
      <trkpt lat="47.77001" lon="-3.53226">
        <ele>5</ele>
        <time>2019-07-15T09:22:59Z</time>
      </trkpt>
      <trkpt lat="47.77005" lon="-3.53223">
        <ele>5</ele>
        <time>2019-07-15T09:23:00Z</time>
      </trkpt>
      <trkpt lat="47.7701" lon="-3.53221">
        <ele>5</ele>
        <time>2019-07-15T09:23:01Z</time>
      </trkpt>
      <trkpt lat="47.77014" lon="-3.53218">
        <ele>4</ele>
        <time>2019-07-15T09:23:02Z</time>
      </trkpt>
      <trkpt lat="47.7702" lon="-3.53215">
        <ele>4</ele>
        <time>2019-07-15T09:23:03Z</time>
      </trkpt>
      <trkpt lat="47.77026" lon="-3.53212">
        <ele>4</ele>
        <time>2019-07-15T09:23:04Z</time>
      </trkpt>
      <trkpt lat="47.77032" lon="-3.53208">
        <ele>4</ele>
        <time>2019-07-15T09:23:05Z</time>
      </trkpt>
      <trkpt lat="47.77038" lon="-3.53204">
        <ele>4</ele>
        <time>2019-07-15T09:23:06Z</time>
      </trkpt>
      <trkpt lat="47.77045" lon="-3.532">
        <ele>4</ele>
        <time>2019-07-15T09:23:07Z</time>
      </trkpt>
      <trkpt lat="47.77051" lon="-3.53197">
        <ele>4</ele>
        <time>2019-07-15T09:23:08Z</time>
      </trkpt>
      <trkpt lat="47.77057" lon="-3.53194">
        <ele>4</ele>
        <time>2019-07-15T09:23:09Z</time>
      </trkpt>
      <trkpt lat="47.77063" lon="-3.53192">
        <ele>4</ele>
        <time>2019-07-15T09:23:10Z</time>
      </trkpt>
      <trkpt lat="47.77067" lon="-3.53189">
        <ele>4</ele>
        <time>2019-07-15T09:23:11Z</time>
      </trkpt>
      <trkpt lat="47.77072" lon="-3.53185">
        <ele>4</ele>
        <time>2019-07-15T09:23:12Z</time>
      </trkpt>
      <trkpt lat="47.77076" lon="-3.53182">
        <ele>4</ele>
        <time>2019-07-15T09:23:13Z</time>
      </trkpt>
      <trkpt lat="47.7708" lon="-3.53177">
        <ele>4</ele>
        <time>2019-07-15T09:23:14Z</time>
      </trkpt>
      <trkpt lat="47.77083" lon="-3.53173">
        <ele>4</ele>
        <time>2019-07-15T09:23:15Z</time>
      </trkpt>
      <trkpt lat="47.77086" lon="-3.53168">
        <ele>4</ele>
        <time>2019-07-15T09:23:16Z</time>
      </trkpt>
      <trkpt lat="47.7709" lon="-3.53164">
        <ele>4</ele>
        <time>2019-07-15T09:23:17Z</time>
      </trkpt>
      <trkpt lat="47.77093" lon="-3.5316">
        <ele>4</ele>
        <time>2019-07-15T09:23:18Z</time>
      </trkpt>
      <trkpt lat="47.77097" lon="-3.53157">
        <ele>4</ele>
        <time>2019-07-15T09:23:19Z</time>
      </trkpt>
      <trkpt lat="47.771" lon="-3.53157">
        <ele>4</ele>
        <time>2019-07-15T09:23:20Z</time>
      </trkpt>
      <trkpt lat="47.77104" lon="-3.53159">
        <ele>4</ele>
        <time>2019-07-15T09:23:21Z</time>
      </trkpt>
      <trkpt lat="47.77106" lon="-3.53162">
        <ele>4</ele>
        <time>2019-07-15T09:23:22Z</time>
      </trkpt>
      <trkpt lat="47.77109" lon="-3.53165">
        <ele>4</ele>
        <time>2019-07-15T09:23:23Z</time>
      </trkpt>
      <trkpt lat="47.77112" lon="-3.53169">
        <ele>3</ele>
        <time>2019-07-15T09:23:24Z</time>
      </trkpt>
      <trkpt lat="47.77115" lon="-3.53173">
        <ele>3</ele>
        <time>2019-07-15T09:23:25Z</time>
      </trkpt>
      <trkpt lat="47.77117" lon="-3.53176">
        <ele>3</ele>
        <time>2019-07-15T09:23:26Z</time>
      </trkpt>
      <trkpt lat="47.77118" lon="-3.53179">
        <ele>3</ele>
        <time>2019-07-15T09:23:27Z</time>
      </trkpt>
      <trkpt lat="47.7712" lon="-3.53182">
        <ele>3</ele>
        <time>2019-07-15T09:23:28Z</time>
      </trkpt>
      <trkpt lat="47.77122" lon="-3.53185">
        <ele>3</ele>
        <time>2019-07-15T09:23:29Z</time>
      </trkpt>
      <trkpt lat="47.77123" lon="-3.53189">
        <ele>2</ele>
        <time>2019-07-15T09:23:30Z</time>
      </trkpt>
      <trkpt lat="47.77125" lon="-3.53192">
        <ele>2</ele>
        <time>2019-07-15T09:23:31Z</time>
      </trkpt>
      <trkpt lat="47.77127" lon="-3.53195">
        <ele>2</ele>
        <time>2019-07-15T09:23:32Z</time>
      </trkpt>
      <trkpt lat="47.77129" lon="-3.53197">
        <ele>2</ele>
        <time>2019-07-15T09:23:33Z</time>
      </trkpt>
      <trkpt lat="47.77131" lon="-3.532">
        <ele>2</ele>
        <time>2019-07-15T09:23:34Z</time>
      </trkpt>
      <trkpt lat="47.77133" lon="-3.53203">
        <ele>2</ele>
        <time>2019-07-15T09:23:35Z</time>
      </trkpt>
      <trkpt lat="47.77136" lon="-3.53206">
        <ele>2</ele>
        <time>2019-07-15T09:23:36Z</time>
      </trkpt>
      <trkpt lat="47.77138" lon="-3.53208">
        <ele>2</ele>
        <time>2019-07-15T09:23:37Z</time>
      </trkpt>
      <trkpt lat="47.77141" lon="-3.53211">
        <ele>1</ele>
        <time>2019-07-15T09:23:38Z</time>
      </trkpt>
      <trkpt lat="47.77142" lon="-3.53216">
        <ele>1</ele>
        <time>2019-07-15T09:23:39Z</time>
      </trkpt>
      <trkpt lat="47.77145" lon="-3.5322">
        <ele>1</ele>
        <time>2019-07-15T09:23:40Z</time>
      </trkpt>
      <trkpt lat="47.77147" lon="-3.53224">
        <ele>1</ele>
        <time>2019-07-15T09:23:41Z</time>
      </trkpt>
      <trkpt lat="47.77149" lon="-3.53227">
        <ele>1</ele>
        <time>2019-07-15T09:23:42Z</time>
      </trkpt>
      <trkpt lat="47.77152" lon="-3.53229">
        <ele>1</ele>
        <time>2019-07-15T09:23:43Z</time>
      </trkpt>
      <trkpt lat="47.77156" lon="-3.53229">
        <ele>1</ele>
        <time>2019-07-15T09:23:44Z</time>
      </trkpt>
      <trkpt lat="47.7716" lon="-3.5323">
        <ele>1</ele>
        <time>2019-07-15T09:23:45Z</time>
      </trkpt>
      <trkpt lat="47.77164" lon="-3.53231">
        <ele>1</ele>
        <time>2019-07-15T09:23:46Z</time>
      </trkpt>
      <trkpt lat="47.77168" lon="-3.53234">
        <ele>1</ele>
        <time>2019-07-15T09:23:47Z</time>
      </trkpt>
      <trkpt lat="47.7717" lon="-3.53237">
        <ele>1</ele>
        <time>2019-07-15T09:23:48Z</time>
      </trkpt>
      <trkpt lat="47.77173" lon="-3.5324">
        <ele>1</ele>
        <time>2019-07-15T09:23:49Z</time>
      </trkpt>
      <trkpt lat="47.77174" lon="-3.53243">
        <ele>1</ele>
        <time>2019-07-15T09:23:50Z</time>
      </trkpt>
      <trkpt lat="47.77175" lon="-3.53244">
        <ele>1</ele>
        <time>2019-07-15T09:23:51Z</time>
      </trkpt>
      <trkpt lat="47.77175" lon="-3.53244">
        <ele>1</ele>
        <time>2019-07-15T09:23:52Z</time>
      </trkpt>
      <trkpt lat="47.77175" lon="-3.53244">
        <ele>1</ele>
        <time>2019-07-15T09:23:53Z</time>
      </trkpt>
      <trkpt lat="47.77175" lon="-3.53244">
        <ele>1</ele>
        <time>2019-07-15T09:23:54Z</time>
      </trkpt>
      <trkpt lat="47.77171" lon="-3.53237">
        <ele>1</ele>
        <time>2019-07-15T09:23:55Z</time>
      </trkpt>
      <trkpt lat="47.7717" lon="-3.53234">
        <ele>1</ele>
        <time>2019-07-15T09:23:56Z</time>
      </trkpt>
      <trkpt lat="47.77168" lon="-3.53233">
        <ele>1</ele>
        <time>2019-07-15T09:23:57Z</time>
      </trkpt>
      <trkpt lat="47.77165" lon="-3.53232">
        <ele>1</ele>
        <time>2019-07-15T09:23:58Z</time>
      </trkpt>
      <trkpt lat="47.77162" lon="-3.53231">
        <ele>1</ele>
        <time>2019-07-15T09:23:59Z</time>
      </trkpt>
      <trkpt lat="47.7716" lon="-3.53229">
        <ele>1</ele>
        <time>2019-07-15T09:24:00Z</time>
      </trkpt>
      <trkpt lat="47.77157" lon="-3.53229">
        <ele>1</ele>
        <time>2019-07-15T09:24:01Z</time>
      </trkpt>
      <trkpt lat="47.77154" lon="-3.5323">
        <ele>1</ele>
        <time>2019-07-15T09:24:02Z</time>
      </trkpt>
      <trkpt lat="47.77152" lon="-3.53228">
        <ele>1</ele>
        <time>2019-07-15T09:24:03Z</time>
      </trkpt>
      <trkpt lat="47.77149" lon="-3.53226">
        <ele>1</ele>
        <time>2019-07-15T09:24:04Z</time>
      </trkpt>
      <trkpt lat="47.77147" lon="-3.53222">
        <ele>1</ele>
        <time>2019-07-15T09:24:05Z</time>
      </trkpt>
      <trkpt lat="47.77145" lon="-3.53218">
        <ele>1</ele>
        <time>2019-07-15T09:24:06Z</time>
      </trkpt>
      <trkpt lat="47.77144" lon="-3.53215">
        <ele>1</ele>
        <time>2019-07-15T09:24:07Z</time>
      </trkpt>
      <trkpt lat="47.77143" lon="-3.53214">
        <ele>1</ele>
        <time>2019-07-15T09:24:08Z</time>
      </trkpt>
      <trkpt lat="47.77143" lon="-3.53214">
        <ele>1</ele>
        <time>2019-07-15T09:24:09Z</time>
      </trkpt>
      <trkpt lat="47.77143" lon="-3.53214">
        <ele>3.1</ele>
        <time>2019-07-15T09:24:10Z</time>
      </trkpt>
      <trkpt lat="47.77143" lon="-3.53214">
        <ele>3.1</ele>
        <time>2019-07-15T09:24:11Z</time>
      </trkpt>
      <trkpt lat="47.77133" lon="-3.53241">
        <ele>10</ele>
        <time>2019-07-15T09:24:12Z</time>
      </trkpt>
      <trkpt lat="47.77135" lon="-3.53243">
        <ele>10</ele>
        <time>2019-07-15T09:24:13Z</time>
      </trkpt>
      <trkpt lat="47.77137" lon="-3.53244">
        <ele>10</ele>
        <time>2019-07-15T09:24:14Z</time>
      </trkpt>
      <trkpt lat="47.77139" lon="-3.53246">
        <ele>10</ele>
        <time>2019-07-15T09:24:15Z</time>
      </trkpt>
      <trkpt lat="47.7714" lon="-3.53249">
        <ele>11</ele>
        <time>2019-07-15T09:24:16Z</time>
      </trkpt>
      <trkpt lat="47.77142" lon="-3.53251">
        <ele>11</ele>
        <time>2019-07-15T09:24:17Z</time>
      </trkpt>
      <trkpt lat="47.77145" lon="-3.53254">
        <ele>11</ele>
        <time>2019-07-15T09:24:18Z</time>
      </trkpt>
      <trkpt lat="47.77148" lon="-3.53257">
        <ele>11</ele>
        <time>2019-07-15T09:24:19Z</time>
      </trkpt>
      <trkpt lat="47.77151" lon="-3.5326">
        <ele>11</ele>
        <time>2019-07-15T09:24:20Z</time>
      </trkpt>
      <trkpt lat="47.77154" lon="-3.53263">
        <ele>11</ele>
        <time>2019-07-15T09:24:21Z</time>
      </trkpt>
      <trkpt lat="47.77157" lon="-3.53267">
        <ele>12</ele>
        <time>2019-07-15T09:24:22Z</time>
      </trkpt>
      <trkpt lat="47.7716" lon="-3.53271">
        <ele>12</ele>
        <time>2019-07-15T09:24:23Z</time>
      </trkpt>
      <trkpt lat="47.77162" lon="-3.53276">
        <ele>12</ele>
        <time>2019-07-15T09:24:24Z</time>
      </trkpt>
      <trkpt lat="47.77165" lon="-3.53282">
        <ele>12</ele>
        <time>2019-07-15T09:24:25Z</time>
      </trkpt>
      <trkpt lat="47.77167" lon="-3.53288">
        <ele>12</ele>
        <time>2019-07-15T09:24:26Z</time>
      </trkpt>
      <trkpt lat="47.77168" lon="-3.53294">
        <ele>12</ele>
        <time>2019-07-15T09:24:27Z</time>
      </trkpt>
      <trkpt lat="47.77169" lon="-3.533">
        <ele>12</ele>
        <time>2019-07-15T09:24:28Z</time>
      </trkpt>
      <trkpt lat="47.77171" lon="-3.53305">
        <ele>12</ele>
        <time>2019-07-15T09:24:29Z</time>
      </trkpt>
      <trkpt lat="47.77172" lon="-3.5331">
        <ele>13</ele>
        <time>2019-07-15T09:24:30Z</time>
      </trkpt>
      <trkpt lat="47.77175" lon="-3.53316">
        <ele>13</ele>
        <time>2019-07-15T09:24:31Z</time>
      </trkpt>
      <trkpt lat="47.77178" lon="-3.53321">
        <ele>13</ele>
        <time>2019-07-15T09:24:32Z</time>
      </trkpt>
      <trkpt lat="47.77182" lon="-3.53324">
        <ele>12</ele>
        <time>2019-07-15T09:24:33Z</time>
      </trkpt>
      <trkpt lat="47.77186" lon="-3.53327">
        <ele>12</ele>
        <time>2019-07-15T09:24:34Z</time>
      </trkpt>
      <trkpt lat="47.77191" lon="-3.53329">
        <ele>12</ele>
        <time>2019-07-15T09:24:35Z</time>
      </trkpt>
      <trkpt lat="47.77195" lon="-3.53331">
        <ele>12</ele>
        <time>2019-07-15T09:24:36Z</time>
      </trkpt>
      <trkpt lat="47.772" lon="-3.53332">
        <ele>12</ele>
        <time>2019-07-15T09:24:37Z</time>
      </trkpt>
      <trkpt lat="47.77204" lon="-3.53334">
        <ele>12</ele>
        <time>2019-07-15T09:24:38Z</time>
      </trkpt>
      <trkpt lat="47.77208" lon="-3.53336">
        <ele>12</ele>
        <time>2019-07-15T09:24:39Z</time>
      </trkpt>
      <trkpt lat="47.77212" lon="-3.53339">
        <ele>12</ele>
        <time>2019-07-15T09:24:40Z</time>
      </trkpt>
      <trkpt lat="47.77215" lon="-3.53342">
        <ele>12</ele>
        <time>2019-07-15T09:24:41Z</time>
      </trkpt>
      <trkpt lat="47.77219" lon="-3.53344">
        <ele>12</ele>
        <time>2019-07-15T09:24:42Z</time>
      </trkpt>
      <trkpt lat="47.77223" lon="-3.53346">
        <ele>12</ele>
        <time>2019-07-15T09:24:43Z</time>
      </trkpt>
      <trkpt lat="47.77227" lon="-3.53348">
        <ele>12</ele>
        <time>2019-07-15T09:24:44Z</time>
      </trkpt>
      <trkpt lat="47.7723" lon="-3.5335">
        <ele>12</ele>
        <time>2019-07-15T09:24:45Z</time>
      </trkpt>
      <trkpt lat="47.77234" lon="-3.53352">
        <ele>11</ele>
        <time>2019-07-15T09:24:46Z</time>
      </trkpt>
      <trkpt lat="47.77238" lon="-3.53354">
        <ele>12</ele>
        <time>2019-07-15T09:24:47Z</time>
      </trkpt>
      <trkpt lat="47.77241" lon="-3.53355">
        <ele>12</ele>
        <time>2019-07-15T09:24:48Z</time>
      </trkpt>
      <trkpt lat="47.77245" lon="-3.53356">
        <ele>12</ele>
        <time>2019-07-15T09:24:49Z</time>
      </trkpt>
      <trkpt lat="47.77248" lon="-3.53358">
        <ele>12</ele>
        <time>2019-07-15T09:24:50Z</time>
      </trkpt>
      <trkpt lat="47.77251" lon="-3.53359">
        <ele>12</ele>
        <time>2019-07-15T09:24:51Z</time>
      </trkpt>
      <trkpt lat="47.77255" lon="-3.5336">
        <ele>12</ele>
        <time>2019-07-15T09:24:52Z</time>
      </trkpt>
      <trkpt lat="47.77258" lon="-3.53362">
        <ele>12</ele>
        <time>2019-07-15T09:24:53Z</time>
      </trkpt>
      <trkpt lat="47.77262" lon="-3.53365">
        <ele>12</ele>
        <time>2019-07-15T09:24:54Z</time>
      </trkpt>
      <trkpt lat="47.77266" lon="-3.53367">
        <ele>12</ele>
        <time>2019-07-15T09:24:55Z</time>
      </trkpt>
      <trkpt lat="47.7727" lon="-3.5337">
        <ele>12</ele>
        <time>2019-07-15T09:24:56Z</time>
      </trkpt>
      <trkpt lat="47.77272" lon="-3.53371">
        <ele>12</ele>
        <time>2019-07-15T09:24:57Z</time>
      </trkpt>
      <trkpt lat="47.77273" lon="-3.53371">
        <ele>12</ele>
        <time>2019-07-15T09:24:58Z</time>
      </trkpt>
      <trkpt lat="47.77273" lon="-3.53371">
        <ele>12</ele>
        <time>2019-07-15T09:24:59Z</time>
      </trkpt>
      <trkpt lat="47.77273" lon="-3.53371">
        <ele>12</ele>
        <time>2019-07-15T09:25:00Z</time>
      </trkpt>
      <trkpt lat="47.77274" lon="-3.53372">
        <ele>12</ele>
        <time>2019-07-15T09:25:01Z</time>
      </trkpt>
      <trkpt lat="47.77279" lon="-3.5337">
        <ele>11</ele>
        <time>2019-07-15T09:25:02Z</time>
      </trkpt>
      <trkpt lat="47.7728" lon="-3.53369">
        <ele>11</ele>
        <time>2019-07-15T09:25:03Z</time>
      </trkpt>
      <trkpt lat="47.77282" lon="-3.53369">
        <ele>11</ele>
        <time>2019-07-15T09:25:04Z</time>
      </trkpt>
      <trkpt lat="47.77284" lon="-3.53368">
        <ele>11</ele>
        <time>2019-07-15T09:25:05Z</time>
      </trkpt>
      <trkpt lat="47.77288" lon="-3.53368">
        <ele>11</ele>
        <time>2019-07-15T09:25:06Z</time>
      </trkpt>
      <trkpt lat="47.77291" lon="-3.53367">
        <ele>12</ele>
        <time>2019-07-15T09:25:07Z</time>
      </trkpt>
      <trkpt lat="47.77295" lon="-3.53365">
        <ele>12</ele>
        <time>2019-07-15T09:25:08Z</time>
      </trkpt>
      <trkpt lat="47.77298" lon="-3.53362">
        <ele>12</ele>
        <time>2019-07-15T09:25:09Z</time>
      </trkpt>
      <trkpt lat="47.773" lon="-3.53361">
        <ele>12</ele>
        <time>2019-07-15T09:25:10Z</time>
      </trkpt>
      <trkpt lat="47.77302" lon="-3.53361">
        <ele>12</ele>
        <time>2019-07-15T09:25:11Z</time>
      </trkpt>
      <trkpt lat="47.77304" lon="-3.53361">
        <ele>12</ele>
        <time>2019-07-15T09:25:12Z</time>
      </trkpt>
      <trkpt lat="47.77305" lon="-3.53361">
        <ele>12</ele>
        <time>2019-07-15T09:25:13Z</time>
      </trkpt>
      <trkpt lat="47.77307" lon="-3.53362">
        <ele>12</ele>
        <time>2019-07-15T09:25:14Z</time>
      </trkpt>
      <trkpt lat="47.77308" lon="-3.53361">
        <ele>12</ele>
        <time>2019-07-15T09:25:15Z</time>
      </trkpt>
      <trkpt lat="47.77309" lon="-3.53362">
        <ele>12</ele>
        <time>2019-07-15T09:25:16Z</time>
      </trkpt>
      <trkpt lat="47.77311" lon="-3.53362">
        <ele>12</ele>
        <time>2019-07-15T09:25:17Z</time>
      </trkpt>
      <trkpt lat="47.77312" lon="-3.53362">
        <ele>12</ele>
        <time>2019-07-15T09:25:18Z</time>
      </trkpt>
      <trkpt lat="47.77314" lon="-3.53362">
        <ele>12</ele>
        <time>2019-07-15T09:25:19Z</time>
      </trkpt>
      <trkpt lat="47.77316" lon="-3.53362">
        <ele>12</ele>
        <time>2019-07-15T09:25:20Z</time>
      </trkpt>
      <trkpt lat="47.77317" lon="-3.53362">
        <ele>12</ele>
        <time>2019-07-15T09:25:21Z</time>
      </trkpt>
      <trkpt lat="47.77319" lon="-3.53362">
        <ele>12</ele>
        <time>2019-07-15T09:25:22Z</time>
      </trkpt>
      <trkpt lat="47.77321" lon="-3.53362">
        <ele>12</ele>
        <time>2019-07-15T09:25:23Z</time>
      </trkpt>
      <trkpt lat="47.77322" lon="-3.53361">
        <ele>12</ele>
        <time>2019-07-15T09:25:24Z</time>
      </trkpt>
      <trkpt lat="47.77324" lon="-3.53361">
        <ele>12</ele>
        <time>2019-07-15T09:25:25Z</time>
      </trkpt>
      <trkpt lat="47.77326" lon="-3.53361">
        <ele>12</ele>
        <time>2019-07-15T09:25:26Z</time>
      </trkpt>
      <trkpt lat="47.77328" lon="-3.53361">
        <ele>12</ele>
        <time>2019-07-15T09:25:27Z</time>
      </trkpt>
      <trkpt lat="47.77331" lon="-3.53361">
        <ele>12</ele>
        <time>2019-07-15T09:25:28Z</time>
      </trkpt>
      <trkpt lat="47.77333" lon="-3.53361">
        <ele>12</ele>
        <time>2019-07-15T09:25:29Z</time>
      </trkpt>
      <trkpt lat="47.77336" lon="-3.53361">
        <ele>12</ele>
        <time>2019-07-15T09:25:30Z</time>
      </trkpt>
      <trkpt lat="47.77338" lon="-3.5336">
        <ele>11</ele>
        <time>2019-07-15T09:25:31Z</time>
      </trkpt>
      <trkpt lat="47.77341" lon="-3.5336">
        <ele>11</ele>
        <time>2019-07-15T09:25:32Z</time>
      </trkpt>
      <trkpt lat="47.77344" lon="-3.53358">
        <ele>11</ele>
        <time>2019-07-15T09:25:33Z</time>
      </trkpt>
      <trkpt lat="47.77348" lon="-3.53357">
        <ele>11</ele>
        <time>2019-07-15T09:25:34Z</time>
      </trkpt>
      <trkpt lat="47.77354" lon="-3.53355">
        <ele>11</ele>
        <time>2019-07-15T09:25:35Z</time>
      </trkpt>
      <trkpt lat="47.77361" lon="-3.53354">
        <ele>11</ele>
        <time>2019-07-15T09:25:36Z</time>
      </trkpt>
      <trkpt lat="47.77367" lon="-3.53353">
        <ele>11</ele>
        <time>2019-07-15T09:25:37Z</time>
      </trkpt>
      <trkpt lat="47.77373" lon="-3.53352">
        <ele>11</ele>
        <time>2019-07-15T09:25:38Z</time>
      </trkpt>
      <trkpt lat="47.77379" lon="-3.53351">
        <ele>10</ele>
        <time>2019-07-15T09:25:39Z</time>
      </trkpt>
      <trkpt lat="47.77385" lon="-3.53351">
        <ele>10</ele>
        <time>2019-07-15T09:25:40Z</time>
      </trkpt>
      <trkpt lat="47.7739" lon="-3.53351">
        <ele>10</ele>
        <time>2019-07-15T09:25:41Z</time>
      </trkpt>
      <trkpt lat="47.77394" lon="-3.53351">
        <ele>10</ele>
        <time>2019-07-15T09:25:42Z</time>
      </trkpt>
      <trkpt lat="47.77397" lon="-3.5335">
        <ele>10</ele>
        <time>2019-07-15T09:25:43Z</time>
      </trkpt>
      <trkpt lat="47.77401" lon="-3.53349">
        <ele>10</ele>
        <time>2019-07-15T09:25:44Z</time>
      </trkpt>
      <trkpt lat="47.77404" lon="-3.5335">
        <ele>10</ele>
        <time>2019-07-15T09:25:45Z</time>
      </trkpt>
      <trkpt lat="47.77408" lon="-3.53351">
        <ele>10</ele>
        <time>2019-07-15T09:25:46Z</time>
      </trkpt>
      <trkpt lat="47.77411" lon="-3.53353">
        <ele>10</ele>
        <time>2019-07-15T09:25:47Z</time>
      </trkpt>
      <trkpt lat="47.77414" lon="-3.53355">
        <ele>10</ele>
        <time>2019-07-15T09:25:48Z</time>
      </trkpt>
      <trkpt lat="47.77416" lon="-3.53356">
        <ele>10</ele>
        <time>2019-07-15T09:25:49Z</time>
      </trkpt>
      <trkpt lat="47.77419" lon="-3.53358">
        <ele>10</ele>
        <time>2019-07-15T09:25:50Z</time>
      </trkpt>
      <trkpt lat="47.77421" lon="-3.53359">
        <ele>10</ele>
        <time>2019-07-15T09:25:51Z</time>
      </trkpt>
      <trkpt lat="47.77424" lon="-3.53361">
        <ele>10</ele>
        <time>2019-07-15T09:25:52Z</time>
      </trkpt>
      <trkpt lat="47.77428" lon="-3.53365">
        <ele>10</ele>
        <time>2019-07-15T09:25:53Z</time>
      </trkpt>
      <trkpt lat="47.77431" lon="-3.5337">
        <ele>10</ele>
        <time>2019-07-15T09:25:54Z</time>
      </trkpt>
      <trkpt lat="47.77434" lon="-3.53375">
        <ele>10</ele>
        <time>2019-07-15T09:25:55Z</time>
      </trkpt>
      <trkpt lat="47.77438" lon="-3.5338">
        <ele>10</ele>
        <time>2019-07-15T09:25:56Z</time>
      </trkpt>
      <trkpt lat="47.77441" lon="-3.53384">
        <ele>10</ele>
        <time>2019-07-15T09:25:57Z</time>
      </trkpt>
      <trkpt lat="47.77443" lon="-3.53387">
        <ele>11</ele>
        <time>2019-07-15T09:25:58Z</time>
      </trkpt>
      <trkpt lat="47.77447" lon="-3.53391">
        <ele>11</ele>
        <time>2019-07-15T09:25:59Z</time>
      </trkpt>
      <trkpt lat="47.77451" lon="-3.53396">
        <ele>11</ele>
        <time>2019-07-15T09:26:00Z</time>
      </trkpt>
      <trkpt lat="47.77455" lon="-3.53401">
        <ele>11</ele>
        <time>2019-07-15T09:26:01Z</time>
      </trkpt>
      <trkpt lat="47.7746" lon="-3.53408">
        <ele>11</ele>
        <time>2019-07-15T09:26:02Z</time>
      </trkpt>
      <trkpt lat="47.77464" lon="-3.53417">
        <ele>11</ele>
        <time>2019-07-15T09:26:03Z</time>
      </trkpt>
      <trkpt lat="47.77467" lon="-3.53426">
        <ele>11</ele>
        <time>2019-07-15T09:26:04Z</time>
      </trkpt>
      <trkpt lat="47.77469" lon="-3.53436">
        <ele>11</ele>
        <time>2019-07-15T09:26:05Z</time>
      </trkpt>
      <trkpt lat="47.77471" lon="-3.53445">
        <ele>11</ele>
        <time>2019-07-15T09:26:06Z</time>
      </trkpt>
      <trkpt lat="47.77472" lon="-3.53455">
        <ele>11</ele>
        <time>2019-07-15T09:26:07Z</time>
      </trkpt>
      <trkpt lat="47.77473" lon="-3.53464">
        <ele>11</ele>
        <time>2019-07-15T09:26:08Z</time>
      </trkpt>
      <trkpt lat="47.77474" lon="-3.53472">
        <ele>11</ele>
        <time>2019-07-15T09:26:09Z</time>
      </trkpt>
      <trkpt lat="47.77474" lon="-3.53479">
        <ele>11</ele>
        <time>2019-07-15T09:26:10Z</time>
      </trkpt>
      <trkpt lat="47.77473" lon="-3.53486">
        <ele>11</ele>
        <time>2019-07-15T09:26:11Z</time>
      </trkpt>
      <trkpt lat="47.77471" lon="-3.53492">
        <ele>11</ele>
        <time>2019-07-15T09:26:12Z</time>
      </trkpt>
      <trkpt lat="47.7747" lon="-3.53497">
        <ele>11</ele>
        <time>2019-07-15T09:26:13Z</time>
      </trkpt>
      <trkpt lat="47.77468" lon="-3.53502">
        <ele>11</ele>
        <time>2019-07-15T09:26:14Z</time>
      </trkpt>
      <trkpt lat="47.77467" lon="-3.53506">
        <ele>12</ele>
        <time>2019-07-15T09:26:15Z</time>
      </trkpt>
      <trkpt lat="47.77465" lon="-3.5351">
        <ele>12</ele>
        <time>2019-07-15T09:26:16Z</time>
      </trkpt>
      <trkpt lat="47.77464" lon="-3.53514">
        <ele>12</ele>
        <time>2019-07-15T09:26:17Z</time>
      </trkpt>
      <trkpt lat="47.77463" lon="-3.53518">
        <ele>12</ele>
        <time>2019-07-15T09:26:18Z</time>
      </trkpt>
      <trkpt lat="47.77462" lon="-3.53523">
        <ele>12</ele>
        <time>2019-07-15T09:26:19Z</time>
      </trkpt>
      <trkpt lat="47.77462" lon="-3.53528">
        <ele>12</ele>
        <time>2019-07-15T09:26:20Z</time>
      </trkpt>
      <trkpt lat="47.77461" lon="-3.53533">
        <ele>12</ele>
        <time>2019-07-15T09:26:21Z</time>
      </trkpt>
      <trkpt lat="47.7746" lon="-3.53539">
        <ele>12</ele>
        <time>2019-07-15T09:26:22Z</time>
      </trkpt>
      <trkpt lat="47.7746" lon="-3.53545">
        <ele>12</ele>
        <time>2019-07-15T09:26:23Z</time>
      </trkpt>
      <trkpt lat="47.77459" lon="-3.53551">
        <ele>12</ele>
        <time>2019-07-15T09:26:24Z</time>
      </trkpt>
      <trkpt lat="47.77458" lon="-3.53558">
        <ele>12</ele>
        <time>2019-07-15T09:26:25Z</time>
      </trkpt>
      <trkpt lat="47.77459" lon="-3.53565">
        <ele>12</ele>
        <time>2019-07-15T09:26:26Z</time>
      </trkpt>
      <trkpt lat="47.77459" lon="-3.53572">
        <ele>12</ele>
        <time>2019-07-15T09:26:27Z</time>
      </trkpt>
      <trkpt lat="47.77459" lon="-3.53579">
        <ele>12</ele>
        <time>2019-07-15T09:26:28Z</time>
      </trkpt>
      <trkpt lat="47.77459" lon="-3.53587">
        <ele>12</ele>
        <time>2019-07-15T09:26:29Z</time>
      </trkpt>
      <trkpt lat="47.77459" lon="-3.53595">
        <ele>12</ele>
        <time>2019-07-15T09:26:30Z</time>
      </trkpt>
      <trkpt lat="47.7746" lon="-3.53604">
        <ele>12</ele>
        <time>2019-07-15T09:26:31Z</time>
      </trkpt>
      <trkpt lat="47.77461" lon="-3.53612">
        <ele>12</ele>
        <time>2019-07-15T09:26:32Z</time>
      </trkpt>
      <trkpt lat="47.77462" lon="-3.5362">
        <ele>12</ele>
        <time>2019-07-15T09:26:33Z</time>
      </trkpt>
      <trkpt lat="47.77461" lon="-3.53626">
        <ele>12</ele>
        <time>2019-07-15T09:26:34Z</time>
      </trkpt>
      <trkpt lat="47.77459" lon="-3.53631">
        <ele>12</ele>
        <time>2019-07-15T09:26:35Z</time>
      </trkpt>
      <trkpt lat="47.77457" lon="-3.53636">
        <ele>12</ele>
        <time>2019-07-15T09:26:36Z</time>
      </trkpt>
      <trkpt lat="47.77456" lon="-3.5364">
        <ele>12</ele>
        <time>2019-07-15T09:26:37Z</time>
      </trkpt>
      <trkpt lat="47.77455" lon="-3.53645">
        <ele>12</ele>
        <time>2019-07-15T09:26:38Z</time>
      </trkpt>
      <trkpt lat="47.77454" lon="-3.53651">
        <ele>12</ele>
        <time>2019-07-15T09:26:39Z</time>
      </trkpt>
      <trkpt lat="47.77454" lon="-3.53655">
        <ele>13</ele>
        <time>2019-07-15T09:26:40Z</time>
      </trkpt>
      <trkpt lat="47.77453" lon="-3.5366">
        <ele>13</ele>
        <time>2019-07-15T09:26:41Z</time>
      </trkpt>
      <trkpt lat="47.77454" lon="-3.53664">
        <ele>13</ele>
        <time>2019-07-15T09:26:42Z</time>
      </trkpt>
      <trkpt lat="47.77456" lon="-3.53667">
        <ele>13</ele>
        <time>2019-07-15T09:26:43Z</time>
      </trkpt>
      <trkpt lat="47.77458" lon="-3.5367">
        <ele>13</ele>
        <time>2019-07-15T09:26:44Z</time>
      </trkpt>
      <trkpt lat="47.7746" lon="-3.53673">
        <ele>14</ele>
        <time>2019-07-15T09:26:45Z</time>
      </trkpt>
      <trkpt lat="47.77463" lon="-3.53675">
        <ele>14</ele>
        <time>2019-07-15T09:26:46Z</time>
      </trkpt>
      <trkpt lat="47.77465" lon="-3.53677">
        <ele>15</ele>
        <time>2019-07-15T09:26:47Z</time>
      </trkpt>
      <trkpt lat="47.77467" lon="-3.53679">
        <ele>15</ele>
        <time>2019-07-15T09:26:48Z</time>
      </trkpt>
      <trkpt lat="47.77469" lon="-3.53681">
        <ele>15</ele>
        <time>2019-07-15T09:26:49Z</time>
      </trkpt>
      <trkpt lat="47.77471" lon="-3.53683">
        <ele>15</ele>
        <time>2019-07-15T09:26:50Z</time>
      </trkpt>
      <trkpt lat="47.77474" lon="-3.53688">
        <ele>16</ele>
        <time>2019-07-15T09:26:51Z</time>
      </trkpt>
      <trkpt lat="47.77476" lon="-3.53693">
        <ele>16</ele>
        <time>2019-07-15T09:26:52Z</time>
      </trkpt>
      <trkpt lat="47.77478" lon="-3.53699">
        <ele>16</ele>
        <time>2019-07-15T09:26:53Z</time>
      </trkpt>
      <trkpt lat="47.77482" lon="-3.53705">
        <ele>16</ele>
        <time>2019-07-15T09:26:54Z</time>
      </trkpt>
      <trkpt lat="47.77486" lon="-3.53712">
        <ele>16</ele>
        <time>2019-07-15T09:26:55Z</time>
      </trkpt>
      <trkpt lat="47.77491" lon="-3.53719">
        <ele>16</ele>
        <time>2019-07-15T09:26:56Z</time>
      </trkpt>
      <trkpt lat="47.77495" lon="-3.53727">
        <ele>16</ele>
        <time>2019-07-15T09:26:57Z</time>
      </trkpt>
      <trkpt lat="47.775" lon="-3.53736">
        <ele>16</ele>
        <time>2019-07-15T09:26:58Z</time>
      </trkpt>
      <trkpt lat="47.77504" lon="-3.53744">
        <ele>16</ele>
        <time>2019-07-15T09:26:59Z</time>
      </trkpt>
      <trkpt lat="47.77509" lon="-3.53753">
        <ele>15</ele>
        <time>2019-07-15T09:27:00Z</time>
      </trkpt>
      <trkpt lat="47.77513" lon="-3.53762">
        <ele>15</ele>
        <time>2019-07-15T09:27:01Z</time>
      </trkpt>
      <trkpt lat="47.77518" lon="-3.5377">
        <ele>15</ele>
        <time>2019-07-15T09:27:02Z</time>
      </trkpt>
      <trkpt lat="47.77521" lon="-3.53779">
        <ele>15</ele>
        <time>2019-07-15T09:27:03Z</time>
      </trkpt>
      <trkpt lat="47.77524" lon="-3.53788">
        <ele>15</ele>
        <time>2019-07-15T09:27:04Z</time>
      </trkpt>
      <trkpt lat="47.77528" lon="-3.53796">
        <ele>15</ele>
        <time>2019-07-15T09:27:05Z</time>
      </trkpt>
      <trkpt lat="47.7753" lon="-3.53805">
        <ele>15</ele>
        <time>2019-07-15T09:27:06Z</time>
      </trkpt>
      <trkpt lat="47.77532" lon="-3.53813">
        <ele>14</ele>
        <time>2019-07-15T09:27:07Z</time>
      </trkpt>
      <trkpt lat="47.77533" lon="-3.53821">
        <ele>14</ele>
        <time>2019-07-15T09:27:08Z</time>
      </trkpt>
      <trkpt lat="47.77535" lon="-3.53828">
        <ele>14</ele>
        <time>2019-07-15T09:27:09Z</time>
      </trkpt>
      <trkpt lat="47.77536" lon="-3.53835">
        <ele>14</ele>
        <time>2019-07-15T09:27:10Z</time>
      </trkpt>
      <trkpt lat="47.77538" lon="-3.5384">
        <ele>14</ele>
        <time>2019-07-15T09:27:11Z</time>
      </trkpt>
      <trkpt lat="47.77541" lon="-3.53844">
        <ele>13</ele>
        <time>2019-07-15T09:27:12Z</time>
      </trkpt>
      <trkpt lat="47.77544" lon="-3.53845">
        <ele>13</ele>
        <time>2019-07-15T09:27:13Z</time>
      </trkpt>
      <trkpt lat="47.77547" lon="-3.53846">
        <ele>13</ele>
        <time>2019-07-15T09:27:14Z</time>
      </trkpt>
      <trkpt lat="47.77551" lon="-3.53846">
        <ele>12</ele>
        <time>2019-07-15T09:27:15Z</time>
      </trkpt>
      <trkpt lat="47.77554" lon="-3.53847">
        <ele>12</ele>
        <time>2019-07-15T09:27:16Z</time>
      </trkpt>
      <trkpt lat="47.77557" lon="-3.53847">
        <ele>11</ele>
        <time>2019-07-15T09:27:17Z</time>
      </trkpt>
      <trkpt lat="47.7756" lon="-3.53848">
        <ele>11</ele>
        <time>2019-07-15T09:27:18Z</time>
      </trkpt>
      <trkpt lat="47.77563" lon="-3.53848">
        <ele>10</ele>
        <time>2019-07-15T09:27:19Z</time>
      </trkpt>
      <trkpt lat="47.77565" lon="-3.53848">
        <ele>10</ele>
        <time>2019-07-15T09:27:20Z</time>
      </trkpt>
      <trkpt lat="47.77567" lon="-3.53847">
        <ele>10</ele>
        <time>2019-07-15T09:27:21Z</time>
      </trkpt>
      <trkpt lat="47.77569" lon="-3.53847">
        <ele>10</ele>
        <time>2019-07-15T09:27:22Z</time>
      </trkpt>
      <trkpt lat="47.77569" lon="-3.53848">
        <ele>10</ele>
        <time>2019-07-15T09:27:23Z</time>
      </trkpt>
      <trkpt lat="47.7757" lon="-3.53848">
        <ele>10</ele>
        <time>2019-07-15T09:27:24Z</time>
      </trkpt>
      <trkpt lat="47.7757" lon="-3.53848">
        <ele>9</ele>
        <time>2019-07-15T09:27:25Z</time>
      </trkpt>
      <trkpt lat="47.77574" lon="-3.53845">
        <ele>8</ele>
        <time>2019-07-15T09:27:26Z</time>
      </trkpt>
      <trkpt lat="47.77573" lon="-3.53843">
        <ele>8</ele>
        <time>2019-07-15T09:27:27Z</time>
      </trkpt>
      <trkpt lat="47.77572" lon="-3.53839">
        <ele>8</ele>
        <time>2019-07-15T09:27:28Z</time>
      </trkpt>
      <trkpt lat="47.77571" lon="-3.53835">
        <ele>8</ele>
        <time>2019-07-15T09:27:29Z</time>
      </trkpt>
      <trkpt lat="47.7757" lon="-3.53831">
        <ele>8</ele>
        <time>2019-07-15T09:27:30Z</time>
      </trkpt>
      <trkpt lat="47.7757" lon="-3.53827">
        <ele>8</ele>
        <time>2019-07-15T09:27:31Z</time>
      </trkpt>
      <trkpt lat="47.77569" lon="-3.53823">
        <ele>8</ele>
        <time>2019-07-15T09:27:32Z</time>
      </trkpt>
      <trkpt lat="47.77569" lon="-3.53819">
        <ele>8</ele>
        <time>2019-07-15T09:27:33Z</time>
      </trkpt>
      <trkpt lat="47.77568" lon="-3.53815">
        <ele>8</ele>
        <time>2019-07-15T09:27:34Z</time>
      </trkpt>
      <trkpt lat="47.77567" lon="-3.53811">
        <ele>8</ele>
        <time>2019-07-15T09:27:35Z</time>
      </trkpt>
      <trkpt lat="47.77565" lon="-3.53806">
        <ele>8</ele>
        <time>2019-07-15T09:27:36Z</time>
      </trkpt>
      <trkpt lat="47.77563" lon="-3.53801">
        <ele>8</ele>
        <time>2019-07-15T09:27:37Z</time>
      </trkpt>
      <trkpt lat="47.77562" lon="-3.53795">
        <ele>8</ele>
        <time>2019-07-15T09:27:38Z</time>
      </trkpt>
      <trkpt lat="47.7756" lon="-3.53789">
        <ele>8</ele>
        <time>2019-07-15T09:27:39Z</time>
      </trkpt>
      <trkpt lat="47.77558" lon="-3.53785">
        <ele>8</ele>
        <time>2019-07-15T09:27:40Z</time>
      </trkpt>
      <trkpt lat="47.77557" lon="-3.5378">
        <ele>8</ele>
        <time>2019-07-15T09:27:41Z</time>
      </trkpt>
      <trkpt lat="47.77555" lon="-3.53775">
        <ele>8</ele>
        <time>2019-07-15T09:27:42Z</time>
      </trkpt>
      <trkpt lat="47.77553" lon="-3.53771">
        <ele>8</ele>
        <time>2019-07-15T09:27:43Z</time>
      </trkpt>
      <trkpt lat="47.77552" lon="-3.53767">
        <ele>8</ele>
        <time>2019-07-15T09:27:44Z</time>
      </trkpt>
      <trkpt lat="47.7755" lon="-3.53763">
        <ele>8</ele>
        <time>2019-07-15T09:27:45Z</time>
      </trkpt>
      <trkpt lat="47.77549" lon="-3.53758">
        <ele>8</ele>
        <time>2019-07-15T09:27:46Z</time>
      </trkpt>
      <trkpt lat="47.77548" lon="-3.53753">
        <ele>8</ele>
        <time>2019-07-15T09:27:47Z</time>
      </trkpt>
      <trkpt lat="47.77546" lon="-3.53748">
        <ele>8</ele>
        <time>2019-07-15T09:27:48Z</time>
      </trkpt>
      <trkpt lat="47.77545" lon="-3.53742">
        <ele>8</ele>
        <time>2019-07-15T09:27:49Z</time>
      </trkpt>
      <trkpt lat="47.77543" lon="-3.53737">
        <ele>8</ele>
        <time>2019-07-15T09:27:50Z</time>
      </trkpt>
      <trkpt lat="47.77542" lon="-3.53731">
        <ele>8</ele>
        <time>2019-07-15T09:27:51Z</time>
      </trkpt>
      <trkpt lat="47.77541" lon="-3.53725">
        <ele>8</ele>
        <time>2019-07-15T09:27:52Z</time>
      </trkpt>
      <trkpt lat="47.7754" lon="-3.53718">
        <ele>8</ele>
        <time>2019-07-15T09:27:53Z</time>
      </trkpt>
      <trkpt lat="47.77538" lon="-3.53711">
        <ele>8</ele>
        <time>2019-07-15T09:27:54Z</time>
      </trkpt>
      <trkpt lat="47.77537" lon="-3.53704">
        <ele>8</ele>
        <time>2019-07-15T09:27:55Z</time>
      </trkpt>
      <trkpt lat="47.77536" lon="-3.53697">
        <ele>8</ele>
        <time>2019-07-15T09:27:56Z</time>
      </trkpt>
      <trkpt lat="47.77535" lon="-3.53691">
        <ele>8</ele>
        <time>2019-07-15T09:27:57Z</time>
      </trkpt>
      <trkpt lat="47.77533" lon="-3.53686">
        <ele>8</ele>
        <time>2019-07-15T09:27:58Z</time>
      </trkpt>
      <trkpt lat="47.77532" lon="-3.53678">
        <ele>9</ele>
        <time>2019-07-15T09:27:59Z</time>
      </trkpt>
      <trkpt lat="47.77531" lon="-3.53671">
        <ele>9</ele>
        <time>2019-07-15T09:28:00Z</time>
      </trkpt>
      <trkpt lat="47.77531" lon="-3.53665">
        <ele>9</ele>
        <time>2019-07-15T09:28:01Z</time>
      </trkpt>
      <trkpt lat="47.77531" lon="-3.53659">
        <ele>9</ele>
        <time>2019-07-15T09:28:02Z</time>
      </trkpt>
      <trkpt lat="47.77531" lon="-3.53653">
        <ele>9</ele>
        <time>2019-07-15T09:28:03Z</time>
      </trkpt>
      <trkpt lat="47.77532" lon="-3.53648">
        <ele>9</ele>
        <time>2019-07-15T09:28:04Z</time>
      </trkpt>
      <trkpt lat="47.77533" lon="-3.53643">
        <ele>9</ele>
        <time>2019-07-15T09:28:05Z</time>
      </trkpt>
      <trkpt lat="47.77533" lon="-3.53637">
        <ele>9</ele>
        <time>2019-07-15T09:28:06Z</time>
      </trkpt>
      <trkpt lat="47.77533" lon="-3.53633">
        <ele>9</ele>
        <time>2019-07-15T09:28:07Z</time>
      </trkpt>
      <trkpt lat="47.77533" lon="-3.53626">
        <ele>9</ele>
        <time>2019-07-15T09:28:08Z</time>
      </trkpt>
      <trkpt lat="47.77535" lon="-3.53619">
        <ele>9</ele>
        <time>2019-07-15T09:28:09Z</time>
      </trkpt>
      <trkpt lat="47.77537" lon="-3.53611">
        <ele>9</ele>
        <time>2019-07-15T09:28:10Z</time>
      </trkpt>
      <trkpt lat="47.77539" lon="-3.53605">
        <ele>10</ele>
        <time>2019-07-15T09:28:11Z</time>
      </trkpt>
      <trkpt lat="47.77542" lon="-3.53601">
        <ele>10</ele>
        <time>2019-07-15T09:28:12Z</time>
      </trkpt>
      <trkpt lat="47.77544" lon="-3.53599">
        <ele>10</ele>
        <time>2019-07-15T09:28:13Z</time>
      </trkpt>
      <trkpt lat="47.77547" lon="-3.53597">
        <ele>10</ele>
        <time>2019-07-15T09:28:14Z</time>
      </trkpt>
      <trkpt lat="47.7755" lon="-3.53595">
        <ele>10</ele>
        <time>2019-07-15T09:28:15Z</time>
      </trkpt>
      <trkpt lat="47.77553" lon="-3.53593">
        <ele>10</ele>
        <time>2019-07-15T09:28:16Z</time>
      </trkpt>
      <trkpt lat="47.77558" lon="-3.53588">
        <ele>10</ele>
        <time>2019-07-15T09:28:17Z</time>
      </trkpt>
      <trkpt lat="47.77561" lon="-3.53581">
        <ele>10</ele>
        <time>2019-07-15T09:28:18Z</time>
      </trkpt>
      <trkpt lat="47.77563" lon="-3.53574">
        <ele>10</ele>
        <time>2019-07-15T09:28:19Z</time>
      </trkpt>
      <trkpt lat="47.77564" lon="-3.53567">
        <ele>10</ele>
        <time>2019-07-15T09:28:20Z</time>
      </trkpt>
      <trkpt lat="47.77565" lon="-3.53561">
        <ele>10</ele>
        <time>2019-07-15T09:28:21Z</time>
      </trkpt>
      <trkpt lat="47.77567" lon="-3.53556">
        <ele>10</ele>
        <time>2019-07-15T09:28:22Z</time>
      </trkpt>
      <trkpt lat="47.77569" lon="-3.53551">
        <ele>10</ele>
        <time>2019-07-15T09:28:23Z</time>
      </trkpt>
      <trkpt lat="47.77571" lon="-3.53545">
        <ele>10</ele>
        <time>2019-07-15T09:28:24Z</time>
      </trkpt>
      <trkpt lat="47.77574" lon="-3.53538">
        <ele>10</ele>
        <time>2019-07-15T09:28:25Z</time>
      </trkpt>
      <trkpt lat="47.77576" lon="-3.5353">
        <ele>11</ele>
        <time>2019-07-15T09:28:26Z</time>
      </trkpt>
      <trkpt lat="47.77577" lon="-3.53522">
        <ele>11</ele>
        <time>2019-07-15T09:28:27Z</time>
      </trkpt>
      <trkpt lat="47.77578" lon="-3.53515">
        <ele>11</ele>
        <time>2019-07-15T09:28:28Z</time>
      </trkpt>
      <trkpt lat="47.77579" lon="-3.53507">
        <ele>11</ele>
        <time>2019-07-15T09:28:29Z</time>
      </trkpt>
      <trkpt lat="47.77581" lon="-3.53499">
        <ele>11</ele>
        <time>2019-07-15T09:28:30Z</time>
      </trkpt>
      <trkpt lat="47.77582" lon="-3.53492">
        <ele>11</ele>
        <time>2019-07-15T09:28:31Z</time>
      </trkpt>
      <trkpt lat="47.77583" lon="-3.53484">
        <ele>11</ele>
        <time>2019-07-15T09:28:32Z</time>
      </trkpt>
      <trkpt lat="47.77584" lon="-3.53477">
        <ele>11</ele>
        <time>2019-07-15T09:28:33Z</time>
      </trkpt>
      <trkpt lat="47.77584" lon="-3.5347">
        <ele>11</ele>
        <time>2019-07-15T09:28:34Z</time>
      </trkpt>
      <trkpt lat="47.77583" lon="-3.53463">
        <ele>11</ele>
        <time>2019-07-15T09:28:35Z</time>
      </trkpt>
      <trkpt lat="47.77582" lon="-3.53456">
        <ele>11</ele>
        <time>2019-07-15T09:28:36Z</time>
      </trkpt>
      <trkpt lat="47.77581" lon="-3.5345">
        <ele>11</ele>
        <time>2019-07-15T09:28:37Z</time>
      </trkpt>
      <trkpt lat="47.7758" lon="-3.53444">
        <ele>11</ele>
        <time>2019-07-15T09:28:38Z</time>
      </trkpt>
      <trkpt lat="47.77579" lon="-3.53439">
        <ele>11</ele>
        <time>2019-07-15T09:28:39Z</time>
      </trkpt>
      <trkpt lat="47.77578" lon="-3.53432">
        <ele>11</ele>
        <time>2019-07-15T09:28:40Z</time>
      </trkpt>
      <trkpt lat="47.77577" lon="-3.53425">
        <ele>10</ele>
        <time>2019-07-15T09:28:41Z</time>
      </trkpt>
      <trkpt lat="47.77576" lon="-3.53419">
        <ele>10</ele>
        <time>2019-07-15T09:28:42Z</time>
      </trkpt>
      <trkpt lat="47.77576" lon="-3.53413">
        <ele>10</ele>
        <time>2019-07-15T09:28:43Z</time>
      </trkpt>
      <trkpt lat="47.77577" lon="-3.53405">
        <ele>10</ele>
        <time>2019-07-15T09:28:44Z</time>
      </trkpt>
      <trkpt lat="47.77578" lon="-3.53398">
        <ele>10</ele>
        <time>2019-07-15T09:28:45Z</time>
      </trkpt>
      <trkpt lat="47.77579" lon="-3.53391">
        <ele>10</ele>
        <time>2019-07-15T09:28:46Z</time>
      </trkpt>
      <trkpt lat="47.77579" lon="-3.53382">
        <ele>10</ele>
        <time>2019-07-15T09:28:47Z</time>
      </trkpt>
      <trkpt lat="47.77581" lon="-3.53374">
        <ele>10</ele>
        <time>2019-07-15T09:28:48Z</time>
      </trkpt>
      <trkpt lat="47.77582" lon="-3.53367">
        <ele>9</ele>
        <time>2019-07-15T09:28:49Z</time>
      </trkpt>
      <trkpt lat="47.77584" lon="-3.53358">
        <ele>9</ele>
        <time>2019-07-15T09:28:50Z</time>
      </trkpt>
      <trkpt lat="47.77587" lon="-3.53351">
        <ele>9</ele>
        <time>2019-07-15T09:28:51Z</time>
      </trkpt>
      <trkpt lat="47.77591" lon="-3.53346">
        <ele>9</ele>
        <time>2019-07-15T09:28:52Z</time>
      </trkpt>
      <trkpt lat="47.77596" lon="-3.53343">
        <ele>9</ele>
        <time>2019-07-15T09:28:53Z</time>
      </trkpt>
      <trkpt lat="47.776" lon="-3.53342">
        <ele>9</ele>
        <time>2019-07-15T09:28:54Z</time>
      </trkpt>
      <trkpt lat="47.77604" lon="-3.53343">
        <ele>8</ele>
        <time>2019-07-15T09:28:55Z</time>
      </trkpt>
      <trkpt lat="47.77608" lon="-3.53344">
        <ele>8</ele>
        <time>2019-07-15T09:28:56Z</time>
      </trkpt>
      <trkpt lat="47.77611" lon="-3.53346">
        <ele>8</ele>
        <time>2019-07-15T09:28:57Z</time>
      </trkpt>
      <trkpt lat="47.77614" lon="-3.53348">
        <ele>8</ele>
        <time>2019-07-15T09:28:58Z</time>
      </trkpt>
      <trkpt lat="47.77617" lon="-3.53351">
        <ele>8</ele>
        <time>2019-07-15T09:28:59Z</time>
      </trkpt>
      <trkpt lat="47.77621" lon="-3.53353">
        <ele>8</ele>
        <time>2019-07-15T09:29:00Z</time>
      </trkpt>
      <trkpt lat="47.77624" lon="-3.53355">
        <ele>8</ele>
        <time>2019-07-15T09:29:01Z</time>
      </trkpt>
      <trkpt lat="47.77628" lon="-3.53357">
        <ele>8</ele>
        <time>2019-07-15T09:29:02Z</time>
      </trkpt>
      <trkpt lat="47.77631" lon="-3.53358">
        <ele>8</ele>
        <time>2019-07-15T09:29:03Z</time>
      </trkpt>
      <trkpt lat="47.77635" lon="-3.53359">
        <ele>8</ele>
        <time>2019-07-15T09:29:04Z</time>
      </trkpt>
      <trkpt lat="47.77638" lon="-3.53359">
        <ele>8</ele>
        <time>2019-07-15T09:29:05Z</time>
      </trkpt>
      <trkpt lat="47.77642" lon="-3.5336">
        <ele>8</ele>
        <time>2019-07-15T09:29:06Z</time>
      </trkpt>
      <trkpt lat="47.77647" lon="-3.53361">
        <ele>8</ele>
        <time>2019-07-15T09:29:07Z</time>
      </trkpt>
      <trkpt lat="47.77651" lon="-3.53361">
        <ele>8</ele>
        <time>2019-07-15T09:29:08Z</time>
      </trkpt>
      <trkpt lat="47.77656" lon="-3.53362">
        <ele>8</ele>
        <time>2019-07-15T09:29:09Z</time>
      </trkpt>
      <trkpt lat="47.77661" lon="-3.53364">
        <ele>8</ele>
        <time>2019-07-15T09:29:10Z</time>
      </trkpt>
      <trkpt lat="47.77666" lon="-3.53365">
        <ele>8</ele>
        <time>2019-07-15T09:29:11Z</time>
      </trkpt>
      <trkpt lat="47.7767" lon="-3.53367">
        <ele>8</ele>
        <time>2019-07-15T09:29:12Z</time>
      </trkpt>
      <trkpt lat="47.77675" lon="-3.53368">
        <ele>8</ele>
        <time>2019-07-15T09:29:13Z</time>
      </trkpt>
      <trkpt lat="47.7768" lon="-3.5337">
        <ele>8</ele>
        <time>2019-07-15T09:29:14Z</time>
      </trkpt>
      <trkpt lat="47.77685" lon="-3.5337">
        <ele>8</ele>
        <time>2019-07-15T09:29:15Z</time>
      </trkpt>
      <trkpt lat="47.77689" lon="-3.53369">
        <ele>8</ele>
        <time>2019-07-15T09:29:16Z</time>
      </trkpt>
      <trkpt lat="47.77692" lon="-3.53369">
        <ele>8</ele>
        <time>2019-07-15T09:29:17Z</time>
      </trkpt>
      <trkpt lat="47.77695" lon="-3.53368">
        <ele>8</ele>
        <time>2019-07-15T09:29:18Z</time>
      </trkpt>
      <trkpt lat="47.77698" lon="-3.53368">
        <ele>8</ele>
        <time>2019-07-15T09:29:19Z</time>
      </trkpt>
      <trkpt lat="47.77701" lon="-3.53366">
        <ele>8</ele>
        <time>2019-07-15T09:29:20Z</time>
      </trkpt>
      <trkpt lat="47.77704" lon="-3.53364">
        <ele>8</ele>
        <time>2019-07-15T09:29:21Z</time>
      </trkpt>
      <trkpt lat="47.77708" lon="-3.53362">
        <ele>8</ele>
        <time>2019-07-15T09:29:22Z</time>
      </trkpt>
      <trkpt lat="47.77712" lon="-3.53361">
        <ele>8</ele>
        <time>2019-07-15T09:29:23Z</time>
      </trkpt>
      <trkpt lat="47.77716" lon="-3.53359">
        <ele>8</ele>
        <time>2019-07-15T09:29:24Z</time>
      </trkpt>
      <trkpt lat="47.77719" lon="-3.53358">
        <ele>8</ele>
        <time>2019-07-15T09:29:25Z</time>
      </trkpt>
      <trkpt lat="47.77723" lon="-3.53357">
        <ele>8</ele>
        <time>2019-07-15T09:29:26Z</time>
      </trkpt>
      <trkpt lat="47.77726" lon="-3.53357">
        <ele>8</ele>
        <time>2019-07-15T09:29:27Z</time>
      </trkpt>
      <trkpt lat="47.7773" lon="-3.53356">
        <ele>8</ele>
        <time>2019-07-15T09:29:28Z</time>
      </trkpt>
      <trkpt lat="47.77733" lon="-3.53355">
        <ele>8</ele>
        <time>2019-07-15T09:29:29Z</time>
      </trkpt>
      <trkpt lat="47.77736" lon="-3.53353">
        <ele>8</ele>
        <time>2019-07-15T09:29:30Z</time>
      </trkpt>
      <trkpt lat="47.7774" lon="-3.53352">
        <ele>8</ele>
        <time>2019-07-15T09:29:31Z</time>
      </trkpt>
      <trkpt lat="47.77744" lon="-3.53351">
        <ele>8</ele>
        <time>2019-07-15T09:29:32Z</time>
      </trkpt>
      <trkpt lat="47.77748" lon="-3.53351">
        <ele>8</ele>
        <time>2019-07-15T09:29:33Z</time>
      </trkpt>
      <trkpt lat="47.77753" lon="-3.53352">
        <ele>8</ele>
        <time>2019-07-15T09:29:34Z</time>
      </trkpt>
      <trkpt lat="47.77757" lon="-3.53353">
        <ele>8</ele>
        <time>2019-07-15T09:29:35Z</time>
      </trkpt>
      <trkpt lat="47.77761" lon="-3.53353">
        <ele>8</ele>
        <time>2019-07-15T09:29:36Z</time>
      </trkpt>
      <trkpt lat="47.77765" lon="-3.53353">
        <ele>8</ele>
        <time>2019-07-15T09:29:37Z</time>
      </trkpt>
      <trkpt lat="47.77769" lon="-3.53353">
        <ele>8</ele>
        <time>2019-07-15T09:29:38Z</time>
      </trkpt>
      <trkpt lat="47.77772" lon="-3.53353">
        <ele>8</ele>
        <time>2019-07-15T09:29:39Z</time>
      </trkpt>
      <trkpt lat="47.77774" lon="-3.53353">
        <ele>8</ele>
        <time>2019-07-15T09:29:40Z</time>
      </trkpt>
      <trkpt lat="47.77777" lon="-3.53352">
        <ele>8</ele>
        <time>2019-07-15T09:29:41Z</time>
      </trkpt>
      <trkpt lat="47.7778" lon="-3.53353">
        <ele>8</ele>
        <time>2019-07-15T09:29:42Z</time>
      </trkpt>
      <trkpt lat="47.77782" lon="-3.53353">
        <ele>7</ele>
        <time>2019-07-15T09:29:43Z</time>
      </trkpt>
      <trkpt lat="47.77785" lon="-3.53352">
        <ele>7</ele>
        <time>2019-07-15T09:29:44Z</time>
      </trkpt>
      <trkpt lat="47.77788" lon="-3.53352">
        <ele>8</ele>
        <time>2019-07-15T09:29:45Z</time>
      </trkpt>
      <trkpt lat="47.77791" lon="-3.53352">
        <ele>8</ele>
        <time>2019-07-15T09:29:46Z</time>
      </trkpt>
      <trkpt lat="47.77794" lon="-3.53352">
        <ele>8</ele>
        <time>2019-07-15T09:29:47Z</time>
      </trkpt>
      <trkpt lat="47.77798" lon="-3.53352">
        <ele>8</ele>
        <time>2019-07-15T09:29:48Z</time>
      </trkpt>
      <trkpt lat="47.77801" lon="-3.53352">
        <ele>8</ele>
        <time>2019-07-15T09:29:49Z</time>
      </trkpt>
      <trkpt lat="47.77804" lon="-3.53351">
        <ele>8</ele>
        <time>2019-07-15T09:29:50Z</time>
      </trkpt>
      <trkpt lat="47.77806" lon="-3.53351">
        <ele>8</ele>
        <time>2019-07-15T09:29:51Z</time>
      </trkpt>
      <trkpt lat="47.77808" lon="-3.53351">
        <ele>8</ele>
        <time>2019-07-15T09:29:52Z</time>
      </trkpt>
      <trkpt lat="47.77812" lon="-3.53351">
        <ele>8</ele>
        <time>2019-07-15T09:29:53Z</time>
      </trkpt>
      <trkpt lat="47.77817" lon="-3.5335">
        <ele>8</ele>
        <time>2019-07-15T09:29:54Z</time>
      </trkpt>
      <trkpt lat="47.77822" lon="-3.53349">
        <ele>8</ele>
        <time>2019-07-15T09:29:55Z</time>
      </trkpt>
      <trkpt lat="47.77827" lon="-3.53348">
        <ele>8</ele>
        <time>2019-07-15T09:29:56Z</time>
      </trkpt>
      <trkpt lat="47.77832" lon="-3.53347">
        <ele>8</ele>
        <time>2019-07-15T09:29:57Z</time>
      </trkpt>
      <trkpt lat="47.77837" lon="-3.53346">
        <ele>8</ele>
        <time>2019-07-15T09:29:58Z</time>
      </trkpt>
      <trkpt lat="47.7784" lon="-3.53345">
        <ele>9</ele>
        <time>2019-07-15T09:29:59Z</time>
      </trkpt>
      <trkpt lat="47.77842" lon="-3.53345">
        <ele>9</ele>
        <time>2019-07-15T09:30:00Z</time>
      </trkpt>
      <trkpt lat="47.77845" lon="-3.53345">
        <ele>9</ele>
        <time>2019-07-15T09:30:01Z</time>
      </trkpt>
      <trkpt lat="47.77849" lon="-3.53344">
        <ele>9</ele>
        <time>2019-07-15T09:30:02Z</time>
      </trkpt>
      <trkpt lat="47.77852" lon="-3.53344">
        <ele>9</ele>
        <time>2019-07-15T09:30:03Z</time>
      </trkpt>
      <trkpt lat="47.77855" lon="-3.53343">
        <ele>9</ele>
        <time>2019-07-15T09:30:04Z</time>
      </trkpt>
      <trkpt lat="47.77858" lon="-3.53342">
        <ele>9</ele>
        <time>2019-07-15T09:30:05Z</time>
      </trkpt>
      <trkpt lat="47.77862" lon="-3.5334">
        <ele>9</ele>
        <time>2019-07-15T09:30:06Z</time>
      </trkpt>
      <trkpt lat="47.77867" lon="-3.53337">
        <ele>9</ele>
        <time>2019-07-15T09:30:07Z</time>
      </trkpt>
      <trkpt lat="47.77871" lon="-3.53333">
        <ele>9</ele>
        <time>2019-07-15T09:30:08Z</time>
      </trkpt>
      <trkpt lat="47.77875" lon="-3.53331">
        <ele>9</ele>
        <time>2019-07-15T09:30:09Z</time>
      </trkpt>
      <trkpt lat="47.7788" lon="-3.53329">
        <ele>9</ele>
        <time>2019-07-15T09:30:10Z</time>
      </trkpt>
      <trkpt lat="47.77885" lon="-3.53328">
        <ele>9</ele>
        <time>2019-07-15T09:30:11Z</time>
      </trkpt>
      <trkpt lat="47.77889" lon="-3.53324">
        <ele>9</ele>
        <time>2019-07-15T09:30:12Z</time>
      </trkpt>
      <trkpt lat="47.77894" lon="-3.5332">
        <ele>9</ele>
        <time>2019-07-15T09:30:13Z</time>
      </trkpt>
      <trkpt lat="47.77898" lon="-3.53318">
        <ele>8</ele>
        <time>2019-07-15T09:30:14Z</time>
      </trkpt>
      <trkpt lat="47.77902" lon="-3.53317">
        <ele>8</ele>
        <time>2019-07-15T09:30:15Z</time>
      </trkpt>
      <trkpt lat="47.77907" lon="-3.53315">
        <ele>8</ele>
        <time>2019-07-15T09:30:16Z</time>
      </trkpt>
      <trkpt lat="47.77911" lon="-3.53314">
        <ele>8</ele>
        <time>2019-07-15T09:30:17Z</time>
      </trkpt>
      <trkpt lat="47.77915" lon="-3.53315">
        <ele>8</ele>
        <time>2019-07-15T09:30:18Z</time>
      </trkpt>
      <trkpt lat="47.77917" lon="-3.53316">
        <ele>8</ele>
        <time>2019-07-15T09:30:19Z</time>
      </trkpt>
      <trkpt lat="47.7792" lon="-3.53318">
        <ele>8</ele>
        <time>2019-07-15T09:30:20Z</time>
      </trkpt>
      <trkpt lat="47.77921" lon="-3.53319">
        <ele>8</ele>
        <time>2019-07-15T09:30:21Z</time>
      </trkpt>
      <trkpt lat="47.77923" lon="-3.53321">
        <ele>7</ele>
        <time>2019-07-15T09:30:22Z</time>
      </trkpt>
      <trkpt lat="47.77926" lon="-3.53324">
        <ele>7</ele>
        <time>2019-07-15T09:30:23Z</time>
      </trkpt>
      <trkpt lat="47.77928" lon="-3.53328">
        <ele>7</ele>
        <time>2019-07-15T09:30:24Z</time>
      </trkpt>
      <trkpt lat="47.7793" lon="-3.53331">
        <ele>7</ele>
        <time>2019-07-15T09:30:25Z</time>
      </trkpt>
      <trkpt lat="47.77933" lon="-3.53335">
        <ele>7</ele>
        <time>2019-07-15T09:30:26Z</time>
      </trkpt>
      <trkpt lat="47.77936" lon="-3.5334">
        <ele>7</ele>
        <time>2019-07-15T09:30:27Z</time>
      </trkpt>
      <trkpt lat="47.7794" lon="-3.53345">
        <ele>7</ele>
        <time>2019-07-15T09:30:28Z</time>
      </trkpt>
      <trkpt lat="47.77943" lon="-3.53348">
        <ele>7</ele>
        <time>2019-07-15T09:30:29Z</time>
      </trkpt>
      <trkpt lat="47.77946" lon="-3.53349">
        <ele>7</ele>
        <time>2019-07-15T09:30:30Z</time>
      </trkpt>
      <trkpt lat="47.77947" lon="-3.53348">
        <ele>7</ele>
        <time>2019-07-15T09:30:31Z</time>
      </trkpt>
      <trkpt lat="47.77949" lon="-3.53347">
        <ele>7</ele>
        <time>2019-07-15T09:30:32Z</time>
      </trkpt>
      <trkpt lat="47.77951" lon="-3.53345">
        <ele>7</ele>
        <time>2019-07-15T09:30:33Z</time>
      </trkpt>
      <trkpt lat="47.77954" lon="-3.53343">
        <ele>7</ele>
        <time>2019-07-15T09:30:34Z</time>
      </trkpt>
      <trkpt lat="47.77957" lon="-3.53342">
        <ele>7</ele>
        <time>2019-07-15T09:30:35Z</time>
      </trkpt>
      <trkpt lat="47.7796" lon="-3.53341">
        <ele>7</ele>
        <time>2019-07-15T09:30:36Z</time>
      </trkpt>
      <trkpt lat="47.77963" lon="-3.5334">
        <ele>7</ele>
        <time>2019-07-15T09:30:37Z</time>
      </trkpt>
      <trkpt lat="47.77967" lon="-3.53339">
        <ele>7</ele>
        <time>2019-07-15T09:30:38Z</time>
      </trkpt>
      <trkpt lat="47.7797" lon="-3.53339">
        <ele>7</ele>
        <time>2019-07-15T09:30:39Z</time>
      </trkpt>
      <trkpt lat="47.77973" lon="-3.53339">
        <ele>7</ele>
        <time>2019-07-15T09:30:40Z</time>
      </trkpt>
      <trkpt lat="47.77975" lon="-3.53339">
        <ele>7</ele>
        <time>2019-07-15T09:30:41Z</time>
      </trkpt>
      <trkpt lat="47.77978" lon="-3.53338">
        <ele>7</ele>
        <time>2019-07-15T09:30:42Z</time>
      </trkpt>
      <trkpt lat="47.7798" lon="-3.53336">
        <ele>7</ele>
        <time>2019-07-15T09:30:43Z</time>
      </trkpt>
      <trkpt lat="47.77982" lon="-3.53334">
        <ele>7</ele>
        <time>2019-07-15T09:30:44Z</time>
      </trkpt>
      <trkpt lat="47.77985" lon="-3.5333">
        <ele>7</ele>
        <time>2019-07-15T09:30:45Z</time>
      </trkpt>
      <trkpt lat="47.77988" lon="-3.53326">
        <ele>7</ele>
        <time>2019-07-15T09:30:46Z</time>
      </trkpt>
      <trkpt lat="47.77992" lon="-3.53322">
        <ele>7</ele>
        <time>2019-07-15T09:30:47Z</time>
      </trkpt>
      <trkpt lat="47.77996" lon="-3.53317">
        <ele>7</ele>
        <time>2019-07-15T09:30:48Z</time>
      </trkpt>
      <trkpt lat="47.78001" lon="-3.53314">
        <ele>7</ele>
        <time>2019-07-15T09:30:49Z</time>
      </trkpt>
      <trkpt lat="47.78005" lon="-3.53311">
        <ele>8</ele>
        <time>2019-07-15T09:30:50Z</time>
      </trkpt>
      <trkpt lat="47.78009" lon="-3.53309">
        <ele>8</ele>
        <time>2019-07-15T09:30:51Z</time>
      </trkpt>
      <trkpt lat="47.78013" lon="-3.53307">
        <ele>8</ele>
        <time>2019-07-15T09:30:52Z</time>
      </trkpt>
      <trkpt lat="47.78016" lon="-3.53306">
        <ele>7</ele>
        <time>2019-07-15T09:30:53Z</time>
      </trkpt>
      <trkpt lat="47.7802" lon="-3.53306">
        <ele>7</ele>
        <time>2019-07-15T09:30:54Z</time>
      </trkpt>
      <trkpt lat="47.78023" lon="-3.53305">
        <ele>7</ele>
        <time>2019-07-15T09:30:55Z</time>
      </trkpt>
      <trkpt lat="47.78027" lon="-3.53304">
        <ele>7</ele>
        <time>2019-07-15T09:30:56Z</time>
      </trkpt>
      <trkpt lat="47.78031" lon="-3.53302">
        <ele>7</ele>
        <time>2019-07-15T09:30:57Z</time>
      </trkpt>
      <trkpt lat="47.78035" lon="-3.53299">
        <ele>8</ele>
        <time>2019-07-15T09:30:58Z</time>
      </trkpt>
      <trkpt lat="47.7804" lon="-3.53296">
        <ele>8</ele>
        <time>2019-07-15T09:30:59Z</time>
      </trkpt>
      <trkpt lat="47.78044" lon="-3.53294">
        <ele>8</ele>
        <time>2019-07-15T09:31:00Z</time>
      </trkpt>
      <trkpt lat="47.78049" lon="-3.53292">
        <ele>8</ele>
        <time>2019-07-15T09:31:01Z</time>
      </trkpt>
      <trkpt lat="47.78054" lon="-3.53291">
        <ele>8</ele>
        <time>2019-07-15T09:31:02Z</time>
      </trkpt>
      <trkpt lat="47.78058" lon="-3.5329">
        <ele>8</ele>
        <time>2019-07-15T09:31:03Z</time>
      </trkpt>
      <trkpt lat="47.78062" lon="-3.53289">
        <ele>8</ele>
        <time>2019-07-15T09:31:04Z</time>
      </trkpt>
      <trkpt lat="47.78066" lon="-3.5329">
        <ele>8</ele>
        <time>2019-07-15T09:31:05Z</time>
      </trkpt>
      <trkpt lat="47.7807" lon="-3.5329">
        <ele>8</ele>
        <time>2019-07-15T09:31:06Z</time>
      </trkpt>
      <trkpt lat="47.78073" lon="-3.53289">
        <ele>8</ele>
        <time>2019-07-15T09:31:07Z</time>
      </trkpt>
      <trkpt lat="47.78078" lon="-3.53288">
        <ele>8</ele>
        <time>2019-07-15T09:31:08Z</time>
      </trkpt>
      <trkpt lat="47.78082" lon="-3.53286">
        <ele>8</ele>
        <time>2019-07-15T09:31:09Z</time>
      </trkpt>
      <trkpt lat="47.78085" lon="-3.53284">
        <ele>8</ele>
        <time>2019-07-15T09:31:10Z</time>
      </trkpt>
      <trkpt lat="47.78089" lon="-3.53283">
        <ele>8</ele>
        <time>2019-07-15T09:31:11Z</time>
      </trkpt>
      <trkpt lat="47.78093" lon="-3.53282">
        <ele>8</ele>
        <time>2019-07-15T09:31:12Z</time>
      </trkpt>
      <trkpt lat="47.78098" lon="-3.53281">
        <ele>8</ele>
        <time>2019-07-15T09:31:13Z</time>
      </trkpt>
      <trkpt lat="47.78102" lon="-3.53279">
        <ele>7</ele>
        <time>2019-07-15T09:31:14Z</time>
      </trkpt>
      <trkpt lat="47.78105" lon="-3.53277">
        <ele>7</ele>
        <time>2019-07-15T09:31:15Z</time>
      </trkpt>
      <trkpt lat="47.78108" lon="-3.53276">
        <ele>7</ele>
        <time>2019-07-15T09:31:16Z</time>
      </trkpt>
      <trkpt lat="47.78112" lon="-3.53274">
        <ele>7</ele>
        <time>2019-07-15T09:31:17Z</time>
      </trkpt>
      <trkpt lat="47.78114" lon="-3.53273">
        <ele>7</ele>
        <time>2019-07-15T09:31:18Z</time>
      </trkpt>
      <trkpt lat="47.78117" lon="-3.53271">
        <ele>7</ele>
        <time>2019-07-15T09:31:19Z</time>
      </trkpt>
      <trkpt lat="47.78121" lon="-3.53267">
        <ele>7</ele>
        <time>2019-07-15T09:31:20Z</time>
      </trkpt>
      <trkpt lat="47.78125" lon="-3.53263">
        <ele>7</ele>
        <time>2019-07-15T09:31:21Z</time>
      </trkpt>
      <trkpt lat="47.7813" lon="-3.5326">
        <ele>7</ele>
        <time>2019-07-15T09:31:22Z</time>
      </trkpt>
      <trkpt lat="47.78135" lon="-3.53257">
        <ele>7</ele>
        <time>2019-07-15T09:31:23Z</time>
      </trkpt>
      <trkpt lat="47.7814" lon="-3.53256">
        <ele>7</ele>
        <time>2019-07-15T09:31:24Z</time>
      </trkpt>
      <trkpt lat="47.78145" lon="-3.53255">
        <ele>7</ele>
        <time>2019-07-15T09:31:25Z</time>
      </trkpt>
      <trkpt lat="47.78148" lon="-3.53256">
        <ele>7</ele>
        <time>2019-07-15T09:31:26Z</time>
      </trkpt>
      <trkpt lat="47.78152" lon="-3.53255">
        <ele>7</ele>
        <time>2019-07-15T09:31:27Z</time>
      </trkpt>
      <trkpt lat="47.78155" lon="-3.53254">
        <ele>7</ele>
        <time>2019-07-15T09:31:28Z</time>
      </trkpt>
      <trkpt lat="47.78159" lon="-3.53253">
        <ele>7</ele>
        <time>2019-07-15T09:31:29Z</time>
      </trkpt>
      <trkpt lat="47.78163" lon="-3.53252">
        <ele>7</ele>
        <time>2019-07-15T09:31:30Z</time>
      </trkpt>
      <trkpt lat="47.78168" lon="-3.53252">
        <ele>7</ele>
        <time>2019-07-15T09:31:31Z</time>
      </trkpt>
      <trkpt lat="47.78172" lon="-3.53253">
        <ele>7</ele>
        <time>2019-07-15T09:31:32Z</time>
      </trkpt>
      <trkpt lat="47.78176" lon="-3.53253">
        <ele>7</ele>
        <time>2019-07-15T09:31:33Z</time>
      </trkpt>
      <trkpt lat="47.7818" lon="-3.53254">
        <ele>7</ele>
        <time>2019-07-15T09:31:34Z</time>
      </trkpt>
      <trkpt lat="47.78184" lon="-3.53255">
        <ele>7</ele>
        <time>2019-07-15T09:31:35Z</time>
      </trkpt>
      <trkpt lat="47.78188" lon="-3.53256">
        <ele>7</ele>
        <time>2019-07-15T09:31:36Z</time>
      </trkpt>
      <trkpt lat="47.78191" lon="-3.53256">
        <ele>7</ele>
        <time>2019-07-15T09:31:37Z</time>
      </trkpt>
      <trkpt lat="47.78195" lon="-3.53255">
        <ele>7</ele>
        <time>2019-07-15T09:31:38Z</time>
      </trkpt>
      <trkpt lat="47.782" lon="-3.53253">
        <ele>7</ele>
        <time>2019-07-15T09:31:39Z</time>
      </trkpt>
      <trkpt lat="47.78203" lon="-3.53251">
        <ele>7</ele>
        <time>2019-07-15T09:31:40Z</time>
      </trkpt>
      <trkpt lat="47.78207" lon="-3.53249">
        <ele>7</ele>
        <time>2019-07-15T09:31:41Z</time>
      </trkpt>
      <trkpt lat="47.78211" lon="-3.53247">
        <ele>7</ele>
        <time>2019-07-15T09:31:42Z</time>
      </trkpt>
      <trkpt lat="47.78214" lon="-3.53245">
        <ele>7</ele>
        <time>2019-07-15T09:31:43Z</time>
      </trkpt>
      <trkpt lat="47.78218" lon="-3.53242">
        <ele>7</ele>
        <time>2019-07-15T09:31:44Z</time>
      </trkpt>
      <trkpt lat="47.78222" lon="-3.5324">
        <ele>7</ele>
        <time>2019-07-15T09:31:45Z</time>
      </trkpt>
      <trkpt lat="47.78225" lon="-3.53239">
        <ele>7</ele>
        <time>2019-07-15T09:31:46Z</time>
      </trkpt>
      <trkpt lat="47.78229" lon="-3.53237">
        <ele>7</ele>
        <time>2019-07-15T09:31:47Z</time>
      </trkpt>
      <trkpt lat="47.78234" lon="-3.53236">
        <ele>7</ele>
        <time>2019-07-15T09:31:48Z</time>
      </trkpt>
      <trkpt lat="47.78238" lon="-3.53235">
        <ele>7</ele>
        <time>2019-07-15T09:31:49Z</time>
      </trkpt>
      <trkpt lat="47.78242" lon="-3.53234">
        <ele>7</ele>
        <time>2019-07-15T09:31:50Z</time>
      </trkpt>
      <trkpt lat="47.78245" lon="-3.53231">
        <ele>7</ele>
        <time>2019-07-15T09:31:51Z</time>
      </trkpt>
      <trkpt lat="47.7825" lon="-3.5323">
        <ele>7</ele>
        <time>2019-07-15T09:31:52Z</time>
      </trkpt>
      <trkpt lat="47.78254" lon="-3.5323">
        <ele>7</ele>
        <time>2019-07-15T09:31:53Z</time>
      </trkpt>
      <trkpt lat="47.78259" lon="-3.53231">
        <ele>7</ele>
        <time>2019-07-15T09:31:54Z</time>
      </trkpt>
      <trkpt lat="47.78264" lon="-3.53231">
        <ele>7</ele>
        <time>2019-07-15T09:31:55Z</time>
      </trkpt>
      <trkpt lat="47.78269" lon="-3.5323">
        <ele>7</ele>
        <time>2019-07-15T09:31:56Z</time>
      </trkpt>
      <trkpt lat="47.78275" lon="-3.5323">
        <ele>7</ele>
        <time>2019-07-15T09:31:57Z</time>
      </trkpt>
      <trkpt lat="47.7828" lon="-3.53231">
        <ele>7</ele>
        <time>2019-07-15T09:31:58Z</time>
      </trkpt>
      <trkpt lat="47.78285" lon="-3.53231">
        <ele>7</ele>
        <time>2019-07-15T09:31:59Z</time>
      </trkpt>
      <trkpt lat="47.7829" lon="-3.53231">
        <ele>7</ele>
        <time>2019-07-15T09:32:00Z</time>
      </trkpt>
      <trkpt lat="47.78295" lon="-3.53232">
        <ele>7</ele>
        <time>2019-07-15T09:32:01Z</time>
      </trkpt>
      <trkpt lat="47.783" lon="-3.53235">
        <ele>7</ele>
        <time>2019-07-15T09:32:02Z</time>
      </trkpt>
      <trkpt lat="47.78304" lon="-3.53237">
        <ele>7</ele>
        <time>2019-07-15T09:32:03Z</time>
      </trkpt>
      <trkpt lat="47.78308" lon="-3.53238">
        <ele>7</ele>
        <time>2019-07-15T09:32:04Z</time>
      </trkpt>
      <trkpt lat="47.78311" lon="-3.53239">
        <ele>7</ele>
        <time>2019-07-15T09:32:05Z</time>
      </trkpt>
      <trkpt lat="47.78313" lon="-3.53238">
        <ele>6</ele>
        <time>2019-07-15T09:32:06Z</time>
      </trkpt>
      <trkpt lat="47.78314" lon="-3.53238">
        <ele>6</ele>
        <time>2019-07-15T09:32:07Z</time>
      </trkpt>
      <trkpt lat="47.78316" lon="-3.53239">
        <ele>6</ele>
        <time>2019-07-15T09:32:08Z</time>
      </trkpt>
      <trkpt lat="47.78317" lon="-3.53239">
        <ele>6</ele>
        <time>2019-07-15T09:32:09Z</time>
      </trkpt>
      <trkpt lat="47.78319" lon="-3.5324">
        <ele>6</ele>
        <time>2019-07-15T09:32:10Z</time>
      </trkpt>
      <trkpt lat="47.78321" lon="-3.53241">
        <ele>6</ele>
        <time>2019-07-15T09:32:11Z</time>
      </trkpt>
      <trkpt lat="47.78323" lon="-3.53241">
        <ele>5</ele>
        <time>2019-07-15T09:32:12Z</time>
      </trkpt>
      <trkpt lat="47.78326" lon="-3.53241">
        <ele>5</ele>
        <time>2019-07-15T09:32:13Z</time>
      </trkpt>
      <trkpt lat="47.78329" lon="-3.5324">
        <ele>5</ele>
        <time>2019-07-15T09:32:14Z</time>
      </trkpt>
      <trkpt lat="47.7833" lon="-3.5324">
        <ele>5</ele>
        <time>2019-07-15T09:32:15Z</time>
      </trkpt>
      <trkpt lat="47.78332" lon="-3.53239">
        <ele>5</ele>
        <time>2019-07-15T09:32:16Z</time>
      </trkpt>
      <trkpt lat="47.78334" lon="-3.53238">
        <ele>5</ele>
        <time>2019-07-15T09:32:17Z</time>
      </trkpt>
      <trkpt lat="47.78335" lon="-3.53237">
        <ele>5</ele>
        <time>2019-07-15T09:32:18Z</time>
      </trkpt>
      <trkpt lat="47.78337" lon="-3.53236">
        <ele>4</ele>
        <time>2019-07-15T09:32:19Z</time>
      </trkpt>
      <trkpt lat="47.78337" lon="-3.53236">
        <ele>4</ele>
        <time>2019-07-15T09:32:20Z</time>
      </trkpt>
      <trkpt lat="47.78338" lon="-3.53236">
        <ele>4</ele>
        <time>2019-07-15T09:32:21Z</time>
      </trkpt>
      <trkpt lat="47.78339" lon="-3.53235">
        <ele>4</ele>
        <time>2019-07-15T09:32:22Z</time>
      </trkpt>
      <trkpt lat="47.78339" lon="-3.53234">
        <ele>4</ele>
        <time>2019-07-15T09:32:23Z</time>
      </trkpt>
      <trkpt lat="47.7834" lon="-3.53233">
        <ele>4</ele>
        <time>2019-07-15T09:32:24Z</time>
      </trkpt>
      <trkpt lat="47.7834" lon="-3.53233">
        <ele>4</ele>
        <time>2019-07-15T09:32:25Z</time>
      </trkpt>
      <trkpt lat="47.78348" lon="-3.53226">
        <ele>4</ele>
        <time>2019-07-15T09:32:26Z</time>
      </trkpt>
      <trkpt lat="47.78349" lon="-3.53225">
        <ele>4</ele>
        <time>2019-07-15T09:32:27Z</time>
      </trkpt>
      <trkpt lat="47.78352" lon="-3.53218">
        <ele>4</ele>
        <time>2019-07-15T09:32:28Z</time>
      </trkpt>
      <trkpt lat="47.78353" lon="-3.53217">
        <ele>5</ele>
        <time>2019-07-15T09:32:29Z</time>
      </trkpt>
      <trkpt lat="47.78353" lon="-3.53216">
        <ele>5</ele>
        <time>2019-07-15T09:32:30Z</time>
      </trkpt>
      <trkpt lat="47.78353" lon="-3.53214">
        <ele>5</ele>
        <time>2019-07-15T09:32:31Z</time>
      </trkpt>
      <trkpt lat="47.78354" lon="-3.53213">
        <ele>5</ele>
        <time>2019-07-15T09:32:32Z</time>
      </trkpt>
      <trkpt lat="47.78354" lon="-3.53211">
        <ele>5</ele>
        <time>2019-07-15T09:32:33Z</time>
      </trkpt>
      <trkpt lat="47.78354" lon="-3.53209">
        <ele>6</ele>
        <time>2019-07-15T09:32:34Z</time>
      </trkpt>
      <trkpt lat="47.78354" lon="-3.53207">
        <ele>6</ele>
        <time>2019-07-15T09:32:35Z</time>
      </trkpt>
      <trkpt lat="47.78355" lon="-3.53205">
        <ele>6</ele>
        <time>2019-07-15T09:32:36Z</time>
      </trkpt>
      <trkpt lat="47.78355" lon="-3.53203">
        <ele>6</ele>
        <time>2019-07-15T09:32:37Z</time>
      </trkpt>
      <trkpt lat="47.78355" lon="-3.53201">
        <ele>6</ele>
        <time>2019-07-15T09:32:38Z</time>
      </trkpt>
      <trkpt lat="47.78355" lon="-3.532">
        <ele>6</ele>
        <time>2019-07-15T09:32:39Z</time>
      </trkpt>
      <trkpt lat="47.78356" lon="-3.53197">
        <ele>6</ele>
        <time>2019-07-15T09:32:40Z</time>
      </trkpt>
      <trkpt lat="47.78356" lon="-3.53195">
        <ele>6</ele>
        <time>2019-07-15T09:32:41Z</time>
      </trkpt>
      <trkpt lat="47.78356" lon="-3.53194">
        <ele>6</ele>
        <time>2019-07-15T09:32:42Z</time>
      </trkpt>
      <trkpt lat="47.78357" lon="-3.53191">
        <ele>7</ele>
        <time>2019-07-15T09:32:43Z</time>
      </trkpt>
      <trkpt lat="47.78357" lon="-3.5319">
        <ele>7</ele>
        <time>2019-07-15T09:32:44Z</time>
      </trkpt>
      <trkpt lat="47.78357" lon="-3.53188">
        <ele>7</ele>
        <time>2019-07-15T09:32:45Z</time>
      </trkpt>
      <trkpt lat="47.78358" lon="-3.53187">
        <ele>7</ele>
        <time>2019-07-15T09:32:46Z</time>
      </trkpt>
      <trkpt lat="47.78358" lon="-3.53187">
        <ele>7</ele>
        <time>2019-07-15T09:32:47Z</time>
      </trkpt>
      <trkpt lat="47.78358" lon="-3.53187">
        <ele>7</ele>
        <time>2019-07-15T09:32:48Z</time>
      </trkpt>
      <trkpt lat="47.7836" lon="-3.53182">
        <ele>7</ele>
        <time>2019-07-15T09:32:49Z</time>
      </trkpt>
      <trkpt lat="47.78361" lon="-3.53179">
        <ele>7</ele>
        <time>2019-07-15T09:32:50Z</time>
      </trkpt>
      <trkpt lat="47.78362" lon="-3.53175">
        <ele>7</ele>
        <time>2019-07-15T09:32:51Z</time>
      </trkpt>
      <trkpt lat="47.78364" lon="-3.53171">
        <ele>7</ele>
        <time>2019-07-15T09:32:52Z</time>
      </trkpt>
      <trkpt lat="47.78366" lon="-3.53168">
        <ele>7</ele>
        <time>2019-07-15T09:32:53Z</time>
      </trkpt>
      <trkpt lat="47.78369" lon="-3.53165">
        <ele>7</ele>
        <time>2019-07-15T09:32:54Z</time>
      </trkpt>
      <trkpt lat="47.78372" lon="-3.53162">
        <ele>7</ele>
        <time>2019-07-15T09:32:55Z</time>
      </trkpt>
      <trkpt lat="47.78375" lon="-3.5316">
        <ele>6</ele>
        <time>2019-07-15T09:32:56Z</time>
      </trkpt>
      <trkpt lat="47.78377" lon="-3.53158">
        <ele>6</ele>
        <time>2019-07-15T09:32:57Z</time>
      </trkpt>
      <trkpt lat="47.78379" lon="-3.53156">
        <ele>6</ele>
        <time>2019-07-15T09:32:58Z</time>
      </trkpt>
      <trkpt lat="47.78381" lon="-3.53155">
        <ele>6</ele>
        <time>2019-07-15T09:32:59Z</time>
      </trkpt>
      <trkpt lat="47.78383" lon="-3.53154">
        <ele>6</ele>
        <time>2019-07-15T09:33:00Z</time>
      </trkpt>
      <trkpt lat="47.78386" lon="-3.53152">
        <ele>6</ele>
        <time>2019-07-15T09:33:01Z</time>
      </trkpt>
      <trkpt lat="47.78388" lon="-3.5315">
        <ele>6</ele>
        <time>2019-07-15T09:33:02Z</time>
      </trkpt>
      <trkpt lat="47.7839" lon="-3.53149">
        <ele>6</ele>
        <time>2019-07-15T09:33:03Z</time>
      </trkpt>
      <trkpt lat="47.78393" lon="-3.53148">
        <ele>6</ele>
        <time>2019-07-15T09:33:04Z</time>
      </trkpt>
      <trkpt lat="47.78395" lon="-3.53146">
        <ele>6</ele>
        <time>2019-07-15T09:33:05Z</time>
      </trkpt>
      <trkpt lat="47.78396" lon="-3.53145">
        <ele>6</ele>
        <time>2019-07-15T09:33:06Z</time>
      </trkpt>
      <trkpt lat="47.78399" lon="-3.53144">
        <ele>6</ele>
        <time>2019-07-15T09:33:07Z</time>
      </trkpt>
      <trkpt lat="47.78401" lon="-3.53142">
        <ele>6</ele>
        <time>2019-07-15T09:33:08Z</time>
      </trkpt>
      <trkpt lat="47.78404" lon="-3.53141">
        <ele>6</ele>
        <time>2019-07-15T09:33:09Z</time>
      </trkpt>
      <trkpt lat="47.78406" lon="-3.53139">
        <ele>6</ele>
        <time>2019-07-15T09:33:10Z</time>
      </trkpt>
      <trkpt lat="47.78409" lon="-3.53138">
        <ele>6</ele>
        <time>2019-07-15T09:33:11Z</time>
      </trkpt>
      <trkpt lat="47.7841" lon="-3.53137">
        <ele>6</ele>
        <time>2019-07-15T09:33:12Z</time>
      </trkpt>
      <trkpt lat="47.78413" lon="-3.53134">
        <ele>6</ele>
        <time>2019-07-15T09:33:13Z</time>
      </trkpt>
      <trkpt lat="47.78416" lon="-3.53131">
        <ele>6</ele>
        <time>2019-07-15T09:33:14Z</time>
      </trkpt>
      <trkpt lat="47.78418" lon="-3.53127">
        <ele>7</ele>
        <time>2019-07-15T09:33:15Z</time>
      </trkpt>
      <trkpt lat="47.78422" lon="-3.53122">
        <ele>7</ele>
        <time>2019-07-15T09:33:16Z</time>
      </trkpt>
      <trkpt lat="47.78425" lon="-3.53117">
        <ele>7</ele>
        <time>2019-07-15T09:33:17Z</time>
      </trkpt>
      <trkpt lat="47.78428" lon="-3.53111">
        <ele>7</ele>
        <time>2019-07-15T09:33:18Z</time>
      </trkpt>
      <trkpt lat="47.7843" lon="-3.53106">
        <ele>7</ele>
        <time>2019-07-15T09:33:19Z</time>
      </trkpt>
      <trkpt lat="47.78433" lon="-3.531">
        <ele>7</ele>
        <time>2019-07-15T09:33:20Z</time>
      </trkpt>
      <trkpt lat="47.78435" lon="-3.53095">
        <ele>7</ele>
        <time>2019-07-15T09:33:21Z</time>
      </trkpt>
      <trkpt lat="47.78439" lon="-3.53091">
        <ele>7</ele>
        <time>2019-07-15T09:33:22Z</time>
      </trkpt>
      <trkpt lat="47.78441" lon="-3.53087">
        <ele>7</ele>
        <time>2019-07-15T09:33:23Z</time>
      </trkpt>
      <trkpt lat="47.78444" lon="-3.53082">
        <ele>7</ele>
        <time>2019-07-15T09:33:24Z</time>
      </trkpt>
      <trkpt lat="47.78446" lon="-3.53077">
        <ele>7</ele>
        <time>2019-07-15T09:33:25Z</time>
      </trkpt>
      <trkpt lat="47.78447" lon="-3.53074">
        <ele>7</ele>
        <time>2019-07-15T09:33:26Z</time>
      </trkpt>
      <trkpt lat="47.78449" lon="-3.53071">
        <ele>8</ele>
        <time>2019-07-15T09:33:27Z</time>
      </trkpt>
      <trkpt lat="47.7845" lon="-3.53069">
        <ele>8</ele>
        <time>2019-07-15T09:33:28Z</time>
      </trkpt>
      <trkpt lat="47.78452" lon="-3.53067">
        <ele>7</ele>
        <time>2019-07-15T09:33:29Z</time>
      </trkpt>
      <trkpt lat="47.78453" lon="-3.53065">
        <ele>7</ele>
        <time>2019-07-15T09:33:30Z</time>
      </trkpt>
      <trkpt lat="47.78454" lon="-3.53063">
        <ele>7</ele>
        <time>2019-07-15T09:33:31Z</time>
      </trkpt>
      <trkpt lat="47.78455" lon="-3.5306">
        <ele>7</ele>
        <time>2019-07-15T09:33:32Z</time>
      </trkpt>
      <trkpt lat="47.78455" lon="-3.53058">
        <ele>7</ele>
        <time>2019-07-15T09:33:33Z</time>
      </trkpt>
      <trkpt lat="47.78456" lon="-3.53055">
        <ele>7</ele>
        <time>2019-07-15T09:33:34Z</time>
      </trkpt>
      <trkpt lat="47.78458" lon="-3.53051">
        <ele>7</ele>
        <time>2019-07-15T09:33:35Z</time>
      </trkpt>
      <trkpt lat="47.78459" lon="-3.53049">
        <ele>7</ele>
        <time>2019-07-15T09:33:36Z</time>
      </trkpt>
      <trkpt lat="47.7846" lon="-3.53046">
        <ele>7</ele>
        <time>2019-07-15T09:33:37Z</time>
      </trkpt>
      <trkpt lat="47.78462" lon="-3.53043">
        <ele>7</ele>
        <time>2019-07-15T09:33:38Z</time>
      </trkpt>
      <trkpt lat="47.78464" lon="-3.53041">
        <ele>7</ele>
        <time>2019-07-15T09:33:39Z</time>
      </trkpt>
      <trkpt lat="47.78465" lon="-3.53038">
        <ele>7</ele>
        <time>2019-07-15T09:33:40Z</time>
      </trkpt>
      <trkpt lat="47.78467" lon="-3.53035">
        <ele>7</ele>
        <time>2019-07-15T09:33:41Z</time>
      </trkpt>
      <trkpt lat="47.78469" lon="-3.53033">
        <ele>7</ele>
        <time>2019-07-15T09:33:42Z</time>
      </trkpt>
      <trkpt lat="47.78471" lon="-3.5303">
        <ele>7</ele>
        <time>2019-07-15T09:33:43Z</time>
      </trkpt>
      <trkpt lat="47.78472" lon="-3.53028">
        <ele>7</ele>
        <time>2019-07-15T09:33:44Z</time>
      </trkpt>
      <trkpt lat="47.78475" lon="-3.53026">
        <ele>7</ele>
        <time>2019-07-15T09:33:45Z</time>
      </trkpt>
      <trkpt lat="47.78476" lon="-3.53023">
        <ele>7</ele>
        <time>2019-07-15T09:33:46Z</time>
      </trkpt>
      <trkpt lat="47.78478" lon="-3.53021">
        <ele>7</ele>
        <time>2019-07-15T09:33:47Z</time>
      </trkpt>
      <trkpt lat="47.7848" lon="-3.53017">
        <ele>6</ele>
        <time>2019-07-15T09:33:48Z</time>
      </trkpt>
      <trkpt lat="47.78483" lon="-3.53013">
        <ele>7</ele>
        <time>2019-07-15T09:33:49Z</time>
      </trkpt>
      <trkpt lat="47.78485" lon="-3.53009">
        <ele>7</ele>
        <time>2019-07-15T09:33:50Z</time>
      </trkpt>
      <trkpt lat="47.78487" lon="-3.53005">
        <ele>7</ele>
        <time>2019-07-15T09:33:51Z</time>
      </trkpt>
      <trkpt lat="47.78489" lon="-3.53002">
        <ele>7</ele>
        <time>2019-07-15T09:33:52Z</time>
      </trkpt>
      <trkpt lat="47.78492" lon="-3.52999">
        <ele>7</ele>
        <time>2019-07-15T09:33:53Z</time>
      </trkpt>
      <trkpt lat="47.78494" lon="-3.52996">
        <ele>7</ele>
        <time>2019-07-15T09:33:54Z</time>
      </trkpt>
      <trkpt lat="47.78496" lon="-3.52993">
        <ele>7</ele>
        <time>2019-07-15T09:33:55Z</time>
      </trkpt>
      <trkpt lat="47.78498" lon="-3.5299">
        <ele>7</ele>
        <time>2019-07-15T09:33:56Z</time>
      </trkpt>
      <trkpt lat="47.785" lon="-3.52986">
        <ele>7</ele>
        <time>2019-07-15T09:33:57Z</time>
      </trkpt>
      <trkpt lat="47.78502" lon="-3.52983">
        <ele>7</ele>
        <time>2019-07-15T09:33:58Z</time>
      </trkpt>
      <trkpt lat="47.78505" lon="-3.52979">
        <ele>7</ele>
        <time>2019-07-15T09:33:59Z</time>
      </trkpt>
      <trkpt lat="47.78508" lon="-3.52976">
        <ele>7</ele>
        <time>2019-07-15T09:34:00Z</time>
      </trkpt>
      <trkpt lat="47.78511" lon="-3.52973">
        <ele>7</ele>
        <time>2019-07-15T09:34:01Z</time>
      </trkpt>
      <trkpt lat="47.78513" lon="-3.5297">
        <ele>7</ele>
        <time>2019-07-15T09:34:02Z</time>
      </trkpt>
      <trkpt lat="47.78516" lon="-3.52967">
        <ele>8</ele>
        <time>2019-07-15T09:34:03Z</time>
      </trkpt>
      <trkpt lat="47.78518" lon="-3.52963">
        <ele>8</ele>
        <time>2019-07-15T09:34:04Z</time>
      </trkpt>
      <trkpt lat="47.7852" lon="-3.5296">
        <ele>8</ele>
        <time>2019-07-15T09:34:05Z</time>
      </trkpt>
      <trkpt lat="47.78524" lon="-3.52955">
        <ele>8</ele>
        <time>2019-07-15T09:34:06Z</time>
      </trkpt>
      <trkpt lat="47.78528" lon="-3.52948">
        <ele>8</ele>
        <time>2019-07-15T09:34:07Z</time>
      </trkpt>
      <trkpt lat="47.78532" lon="-3.52941">
        <ele>8</ele>
        <time>2019-07-15T09:34:08Z</time>
      </trkpt>
      <trkpt lat="47.78535" lon="-3.52933">
        <ele>9</ele>
        <time>2019-07-15T09:34:09Z</time>
      </trkpt>
      <trkpt lat="47.78537" lon="-3.52926">
        <ele>9</ele>
        <time>2019-07-15T09:34:10Z</time>
      </trkpt>
      <trkpt lat="47.78539" lon="-3.52919">
        <ele>9</ele>
        <time>2019-07-15T09:34:11Z</time>
      </trkpt>
      <trkpt lat="47.78542" lon="-3.52914">
        <ele>9</ele>
        <time>2019-07-15T09:34:12Z</time>
      </trkpt>
      <trkpt lat="47.78545" lon="-3.5291">
        <ele>9</ele>
        <time>2019-07-15T09:34:13Z</time>
      </trkpt>
      <trkpt lat="47.78548" lon="-3.52905">
        <ele>9</ele>
        <time>2019-07-15T09:34:14Z</time>
      </trkpt>
      <trkpt lat="47.78551" lon="-3.52899">
        <ele>9</ele>
        <time>2019-07-15T09:34:15Z</time>
      </trkpt>
      <trkpt lat="47.78554" lon="-3.52894">
        <ele>10</ele>
        <time>2019-07-15T09:34:16Z</time>
      </trkpt>
      <trkpt lat="47.78557" lon="-3.5289">
        <ele>10</ele>
        <time>2019-07-15T09:34:17Z</time>
      </trkpt>
      <trkpt lat="47.7856" lon="-3.52886">
        <ele>10</ele>
        <time>2019-07-15T09:34:18Z</time>
      </trkpt>
      <trkpt lat="47.78563" lon="-3.52884">
        <ele>10</ele>
        <time>2019-07-15T09:34:19Z</time>
      </trkpt>
      <trkpt lat="47.78565" lon="-3.52882">
        <ele>10</ele>
        <time>2019-07-15T09:34:20Z</time>
      </trkpt>
      <trkpt lat="47.78567" lon="-3.52878">
        <ele>10</ele>
        <time>2019-07-15T09:34:21Z</time>
      </trkpt>
      <trkpt lat="47.78569" lon="-3.52875">
        <ele>10</ele>
        <time>2019-07-15T09:34:22Z</time>
      </trkpt>
      <trkpt lat="47.78573" lon="-3.52872">
        <ele>10</ele>
        <time>2019-07-15T09:34:23Z</time>
      </trkpt>
      <trkpt lat="47.78576" lon="-3.52869">
        <ele>10</ele>
        <time>2019-07-15T09:34:24Z</time>
      </trkpt>
      <trkpt lat="47.78579" lon="-3.52865">
        <ele>10</ele>
        <time>2019-07-15T09:34:25Z</time>
      </trkpt>
      <trkpt lat="47.78582" lon="-3.5286">
        <ele>10</ele>
        <time>2019-07-15T09:34:26Z</time>
      </trkpt>
      <trkpt lat="47.78587" lon="-3.52855">
        <ele>10</ele>
        <time>2019-07-15T09:34:27Z</time>
      </trkpt>
      <trkpt lat="47.78592" lon="-3.52851">
        <ele>10</ele>
        <time>2019-07-15T09:34:28Z</time>
      </trkpt>
      <trkpt lat="47.78598" lon="-3.52848">
        <ele>10</ele>
        <time>2019-07-15T09:34:29Z</time>
      </trkpt>
      <trkpt lat="47.78604" lon="-3.52846">
        <ele>10</ele>
        <time>2019-07-15T09:34:30Z</time>
      </trkpt>
      <trkpt lat="47.78609" lon="-3.52845">
        <ele>9</ele>
        <time>2019-07-15T09:34:31Z</time>
      </trkpt>
      <trkpt lat="47.78612" lon="-3.52843">
        <ele>9</ele>
        <time>2019-07-15T09:34:32Z</time>
      </trkpt>
      <trkpt lat="47.78616" lon="-3.52843">
        <ele>9</ele>
        <time>2019-07-15T09:34:33Z</time>
      </trkpt>
      <trkpt lat="47.78619" lon="-3.52842">
        <ele>9</ele>
        <time>2019-07-15T09:34:34Z</time>
      </trkpt>
      <trkpt lat="47.78622" lon="-3.52841">
        <ele>9</ele>
        <time>2019-07-15T09:34:35Z</time>
      </trkpt>
      <trkpt lat="47.78625" lon="-3.52841">
        <ele>9</ele>
        <time>2019-07-15T09:34:36Z</time>
      </trkpt>
      <trkpt lat="47.78629" lon="-3.5284">
        <ele>9</ele>
        <time>2019-07-15T09:34:37Z</time>
      </trkpt>
      <trkpt lat="47.78632" lon="-3.5284">
        <ele>9</ele>
        <time>2019-07-15T09:34:38Z</time>
      </trkpt>
      <trkpt lat="47.78634" lon="-3.5284">
        <ele>9</ele>
        <time>2019-07-15T09:34:39Z</time>
      </trkpt>
      <trkpt lat="47.78638" lon="-3.52839">
        <ele>9</ele>
        <time>2019-07-15T09:34:40Z</time>
      </trkpt>
      <trkpt lat="47.78641" lon="-3.52839">
        <ele>9</ele>
        <time>2019-07-15T09:34:41Z</time>
      </trkpt>
      <trkpt lat="47.78644" lon="-3.52838">
        <ele>9</ele>
        <time>2019-07-15T09:34:42Z</time>
      </trkpt>
      <trkpt lat="47.78648" lon="-3.52839">
        <ele>9</ele>
        <time>2019-07-15T09:34:43Z</time>
      </trkpt>
      <trkpt lat="47.78651" lon="-3.52839">
        <ele>9</ele>
        <time>2019-07-15T09:34:44Z</time>
      </trkpt>
      <trkpt lat="47.78654" lon="-3.5284">
        <ele>9</ele>
        <time>2019-07-15T09:34:45Z</time>
      </trkpt>
      <trkpt lat="47.78658" lon="-3.5284">
        <ele>9</ele>
        <time>2019-07-15T09:34:46Z</time>
      </trkpt>
      <trkpt lat="47.78661" lon="-3.52841">
        <ele>9</ele>
        <time>2019-07-15T09:34:47Z</time>
      </trkpt>
      <trkpt lat="47.78664" lon="-3.52842">
        <ele>9</ele>
        <time>2019-07-15T09:34:48Z</time>
      </trkpt>
      <trkpt lat="47.78668" lon="-3.52842">
        <ele>9</ele>
        <time>2019-07-15T09:34:49Z</time>
      </trkpt>
      <trkpt lat="47.78671" lon="-3.52843">
        <ele>9</ele>
        <time>2019-07-15T09:34:50Z</time>
      </trkpt>
      <trkpt lat="47.78674" lon="-3.52844">
        <ele>9</ele>
        <time>2019-07-15T09:34:51Z</time>
      </trkpt>
      <trkpt lat="47.78677" lon="-3.52845">
        <ele>9</ele>
        <time>2019-07-15T09:34:52Z</time>
      </trkpt>
      <trkpt lat="47.7868" lon="-3.52846">
        <ele>9</ele>
        <time>2019-07-15T09:34:53Z</time>
      </trkpt>
      <trkpt lat="47.78683" lon="-3.52847">
        <ele>9</ele>
        <time>2019-07-15T09:34:54Z</time>
      </trkpt>
      <trkpt lat="47.78686" lon="-3.52849">
        <ele>9</ele>
        <time>2019-07-15T09:34:55Z</time>
      </trkpt>
      <trkpt lat="47.78689" lon="-3.52852">
        <ele>8</ele>
        <time>2019-07-15T09:34:56Z</time>
      </trkpt>
      <trkpt lat="47.78691" lon="-3.52855">
        <ele>8</ele>
        <time>2019-07-15T09:34:57Z</time>
      </trkpt>
      <trkpt lat="47.78694" lon="-3.52859">
        <ele>8</ele>
        <time>2019-07-15T09:34:58Z</time>
      </trkpt>
      <trkpt lat="47.78698" lon="-3.52862">
        <ele>8</ele>
        <time>2019-07-15T09:34:59Z</time>
      </trkpt>
      <trkpt lat="47.78703" lon="-3.52866">
        <ele>8</ele>
        <time>2019-07-15T09:35:00Z</time>
      </trkpt>
      <trkpt lat="47.78708" lon="-3.52871">
        <ele>8</ele>
        <time>2019-07-15T09:35:01Z</time>
      </trkpt>
      <trkpt lat="47.78713" lon="-3.52878">
        <ele>8</ele>
        <time>2019-07-15T09:35:02Z</time>
      </trkpt>
      <trkpt lat="47.78717" lon="-3.52885">
        <ele>8</ele>
        <time>2019-07-15T09:35:03Z</time>
      </trkpt>
      <trkpt lat="47.78721" lon="-3.5289">
        <ele>8</ele>
        <time>2019-07-15T09:35:04Z</time>
      </trkpt>
      <trkpt lat="47.78724" lon="-3.52896">
        <ele>8</ele>
        <time>2019-07-15T09:35:05Z</time>
      </trkpt>
      <trkpt lat="47.78727" lon="-3.52901">
        <ele>8</ele>
        <time>2019-07-15T09:35:06Z</time>
      </trkpt>
      <trkpt lat="47.7873" lon="-3.52907">
        <ele>8</ele>
        <time>2019-07-15T09:35:07Z</time>
      </trkpt>
      <trkpt lat="47.78733" lon="-3.52914">
        <ele>8</ele>
        <time>2019-07-15T09:35:08Z</time>
      </trkpt>
      <trkpt lat="47.78737" lon="-3.52919">
        <ele>8</ele>
        <time>2019-07-15T09:35:09Z</time>
      </trkpt>
      <trkpt lat="47.78739" lon="-3.52925">
        <ele>8</ele>
        <time>2019-07-15T09:35:10Z</time>
      </trkpt>
      <trkpt lat="47.78742" lon="-3.5293">
        <ele>8</ele>
        <time>2019-07-15T09:35:11Z</time>
      </trkpt>
      <trkpt lat="47.78745" lon="-3.52936">
        <ele>8</ele>
        <time>2019-07-15T09:35:12Z</time>
      </trkpt>
      <trkpt lat="47.78748" lon="-3.5294">
        <ele>8</ele>
        <time>2019-07-15T09:35:13Z</time>
      </trkpt>
      <trkpt lat="47.78752" lon="-3.52944">
        <ele>8</ele>
        <time>2019-07-15T09:35:14Z</time>
      </trkpt>
      <trkpt lat="47.78756" lon="-3.52947">
        <ele>8</ele>
        <time>2019-07-15T09:35:15Z</time>
      </trkpt>
      <trkpt lat="47.78759" lon="-3.5295">
        <ele>8</ele>
        <time>2019-07-15T09:35:16Z</time>
      </trkpt>
      <trkpt lat="47.78762" lon="-3.52953">
        <ele>8</ele>
        <time>2019-07-15T09:35:17Z</time>
      </trkpt>
      <trkpt lat="47.78767" lon="-3.52956">
        <ele>7</ele>
        <time>2019-07-15T09:35:18Z</time>
      </trkpt>
      <trkpt lat="47.78772" lon="-3.52959">
        <ele>7</ele>
        <time>2019-07-15T09:35:19Z</time>
      </trkpt>
      <trkpt lat="47.78778" lon="-3.52962">
        <ele>7</ele>
        <time>2019-07-15T09:35:20Z</time>
      </trkpt>
      <trkpt lat="47.78784" lon="-3.52964">
        <ele>7</ele>
        <time>2019-07-15T09:35:21Z</time>
      </trkpt>
      <trkpt lat="47.7879" lon="-3.52965">
        <ele>6</ele>
        <time>2019-07-15T09:35:22Z</time>
      </trkpt>
      <trkpt lat="47.78795" lon="-3.52967">
        <ele>6</ele>
        <time>2019-07-15T09:35:23Z</time>
      </trkpt>
      <trkpt lat="47.78798" lon="-3.52969">
        <ele>6</ele>
        <time>2019-07-15T09:35:24Z</time>
      </trkpt>
      <trkpt lat="47.78801" lon="-3.5297">
        <ele>6</ele>
        <time>2019-07-15T09:35:25Z</time>
      </trkpt>
      <trkpt lat="47.78803" lon="-3.52972">
        <ele>6</ele>
        <time>2019-07-15T09:35:26Z</time>
      </trkpt>
      <trkpt lat="47.78806" lon="-3.52973">
        <ele>6</ele>
        <time>2019-07-15T09:35:27Z</time>
      </trkpt>
      <trkpt lat="47.78808" lon="-3.52974">
        <ele>6</ele>
        <time>2019-07-15T09:35:28Z</time>
      </trkpt>
      <trkpt lat="47.78809" lon="-3.52975">
        <ele>5</ele>
        <time>2019-07-15T09:35:29Z</time>
      </trkpt>
      <trkpt lat="47.78811" lon="-3.52977">
        <ele>5</ele>
        <time>2019-07-15T09:35:30Z</time>
      </trkpt>
      <trkpt lat="47.78813" lon="-3.52977">
        <ele>5</ele>
        <time>2019-07-15T09:35:31Z</time>
      </trkpt>
      <trkpt lat="47.78814" lon="-3.52979">
        <ele>5</ele>
        <time>2019-07-15T09:35:32Z</time>
      </trkpt>
      <trkpt lat="47.78816" lon="-3.5298">
        <ele>5</ele>
        <time>2019-07-15T09:35:33Z</time>
      </trkpt>
      <trkpt lat="47.78817" lon="-3.52982">
        <ele>5</ele>
        <time>2019-07-15T09:35:34Z</time>
      </trkpt>
      <trkpt lat="47.78819" lon="-3.52984">
        <ele>5</ele>
        <time>2019-07-15T09:35:35Z</time>
      </trkpt>
      <trkpt lat="47.7882" lon="-3.52986">
        <ele>5</ele>
        <time>2019-07-15T09:35:36Z</time>
      </trkpt>
      <trkpt lat="47.78821" lon="-3.52988">
        <ele>5</ele>
        <time>2019-07-15T09:35:37Z</time>
      </trkpt>
      <trkpt lat="47.78822" lon="-3.5299">
        <ele>5</ele>
        <time>2019-07-15T09:35:38Z</time>
      </trkpt>
      <trkpt lat="47.78823" lon="-3.52992">
        <ele>5</ele>
        <time>2019-07-15T09:35:39Z</time>
      </trkpt>
      <trkpt lat="47.78824" lon="-3.52994">
        <ele>5</ele>
        <time>2019-07-15T09:35:40Z</time>
      </trkpt>
      <trkpt lat="47.78826" lon="-3.52996">
        <ele>5</ele>
        <time>2019-07-15T09:35:41Z</time>
      </trkpt>
      <trkpt lat="47.78827" lon="-3.52997">
        <ele>5</ele>
        <time>2019-07-15T09:35:42Z</time>
      </trkpt>
      <trkpt lat="47.78828" lon="-3.53">
        <ele>5</ele>
        <time>2019-07-15T09:35:43Z</time>
      </trkpt>
      <trkpt lat="47.7883" lon="-3.53001">
        <ele>5</ele>
        <time>2019-07-15T09:35:44Z</time>
      </trkpt>
      <trkpt lat="47.78832" lon="-3.53003">
        <ele>6</ele>
        <time>2019-07-15T09:35:45Z</time>
      </trkpt>
      <trkpt lat="47.78833" lon="-3.53006">
        <ele>6</ele>
        <time>2019-07-15T09:35:46Z</time>
      </trkpt>
      <trkpt lat="47.78834" lon="-3.53008">
        <ele>6</ele>
        <time>2019-07-15T09:35:47Z</time>
      </trkpt>
      <trkpt lat="47.78835" lon="-3.53011">
        <ele>6</ele>
        <time>2019-07-15T09:35:48Z</time>
      </trkpt>
      <trkpt lat="47.78836" lon="-3.53013">
        <ele>7</ele>
        <time>2019-07-15T09:35:49Z</time>
      </trkpt>
      <trkpt lat="47.78837" lon="-3.53016">
        <ele>7</ele>
        <time>2019-07-15T09:35:50Z</time>
      </trkpt>
      <trkpt lat="47.78838" lon="-3.53019">
        <ele>7</ele>
        <time>2019-07-15T09:35:51Z</time>
      </trkpt>
      <trkpt lat="47.78839" lon="-3.53021">
        <ele>7</ele>
        <time>2019-07-15T09:35:52Z</time>
      </trkpt>
      <trkpt lat="47.7884" lon="-3.53024">
        <ele>8</ele>
        <time>2019-07-15T09:35:53Z</time>
      </trkpt>
      <trkpt lat="47.78841" lon="-3.53026">
        <ele>8</ele>
        <time>2019-07-15T09:35:54Z</time>
      </trkpt>
      <trkpt lat="47.78842" lon="-3.5303">
        <ele>8</ele>
        <time>2019-07-15T09:35:55Z</time>
      </trkpt>
      <trkpt lat="47.78842" lon="-3.53033">
        <ele>9</ele>
        <time>2019-07-15T09:35:56Z</time>
      </trkpt>
      <trkpt lat="47.78843" lon="-3.53036">
        <ele>9</ele>
        <time>2019-07-15T09:35:57Z</time>
      </trkpt>
      <trkpt lat="47.78844" lon="-3.5304">
        <ele>9</ele>
        <time>2019-07-15T09:35:58Z</time>
      </trkpt>
      <trkpt lat="47.78844" lon="-3.53043">
        <ele>9</ele>
        <time>2019-07-15T09:35:59Z</time>
      </trkpt>
      <trkpt lat="47.78845" lon="-3.53046">
        <ele>10</ele>
        <time>2019-07-15T09:36:00Z</time>
      </trkpt>
      <trkpt lat="47.78846" lon="-3.53049">
        <ele>10</ele>
        <time>2019-07-15T09:36:01Z</time>
      </trkpt>
      <trkpt lat="47.78847" lon="-3.53053">
        <ele>10</ele>
        <time>2019-07-15T09:36:02Z</time>
      </trkpt>
      <trkpt lat="47.78848" lon="-3.53056">
        <ele>10</ele>
        <time>2019-07-15T09:36:03Z</time>
      </trkpt>
      <trkpt lat="47.78849" lon="-3.53059">
        <ele>10</ele>
        <time>2019-07-15T09:36:04Z</time>
      </trkpt>
      <trkpt lat="47.7885" lon="-3.53061">
        <ele>11</ele>
        <time>2019-07-15T09:36:05Z</time>
      </trkpt>
      <trkpt lat="47.78852" lon="-3.53064">
        <ele>11</ele>
        <time>2019-07-15T09:36:06Z</time>
      </trkpt>
      <trkpt lat="47.78853" lon="-3.53067">
        <ele>11</ele>
        <time>2019-07-15T09:36:07Z</time>
      </trkpt>
      <trkpt lat="47.78855" lon="-3.53069">
        <ele>11</ele>
        <time>2019-07-15T09:36:08Z</time>
      </trkpt>
      <trkpt lat="47.78856" lon="-3.53071">
        <ele>11</ele>
        <time>2019-07-15T09:36:09Z</time>
      </trkpt>
      <trkpt lat="47.78857" lon="-3.53073">
        <ele>11</ele>
        <time>2019-07-15T09:36:10Z</time>
      </trkpt>
      <trkpt lat="47.78858" lon="-3.53075">
        <ele>11</ele>
        <time>2019-07-15T09:36:11Z</time>
      </trkpt>
      <trkpt lat="47.78859" lon="-3.53076">
        <ele>12</ele>
        <time>2019-07-15T09:36:12Z</time>
      </trkpt>
      <trkpt lat="47.78861" lon="-3.53079">
        <ele>12</ele>
        <time>2019-07-15T09:36:13Z</time>
      </trkpt>
      <trkpt lat="47.78862" lon="-3.53081">
        <ele>12</ele>
        <time>2019-07-15T09:36:14Z</time>
      </trkpt>
      <trkpt lat="47.78863" lon="-3.53083">
        <ele>12</ele>
        <time>2019-07-15T09:36:15Z</time>
      </trkpt>
      <trkpt lat="47.78865" lon="-3.53086">
        <ele>12</ele>
        <time>2019-07-15T09:36:16Z</time>
      </trkpt>
      <trkpt lat="47.78867" lon="-3.53088">
        <ele>12</ele>
        <time>2019-07-15T09:36:17Z</time>
      </trkpt>
      <trkpt lat="47.78869" lon="-3.5309">
        <ele>13</ele>
        <time>2019-07-15T09:36:18Z</time>
      </trkpt>
      <trkpt lat="47.78871" lon="-3.53093">
        <ele>13</ele>
        <time>2019-07-15T09:36:19Z</time>
      </trkpt>
      <trkpt lat="47.78872" lon="-3.53095">
        <ele>13</ele>
        <time>2019-07-15T09:36:20Z</time>
      </trkpt>
      <trkpt lat="47.78875" lon="-3.53097">
        <ele>13</ele>
        <time>2019-07-15T09:36:21Z</time>
      </trkpt>
      <trkpt lat="47.78877" lon="-3.53099">
        <ele>14</ele>
        <time>2019-07-15T09:36:22Z</time>
      </trkpt>
      <trkpt lat="47.7888" lon="-3.531">
        <ele>14</ele>
        <time>2019-07-15T09:36:23Z</time>
      </trkpt>
      <trkpt lat="47.78883" lon="-3.53102">
        <ele>14</ele>
        <time>2019-07-15T09:36:24Z</time>
      </trkpt>
      <trkpt lat="47.78888" lon="-3.53104">
        <ele>14</ele>
        <time>2019-07-15T09:36:25Z</time>
      </trkpt>
      <trkpt lat="47.78894" lon="-3.53106">
        <ele>14</ele>
        <time>2019-07-15T09:36:26Z</time>
      </trkpt>
      <trkpt lat="47.78901" lon="-3.53108">
        <ele>15</ele>
        <time>2019-07-15T09:36:27Z</time>
      </trkpt>
      <trkpt lat="47.78908" lon="-3.53111">
        <ele>15</ele>
        <time>2019-07-15T09:36:28Z</time>
      </trkpt>
      <trkpt lat="47.78913" lon="-3.53113">
        <ele>15</ele>
        <time>2019-07-15T09:36:29Z</time>
      </trkpt>
      <trkpt lat="47.78918" lon="-3.53116">
        <ele>15</ele>
        <time>2019-07-15T09:36:30Z</time>
      </trkpt>
      <trkpt lat="47.78923" lon="-3.53118">
        <ele>15</ele>
        <time>2019-07-15T09:36:31Z</time>
      </trkpt>
      <trkpt lat="47.78928" lon="-3.5312">
        <ele>15</ele>
        <time>2019-07-15T09:36:32Z</time>
      </trkpt>
      <trkpt lat="47.78934" lon="-3.53121">
        <ele>15</ele>
        <time>2019-07-15T09:36:33Z</time>
      </trkpt>
      <trkpt lat="47.78939" lon="-3.53122">
        <ele>14</ele>
        <time>2019-07-15T09:36:34Z</time>
      </trkpt>
      <trkpt lat="47.78943" lon="-3.53124">
        <ele>14</ele>
        <time>2019-07-15T09:36:35Z</time>
      </trkpt>
      <trkpt lat="47.78948" lon="-3.53126">
        <ele>14</ele>
        <time>2019-07-15T09:36:36Z</time>
      </trkpt>
      <trkpt lat="47.78953" lon="-3.53131">
        <ele>14</ele>
        <time>2019-07-15T09:36:37Z</time>
      </trkpt>
      <trkpt lat="47.78957" lon="-3.53135">
        <ele>14</ele>
        <time>2019-07-15T09:36:38Z</time>
      </trkpt>
      <trkpt lat="47.7896" lon="-3.53139">
        <ele>14</ele>
        <time>2019-07-15T09:36:39Z</time>
      </trkpt>
      <trkpt lat="47.78963" lon="-3.53142">
        <ele>14</ele>
        <time>2019-07-15T09:36:40Z</time>
      </trkpt>
      <trkpt lat="47.78966" lon="-3.53146">
        <ele>14</ele>
        <time>2019-07-15T09:36:41Z</time>
      </trkpt>
      <trkpt lat="47.78968" lon="-3.53149">
        <ele>13</ele>
        <time>2019-07-15T09:36:42Z</time>
      </trkpt>
      <trkpt lat="47.78972" lon="-3.53151">
        <ele>13</ele>
        <time>2019-07-15T09:36:43Z</time>
      </trkpt>
      <trkpt lat="47.78977" lon="-3.53155">
        <ele>13</ele>
        <time>2019-07-15T09:36:44Z</time>
      </trkpt>
      <trkpt lat="47.78982" lon="-3.53158">
        <ele>12</ele>
        <time>2019-07-15T09:36:45Z</time>
      </trkpt>
      <trkpt lat="47.78988" lon="-3.53161">
        <ele>12</ele>
        <time>2019-07-15T09:36:46Z</time>
      </trkpt>
      <trkpt lat="47.78995" lon="-3.53164">
        <ele>11</ele>
        <time>2019-07-15T09:36:47Z</time>
      </trkpt>
      <trkpt lat="47.79001" lon="-3.53167">
        <ele>11</ele>
        <time>2019-07-15T09:36:48Z</time>
      </trkpt>
      <trkpt lat="47.79006" lon="-3.5317">
        <ele>10</ele>
        <time>2019-07-15T09:36:49Z</time>
      </trkpt>
      <trkpt lat="47.79012" lon="-3.53174">
        <ele>10</ele>
        <time>2019-07-15T09:36:50Z</time>
      </trkpt>
      <trkpt lat="47.79017" lon="-3.53178">
        <ele>10</ele>
        <time>2019-07-15T09:36:51Z</time>
      </trkpt>
      <trkpt lat="47.79022" lon="-3.53182">
        <ele>9</ele>
        <time>2019-07-15T09:36:52Z</time>
      </trkpt>
      <trkpt lat="47.79027" lon="-3.53186">
        <ele>9</ele>
        <time>2019-07-15T09:36:53Z</time>
      </trkpt>
      <trkpt lat="47.79031" lon="-3.5319">
        <ele>8</ele>
        <time>2019-07-15T09:36:54Z</time>
      </trkpt>
      <trkpt lat="47.79036" lon="-3.53192">
        <ele>8</ele>
        <time>2019-07-15T09:36:55Z</time>
      </trkpt>
      <trkpt lat="47.79041" lon="-3.53193">
        <ele>7</ele>
        <time>2019-07-15T09:36:56Z</time>
      </trkpt>
      <trkpt lat="47.79047" lon="-3.53191">
        <ele>7</ele>
        <time>2019-07-15T09:36:57Z</time>
      </trkpt>
      <trkpt lat="47.79052" lon="-3.53189">
        <ele>7</ele>
        <time>2019-07-15T09:36:58Z</time>
      </trkpt>
      <trkpt lat="47.79057" lon="-3.53187">
        <ele>6</ele>
        <time>2019-07-15T09:36:59Z</time>
      </trkpt>
      <trkpt lat="47.79062" lon="-3.53184">
        <ele>6</ele>
        <time>2019-07-15T09:37:00Z</time>
      </trkpt>
      <trkpt lat="47.79068" lon="-3.53182">
        <ele>5</ele>
        <time>2019-07-15T09:37:01Z</time>
      </trkpt>
      <trkpt lat="47.79072" lon="-3.5318">
        <ele>5</ele>
        <time>2019-07-15T09:37:02Z</time>
      </trkpt>
      <trkpt lat="47.79077" lon="-3.53178">
        <ele>5</ele>
        <time>2019-07-15T09:37:03Z</time>
      </trkpt>
      <trkpt lat="47.79082" lon="-3.53176">
        <ele>5</ele>
        <time>2019-07-15T09:37:04Z</time>
      </trkpt>
      <trkpt lat="47.79086" lon="-3.53174">
        <ele>4</ele>
        <time>2019-07-15T09:37:05Z</time>
      </trkpt>
      <trkpt lat="47.7909" lon="-3.53172">
        <ele>4</ele>
        <time>2019-07-15T09:37:06Z</time>
      </trkpt>
      <trkpt lat="47.79094" lon="-3.5317">
        <ele>4</ele>
        <time>2019-07-15T09:37:07Z</time>
      </trkpt>
      <trkpt lat="47.79098" lon="-3.53168">
        <ele>4</ele>
        <time>2019-07-15T09:37:08Z</time>
      </trkpt>
      <trkpt lat="47.79102" lon="-3.53166">
        <ele>4</ele>
        <time>2019-07-15T09:37:09Z</time>
      </trkpt>
      <trkpt lat="47.79105" lon="-3.53164">
        <ele>3</ele>
        <time>2019-07-15T09:37:10Z</time>
      </trkpt>
      <trkpt lat="47.79109" lon="-3.53162">
        <ele>3</ele>
        <time>2019-07-15T09:37:11Z</time>
      </trkpt>
      <trkpt lat="47.79113" lon="-3.5316">
        <ele>3</ele>
        <time>2019-07-15T09:37:12Z</time>
      </trkpt>
      <trkpt lat="47.79118" lon="-3.53158">
        <ele>3</ele>
        <time>2019-07-15T09:37:13Z</time>
      </trkpt>
      <trkpt lat="47.79122" lon="-3.53156">
        <ele>3</ele>
        <time>2019-07-15T09:37:14Z</time>
      </trkpt>
      <trkpt lat="47.79126" lon="-3.53154">
        <ele>3</ele>
        <time>2019-07-15T09:37:15Z</time>
      </trkpt>
      <trkpt lat="47.79129" lon="-3.53152">
        <ele>3</ele>
        <time>2019-07-15T09:37:16Z</time>
      </trkpt>
      <trkpt lat="47.79133" lon="-3.5315">
        <ele>3</ele>
        <time>2019-07-15T09:37:17Z</time>
      </trkpt>
      <trkpt lat="47.79136" lon="-3.53148">
        <ele>3</ele>
        <time>2019-07-15T09:37:18Z</time>
      </trkpt>
      <trkpt lat="47.79138" lon="-3.53147">
        <ele>3</ele>
        <time>2019-07-15T09:37:19Z</time>
      </trkpt>
      <trkpt lat="47.7914" lon="-3.53146">
        <ele>3</ele>
        <time>2019-07-15T09:37:20Z</time>
      </trkpt>
      <trkpt lat="47.79141" lon="-3.53145">
        <ele>3</ele>
        <time>2019-07-15T09:37:21Z</time>
      </trkpt>
      <trkpt lat="47.79142" lon="-3.53142">
        <ele>3</ele>
        <time>2019-07-15T09:37:22Z</time>
      </trkpt>
      <trkpt lat="47.79143" lon="-3.5314">
        <ele>3</ele>
        <time>2019-07-15T09:37:23Z</time>
      </trkpt>
      <trkpt lat="47.79144" lon="-3.53138">
        <ele>3</ele>
        <time>2019-07-15T09:37:24Z</time>
      </trkpt>
      <trkpt lat="47.79144" lon="-3.53137">
        <ele>3</ele>
        <time>2019-07-15T09:37:25Z</time>
      </trkpt>
      <trkpt lat="47.79144" lon="-3.53137">
        <ele>3</ele>
        <time>2019-07-15T09:37:26Z</time>
      </trkpt>
      <trkpt lat="47.79146" lon="-3.53128">
        <ele>2</ele>
        <time>2019-07-15T09:37:27Z</time>
      </trkpt>
      <trkpt lat="47.79146" lon="-3.53126">
        <ele>2</ele>
        <time>2019-07-15T09:37:28Z</time>
      </trkpt>
      <trkpt lat="47.79146" lon="-3.53124">
        <ele>2</ele>
        <time>2019-07-15T09:37:29Z</time>
      </trkpt>
      <trkpt lat="47.79145" lon="-3.53121">
        <ele>2</ele>
        <time>2019-07-15T09:37:30Z</time>
      </trkpt>
      <trkpt lat="47.79144" lon="-3.53118">
        <ele>2</ele>
        <time>2019-07-15T09:37:31Z</time>
      </trkpt>
      <trkpt lat="47.79144" lon="-3.53114">
        <ele>2</ele>
        <time>2019-07-15T09:37:32Z</time>
      </trkpt>
      <trkpt lat="47.79143" lon="-3.53111">
        <ele>2</ele>
        <time>2019-07-15T09:37:33Z</time>
      </trkpt>
      <trkpt lat="47.79142" lon="-3.53107">
        <ele>2</ele>
        <time>2019-07-15T09:37:34Z</time>
      </trkpt>
      <trkpt lat="47.79141" lon="-3.53103">
        <ele>2</ele>
        <time>2019-07-15T09:37:35Z</time>
      </trkpt>
      <trkpt lat="47.79141" lon="-3.53098">
        <ele>2</ele>
        <time>2019-07-15T09:37:36Z</time>
      </trkpt>
      <trkpt lat="47.7914" lon="-3.53094">
        <ele>2</ele>
        <time>2019-07-15T09:37:37Z</time>
      </trkpt>
      <trkpt lat="47.79138" lon="-3.53089">
        <ele>2</ele>
        <time>2019-07-15T09:37:38Z</time>
      </trkpt>
      <trkpt lat="47.79137" lon="-3.53083">
        <ele>2</ele>
        <time>2019-07-15T09:37:39Z</time>
      </trkpt>
      <trkpt lat="47.79137" lon="-3.53079">
        <ele>2</ele>
        <time>2019-07-15T09:37:40Z</time>
      </trkpt>
      <trkpt lat="47.79136" lon="-3.53074">
        <ele>2</ele>
        <time>2019-07-15T09:37:41Z</time>
      </trkpt>
      <trkpt lat="47.79137" lon="-3.53069">
        <ele>2</ele>
        <time>2019-07-15T09:37:42Z</time>
      </trkpt>
      <trkpt lat="47.79137" lon="-3.53063">
        <ele>2</ele>
        <time>2019-07-15T09:37:43Z</time>
      </trkpt>
      <trkpt lat="47.79138" lon="-3.53058">
        <ele>3</ele>
        <time>2019-07-15T09:37:44Z</time>
      </trkpt>
      <trkpt lat="47.79139" lon="-3.53055">
        <ele>3</ele>
        <time>2019-07-15T09:37:45Z</time>
      </trkpt>
      <trkpt lat="47.79141" lon="-3.53051">
        <ele>3</ele>
        <time>2019-07-15T09:37:46Z</time>
      </trkpt>
      <trkpt lat="47.79142" lon="-3.53048">
        <ele>3</ele>
        <time>2019-07-15T09:37:47Z</time>
      </trkpt>
      <trkpt lat="47.79145" lon="-3.53045">
        <ele>3</ele>
        <time>2019-07-15T09:37:48Z</time>
      </trkpt>
      <trkpt lat="47.79148" lon="-3.53042">
        <ele>3</ele>
        <time>2019-07-15T09:37:49Z</time>
      </trkpt>
      <trkpt lat="47.7915" lon="-3.5304">
        <ele>3</ele>
        <time>2019-07-15T09:37:50Z</time>
      </trkpt>
      <trkpt lat="47.79153" lon="-3.53039">
        <ele>4</ele>
        <time>2019-07-15T09:37:51Z</time>
      </trkpt>
      <trkpt lat="47.79156" lon="-3.53037">
        <ele>4</ele>
        <time>2019-07-15T09:37:52Z</time>
      </trkpt>
      <trkpt lat="47.79159" lon="-3.53036">
        <ele>4</ele>
        <time>2019-07-15T09:37:53Z</time>
      </trkpt>
      <trkpt lat="47.79163" lon="-3.53035">
        <ele>4</ele>
        <time>2019-07-15T09:37:54Z</time>
      </trkpt>
      <trkpt lat="47.79167" lon="-3.53033">
        <ele>4</ele>
        <time>2019-07-15T09:37:55Z</time>
      </trkpt>
      <trkpt lat="47.7917" lon="-3.53032">
        <ele>4</ele>
        <time>2019-07-15T09:37:56Z</time>
      </trkpt>
      <trkpt lat="47.79174" lon="-3.5303">
        <ele>4</ele>
        <time>2019-07-15T09:37:57Z</time>
      </trkpt>
      <trkpt lat="47.79177" lon="-3.53029">
        <ele>4</ele>
        <time>2019-07-15T09:37:58Z</time>
      </trkpt>
      <trkpt lat="47.79179" lon="-3.53027">
        <ele>4</ele>
        <time>2019-07-15T09:37:59Z</time>
      </trkpt>
      <trkpt lat="47.79183" lon="-3.53023">
        <ele>4</ele>
        <time>2019-07-15T09:38:00Z</time>
      </trkpt>
      <trkpt lat="47.79186" lon="-3.53017">
        <ele>4</ele>
        <time>2019-07-15T09:38:01Z</time>
      </trkpt>
      <trkpt lat="47.79188" lon="-3.5301">
        <ele>4</ele>
        <time>2019-07-15T09:38:02Z</time>
      </trkpt>
      <trkpt lat="47.7919" lon="-3.53003">
        <ele>5</ele>
        <time>2019-07-15T09:38:03Z</time>
      </trkpt>
      <trkpt lat="47.79192" lon="-3.52997">
        <ele>5</ele>
        <time>2019-07-15T09:38:04Z</time>
      </trkpt>
      <trkpt lat="47.79193" lon="-3.5299">
        <ele>5</ele>
        <time>2019-07-15T09:38:05Z</time>
      </trkpt>
      <trkpt lat="47.79194" lon="-3.52985">
        <ele>4</ele>
        <time>2019-07-15T09:38:06Z</time>
      </trkpt>
      <trkpt lat="47.79194" lon="-3.52979">
        <ele>4</ele>
        <time>2019-07-15T09:38:07Z</time>
      </trkpt>
      <trkpt lat="47.79195" lon="-3.52974">
        <ele>4</ele>
        <time>2019-07-15T09:38:08Z</time>
      </trkpt>
      <trkpt lat="47.79196" lon="-3.52968">
        <ele>4</ele>
        <time>2019-07-15T09:38:09Z</time>
      </trkpt>
      <trkpt lat="47.79197" lon="-3.52961">
        <ele>4</ele>
        <time>2019-07-15T09:38:10Z</time>
      </trkpt>
      <trkpt lat="47.79199" lon="-3.52954">
        <ele>4</ele>
        <time>2019-07-15T09:38:11Z</time>
      </trkpt>
      <trkpt lat="47.792" lon="-3.52948">
        <ele>4</ele>
        <time>2019-07-15T09:38:12Z</time>
      </trkpt>
      <trkpt lat="47.79203" lon="-3.52942">
        <ele>4</ele>
        <time>2019-07-15T09:38:13Z</time>
      </trkpt>
      <trkpt lat="47.79205" lon="-3.52938">
        <ele>4</ele>
        <time>2019-07-15T09:38:14Z</time>
      </trkpt>
      <trkpt lat="47.79206" lon="-3.52934">
        <ele>4</ele>
        <time>2019-07-15T09:38:15Z</time>
      </trkpt>
      <trkpt lat="47.79207" lon="-3.5293">
        <ele>4</ele>
        <time>2019-07-15T09:38:16Z</time>
      </trkpt>
      <trkpt lat="47.7921" lon="-3.52926">
        <ele>4</ele>
        <time>2019-07-15T09:38:17Z</time>
      </trkpt>
      <trkpt lat="47.79213" lon="-3.52922">
        <ele>4</ele>
        <time>2019-07-15T09:38:18Z</time>
      </trkpt>
      <trkpt lat="47.79215" lon="-3.52919">
        <ele>4</ele>
        <time>2019-07-15T09:38:19Z</time>
      </trkpt>
      <trkpt lat="47.79217" lon="-3.52916">
        <ele>4</ele>
        <time>2019-07-15T09:38:20Z</time>
      </trkpt>
      <trkpt lat="47.7922" lon="-3.52912">
        <ele>4</ele>
        <time>2019-07-15T09:38:21Z</time>
      </trkpt>
      <trkpt lat="47.79222" lon="-3.52909">
        <ele>4</ele>
        <time>2019-07-15T09:38:22Z</time>
      </trkpt>
      <trkpt lat="47.79224" lon="-3.52906">
        <ele>4</ele>
        <time>2019-07-15T09:38:23Z</time>
      </trkpt>
      <trkpt lat="47.79226" lon="-3.52904">
        <ele>4</ele>
        <time>2019-07-15T09:38:24Z</time>
      </trkpt>
      <trkpt lat="47.79228" lon="-3.52901">
        <ele>4</ele>
        <time>2019-07-15T09:38:25Z</time>
      </trkpt>
      <trkpt lat="47.7923" lon="-3.52898">
        <ele>4</ele>
        <time>2019-07-15T09:38:26Z</time>
      </trkpt>
      <trkpt lat="47.79232" lon="-3.52896">
        <ele>4</ele>
        <time>2019-07-15T09:38:27Z</time>
      </trkpt>
      <trkpt lat="47.79235" lon="-3.52893">
        <ele>4</ele>
        <time>2019-07-15T09:38:28Z</time>
      </trkpt>
      <trkpt lat="47.79239" lon="-3.52889">
        <ele>4</ele>
        <time>2019-07-15T09:38:29Z</time>
      </trkpt>
      <trkpt lat="47.79241" lon="-3.52887">
        <ele>4</ele>
        <time>2019-07-15T09:38:30Z</time>
      </trkpt>
      <trkpt lat="47.79245" lon="-3.52885">
        <ele>3</ele>
        <time>2019-07-15T09:38:31Z</time>
      </trkpt>
      <trkpt lat="47.79247" lon="-3.52883">
        <ele>3</ele>
        <time>2019-07-15T09:38:32Z</time>
      </trkpt>
      <trkpt lat="47.79251" lon="-3.52882">
        <ele>3</ele>
        <time>2019-07-15T09:38:33Z</time>
      </trkpt>
      <trkpt lat="47.79255" lon="-3.52881">
        <ele>3</ele>
        <time>2019-07-15T09:38:34Z</time>
      </trkpt>
      <trkpt lat="47.7926" lon="-3.52881">
        <ele>3</ele>
        <time>2019-07-15T09:38:35Z</time>
      </trkpt>
      <trkpt lat="47.79265" lon="-3.5288">
        <ele>3</ele>
        <time>2019-07-15T09:38:36Z</time>
      </trkpt>
      <trkpt lat="47.79269" lon="-3.52879">
        <ele>3</ele>
        <time>2019-07-15T09:38:37Z</time>
      </trkpt>
      <trkpt lat="47.79274" lon="-3.52878">
        <ele>3</ele>
        <time>2019-07-15T09:38:38Z</time>
      </trkpt>
      <trkpt lat="47.79278" lon="-3.52876">
        <ele>3</ele>
        <time>2019-07-15T09:38:39Z</time>
      </trkpt>
      <trkpt lat="47.79282" lon="-3.52874">
        <ele>3</ele>
        <time>2019-07-15T09:38:40Z</time>
      </trkpt>
      <trkpt lat="47.79285" lon="-3.52871">
        <ele>3</ele>
        <time>2019-07-15T09:38:41Z</time>
      </trkpt>
      <trkpt lat="47.79289" lon="-3.52868">
        <ele>3</ele>
        <time>2019-07-15T09:38:42Z</time>
      </trkpt>
      <trkpt lat="47.79293" lon="-3.52866">
        <ele>3</ele>
        <time>2019-07-15T09:38:43Z</time>
      </trkpt>
      <trkpt lat="47.79297" lon="-3.52863">
        <ele>3</ele>
        <time>2019-07-15T09:38:44Z</time>
      </trkpt>
      <trkpt lat="47.79299" lon="-3.52859">
        <ele>3</ele>
        <time>2019-07-15T09:38:45Z</time>
      </trkpt>
      <trkpt lat="47.79302" lon="-3.52856">
        <ele>4</ele>
        <time>2019-07-15T09:38:46Z</time>
      </trkpt>
      <trkpt lat="47.79306" lon="-3.52853">
        <ele>4</ele>
        <time>2019-07-15T09:38:47Z</time>
      </trkpt>
      <trkpt lat="47.79311" lon="-3.5285">
        <ele>4</ele>
        <time>2019-07-15T09:38:48Z</time>
      </trkpt>
      <trkpt lat="47.79315" lon="-3.52849">
        <ele>4</ele>
        <time>2019-07-15T09:38:49Z</time>
      </trkpt>
      <trkpt lat="47.79318" lon="-3.52846">
        <ele>4</ele>
        <time>2019-07-15T09:38:50Z</time>
      </trkpt>
      <trkpt lat="47.79322" lon="-3.52842">
        <ele>4</ele>
        <time>2019-07-15T09:38:51Z</time>
      </trkpt>
      <trkpt lat="47.79326" lon="-3.52839">
        <ele>4</ele>
        <time>2019-07-15T09:38:52Z</time>
      </trkpt>
      <trkpt lat="47.79329" lon="-3.52838">
        <ele>4</ele>
        <time>2019-07-15T09:38:53Z</time>
      </trkpt>
      <trkpt lat="47.79333" lon="-3.52838">
        <ele>4</ele>
        <time>2019-07-15T09:38:54Z</time>
      </trkpt>
      <trkpt lat="47.79337" lon="-3.52837">
        <ele>4</ele>
        <time>2019-07-15T09:38:55Z</time>
      </trkpt>
      <trkpt lat="47.79341" lon="-3.52836">
        <ele>3</ele>
        <time>2019-07-15T09:38:56Z</time>
      </trkpt>
      <trkpt lat="47.79344" lon="-3.52836">
        <ele>3</ele>
        <time>2019-07-15T09:38:57Z</time>
      </trkpt>
      <trkpt lat="47.79348" lon="-3.52834">
        <ele>3</ele>
        <time>2019-07-15T09:38:58Z</time>
      </trkpt>
      <trkpt lat="47.7935" lon="-3.52832">
        <ele>3</ele>
        <time>2019-07-15T09:38:59Z</time>
      </trkpt>
      <trkpt lat="47.79352" lon="-3.52829">
        <ele>3</ele>
        <time>2019-07-15T09:39:00Z</time>
      </trkpt>
      <trkpt lat="47.79355" lon="-3.52823">
        <ele>3</ele>
        <time>2019-07-15T09:39:01Z</time>
      </trkpt>
      <trkpt lat="47.79357" lon="-3.52816">
        <ele>3</ele>
        <time>2019-07-15T09:39:02Z</time>
      </trkpt>
      <trkpt lat="47.79361" lon="-3.5281">
        <ele>3</ele>
        <time>2019-07-15T09:39:03Z</time>
      </trkpt>
      <trkpt lat="47.79364" lon="-3.52805">
        <ele>3</ele>
        <time>2019-07-15T09:39:04Z</time>
      </trkpt>
      <trkpt lat="47.79367" lon="-3.52801">
        <ele>3</ele>
        <time>2019-07-15T09:39:05Z</time>
      </trkpt>
      <trkpt lat="47.7937" lon="-3.52798">
        <ele>3</ele>
        <time>2019-07-15T09:39:06Z</time>
      </trkpt>
      <trkpt lat="47.79373" lon="-3.52797">
        <ele>3</ele>
        <time>2019-07-15T09:39:07Z</time>
      </trkpt>
      <trkpt lat="47.79374" lon="-3.52795">
        <ele>3</ele>
        <time>2019-07-15T09:39:08Z</time>
      </trkpt>
      <trkpt lat="47.79375" lon="-3.52794">
        <ele>3</ele>
        <time>2019-07-15T09:39:09Z</time>
      </trkpt>
      <trkpt lat="47.79377" lon="-3.52793">
        <ele>4</ele>
        <time>2019-07-15T09:39:10Z</time>
      </trkpt>
      <trkpt lat="47.7938" lon="-3.52792">
        <ele>4</ele>
        <time>2019-07-15T09:39:11Z</time>
      </trkpt>
      <trkpt lat="47.79382" lon="-3.5279">
        <ele>4</ele>
        <time>2019-07-15T09:39:12Z</time>
      </trkpt>
      <trkpt lat="47.79385" lon="-3.52788">
        <ele>4</ele>
        <time>2019-07-15T09:39:13Z</time>
      </trkpt>
      <trkpt lat="47.79389" lon="-3.52786">
        <ele>4</ele>
        <time>2019-07-15T09:39:14Z</time>
      </trkpt>
      <trkpt lat="47.79392" lon="-3.52784">
        <ele>5</ele>
        <time>2019-07-15T09:39:15Z</time>
      </trkpt>
      <trkpt lat="47.79394" lon="-3.52783">
        <ele>5</ele>
        <time>2019-07-15T09:39:16Z</time>
      </trkpt>
      <trkpt lat="47.79397" lon="-3.52782">
        <ele>5</ele>
        <time>2019-07-15T09:39:17Z</time>
      </trkpt>
      <trkpt lat="47.794" lon="-3.5278">
        <ele>5</ele>
        <time>2019-07-15T09:39:18Z</time>
      </trkpt>
      <trkpt lat="47.79402" lon="-3.52779">
        <ele>5</ele>
        <time>2019-07-15T09:39:19Z</time>
      </trkpt>
      <trkpt lat="47.79404" lon="-3.52778">
        <ele>5</ele>
        <time>2019-07-15T09:39:20Z</time>
      </trkpt>
      <trkpt lat="47.79407" lon="-3.52777">
        <ele>5</ele>
        <time>2019-07-15T09:39:21Z</time>
      </trkpt>
      <trkpt lat="47.79408" lon="-3.52778">
        <ele>5</ele>
        <time>2019-07-15T09:39:22Z</time>
      </trkpt>
      <trkpt lat="47.7941" lon="-3.52777">
        <ele>5</ele>
        <time>2019-07-15T09:39:23Z</time>
      </trkpt>
      <trkpt lat="47.79412" lon="-3.52777">
        <ele>6</ele>
        <time>2019-07-15T09:39:24Z</time>
      </trkpt>
      <trkpt lat="47.79414" lon="-3.52778">
        <ele>6</ele>
        <time>2019-07-15T09:39:25Z</time>
      </trkpt>
      <trkpt lat="47.79416" lon="-3.5278">
        <ele>6</ele>
        <time>2019-07-15T09:39:26Z</time>
      </trkpt>
      <trkpt lat="47.79417" lon="-3.52782">
        <ele>6</ele>
        <time>2019-07-15T09:39:27Z</time>
      </trkpt>
      <trkpt lat="47.79419" lon="-3.52785">
        <ele>6</ele>
        <time>2019-07-15T09:39:28Z</time>
      </trkpt>
      <trkpt lat="47.7942" lon="-3.52788">
        <ele>6</ele>
        <time>2019-07-15T09:39:29Z</time>
      </trkpt>
      <trkpt lat="47.79422" lon="-3.52791">
        <ele>6</ele>
        <time>2019-07-15T09:39:30Z</time>
      </trkpt>
      <trkpt lat="47.79423" lon="-3.52794">
        <ele>6</ele>
        <time>2019-07-15T09:39:31Z</time>
      </trkpt>
      <trkpt lat="47.79424" lon="-3.52797">
        <ele>6</ele>
        <time>2019-07-15T09:39:32Z</time>
      </trkpt>
      <trkpt lat="47.79426" lon="-3.528">
        <ele>7</ele>
        <time>2019-07-15T09:39:33Z</time>
      </trkpt>
      <trkpt lat="47.79428" lon="-3.52803">
        <ele>7</ele>
        <time>2019-07-15T09:39:34Z</time>
      </trkpt>
      <trkpt lat="47.7943" lon="-3.52806">
        <ele>7</ele>
        <time>2019-07-15T09:39:35Z</time>
      </trkpt>
      <trkpt lat="47.79431" lon="-3.52808">
        <ele>7</ele>
        <time>2019-07-15T09:39:36Z</time>
      </trkpt>
      <trkpt lat="47.79433" lon="-3.5281">
        <ele>7</ele>
        <time>2019-07-15T09:39:37Z</time>
      </trkpt>
      <trkpt lat="47.79435" lon="-3.52813">
        <ele>7</ele>
        <time>2019-07-15T09:39:38Z</time>
      </trkpt>
      <trkpt lat="47.79437" lon="-3.52814">
        <ele>7</ele>
        <time>2019-07-15T09:39:39Z</time>
      </trkpt>
      <trkpt lat="47.79439" lon="-3.52815">
        <ele>7</ele>
        <time>2019-07-15T09:39:40Z</time>
      </trkpt>
      <trkpt lat="47.7944" lon="-3.52816">
        <ele>8</ele>
        <time>2019-07-15T09:39:41Z</time>
      </trkpt>
      <trkpt lat="47.79443" lon="-3.52818">
        <ele>8</ele>
        <time>2019-07-15T09:39:42Z</time>
      </trkpt>
      <trkpt lat="47.79445" lon="-3.52819">
        <ele>8</ele>
        <time>2019-07-15T09:39:43Z</time>
      </trkpt>
      <trkpt lat="47.79446" lon="-3.52819">
        <ele>8</ele>
        <time>2019-07-15T09:39:44Z</time>
      </trkpt>
      <trkpt lat="47.79448" lon="-3.5282">
        <ele>9</ele>
        <time>2019-07-15T09:39:45Z</time>
      </trkpt>
      <trkpt lat="47.79449" lon="-3.52821">
        <ele>9</ele>
        <time>2019-07-15T09:39:46Z</time>
      </trkpt>
      <trkpt lat="47.79451" lon="-3.52822">
        <ele>9</ele>
        <time>2019-07-15T09:39:47Z</time>
      </trkpt>
      <trkpt lat="47.79452" lon="-3.52823">
        <ele>9</ele>
        <time>2019-07-15T09:39:48Z</time>
      </trkpt>
      <trkpt lat="47.79454" lon="-3.52823">
        <ele>9</ele>
        <time>2019-07-15T09:39:49Z</time>
      </trkpt>
      <trkpt lat="47.79457" lon="-3.52823">
        <ele>9</ele>
        <time>2019-07-15T09:39:50Z</time>
      </trkpt>
      <trkpt lat="47.7946" lon="-3.52824">
        <ele>9</ele>
        <time>2019-07-15T09:39:51Z</time>
      </trkpt>
      <trkpt lat="47.79463" lon="-3.52825">
        <ele>9</ele>
        <time>2019-07-15T09:39:52Z</time>
      </trkpt>
      <trkpt lat="47.79465" lon="-3.52827">
        <ele>10</ele>
        <time>2019-07-15T09:39:53Z</time>
      </trkpt>
      <trkpt lat="47.79467" lon="-3.5283">
        <ele>10</ele>
        <time>2019-07-15T09:39:54Z</time>
      </trkpt>
      <trkpt lat="47.7947" lon="-3.52833">
        <ele>10</ele>
        <time>2019-07-15T09:39:55Z</time>
      </trkpt>
      <trkpt lat="47.79473" lon="-3.52837">
        <ele>10</ele>
        <time>2019-07-15T09:39:56Z</time>
      </trkpt>
      <trkpt lat="47.79477" lon="-3.5284">
        <ele>11</ele>
        <time>2019-07-15T09:39:57Z</time>
      </trkpt>
      <trkpt lat="47.7948" lon="-3.52842">
        <ele>11</ele>
        <time>2019-07-15T09:39:58Z</time>
      </trkpt>
      <trkpt lat="47.79484" lon="-3.52843">
        <ele>11</ele>
        <time>2019-07-15T09:39:59Z</time>
      </trkpt>
      <trkpt lat="47.79488" lon="-3.52843">
        <ele>11</ele>
        <time>2019-07-15T09:40:00Z</time>
      </trkpt>
      <trkpt lat="47.7949" lon="-3.52845">
        <ele>11</ele>
        <time>2019-07-15T09:40:01Z</time>
      </trkpt>
      <trkpt lat="47.79492" lon="-3.52846">
        <ele>11</ele>
        <time>2019-07-15T09:40:02Z</time>
      </trkpt>
      <trkpt lat="47.79495" lon="-3.52847">
        <ele>11</ele>
        <time>2019-07-15T09:40:03Z</time>
      </trkpt>
      <trkpt lat="47.79498" lon="-3.52849">
        <ele>11</ele>
        <time>2019-07-15T09:40:04Z</time>
      </trkpt>
      <trkpt lat="47.795" lon="-3.52851">
        <ele>12</ele>
        <time>2019-07-15T09:40:05Z</time>
      </trkpt>
      <trkpt lat="47.79502" lon="-3.52854">
        <ele>12</ele>
        <time>2019-07-15T09:40:06Z</time>
      </trkpt>
      <trkpt lat="47.79504" lon="-3.52857">
        <ele>12</ele>
        <time>2019-07-15T09:40:07Z</time>
      </trkpt>
      <trkpt lat="47.79506" lon="-3.52861">
        <ele>12</ele>
        <time>2019-07-15T09:40:08Z</time>
      </trkpt>
      <trkpt lat="47.79508" lon="-3.52864">
        <ele>12</ele>
        <time>2019-07-15T09:40:09Z</time>
      </trkpt>
      <trkpt lat="47.7951" lon="-3.52868">
        <ele>12</ele>
        <time>2019-07-15T09:40:10Z</time>
      </trkpt>
      <trkpt lat="47.79512" lon="-3.5287">
        <ele>12</ele>
        <time>2019-07-15T09:40:11Z</time>
      </trkpt>
      <trkpt lat="47.79515" lon="-3.52872">
        <ele>12</ele>
        <time>2019-07-15T09:40:12Z</time>
      </trkpt>
      <trkpt lat="47.79518" lon="-3.52873">
        <ele>12</ele>
        <time>2019-07-15T09:40:13Z</time>
      </trkpt>
      <trkpt lat="47.79522" lon="-3.52873">
        <ele>12</ele>
        <time>2019-07-15T09:40:14Z</time>
      </trkpt>
      <trkpt lat="47.79526" lon="-3.52873">
        <ele>11</ele>
        <time>2019-07-15T09:40:15Z</time>
      </trkpt>
      <trkpt lat="47.79532" lon="-3.52873">
        <ele>11</ele>
        <time>2019-07-15T09:40:16Z</time>
      </trkpt>
      <trkpt lat="47.79536" lon="-3.52875">
        <ele>11</ele>
        <time>2019-07-15T09:40:17Z</time>
      </trkpt>
      <trkpt lat="47.79539" lon="-3.52877">
        <ele>11</ele>
        <time>2019-07-15T09:40:18Z</time>
      </trkpt>
      <trkpt lat="47.79541" lon="-3.52879">
        <ele>11</ele>
        <time>2019-07-15T09:40:19Z</time>
      </trkpt>
      <trkpt lat="47.79541" lon="-3.52879">
        <ele>11</ele>
        <time>2019-07-15T09:40:20Z</time>
      </trkpt>
      <trkpt lat="47.79542" lon="-3.5288">
        <ele>11</ele>
        <time>2019-07-15T09:40:21Z</time>
      </trkpt>
      <trkpt lat="47.79543" lon="-3.5288">
        <ele>11</ele>
        <time>2019-07-15T09:40:22Z</time>
      </trkpt>
      <trkpt lat="47.79544" lon="-3.52881">
        <ele>11</ele>
        <time>2019-07-15T09:40:23Z</time>
      </trkpt>
      <trkpt lat="47.79544" lon="-3.52881">
        <ele>11</ele>
        <time>2019-07-15T09:40:24Z</time>
      </trkpt>
      <trkpt lat="47.79555" lon="-3.52893">
        <ele>12</ele>
        <time>2019-07-15T09:40:25Z</time>
      </trkpt>
      <trkpt lat="47.79556" lon="-3.52895">
        <ele>12</ele>
        <time>2019-07-15T09:40:26Z</time>
      </trkpt>
      <trkpt lat="47.79557" lon="-3.52896">
        <ele>12</ele>
        <time>2019-07-15T09:40:27Z</time>
      </trkpt>
      <trkpt lat="47.79557" lon="-3.52898">
        <ele>12</ele>
        <time>2019-07-15T09:40:28Z</time>
      </trkpt>
      <trkpt lat="47.79557" lon="-3.529">
        <ele>13</ele>
        <time>2019-07-15T09:40:29Z</time>
      </trkpt>
      <trkpt lat="47.79558" lon="-3.52902">
        <ele>13</ele>
        <time>2019-07-15T09:40:30Z</time>
      </trkpt>
      <trkpt lat="47.79558" lon="-3.52904">
        <ele>13</ele>
        <time>2019-07-15T09:40:31Z</time>
      </trkpt>
      <trkpt lat="47.79559" lon="-3.52905">
        <ele>13</ele>
        <time>2019-07-15T09:40:32Z</time>
      </trkpt>
      <trkpt lat="47.7956" lon="-3.52907">
        <ele>13</ele>
        <time>2019-07-15T09:40:33Z</time>
      </trkpt>
      <trkpt lat="47.7956" lon="-3.52909">
        <ele>14</ele>
        <time>2019-07-15T09:40:34Z</time>
      </trkpt>
      <trkpt lat="47.79561" lon="-3.52911">
        <ele>14</ele>
        <time>2019-07-15T09:40:35Z</time>
      </trkpt>
      <trkpt lat="47.79561" lon="-3.52912">
        <ele>14</ele>
        <time>2019-07-15T09:40:36Z</time>
      </trkpt>
      <trkpt lat="47.79562" lon="-3.52913">
        <ele>14</ele>
        <time>2019-07-15T09:40:37Z</time>
      </trkpt>
      <trkpt lat="47.79563" lon="-3.52914">
        <ele>15</ele>
        <time>2019-07-15T09:40:38Z</time>
      </trkpt>
      <trkpt lat="47.79564" lon="-3.52914">
        <ele>15</ele>
        <time>2019-07-15T09:40:39Z</time>
      </trkpt>
      <trkpt lat="47.79564" lon="-3.52913">
        <ele>15</ele>
        <time>2019-07-15T09:40:40Z</time>
      </trkpt>
      <trkpt lat="47.79564" lon="-3.52912">
        <ele>16</ele>
        <time>2019-07-15T09:40:41Z</time>
      </trkpt>
      <trkpt lat="47.79565" lon="-3.5291">
        <ele>16</ele>
        <time>2019-07-15T09:40:42Z</time>
      </trkpt>
      <trkpt lat="47.79565" lon="-3.52909">
        <ele>16</ele>
        <time>2019-07-15T09:40:43Z</time>
      </trkpt>
      <trkpt lat="47.79566" lon="-3.52908">
        <ele>16</ele>
        <time>2019-07-15T09:40:44Z</time>
      </trkpt>
      <trkpt lat="47.79567" lon="-3.52907">
        <ele>17</ele>
        <time>2019-07-15T09:40:45Z</time>
      </trkpt>
      <trkpt lat="47.79567" lon="-3.52905">
        <ele>17</ele>
        <time>2019-07-15T09:40:46Z</time>
      </trkpt>
      <trkpt lat="47.79567" lon="-3.52904">
        <ele>17</ele>
        <time>2019-07-15T09:40:47Z</time>
      </trkpt>
      <trkpt lat="47.79568" lon="-3.52903">
        <ele>18</ele>
        <time>2019-07-15T09:40:48Z</time>
      </trkpt>
      <trkpt lat="47.79568" lon="-3.52901">
        <ele>18</ele>
        <time>2019-07-15T09:40:49Z</time>
      </trkpt>
      <trkpt lat="47.79568" lon="-3.52898">
        <ele>18</ele>
        <time>2019-07-15T09:40:50Z</time>
      </trkpt>
      <trkpt lat="47.79568" lon="-3.52896">
        <ele>19</ele>
        <time>2019-07-15T09:40:51Z</time>
      </trkpt>
      <trkpt lat="47.79568" lon="-3.52895">
        <ele>19</ele>
        <time>2019-07-15T09:40:52Z</time>
      </trkpt>
      <trkpt lat="47.79567" lon="-3.52893">
        <ele>19</ele>
        <time>2019-07-15T09:40:53Z</time>
      </trkpt>
      <trkpt lat="47.79567" lon="-3.52892">
        <ele>19</ele>
        <time>2019-07-15T09:40:54Z</time>
      </trkpt>
      <trkpt lat="47.79567" lon="-3.5289">
        <ele>19</ele>
        <time>2019-07-15T09:40:55Z</time>
      </trkpt>
      <trkpt lat="47.79568" lon="-3.5289">
        <ele>19</ele>
        <time>2019-07-15T09:40:56Z</time>
      </trkpt>
      <trkpt lat="47.79568" lon="-3.52889">
        <ele>20</ele>
        <time>2019-07-15T09:40:57Z</time>
      </trkpt>
      <trkpt lat="47.79568" lon="-3.52889">
        <ele>20</ele>
        <time>2019-07-15T09:40:58Z</time>
      </trkpt>
      <trkpt lat="47.79568" lon="-3.52889">
        <ele>20</ele>
        <time>2019-07-15T09:40:59Z</time>
      </trkpt>
      <trkpt lat="47.79568" lon="-3.52882">
        <ele>20</ele>
        <time>2019-07-15T09:41:00Z</time>
      </trkpt>
      <trkpt lat="47.79568" lon="-3.52879">
        <ele>20</ele>
        <time>2019-07-15T09:41:01Z</time>
      </trkpt>
      <trkpt lat="47.79568" lon="-3.52877">
        <ele>20</ele>
        <time>2019-07-15T09:41:02Z</time>
      </trkpt>
      <trkpt lat="47.79569" lon="-3.52875">
        <ele>21</ele>
        <time>2019-07-15T09:41:03Z</time>
      </trkpt>
      <trkpt lat="47.7957" lon="-3.52872">
        <ele>21</ele>
        <time>2019-07-15T09:41:04Z</time>
      </trkpt>
      <trkpt lat="47.79571" lon="-3.52868">
        <ele>21</ele>
        <time>2019-07-15T09:41:05Z</time>
      </trkpt>
      <trkpt lat="47.79572" lon="-3.52863">
        <ele>21</ele>
        <time>2019-07-15T09:41:06Z</time>
      </trkpt>
      <trkpt lat="47.79573" lon="-3.52858">
        <ele>21</ele>
        <time>2019-07-15T09:41:07Z</time>
      </trkpt>
      <trkpt lat="47.79574" lon="-3.52853">
        <ele>21</ele>
        <time>2019-07-15T09:41:08Z</time>
      </trkpt>
      <trkpt lat="47.79577" lon="-3.52847">
        <ele>21</ele>
        <time>2019-07-15T09:41:09Z</time>
      </trkpt>
      <trkpt lat="47.79579" lon="-3.52842">
        <ele>21</ele>
        <time>2019-07-15T09:41:10Z</time>
      </trkpt>
      <trkpt lat="47.79581" lon="-3.52837">
        <ele>21</ele>
        <time>2019-07-15T09:41:11Z</time>
      </trkpt>
      <trkpt lat="47.79584" lon="-3.52834">
        <ele>21</ele>
        <time>2019-07-15T09:41:12Z</time>
      </trkpt>
      <trkpt lat="47.79588" lon="-3.52831">
        <ele>21</ele>
        <time>2019-07-15T09:41:13Z</time>
      </trkpt>
      <trkpt lat="47.79591" lon="-3.52829">
        <ele>21</ele>
        <time>2019-07-15T09:41:14Z</time>
      </trkpt>
      <trkpt lat="47.79595" lon="-3.52828">
        <ele>21</ele>
        <time>2019-07-15T09:41:15Z</time>
      </trkpt>
      <trkpt lat="47.79598" lon="-3.52827">
        <ele>20</ele>
        <time>2019-07-15T09:41:16Z</time>
      </trkpt>
      <trkpt lat="47.79603" lon="-3.52824">
        <ele>20</ele>
        <time>2019-07-15T09:41:17Z</time>
      </trkpt>
      <trkpt lat="47.79609" lon="-3.52818">
        <ele>20</ele>
        <time>2019-07-15T09:41:18Z</time>
      </trkpt>
      <trkpt lat="47.79614" lon="-3.52813">
        <ele>20</ele>
        <time>2019-07-15T09:41:19Z</time>
      </trkpt>
      <trkpt lat="47.79619" lon="-3.52809">
        <ele>20</ele>
        <time>2019-07-15T09:41:20Z</time>
      </trkpt>
      <trkpt lat="47.79624" lon="-3.52805">
        <ele>19</ele>
        <time>2019-07-15T09:41:21Z</time>
      </trkpt>
      <trkpt lat="47.79629" lon="-3.52801">
        <ele>19</ele>
        <time>2019-07-15T09:41:22Z</time>
      </trkpt>
      <trkpt lat="47.79633" lon="-3.52798">
        <ele>19</ele>
        <time>2019-07-15T09:41:23Z</time>
      </trkpt>
      <trkpt lat="47.79637" lon="-3.52795">
        <ele>19</ele>
        <time>2019-07-15T09:41:24Z</time>
      </trkpt>
      <trkpt lat="47.7964" lon="-3.52793">
        <ele>19</ele>
        <time>2019-07-15T09:41:25Z</time>
      </trkpt>
      <trkpt lat="47.79644" lon="-3.5279">
        <ele>18</ele>
        <time>2019-07-15T09:41:26Z</time>
      </trkpt>
      <trkpt lat="47.79648" lon="-3.52788">
        <ele>18</ele>
        <time>2019-07-15T09:41:27Z</time>
      </trkpt>
      <trkpt lat="47.79651" lon="-3.52787">
        <ele>18</ele>
        <time>2019-07-15T09:41:28Z</time>
      </trkpt>
      <trkpt lat="47.79654" lon="-3.52787">
        <ele>18</ele>
        <time>2019-07-15T09:41:29Z</time>
      </trkpt>
      <trkpt lat="47.79656" lon="-3.52786">
        <ele>18</ele>
        <time>2019-07-15T09:41:30Z</time>
      </trkpt>
      <trkpt lat="47.79657" lon="-3.52786">
        <ele>18</ele>
        <time>2019-07-15T09:41:31Z</time>
      </trkpt>
      <trkpt lat="47.79659" lon="-3.52786">
        <ele>18</ele>
        <time>2019-07-15T09:41:32Z</time>
      </trkpt>
      <trkpt lat="47.79661" lon="-3.52785">
        <ele>18</ele>
        <time>2019-07-15T09:41:33Z</time>
      </trkpt>
      <trkpt lat="47.79663" lon="-3.52785">
        <ele>19</ele>
        <time>2019-07-15T09:41:34Z</time>
      </trkpt>
      <trkpt lat="47.79665" lon="-3.52785">
        <ele>19</ele>
        <time>2019-07-15T09:41:35Z</time>
      </trkpt>
      <trkpt lat="47.79667" lon="-3.52785">
        <ele>19</ele>
        <time>2019-07-15T09:41:36Z</time>
      </trkpt>
      <trkpt lat="47.79668" lon="-3.52785">
        <ele>19</ele>
        <time>2019-07-15T09:41:37Z</time>
      </trkpt>
      <trkpt lat="47.79669" lon="-3.52785">
        <ele>19</ele>
        <time>2019-07-15T09:41:38Z</time>
      </trkpt>
      <trkpt lat="47.79669" lon="-3.52784">
        <ele>19</ele>
        <time>2019-07-15T09:41:39Z</time>
      </trkpt>
      <trkpt lat="47.7967" lon="-3.52784">
        <ele>19</ele>
        <time>2019-07-15T09:41:40Z</time>
      </trkpt>
      <trkpt lat="47.79671" lon="-3.52784">
        <ele>18</ele>
        <time>2019-07-15T09:41:41Z</time>
      </trkpt>
      <trkpt lat="47.7969" lon="-3.5278">
        <ele>18</ele>
        <time>2019-07-15T09:41:42Z</time>
      </trkpt>
      <trkpt lat="47.7969" lon="-3.5278">
        <ele>18</ele>
        <time>2019-07-15T09:41:43Z</time>
      </trkpt>
      <trkpt lat="47.79692" lon="-3.5278">
        <ele>18</ele>
        <time>2019-07-15T09:41:44Z</time>
      </trkpt>
      <trkpt lat="47.79692" lon="-3.5278">
        <ele>19</ele>
        <time>2019-07-15T09:41:45Z</time>
      </trkpt>
      <trkpt lat="47.79694" lon="-3.5278">
        <ele>19</ele>
        <time>2019-07-15T09:41:46Z</time>
      </trkpt>
      <trkpt lat="47.79695" lon="-3.5278">
        <ele>19</ele>
        <time>2019-07-15T09:41:47Z</time>
      </trkpt>
      <trkpt lat="47.79696" lon="-3.5278">
        <ele>19</ele>
        <time>2019-07-15T09:41:48Z</time>
      </trkpt>
      <trkpt lat="47.79696" lon="-3.5278">
        <ele>19</ele>
        <time>2019-07-15T09:41:49Z</time>
      </trkpt>
      <trkpt lat="47.79697" lon="-3.52779">
        <ele>19</ele>
        <time>2019-07-15T09:41:50Z</time>
      </trkpt>
      <trkpt lat="47.79698" lon="-3.52779">
        <ele>19</ele>
        <time>2019-07-15T09:41:51Z</time>
      </trkpt>
      <trkpt lat="47.79699" lon="-3.52778">
        <ele>19</ele>
        <time>2019-07-15T09:41:52Z</time>
      </trkpt>
      <trkpt lat="47.79699" lon="-3.52778">
        <ele>20</ele>
        <time>2019-07-15T09:41:53Z</time>
      </trkpt>
      <trkpt lat="47.79699" lon="-3.52778">
        <ele>20</ele>
        <time>2019-07-15T09:41:54Z</time>
      </trkpt>
      <trkpt lat="47.79699" lon="-3.52778">
        <ele>20</ele>
        <time>2019-07-15T09:41:55Z</time>
      </trkpt>
      <trkpt lat="47.797" lon="-3.52778">
        <ele>20</ele>
        <time>2019-07-15T09:41:56Z</time>
      </trkpt>
      <trkpt lat="47.79701" lon="-3.52777">
        <ele>20</ele>
        <time>2019-07-15T09:41:57Z</time>
      </trkpt>
      <trkpt lat="47.79702" lon="-3.52777">
        <ele>20</ele>
        <time>2019-07-15T09:41:58Z</time>
      </trkpt>
      <trkpt lat="47.79702" lon="-3.52776">
        <ele>20</ele>
        <time>2019-07-15T09:41:59Z</time>
      </trkpt>
      <trkpt lat="47.79704" lon="-3.52774">
        <ele>20</ele>
        <time>2019-07-15T09:42:00Z</time>
      </trkpt>
      <trkpt lat="47.79706" lon="-3.52772">
        <ele>20</ele>
        <time>2019-07-15T09:42:01Z</time>
      </trkpt>
      <trkpt lat="47.79708" lon="-3.52769">
        <ele>21</ele>
        <time>2019-07-15T09:42:02Z</time>
      </trkpt>
      <trkpt lat="47.79709" lon="-3.52765">
        <ele>21</ele>
        <time>2019-07-15T09:42:03Z</time>
      </trkpt>
      <trkpt lat="47.79711" lon="-3.52761">
        <ele>21</ele>
        <time>2019-07-15T09:42:04Z</time>
      </trkpt>
      <trkpt lat="47.79713" lon="-3.52758">
        <ele>21</ele>
        <time>2019-07-15T09:42:05Z</time>
      </trkpt>
      <trkpt lat="47.79714" lon="-3.52754">
        <ele>21</ele>
        <time>2019-07-15T09:42:06Z</time>
      </trkpt>
      <trkpt lat="47.79716" lon="-3.5275">
        <ele>21</ele>
        <time>2019-07-15T09:42:07Z</time>
      </trkpt>
      <trkpt lat="47.79718" lon="-3.52745">
        <ele>21</ele>
        <time>2019-07-15T09:42:08Z</time>
      </trkpt>
      <trkpt lat="47.79719" lon="-3.52741">
        <ele>21</ele>
        <time>2019-07-15T09:42:09Z</time>
      </trkpt>
      <trkpt lat="47.7972" lon="-3.52737">
        <ele>21</ele>
        <time>2019-07-15T09:42:10Z</time>
      </trkpt>
      <trkpt lat="47.79721" lon="-3.52733">
        <ele>21</ele>
        <time>2019-07-15T09:42:11Z</time>
      </trkpt>
      <trkpt lat="47.79722" lon="-3.52728">
        <ele>21</ele>
        <time>2019-07-15T09:42:12Z</time>
      </trkpt>
      <trkpt lat="47.79724" lon="-3.52723">
        <ele>21</ele>
        <time>2019-07-15T09:42:13Z</time>
      </trkpt>
      <trkpt lat="47.79726" lon="-3.52716">
        <ele>21</ele>
        <time>2019-07-15T09:42:14Z</time>
      </trkpt>
      <trkpt lat="47.79729" lon="-3.52709">
        <ele>21</ele>
        <time>2019-07-15T09:42:15Z</time>
      </trkpt>
      <trkpt lat="47.79731" lon="-3.52701">
        <ele>21</ele>
        <time>2019-07-15T09:42:16Z</time>
      </trkpt>
      <trkpt lat="47.79733" lon="-3.52693">
        <ele>20</ele>
        <time>2019-07-15T09:42:17Z</time>
      </trkpt>
      <trkpt lat="47.79735" lon="-3.52686">
        <ele>20</ele>
        <time>2019-07-15T09:42:18Z</time>
      </trkpt>
      <trkpt lat="47.79736" lon="-3.5268">
        <ele>20</ele>
        <time>2019-07-15T09:42:19Z</time>
      </trkpt>
      <trkpt lat="47.79737" lon="-3.52675">
        <ele>20</ele>
        <time>2019-07-15T09:42:20Z</time>
      </trkpt>
      <trkpt lat="47.79739" lon="-3.5267">
        <ele>20</ele>
        <time>2019-07-15T09:42:21Z</time>
      </trkpt>
      <trkpt lat="47.7974" lon="-3.52664">
        <ele>20</ele>
        <time>2019-07-15T09:42:22Z</time>
      </trkpt>
      <trkpt lat="47.79743" lon="-3.52656">
        <ele>20</ele>
        <time>2019-07-15T09:42:23Z</time>
      </trkpt>
      <trkpt lat="47.79746" lon="-3.52649">
        <ele>20</ele>
        <time>2019-07-15T09:42:24Z</time>
      </trkpt>
      <trkpt lat="47.79749" lon="-3.52641">
        <ele>20</ele>
        <time>2019-07-15T09:42:25Z</time>
      </trkpt>
      <trkpt lat="47.79752" lon="-3.52631">
        <ele>19</ele>
        <time>2019-07-15T09:42:26Z</time>
      </trkpt>
      <trkpt lat="47.79754" lon="-3.5262">
        <ele>19</ele>
        <time>2019-07-15T09:42:27Z</time>
      </trkpt>
      <trkpt lat="47.79753" lon="-3.5261">
        <ele>19</ele>
        <time>2019-07-15T09:42:28Z</time>
      </trkpt>
      <trkpt lat="47.79751" lon="-3.526">
        <ele>19</ele>
        <time>2019-07-15T09:42:29Z</time>
      </trkpt>
      <trkpt lat="47.7975" lon="-3.5259">
        <ele>18</ele>
        <time>2019-07-15T09:42:30Z</time>
      </trkpt>
      <trkpt lat="47.79751" lon="-3.5258">
        <ele>18</ele>
        <time>2019-07-15T09:42:31Z</time>
      </trkpt>
      <trkpt lat="47.79752" lon="-3.5257">
        <ele>17</ele>
        <time>2019-07-15T09:42:32Z</time>
      </trkpt>
      <trkpt lat="47.79755" lon="-3.52559">
        <ele>17</ele>
        <time>2019-07-15T09:42:33Z</time>
      </trkpt>
      <trkpt lat="47.79757" lon="-3.52549">
        <ele>16</ele>
        <time>2019-07-15T09:42:34Z</time>
      </trkpt>
      <trkpt lat="47.79759" lon="-3.52539">
        <ele>16</ele>
        <time>2019-07-15T09:42:35Z</time>
      </trkpt>
      <trkpt lat="47.79762" lon="-3.52531">
        <ele>15</ele>
        <time>2019-07-15T09:42:36Z</time>
      </trkpt>
      <trkpt lat="47.79765" lon="-3.52522">
        <ele>15</ele>
        <time>2019-07-15T09:42:37Z</time>
      </trkpt>
      <trkpt lat="47.79767" lon="-3.52514">
        <ele>14</ele>
        <time>2019-07-15T09:42:38Z</time>
      </trkpt>
      <trkpt lat="47.7977" lon="-3.52506">
        <ele>14</ele>
        <time>2019-07-15T09:42:39Z</time>
      </trkpt>
      <trkpt lat="47.79772" lon="-3.52498">
        <ele>14</ele>
        <time>2019-07-15T09:42:40Z</time>
      </trkpt>
      <trkpt lat="47.79775" lon="-3.52489">
        <ele>13</ele>
        <time>2019-07-15T09:42:41Z</time>
      </trkpt>
      <trkpt lat="47.79777" lon="-3.52482">
        <ele>13</ele>
        <time>2019-07-15T09:42:42Z</time>
      </trkpt>
      <trkpt lat="47.79778" lon="-3.52475">
        <ele>13</ele>
        <time>2019-07-15T09:42:43Z</time>
      </trkpt>
      <trkpt lat="47.7978" lon="-3.52469">
        <ele>13</ele>
        <time>2019-07-15T09:42:44Z</time>
      </trkpt>
      <trkpt lat="47.79781" lon="-3.52463">
        <ele>13</ele>
        <time>2019-07-15T09:42:45Z</time>
      </trkpt>
      <trkpt lat="47.79783" lon="-3.52459">
        <ele>13</ele>
        <time>2019-07-15T09:42:46Z</time>
      </trkpt>
      <trkpt lat="47.79784" lon="-3.52453">
        <ele>12</ele>
        <time>2019-07-15T09:42:47Z</time>
      </trkpt>
      <trkpt lat="47.79786" lon="-3.52449">
        <ele>12</ele>
        <time>2019-07-15T09:42:48Z</time>
      </trkpt>
      <trkpt lat="47.79787" lon="-3.52445">
        <ele>12</ele>
        <time>2019-07-15T09:42:49Z</time>
      </trkpt>
      <trkpt lat="47.79789" lon="-3.52441">
        <ele>12</ele>
        <time>2019-07-15T09:42:50Z</time>
      </trkpt>
      <trkpt lat="47.7979" lon="-3.52436">
        <ele>12</ele>
        <time>2019-07-15T09:42:51Z</time>
      </trkpt>
      <trkpt lat="47.79792" lon="-3.52432">
        <ele>12</ele>
        <time>2019-07-15T09:42:52Z</time>
      </trkpt>
      <trkpt lat="47.79793" lon="-3.52428">
        <ele>12</ele>
        <time>2019-07-15T09:42:53Z</time>
      </trkpt>
      <trkpt lat="47.79794" lon="-3.52424">
        <ele>12</ele>
        <time>2019-07-15T09:42:54Z</time>
      </trkpt>
      <trkpt lat="47.79796" lon="-3.5242">
        <ele>12</ele>
        <time>2019-07-15T09:42:55Z</time>
      </trkpt>
      <trkpt lat="47.79797" lon="-3.52415">
        <ele>12</ele>
        <time>2019-07-15T09:42:56Z</time>
      </trkpt>
      <trkpt lat="47.79798" lon="-3.52409">
        <ele>12</ele>
        <time>2019-07-15T09:42:57Z</time>
      </trkpt>
      <trkpt lat="47.79798" lon="-3.52404">
        <ele>12</ele>
        <time>2019-07-15T09:42:58Z</time>
      </trkpt>
      <trkpt lat="47.79799" lon="-3.524">
        <ele>12</ele>
        <time>2019-07-15T09:42:59Z</time>
      </trkpt>
      <trkpt lat="47.798" lon="-3.52396">
        <ele>12</ele>
        <time>2019-07-15T09:43:00Z</time>
      </trkpt>
      <trkpt lat="47.79801" lon="-3.52393">
        <ele>12</ele>
        <time>2019-07-15T09:43:01Z</time>
      </trkpt>
      <trkpt lat="47.79802" lon="-3.52389">
        <ele>12</ele>
        <time>2019-07-15T09:43:02Z</time>
      </trkpt>
      <trkpt lat="47.79803" lon="-3.52386">
        <ele>12</ele>
        <time>2019-07-15T09:43:03Z</time>
      </trkpt>
      <trkpt lat="47.79804" lon="-3.52382">
        <ele>12</ele>
        <time>2019-07-15T09:43:04Z</time>
      </trkpt>
      <trkpt lat="47.79806" lon="-3.52377">
        <ele>13</ele>
        <time>2019-07-15T09:43:05Z</time>
      </trkpt>
      <trkpt lat="47.79808" lon="-3.52373">
        <ele>13</ele>
        <time>2019-07-15T09:43:06Z</time>
      </trkpt>
      <trkpt lat="47.7981" lon="-3.52368">
        <ele>13</ele>
        <time>2019-07-15T09:43:07Z</time>
      </trkpt>
      <trkpt lat="47.79812" lon="-3.52363">
        <ele>13</ele>
        <time>2019-07-15T09:43:08Z</time>
      </trkpt>
      <trkpt lat="47.79814" lon="-3.52358">
        <ele>13</ele>
        <time>2019-07-15T09:43:09Z</time>
      </trkpt>
      <trkpt lat="47.79816" lon="-3.52354">
        <ele>13</ele>
        <time>2019-07-15T09:43:10Z</time>
      </trkpt>
      <trkpt lat="47.79818" lon="-3.52349">
        <ele>13</ele>
        <time>2019-07-15T09:43:11Z</time>
      </trkpt>
      <trkpt lat="47.7982" lon="-3.52344">
        <ele>13</ele>
        <time>2019-07-15T09:43:12Z</time>
      </trkpt>
      <trkpt lat="47.79822" lon="-3.5234">
        <ele>13</ele>
        <time>2019-07-15T09:43:13Z</time>
      </trkpt>
      <trkpt lat="47.79824" lon="-3.52336">
        <ele>13</ele>
        <time>2019-07-15T09:43:14Z</time>
      </trkpt>
      <trkpt lat="47.79826" lon="-3.52332">
        <ele>13</ele>
        <time>2019-07-15T09:43:15Z</time>
      </trkpt>
      <trkpt lat="47.79829" lon="-3.52329">
        <ele>13</ele>
        <time>2019-07-15T09:43:16Z</time>
      </trkpt>
      <trkpt lat="47.79832" lon="-3.52326">
        <ele>13</ele>
        <time>2019-07-15T09:43:17Z</time>
      </trkpt>
      <trkpt lat="47.79834" lon="-3.52323">
        <ele>13</ele>
        <time>2019-07-15T09:43:18Z</time>
      </trkpt>
      <trkpt lat="47.79836" lon="-3.52321">
        <ele>12</ele>
        <time>2019-07-15T09:43:19Z</time>
      </trkpt>
      <trkpt lat="47.79837" lon="-3.52319">
        <ele>12</ele>
        <time>2019-07-15T09:43:20Z</time>
      </trkpt>
      <trkpt lat="47.7984" lon="-3.52317">
        <ele>12</ele>
        <time>2019-07-15T09:43:21Z</time>
      </trkpt>
      <trkpt lat="47.79841" lon="-3.52315">
        <ele>12</ele>
        <time>2019-07-15T09:43:22Z</time>
      </trkpt>
      <trkpt lat="47.79842" lon="-3.52311">
        <ele>12</ele>
        <time>2019-07-15T09:43:23Z</time>
      </trkpt>
      <trkpt lat="47.79842" lon="-3.52307">
        <ele>12</ele>
        <time>2019-07-15T09:43:24Z</time>
      </trkpt>
      <trkpt lat="47.79841" lon="-3.52303">
        <ele>12</ele>
        <time>2019-07-15T09:43:25Z</time>
      </trkpt>
      <trkpt lat="47.79839" lon="-3.523">
        <ele>12</ele>
        <time>2019-07-15T09:43:26Z</time>
      </trkpt>
      <trkpt lat="47.79836" lon="-3.523">
        <ele>12</ele>
        <time>2019-07-15T09:43:27Z</time>
      </trkpt>
      <trkpt lat="47.79832" lon="-3.52301">
        <ele>12</ele>
        <time>2019-07-15T09:43:28Z</time>
      </trkpt>
      <trkpt lat="47.79828" lon="-3.52302">
        <ele>12</ele>
        <time>2019-07-15T09:43:29Z</time>
      </trkpt>
      <trkpt lat="47.79824" lon="-3.52303">
        <ele>12</ele>
        <time>2019-07-15T09:43:30Z</time>
      </trkpt>
      <trkpt lat="47.7982" lon="-3.52304">
        <ele>12</ele>
        <time>2019-07-15T09:43:31Z</time>
      </trkpt>
      <trkpt lat="47.79816" lon="-3.52306">
        <ele>12</ele>
        <time>2019-07-15T09:43:32Z</time>
      </trkpt>
      <trkpt lat="47.79812" lon="-3.52308">
        <ele>12</ele>
        <time>2019-07-15T09:43:33Z</time>
      </trkpt>
      <trkpt lat="47.79808" lon="-3.52309">
        <ele>12</ele>
        <time>2019-07-15T09:43:34Z</time>
      </trkpt>
      <trkpt lat="47.79804" lon="-3.5231">
        <ele>12</ele>
        <time>2019-07-15T09:43:35Z</time>
      </trkpt>
      <trkpt lat="47.798" lon="-3.52312">
        <ele>12</ele>
        <time>2019-07-15T09:43:36Z</time>
      </trkpt>
      <trkpt lat="47.79796" lon="-3.52313">
        <ele>12</ele>
        <time>2019-07-15T09:43:37Z</time>
      </trkpt>
      <trkpt lat="47.79791" lon="-3.52314">
        <ele>12</ele>
        <time>2019-07-15T09:43:38Z</time>
      </trkpt>
      <trkpt lat="47.79787" lon="-3.52316">
        <ele>12</ele>
        <time>2019-07-15T09:43:39Z</time>
      </trkpt>
      <trkpt lat="47.79782" lon="-3.52318">
        <ele>12</ele>
        <time>2019-07-15T09:43:40Z</time>
      </trkpt>
      <trkpt lat="47.79778" lon="-3.52319">
        <ele>12</ele>
        <time>2019-07-15T09:43:41Z</time>
      </trkpt>
      <trkpt lat="47.79773" lon="-3.52321">
        <ele>12</ele>
        <time>2019-07-15T09:43:42Z</time>
      </trkpt>
      <trkpt lat="47.79768" lon="-3.52323">
        <ele>12</ele>
        <time>2019-07-15T09:43:43Z</time>
      </trkpt>
      <trkpt lat="47.79763" lon="-3.52324">
        <ele>12</ele>
        <time>2019-07-15T09:43:44Z</time>
      </trkpt>
      <trkpt lat="47.79758" lon="-3.52326">
        <ele>12</ele>
        <time>2019-07-15T09:43:45Z</time>
      </trkpt>
      <trkpt lat="47.79754" lon="-3.52328">
        <ele>12</ele>
        <time>2019-07-15T09:43:46Z</time>
      </trkpt>
      <trkpt lat="47.79749" lon="-3.5233">
        <ele>12</ele>
        <time>2019-07-15T09:43:47Z</time>
      </trkpt>
      <trkpt lat="47.79744" lon="-3.52331">
        <ele>12</ele>
        <time>2019-07-15T09:43:48Z</time>
      </trkpt>
      <trkpt lat="47.79739" lon="-3.52333">
        <ele>12</ele>
        <time>2019-07-15T09:43:49Z</time>
      </trkpt>
      <trkpt lat="47.79734" lon="-3.52335">
        <ele>12</ele>
        <time>2019-07-15T09:43:50Z</time>
      </trkpt>
      <trkpt lat="47.79729" lon="-3.52337">
        <ele>12</ele>
        <time>2019-07-15T09:43:51Z</time>
      </trkpt>
      <trkpt lat="47.79724" lon="-3.52339">
        <ele>12</ele>
        <time>2019-07-15T09:43:52Z</time>
      </trkpt>
      <trkpt lat="47.79719" lon="-3.5234">
        <ele>12</ele>
        <time>2019-07-15T09:43:53Z</time>
      </trkpt>
      <trkpt lat="47.79714" lon="-3.52342">
        <ele>12</ele>
        <time>2019-07-15T09:43:54Z</time>
      </trkpt>
      <trkpt lat="47.79709" lon="-3.52344">
        <ele>12</ele>
        <time>2019-07-15T09:43:55Z</time>
      </trkpt>
      <trkpt lat="47.79703" lon="-3.52346">
        <ele>12</ele>
        <time>2019-07-15T09:43:56Z</time>
      </trkpt>
      <trkpt lat="47.79698" lon="-3.52348">
        <ele>12</ele>
        <time>2019-07-15T09:43:57Z</time>
      </trkpt>
      <trkpt lat="47.79693" lon="-3.5235">
        <ele>12</ele>
        <time>2019-07-15T09:43:58Z</time>
      </trkpt>
      <trkpt lat="47.79688" lon="-3.52352">
        <ele>12</ele>
        <time>2019-07-15T09:43:59Z</time>
      </trkpt>
      <trkpt lat="47.79683" lon="-3.52354">
        <ele>12</ele>
        <time>2019-07-15T09:44:00Z</time>
      </trkpt>
      <trkpt lat="47.79678" lon="-3.52356">
        <ele>12</ele>
        <time>2019-07-15T09:44:01Z</time>
      </trkpt>
      <trkpt lat="47.79672" lon="-3.52357">
        <ele>12</ele>
        <time>2019-07-15T09:44:02Z</time>
      </trkpt>
      <trkpt lat="47.79667" lon="-3.52359">
        <ele>12</ele>
        <time>2019-07-15T09:44:03Z</time>
      </trkpt>
      <trkpt lat="47.79662" lon="-3.52361">
        <ele>12</ele>
        <time>2019-07-15T09:44:04Z</time>
      </trkpt>
      <trkpt lat="47.79657" lon="-3.52363">
        <ele>12</ele>
        <time>2019-07-15T09:44:05Z</time>
      </trkpt>
      <trkpt lat="47.79651" lon="-3.52365">
        <ele>12</ele>
        <time>2019-07-15T09:44:06Z</time>
      </trkpt>
      <trkpt lat="47.79646" lon="-3.52367">
        <ele>12</ele>
        <time>2019-07-15T09:44:07Z</time>
      </trkpt>
      <trkpt lat="47.7964" lon="-3.52369">
        <ele>12</ele>
        <time>2019-07-15T09:44:08Z</time>
      </trkpt>
      <trkpt lat="47.79634" lon="-3.52371">
        <ele>12</ele>
        <time>2019-07-15T09:44:09Z</time>
      </trkpt>
      <trkpt lat="47.79629" lon="-3.52373">
        <ele>12</ele>
        <time>2019-07-15T09:44:10Z</time>
      </trkpt>
      <trkpt lat="47.79623" lon="-3.52374">
        <ele>12</ele>
        <time>2019-07-15T09:44:11Z</time>
      </trkpt>
      <trkpt lat="47.79618" lon="-3.52377">
        <ele>12</ele>
        <time>2019-07-15T09:44:12Z</time>
      </trkpt>
      <trkpt lat="47.79612" lon="-3.52379">
        <ele>12</ele>
        <time>2019-07-15T09:44:13Z</time>
      </trkpt>
      <trkpt lat="47.79607" lon="-3.52381">
        <ele>12</ele>
        <time>2019-07-15T09:44:14Z</time>
      </trkpt>
      <trkpt lat="47.79602" lon="-3.52383">
        <ele>12</ele>
        <time>2019-07-15T09:44:15Z</time>
      </trkpt>
      <trkpt lat="47.79597" lon="-3.52384">
        <ele>12</ele>
        <time>2019-07-15T09:44:16Z</time>
      </trkpt>
      <trkpt lat="47.79593" lon="-3.52386">
        <ele>12</ele>
        <time>2019-07-15T09:44:17Z</time>
      </trkpt>
      <trkpt lat="47.79588" lon="-3.52388">
        <ele>12</ele>
        <time>2019-07-15T09:44:18Z</time>
      </trkpt>
      <trkpt lat="47.79584" lon="-3.52389">
        <ele>12</ele>
        <time>2019-07-15T09:44:19Z</time>
      </trkpt>
      <trkpt lat="47.79581" lon="-3.5239">
        <ele>12</ele>
        <time>2019-07-15T09:44:20Z</time>
      </trkpt>
      <trkpt lat="47.79578" lon="-3.52388">
        <ele>12</ele>
        <time>2019-07-15T09:44:21Z</time>
      </trkpt>
      <trkpt lat="47.79575" lon="-3.52386">
        <ele>12</ele>
        <time>2019-07-15T09:44:22Z</time>
      </trkpt>
      <trkpt lat="47.79575" lon="-3.52385">
        <ele>12</ele>
        <time>2019-07-15T09:44:23Z</time>
      </trkpt>
      <trkpt lat="47.79577" lon="-3.52384">
        <ele>12</ele>
        <time>2019-07-15T09:44:24Z</time>
      </trkpt>
      <trkpt lat="47.7958" lon="-3.52383">
        <ele>12</ele>
        <time>2019-07-15T09:44:25Z</time>
      </trkpt>
      <trkpt lat="47.79583" lon="-3.52382">
        <ele>13</ele>
        <time>2019-07-15T09:44:26Z</time>
      </trkpt>
      <trkpt lat="47.79587" lon="-3.5238">
        <ele>13</ele>
        <time>2019-07-15T09:44:27Z</time>
      </trkpt>
      <trkpt lat="47.7959" lon="-3.5238">
        <ele>13</ele>
        <time>2019-07-15T09:44:28Z</time>
      </trkpt>
      <trkpt lat="47.79594" lon="-3.52379">
        <ele>13</ele>
        <time>2019-07-15T09:44:29Z</time>
      </trkpt>
      <trkpt lat="47.79597" lon="-3.52378">
        <ele>14</ele>
        <time>2019-07-15T09:44:30Z</time>
      </trkpt>
      <trkpt lat="47.796" lon="-3.52377">
        <ele>14</ele>
        <time>2019-07-15T09:44:31Z</time>
      </trkpt>
      <trkpt lat="47.796" lon="-3.52376">
        <ele>14</ele>
        <time>2019-07-15T09:44:32Z</time>
      </trkpt>
      <trkpt lat="47.796" lon="-3.52374">
        <ele>15</ele>
        <time>2019-07-15T09:44:33Z</time>
      </trkpt>
      <trkpt lat="47.796" lon="-3.52373">
        <ele>15</ele>
        <time>2019-07-15T09:44:34Z</time>
      </trkpt>
      <trkpt lat="47.796" lon="-3.52371">
        <ele>15</ele>
        <time>2019-07-15T09:44:35Z</time>
      </trkpt>
      <trkpt lat="47.796" lon="-3.5237">
        <ele>15</ele>
        <time>2019-07-15T09:44:36Z</time>
      </trkpt>
      <trkpt lat="47.796" lon="-3.52369">
        <ele>15</ele>
        <time>2019-07-15T09:44:37Z</time>
      </trkpt>
      <trkpt lat="47.79598" lon="-3.5236">
        <ele>17</ele>
        <time>2019-07-15T09:44:38Z</time>
      </trkpt>
      <trkpt lat="47.79598" lon="-3.52358">
        <ele>17</ele>
        <time>2019-07-15T09:44:39Z</time>
      </trkpt>
      <trkpt lat="47.79598" lon="-3.52356">
        <ele>17</ele>
        <time>2019-07-15T09:44:40Z</time>
      </trkpt>
      <trkpt lat="47.79599" lon="-3.52353">
        <ele>17</ele>
        <time>2019-07-15T09:44:41Z</time>
      </trkpt>
      <trkpt lat="47.796" lon="-3.5235">
        <ele>17</ele>
        <time>2019-07-15T09:44:42Z</time>
      </trkpt>
      <trkpt lat="47.79601" lon="-3.52346">
        <ele>17</ele>
        <time>2019-07-15T09:44:43Z</time>
      </trkpt>
      <trkpt lat="47.79601" lon="-3.52343">
        <ele>17</ele>
        <time>2019-07-15T09:44:44Z</time>
      </trkpt>
      <trkpt lat="47.79601" lon="-3.52339">
        <ele>17</ele>
        <time>2019-07-15T09:44:45Z</time>
      </trkpt>
      <trkpt lat="47.79601" lon="-3.52335">
        <ele>17</ele>
        <time>2019-07-15T09:44:46Z</time>
      </trkpt>
      <trkpt lat="47.79602" lon="-3.52333">
        <ele>17</ele>
        <time>2019-07-15T09:44:47Z</time>
      </trkpt>
      <trkpt lat="47.79603" lon="-3.5233">
        <ele>17</ele>
        <time>2019-07-15T09:44:48Z</time>
      </trkpt>
      <trkpt lat="47.79603" lon="-3.52327">
        <ele>17</ele>
        <time>2019-07-15T09:44:49Z</time>
      </trkpt>
      <trkpt lat="47.79603" lon="-3.52324">
        <ele>17</ele>
        <time>2019-07-15T09:44:50Z</time>
      </trkpt>
      <trkpt lat="47.79604" lon="-3.5232">
        <ele>17</ele>
        <time>2019-07-15T09:44:51Z</time>
      </trkpt>
      <trkpt lat="47.79604" lon="-3.52317">
        <ele>17</ele>
        <time>2019-07-15T09:44:52Z</time>
      </trkpt>
      <trkpt lat="47.79605" lon="-3.52313">
        <ele>17</ele>
        <time>2019-07-15T09:44:53Z</time>
      </trkpt>
      <trkpt lat="47.79606" lon="-3.5231">
        <ele>18</ele>
        <time>2019-07-15T09:44:54Z</time>
      </trkpt>
      <trkpt lat="47.79606" lon="-3.52305">
        <ele>18</ele>
        <time>2019-07-15T09:44:55Z</time>
      </trkpt>
      <trkpt lat="47.79606" lon="-3.52302">
        <ele>18</ele>
        <time>2019-07-15T09:44:56Z</time>
      </trkpt>
      <trkpt lat="47.79606" lon="-3.52298">
        <ele>18</ele>
        <time>2019-07-15T09:44:57Z</time>
      </trkpt>
      <trkpt lat="47.79607" lon="-3.52295">
        <ele>18</ele>
        <time>2019-07-15T09:44:58Z</time>
      </trkpt>
      <trkpt lat="47.79607" lon="-3.52291">
        <ele>18</ele>
        <time>2019-07-15T09:44:59Z</time>
      </trkpt>
      <trkpt lat="47.79607" lon="-3.52288">
        <ele>18</ele>
        <time>2019-07-15T09:45:00Z</time>
      </trkpt>
      <trkpt lat="47.79607" lon="-3.52285">
        <ele>18</ele>
        <time>2019-07-15T09:45:01Z</time>
      </trkpt>
      <trkpt lat="47.79607" lon="-3.52281">
        <ele>18</ele>
        <time>2019-07-15T09:45:02Z</time>
      </trkpt>
      <trkpt lat="47.79607" lon="-3.52278">
        <ele>18</ele>
        <time>2019-07-15T09:45:03Z</time>
      </trkpt>
      <trkpt lat="47.79607" lon="-3.52275">
        <ele>18</ele>
        <time>2019-07-15T09:45:04Z</time>
      </trkpt>
      <trkpt lat="47.79607" lon="-3.52272">
        <ele>19</ele>
        <time>2019-07-15T09:45:05Z</time>
      </trkpt>
      <trkpt lat="47.79607" lon="-3.52269">
        <ele>19</ele>
        <time>2019-07-15T09:45:06Z</time>
      </trkpt>
      <trkpt lat="47.79607" lon="-3.52266">
        <ele>19</ele>
        <time>2019-07-15T09:45:07Z</time>
      </trkpt>
      <trkpt lat="47.79606" lon="-3.52263">
        <ele>19</ele>
        <time>2019-07-15T09:45:08Z</time>
      </trkpt>
      <trkpt lat="47.79606" lon="-3.52259">
        <ele>19</ele>
        <time>2019-07-15T09:45:09Z</time>
      </trkpt>
      <trkpt lat="47.79606" lon="-3.52255">
        <ele>19</ele>
        <time>2019-07-15T09:45:10Z</time>
      </trkpt>
      <trkpt lat="47.79605" lon="-3.52252">
        <ele>19</ele>
        <time>2019-07-15T09:45:11Z</time>
      </trkpt>
      <trkpt lat="47.79605" lon="-3.52249">
        <ele>19</ele>
        <time>2019-07-15T09:45:12Z</time>
      </trkpt>
      <trkpt lat="47.79604" lon="-3.52247">
        <ele>19</ele>
        <time>2019-07-15T09:45:13Z</time>
      </trkpt>
      <trkpt lat="47.79604" lon="-3.52245">
        <ele>20</ele>
        <time>2019-07-15T09:45:14Z</time>
      </trkpt>
      <trkpt lat="47.79604" lon="-3.52243">
        <ele>20</ele>
        <time>2019-07-15T09:45:15Z</time>
      </trkpt>
      <trkpt lat="47.79603" lon="-3.52239">
        <ele>20</ele>
        <time>2019-07-15T09:45:16Z</time>
      </trkpt>
      <trkpt lat="47.79603" lon="-3.52237">
        <ele>20</ele>
        <time>2019-07-15T09:45:17Z</time>
      </trkpt>
      <trkpt lat="47.79602" lon="-3.52233">
        <ele>20</ele>
        <time>2019-07-15T09:45:18Z</time>
      </trkpt>
      <trkpt lat="47.79601" lon="-3.5223">
        <ele>20</ele>
        <time>2019-07-15T09:45:19Z</time>
      </trkpt>
      <trkpt lat="47.79601" lon="-3.52227">
        <ele>20</ele>
        <time>2019-07-15T09:45:20Z</time>
      </trkpt>
      <trkpt lat="47.796" lon="-3.52223">
        <ele>20</ele>
        <time>2019-07-15T09:45:21Z</time>
      </trkpt>
      <trkpt lat="47.79599" lon="-3.5222">
        <ele>21</ele>
        <time>2019-07-15T09:45:22Z</time>
      </trkpt>
      <trkpt lat="47.79599" lon="-3.52218">
        <ele>21</ele>
        <time>2019-07-15T09:45:23Z</time>
      </trkpt>
      <trkpt lat="47.79598" lon="-3.52214">
        <ele>21</ele>
        <time>2019-07-15T09:45:24Z</time>
      </trkpt>
      <trkpt lat="47.79597" lon="-3.52211">
        <ele>21</ele>
        <time>2019-07-15T09:45:25Z</time>
      </trkpt>
      <trkpt lat="47.79597" lon="-3.52208">
        <ele>21</ele>
        <time>2019-07-15T09:45:26Z</time>
      </trkpt>
      <trkpt lat="47.79596" lon="-3.52204">
        <ele>21</ele>
        <time>2019-07-15T09:45:27Z</time>
      </trkpt>
      <trkpt lat="47.79596" lon="-3.52201">
        <ele>21</ele>
        <time>2019-07-15T09:45:28Z</time>
      </trkpt>
      <trkpt lat="47.79595" lon="-3.52197">
        <ele>21</ele>
        <time>2019-07-15T09:45:29Z</time>
      </trkpt>
      <trkpt lat="47.79595" lon="-3.52194">
        <ele>22</ele>
        <time>2019-07-15T09:45:30Z</time>
      </trkpt>
      <trkpt lat="47.79594" lon="-3.5219">
        <ele>22</ele>
        <time>2019-07-15T09:45:31Z</time>
      </trkpt>
      <trkpt lat="47.79594" lon="-3.52187">
        <ele>22</ele>
        <time>2019-07-15T09:45:32Z</time>
      </trkpt>
      <trkpt lat="47.79594" lon="-3.52184">
        <ele>22</ele>
        <time>2019-07-15T09:45:33Z</time>
      </trkpt>
      <trkpt lat="47.79593" lon="-3.52181">
        <ele>22</ele>
        <time>2019-07-15T09:45:34Z</time>
      </trkpt>
      <trkpt lat="47.79592" lon="-3.52177">
        <ele>23</ele>
        <time>2019-07-15T09:45:35Z</time>
      </trkpt>
      <trkpt lat="47.79591" lon="-3.52173">
        <ele>23</ele>
        <time>2019-07-15T09:45:36Z</time>
      </trkpt>
      <trkpt lat="47.79591" lon="-3.5217">
        <ele>23</ele>
        <time>2019-07-15T09:45:37Z</time>
      </trkpt>
      <trkpt lat="47.79591" lon="-3.52166">
        <ele>23</ele>
        <time>2019-07-15T09:45:38Z</time>
      </trkpt>
      <trkpt lat="47.7959" lon="-3.52163">
        <ele>23</ele>
        <time>2019-07-15T09:45:39Z</time>
      </trkpt>
      <trkpt lat="47.7959" lon="-3.52159">
        <ele>24</ele>
        <time>2019-07-15T09:45:40Z</time>
      </trkpt>
      <trkpt lat="47.7959" lon="-3.52156">
        <ele>24</ele>
        <time>2019-07-15T09:45:41Z</time>
      </trkpt>
      <trkpt lat="47.7959" lon="-3.52151">
        <ele>24</ele>
        <time>2019-07-15T09:45:42Z</time>
      </trkpt>
      <trkpt lat="47.79591" lon="-3.52148">
        <ele>24</ele>
        <time>2019-07-15T09:45:43Z</time>
      </trkpt>
      <trkpt lat="47.79591" lon="-3.52144">
        <ele>24</ele>
        <time>2019-07-15T09:45:44Z</time>
      </trkpt>
      <trkpt lat="47.79592" lon="-3.5214">
        <ele>25</ele>
        <time>2019-07-15T09:45:45Z</time>
      </trkpt>
      <trkpt lat="47.79592" lon="-3.52137">
        <ele>25</ele>
        <time>2019-07-15T09:45:46Z</time>
      </trkpt>
      <trkpt lat="47.79593" lon="-3.52134">
        <ele>25</ele>
        <time>2019-07-15T09:45:47Z</time>
      </trkpt>
      <trkpt lat="47.79594" lon="-3.52131">
        <ele>25</ele>
        <time>2019-07-15T09:45:48Z</time>
      </trkpt>
      <trkpt lat="47.79594" lon="-3.52127">
        <ele>26</ele>
        <time>2019-07-15T09:45:49Z</time>
      </trkpt>
      <trkpt lat="47.79595" lon="-3.52124">
        <ele>26</ele>
        <time>2019-07-15T09:45:50Z</time>
      </trkpt>
      <trkpt lat="47.79595" lon="-3.52121">
        <ele>26</ele>
        <time>2019-07-15T09:45:51Z</time>
      </trkpt>
      <trkpt lat="47.79596" lon="-3.52118">
        <ele>26</ele>
        <time>2019-07-15T09:45:52Z</time>
      </trkpt>
      <trkpt lat="47.79597" lon="-3.52115">
        <ele>27</ele>
        <time>2019-07-15T09:45:53Z</time>
      </trkpt>
      <trkpt lat="47.79597" lon="-3.52112">
        <ele>27</ele>
        <time>2019-07-15T09:45:54Z</time>
      </trkpt>
      <trkpt lat="47.79598" lon="-3.5211">
        <ele>27</ele>
        <time>2019-07-15T09:45:55Z</time>
      </trkpt>
      <trkpt lat="47.79599" lon="-3.52107">
        <ele>28</ele>
        <time>2019-07-15T09:45:56Z</time>
      </trkpt>
      <trkpt lat="47.79601" lon="-3.52103">
        <ele>28</ele>
        <time>2019-07-15T09:45:57Z</time>
      </trkpt>
      <trkpt lat="47.79602" lon="-3.521">
        <ele>28</ele>
        <time>2019-07-15T09:45:58Z</time>
      </trkpt>
      <trkpt lat="47.79603" lon="-3.52096">
        <ele>29</ele>
        <time>2019-07-15T09:45:59Z</time>
      </trkpt>
      <trkpt lat="47.79604" lon="-3.52092">
        <ele>29</ele>
        <time>2019-07-15T09:46:00Z</time>
      </trkpt>
      <trkpt lat="47.79605" lon="-3.52088">
        <ele>29</ele>
        <time>2019-07-15T09:46:01Z</time>
      </trkpt>
      <trkpt lat="47.79606" lon="-3.52083">
        <ele>30</ele>
        <time>2019-07-15T09:46:02Z</time>
      </trkpt>
      <trkpt lat="47.79606" lon="-3.52078">
        <ele>30</ele>
        <time>2019-07-15T09:46:03Z</time>
      </trkpt>
      <trkpt lat="47.79606" lon="-3.52074">
        <ele>30</ele>
        <time>2019-07-15T09:46:04Z</time>
      </trkpt>
      <trkpt lat="47.79607" lon="-3.52071">
        <ele>30</ele>
        <time>2019-07-15T09:46:05Z</time>
      </trkpt>
      <trkpt lat="47.79608" lon="-3.52067">
        <ele>31</ele>
        <time>2019-07-15T09:46:06Z</time>
      </trkpt>
      <trkpt lat="47.79608" lon="-3.52062">
        <ele>31</ele>
        <time>2019-07-15T09:46:07Z</time>
      </trkpt>
      <trkpt lat="47.79609" lon="-3.52059">
        <ele>31</ele>
        <time>2019-07-15T09:46:08Z</time>
      </trkpt>
      <trkpt lat="47.7961" lon="-3.52055">
        <ele>31</ele>
        <time>2019-07-15T09:46:09Z</time>
      </trkpt>
      <trkpt lat="47.79611" lon="-3.52051">
        <ele>32</ele>
        <time>2019-07-15T09:46:10Z</time>
      </trkpt>
      <trkpt lat="47.79612" lon="-3.52048">
        <ele>32</ele>
        <time>2019-07-15T09:46:11Z</time>
      </trkpt>
      <trkpt lat="47.79613" lon="-3.52046">
        <ele>32</ele>
        <time>2019-07-15T09:46:12Z</time>
      </trkpt>
      <trkpt lat="47.79614" lon="-3.52045">
        <ele>33</ele>
        <time>2019-07-15T09:46:13Z</time>
      </trkpt>
      <trkpt lat="47.79614" lon="-3.52044">
        <ele>33</ele>
        <time>2019-07-15T09:46:14Z</time>
      </trkpt>
      <trkpt lat="47.79615" lon="-3.52042">
        <ele>34</ele>
        <time>2019-07-15T09:46:15Z</time>
      </trkpt>
      <trkpt lat="47.79616" lon="-3.52041">
        <ele>34</ele>
        <time>2019-07-15T09:46:16Z</time>
      </trkpt>
      <trkpt lat="47.79617" lon="-3.52039">
        <ele>35</ele>
        <time>2019-07-15T09:46:17Z</time>
      </trkpt>
      <trkpt lat="47.79619" lon="-3.52037">
        <ele>35</ele>
        <time>2019-07-15T09:46:18Z</time>
      </trkpt>
      <trkpt lat="47.79621" lon="-3.52035">
        <ele>35</ele>
        <time>2019-07-15T09:46:19Z</time>
      </trkpt>
      <trkpt lat="47.79622" lon="-3.52033">
        <ele>36</ele>
        <time>2019-07-15T09:46:20Z</time>
      </trkpt>
      <trkpt lat="47.79624" lon="-3.52031">
        <ele>36</ele>
        <time>2019-07-15T09:46:21Z</time>
      </trkpt>
      <trkpt lat="47.79625" lon="-3.52029">
        <ele>36</ele>
        <time>2019-07-15T09:46:22Z</time>
      </trkpt>
      <trkpt lat="47.79627" lon="-3.52028">
        <ele>37</ele>
        <time>2019-07-15T09:46:23Z</time>
      </trkpt>
      <trkpt lat="47.79629" lon="-3.52026">
        <ele>37</ele>
        <time>2019-07-15T09:46:24Z</time>
      </trkpt>
      <trkpt lat="47.7963" lon="-3.52024">
        <ele>37</ele>
        <time>2019-07-15T09:46:25Z</time>
      </trkpt>
      <trkpt lat="47.79631" lon="-3.52022">
        <ele>38</ele>
        <time>2019-07-15T09:46:26Z</time>
      </trkpt>
      <trkpt lat="47.79633" lon="-3.5202">
        <ele>38</ele>
        <time>2019-07-15T09:46:27Z</time>
      </trkpt>
      <trkpt lat="47.79636" lon="-3.52018">
        <ele>38</ele>
        <time>2019-07-15T09:46:28Z</time>
      </trkpt>
      <trkpt lat="47.7964" lon="-3.52015">
        <ele>38</ele>
        <time>2019-07-15T09:46:29Z</time>
      </trkpt>
      <trkpt lat="47.79643" lon="-3.52013">
        <ele>39</ele>
        <time>2019-07-15T09:46:30Z</time>
      </trkpt>
      <trkpt lat="47.79646" lon="-3.5201">
        <ele>39</ele>
        <time>2019-07-15T09:46:31Z</time>
      </trkpt>
      <trkpt lat="47.79649" lon="-3.52007">
        <ele>39</ele>
        <time>2019-07-15T09:46:32Z</time>
      </trkpt>
      <trkpt lat="47.79651" lon="-3.52005">
        <ele>39</ele>
        <time>2019-07-15T09:46:33Z</time>
      </trkpt>
      <trkpt lat="47.79653" lon="-3.52002">
        <ele>39</ele>
        <time>2019-07-15T09:46:34Z</time>
      </trkpt>
      <trkpt lat="47.79655" lon="-3.51998">
        <ele>40</ele>
        <time>2019-07-15T09:46:35Z</time>
      </trkpt>
      <trkpt lat="47.79657" lon="-3.51994">
        <ele>40</ele>
        <time>2019-07-15T09:46:36Z</time>
      </trkpt>
      <trkpt lat="47.79658" lon="-3.51991">
        <ele>40</ele>
        <time>2019-07-15T09:46:37Z</time>
      </trkpt>
      <trkpt lat="47.7966" lon="-3.51987">
        <ele>40</ele>
        <time>2019-07-15T09:46:38Z</time>
      </trkpt>
      <trkpt lat="47.79662" lon="-3.51983">
        <ele>41</ele>
        <time>2019-07-15T09:46:39Z</time>
      </trkpt>
      <trkpt lat="47.79664" lon="-3.5198">
        <ele>41</ele>
        <time>2019-07-15T09:46:40Z</time>
      </trkpt>
      <trkpt lat="47.79666" lon="-3.51977">
        <ele>41</ele>
        <time>2019-07-15T09:46:41Z</time>
      </trkpt>
      <trkpt lat="47.79668" lon="-3.51974">
        <ele>41</ele>
        <time>2019-07-15T09:46:42Z</time>
      </trkpt>
      <trkpt lat="47.79671" lon="-3.51971">
        <ele>41</ele>
        <time>2019-07-15T09:46:43Z</time>
      </trkpt>
      <trkpt lat="47.79674" lon="-3.51968">
        <ele>42</ele>
        <time>2019-07-15T09:46:44Z</time>
      </trkpt>
      <trkpt lat="47.79677" lon="-3.51966">
        <ele>42</ele>
        <time>2019-07-15T09:46:45Z</time>
      </trkpt>
      <trkpt lat="47.79679" lon="-3.51963">
        <ele>42</ele>
        <time>2019-07-15T09:46:46Z</time>
      </trkpt>
      <trkpt lat="47.79682" lon="-3.5196">
        <ele>42</ele>
        <time>2019-07-15T09:46:47Z</time>
      </trkpt>
      <trkpt lat="47.79685" lon="-3.51957">
        <ele>42</ele>
        <time>2019-07-15T09:46:48Z</time>
      </trkpt>
      <trkpt lat="47.79688" lon="-3.51955">
        <ele>43</ele>
        <time>2019-07-15T09:46:49Z</time>
      </trkpt>
      <trkpt lat="47.79691" lon="-3.51954">
        <ele>43</ele>
        <time>2019-07-15T09:46:50Z</time>
      </trkpt>
      <trkpt lat="47.79693" lon="-3.51952">
        <ele>43</ele>
        <time>2019-07-15T09:46:51Z</time>
      </trkpt>
      <trkpt lat="47.79696" lon="-3.5195">
        <ele>43</ele>
        <time>2019-07-15T09:46:52Z</time>
      </trkpt>
      <trkpt lat="47.79699" lon="-3.51949">
        <ele>43</ele>
        <time>2019-07-15T09:46:53Z</time>
      </trkpt>
      <trkpt lat="47.79702" lon="-3.51946">
        <ele>43</ele>
        <time>2019-07-15T09:46:54Z</time>
      </trkpt>
      <trkpt lat="47.79706" lon="-3.51942">
        <ele>43</ele>
        <time>2019-07-15T09:46:55Z</time>
      </trkpt>
      <trkpt lat="47.79709" lon="-3.51938">
        <ele>43</ele>
        <time>2019-07-15T09:46:56Z</time>
      </trkpt>
      <trkpt lat="47.79713" lon="-3.51936">
        <ele>43</ele>
        <time>2019-07-15T09:46:57Z</time>
      </trkpt>
      <trkpt lat="47.79716" lon="-3.51933">
        <ele>43</ele>
        <time>2019-07-15T09:46:58Z</time>
      </trkpt>
      <trkpt lat="47.7972" lon="-3.51931">
        <ele>43</ele>
        <time>2019-07-15T09:46:59Z</time>
      </trkpt>
      <trkpt lat="47.79724" lon="-3.51929">
        <ele>43</ele>
        <time>2019-07-15T09:47:00Z</time>
      </trkpt>
      <trkpt lat="47.79728" lon="-3.51928">
        <ele>43</ele>
        <time>2019-07-15T09:47:01Z</time>
      </trkpt>
      <trkpt lat="47.79732" lon="-3.51926">
        <ele>43</ele>
        <time>2019-07-15T09:47:02Z</time>
      </trkpt>
      <trkpt lat="47.79737" lon="-3.51925">
        <ele>42</ele>
        <time>2019-07-15T09:47:03Z</time>
      </trkpt>
      <trkpt lat="47.79742" lon="-3.51923">
        <ele>42</ele>
        <time>2019-07-15T09:47:04Z</time>
      </trkpt>
      <trkpt lat="47.79748" lon="-3.51921">
        <ele>42</ele>
        <time>2019-07-15T09:47:05Z</time>
      </trkpt>
      <trkpt lat="47.79754" lon="-3.51919">
        <ele>42</ele>
        <time>2019-07-15T09:47:06Z</time>
      </trkpt>
      <trkpt lat="47.79759" lon="-3.51918">
        <ele>42</ele>
        <time>2019-07-15T09:47:07Z</time>
      </trkpt>
      <trkpt lat="47.79764" lon="-3.51916">
        <ele>42</ele>
        <time>2019-07-15T09:47:08Z</time>
      </trkpt>
      <trkpt lat="47.79769" lon="-3.51913">
        <ele>42</ele>
        <time>2019-07-15T09:47:09Z</time>
      </trkpt>
      <trkpt lat="47.79774" lon="-3.5191">
        <ele>42</ele>
        <time>2019-07-15T09:47:10Z</time>
      </trkpt>
      <trkpt lat="47.79778" lon="-3.51908">
        <ele>42</ele>
        <time>2019-07-15T09:47:11Z</time>
      </trkpt>
      <trkpt lat="47.79782" lon="-3.51905">
        <ele>42</ele>
        <time>2019-07-15T09:47:12Z</time>
      </trkpt>
      <trkpt lat="47.79787" lon="-3.51904">
        <ele>42</ele>
        <time>2019-07-15T09:47:13Z</time>
      </trkpt>
      <trkpt lat="47.79791" lon="-3.51901">
        <ele>42</ele>
        <time>2019-07-15T09:47:14Z</time>
      </trkpt>
      <trkpt lat="47.79795" lon="-3.51898">
        <ele>42</ele>
        <time>2019-07-15T09:47:15Z</time>
      </trkpt>
      <trkpt lat="47.79798" lon="-3.51896">
        <ele>42</ele>
        <time>2019-07-15T09:47:16Z</time>
      </trkpt>
      <trkpt lat="47.79802" lon="-3.51894">
        <ele>42</ele>
        <time>2019-07-15T09:47:17Z</time>
      </trkpt>
      <trkpt lat="47.79806" lon="-3.51891">
        <ele>42</ele>
        <time>2019-07-15T09:47:18Z</time>
      </trkpt>
      <trkpt lat="47.79809" lon="-3.51888">
        <ele>42</ele>
        <time>2019-07-15T09:47:19Z</time>
      </trkpt>
      <trkpt lat="47.79812" lon="-3.51885">
        <ele>42</ele>
        <time>2019-07-15T09:47:20Z</time>
      </trkpt>
      <trkpt lat="47.79814" lon="-3.51884">
        <ele>42</ele>
        <time>2019-07-15T09:47:21Z</time>
      </trkpt>
      <trkpt lat="47.79818" lon="-3.51881">
        <ele>42</ele>
        <time>2019-07-15T09:47:22Z</time>
      </trkpt>
      <trkpt lat="47.79822" lon="-3.51878">
        <ele>42</ele>
        <time>2019-07-15T09:47:23Z</time>
      </trkpt>
      <trkpt lat="47.79825" lon="-3.51874">
        <ele>42</ele>
        <time>2019-07-15T09:47:24Z</time>
      </trkpt>
      <trkpt lat="47.79829" lon="-3.51871">
        <ele>42</ele>
        <time>2019-07-15T09:47:25Z</time>
      </trkpt>
      <trkpt lat="47.79833" lon="-3.51867">
        <ele>42</ele>
        <time>2019-07-15T09:47:26Z</time>
      </trkpt>
      <trkpt lat="47.79836" lon="-3.51862">
        <ele>42</ele>
        <time>2019-07-15T09:47:27Z</time>
      </trkpt>
      <trkpt lat="47.79838" lon="-3.51859">
        <ele>42</ele>
        <time>2019-07-15T09:47:28Z</time>
      </trkpt>
      <trkpt lat="47.79842" lon="-3.51856">
        <ele>42</ele>
        <time>2019-07-15T09:47:29Z</time>
      </trkpt>
      <trkpt lat="47.79846" lon="-3.51852">
        <ele>42</ele>
        <time>2019-07-15T09:47:30Z</time>
      </trkpt>
      <trkpt lat="47.79849" lon="-3.51849">
        <ele>42</ele>
        <time>2019-07-15T09:47:31Z</time>
      </trkpt>
      <trkpt lat="47.79853" lon="-3.51846">
        <ele>42</ele>
        <time>2019-07-15T09:47:32Z</time>
      </trkpt>
      <trkpt lat="47.79857" lon="-3.51843">
        <ele>42</ele>
        <time>2019-07-15T09:47:33Z</time>
      </trkpt>
      <trkpt lat="47.7986" lon="-3.51841">
        <ele>43</ele>
        <time>2019-07-15T09:47:34Z</time>
      </trkpt>
      <trkpt lat="47.79864" lon="-3.51838">
        <ele>43</ele>
        <time>2019-07-15T09:47:35Z</time>
      </trkpt>
      <trkpt lat="47.79867" lon="-3.51836">
        <ele>43</ele>
        <time>2019-07-15T09:47:36Z</time>
      </trkpt>
      <trkpt lat="47.7987" lon="-3.51835">
        <ele>44</ele>
        <time>2019-07-15T09:47:37Z</time>
      </trkpt>
      <trkpt lat="47.79873" lon="-3.51833">
        <ele>44</ele>
        <time>2019-07-15T09:47:38Z</time>
      </trkpt>
      <trkpt lat="47.79876" lon="-3.5183">
        <ele>44</ele>
        <time>2019-07-15T09:47:39Z</time>
      </trkpt>
      <trkpt lat="47.7988" lon="-3.51828">
        <ele>45</ele>
        <time>2019-07-15T09:47:40Z</time>
      </trkpt>
      <trkpt lat="47.79883" lon="-3.51825">
        <ele>45</ele>
        <time>2019-07-15T09:47:41Z</time>
      </trkpt>
      <trkpt lat="47.79888" lon="-3.51822">
        <ele>45</ele>
        <time>2019-07-15T09:47:42Z</time>
      </trkpt>
      <trkpt lat="47.79893" lon="-3.51819">
        <ele>45</ele>
        <time>2019-07-15T09:47:43Z</time>
      </trkpt>
      <trkpt lat="47.79897" lon="-3.51818">
        <ele>45</ele>
        <time>2019-07-15T09:47:44Z</time>
      </trkpt>
      <trkpt lat="47.79902" lon="-3.51816">
        <ele>45</ele>
        <time>2019-07-15T09:47:45Z</time>
      </trkpt>
      <trkpt lat="47.79906" lon="-3.51815">
        <ele>45</ele>
        <time>2019-07-15T09:47:46Z</time>
      </trkpt>
      <trkpt lat="47.7991" lon="-3.51815">
        <ele>45</ele>
        <time>2019-07-15T09:47:47Z</time>
      </trkpt>
      <trkpt lat="47.79914" lon="-3.51814">
        <ele>45</ele>
        <time>2019-07-15T09:47:48Z</time>
      </trkpt>
      <trkpt lat="47.79918" lon="-3.51813">
        <ele>45</ele>
        <time>2019-07-15T09:47:49Z</time>
      </trkpt>
      <trkpt lat="47.79922" lon="-3.51811">
        <ele>45</ele>
        <time>2019-07-15T09:47:50Z</time>
      </trkpt>
      <trkpt lat="47.79927" lon="-3.51808">
        <ele>45</ele>
        <time>2019-07-15T09:47:51Z</time>
      </trkpt>
      <trkpt lat="47.79931" lon="-3.51807">
        <ele>45</ele>
        <time>2019-07-15T09:47:52Z</time>
      </trkpt>
      <trkpt lat="47.79936" lon="-3.51806">
        <ele>45</ele>
        <time>2019-07-15T09:47:53Z</time>
      </trkpt>
      <trkpt lat="47.79941" lon="-3.51805">
        <ele>44</ele>
        <time>2019-07-15T09:47:54Z</time>
      </trkpt>
      <trkpt lat="47.79945" lon="-3.51805">
        <ele>44</ele>
        <time>2019-07-15T09:47:55Z</time>
      </trkpt>
      <trkpt lat="47.7995" lon="-3.51804">
        <ele>44</ele>
        <time>2019-07-15T09:47:56Z</time>
      </trkpt>
      <trkpt lat="47.79955" lon="-3.51803">
        <ele>44</ele>
        <time>2019-07-15T09:47:57Z</time>
      </trkpt>
      <trkpt lat="47.79961" lon="-3.51805">
        <ele>44</ele>
        <time>2019-07-15T09:47:58Z</time>
      </trkpt>
      <trkpt lat="47.79967" lon="-3.51806">
        <ele>44</ele>
        <time>2019-07-15T09:47:59Z</time>
      </trkpt>
      <trkpt lat="47.79975" lon="-3.51809">
        <ele>44</ele>
        <time>2019-07-15T09:48:00Z</time>
      </trkpt>
      <trkpt lat="47.79984" lon="-3.51813">
        <ele>44</ele>
        <time>2019-07-15T09:48:01Z</time>
      </trkpt>
      <trkpt lat="47.79992" lon="-3.51818">
        <ele>43</ele>
        <time>2019-07-15T09:48:02Z</time>
      </trkpt>
      <trkpt lat="47.80001" lon="-3.51822">
        <ele>43</ele>
        <time>2019-07-15T09:48:03Z</time>
      </trkpt>
      <trkpt lat="47.8001" lon="-3.51825">
        <ele>43</ele>
        <time>2019-07-15T09:48:04Z</time>
      </trkpt>
      <trkpt lat="47.80017" lon="-3.51827">
        <ele>42</ele>
        <time>2019-07-15T09:48:05Z</time>
      </trkpt>
      <trkpt lat="47.80024" lon="-3.51828">
        <ele>42</ele>
        <time>2019-07-15T09:48:06Z</time>
      </trkpt>
      <trkpt lat="47.80029" lon="-3.51828">
        <ele>41</ele>
        <time>2019-07-15T09:48:07Z</time>
      </trkpt>
      <trkpt lat="47.80035" lon="-3.51826">
        <ele>41</ele>
        <time>2019-07-15T09:48:08Z</time>
      </trkpt>
      <trkpt lat="47.8004" lon="-3.51825">
        <ele>41</ele>
        <time>2019-07-15T09:48:09Z</time>
      </trkpt>
      <trkpt lat="47.80045" lon="-3.51823">
        <ele>40</ele>
        <time>2019-07-15T09:48:10Z</time>
      </trkpt>
      <trkpt lat="47.80052" lon="-3.5182">
        <ele>40</ele>
        <time>2019-07-15T09:48:11Z</time>
      </trkpt>
      <trkpt lat="47.80059" lon="-3.51817">
        <ele>40</ele>
        <time>2019-07-15T09:48:12Z</time>
      </trkpt>
      <trkpt lat="47.80065" lon="-3.51813">
        <ele>40</ele>
        <time>2019-07-15T09:48:13Z</time>
      </trkpt>
      <trkpt lat="47.80071" lon="-3.51809">
        <ele>40</ele>
        <time>2019-07-15T09:48:14Z</time>
      </trkpt>
      <trkpt lat="47.80078" lon="-3.51803">
        <ele>40</ele>
        <time>2019-07-15T09:48:15Z</time>
      </trkpt>
      <trkpt lat="47.80084" lon="-3.51797">
        <ele>40</ele>
        <time>2019-07-15T09:48:16Z</time>
      </trkpt>
      <trkpt lat="47.80089" lon="-3.51792">
        <ele>40</ele>
        <time>2019-07-15T09:48:17Z</time>
      </trkpt>
      <trkpt lat="47.80093" lon="-3.51787">
        <ele>40</ele>
        <time>2019-07-15T09:48:18Z</time>
      </trkpt>
      <trkpt lat="47.80096" lon="-3.51783">
        <ele>39</ele>
        <time>2019-07-15T09:48:19Z</time>
      </trkpt>
      <trkpt lat="47.80098" lon="-3.51781">
        <ele>39</ele>
        <time>2019-07-15T09:48:20Z</time>
      </trkpt>
      <trkpt lat="47.80099" lon="-3.51779">
        <ele>39</ele>
        <time>2019-07-15T09:48:21Z</time>
      </trkpt>
      <trkpt lat="47.801" lon="-3.51778">
        <ele>40</ele>
        <time>2019-07-15T09:48:22Z</time>
      </trkpt>
      <trkpt lat="47.80102" lon="-3.51777">
        <ele>40</ele>
        <time>2019-07-15T09:48:23Z</time>
      </trkpt>
      <trkpt lat="47.80103" lon="-3.51776">
        <ele>39</ele>
        <time>2019-07-15T09:48:24Z</time>
      </trkpt>
      <trkpt lat="47.80104" lon="-3.51775">
        <ele>39</ele>
        <time>2019-07-15T09:48:25Z</time>
      </trkpt>
      <trkpt lat="47.80106" lon="-3.51774">
        <ele>39</ele>
        <time>2019-07-15T09:48:26Z</time>
      </trkpt>
      <trkpt lat="47.80106" lon="-3.51773">
        <ele>39</ele>
        <time>2019-07-15T09:48:27Z</time>
      </trkpt>
      <trkpt lat="47.80106" lon="-3.51773">
        <ele>39</ele>
        <time>2019-07-15T09:48:28Z</time>
      </trkpt>
      <trkpt lat="47.80107" lon="-3.51773">
        <ele>39</ele>
        <time>2019-07-15T09:48:29Z</time>
      </trkpt>
      <trkpt lat="47.80118" lon="-3.51762">
        <ele>38</ele>
        <time>2019-07-15T09:48:30Z</time>
      </trkpt>
      <trkpt lat="47.80118" lon="-3.51761">
        <ele>38</ele>
        <time>2019-07-15T09:48:31Z</time>
      </trkpt>
      <trkpt lat="47.80119" lon="-3.51759">
        <ele>38</ele>
        <time>2019-07-15T09:48:32Z</time>
      </trkpt>
      <trkpt lat="47.8012" lon="-3.51756">
        <ele>38</ele>
        <time>2019-07-15T09:48:33Z</time>
      </trkpt>
      <trkpt lat="47.80121" lon="-3.51754">
        <ele>38</ele>
        <time>2019-07-15T09:48:34Z</time>
      </trkpt>
      <trkpt lat="47.80122" lon="-3.51751">
        <ele>38</ele>
        <time>2019-07-15T09:48:35Z</time>
      </trkpt>
      <trkpt lat="47.80123" lon="-3.51749">
        <ele>38</ele>
        <time>2019-07-15T09:48:36Z</time>
      </trkpt>
      <trkpt lat="47.80124" lon="-3.51746">
        <ele>38</ele>
        <time>2019-07-15T09:48:37Z</time>
      </trkpt>
      <trkpt lat="47.80125" lon="-3.51744">
        <ele>38</ele>
        <time>2019-07-15T09:48:38Z</time>
      </trkpt>
      <trkpt lat="47.80125" lon="-3.51741">
        <ele>38</ele>
        <time>2019-07-15T09:48:39Z</time>
      </trkpt>
      <trkpt lat="47.80126" lon="-3.51737">
        <ele>37</ele>
        <time>2019-07-15T09:48:40Z</time>
      </trkpt>
      <trkpt lat="47.80128" lon="-3.51733">
        <ele>37</ele>
        <time>2019-07-15T09:48:41Z</time>
      </trkpt>
      <trkpt lat="47.80129" lon="-3.51728">
        <ele>37</ele>
        <time>2019-07-15T09:48:42Z</time>
      </trkpt>
      <trkpt lat="47.80129" lon="-3.51722">
        <ele>37</ele>
        <time>2019-07-15T09:48:43Z</time>
      </trkpt>
      <trkpt lat="47.8013" lon="-3.51716">
        <ele>37</ele>
        <time>2019-07-15T09:48:44Z</time>
      </trkpt>
      <trkpt lat="47.80132" lon="-3.51709">
        <ele>37</ele>
        <time>2019-07-15T09:48:45Z</time>
      </trkpt>
      <trkpt lat="47.80133" lon="-3.51703">
        <ele>37</ele>
        <time>2019-07-15T09:48:46Z</time>
      </trkpt>
      <trkpt lat="47.80133" lon="-3.51696">
        <ele>37</ele>
        <time>2019-07-15T09:48:47Z</time>
      </trkpt>
      <trkpt lat="47.80134" lon="-3.51691">
        <ele>37</ele>
        <time>2019-07-15T09:48:48Z</time>
      </trkpt>
      <trkpt lat="47.80136" lon="-3.51687">
        <ele>37</ele>
        <time>2019-07-15T09:48:49Z</time>
      </trkpt>
      <trkpt lat="47.80139" lon="-3.51685">
        <ele>37</ele>
        <time>2019-07-15T09:48:50Z</time>
      </trkpt>
      <trkpt lat="47.80142" lon="-3.51685">
        <ele>36</ele>
        <time>2019-07-15T09:48:51Z</time>
      </trkpt>
      <trkpt lat="47.80145" lon="-3.51686">
        <ele>36</ele>
        <time>2019-07-15T09:48:52Z</time>
      </trkpt>
      <trkpt lat="47.80151" lon="-3.51688">
        <ele>36</ele>
        <time>2019-07-15T09:48:53Z</time>
      </trkpt>
      <trkpt lat="47.80155" lon="-3.51691">
        <ele>36</ele>
        <time>2019-07-15T09:48:54Z</time>
      </trkpt>
      <trkpt lat="47.80161" lon="-3.51694">
        <ele>35</ele>
        <time>2019-07-15T09:48:55Z</time>
      </trkpt>
      <trkpt lat="47.80166" lon="-3.51697">
        <ele>35</ele>
        <time>2019-07-15T09:48:56Z</time>
      </trkpt>
      <trkpt lat="47.80171" lon="-3.517">
        <ele>35</ele>
        <time>2019-07-15T09:48:57Z</time>
      </trkpt>
      <trkpt lat="47.80175" lon="-3.51702">
        <ele>35</ele>
        <time>2019-07-15T09:48:58Z</time>
      </trkpt>
      <trkpt lat="47.80179" lon="-3.51704">
        <ele>35</ele>
        <time>2019-07-15T09:48:59Z</time>
      </trkpt>
      <trkpt lat="47.80184" lon="-3.51706">
        <ele>35</ele>
        <time>2019-07-15T09:49:00Z</time>
      </trkpt>
      <trkpt lat="47.80188" lon="-3.51707">
        <ele>34</ele>
        <time>2019-07-15T09:49:01Z</time>
      </trkpt>
      <trkpt lat="47.80192" lon="-3.51707">
        <ele>34</ele>
        <time>2019-07-15T09:49:02Z</time>
      </trkpt>
      <trkpt lat="47.80196" lon="-3.51705">
        <ele>34</ele>
        <time>2019-07-15T09:49:03Z</time>
      </trkpt>
      <trkpt lat="47.80199" lon="-3.51704">
        <ele>34</ele>
        <time>2019-07-15T09:49:04Z</time>
      </trkpt>
      <trkpt lat="47.80202" lon="-3.51704">
        <ele>34</ele>
        <time>2019-07-15T09:49:05Z</time>
      </trkpt>
      <trkpt lat="47.80206" lon="-3.51702">
        <ele>34</ele>
        <time>2019-07-15T09:49:06Z</time>
      </trkpt>
      <trkpt lat="47.80209" lon="-3.51701">
        <ele>34</ele>
        <time>2019-07-15T09:49:07Z</time>
      </trkpt>
      <trkpt lat="47.80212" lon="-3.51701">
        <ele>34</ele>
        <time>2019-07-15T09:49:08Z</time>
      </trkpt>
      <trkpt lat="47.80215" lon="-3.51701">
        <ele>34</ele>
        <time>2019-07-15T09:49:09Z</time>
      </trkpt>
      <trkpt lat="47.80218" lon="-3.517">
        <ele>35</ele>
        <time>2019-07-15T09:49:10Z</time>
      </trkpt>
      <trkpt lat="47.8022" lon="-3.517">
        <ele>35</ele>
        <time>2019-07-15T09:49:11Z</time>
      </trkpt>
      <trkpt lat="47.80223" lon="-3.517">
        <ele>35</ele>
        <time>2019-07-15T09:49:12Z</time>
      </trkpt>
      <trkpt lat="47.80227" lon="-3.51699">
        <ele>35</ele>
        <time>2019-07-15T09:49:13Z</time>
      </trkpt>
      <trkpt lat="47.8023" lon="-3.51699">
        <ele>35</ele>
        <time>2019-07-15T09:49:14Z</time>
      </trkpt>
      <trkpt lat="47.80233" lon="-3.51699">
        <ele>35</ele>
        <time>2019-07-15T09:49:15Z</time>
      </trkpt>
      <trkpt lat="47.80235" lon="-3.51699">
        <ele>35</ele>
        <time>2019-07-15T09:49:16Z</time>
      </trkpt>
      <trkpt lat="47.80239" lon="-3.51699">
        <ele>35</ele>
        <time>2019-07-15T09:49:17Z</time>
      </trkpt>
      <trkpt lat="47.80243" lon="-3.51699">
        <ele>35</ele>
        <time>2019-07-15T09:49:18Z</time>
      </trkpt>
      <trkpt lat="47.80246" lon="-3.51699">
        <ele>35</ele>
        <time>2019-07-15T09:49:19Z</time>
      </trkpt>
      <trkpt lat="47.80249" lon="-3.517">
        <ele>35</ele>
        <time>2019-07-15T09:49:20Z</time>
      </trkpt>
      <trkpt lat="47.80251" lon="-3.517">
        <ele>35</ele>
        <time>2019-07-15T09:49:21Z</time>
      </trkpt>
      <trkpt lat="47.80254" lon="-3.51702">
        <ele>35</ele>
        <time>2019-07-15T09:49:22Z</time>
      </trkpt>
      <trkpt lat="47.80258" lon="-3.51703">
        <ele>35</ele>
        <time>2019-07-15T09:49:23Z</time>
      </trkpt>
      <trkpt lat="47.80261" lon="-3.51704">
        <ele>35</ele>
        <time>2019-07-15T09:49:24Z</time>
      </trkpt>
      <trkpt lat="47.80265" lon="-3.51705">
        <ele>35</ele>
        <time>2019-07-15T09:49:25Z</time>
      </trkpt>
      <trkpt lat="47.80269" lon="-3.51706">
        <ele>35</ele>
        <time>2019-07-15T09:49:26Z</time>
      </trkpt>
      <trkpt lat="47.80273" lon="-3.51707">
        <ele>35</ele>
        <time>2019-07-15T09:49:27Z</time>
      </trkpt>
      <trkpt lat="47.80276" lon="-3.51708">
        <ele>36</ele>
        <time>2019-07-15T09:49:28Z</time>
      </trkpt>
      <trkpt lat="47.8028" lon="-3.51709">
        <ele>36</ele>
        <time>2019-07-15T09:49:29Z</time>
      </trkpt>
      <trkpt lat="47.80283" lon="-3.51709">
        <ele>36</ele>
        <time>2019-07-15T09:49:30Z</time>
      </trkpt>
      <trkpt lat="47.80287" lon="-3.51709">
        <ele>36</ele>
        <time>2019-07-15T09:49:31Z</time>
      </trkpt>
      <trkpt lat="47.80291" lon="-3.5171">
        <ele>36</ele>
        <time>2019-07-15T09:49:32Z</time>
      </trkpt>
      <trkpt lat="47.80295" lon="-3.51712">
        <ele>36</ele>
        <time>2019-07-15T09:49:33Z</time>
      </trkpt>
      <trkpt lat="47.80299" lon="-3.51712">
        <ele>36</ele>
        <time>2019-07-15T09:49:34Z</time>
      </trkpt>
      <trkpt lat="47.80303" lon="-3.51713">
        <ele>36</ele>
        <time>2019-07-15T09:49:35Z</time>
      </trkpt>
      <trkpt lat="47.80307" lon="-3.51713">
        <ele>36</ele>
        <time>2019-07-15T09:49:36Z</time>
      </trkpt>
      <trkpt lat="47.80311" lon="-3.51714">
        <ele>36</ele>
        <time>2019-07-15T09:49:37Z</time>
      </trkpt>
      <trkpt lat="47.80315" lon="-3.51716">
        <ele>37</ele>
        <time>2019-07-15T09:49:38Z</time>
      </trkpt>
      <trkpt lat="47.80319" lon="-3.51717">
        <ele>37</ele>
        <time>2019-07-15T09:49:39Z</time>
      </trkpt>
      <trkpt lat="47.80322" lon="-3.51717">
        <ele>37</ele>
        <time>2019-07-15T09:49:40Z</time>
      </trkpt>
      <trkpt lat="47.80326" lon="-3.51718">
        <ele>37</ele>
        <time>2019-07-15T09:49:41Z</time>
      </trkpt>
      <trkpt lat="47.80328" lon="-3.51718">
        <ele>37</ele>
        <time>2019-07-15T09:49:42Z</time>
      </trkpt>
      <trkpt lat="47.80331" lon="-3.51718">
        <ele>37</ele>
        <time>2019-07-15T09:49:43Z</time>
      </trkpt>
      <trkpt lat="47.80334" lon="-3.51718">
        <ele>37</ele>
        <time>2019-07-15T09:49:44Z</time>
      </trkpt>
      <trkpt lat="47.80337" lon="-3.51717">
        <ele>37</ele>
        <time>2019-07-15T09:49:45Z</time>
      </trkpt>
      <trkpt lat="47.8034" lon="-3.51716">
        <ele>38</ele>
        <time>2019-07-15T09:49:46Z</time>
      </trkpt>
      <trkpt lat="47.80342" lon="-3.51715">
        <ele>38</ele>
        <time>2019-07-15T09:49:47Z</time>
      </trkpt>
      <trkpt lat="47.80344" lon="-3.51714">
        <ele>38</ele>
        <time>2019-07-15T09:49:48Z</time>
      </trkpt>
      <trkpt lat="47.80347" lon="-3.51712">
        <ele>38</ele>
        <time>2019-07-15T09:49:49Z</time>
      </trkpt>
      <trkpt lat="47.80351" lon="-3.51709">
        <ele>38</ele>
        <time>2019-07-15T09:49:50Z</time>
      </trkpt>
      <trkpt lat="47.80355" lon="-3.51707">
        <ele>38</ele>
        <time>2019-07-15T09:49:51Z</time>
      </trkpt>
      <trkpt lat="47.80358" lon="-3.51706">
        <ele>39</ele>
        <time>2019-07-15T09:49:52Z</time>
      </trkpt>
      <trkpt lat="47.80362" lon="-3.51706">
        <ele>39</ele>
        <time>2019-07-15T09:49:53Z</time>
      </trkpt>
      <trkpt lat="47.80365" lon="-3.51706">
        <ele>39</ele>
        <time>2019-07-15T09:49:54Z</time>
      </trkpt>
      <trkpt lat="47.80367" lon="-3.51706">
        <ele>39</ele>
        <time>2019-07-15T09:49:55Z</time>
      </trkpt>
      <trkpt lat="47.80369" lon="-3.51706">
        <ele>39</ele>
        <time>2019-07-15T09:49:56Z</time>
      </trkpt>
      <trkpt lat="47.80371" lon="-3.51706">
        <ele>39</ele>
        <time>2019-07-15T09:49:57Z</time>
      </trkpt>
      <trkpt lat="47.80372" lon="-3.51706">
        <ele>40</ele>
        <time>2019-07-15T09:49:58Z</time>
      </trkpt>
      <trkpt lat="47.80373" lon="-3.51705">
        <ele>40</ele>
        <time>2019-07-15T09:49:59Z</time>
      </trkpt>
      <trkpt lat="47.80374" lon="-3.51705">
        <ele>40</ele>
        <time>2019-07-15T09:50:00Z</time>
      </trkpt>
      <trkpt lat="47.80375" lon="-3.51704">
        <ele>40</ele>
        <time>2019-07-15T09:50:01Z</time>
      </trkpt>
      <trkpt lat="47.80375" lon="-3.51704">
        <ele>40</ele>
        <time>2019-07-15T09:50:02Z</time>
      </trkpt>
      <trkpt lat="47.80382" lon="-3.51704">
        <ele>41</ele>
        <time>2019-07-15T09:50:03Z</time>
      </trkpt>
      <trkpt lat="47.80384" lon="-3.51707">
        <ele>41</ele>
        <time>2019-07-15T09:50:04Z</time>
      </trkpt>
      <trkpt lat="47.80384" lon="-3.51709">
        <ele>41</ele>
        <time>2019-07-15T09:50:05Z</time>
      </trkpt>
      <trkpt lat="47.80385" lon="-3.51712">
        <ele>41</ele>
        <time>2019-07-15T09:50:06Z</time>
      </trkpt>
      <trkpt lat="47.80385" lon="-3.51714">
        <ele>41</ele>
        <time>2019-07-15T09:50:07Z</time>
      </trkpt>
      <trkpt lat="47.80386" lon="-3.51717">
        <ele>41</ele>
        <time>2019-07-15T09:50:08Z</time>
      </trkpt>
      <trkpt lat="47.80388" lon="-3.5172">
        <ele>41</ele>
        <time>2019-07-15T09:50:09Z</time>
      </trkpt>
      <trkpt lat="47.80389" lon="-3.51724">
        <ele>41</ele>
        <time>2019-07-15T09:50:10Z</time>
      </trkpt>
      <trkpt lat="47.80391" lon="-3.51726">
        <ele>41</ele>
        <time>2019-07-15T09:50:11Z</time>
      </trkpt>
      <trkpt lat="47.80393" lon="-3.51727">
        <ele>41</ele>
        <time>2019-07-15T09:50:12Z</time>
      </trkpt>
      <trkpt lat="47.80394" lon="-3.51729">
        <ele>42</ele>
        <time>2019-07-15T09:50:13Z</time>
      </trkpt>
      <trkpt lat="47.80395" lon="-3.51731">
        <ele>42</ele>
        <time>2019-07-15T09:50:14Z</time>
      </trkpt>
      <trkpt lat="47.80395" lon="-3.51733">
        <ele>42</ele>
        <time>2019-07-15T09:50:15Z</time>
      </trkpt>
      <trkpt lat="47.80396" lon="-3.51737">
        <ele>42</ele>
        <time>2019-07-15T09:50:16Z</time>
      </trkpt>
      <trkpt lat="47.80396" lon="-3.51741">
        <ele>42</ele>
        <time>2019-07-15T09:50:17Z</time>
      </trkpt>
      <trkpt lat="47.80396" lon="-3.51745">
        <ele>42</ele>
        <time>2019-07-15T09:50:18Z</time>
      </trkpt>
      <trkpt lat="47.80395" lon="-3.5175">
        <ele>42</ele>
        <time>2019-07-15T09:50:19Z</time>
      </trkpt>
      <trkpt lat="47.80396" lon="-3.51754">
        <ele>42</ele>
        <time>2019-07-15T09:50:20Z</time>
      </trkpt>
      <trkpt lat="47.80396" lon="-3.51757">
        <ele>42</ele>
        <time>2019-07-15T09:50:21Z</time>
      </trkpt>
      <trkpt lat="47.80396" lon="-3.5176">
        <ele>43</ele>
        <time>2019-07-15T09:50:22Z</time>
      </trkpt>
      <trkpt lat="47.80396" lon="-3.51765">
        <ele>43</ele>
        <time>2019-07-15T09:50:23Z</time>
      </trkpt>
      <trkpt lat="47.80397" lon="-3.5177">
        <ele>43</ele>
        <time>2019-07-15T09:50:24Z</time>
      </trkpt>
      <trkpt lat="47.80398" lon="-3.51774">
        <ele>43</ele>
        <time>2019-07-15T09:50:25Z</time>
      </trkpt>
      <trkpt lat="47.80399" lon="-3.51778">
        <ele>43</ele>
        <time>2019-07-15T09:50:26Z</time>
      </trkpt>
      <trkpt lat="47.80402" lon="-3.5178">
        <ele>43</ele>
        <time>2019-07-15T09:50:27Z</time>
      </trkpt>
      <trkpt lat="47.80403" lon="-3.51783">
        <ele>43</ele>
        <time>2019-07-15T09:50:28Z</time>
      </trkpt>
      <trkpt lat="47.80405" lon="-3.51786">
        <ele>42</ele>
        <time>2019-07-15T09:50:29Z</time>
      </trkpt>
      <trkpt lat="47.80407" lon="-3.5179">
        <ele>42</ele>
        <time>2019-07-15T09:50:30Z</time>
      </trkpt>
      <trkpt lat="47.80408" lon="-3.51795">
        <ele>42</ele>
        <time>2019-07-15T09:50:31Z</time>
      </trkpt>
      <trkpt lat="47.80411" lon="-3.51799">
        <ele>42</ele>
        <time>2019-07-15T09:50:32Z</time>
      </trkpt>
      <trkpt lat="47.80414" lon="-3.51804">
        <ele>42</ele>
        <time>2019-07-15T09:50:33Z</time>
      </trkpt>
      <trkpt lat="47.80417" lon="-3.51807">
        <ele>41</ele>
        <time>2019-07-15T09:50:34Z</time>
      </trkpt>
      <trkpt lat="47.80419" lon="-3.51809">
        <ele>41</ele>
        <time>2019-07-15T09:50:35Z</time>
      </trkpt>
      <trkpt lat="47.80422" lon="-3.51808">
        <ele>41</ele>
        <time>2019-07-15T09:50:36Z</time>
      </trkpt>
      <trkpt lat="47.80425" lon="-3.51806">
        <ele>40</ele>
        <time>2019-07-15T09:50:37Z</time>
      </trkpt>
      <trkpt lat="47.80426" lon="-3.51804">
        <ele>40</ele>
        <time>2019-07-15T09:50:38Z</time>
      </trkpt>
      <trkpt lat="47.80427" lon="-3.51802">
        <ele>40</ele>
        <time>2019-07-15T09:50:39Z</time>
      </trkpt>
      <trkpt lat="47.80428" lon="-3.51801">
        <ele>39</ele>
        <time>2019-07-15T09:50:40Z</time>
      </trkpt>
      <trkpt lat="47.8043" lon="-3.51799">
        <ele>39</ele>
        <time>2019-07-15T09:50:41Z</time>
      </trkpt>
      <trkpt lat="47.80432" lon="-3.51798">
        <ele>39</ele>
        <time>2019-07-15T09:50:42Z</time>
      </trkpt>
      <trkpt lat="47.80435" lon="-3.51796">
        <ele>39</ele>
        <time>2019-07-15T09:50:43Z</time>
      </trkpt>
      <trkpt lat="47.80438" lon="-3.51793">
        <ele>39</ele>
        <time>2019-07-15T09:50:44Z</time>
      </trkpt>
      <trkpt lat="47.80441" lon="-3.51789">
        <ele>38</ele>
        <time>2019-07-15T09:50:45Z</time>
      </trkpt>
      <trkpt lat="47.80444" lon="-3.51784">
        <ele>38</ele>
        <time>2019-07-15T09:50:46Z</time>
      </trkpt>
      <trkpt lat="47.80446" lon="-3.51782">
        <ele>38</ele>
        <time>2019-07-15T09:50:47Z</time>
      </trkpt>
      <trkpt lat="47.80448" lon="-3.51781">
        <ele>38</ele>
        <time>2019-07-15T09:50:48Z</time>
      </trkpt>
      <trkpt lat="47.8045" lon="-3.51781">
        <ele>37</ele>
        <time>2019-07-15T09:50:49Z</time>
      </trkpt>
      <trkpt lat="47.80451" lon="-3.51782">
        <ele>37</ele>
        <time>2019-07-15T09:50:50Z</time>
      </trkpt>
      <trkpt lat="47.80452" lon="-3.51784">
        <ele>36</ele>
        <time>2019-07-15T09:50:51Z</time>
      </trkpt>
      <trkpt lat="47.80454" lon="-3.51786">
        <ele>36</ele>
        <time>2019-07-15T09:50:52Z</time>
      </trkpt>
      <trkpt lat="47.80455" lon="-3.51788">
        <ele>35</ele>
        <time>2019-07-15T09:50:53Z</time>
      </trkpt>
      <trkpt lat="47.80455" lon="-3.51791">
        <ele>35</ele>
        <time>2019-07-15T09:50:54Z</time>
      </trkpt>
      <trkpt lat="47.80456" lon="-3.51793">
        <ele>35</ele>
        <time>2019-07-15T09:50:55Z</time>
      </trkpt>
      <trkpt lat="47.80457" lon="-3.51795">
        <ele>34</ele>
        <time>2019-07-15T09:50:56Z</time>
      </trkpt>
      <trkpt lat="47.80457" lon="-3.51796">
        <ele>34</ele>
        <time>2019-07-15T09:50:57Z</time>
      </trkpt>
      <trkpt lat="47.80458" lon="-3.51796">
        <ele>33</ele>
        <time>2019-07-15T09:50:58Z</time>
      </trkpt>
      <trkpt lat="47.80459" lon="-3.51795">
        <ele>33</ele>
        <time>2019-07-15T09:50:59Z</time>
      </trkpt>
      <trkpt lat="47.8046" lon="-3.51792">
        <ele>32</ele>
        <time>2019-07-15T09:51:00Z</time>
      </trkpt>
      <trkpt lat="47.80461" lon="-3.5179">
        <ele>32</ele>
        <time>2019-07-15T09:51:01Z</time>
      </trkpt>
      <trkpt lat="47.80463" lon="-3.51788">
        <ele>31</ele>
        <time>2019-07-15T09:51:02Z</time>
      </trkpt>
      <trkpt lat="47.80465" lon="-3.51786">
        <ele>31</ele>
        <time>2019-07-15T09:51:03Z</time>
      </trkpt>
      <trkpt lat="47.80467" lon="-3.51783">
        <ele>31</ele>
        <time>2019-07-15T09:51:04Z</time>
      </trkpt>
      <trkpt lat="47.80469" lon="-3.51777">
        <ele>30</ele>
        <time>2019-07-15T09:51:05Z</time>
      </trkpt>
      <trkpt lat="47.8047" lon="-3.51772">
        <ele>30</ele>
        <time>2019-07-15T09:51:06Z</time>
      </trkpt>
      <trkpt lat="47.8047" lon="-3.51767">
        <ele>29</ele>
        <time>2019-07-15T09:51:07Z</time>
      </trkpt>
      <trkpt lat="47.80471" lon="-3.51763">
        <ele>29</ele>
        <time>2019-07-15T09:51:08Z</time>
      </trkpt>
      <trkpt lat="47.80471" lon="-3.51759">
        <ele>29</ele>
        <time>2019-07-15T09:51:09Z</time>
      </trkpt>
      <trkpt lat="47.80471" lon="-3.51755">
        <ele>29</ele>
        <time>2019-07-15T09:51:10Z</time>
      </trkpt>
      <trkpt lat="47.80471" lon="-3.51752">
        <ele>28</ele>
        <time>2019-07-15T09:51:11Z</time>
      </trkpt>
      <trkpt lat="47.80472" lon="-3.51748">
        <ele>28</ele>
        <time>2019-07-15T09:51:12Z</time>
      </trkpt>
      <trkpt lat="47.80473" lon="-3.51745">
        <ele>28</ele>
        <time>2019-07-15T09:51:13Z</time>
      </trkpt>
      <trkpt lat="47.80473" lon="-3.51742">
        <ele>28</ele>
        <time>2019-07-15T09:51:14Z</time>
      </trkpt>
      <trkpt lat="47.80474" lon="-3.51738">
        <ele>27</ele>
        <time>2019-07-15T09:51:15Z</time>
      </trkpt>
      <trkpt lat="47.80475" lon="-3.51735">
        <ele>27</ele>
        <time>2019-07-15T09:51:16Z</time>
      </trkpt>
      <trkpt lat="47.80475" lon="-3.51732">
        <ele>27</ele>
        <time>2019-07-15T09:51:17Z</time>
      </trkpt>
      <trkpt lat="47.80476" lon="-3.51729">
        <ele>27</ele>
        <time>2019-07-15T09:51:18Z</time>
      </trkpt>
      <trkpt lat="47.80477" lon="-3.51724">
        <ele>26</ele>
        <time>2019-07-15T09:51:19Z</time>
      </trkpt>
      <trkpt lat="47.80477" lon="-3.5172">
        <ele>26</ele>
        <time>2019-07-15T09:51:20Z</time>
      </trkpt>
      <trkpt lat="47.80478" lon="-3.51716">
        <ele>26</ele>
        <time>2019-07-15T09:51:21Z</time>
      </trkpt>
      <trkpt lat="47.80478" lon="-3.51713">
        <ele>25</ele>
        <time>2019-07-15T09:51:22Z</time>
      </trkpt>
      <trkpt lat="47.80477" lon="-3.51709">
        <ele>25</ele>
        <time>2019-07-15T09:51:23Z</time>
      </trkpt>
      <trkpt lat="47.80477" lon="-3.51706">
        <ele>25</ele>
        <time>2019-07-15T09:51:24Z</time>
      </trkpt>
      <trkpt lat="47.80477" lon="-3.51702">
        <ele>25</ele>
        <time>2019-07-15T09:51:25Z</time>
      </trkpt>
      <trkpt lat="47.80478" lon="-3.51699">
        <ele>25</ele>
        <time>2019-07-15T09:51:26Z</time>
      </trkpt>
      <trkpt lat="47.80478" lon="-3.51696">
        <ele>25</ele>
        <time>2019-07-15T09:51:27Z</time>
      </trkpt>
      <trkpt lat="47.80479" lon="-3.51693">
        <ele>24</ele>
        <time>2019-07-15T09:51:28Z</time>
      </trkpt>
      <trkpt lat="47.80479" lon="-3.51689">
        <ele>24</ele>
        <time>2019-07-15T09:51:29Z</time>
      </trkpt>
      <trkpt lat="47.80479" lon="-3.51685">
        <ele>24</ele>
        <time>2019-07-15T09:51:30Z</time>
      </trkpt>
      <trkpt lat="47.80479" lon="-3.51681">
        <ele>24</ele>
        <time>2019-07-15T09:51:31Z</time>
      </trkpt>
      <trkpt lat="47.80479" lon="-3.51677">
        <ele>24</ele>
        <time>2019-07-15T09:51:32Z</time>
      </trkpt>
      <trkpt lat="47.80479" lon="-3.51672">
        <ele>24</ele>
        <time>2019-07-15T09:51:33Z</time>
      </trkpt>
      <trkpt lat="47.80479" lon="-3.51669">
        <ele>24</ele>
        <time>2019-07-15T09:51:34Z</time>
      </trkpt>
      <trkpt lat="47.80478" lon="-3.51666">
        <ele>24</ele>
        <time>2019-07-15T09:51:35Z</time>
      </trkpt>
      <trkpt lat="47.80477" lon="-3.51664">
        <ele>24</ele>
        <time>2019-07-15T09:51:36Z</time>
      </trkpt>
      <trkpt lat="47.80477" lon="-3.51661">
        <ele>24</ele>
        <time>2019-07-15T09:51:37Z</time>
      </trkpt>
      <trkpt lat="47.80478" lon="-3.51659">
        <ele>24</ele>
        <time>2019-07-15T09:51:38Z</time>
      </trkpt>
      <trkpt lat="47.80479" lon="-3.51655">
        <ele>24</ele>
        <time>2019-07-15T09:51:39Z</time>
      </trkpt>
      <trkpt lat="47.8048" lon="-3.5165">
        <ele>25</ele>
        <time>2019-07-15T09:51:40Z</time>
      </trkpt>
      <trkpt lat="47.80481" lon="-3.51643">
        <ele>25</ele>
        <time>2019-07-15T09:51:41Z</time>
      </trkpt>
      <trkpt lat="47.80483" lon="-3.51637">
        <ele>25</ele>
        <time>2019-07-15T09:51:42Z</time>
      </trkpt>
      <trkpt lat="47.80484" lon="-3.51633">
        <ele>25</ele>
        <time>2019-07-15T09:51:43Z</time>
      </trkpt>
      <trkpt lat="47.80486" lon="-3.51631">
        <ele>25</ele>
        <time>2019-07-15T09:51:44Z</time>
      </trkpt>
      <trkpt lat="47.80488" lon="-3.51631">
        <ele>25</ele>
        <time>2019-07-15T09:51:45Z</time>
      </trkpt>
      <trkpt lat="47.8049" lon="-3.51631">
        <ele>25</ele>
        <time>2019-07-15T09:51:46Z</time>
      </trkpt>
      <trkpt lat="47.8049" lon="-3.51632">
        <ele>25</ele>
        <time>2019-07-15T09:51:47Z</time>
      </trkpt>
      <trkpt lat="47.80489" lon="-3.51633">
        <ele>25</ele>
        <time>2019-07-15T09:51:48Z</time>
      </trkpt>
      <trkpt lat="47.80489" lon="-3.51634">
        <ele>24</ele>
        <time>2019-07-15T09:51:49Z</time>
      </trkpt>
      <trkpt lat="47.80493" lon="-3.51626">
        <ele>23</ele>
        <time>2019-07-15T09:51:50Z</time>
      </trkpt>
      <trkpt lat="47.80494" lon="-3.51625">
        <ele>23</ele>
        <time>2019-07-15T09:51:51Z</time>
      </trkpt>
      <trkpt lat="47.80495" lon="-3.51624">
        <ele>23</ele>
        <time>2019-07-15T09:51:52Z</time>
      </trkpt>
      <trkpt lat="47.80499" lon="-3.5163">
        <ele>20</ele>
        <time>2019-07-15T09:51:53Z</time>
      </trkpt>
      <trkpt lat="47.805" lon="-3.51631">
        <ele>20</ele>
        <time>2019-07-15T09:51:54Z</time>
      </trkpt>
      <trkpt lat="47.80501" lon="-3.51633">
        <ele>19</ele>
        <time>2019-07-15T09:51:55Z</time>
      </trkpt>
      <trkpt lat="47.80502" lon="-3.51634">
        <ele>19</ele>
        <time>2019-07-15T09:51:56Z</time>
      </trkpt>
      <trkpt lat="47.80503" lon="-3.51635">
        <ele>19</ele>
        <time>2019-07-15T09:51:57Z</time>
      </trkpt>
      <trkpt lat="47.80504" lon="-3.51636">
        <ele>19</ele>
        <time>2019-07-15T09:51:58Z</time>
      </trkpt>
      <trkpt lat="47.80505" lon="-3.51637">
        <ele>18</ele>
        <time>2019-07-15T09:51:59Z</time>
      </trkpt>
      <trkpt lat="47.80506" lon="-3.51638">
        <ele>18</ele>
        <time>2019-07-15T09:52:00Z</time>
      </trkpt>
      <trkpt lat="47.80507" lon="-3.5164">
        <ele>18</ele>
        <time>2019-07-15T09:52:01Z</time>
      </trkpt>
      <trkpt lat="47.80507" lon="-3.51641">
        <ele>18</ele>
        <time>2019-07-15T09:52:02Z</time>
      </trkpt>
      <trkpt lat="47.80509" lon="-3.51642">
        <ele>18</ele>
        <time>2019-07-15T09:52:03Z</time>
      </trkpt>
      <trkpt lat="47.80509" lon="-3.51644">
        <ele>18</ele>
        <time>2019-07-15T09:52:04Z</time>
      </trkpt>
      <trkpt lat="47.80509" lon="-3.51646">
        <ele>18</ele>
        <time>2019-07-15T09:52:05Z</time>
      </trkpt>
      <trkpt lat="47.80509" lon="-3.51649">
        <ele>18</ele>
        <time>2019-07-15T09:52:06Z</time>
      </trkpt>
      <trkpt lat="47.8051" lon="-3.51651">
        <ele>18</ele>
        <time>2019-07-15T09:52:07Z</time>
      </trkpt>
      <trkpt lat="47.8051" lon="-3.51654">
        <ele>18</ele>
        <time>2019-07-15T09:52:08Z</time>
      </trkpt>
      <trkpt lat="47.8051" lon="-3.51656">
        <ele>18</ele>
        <time>2019-07-15T09:52:09Z</time>
      </trkpt>
      <trkpt lat="47.8051" lon="-3.51658">
        <ele>18</ele>
        <time>2019-07-15T09:52:10Z</time>
      </trkpt>
      <trkpt lat="47.8051" lon="-3.51662">
        <ele>18</ele>
        <time>2019-07-15T09:52:11Z</time>
      </trkpt>
      <trkpt lat="47.8051" lon="-3.51666">
        <ele>18</ele>
        <time>2019-07-15T09:52:12Z</time>
      </trkpt>
      <trkpt lat="47.8051" lon="-3.51671">
        <ele>18</ele>
        <time>2019-07-15T09:52:13Z</time>
      </trkpt>
      <trkpt lat="47.80509" lon="-3.51675">
        <ele>18</ele>
        <time>2019-07-15T09:52:14Z</time>
      </trkpt>
      <trkpt lat="47.8051" lon="-3.5168">
        <ele>18</ele>
        <time>2019-07-15T09:52:15Z</time>
      </trkpt>
      <trkpt lat="47.8051" lon="-3.51685">
        <ele>18</ele>
        <time>2019-07-15T09:52:16Z</time>
      </trkpt>
      <trkpt lat="47.80511" lon="-3.51691">
        <ele>18</ele>
        <time>2019-07-15T09:52:17Z</time>
      </trkpt>
      <trkpt lat="47.80511" lon="-3.51697">
        <ele>18</ele>
        <time>2019-07-15T09:52:18Z</time>
      </trkpt>
      <trkpt lat="47.80511" lon="-3.51703">
        <ele>18</ele>
        <time>2019-07-15T09:52:19Z</time>
      </trkpt>
      <trkpt lat="47.80511" lon="-3.51708">
        <ele>18</ele>
        <time>2019-07-15T09:52:20Z</time>
      </trkpt>
      <trkpt lat="47.80512" lon="-3.51714">
        <ele>18</ele>
        <time>2019-07-15T09:52:21Z</time>
      </trkpt>
      <trkpt lat="47.80512" lon="-3.51718">
        <ele>18</ele>
        <time>2019-07-15T09:52:22Z</time>
      </trkpt>
      <trkpt lat="47.80514" lon="-3.51723">
        <ele>18</ele>
        <time>2019-07-15T09:52:23Z</time>
      </trkpt>
      <trkpt lat="47.80515" lon="-3.51728">
        <ele>18</ele>
        <time>2019-07-15T09:52:24Z</time>
      </trkpt>
      <trkpt lat="47.80516" lon="-3.51731">
        <ele>18</ele>
        <time>2019-07-15T09:52:25Z</time>
      </trkpt>
      <trkpt lat="47.80517" lon="-3.51734">
        <ele>18</ele>
        <time>2019-07-15T09:52:26Z</time>
      </trkpt>
      <trkpt lat="47.80519" lon="-3.51737">
        <ele>18</ele>
        <time>2019-07-15T09:52:27Z</time>
      </trkpt>
      <trkpt lat="47.8052" lon="-3.5174">
        <ele>18</ele>
        <time>2019-07-15T09:52:28Z</time>
      </trkpt>
      <trkpt lat="47.80522" lon="-3.51743">
        <ele>18</ele>
        <time>2019-07-15T09:52:29Z</time>
      </trkpt>
      <trkpt lat="47.80523" lon="-3.51746">
        <ele>17</ele>
        <time>2019-07-15T09:52:30Z</time>
      </trkpt>
      <trkpt lat="47.80524" lon="-3.5175">
        <ele>17</ele>
        <time>2019-07-15T09:52:31Z</time>
      </trkpt>
      <trkpt lat="47.80525" lon="-3.51752">
        <ele>17</ele>
        <time>2019-07-15T09:52:32Z</time>
      </trkpt>
      <trkpt lat="47.80526" lon="-3.51756">
        <ele>17</ele>
        <time>2019-07-15T09:52:33Z</time>
      </trkpt>
      <trkpt lat="47.80528" lon="-3.5176">
        <ele>17</ele>
        <time>2019-07-15T09:52:34Z</time>
      </trkpt>
      <trkpt lat="47.80529" lon="-3.51764">
        <ele>17</ele>
        <time>2019-07-15T09:52:35Z</time>
      </trkpt>
      <trkpt lat="47.80531" lon="-3.51769">
        <ele>17</ele>
        <time>2019-07-15T09:52:36Z</time>
      </trkpt>
      <trkpt lat="47.80532" lon="-3.51772">
        <ele>16</ele>
        <time>2019-07-15T09:52:37Z</time>
      </trkpt>
      <trkpt lat="47.80533" lon="-3.51775">
        <ele>16</ele>
        <time>2019-07-15T09:52:38Z</time>
      </trkpt>
      <trkpt lat="47.80533" lon="-3.51778">
        <ele>16</ele>
        <time>2019-07-15T09:52:39Z</time>
      </trkpt>
      <trkpt lat="47.80533" lon="-3.51781">
        <ele>16</ele>
        <time>2019-07-15T09:52:40Z</time>
      </trkpt>
      <trkpt lat="47.80534" lon="-3.51785">
        <ele>16</ele>
        <time>2019-07-15T09:52:41Z</time>
      </trkpt>
      <trkpt lat="47.80535" lon="-3.51789">
        <ele>15</ele>
        <time>2019-07-15T09:52:42Z</time>
      </trkpt>
      <trkpt lat="47.80535" lon="-3.51792">
        <ele>15</ele>
        <time>2019-07-15T09:52:43Z</time>
      </trkpt>
      <trkpt lat="47.80535" lon="-3.51796">
        <ele>15</ele>
        <time>2019-07-15T09:52:44Z</time>
      </trkpt>
      <trkpt lat="47.80535" lon="-3.518">
        <ele>15</ele>
        <time>2019-07-15T09:52:45Z</time>
      </trkpt>
      <trkpt lat="47.80536" lon="-3.51805">
        <ele>15</ele>
        <time>2019-07-15T09:52:46Z</time>
      </trkpt>
      <trkpt lat="47.80536" lon="-3.51809">
        <ele>15</ele>
        <time>2019-07-15T09:52:47Z</time>
      </trkpt>
      <trkpt lat="47.80537" lon="-3.51813">
        <ele>15</ele>
        <time>2019-07-15T09:52:48Z</time>
      </trkpt>
      <trkpt lat="47.80538" lon="-3.51817">
        <ele>15</ele>
        <time>2019-07-15T09:52:49Z</time>
      </trkpt>
      <trkpt lat="47.80539" lon="-3.5182">
        <ele>15</ele>
        <time>2019-07-15T09:52:50Z</time>
      </trkpt>
      <trkpt lat="47.80539" lon="-3.51825">
        <ele>14</ele>
        <time>2019-07-15T09:52:51Z</time>
      </trkpt>
      <trkpt lat="47.80538" lon="-3.5183">
        <ele>14</ele>
        <time>2019-07-15T09:52:52Z</time>
      </trkpt>
      <trkpt lat="47.80537" lon="-3.51836">
        <ele>14</ele>
        <time>2019-07-15T09:52:53Z</time>
      </trkpt>
      <trkpt lat="47.80537" lon="-3.51841">
        <ele>14</ele>
        <time>2019-07-15T09:52:54Z</time>
      </trkpt>
      <trkpt lat="47.80536" lon="-3.51846">
        <ele>14</ele>
        <time>2019-07-15T09:52:55Z</time>
      </trkpt>
      <trkpt lat="47.80536" lon="-3.51851">
        <ele>14</ele>
        <time>2019-07-15T09:52:56Z</time>
      </trkpt>
      <trkpt lat="47.80536" lon="-3.51855">
        <ele>14</ele>
        <time>2019-07-15T09:52:57Z</time>
      </trkpt>
      <trkpt lat="47.80537" lon="-3.51858">
        <ele>14</ele>
        <time>2019-07-15T09:52:58Z</time>
      </trkpt>
      <trkpt lat="47.80537" lon="-3.51861">
        <ele>14</ele>
        <time>2019-07-15T09:52:59Z</time>
      </trkpt>
      <trkpt lat="47.80538" lon="-3.51865">
        <ele>14</ele>
        <time>2019-07-15T09:53:00Z</time>
      </trkpt>
      <trkpt lat="47.80538" lon="-3.51868">
        <ele>14</ele>
        <time>2019-07-15T09:53:01Z</time>
      </trkpt>
      <trkpt lat="47.80538" lon="-3.51872">
        <ele>14</ele>
        <time>2019-07-15T09:53:02Z</time>
      </trkpt>
      <trkpt lat="47.80537" lon="-3.51875">
        <ele>14</ele>
        <time>2019-07-15T09:53:03Z</time>
      </trkpt>
      <trkpt lat="47.80537" lon="-3.51878">
        <ele>15</ele>
        <time>2019-07-15T09:53:04Z</time>
      </trkpt>
      <trkpt lat="47.80537" lon="-3.51881">
        <ele>15</ele>
        <time>2019-07-15T09:53:05Z</time>
      </trkpt>
      <trkpt lat="47.80537" lon="-3.51884">
        <ele>15</ele>
        <time>2019-07-15T09:53:06Z</time>
      </trkpt>
      <trkpt lat="47.80537" lon="-3.51886">
        <ele>15</ele>
        <time>2019-07-15T09:53:07Z</time>
      </trkpt>
      <trkpt lat="47.80537" lon="-3.51887">
        <ele>14</ele>
        <time>2019-07-15T09:53:08Z</time>
      </trkpt>
      <trkpt lat="47.80537" lon="-3.51887">
        <ele>14</ele>
        <time>2019-07-15T09:53:09Z</time>
      </trkpt>
      <trkpt lat="47.80537" lon="-3.51888">
        <ele>14</ele>
        <time>2019-07-15T09:53:10Z</time>
      </trkpt>
      <trkpt lat="47.80537" lon="-3.51888">
        <ele>14</ele>
        <time>2019-07-15T09:53:11Z</time>
      </trkpt>
      <trkpt lat="47.80543" lon="-3.51904">
        <ele>11</ele>
        <time>2019-07-15T09:53:12Z</time>
      </trkpt>
      <trkpt lat="47.80544" lon="-3.51904">
        <ele>11</ele>
        <time>2019-07-15T09:53:13Z</time>
      </trkpt>
      <trkpt lat="47.80547" lon="-3.51918">
        <ele>13</ele>
        <time>2019-07-15T09:53:14Z</time>
      </trkpt>
      <trkpt lat="47.80547" lon="-3.51921">
        <ele>13</ele>
        <time>2019-07-15T09:53:15Z</time>
      </trkpt>
      <trkpt lat="47.80546" lon="-3.51924">
        <ele>13</ele>
        <time>2019-07-15T09:53:16Z</time>
      </trkpt>
      <trkpt lat="47.80547" lon="-3.51927">
        <ele>13</ele>
        <time>2019-07-15T09:53:17Z</time>
      </trkpt>
      <trkpt lat="47.80548" lon="-3.5193">
        <ele>13</ele>
        <time>2019-07-15T09:53:18Z</time>
      </trkpt>
      <trkpt lat="47.80549" lon="-3.51934">
        <ele>13</ele>
        <time>2019-07-15T09:53:19Z</time>
      </trkpt>
      <trkpt lat="47.8055" lon="-3.51937">
        <ele>13</ele>
        <time>2019-07-15T09:53:20Z</time>
      </trkpt>
      <trkpt lat="47.80551" lon="-3.5194">
        <ele>13</ele>
        <time>2019-07-15T09:53:21Z</time>
      </trkpt>
      <trkpt lat="47.80552" lon="-3.51943">
        <ele>13</ele>
        <time>2019-07-15T09:53:22Z</time>
      </trkpt>
      <trkpt lat="47.80552" lon="-3.51946">
        <ele>13</ele>
        <time>2019-07-15T09:53:23Z</time>
      </trkpt>
      <trkpt lat="47.80553" lon="-3.51949">
        <ele>13</ele>
        <time>2019-07-15T09:53:24Z</time>
      </trkpt>
      <trkpt lat="47.80554" lon="-3.51951">
        <ele>13</ele>
        <time>2019-07-15T09:53:25Z</time>
      </trkpt>
      <trkpt lat="47.80554" lon="-3.51953">
        <ele>13</ele>
        <time>2019-07-15T09:53:26Z</time>
      </trkpt>
      <trkpt lat="47.80553" lon="-3.51956">
        <ele>13</ele>
        <time>2019-07-15T09:53:27Z</time>
      </trkpt>
      <trkpt lat="47.80553" lon="-3.51962">
        <ele>13</ele>
        <time>2019-07-15T09:53:28Z</time>
      </trkpt>
      <trkpt lat="47.80553" lon="-3.51968">
        <ele>13</ele>
        <time>2019-07-15T09:53:29Z</time>
      </trkpt>
      <trkpt lat="47.80553" lon="-3.51973">
        <ele>13</ele>
        <time>2019-07-15T09:53:30Z</time>
      </trkpt>
      <trkpt lat="47.80554" lon="-3.51977">
        <ele>13</ele>
        <time>2019-07-15T09:53:31Z</time>
      </trkpt>
      <trkpt lat="47.80555" lon="-3.51979">
        <ele>13</ele>
        <time>2019-07-15T09:53:32Z</time>
      </trkpt>
      <trkpt lat="47.80556" lon="-3.51981">
        <ele>13</ele>
        <time>2019-07-15T09:53:33Z</time>
      </trkpt>
      <trkpt lat="47.80557" lon="-3.51984">
        <ele>13</ele>
        <time>2019-07-15T09:53:34Z</time>
      </trkpt>
      <trkpt lat="47.80558" lon="-3.51986">
        <ele>13</ele>
        <time>2019-07-15T09:53:35Z</time>
      </trkpt>
      <trkpt lat="47.80559" lon="-3.5199">
        <ele>13</ele>
        <time>2019-07-15T09:53:36Z</time>
      </trkpt>
      <trkpt lat="47.80559" lon="-3.51992">
        <ele>13</ele>
        <time>2019-07-15T09:53:37Z</time>
      </trkpt>
      <trkpt lat="47.8056" lon="-3.51994">
        <ele>13</ele>
        <time>2019-07-15T09:53:38Z</time>
      </trkpt>
      <trkpt lat="47.8056" lon="-3.51997">
        <ele>13</ele>
        <time>2019-07-15T09:53:39Z</time>
      </trkpt>
      <trkpt lat="47.8056" lon="-3.51999">
        <ele>13</ele>
        <time>2019-07-15T09:53:40Z</time>
      </trkpt>
      <trkpt lat="47.8056" lon="-3.52003">
        <ele>13</ele>
        <time>2019-07-15T09:53:41Z</time>
      </trkpt>
      <trkpt lat="47.80559" lon="-3.52008">
        <ele>13</ele>
        <time>2019-07-15T09:53:42Z</time>
      </trkpt>
      <trkpt lat="47.80558" lon="-3.52012">
        <ele>13</ele>
        <time>2019-07-15T09:53:43Z</time>
      </trkpt>
      <trkpt lat="47.80558" lon="-3.52017">
        <ele>13</ele>
        <time>2019-07-15T09:53:44Z</time>
      </trkpt>
      <trkpt lat="47.80557" lon="-3.52023">
        <ele>13</ele>
        <time>2019-07-15T09:53:45Z</time>
      </trkpt>
      <trkpt lat="47.80556" lon="-3.5203">
        <ele>14</ele>
        <time>2019-07-15T09:53:46Z</time>
      </trkpt>
      <trkpt lat="47.80556" lon="-3.52036">
        <ele>14</ele>
        <time>2019-07-15T09:53:47Z</time>
      </trkpt>
      <trkpt lat="47.80555" lon="-3.52041">
        <ele>14</ele>
        <time>2019-07-15T09:53:48Z</time>
      </trkpt>
      <trkpt lat="47.80554" lon="-3.52045">
        <ele>14</ele>
        <time>2019-07-15T09:53:49Z</time>
      </trkpt>
      <trkpt lat="47.80553" lon="-3.52049">
        <ele>14</ele>
        <time>2019-07-15T09:53:50Z</time>
      </trkpt>
      <trkpt lat="47.80552" lon="-3.52053">
        <ele>14</ele>
        <time>2019-07-15T09:53:51Z</time>
      </trkpt>
      <trkpt lat="47.80552" lon="-3.52057">
        <ele>14</ele>
        <time>2019-07-15T09:53:52Z</time>
      </trkpt>
      <trkpt lat="47.80551" lon="-3.52061">
        <ele>14</ele>
        <time>2019-07-15T09:53:53Z</time>
      </trkpt>
      <trkpt lat="47.8055" lon="-3.52065">
        <ele>14</ele>
        <time>2019-07-15T09:53:54Z</time>
      </trkpt>
      <trkpt lat="47.8055" lon="-3.52069">
        <ele>14</ele>
        <time>2019-07-15T09:53:55Z</time>
      </trkpt>
      <trkpt lat="47.80549" lon="-3.52073">
        <ele>14</ele>
        <time>2019-07-15T09:53:56Z</time>
      </trkpt>
      <trkpt lat="47.80548" lon="-3.52077">
        <ele>14</ele>
        <time>2019-07-15T09:53:57Z</time>
      </trkpt>
      <trkpt lat="47.80547" lon="-3.52081">
        <ele>14</ele>
        <time>2019-07-15T09:53:58Z</time>
      </trkpt>
      <trkpt lat="47.80545" lon="-3.52085">
        <ele>14</ele>
        <time>2019-07-15T09:53:59Z</time>
      </trkpt>
      <trkpt lat="47.80543" lon="-3.52089">
        <ele>14</ele>
        <time>2019-07-15T09:54:00Z</time>
      </trkpt>
      <trkpt lat="47.80539" lon="-3.52094">
        <ele>13</ele>
        <time>2019-07-15T09:54:01Z</time>
      </trkpt>
      <trkpt lat="47.80537" lon="-3.52098">
        <ele>13</ele>
        <time>2019-07-15T09:54:02Z</time>
      </trkpt>
      <trkpt lat="47.80534" lon="-3.52101">
        <ele>13</ele>
        <time>2019-07-15T09:54:03Z</time>
      </trkpt>
      <trkpt lat="47.80531" lon="-3.52105">
        <ele>13</ele>
        <time>2019-07-15T09:54:04Z</time>
      </trkpt>
      <trkpt lat="47.80528" lon="-3.52107">
        <ele>13</ele>
        <time>2019-07-15T09:54:05Z</time>
      </trkpt>
      <trkpt lat="47.80527" lon="-3.52109">
        <ele>12</ele>
        <time>2019-07-15T09:54:06Z</time>
      </trkpt>
      <trkpt lat="47.80527" lon="-3.5211">
        <ele>12</ele>
        <time>2019-07-15T09:54:07Z</time>
      </trkpt>
      <trkpt lat="47.80527" lon="-3.52111">
        <ele>12</ele>
        <time>2019-07-15T09:54:08Z</time>
      </trkpt>
      <trkpt lat="47.80527" lon="-3.52112">
        <ele>12</ele>
        <time>2019-07-15T09:54:09Z</time>
      </trkpt>
      <trkpt lat="47.80527" lon="-3.52113">
        <ele>12</ele>
        <time>2019-07-15T09:54:10Z</time>
      </trkpt>
      <trkpt lat="47.80532" lon="-3.52132">
        <ele>8</ele>
        <time>2019-07-15T09:54:11Z</time>
      </trkpt>
      <trkpt lat="47.80533" lon="-3.52134">
        <ele>8</ele>
        <time>2019-07-15T09:54:12Z</time>
      </trkpt>
      <trkpt lat="47.80534" lon="-3.52136">
        <ele>8</ele>
        <time>2019-07-15T09:54:13Z</time>
      </trkpt>
      <trkpt lat="47.80535" lon="-3.52138">
        <ele>8</ele>
        <time>2019-07-15T09:54:14Z</time>
      </trkpt>
      <trkpt lat="47.80536" lon="-3.5214">
        <ele>8</ele>
        <time>2019-07-15T09:54:15Z</time>
      </trkpt>
      <trkpt lat="47.80537" lon="-3.52141">
        <ele>8</ele>
        <time>2019-07-15T09:54:16Z</time>
      </trkpt>
      <trkpt lat="47.80539" lon="-3.52143">
        <ele>8</ele>
        <time>2019-07-15T09:54:17Z</time>
      </trkpt>
      <trkpt lat="47.8054" lon="-3.52144">
        <ele>8</ele>
        <time>2019-07-15T09:54:18Z</time>
      </trkpt>
      <trkpt lat="47.80542" lon="-3.52145">
        <ele>8</ele>
        <time>2019-07-15T09:54:19Z</time>
      </trkpt>
      <trkpt lat="47.80543" lon="-3.52146">
        <ele>9</ele>
        <time>2019-07-15T09:54:20Z</time>
      </trkpt>
      <trkpt lat="47.80545" lon="-3.52147">
        <ele>9</ele>
        <time>2019-07-15T09:54:21Z</time>
      </trkpt>
      <trkpt lat="47.80546" lon="-3.52148">
        <ele>9</ele>
        <time>2019-07-15T09:54:22Z</time>
      </trkpt>
      <trkpt lat="47.80548" lon="-3.52149">
        <ele>9</ele>
        <time>2019-07-15T09:54:23Z</time>
      </trkpt>
      <trkpt lat="47.80549" lon="-3.52149">
        <ele>10</ele>
        <time>2019-07-15T09:54:24Z</time>
      </trkpt>
      <trkpt lat="47.80551" lon="-3.52149">
        <ele>10</ele>
        <time>2019-07-15T09:54:25Z</time>
      </trkpt>
      <trkpt lat="47.80553" lon="-3.52149">
        <ele>10</ele>
        <time>2019-07-15T09:54:26Z</time>
      </trkpt>
      <trkpt lat="47.80554" lon="-3.52149">
        <ele>10</ele>
        <time>2019-07-15T09:54:27Z</time>
      </trkpt>
      <trkpt lat="47.80555" lon="-3.5215">
        <ele>10</ele>
        <time>2019-07-15T09:54:28Z</time>
      </trkpt>
      <trkpt lat="47.80557" lon="-3.52151">
        <ele>11</ele>
        <time>2019-07-15T09:54:29Z</time>
      </trkpt>
      <trkpt lat="47.80558" lon="-3.52152">
        <ele>11</ele>
        <time>2019-07-15T09:54:30Z</time>
      </trkpt>
      <trkpt lat="47.80559" lon="-3.52152">
        <ele>11</ele>
        <time>2019-07-15T09:54:31Z</time>
      </trkpt>
      <trkpt lat="47.8056" lon="-3.52152">
        <ele>11</ele>
        <time>2019-07-15T09:54:32Z</time>
      </trkpt>
      <trkpt lat="47.8056" lon="-3.52152">
        <ele>11</ele>
        <time>2019-07-15T09:54:33Z</time>
      </trkpt>
      <trkpt lat="47.80561" lon="-3.5215">
        <ele>11</ele>
        <time>2019-07-15T09:54:34Z</time>
      </trkpt>
      <trkpt lat="47.80561" lon="-3.52149">
        <ele>12</ele>
        <time>2019-07-15T09:54:35Z</time>
      </trkpt>
      <trkpt lat="47.80561" lon="-3.52147">
        <ele>12</ele>
        <time>2019-07-15T09:54:36Z</time>
      </trkpt>
      <trkpt lat="47.80562" lon="-3.52146">
        <ele>12</ele>
        <time>2019-07-15T09:54:37Z</time>
      </trkpt>
      <trkpt lat="47.80562" lon="-3.52144">
        <ele>12</ele>
        <time>2019-07-15T09:54:38Z</time>
      </trkpt>
      <trkpt lat="47.80562" lon="-3.52142">
        <ele>12</ele>
        <time>2019-07-15T09:54:39Z</time>
      </trkpt>
      <trkpt lat="47.80563" lon="-3.5214">
        <ele>13</ele>
        <time>2019-07-15T09:54:40Z</time>
      </trkpt>
      <trkpt lat="47.80564" lon="-3.52138">
        <ele>13</ele>
        <time>2019-07-15T09:54:41Z</time>
      </trkpt>
      <trkpt lat="47.80565" lon="-3.52136">
        <ele>13</ele>
        <time>2019-07-15T09:54:42Z</time>
      </trkpt>
      <trkpt lat="47.80566" lon="-3.52133">
        <ele>13</ele>
        <time>2019-07-15T09:54:43Z</time>
      </trkpt>
      <trkpt lat="47.80566" lon="-3.5213">
        <ele>13</ele>
        <time>2019-07-15T09:54:44Z</time>
      </trkpt>
      <trkpt lat="47.80567" lon="-3.52128">
        <ele>14</ele>
        <time>2019-07-15T09:54:45Z</time>
      </trkpt>
      <trkpt lat="47.80567" lon="-3.52126">
        <ele>14</ele>
        <time>2019-07-15T09:54:46Z</time>
      </trkpt>
      <trkpt lat="47.80568" lon="-3.52123">
        <ele>14</ele>
        <time>2019-07-15T09:54:47Z</time>
      </trkpt>
      <trkpt lat="47.80569" lon="-3.5212">
        <ele>14</ele>
        <time>2019-07-15T09:54:48Z</time>
      </trkpt>
      <trkpt lat="47.80569" lon="-3.52118">
        <ele>14</ele>
        <time>2019-07-15T09:54:49Z</time>
      </trkpt>
      <trkpt lat="47.8057" lon="-3.52116">
        <ele>14</ele>
        <time>2019-07-15T09:54:50Z</time>
      </trkpt>
      <trkpt lat="47.80571" lon="-3.52114">
        <ele>15</ele>
        <time>2019-07-15T09:54:51Z</time>
      </trkpt>
      <trkpt lat="47.80572" lon="-3.52112">
        <ele>15</ele>
        <time>2019-07-15T09:54:52Z</time>
      </trkpt>
      <trkpt lat="47.80572" lon="-3.5211">
        <ele>15</ele>
        <time>2019-07-15T09:54:53Z</time>
      </trkpt>
      <trkpt lat="47.80573" lon="-3.52108">
        <ele>15</ele>
        <time>2019-07-15T09:54:54Z</time>
      </trkpt>
      <trkpt lat="47.80574" lon="-3.52105">
        <ele>15</ele>
        <time>2019-07-15T09:54:55Z</time>
      </trkpt>
      <trkpt lat="47.80575" lon="-3.52103">
        <ele>15</ele>
        <time>2019-07-15T09:54:56Z</time>
      </trkpt>
      <trkpt lat="47.80576" lon="-3.521">
        <ele>16</ele>
        <time>2019-07-15T09:54:57Z</time>
      </trkpt>
      <trkpt lat="47.80578" lon="-3.52098">
        <ele>16</ele>
        <time>2019-07-15T09:54:58Z</time>
      </trkpt>
      <trkpt lat="47.80579" lon="-3.52094">
        <ele>16</ele>
        <time>2019-07-15T09:54:59Z</time>
      </trkpt>
      <trkpt lat="47.8058" lon="-3.52092">
        <ele>16</ele>
        <time>2019-07-15T09:55:00Z</time>
      </trkpt>
      <trkpt lat="47.80581" lon="-3.52089">
        <ele>17</ele>
        <time>2019-07-15T09:55:01Z</time>
      </trkpt>
      <trkpt lat="47.80582" lon="-3.52086">
        <ele>17</ele>
        <time>2019-07-15T09:55:02Z</time>
      </trkpt>
      <trkpt lat="47.80584" lon="-3.52084">
        <ele>17</ele>
        <time>2019-07-15T09:55:03Z</time>
      </trkpt>
      <trkpt lat="47.80585" lon="-3.52081">
        <ele>17</ele>
        <time>2019-07-15T09:55:04Z</time>
      </trkpt>
      <trkpt lat="47.80587" lon="-3.52077">
        <ele>18</ele>
        <time>2019-07-15T09:55:05Z</time>
      </trkpt>
      <trkpt lat="47.80588" lon="-3.52074">
        <ele>18</ele>
        <time>2019-07-15T09:55:06Z</time>
      </trkpt>
      <trkpt lat="47.8059" lon="-3.52071">
        <ele>18</ele>
        <time>2019-07-15T09:55:07Z</time>
      </trkpt>
      <trkpt lat="47.80591" lon="-3.52068">
        <ele>18</ele>
        <time>2019-07-15T09:55:08Z</time>
      </trkpt>
      <trkpt lat="47.80592" lon="-3.52064">
        <ele>19</ele>
        <time>2019-07-15T09:55:09Z</time>
      </trkpt>
      <trkpt lat="47.80593" lon="-3.52061">
        <ele>19</ele>
        <time>2019-07-15T09:55:10Z</time>
      </trkpt>
      <trkpt lat="47.80593" lon="-3.52057">
        <ele>19</ele>
        <time>2019-07-15T09:55:11Z</time>
      </trkpt>
      <trkpt lat="47.80594" lon="-3.52053">
        <ele>19</ele>
        <time>2019-07-15T09:55:12Z</time>
      </trkpt>
      <trkpt lat="47.80595" lon="-3.5205">
        <ele>19</ele>
        <time>2019-07-15T09:55:13Z</time>
      </trkpt>
      <trkpt lat="47.80595" lon="-3.52046">
        <ele>20</ele>
        <time>2019-07-15T09:55:14Z</time>
      </trkpt>
      <trkpt lat="47.80596" lon="-3.52042">
        <ele>20</ele>
        <time>2019-07-15T09:55:15Z</time>
      </trkpt>
      <trkpt lat="47.80597" lon="-3.52038">
        <ele>20</ele>
        <time>2019-07-15T09:55:16Z</time>
      </trkpt>
      <trkpt lat="47.80597" lon="-3.52034">
        <ele>20</ele>
        <time>2019-07-15T09:55:17Z</time>
      </trkpt>
      <trkpt lat="47.80597" lon="-3.5203">
        <ele>20</ele>
        <time>2019-07-15T09:55:18Z</time>
      </trkpt>
      <trkpt lat="47.80598" lon="-3.52026">
        <ele>21</ele>
        <time>2019-07-15T09:55:19Z</time>
      </trkpt>
      <trkpt lat="47.80598" lon="-3.52022">
        <ele>21</ele>
        <time>2019-07-15T09:55:20Z</time>
      </trkpt>
      <trkpt lat="47.80598" lon="-3.52019">
        <ele>21</ele>
        <time>2019-07-15T09:55:21Z</time>
      </trkpt>
      <trkpt lat="47.80598" lon="-3.52015">
        <ele>21</ele>
        <time>2019-07-15T09:55:22Z</time>
      </trkpt>
      <trkpt lat="47.80598" lon="-3.52011">
        <ele>22</ele>
        <time>2019-07-15T09:55:23Z</time>
      </trkpt>
      <trkpt lat="47.80598" lon="-3.52008">
        <ele>22</ele>
        <time>2019-07-15T09:55:24Z</time>
      </trkpt>
      <trkpt lat="47.80598" lon="-3.52004">
        <ele>22</ele>
        <time>2019-07-15T09:55:25Z</time>
      </trkpt>
      <trkpt lat="47.80598" lon="-3.52">
        <ele>22</ele>
        <time>2019-07-15T09:55:26Z</time>
      </trkpt>
      <trkpt lat="47.80599" lon="-3.51997">
        <ele>22</ele>
        <time>2019-07-15T09:55:27Z</time>
      </trkpt>
      <trkpt lat="47.80599" lon="-3.51993">
        <ele>22</ele>
        <time>2019-07-15T09:55:28Z</time>
      </trkpt>
      <trkpt lat="47.80599" lon="-3.5199">
        <ele>23</ele>
        <time>2019-07-15T09:55:29Z</time>
      </trkpt>
      <trkpt lat="47.80599" lon="-3.51986">
        <ele>23</ele>
        <time>2019-07-15T09:55:30Z</time>
      </trkpt>
      <trkpt lat="47.80599" lon="-3.51983">
        <ele>23</ele>
        <time>2019-07-15T09:55:31Z</time>
      </trkpt>
      <trkpt lat="47.80599" lon="-3.51979">
        <ele>23</ele>
        <time>2019-07-15T09:55:32Z</time>
      </trkpt>
      <trkpt lat="47.80599" lon="-3.51975">
        <ele>23</ele>
        <time>2019-07-15T09:55:33Z</time>
      </trkpt>
      <trkpt lat="47.806" lon="-3.51971">
        <ele>23</ele>
        <time>2019-07-15T09:55:34Z</time>
      </trkpt>
      <trkpt lat="47.80601" lon="-3.51967">
        <ele>23</ele>
        <time>2019-07-15T09:55:35Z</time>
      </trkpt>
      <trkpt lat="47.80601" lon="-3.51964">
        <ele>23</ele>
        <time>2019-07-15T09:55:36Z</time>
      </trkpt>
      <trkpt lat="47.80601" lon="-3.5196">
        <ele>24</ele>
        <time>2019-07-15T09:55:37Z</time>
      </trkpt>
      <trkpt lat="47.80601" lon="-3.51957">
        <ele>24</ele>
        <time>2019-07-15T09:55:38Z</time>
      </trkpt>
      <trkpt lat="47.80601" lon="-3.51954">
        <ele>24</ele>
        <time>2019-07-15T09:55:39Z</time>
      </trkpt>
      <trkpt lat="47.80601" lon="-3.51951">
        <ele>24</ele>
        <time>2019-07-15T09:55:40Z</time>
      </trkpt>
      <trkpt lat="47.80601" lon="-3.51947">
        <ele>25</ele>
        <time>2019-07-15T09:55:41Z</time>
      </trkpt>
      <trkpt lat="47.80601" lon="-3.51944">
        <ele>25</ele>
        <time>2019-07-15T09:55:42Z</time>
      </trkpt>
      <trkpt lat="47.80601" lon="-3.51939">
        <ele>25</ele>
        <time>2019-07-15T09:55:43Z</time>
      </trkpt>
      <trkpt lat="47.806" lon="-3.51935">
        <ele>25</ele>
        <time>2019-07-15T09:55:44Z</time>
      </trkpt>
      <trkpt lat="47.806" lon="-3.51931">
        <ele>26</ele>
        <time>2019-07-15T09:55:45Z</time>
      </trkpt>
      <trkpt lat="47.806" lon="-3.51927">
        <ele>26</ele>
        <time>2019-07-15T09:55:46Z</time>
      </trkpt>
      <trkpt lat="47.806" lon="-3.51923">
        <ele>26</ele>
        <time>2019-07-15T09:55:47Z</time>
      </trkpt>
      <trkpt lat="47.80599" lon="-3.5192">
        <ele>26</ele>
        <time>2019-07-15T09:55:48Z</time>
      </trkpt>
      <trkpt lat="47.806" lon="-3.51917">
        <ele>26</ele>
        <time>2019-07-15T09:55:49Z</time>
      </trkpt>
      <trkpt lat="47.806" lon="-3.51913">
        <ele>26</ele>
        <time>2019-07-15T09:55:50Z</time>
      </trkpt>
      <trkpt lat="47.806" lon="-3.51909">
        <ele>26</ele>
        <time>2019-07-15T09:55:51Z</time>
      </trkpt>
      <trkpt lat="47.80599" lon="-3.51905">
        <ele>26</ele>
        <time>2019-07-15T09:55:52Z</time>
      </trkpt>
      <trkpt lat="47.80599" lon="-3.51901">
        <ele>26</ele>
        <time>2019-07-15T09:55:53Z</time>
      </trkpt>
      <trkpt lat="47.80598" lon="-3.51897">
        <ele>26</ele>
        <time>2019-07-15T09:55:54Z</time>
      </trkpt>
      <trkpt lat="47.80598" lon="-3.51893">
        <ele>26</ele>
        <time>2019-07-15T09:55:55Z</time>
      </trkpt>
      <trkpt lat="47.80598" lon="-3.51889">
        <ele>26</ele>
        <time>2019-07-15T09:55:56Z</time>
      </trkpt>
      <trkpt lat="47.80597" lon="-3.51885">
        <ele>26</ele>
        <time>2019-07-15T09:55:57Z</time>
      </trkpt>
      <trkpt lat="47.80596" lon="-3.5188">
        <ele>26</ele>
        <time>2019-07-15T09:55:58Z</time>
      </trkpt>
      <trkpt lat="47.80596" lon="-3.51876">
        <ele>26</ele>
        <time>2019-07-15T09:55:59Z</time>
      </trkpt>
      <trkpt lat="47.80595" lon="-3.51871">
        <ele>27</ele>
        <time>2019-07-15T09:56:00Z</time>
      </trkpt>
      <trkpt lat="47.80595" lon="-3.51867">
        <ele>27</ele>
        <time>2019-07-15T09:56:01Z</time>
      </trkpt>
      <trkpt lat="47.80595" lon="-3.51862">
        <ele>27</ele>
        <time>2019-07-15T09:56:02Z</time>
      </trkpt>
      <trkpt lat="47.80595" lon="-3.51858">
        <ele>27</ele>
        <time>2019-07-15T09:56:03Z</time>
      </trkpt>
      <trkpt lat="47.80595" lon="-3.51853">
        <ele>27</ele>
        <time>2019-07-15T09:56:04Z</time>
      </trkpt>
      <trkpt lat="47.80595" lon="-3.51848">
        <ele>28</ele>
        <time>2019-07-15T09:56:05Z</time>
      </trkpt>
      <trkpt lat="47.80596" lon="-3.51844">
        <ele>28</ele>
        <time>2019-07-15T09:56:06Z</time>
      </trkpt>
      <trkpt lat="47.80596" lon="-3.51839">
        <ele>28</ele>
        <time>2019-07-15T09:56:07Z</time>
      </trkpt>
      <trkpt lat="47.80596" lon="-3.51835">
        <ele>28</ele>
        <time>2019-07-15T09:56:08Z</time>
      </trkpt>
      <trkpt lat="47.80596" lon="-3.51831">
        <ele>28</ele>
        <time>2019-07-15T09:56:09Z</time>
      </trkpt>
      <trkpt lat="47.80597" lon="-3.51826">
        <ele>29</ele>
        <time>2019-07-15T09:56:10Z</time>
      </trkpt>
      <trkpt lat="47.80597" lon="-3.51822">
        <ele>29</ele>
        <time>2019-07-15T09:56:11Z</time>
      </trkpt>
      <trkpt lat="47.80598" lon="-3.51818">
        <ele>29</ele>
        <time>2019-07-15T09:56:12Z</time>
      </trkpt>
      <trkpt lat="47.80598" lon="-3.51813">
        <ele>29</ele>
        <time>2019-07-15T09:56:13Z</time>
      </trkpt>
      <trkpt lat="47.80599" lon="-3.51809">
        <ele>29</ele>
        <time>2019-07-15T09:56:14Z</time>
      </trkpt>
      <trkpt lat="47.80599" lon="-3.51804">
        <ele>30</ele>
        <time>2019-07-15T09:56:15Z</time>
      </trkpt>
      <trkpt lat="47.80599" lon="-3.518">
        <ele>30</ele>
        <time>2019-07-15T09:56:16Z</time>
      </trkpt>
      <trkpt lat="47.80599" lon="-3.51795">
        <ele>30</ele>
        <time>2019-07-15T09:56:17Z</time>
      </trkpt>
      <trkpt lat="47.806" lon="-3.51791">
        <ele>30</ele>
        <time>2019-07-15T09:56:18Z</time>
      </trkpt>
      <trkpt lat="47.806" lon="-3.51787">
        <ele>31</ele>
        <time>2019-07-15T09:56:19Z</time>
      </trkpt>
      <trkpt lat="47.80601" lon="-3.51782">
        <ele>31</ele>
        <time>2019-07-15T09:56:20Z</time>
      </trkpt>
      <trkpt lat="47.80602" lon="-3.51779">
        <ele>31</ele>
        <time>2019-07-15T09:56:21Z</time>
      </trkpt>
      <trkpt lat="47.80603" lon="-3.51775">
        <ele>32</ele>
        <time>2019-07-15T09:56:22Z</time>
      </trkpt>
      <trkpt lat="47.80605" lon="-3.51773">
        <ele>32</ele>
        <time>2019-07-15T09:56:23Z</time>
      </trkpt>
      <trkpt lat="47.80607" lon="-3.51771">
        <ele>32</ele>
        <time>2019-07-15T09:56:24Z</time>
      </trkpt>
      <trkpt lat="47.80609" lon="-3.5177">
        <ele>32</ele>
        <time>2019-07-15T09:56:25Z</time>
      </trkpt>
      <trkpt lat="47.80611" lon="-3.5177">
        <ele>33</ele>
        <time>2019-07-15T09:56:26Z</time>
      </trkpt>
      <trkpt lat="47.80614" lon="-3.5177">
        <ele>33</ele>
        <time>2019-07-15T09:56:27Z</time>
      </trkpt>
      <trkpt lat="47.80616" lon="-3.51771">
        <ele>33</ele>
        <time>2019-07-15T09:56:28Z</time>
      </trkpt>
      <trkpt lat="47.80619" lon="-3.51772">
        <ele>33</ele>
        <time>2019-07-15T09:56:29Z</time>
      </trkpt>
      <trkpt lat="47.80621" lon="-3.51773">
        <ele>34</ele>
        <time>2019-07-15T09:56:30Z</time>
      </trkpt>
      <trkpt lat="47.80624" lon="-3.51773">
        <ele>34</ele>
        <time>2019-07-15T09:56:31Z</time>
      </trkpt>
      <trkpt lat="47.80626" lon="-3.51774">
        <ele>34</ele>
        <time>2019-07-15T09:56:32Z</time>
      </trkpt>
      <trkpt lat="47.80628" lon="-3.51776">
        <ele>34</ele>
        <time>2019-07-15T09:56:33Z</time>
      </trkpt>
      <trkpt lat="47.80631" lon="-3.51777">
        <ele>35</ele>
        <time>2019-07-15T09:56:34Z</time>
      </trkpt>
      <trkpt lat="47.80633" lon="-3.51778">
        <ele>35</ele>
        <time>2019-07-15T09:56:35Z</time>
      </trkpt>
      <trkpt lat="47.80636" lon="-3.51779">
        <ele>35</ele>
        <time>2019-07-15T09:56:36Z</time>
      </trkpt>
      <trkpt lat="47.80638" lon="-3.5178">
        <ele>36</ele>
        <time>2019-07-15T09:56:37Z</time>
      </trkpt>
      <trkpt lat="47.80641" lon="-3.51781">
        <ele>36</ele>
        <time>2019-07-15T09:56:38Z</time>
      </trkpt>
      <trkpt lat="47.80644" lon="-3.51782">
        <ele>36</ele>
        <time>2019-07-15T09:56:39Z</time>
      </trkpt>
      <trkpt lat="47.80646" lon="-3.51783">
        <ele>36</ele>
        <time>2019-07-15T09:56:40Z</time>
      </trkpt>
      <trkpt lat="47.80648" lon="-3.51784">
        <ele>37</ele>
        <time>2019-07-15T09:56:41Z</time>
      </trkpt>
      <trkpt lat="47.80651" lon="-3.51786">
        <ele>37</ele>
        <time>2019-07-15T09:56:42Z</time>
      </trkpt>
      <trkpt lat="47.80654" lon="-3.51787">
        <ele>37</ele>
        <time>2019-07-15T09:56:43Z</time>
      </trkpt>
      <trkpt lat="47.80656" lon="-3.51788">
        <ele>38</ele>
        <time>2019-07-15T09:56:44Z</time>
      </trkpt>
      <trkpt lat="47.80659" lon="-3.51789">
        <ele>38</ele>
        <time>2019-07-15T09:56:45Z</time>
      </trkpt>
      <trkpt lat="47.80661" lon="-3.5179">
        <ele>38</ele>
        <time>2019-07-15T09:56:46Z</time>
      </trkpt>
      <trkpt lat="47.80664" lon="-3.51791">
        <ele>39</ele>
        <time>2019-07-15T09:56:47Z</time>
      </trkpt>
      <trkpt lat="47.80667" lon="-3.51792">
        <ele>39</ele>
        <time>2019-07-15T09:56:48Z</time>
      </trkpt>
      <trkpt lat="47.8067" lon="-3.51793">
        <ele>39</ele>
        <time>2019-07-15T09:56:49Z</time>
      </trkpt>
      <trkpt lat="47.80672" lon="-3.51794">
        <ele>39</ele>
        <time>2019-07-15T09:56:50Z</time>
      </trkpt>
      <trkpt lat="47.80675" lon="-3.51795">
        <ele>40</ele>
        <time>2019-07-15T09:56:51Z</time>
      </trkpt>
      <trkpt lat="47.80678" lon="-3.51796">
        <ele>40</ele>
        <time>2019-07-15T09:56:52Z</time>
      </trkpt>
      <trkpt lat="47.8068" lon="-3.51798">
        <ele>40</ele>
        <time>2019-07-15T09:56:53Z</time>
      </trkpt>
      <trkpt lat="47.80683" lon="-3.51799">
        <ele>40</ele>
        <time>2019-07-15T09:56:54Z</time>
      </trkpt>
      <trkpt lat="47.80686" lon="-3.518">
        <ele>40</ele>
        <time>2019-07-15T09:56:55Z</time>
      </trkpt>
      <trkpt lat="47.80689" lon="-3.51801">
        <ele>41</ele>
        <time>2019-07-15T09:56:56Z</time>
      </trkpt>
      <trkpt lat="47.80691" lon="-3.51803">
        <ele>41</ele>
        <time>2019-07-15T09:56:57Z</time>
      </trkpt>
      <trkpt lat="47.80694" lon="-3.51804">
        <ele>41</ele>
        <time>2019-07-15T09:56:58Z</time>
      </trkpt>
      <trkpt lat="47.80697" lon="-3.51806">
        <ele>42</ele>
        <time>2019-07-15T09:56:59Z</time>
      </trkpt>
      <trkpt lat="47.80699" lon="-3.51808">
        <ele>42</ele>
        <time>2019-07-15T09:57:00Z</time>
      </trkpt>
      <trkpt lat="47.80702" lon="-3.51811">
        <ele>42</ele>
        <time>2019-07-15T09:57:01Z</time>
      </trkpt>
      <trkpt lat="47.80704" lon="-3.51813">
        <ele>42</ele>
        <time>2019-07-15T09:57:02Z</time>
      </trkpt>
      <trkpt lat="47.80707" lon="-3.51816">
        <ele>42</ele>
        <time>2019-07-15T09:57:03Z</time>
      </trkpt>
      <trkpt lat="47.8071" lon="-3.51819">
        <ele>42</ele>
        <time>2019-07-15T09:57:04Z</time>
      </trkpt>
      <trkpt lat="47.80712" lon="-3.51822">
        <ele>42</ele>
        <time>2019-07-15T09:57:05Z</time>
      </trkpt>
      <trkpt lat="47.80715" lon="-3.51825">
        <ele>42</ele>
        <time>2019-07-15T09:57:06Z</time>
      </trkpt>
      <trkpt lat="47.80717" lon="-3.51828">
        <ele>42</ele>
        <time>2019-07-15T09:57:07Z</time>
      </trkpt>
      <trkpt lat="47.8072" lon="-3.51831">
        <ele>42</ele>
        <time>2019-07-15T09:57:08Z</time>
      </trkpt>
      <trkpt lat="47.80723" lon="-3.51835">
        <ele>42</ele>
        <time>2019-07-15T09:57:09Z</time>
      </trkpt>
      <trkpt lat="47.80726" lon="-3.51838">
        <ele>42</ele>
        <time>2019-07-15T09:57:10Z</time>
      </trkpt>
      <trkpt lat="47.8073" lon="-3.51842">
        <ele>42</ele>
        <time>2019-07-15T09:57:11Z</time>
      </trkpt>
      <trkpt lat="47.80733" lon="-3.51845">
        <ele>42</ele>
        <time>2019-07-15T09:57:12Z</time>
      </trkpt>
      <trkpt lat="47.80736" lon="-3.51848">
        <ele>42</ele>
        <time>2019-07-15T09:57:13Z</time>
      </trkpt>
      <trkpt lat="47.80739" lon="-3.51852">
        <ele>42</ele>
        <time>2019-07-15T09:57:14Z</time>
      </trkpt>
      <trkpt lat="47.80742" lon="-3.51855">
        <ele>42</ele>
        <time>2019-07-15T09:57:15Z</time>
      </trkpt>
      <trkpt lat="47.80746" lon="-3.51859">
        <ele>42</ele>
        <time>2019-07-15T09:57:16Z</time>
      </trkpt>
      <trkpt lat="47.80749" lon="-3.51863">
        <ele>42</ele>
        <time>2019-07-15T09:57:17Z</time>
      </trkpt>
      <trkpt lat="47.80753" lon="-3.51867">
        <ele>42</ele>
        <time>2019-07-15T09:57:18Z</time>
      </trkpt>
      <trkpt lat="47.80756" lon="-3.51871">
        <ele>42</ele>
        <time>2019-07-15T09:57:19Z</time>
      </trkpt>
      <trkpt lat="47.8076" lon="-3.51874">
        <ele>42</ele>
        <time>2019-07-15T09:57:20Z</time>
      </trkpt>
      <trkpt lat="47.80764" lon="-3.51878">
        <ele>42</ele>
        <time>2019-07-15T09:57:21Z</time>
      </trkpt>
      <trkpt lat="47.80767" lon="-3.51882">
        <ele>42</ele>
        <time>2019-07-15T09:57:22Z</time>
      </trkpt>
      <trkpt lat="47.80771" lon="-3.51886">
        <ele>42</ele>
        <time>2019-07-15T09:57:23Z</time>
      </trkpt>
      <trkpt lat="47.80775" lon="-3.5189">
        <ele>42</ele>
        <time>2019-07-15T09:57:24Z</time>
      </trkpt>
      <trkpt lat="47.80778" lon="-3.51894">
        <ele>42</ele>
        <time>2019-07-15T09:57:25Z</time>
      </trkpt>
      <trkpt lat="47.80782" lon="-3.51897">
        <ele>42</ele>
        <time>2019-07-15T09:57:26Z</time>
      </trkpt>
      <trkpt lat="47.80786" lon="-3.51901">
        <ele>42</ele>
        <time>2019-07-15T09:57:27Z</time>
      </trkpt>
      <trkpt lat="47.8079" lon="-3.51904">
        <ele>42</ele>
        <time>2019-07-15T09:57:28Z</time>
      </trkpt>
      <trkpt lat="47.80793" lon="-3.51908">
        <ele>42</ele>
        <time>2019-07-15T09:57:29Z</time>
      </trkpt>
      <trkpt lat="47.80798" lon="-3.51911">
        <ele>42</ele>
        <time>2019-07-15T09:57:30Z</time>
      </trkpt>
      <trkpt lat="47.80802" lon="-3.51914">
        <ele>42</ele>
        <time>2019-07-15T09:57:31Z</time>
      </trkpt>
      <trkpt lat="47.80806" lon="-3.51917">
        <ele>42</ele>
        <time>2019-07-15T09:57:32Z</time>
      </trkpt>
      <trkpt lat="47.8081" lon="-3.51919">
        <ele>42</ele>
        <time>2019-07-15T09:57:33Z</time>
      </trkpt>
      <trkpt lat="47.80814" lon="-3.51922">
        <ele>42</ele>
        <time>2019-07-15T09:57:34Z</time>
      </trkpt>
      <trkpt lat="47.80818" lon="-3.51925">
        <ele>42</ele>
        <time>2019-07-15T09:57:35Z</time>
      </trkpt>
      <trkpt lat="47.80822" lon="-3.51929">
        <ele>42</ele>
        <time>2019-07-15T09:57:36Z</time>
      </trkpt>
      <trkpt lat="47.80827" lon="-3.51931">
        <ele>42</ele>
        <time>2019-07-15T09:57:37Z</time>
      </trkpt>
      <trkpt lat="47.80831" lon="-3.51935">
        <ele>42</ele>
        <time>2019-07-15T09:57:38Z</time>
      </trkpt>
      <trkpt lat="47.80836" lon="-3.51938">
        <ele>42</ele>
        <time>2019-07-15T09:57:39Z</time>
      </trkpt>
      <trkpt lat="47.8084" lon="-3.51941">
        <ele>42</ele>
        <time>2019-07-15T09:57:40Z</time>
      </trkpt>
      <trkpt lat="47.80845" lon="-3.51945">
        <ele>42</ele>
        <time>2019-07-15T09:57:41Z</time>
      </trkpt>
      <trkpt lat="47.8085" lon="-3.51949">
        <ele>42</ele>
        <time>2019-07-15T09:57:42Z</time>
      </trkpt>
      <trkpt lat="47.80855" lon="-3.51953">
        <ele>41</ele>
        <time>2019-07-15T09:57:43Z</time>
      </trkpt>
      <trkpt lat="47.8086" lon="-3.51956">
        <ele>41</ele>
        <time>2019-07-15T09:57:44Z</time>
      </trkpt>
      <trkpt lat="47.80865" lon="-3.5196">
        <ele>41</ele>
        <time>2019-07-15T09:57:45Z</time>
      </trkpt>
      <trkpt lat="47.8087" lon="-3.51964">
        <ele>41</ele>
        <time>2019-07-15T09:57:46Z</time>
      </trkpt>
      <trkpt lat="47.80875" lon="-3.51968">
        <ele>41</ele>
        <time>2019-07-15T09:57:47Z</time>
      </trkpt>
      <trkpt lat="47.8088" lon="-3.51972">
        <ele>41</ele>
        <time>2019-07-15T09:57:48Z</time>
      </trkpt>
      <trkpt lat="47.80885" lon="-3.51975">
        <ele>41</ele>
        <time>2019-07-15T09:57:49Z</time>
      </trkpt>
      <trkpt lat="47.8089" lon="-3.51979">
        <ele>40</ele>
        <time>2019-07-15T09:57:50Z</time>
      </trkpt>
      <trkpt lat="47.80895" lon="-3.51983">
        <ele>40</ele>
        <time>2019-07-15T09:57:51Z</time>
      </trkpt>
      <trkpt lat="47.809" lon="-3.51986">
        <ele>40</ele>
        <time>2019-07-15T09:57:52Z</time>
      </trkpt>
      <trkpt lat="47.80905" lon="-3.5199">
        <ele>40</ele>
        <time>2019-07-15T09:57:53Z</time>
      </trkpt>
      <trkpt lat="47.8091" lon="-3.51994">
        <ele>40</ele>
        <time>2019-07-15T09:57:54Z</time>
      </trkpt>
      <trkpt lat="47.80915" lon="-3.51997">
        <ele>40</ele>
        <time>2019-07-15T09:57:55Z</time>
      </trkpt>
      <trkpt lat="47.8092" lon="-3.52001">
        <ele>40</ele>
        <time>2019-07-15T09:57:56Z</time>
      </trkpt>
      <trkpt lat="47.80924" lon="-3.52005">
        <ele>40</ele>
        <time>2019-07-15T09:57:57Z</time>
      </trkpt>
      <trkpt lat="47.80929" lon="-3.52009">
        <ele>40</ele>
        <time>2019-07-15T09:57:58Z</time>
      </trkpt>
      <trkpt lat="47.80934" lon="-3.52012">
        <ele>39</ele>
        <time>2019-07-15T09:57:59Z</time>
      </trkpt>
      <trkpt lat="47.80939" lon="-3.52014">
        <ele>39</ele>
        <time>2019-07-15T09:58:00Z</time>
      </trkpt>
      <trkpt lat="47.80944" lon="-3.52017">
        <ele>39</ele>
        <time>2019-07-15T09:58:01Z</time>
      </trkpt>
      <trkpt lat="47.80948" lon="-3.52019">
        <ele>39</ele>
        <time>2019-07-15T09:58:02Z</time>
      </trkpt>
      <trkpt lat="47.80953" lon="-3.52021">
        <ele>39</ele>
        <time>2019-07-15T09:58:03Z</time>
      </trkpt>
      <trkpt lat="47.80958" lon="-3.52024">
        <ele>39</ele>
        <time>2019-07-15T09:58:04Z</time>
      </trkpt>
      <trkpt lat="47.80963" lon="-3.52027">
        <ele>39</ele>
        <time>2019-07-15T09:58:05Z</time>
      </trkpt>
      <trkpt lat="47.80968" lon="-3.5203">
        <ele>39</ele>
        <time>2019-07-15T09:58:06Z</time>
      </trkpt>
      <trkpt lat="47.80973" lon="-3.52033">
        <ele>39</ele>
        <time>2019-07-15T09:58:07Z</time>
      </trkpt>
      <trkpt lat="47.80978" lon="-3.52036">
        <ele>38</ele>
        <time>2019-07-15T09:58:08Z</time>
      </trkpt>
      <trkpt lat="47.80983" lon="-3.52039">
        <ele>38</ele>
        <time>2019-07-15T09:58:09Z</time>
      </trkpt>
      <trkpt lat="47.80989" lon="-3.52042">
        <ele>38</ele>
        <time>2019-07-15T09:58:10Z</time>
      </trkpt>
      <trkpt lat="47.80996" lon="-3.52046">
        <ele>37</ele>
        <time>2019-07-15T09:58:11Z</time>
      </trkpt>
      <trkpt lat="47.81002" lon="-3.5205">
        <ele>37</ele>
        <time>2019-07-15T09:58:12Z</time>
      </trkpt>
      <trkpt lat="47.81008" lon="-3.52054">
        <ele>37</ele>
        <time>2019-07-15T09:58:13Z</time>
      </trkpt>
      <trkpt lat="47.81015" lon="-3.52058">
        <ele>36</ele>
        <time>2019-07-15T09:58:14Z</time>
      </trkpt>
      <trkpt lat="47.81021" lon="-3.52061">
        <ele>36</ele>
        <time>2019-07-15T09:58:15Z</time>
      </trkpt>
      <trkpt lat="47.81026" lon="-3.52064">
        <ele>36</ele>
        <time>2019-07-15T09:58:16Z</time>
      </trkpt>
      <trkpt lat="47.81032" lon="-3.52067">
        <ele>35</ele>
        <time>2019-07-15T09:58:17Z</time>
      </trkpt>
      <trkpt lat="47.81036" lon="-3.5207">
        <ele>35</ele>
        <time>2019-07-15T09:58:18Z</time>
      </trkpt>
      <trkpt lat="47.81039" lon="-3.52075">
        <ele>34</ele>
        <time>2019-07-15T09:58:19Z</time>
      </trkpt>
      <trkpt lat="47.8104" lon="-3.52081">
        <ele>34</ele>
        <time>2019-07-15T09:58:20Z</time>
      </trkpt>
      <trkpt lat="47.81039" lon="-3.52088">
        <ele>34</ele>
        <time>2019-07-15T09:58:21Z</time>
      </trkpt>
      <trkpt lat="47.81038" lon="-3.52095">
        <ele>34</ele>
        <time>2019-07-15T09:58:22Z</time>
      </trkpt>
      <trkpt lat="47.81036" lon="-3.52103">
        <ele>33</ele>
        <time>2019-07-15T09:58:23Z</time>
      </trkpt>
      <trkpt lat="47.81035" lon="-3.52111">
        <ele>33</ele>
        <time>2019-07-15T09:58:24Z</time>
      </trkpt>
      <trkpt lat="47.81034" lon="-3.52118">
        <ele>33</ele>
        <time>2019-07-15T09:58:25Z</time>
      </trkpt>
      <trkpt lat="47.81034" lon="-3.52126">
        <ele>33</ele>
        <time>2019-07-15T09:58:26Z</time>
      </trkpt>
      <trkpt lat="47.81034" lon="-3.52132">
        <ele>33</ele>
        <time>2019-07-15T09:58:27Z</time>
      </trkpt>
      <trkpt lat="47.81036" lon="-3.52139">
        <ele>32</ele>
        <time>2019-07-15T09:58:28Z</time>
      </trkpt>
      <trkpt lat="47.8104" lon="-3.52146">
        <ele>32</ele>
        <time>2019-07-15T09:58:29Z</time>
      </trkpt>
      <trkpt lat="47.81044" lon="-3.52153">
        <ele>32</ele>
        <time>2019-07-15T09:58:30Z</time>
      </trkpt>
      <trkpt lat="47.81048" lon="-3.5216">
        <ele>32</ele>
        <time>2019-07-15T09:58:31Z</time>
      </trkpt>
      <trkpt lat="47.81054" lon="-3.52167">
        <ele>31</ele>
        <time>2019-07-15T09:58:32Z</time>
      </trkpt>
      <trkpt lat="47.81061" lon="-3.52174">
        <ele>31</ele>
        <time>2019-07-15T09:58:33Z</time>
      </trkpt>
      <trkpt lat="47.81068" lon="-3.52182">
        <ele>30</ele>
        <time>2019-07-15T09:58:34Z</time>
      </trkpt>
      <trkpt lat="47.81074" lon="-3.52189">
        <ele>29</ele>
        <time>2019-07-15T09:58:35Z</time>
      </trkpt>
      <trkpt lat="47.81081" lon="-3.52196">
        <ele>29</ele>
        <time>2019-07-15T09:58:36Z</time>
      </trkpt>
      <trkpt lat="47.81088" lon="-3.52204">
        <ele>28</ele>
        <time>2019-07-15T09:58:37Z</time>
      </trkpt>
      <trkpt lat="47.81095" lon="-3.5221">
        <ele>28</ele>
        <time>2019-07-15T09:58:38Z</time>
      </trkpt>
      <trkpt lat="47.81101" lon="-3.52216">
        <ele>27</ele>
        <time>2019-07-15T09:58:39Z</time>
      </trkpt>
      <trkpt lat="47.81108" lon="-3.52222">
        <ele>27</ele>
        <time>2019-07-15T09:58:40Z</time>
      </trkpt>
      <trkpt lat="47.81114" lon="-3.52229">
        <ele>26</ele>
        <time>2019-07-15T09:58:41Z</time>
      </trkpt>
      <trkpt lat="47.81121" lon="-3.52236">
        <ele>25</ele>
        <time>2019-07-15T09:58:42Z</time>
      </trkpt>
      <trkpt lat="47.81127" lon="-3.52242">
        <ele>25</ele>
        <time>2019-07-15T09:58:43Z</time>
      </trkpt>
      <trkpt lat="47.81133" lon="-3.52248">
        <ele>25</ele>
        <time>2019-07-15T09:58:44Z</time>
      </trkpt>
      <trkpt lat="47.81139" lon="-3.52255">
        <ele>24</ele>
        <time>2019-07-15T09:58:45Z</time>
      </trkpt>
      <trkpt lat="47.81146" lon="-3.52261">
        <ele>24</ele>
        <time>2019-07-15T09:58:46Z</time>
      </trkpt>
      <trkpt lat="47.81151" lon="-3.52267">
        <ele>23</ele>
        <time>2019-07-15T09:58:47Z</time>
      </trkpt>
      <trkpt lat="47.81157" lon="-3.52274">
        <ele>23</ele>
        <time>2019-07-15T09:58:48Z</time>
      </trkpt>
      <trkpt lat="47.81163" lon="-3.5228">
        <ele>23</ele>
        <time>2019-07-15T09:58:49Z</time>
      </trkpt>
      <trkpt lat="47.81169" lon="-3.52285">
        <ele>22</ele>
        <time>2019-07-15T09:58:50Z</time>
      </trkpt>
      <trkpt lat="47.81175" lon="-3.52291">
        <ele>22</ele>
        <time>2019-07-15T09:58:51Z</time>
      </trkpt>
      <trkpt lat="47.81181" lon="-3.52297">
        <ele>22</ele>
        <time>2019-07-15T09:58:52Z</time>
      </trkpt>
      <trkpt lat="47.81186" lon="-3.52304">
        <ele>22</ele>
        <time>2019-07-15T09:58:53Z</time>
      </trkpt>
      <trkpt lat="47.8119" lon="-3.52313">
        <ele>21</ele>
        <time>2019-07-15T09:58:54Z</time>
      </trkpt>
      <trkpt lat="47.81194" lon="-3.52322">
        <ele>21</ele>
        <time>2019-07-15T09:58:55Z</time>
      </trkpt>
      <trkpt lat="47.81198" lon="-3.52331">
        <ele>20</ele>
        <time>2019-07-15T09:58:56Z</time>
      </trkpt>
      <trkpt lat="47.81202" lon="-3.52341">
        <ele>20</ele>
        <time>2019-07-15T09:58:57Z</time>
      </trkpt>
      <trkpt lat="47.81206" lon="-3.52351">
        <ele>20</ele>
        <time>2019-07-15T09:58:58Z</time>
      </trkpt>
      <trkpt lat="47.8121" lon="-3.52361">
        <ele>19</ele>
        <time>2019-07-15T09:58:59Z</time>
      </trkpt>
      <trkpt lat="47.81214" lon="-3.52373">
        <ele>19</ele>
        <time>2019-07-15T09:59:00Z</time>
      </trkpt>
      <trkpt lat="47.81218" lon="-3.52386">
        <ele>18</ele>
        <time>2019-07-15T09:59:01Z</time>
      </trkpt>
      <trkpt lat="47.81223" lon="-3.52401">
        <ele>17</ele>
        <time>2019-07-15T09:59:02Z</time>
      </trkpt>
      <trkpt lat="47.81228" lon="-3.52416">
        <ele>17</ele>
        <time>2019-07-15T09:59:03Z</time>
      </trkpt>
      <trkpt lat="47.81233" lon="-3.52429">
        <ele>16</ele>
        <time>2019-07-15T09:59:04Z</time>
      </trkpt>
      <trkpt lat="47.81239" lon="-3.5244">
        <ele>15</ele>
        <time>2019-07-15T09:59:05Z</time>
      </trkpt>
      <trkpt lat="47.81245" lon="-3.5245">
        <ele>14</ele>
        <time>2019-07-15T09:59:06Z</time>
      </trkpt>
      <trkpt lat="47.81251" lon="-3.52457">
        <ele>13</ele>
        <time>2019-07-15T09:59:07Z</time>
      </trkpt>
      <trkpt lat="47.81259" lon="-3.52462">
        <ele>12</ele>
        <time>2019-07-15T09:59:08Z</time>
      </trkpt>
      <trkpt lat="47.81267" lon="-3.52466">
        <ele>12</ele>
        <time>2019-07-15T09:59:09Z</time>
      </trkpt>
      <trkpt lat="47.81275" lon="-3.5247">
        <ele>11</ele>
        <time>2019-07-15T09:59:10Z</time>
      </trkpt>
      <trkpt lat="47.81282" lon="-3.52474">
        <ele>10</ele>
        <time>2019-07-15T09:59:11Z</time>
      </trkpt>
      <trkpt lat="47.8129" lon="-3.52479">
        <ele>9</ele>
        <time>2019-07-15T09:59:12Z</time>
      </trkpt>
      <trkpt lat="47.81296" lon="-3.52486">
        <ele>9</ele>
        <time>2019-07-15T09:59:13Z</time>
      </trkpt>
      <trkpt lat="47.81302" lon="-3.52494">
        <ele>8</ele>
        <time>2019-07-15T09:59:14Z</time>
      </trkpt>
      <trkpt lat="47.81307" lon="-3.52504">
        <ele>8</ele>
        <time>2019-07-15T09:59:15Z</time>
      </trkpt>
      <trkpt lat="47.81311" lon="-3.52514">
        <ele>8</ele>
        <time>2019-07-15T09:59:16Z</time>
      </trkpt>
      <trkpt lat="47.81315" lon="-3.52524">
        <ele>8</ele>
        <time>2019-07-15T09:59:17Z</time>
      </trkpt>
      <trkpt lat="47.81319" lon="-3.52532">
        <ele>8</ele>
        <time>2019-07-15T09:59:18Z</time>
      </trkpt>
      <trkpt lat="47.81321" lon="-3.5254">
        <ele>8</ele>
        <time>2019-07-15T09:59:19Z</time>
      </trkpt>
      <trkpt lat="47.81324" lon="-3.52547">
        <ele>8</ele>
        <time>2019-07-15T09:59:20Z</time>
      </trkpt>
      <trkpt lat="47.81326" lon="-3.52553">
        <ele>8</ele>
        <time>2019-07-15T09:59:21Z</time>
      </trkpt>
      <trkpt lat="47.81327" lon="-3.52557">
        <ele>8</ele>
        <time>2019-07-15T09:59:22Z</time>
      </trkpt>
      <trkpt lat="47.81329" lon="-3.52561">
        <ele>8</ele>
        <time>2019-07-15T09:59:23Z</time>
      </trkpt>
      <trkpt lat="47.8133" lon="-3.52565">
        <ele>8</ele>
        <time>2019-07-15T09:59:24Z</time>
      </trkpt>
      <trkpt lat="47.8133" lon="-3.52568">
        <ele>8</ele>
        <time>2019-07-15T09:59:25Z</time>
      </trkpt>
      <trkpt lat="47.81331" lon="-3.52571">
        <ele>8</ele>
        <time>2019-07-15T09:59:26Z</time>
      </trkpt>
      <trkpt lat="47.81332" lon="-3.52574">
        <ele>8</ele>
        <time>2019-07-15T09:59:27Z</time>
      </trkpt>
      <trkpt lat="47.81333" lon="-3.52578">
        <ele>8</ele>
        <time>2019-07-15T09:59:28Z</time>
      </trkpt>
      <trkpt lat="47.81334" lon="-3.52581">
        <ele>9</ele>
        <time>2019-07-15T09:59:29Z</time>
      </trkpt>
      <trkpt lat="47.81336" lon="-3.52584">
        <ele>9</ele>
        <time>2019-07-15T09:59:30Z</time>
      </trkpt>
      <trkpt lat="47.81338" lon="-3.52586">
        <ele>9</ele>
        <time>2019-07-15T09:59:31Z</time>
      </trkpt>
      <trkpt lat="47.81339" lon="-3.52589">
        <ele>9</ele>
        <time>2019-07-15T09:59:32Z</time>
      </trkpt>
      <trkpt lat="47.8134" lon="-3.52592">
        <ele>9</ele>
        <time>2019-07-15T09:59:33Z</time>
      </trkpt>
      <trkpt lat="47.81341" lon="-3.52595">
        <ele>10</ele>
        <time>2019-07-15T09:59:34Z</time>
      </trkpt>
      <trkpt lat="47.81342" lon="-3.52599">
        <ele>10</ele>
        <time>2019-07-15T09:59:35Z</time>
      </trkpt>
      <trkpt lat="47.81343" lon="-3.52602">
        <ele>10</ele>
        <time>2019-07-15T09:59:36Z</time>
      </trkpt>
      <trkpt lat="47.81344" lon="-3.52605">
        <ele>10</ele>
        <time>2019-07-15T09:59:37Z</time>
      </trkpt>
      <trkpt lat="47.81346" lon="-3.52608">
        <ele>11</ele>
        <time>2019-07-15T09:59:38Z</time>
      </trkpt>
      <trkpt lat="47.81348" lon="-3.52611">
        <ele>11</ele>
        <time>2019-07-15T09:59:39Z</time>
      </trkpt>
      <trkpt lat="47.8135" lon="-3.52614">
        <ele>11</ele>
        <time>2019-07-15T09:59:40Z</time>
      </trkpt>
      <trkpt lat="47.81351" lon="-3.52617">
        <ele>11</ele>
        <time>2019-07-15T09:59:41Z</time>
      </trkpt>
      <trkpt lat="47.81353" lon="-3.5262">
        <ele>12</ele>
        <time>2019-07-15T09:59:42Z</time>
      </trkpt>
      <trkpt lat="47.81355" lon="-3.52623">
        <ele>12</ele>
        <time>2019-07-15T09:59:43Z</time>
      </trkpt>
      <trkpt lat="47.81356" lon="-3.52625">
        <ele>12</ele>
        <time>2019-07-15T09:59:44Z</time>
      </trkpt>
      <trkpt lat="47.81358" lon="-3.52628">
        <ele>12</ele>
        <time>2019-07-15T09:59:45Z</time>
      </trkpt>
      <trkpt lat="47.8136" lon="-3.5263">
        <ele>13</ele>
        <time>2019-07-15T09:59:46Z</time>
      </trkpt>
      <trkpt lat="47.81362" lon="-3.52633">
        <ele>13</ele>
        <time>2019-07-15T09:59:47Z</time>
      </trkpt>
      <trkpt lat="47.81363" lon="-3.52635">
        <ele>13</ele>
        <time>2019-07-15T09:59:48Z</time>
      </trkpt>
      <trkpt lat="47.81366" lon="-3.52637">
        <ele>14</ele>
        <time>2019-07-15T09:59:49Z</time>
      </trkpt>
      <trkpt lat="47.81368" lon="-3.52639">
        <ele>14</ele>
        <time>2019-07-15T09:59:50Z</time>
      </trkpt>
      <trkpt lat="47.8137" lon="-3.52641">
        <ele>15</ele>
        <time>2019-07-15T09:59:51Z</time>
      </trkpt>
      <trkpt lat="47.81372" lon="-3.52642">
        <ele>15</ele>
        <time>2019-07-15T09:59:52Z</time>
      </trkpt>
      <trkpt lat="47.81373" lon="-3.52644">
        <ele>15</ele>
        <time>2019-07-15T09:59:53Z</time>
      </trkpt>
      <trkpt lat="47.81374" lon="-3.52645">
        <ele>16</ele>
        <time>2019-07-15T09:59:54Z</time>
      </trkpt>
      <trkpt lat="47.81376" lon="-3.52647">
        <ele>16</ele>
        <time>2019-07-15T09:59:55Z</time>
      </trkpt>
      <trkpt lat="47.81377" lon="-3.52648">
        <ele>17</ele>
        <time>2019-07-15T09:59:56Z</time>
      </trkpt>
      <trkpt lat="47.81379" lon="-3.5265">
        <ele>17</ele>
        <time>2019-07-15T09:59:57Z</time>
      </trkpt>
      <trkpt lat="47.81381" lon="-3.52651">
        <ele>18</ele>
        <time>2019-07-15T09:59:58Z</time>
      </trkpt>
      <trkpt lat="47.81383" lon="-3.52652">
        <ele>18</ele>
        <time>2019-07-15T09:59:59Z</time>
      </trkpt>
      <trkpt lat="47.81385" lon="-3.52653">
        <ele>18</ele>
        <time>2019-07-15T10:00:00Z</time>
      </trkpt>
      <trkpt lat="47.81387" lon="-3.52655">
        <ele>19</ele>
        <time>2019-07-15T10:00:01Z</time>
      </trkpt>
      <trkpt lat="47.81389" lon="-3.52657">
        <ele>19</ele>
        <time>2019-07-15T10:00:02Z</time>
      </trkpt>
      <trkpt lat="47.81391" lon="-3.52658">
        <ele>19</ele>
        <time>2019-07-15T10:00:03Z</time>
      </trkpt>
      <trkpt lat="47.81393" lon="-3.52658">
        <ele>20</ele>
        <time>2019-07-15T10:00:04Z</time>
      </trkpt>
      <trkpt lat="47.81396" lon="-3.52659">
        <ele>20</ele>
        <time>2019-07-15T10:00:05Z</time>
      </trkpt>
      <trkpt lat="47.81398" lon="-3.5266">
        <ele>21</ele>
        <time>2019-07-15T10:00:06Z</time>
      </trkpt>
      <trkpt lat="47.814" lon="-3.52661">
        <ele>21</ele>
        <time>2019-07-15T10:00:07Z</time>
      </trkpt>
      <trkpt lat="47.81402" lon="-3.52662">
        <ele>22</ele>
        <time>2019-07-15T10:00:08Z</time>
      </trkpt>
      <trkpt lat="47.81403" lon="-3.52662">
        <ele>22</ele>
        <time>2019-07-15T10:00:09Z</time>
      </trkpt>
      <trkpt lat="47.81405" lon="-3.52663">
        <ele>23</ele>
        <time>2019-07-15T10:00:10Z</time>
      </trkpt>
      <trkpt lat="47.81406" lon="-3.52665">
        <ele>23</ele>
        <time>2019-07-15T10:00:11Z</time>
      </trkpt>
      <trkpt lat="47.81408" lon="-3.52665">
        <ele>23</ele>
        <time>2019-07-15T10:00:12Z</time>
      </trkpt>
      <trkpt lat="47.8141" lon="-3.52666">
        <ele>24</ele>
        <time>2019-07-15T10:00:13Z</time>
      </trkpt>
      <trkpt lat="47.81411" lon="-3.52667">
        <ele>24</ele>
        <time>2019-07-15T10:00:14Z</time>
      </trkpt>
      <trkpt lat="47.81413" lon="-3.52667">
        <ele>25</ele>
        <time>2019-07-15T10:00:15Z</time>
      </trkpt>
      <trkpt lat="47.81414" lon="-3.52668">
        <ele>25</ele>
        <time>2019-07-15T10:00:16Z</time>
      </trkpt>
      <trkpt lat="47.81416" lon="-3.52666">
        <ele>25</ele>
        <time>2019-07-15T10:00:17Z</time>
      </trkpt>
      <trkpt lat="47.81419" lon="-3.52665">
        <ele>25</ele>
        <time>2019-07-15T10:00:18Z</time>
      </trkpt>
      <trkpt lat="47.81422" lon="-3.52663">
        <ele>26</ele>
        <time>2019-07-15T10:00:19Z</time>
      </trkpt>
      <trkpt lat="47.81425" lon="-3.52662">
        <ele>26</ele>
        <time>2019-07-15T10:00:20Z</time>
      </trkpt>
      <trkpt lat="47.81428" lon="-3.5266">
        <ele>26</ele>
        <time>2019-07-15T10:00:21Z</time>
      </trkpt>
      <trkpt lat="47.81431" lon="-3.52659">
        <ele>26</ele>
        <time>2019-07-15T10:00:22Z</time>
      </trkpt>
      <trkpt lat="47.81434" lon="-3.52658">
        <ele>27</ele>
        <time>2019-07-15T10:00:23Z</time>
      </trkpt>
      <trkpt lat="47.81437" lon="-3.52657">
        <ele>27</ele>
        <time>2019-07-15T10:00:24Z</time>
      </trkpt>
      <trkpt lat="47.8144" lon="-3.52656">
        <ele>27</ele>
        <time>2019-07-15T10:00:25Z</time>
      </trkpt>
      <trkpt lat="47.81442" lon="-3.52655">
        <ele>27</ele>
        <time>2019-07-15T10:00:26Z</time>
      </trkpt>
      <trkpt lat="47.81444" lon="-3.52655">
        <ele>28</ele>
        <time>2019-07-15T10:00:27Z</time>
      </trkpt>
      <trkpt lat="47.81446" lon="-3.52654">
        <ele>28</ele>
        <time>2019-07-15T10:00:28Z</time>
      </trkpt>
      <trkpt lat="47.81449" lon="-3.52653">
        <ele>28</ele>
        <time>2019-07-15T10:00:29Z</time>
      </trkpt>
      <trkpt lat="47.81452" lon="-3.52652">
        <ele>28</ele>
        <time>2019-07-15T10:00:30Z</time>
      </trkpt>
      <trkpt lat="47.81455" lon="-3.5265">
        <ele>28</ele>
        <time>2019-07-15T10:00:31Z</time>
      </trkpt>
      <trkpt lat="47.81457" lon="-3.52649">
        <ele>28</ele>
        <time>2019-07-15T10:00:32Z</time>
      </trkpt>
      <trkpt lat="47.8146" lon="-3.52649">
        <ele>28</ele>
        <time>2019-07-15T10:00:33Z</time>
      </trkpt>
      <trkpt lat="47.81462" lon="-3.52648">
        <ele>28</ele>
        <time>2019-07-15T10:00:34Z</time>
      </trkpt>
      <trkpt lat="47.81465" lon="-3.52648">
        <ele>28</ele>
        <time>2019-07-15T10:00:35Z</time>
      </trkpt>
      <trkpt lat="47.81467" lon="-3.52646">
        <ele>29</ele>
        <time>2019-07-15T10:00:36Z</time>
      </trkpt>
      <trkpt lat="47.8147" lon="-3.52646">
        <ele>29</ele>
        <time>2019-07-15T10:00:37Z</time>
      </trkpt>
      <trkpt lat="47.81472" lon="-3.52644">
        <ele>29</ele>
        <time>2019-07-15T10:00:38Z</time>
      </trkpt>
      <trkpt lat="47.81475" lon="-3.52643">
        <ele>29</ele>
        <time>2019-07-15T10:00:39Z</time>
      </trkpt>
      <trkpt lat="47.81478" lon="-3.52642">
        <ele>29</ele>
        <time>2019-07-15T10:00:40Z</time>
      </trkpt>
      <trkpt lat="47.81481" lon="-3.5264">
        <ele>29</ele>
        <time>2019-07-15T10:00:41Z</time>
      </trkpt>
      <trkpt lat="47.81484" lon="-3.52639">
        <ele>29</ele>
        <time>2019-07-15T10:00:42Z</time>
      </trkpt>
      <trkpt lat="47.81487" lon="-3.52638">
        <ele>29</ele>
        <time>2019-07-15T10:00:43Z</time>
      </trkpt>
      <trkpt lat="47.8149" lon="-3.52637">
        <ele>29</ele>
        <time>2019-07-15T10:00:44Z</time>
      </trkpt>
      <trkpt lat="47.81494" lon="-3.52636">
        <ele>29</ele>
        <time>2019-07-15T10:00:45Z</time>
      </trkpt>
      <trkpt lat="47.81497" lon="-3.52635">
        <ele>29</ele>
        <time>2019-07-15T10:00:46Z</time>
      </trkpt>
      <trkpt lat="47.815" lon="-3.52633">
        <ele>29</ele>
        <time>2019-07-15T10:00:47Z</time>
      </trkpt>
      <trkpt lat="47.81503" lon="-3.52632">
        <ele>29</ele>
        <time>2019-07-15T10:00:48Z</time>
      </trkpt>
      <trkpt lat="47.81506" lon="-3.5263">
        <ele>29</ele>
        <time>2019-07-15T10:00:49Z</time>
      </trkpt>
      <trkpt lat="47.81509" lon="-3.52629">
        <ele>29</ele>
        <time>2019-07-15T10:00:50Z</time>
      </trkpt>
      <trkpt lat="47.81512" lon="-3.52628">
        <ele>29</ele>
        <time>2019-07-15T10:00:51Z</time>
      </trkpt>
      <trkpt lat="47.81516" lon="-3.52627">
        <ele>30</ele>
        <time>2019-07-15T10:00:52Z</time>
      </trkpt>
      <trkpt lat="47.81519" lon="-3.52626">
        <ele>30</ele>
        <time>2019-07-15T10:00:53Z</time>
      </trkpt>
      <trkpt lat="47.81522" lon="-3.52624">
        <ele>30</ele>
        <time>2019-07-15T10:00:54Z</time>
      </trkpt>
      <trkpt lat="47.81525" lon="-3.52623">
        <ele>30</ele>
        <time>2019-07-15T10:00:55Z</time>
      </trkpt>
      <trkpt lat="47.81528" lon="-3.52622">
        <ele>30</ele>
        <time>2019-07-15T10:00:56Z</time>
      </trkpt>
      <trkpt lat="47.81531" lon="-3.52621">
        <ele>30</ele>
        <time>2019-07-15T10:00:57Z</time>
      </trkpt>
      <trkpt lat="47.81534" lon="-3.5262">
        <ele>30</ele>
        <time>2019-07-15T10:00:58Z</time>
      </trkpt>
      <trkpt lat="47.81537" lon="-3.52619">
        <ele>31</ele>
        <time>2019-07-15T10:00:59Z</time>
      </trkpt>
      <trkpt lat="47.8154" lon="-3.52618">
        <ele>31</ele>
        <time>2019-07-15T10:01:00Z</time>
      </trkpt>
      <trkpt lat="47.81543" lon="-3.52617">
        <ele>31</ele>
        <time>2019-07-15T10:01:01Z</time>
      </trkpt>
      <trkpt lat="47.81546" lon="-3.52616">
        <ele>31</ele>
        <time>2019-07-15T10:01:02Z</time>
      </trkpt>
      <trkpt lat="47.8155" lon="-3.52614">
        <ele>31</ele>
        <time>2019-07-15T10:01:03Z</time>
      </trkpt>
      <trkpt lat="47.81553" lon="-3.52613">
        <ele>32</ele>
        <time>2019-07-15T10:01:04Z</time>
      </trkpt>
      <trkpt lat="47.81556" lon="-3.52612">
        <ele>32</ele>
        <time>2019-07-15T10:01:05Z</time>
      </trkpt>
      <trkpt lat="47.81559" lon="-3.52611">
        <ele>32</ele>
        <time>2019-07-15T10:01:06Z</time>
      </trkpt>
      <trkpt lat="47.81562" lon="-3.5261">
        <ele>32</ele>
        <time>2019-07-15T10:01:07Z</time>
      </trkpt>
      <trkpt lat="47.81565" lon="-3.52609">
        <ele>32</ele>
        <time>2019-07-15T10:01:08Z</time>
      </trkpt>
      <trkpt lat="47.81568" lon="-3.52607">
        <ele>32</ele>
        <time>2019-07-15T10:01:09Z</time>
      </trkpt>
      <trkpt lat="47.81571" lon="-3.52606">
        <ele>32</ele>
        <time>2019-07-15T10:01:10Z</time>
      </trkpt>
      <trkpt lat="47.81575" lon="-3.52605">
        <ele>32</ele>
        <time>2019-07-15T10:01:11Z</time>
      </trkpt>
      <trkpt lat="47.81578" lon="-3.52603">
        <ele>32</ele>
        <time>2019-07-15T10:01:12Z</time>
      </trkpt>
      <trkpt lat="47.81581" lon="-3.52602">
        <ele>32</ele>
        <time>2019-07-15T10:01:13Z</time>
      </trkpt>
      <trkpt lat="47.81584" lon="-3.52601">
        <ele>33</ele>
        <time>2019-07-15T10:01:14Z</time>
      </trkpt>
      <trkpt lat="47.81587" lon="-3.526">
        <ele>33</ele>
        <time>2019-07-15T10:01:15Z</time>
      </trkpt>
      <trkpt lat="47.8159" lon="-3.52599">
        <ele>33</ele>
        <time>2019-07-15T10:01:16Z</time>
      </trkpt>
      <trkpt lat="47.81593" lon="-3.52598">
        <ele>33</ele>
        <time>2019-07-15T10:01:17Z</time>
      </trkpt>
      <trkpt lat="47.81596" lon="-3.52597">
        <ele>33</ele>
        <time>2019-07-15T10:01:18Z</time>
      </trkpt>
      <trkpt lat="47.81599" lon="-3.52596">
        <ele>33</ele>
        <time>2019-07-15T10:01:19Z</time>
      </trkpt>
      <trkpt lat="47.81602" lon="-3.52595">
        <ele>33</ele>
        <time>2019-07-15T10:01:20Z</time>
      </trkpt>
      <trkpt lat="47.81606" lon="-3.52594">
        <ele>34</ele>
        <time>2019-07-15T10:01:21Z</time>
      </trkpt>
      <trkpt lat="47.81608" lon="-3.52593">
        <ele>34</ele>
        <time>2019-07-15T10:01:22Z</time>
      </trkpt>
      <trkpt lat="47.81612" lon="-3.52592">
        <ele>34</ele>
        <time>2019-07-15T10:01:23Z</time>
      </trkpt>
      <trkpt lat="47.81615" lon="-3.52591">
        <ele>34</ele>
        <time>2019-07-15T10:01:24Z</time>
      </trkpt>
      <trkpt lat="47.81617" lon="-3.52591">
        <ele>34</ele>
        <time>2019-07-15T10:01:25Z</time>
      </trkpt>
      <trkpt lat="47.81619" lon="-3.52591">
        <ele>34</ele>
        <time>2019-07-15T10:01:26Z</time>
      </trkpt>
      <trkpt lat="47.81622" lon="-3.52591">
        <ele>34</ele>
        <time>2019-07-15T10:01:27Z</time>
      </trkpt>
      <trkpt lat="47.81625" lon="-3.52592">
        <ele>35</ele>
        <time>2019-07-15T10:01:28Z</time>
      </trkpt>
      <trkpt lat="47.81627" lon="-3.52595">
        <ele>35</ele>
        <time>2019-07-15T10:01:29Z</time>
      </trkpt>
      <trkpt lat="47.81628" lon="-3.52599">
        <ele>35</ele>
        <time>2019-07-15T10:01:30Z</time>
      </trkpt>
      <trkpt lat="47.81629" lon="-3.52603">
        <ele>35</ele>
        <time>2019-07-15T10:01:31Z</time>
      </trkpt>
      <trkpt lat="47.81629" lon="-3.52607">
        <ele>36</ele>
        <time>2019-07-15T10:01:32Z</time>
      </trkpt>
      <trkpt lat="47.81629" lon="-3.52612">
        <ele>36</ele>
        <time>2019-07-15T10:01:33Z</time>
      </trkpt>
      <trkpt lat="47.81628" lon="-3.52616">
        <ele>36</ele>
        <time>2019-07-15T10:01:34Z</time>
      </trkpt>
      <trkpt lat="47.81628" lon="-3.5262">
        <ele>37</ele>
        <time>2019-07-15T10:01:35Z</time>
      </trkpt>
      <trkpt lat="47.81628" lon="-3.52625">
        <ele>37</ele>
        <time>2019-07-15T10:01:36Z</time>
      </trkpt>
      <trkpt lat="47.81628" lon="-3.5263">
        <ele>37</ele>
        <time>2019-07-15T10:01:37Z</time>
      </trkpt>
      <trkpt lat="47.81629" lon="-3.52635">
        <ele>38</ele>
        <time>2019-07-15T10:01:38Z</time>
      </trkpt>
      <trkpt lat="47.81628" lon="-3.52639">
        <ele>38</ele>
        <time>2019-07-15T10:01:39Z</time>
      </trkpt>
      <trkpt lat="47.81628" lon="-3.52644">
        <ele>38</ele>
        <time>2019-07-15T10:01:40Z</time>
      </trkpt>
      <trkpt lat="47.81627" lon="-3.52649">
        <ele>39</ele>
        <time>2019-07-15T10:01:41Z</time>
      </trkpt>
      <trkpt lat="47.81627" lon="-3.52655">
        <ele>39</ele>
        <time>2019-07-15T10:01:42Z</time>
      </trkpt>
      <trkpt lat="47.81626" lon="-3.52661">
        <ele>39</ele>
        <time>2019-07-15T10:01:43Z</time>
      </trkpt>
      <trkpt lat="47.81626" lon="-3.52666">
        <ele>39</ele>
        <time>2019-07-15T10:01:44Z</time>
      </trkpt>
      <trkpt lat="47.81625" lon="-3.52673">
        <ele>40</ele>
        <time>2019-07-15T10:01:45Z</time>
      </trkpt>
      <trkpt lat="47.81625" lon="-3.52679">
        <ele>40</ele>
        <time>2019-07-15T10:01:46Z</time>
      </trkpt>
      <trkpt lat="47.81625" lon="-3.52685">
        <ele>40</ele>
        <time>2019-07-15T10:01:47Z</time>
      </trkpt>
      <trkpt lat="47.81625" lon="-3.52691">
        <ele>40</ele>
        <time>2019-07-15T10:01:48Z</time>
      </trkpt>
      <trkpt lat="47.81624" lon="-3.52696">
        <ele>40</ele>
        <time>2019-07-15T10:01:49Z</time>
      </trkpt>
      <trkpt lat="47.81624" lon="-3.52702">
        <ele>40</ele>
        <time>2019-07-15T10:01:50Z</time>
      </trkpt>
      <trkpt lat="47.81623" lon="-3.52708">
        <ele>40</ele>
        <time>2019-07-15T10:01:51Z</time>
      </trkpt>
      <trkpt lat="47.81623" lon="-3.52715">
        <ele>40</ele>
        <time>2019-07-15T10:01:52Z</time>
      </trkpt>
      <trkpt lat="47.81623" lon="-3.52722">
        <ele>40</ele>
        <time>2019-07-15T10:01:53Z</time>
      </trkpt>
      <trkpt lat="47.81622" lon="-3.5273">
        <ele>41</ele>
        <time>2019-07-15T10:01:54Z</time>
      </trkpt>
      <trkpt lat="47.81622" lon="-3.52738">
        <ele>41</ele>
        <time>2019-07-15T10:01:55Z</time>
      </trkpt>
      <trkpt lat="47.81622" lon="-3.52746">
        <ele>41</ele>
        <time>2019-07-15T10:01:56Z</time>
      </trkpt>
      <trkpt lat="47.81622" lon="-3.52754">
        <ele>41</ele>
        <time>2019-07-15T10:01:57Z</time>
      </trkpt>
      <trkpt lat="47.81622" lon="-3.52761">
        <ele>41</ele>
        <time>2019-07-15T10:01:58Z</time>
      </trkpt>
      <trkpt lat="47.81622" lon="-3.52769">
        <ele>41</ele>
        <time>2019-07-15T10:01:59Z</time>
      </trkpt>
      <trkpt lat="47.81622" lon="-3.52777">
        <ele>41</ele>
        <time>2019-07-15T10:02:00Z</time>
      </trkpt>
      <trkpt lat="47.81622" lon="-3.52785">
        <ele>41</ele>
        <time>2019-07-15T10:02:01Z</time>
      </trkpt>
      <trkpt lat="47.81622" lon="-3.52793">
        <ele>41</ele>
        <time>2019-07-15T10:02:02Z</time>
      </trkpt>
      <trkpt lat="47.81623" lon="-3.52801">
        <ele>41</ele>
        <time>2019-07-15T10:02:03Z</time>
      </trkpt>
      <trkpt lat="47.81623" lon="-3.52809">
        <ele>42</ele>
        <time>2019-07-15T10:02:04Z</time>
      </trkpt>
      <trkpt lat="47.81623" lon="-3.52817">
        <ele>42</ele>
        <time>2019-07-15T10:02:05Z</time>
      </trkpt>
      <trkpt lat="47.81623" lon="-3.52826">
        <ele>42</ele>
        <time>2019-07-15T10:02:06Z</time>
      </trkpt>
      <trkpt lat="47.81623" lon="-3.52834">
        <ele>42</ele>
        <time>2019-07-15T10:02:07Z</time>
      </trkpt>
      <trkpt lat="47.81623" lon="-3.52842">
        <ele>42</ele>
        <time>2019-07-15T10:02:08Z</time>
      </trkpt>
      <trkpt lat="47.81624" lon="-3.52851">
        <ele>42</ele>
        <time>2019-07-15T10:02:09Z</time>
      </trkpt>
      <trkpt lat="47.81624" lon="-3.52859">
        <ele>42</ele>
        <time>2019-07-15T10:02:10Z</time>
      </trkpt>
      <trkpt lat="47.81624" lon="-3.52867">
        <ele>42</ele>
        <time>2019-07-15T10:02:11Z</time>
      </trkpt>
      <trkpt lat="47.81624" lon="-3.52875">
        <ele>42</ele>
        <time>2019-07-15T10:02:12Z</time>
      </trkpt>
      <trkpt lat="47.81624" lon="-3.52883">
        <ele>42</ele>
        <time>2019-07-15T10:02:13Z</time>
      </trkpt>
      <trkpt lat="47.81624" lon="-3.52891">
        <ele>42</ele>
        <time>2019-07-15T10:02:14Z</time>
      </trkpt>
      <trkpt lat="47.81625" lon="-3.52899">
        <ele>42</ele>
        <time>2019-07-15T10:02:15Z</time>
      </trkpt>
      <trkpt lat="47.81625" lon="-3.52906">
        <ele>42</ele>
        <time>2019-07-15T10:02:16Z</time>
      </trkpt>
      <trkpt lat="47.81625" lon="-3.52914">
        <ele>42</ele>
        <time>2019-07-15T10:02:17Z</time>
      </trkpt>
      <trkpt lat="47.81625" lon="-3.52921">
        <ele>41</ele>
        <time>2019-07-15T10:02:18Z</time>
      </trkpt>
      <trkpt lat="47.81626" lon="-3.52929">
        <ele>41</ele>
        <time>2019-07-15T10:02:19Z</time>
      </trkpt>
      <trkpt lat="47.81626" lon="-3.52937">
        <ele>41</ele>
        <time>2019-07-15T10:02:20Z</time>
      </trkpt>
      <trkpt lat="47.81626" lon="-3.52945">
        <ele>41</ele>
        <time>2019-07-15T10:02:21Z</time>
      </trkpt>
      <trkpt lat="47.81626" lon="-3.52953">
        <ele>41</ele>
        <time>2019-07-15T10:02:22Z</time>
      </trkpt>
      <trkpt lat="47.81627" lon="-3.52962">
        <ele>41</ele>
        <time>2019-07-15T10:02:23Z</time>
      </trkpt>
      <trkpt lat="47.81627" lon="-3.52971">
        <ele>41</ele>
        <time>2019-07-15T10:02:24Z</time>
      </trkpt>
      <trkpt lat="47.81627" lon="-3.5298">
        <ele>40</ele>
        <time>2019-07-15T10:02:25Z</time>
      </trkpt>
      <trkpt lat="47.81628" lon="-3.52989">
        <ele>40</ele>
        <time>2019-07-15T10:02:26Z</time>
      </trkpt>
      <trkpt lat="47.81628" lon="-3.52998">
        <ele>40</ele>
        <time>2019-07-15T10:02:27Z</time>
      </trkpt>
      <trkpt lat="47.81629" lon="-3.53008">
        <ele>40</ele>
        <time>2019-07-15T10:02:28Z</time>
      </trkpt>
      <trkpt lat="47.81629" lon="-3.53017">
        <ele>39</ele>
        <time>2019-07-15T10:02:29Z</time>
      </trkpt>
      <trkpt lat="47.81629" lon="-3.53026">
        <ele>39</ele>
        <time>2019-07-15T10:02:30Z</time>
      </trkpt>
      <trkpt lat="47.8163" lon="-3.53036">
        <ele>39</ele>
        <time>2019-07-15T10:02:31Z</time>
      </trkpt>
      <trkpt lat="47.8163" lon="-3.53046">
        <ele>39</ele>
        <time>2019-07-15T10:02:32Z</time>
      </trkpt>
      <trkpt lat="47.81629" lon="-3.53055">
        <ele>39</ele>
        <time>2019-07-15T10:02:33Z</time>
      </trkpt>
      <trkpt lat="47.81628" lon="-3.53064">
        <ele>39</ele>
        <time>2019-07-15T10:02:34Z</time>
      </trkpt>
      <trkpt lat="47.81625" lon="-3.53072">
        <ele>38</ele>
        <time>2019-07-15T10:02:35Z</time>
      </trkpt>
      <trkpt lat="47.81623" lon="-3.5308">
        <ele>38</ele>
        <time>2019-07-15T10:02:36Z</time>
      </trkpt>
      <trkpt lat="47.81619" lon="-3.53088">
        <ele>38</ele>
        <time>2019-07-15T10:02:37Z</time>
      </trkpt>
      <trkpt lat="47.81616" lon="-3.53095">
        <ele>38</ele>
        <time>2019-07-15T10:02:38Z</time>
      </trkpt>
      <trkpt lat="47.81613" lon="-3.531">
        <ele>37</ele>
        <time>2019-07-15T10:02:39Z</time>
      </trkpt>
      <trkpt lat="47.81611" lon="-3.53104">
        <ele>37</ele>
        <time>2019-07-15T10:02:40Z</time>
      </trkpt>
      <trkpt lat="47.81609" lon="-3.53107">
        <ele>37</ele>
        <time>2019-07-15T10:02:41Z</time>
      </trkpt>
      <trkpt lat="47.81606" lon="-3.53108">
        <ele>36</ele>
        <time>2019-07-15T10:02:42Z</time>
      </trkpt>
      <trkpt lat="47.81603" lon="-3.53108">
        <ele>36</ele>
        <time>2019-07-15T10:02:43Z</time>
      </trkpt>
      <trkpt lat="47.816" lon="-3.53106">
        <ele>36</ele>
        <time>2019-07-15T10:02:44Z</time>
      </trkpt>
      <trkpt lat="47.81597" lon="-3.53103">
        <ele>35</ele>
        <time>2019-07-15T10:02:45Z</time>
      </trkpt>
      <trkpt lat="47.81593" lon="-3.531">
        <ele>35</ele>
        <time>2019-07-15T10:02:46Z</time>
      </trkpt>
      <trkpt lat="47.81589" lon="-3.53097">
        <ele>35</ele>
        <time>2019-07-15T10:02:47Z</time>
      </trkpt>
      <trkpt lat="47.81585" lon="-3.53093">
        <ele>34</ele>
        <time>2019-07-15T10:02:48Z</time>
      </trkpt>
      <trkpt lat="47.8158" lon="-3.53089">
        <ele>34</ele>
        <time>2019-07-15T10:02:49Z</time>
      </trkpt>
      <trkpt lat="47.81576" lon="-3.53085">
        <ele>34</ele>
        <time>2019-07-15T10:02:50Z</time>
      </trkpt>
      <trkpt lat="47.81571" lon="-3.53081">
        <ele>33</ele>
        <time>2019-07-15T10:02:51Z</time>
      </trkpt>
      <trkpt lat="47.81566" lon="-3.53078">
        <ele>33</ele>
        <time>2019-07-15T10:02:52Z</time>
      </trkpt>
      <trkpt lat="47.8156" lon="-3.53073">
        <ele>33</ele>
        <time>2019-07-15T10:02:53Z</time>
      </trkpt>
      <trkpt lat="47.81555" lon="-3.5307">
        <ele>32</ele>
        <time>2019-07-15T10:02:54Z</time>
      </trkpt>
      <trkpt lat="47.8155" lon="-3.53066">
        <ele>32</ele>
        <time>2019-07-15T10:02:55Z</time>
      </trkpt>
      <trkpt lat="47.81544" lon="-3.53062">
        <ele>32</ele>
        <time>2019-07-15T10:02:56Z</time>
      </trkpt>
      <trkpt lat="47.81539" lon="-3.53057">
        <ele>32</ele>
        <time>2019-07-15T10:02:57Z</time>
      </trkpt>
      <trkpt lat="47.81534" lon="-3.53054">
        <ele>32</ele>
        <time>2019-07-15T10:02:58Z</time>
      </trkpt>
      <trkpt lat="47.8153" lon="-3.5305">
        <ele>32</ele>
        <time>2019-07-15T10:02:59Z</time>
      </trkpt>
      <trkpt lat="47.81525" lon="-3.53047">
        <ele>31</ele>
        <time>2019-07-15T10:03:00Z</time>
      </trkpt>
      <trkpt lat="47.81521" lon="-3.53043">
        <ele>31</ele>
        <time>2019-07-15T10:03:01Z</time>
      </trkpt>
      <trkpt lat="47.81517" lon="-3.5304">
        <ele>31</ele>
        <time>2019-07-15T10:03:02Z</time>
      </trkpt>
      <trkpt lat="47.81513" lon="-3.53037">
        <ele>31</ele>
        <time>2019-07-15T10:03:03Z</time>
      </trkpt>
      <trkpt lat="47.81508" lon="-3.53033">
        <ele>31</ele>
        <time>2019-07-15T10:03:04Z</time>
      </trkpt>
      <trkpt lat="47.81504" lon="-3.53028">
        <ele>31</ele>
        <time>2019-07-15T10:03:05Z</time>
      </trkpt>
      <trkpt lat="47.81499" lon="-3.53023">
        <ele>31</ele>
        <time>2019-07-15T10:03:06Z</time>
      </trkpt>
      <trkpt lat="47.81496" lon="-3.53018">
        <ele>31</ele>
        <time>2019-07-15T10:03:07Z</time>
      </trkpt>
      <trkpt lat="47.81493" lon="-3.53014">
        <ele>31</ele>
        <time>2019-07-15T10:03:08Z</time>
      </trkpt>
      <trkpt lat="47.81491" lon="-3.53011">
        <ele>31</ele>
        <time>2019-07-15T10:03:09Z</time>
      </trkpt>
      <trkpt lat="47.81491" lon="-3.5301">
        <ele>31</ele>
        <time>2019-07-15T10:03:10Z</time>
      </trkpt>
      <trkpt lat="47.81491" lon="-3.5301">
        <ele>31</ele>
        <time>2019-07-15T10:03:11Z</time>
      </trkpt>
      <trkpt lat="47.81491" lon="-3.53009">
        <ele>32</ele>
        <time>2019-07-15T10:03:12Z</time>
      </trkpt>
      <trkpt lat="47.81491" lon="-3.53009">
        <ele>32</ele>
        <time>2019-07-15T10:03:13Z</time>
      </trkpt>
      <trkpt lat="47.81489" lon="-3.53">
        <ele>32</ele>
        <time>2019-07-15T10:03:14Z</time>
      </trkpt>
      <trkpt lat="47.81488" lon="-3.52997">
        <ele>32</ele>
        <time>2019-07-15T10:03:15Z</time>
      </trkpt>
      <trkpt lat="47.81487" lon="-3.52994">
        <ele>32</ele>
        <time>2019-07-15T10:03:16Z</time>
      </trkpt>
      <trkpt lat="47.81486" lon="-3.5299">
        <ele>32</ele>
        <time>2019-07-15T10:03:17Z</time>
      </trkpt>
      <trkpt lat="47.81485" lon="-3.52985">
        <ele>32</ele>
        <time>2019-07-15T10:03:18Z</time>
      </trkpt>
      <trkpt lat="47.81483" lon="-3.5298">
        <ele>32</ele>
        <time>2019-07-15T10:03:19Z</time>
      </trkpt>
      <trkpt lat="47.81482" lon="-3.52975">
        <ele>32</ele>
        <time>2019-07-15T10:03:20Z</time>
      </trkpt>
      <trkpt lat="47.8148" lon="-3.52971">
        <ele>32</ele>
        <time>2019-07-15T10:03:21Z</time>
      </trkpt>
      <trkpt lat="47.81477" lon="-3.5297">
        <ele>32</ele>
        <time>2019-07-15T10:03:22Z</time>
      </trkpt>
      <trkpt lat="47.81474" lon="-3.52969">
        <ele>33</ele>
        <time>2019-07-15T10:03:23Z</time>
      </trkpt>
      <trkpt lat="47.81472" lon="-3.5297">
        <ele>33</ele>
        <time>2019-07-15T10:03:24Z</time>
      </trkpt>
      <trkpt lat="47.81469" lon="-3.5297">
        <ele>33</ele>
        <time>2019-07-15T10:03:25Z</time>
      </trkpt>
      <trkpt lat="47.81467" lon="-3.5297">
        <ele>33</ele>
        <time>2019-07-15T10:03:26Z</time>
      </trkpt>
      <trkpt lat="47.81463" lon="-3.52971">
        <ele>33</ele>
        <time>2019-07-15T10:03:27Z</time>
      </trkpt>
      <trkpt lat="47.8146" lon="-3.52972">
        <ele>33</ele>
        <time>2019-07-15T10:03:28Z</time>
      </trkpt>
      <trkpt lat="47.81457" lon="-3.52974">
        <ele>34</ele>
        <time>2019-07-15T10:03:29Z</time>
      </trkpt>
      <trkpt lat="47.81453" lon="-3.52976">
        <ele>34</ele>
        <time>2019-07-15T10:03:30Z</time>
      </trkpt>
      <trkpt lat="47.81449" lon="-3.52978">
        <ele>34</ele>
        <time>2019-07-15T10:03:31Z</time>
      </trkpt>
      <trkpt lat="47.81445" lon="-3.52981">
        <ele>34</ele>
        <time>2019-07-15T10:03:32Z</time>
      </trkpt>
      <trkpt lat="47.8144" lon="-3.52983">
        <ele>34</ele>
        <time>2019-07-15T10:03:33Z</time>
      </trkpt>
      <trkpt lat="47.81435" lon="-3.52986">
        <ele>34</ele>
        <time>2019-07-15T10:03:34Z</time>
      </trkpt>
      <trkpt lat="47.8143" lon="-3.52989">
        <ele>34</ele>
        <time>2019-07-15T10:03:35Z</time>
      </trkpt>
      <trkpt lat="47.81425" lon="-3.52991">
        <ele>34</ele>
        <time>2019-07-15T10:03:36Z</time>
      </trkpt>
      <trkpt lat="47.81419" lon="-3.52994">
        <ele>34</ele>
        <time>2019-07-15T10:03:37Z</time>
      </trkpt>
      <trkpt lat="47.81413" lon="-3.52997">
        <ele>33</ele>
        <time>2019-07-15T10:03:38Z</time>
      </trkpt>
      <trkpt lat="47.81406" lon="-3.53">
        <ele>33</ele>
        <time>2019-07-15T10:03:39Z</time>
      </trkpt>
      <trkpt lat="47.814" lon="-3.53003">
        <ele>32</ele>
        <time>2019-07-15T10:03:40Z</time>
      </trkpt>
      <trkpt lat="47.81394" lon="-3.53006">
        <ele>32</ele>
        <time>2019-07-15T10:03:41Z</time>
      </trkpt>
      <trkpt lat="47.8139" lon="-3.5301">
        <ele>31</ele>
        <time>2019-07-15T10:03:42Z</time>
      </trkpt>
      <trkpt lat="47.81386" lon="-3.53016">
        <ele>31</ele>
        <time>2019-07-15T10:03:43Z</time>
      </trkpt>
      <trkpt lat="47.81384" lon="-3.53021">
        <ele>30</ele>
        <time>2019-07-15T10:03:44Z</time>
      </trkpt>
      <trkpt lat="47.81382" lon="-3.53027">
        <ele>30</ele>
        <time>2019-07-15T10:03:45Z</time>
      </trkpt>
      <trkpt lat="47.8138" lon="-3.53032">
        <ele>30</ele>
        <time>2019-07-15T10:03:46Z</time>
      </trkpt>
      <trkpt lat="47.81378" lon="-3.53037">
        <ele>30</ele>
        <time>2019-07-15T10:03:47Z</time>
      </trkpt>
      <trkpt lat="47.81376" lon="-3.53042">
        <ele>29</ele>
        <time>2019-07-15T10:03:48Z</time>
      </trkpt>
      <trkpt lat="47.81375" lon="-3.53046">
        <ele>29</ele>
        <time>2019-07-15T10:03:49Z</time>
      </trkpt>
      <trkpt lat="47.81374" lon="-3.53052">
        <ele>29</ele>
        <time>2019-07-15T10:03:50Z</time>
      </trkpt>
      <trkpt lat="47.81375" lon="-3.53056">
        <ele>29</ele>
        <time>2019-07-15T10:03:51Z</time>
      </trkpt>
      <trkpt lat="47.81375" lon="-3.53059">
        <ele>29</ele>
        <time>2019-07-15T10:03:52Z</time>
      </trkpt>
      <trkpt lat="47.81375" lon="-3.53061">
        <ele>29</ele>
        <time>2019-07-15T10:03:53Z</time>
      </trkpt>
      <trkpt lat="47.81374" lon="-3.53062">
        <ele>29</ele>
        <time>2019-07-15T10:03:54Z</time>
      </trkpt>
      <trkpt lat="47.81373" lon="-3.53062">
        <ele>28</ele>
        <time>2019-07-15T10:03:55Z</time>
      </trkpt>
      <trkpt lat="47.81372" lon="-3.53062">
        <ele>28</ele>
        <time>2019-07-15T10:03:56Z</time>
      </trkpt>
      <trkpt lat="47.8137" lon="-3.53061">
        <ele>28</ele>
        <time>2019-07-15T10:03:57Z</time>
      </trkpt>
      <trkpt lat="47.81367" lon="-3.53061">
        <ele>28</ele>
        <time>2019-07-15T10:03:58Z</time>
      </trkpt>
      <trkpt lat="47.81364" lon="-3.53058">
        <ele>28</ele>
        <time>2019-07-15T10:03:59Z</time>
      </trkpt>
      <trkpt lat="47.81362" lon="-3.53055">
        <ele>28</ele>
        <time>2019-07-15T10:04:00Z</time>
      </trkpt>
      <trkpt lat="47.81359" lon="-3.53051">
        <ele>28</ele>
        <time>2019-07-15T10:04:01Z</time>
      </trkpt>
      <trkpt lat="47.81357" lon="-3.5305">
        <ele>27</ele>
        <time>2019-07-15T10:04:02Z</time>
      </trkpt>
      <trkpt lat="47.81354" lon="-3.5305">
        <ele>27</ele>
        <time>2019-07-15T10:04:03Z</time>
      </trkpt>
      <trkpt lat="47.81351" lon="-3.5305">
        <ele>27</ele>
        <time>2019-07-15T10:04:04Z</time>
      </trkpt>
      <trkpt lat="47.81349" lon="-3.5305">
        <ele>26</ele>
        <time>2019-07-15T10:04:05Z</time>
      </trkpt>
      <trkpt lat="47.81346" lon="-3.53048">
        <ele>26</ele>
        <time>2019-07-15T10:04:06Z</time>
      </trkpt>
      <trkpt lat="47.81344" lon="-3.53048">
        <ele>25</ele>
        <time>2019-07-15T10:04:07Z</time>
      </trkpt>
      <trkpt lat="47.81342" lon="-3.5305">
        <ele>25</ele>
        <time>2019-07-15T10:04:08Z</time>
      </trkpt>
      <trkpt lat="47.8134" lon="-3.53055">
        <ele>25</ele>
        <time>2019-07-15T10:04:09Z</time>
      </trkpt>
      <trkpt lat="47.81339" lon="-3.5306">
        <ele>24</ele>
        <time>2019-07-15T10:04:10Z</time>
      </trkpt>
      <trkpt lat="47.81339" lon="-3.53065">
        <ele>24</ele>
        <time>2019-07-15T10:04:11Z</time>
      </trkpt>
      <trkpt lat="47.81339" lon="-3.53072">
        <ele>23</ele>
        <time>2019-07-15T10:04:12Z</time>
      </trkpt>
      <trkpt lat="47.8134" lon="-3.53078">
        <ele>23</ele>
        <time>2019-07-15T10:04:13Z</time>
      </trkpt>
      <trkpt lat="47.81341" lon="-3.53083">
        <ele>23</ele>
        <time>2019-07-15T10:04:14Z</time>
      </trkpt>
      <trkpt lat="47.81341" lon="-3.5309">
        <ele>22</ele>
        <time>2019-07-15T10:04:15Z</time>
      </trkpt>
      <trkpt lat="47.81341" lon="-3.53096">
        <ele>22</ele>
        <time>2019-07-15T10:04:16Z</time>
      </trkpt>
      <trkpt lat="47.81342" lon="-3.53101">
        <ele>22</ele>
        <time>2019-07-15T10:04:17Z</time>
      </trkpt>
      <trkpt lat="47.81342" lon="-3.53105">
        <ele>21</ele>
        <time>2019-07-15T10:04:18Z</time>
      </trkpt>
      <trkpt lat="47.81342" lon="-3.53107">
        <ele>21</ele>
        <time>2019-07-15T10:04:19Z</time>
      </trkpt>
      <trkpt lat="47.81341" lon="-3.53109">
        <ele>21</ele>
        <time>2019-07-15T10:04:20Z</time>
      </trkpt>
      <trkpt lat="47.81342" lon="-3.53112">
        <ele>20</ele>
        <time>2019-07-15T10:04:21Z</time>
      </trkpt>
      <trkpt lat="47.81342" lon="-3.53116">
        <ele>20</ele>
        <time>2019-07-15T10:04:22Z</time>
      </trkpt>
      <trkpt lat="47.81343" lon="-3.5312">
        <ele>20</ele>
        <time>2019-07-15T10:04:23Z</time>
      </trkpt>
      <trkpt lat="47.81344" lon="-3.53123">
        <ele>19</ele>
        <time>2019-07-15T10:04:24Z</time>
      </trkpt>
      <trkpt lat="47.81345" lon="-3.53125">
        <ele>19</ele>
        <time>2019-07-15T10:04:25Z</time>
      </trkpt>
      <trkpt lat="47.81346" lon="-3.53126">
        <ele>19</ele>
        <time>2019-07-15T10:04:26Z</time>
      </trkpt>
      <trkpt lat="47.81348" lon="-3.53128">
        <ele>18</ele>
        <time>2019-07-15T10:04:27Z</time>
      </trkpt>
      <trkpt lat="47.8135" lon="-3.53129">
        <ele>17</ele>
        <time>2019-07-15T10:04:28Z</time>
      </trkpt>
      <trkpt lat="47.81353" lon="-3.53132">
        <ele>17</ele>
        <time>2019-07-15T10:04:29Z</time>
      </trkpt>
      <trkpt lat="47.81356" lon="-3.53133">
        <ele>16</ele>
        <time>2019-07-15T10:04:30Z</time>
      </trkpt>
      <trkpt lat="47.81358" lon="-3.53135">
        <ele>16</ele>
        <time>2019-07-15T10:04:31Z</time>
      </trkpt>
      <trkpt lat="47.8136" lon="-3.53137">
        <ele>15</ele>
        <time>2019-07-15T10:04:32Z</time>
      </trkpt>
      <trkpt lat="47.81363" lon="-3.53139">
        <ele>15</ele>
        <time>2019-07-15T10:04:33Z</time>
      </trkpt>
      <trkpt lat="47.81365" lon="-3.53141">
        <ele>15</ele>
        <time>2019-07-15T10:04:34Z</time>
      </trkpt>
      <trkpt lat="47.81367" lon="-3.53142">
        <ele>14</ele>
        <time>2019-07-15T10:04:35Z</time>
      </trkpt>
      <trkpt lat="47.81368" lon="-3.53145">
        <ele>14</ele>
        <time>2019-07-15T10:04:36Z</time>
      </trkpt>
      <trkpt lat="47.81369" lon="-3.53148">
        <ele>14</ele>
        <time>2019-07-15T10:04:37Z</time>
      </trkpt>
      <trkpt lat="47.81368" lon="-3.53151">
        <ele>13</ele>
        <time>2019-07-15T10:04:38Z</time>
      </trkpt>
      <trkpt lat="47.81367" lon="-3.53155">
        <ele>13</ele>
        <time>2019-07-15T10:04:39Z</time>
      </trkpt>
      <trkpt lat="47.81365" lon="-3.53159">
        <ele>13</ele>
        <time>2019-07-15T10:04:40Z</time>
      </trkpt>
      <trkpt lat="47.81363" lon="-3.53162">
        <ele>13</ele>
        <time>2019-07-15T10:04:41Z</time>
      </trkpt>
      <trkpt lat="47.81361" lon="-3.53165">
        <ele>12</ele>
        <time>2019-07-15T10:04:42Z</time>
      </trkpt>
      <trkpt lat="47.81359" lon="-3.53168">
        <ele>12</ele>
        <time>2019-07-15T10:04:43Z</time>
      </trkpt>
      <trkpt lat="47.81357" lon="-3.53171">
        <ele>12</ele>
        <time>2019-07-15T10:04:44Z</time>
      </trkpt>
      <trkpt lat="47.81356" lon="-3.53176">
        <ele>11</ele>
        <time>2019-07-15T10:04:45Z</time>
      </trkpt>
      <trkpt lat="47.81356" lon="-3.53181">
        <ele>11</ele>
        <time>2019-07-15T10:04:46Z</time>
      </trkpt>
      <trkpt lat="47.81355" lon="-3.53185">
        <ele>11</ele>
        <time>2019-07-15T10:04:47Z</time>
      </trkpt>
      <trkpt lat="47.81356" lon="-3.5319">
        <ele>11</ele>
        <time>2019-07-15T10:04:48Z</time>
      </trkpt>
      <trkpt lat="47.81356" lon="-3.53194">
        <ele>11</ele>
        <time>2019-07-15T10:04:49Z</time>
      </trkpt>
      <trkpt lat="47.81356" lon="-3.53199">
        <ele>10</ele>
        <time>2019-07-15T10:04:50Z</time>
      </trkpt>
      <trkpt lat="47.81357" lon="-3.53203">
        <ele>10</ele>
        <time>2019-07-15T10:04:51Z</time>
      </trkpt>
      <trkpt lat="47.81357" lon="-3.53206">
        <ele>10</ele>
        <time>2019-07-15T10:04:52Z</time>
      </trkpt>
      <trkpt lat="47.81358" lon="-3.5321">
        <ele>10</ele>
        <time>2019-07-15T10:04:53Z</time>
      </trkpt>
      <trkpt lat="47.81359" lon="-3.53215">
        <ele>10</ele>
        <time>2019-07-15T10:04:54Z</time>
      </trkpt>
      <trkpt lat="47.8136" lon="-3.53219">
        <ele>10</ele>
        <time>2019-07-15T10:04:55Z</time>
      </trkpt>
      <trkpt lat="47.81362" lon="-3.53224">
        <ele>9</ele>
        <time>2019-07-15T10:04:56Z</time>
      </trkpt>
      <trkpt lat="47.81363" lon="-3.53229">
        <ele>9</ele>
        <time>2019-07-15T10:04:57Z</time>
      </trkpt>
      <trkpt lat="47.81366" lon="-3.53234">
        <ele>9</ele>
        <time>2019-07-15T10:04:58Z</time>
      </trkpt>
      <trkpt lat="47.81368" lon="-3.53239">
        <ele>8</ele>
        <time>2019-07-15T10:04:59Z</time>
      </trkpt>
      <trkpt lat="47.8137" lon="-3.53244">
        <ele>8</ele>
        <time>2019-07-15T10:05:00Z</time>
      </trkpt>
      <trkpt lat="47.81373" lon="-3.53249">
        <ele>8</ele>
        <time>2019-07-15T10:05:01Z</time>
      </trkpt>
      <trkpt lat="47.81376" lon="-3.53254">
        <ele>7</ele>
        <time>2019-07-15T10:05:02Z</time>
      </trkpt>
      <trkpt lat="47.81378" lon="-3.5326">
        <ele>7</ele>
        <time>2019-07-15T10:05:03Z</time>
      </trkpt>
      <trkpt lat="47.8138" lon="-3.53265">
        <ele>7</ele>
        <time>2019-07-15T10:05:04Z</time>
      </trkpt>
      <trkpt lat="47.81381" lon="-3.53268">
        <ele>7</ele>
        <time>2019-07-15T10:05:05Z</time>
      </trkpt>
      <trkpt lat="47.81382" lon="-3.53273">
        <ele>6</ele>
        <time>2019-07-15T10:05:06Z</time>
      </trkpt>
      <trkpt lat="47.81382" lon="-3.53278">
        <ele>6</ele>
        <time>2019-07-15T10:05:07Z</time>
      </trkpt>
      <trkpt lat="47.81383" lon="-3.53284">
        <ele>6</ele>
        <time>2019-07-15T10:05:08Z</time>
      </trkpt>
      <trkpt lat="47.81383" lon="-3.53289">
        <ele>6</ele>
        <time>2019-07-15T10:05:09Z</time>
      </trkpt>
      <trkpt lat="47.81384" lon="-3.53295">
        <ele>6</ele>
        <time>2019-07-15T10:05:10Z</time>
      </trkpt>
      <trkpt lat="47.81385" lon="-3.533">
        <ele>6</ele>
        <time>2019-07-15T10:05:11Z</time>
      </trkpt>
      <trkpt lat="47.81386" lon="-3.53305">
        <ele>6</ele>
        <time>2019-07-15T10:05:12Z</time>
      </trkpt>
      <trkpt lat="47.81387" lon="-3.53311">
        <ele>6</ele>
        <time>2019-07-15T10:05:13Z</time>
      </trkpt>
      <trkpt lat="47.81389" lon="-3.53316">
        <ele>6</ele>
        <time>2019-07-15T10:05:14Z</time>
      </trkpt>
      <trkpt lat="47.81391" lon="-3.53322">
        <ele>6</ele>
        <time>2019-07-15T10:05:15Z</time>
      </trkpt>
      <trkpt lat="47.81393" lon="-3.53328">
        <ele>6</ele>
        <time>2019-07-15T10:05:16Z</time>
      </trkpt>
      <trkpt lat="47.81395" lon="-3.53334">
        <ele>6</ele>
        <time>2019-07-15T10:05:17Z</time>
      </trkpt>
      <trkpt lat="47.81397" lon="-3.53339">
        <ele>6</ele>
        <time>2019-07-15T10:05:18Z</time>
      </trkpt>
      <trkpt lat="47.81398" lon="-3.53345">
        <ele>5</ele>
        <time>2019-07-15T10:05:19Z</time>
      </trkpt>
      <trkpt lat="47.814" lon="-3.53349">
        <ele>5</ele>
        <time>2019-07-15T10:05:20Z</time>
      </trkpt>
      <trkpt lat="47.81401" lon="-3.53354">
        <ele>5</ele>
        <time>2019-07-15T10:05:21Z</time>
      </trkpt>
      <trkpt lat="47.81403" lon="-3.53358">
        <ele>5</ele>
        <time>2019-07-15T10:05:22Z</time>
      </trkpt>
      <trkpt lat="47.81404" lon="-3.53361">
        <ele>5</ele>
        <time>2019-07-15T10:05:23Z</time>
      </trkpt>
      <trkpt lat="47.81406" lon="-3.53364">
        <ele>5</ele>
        <time>2019-07-15T10:05:24Z</time>
      </trkpt>
      <trkpt lat="47.81407" lon="-3.53368">
        <ele>5</ele>
        <time>2019-07-15T10:05:25Z</time>
      </trkpt>
      <trkpt lat="47.81409" lon="-3.53373">
        <ele>5</ele>
        <time>2019-07-15T10:05:26Z</time>
      </trkpt>
      <trkpt lat="47.81411" lon="-3.53377">
        <ele>5</ele>
        <time>2019-07-15T10:05:27Z</time>
      </trkpt>
      <trkpt lat="47.81413" lon="-3.53382">
        <ele>5</ele>
        <time>2019-07-15T10:05:28Z</time>
      </trkpt>
      <trkpt lat="47.81416" lon="-3.53385">
        <ele>5</ele>
        <time>2019-07-15T10:05:29Z</time>
      </trkpt>
      <trkpt lat="47.81417" lon="-3.53389">
        <ele>5</ele>
        <time>2019-07-15T10:05:30Z</time>
      </trkpt>
      <trkpt lat="47.81419" lon="-3.53392">
        <ele>5</ele>
        <time>2019-07-15T10:05:31Z</time>
      </trkpt>
      <trkpt lat="47.81421" lon="-3.53395">
        <ele>5</ele>
        <time>2019-07-15T10:05:32Z</time>
      </trkpt>
      <trkpt lat="47.81423" lon="-3.53399">
        <ele>5</ele>
        <time>2019-07-15T10:05:33Z</time>
      </trkpt>
      <trkpt lat="47.81425" lon="-3.53402">
        <ele>5</ele>
        <time>2019-07-15T10:05:34Z</time>
      </trkpt>
      <trkpt lat="47.81427" lon="-3.53406">
        <ele>5</ele>
        <time>2019-07-15T10:05:35Z</time>
      </trkpt>
      <trkpt lat="47.81429" lon="-3.5341">
        <ele>5</ele>
        <time>2019-07-15T10:05:36Z</time>
      </trkpt>
      <trkpt lat="47.81432" lon="-3.53415">
        <ele>5</ele>
        <time>2019-07-15T10:05:37Z</time>
      </trkpt>
      <trkpt lat="47.81435" lon="-3.53419">
        <ele>5</ele>
        <time>2019-07-15T10:05:38Z</time>
      </trkpt>
      <trkpt lat="47.81439" lon="-3.53425">
        <ele>5</ele>
        <time>2019-07-15T10:05:39Z</time>
      </trkpt>
      <trkpt lat="47.81443" lon="-3.53431">
        <ele>5</ele>
        <time>2019-07-15T10:05:40Z</time>
      </trkpt>
      <trkpt lat="47.81447" lon="-3.53438">
        <ele>5</ele>
        <time>2019-07-15T10:05:41Z</time>
      </trkpt>
      <trkpt lat="47.8145" lon="-3.53446">
        <ele>5</ele>
        <time>2019-07-15T10:05:42Z</time>
      </trkpt>
      <trkpt lat="47.81453" lon="-3.53452">
        <ele>5</ele>
        <time>2019-07-15T10:05:43Z</time>
      </trkpt>
      <trkpt lat="47.81455" lon="-3.53458">
        <ele>5</ele>
        <time>2019-07-15T10:05:44Z</time>
      </trkpt>
      <trkpt lat="47.81458" lon="-3.53465">
        <ele>5</ele>
        <time>2019-07-15T10:05:45Z</time>
      </trkpt>
      <trkpt lat="47.81461" lon="-3.53472">
        <ele>5</ele>
        <time>2019-07-15T10:05:46Z</time>
      </trkpt>
      <trkpt lat="47.81464" lon="-3.53478">
        <ele>5</ele>
        <time>2019-07-15T10:05:47Z</time>
      </trkpt>
      <trkpt lat="47.81468" lon="-3.53482">
        <ele>5</ele>
        <time>2019-07-15T10:05:48Z</time>
      </trkpt>
      <trkpt lat="47.81472" lon="-3.53485">
        <ele>5</ele>
        <time>2019-07-15T10:05:49Z</time>
      </trkpt>
      <trkpt lat="47.81476" lon="-3.53487">
        <ele>5</ele>
        <time>2019-07-15T10:05:50Z</time>
      </trkpt>
      <trkpt lat="47.8148" lon="-3.5349">
        <ele>5</ele>
        <time>2019-07-15T10:05:51Z</time>
      </trkpt>
      <trkpt lat="47.81484" lon="-3.53493">
        <ele>5</ele>
        <time>2019-07-15T10:05:52Z</time>
      </trkpt>
      <trkpt lat="47.81488" lon="-3.53496">
        <ele>5</ele>
        <time>2019-07-15T10:05:53Z</time>
      </trkpt>
      <trkpt lat="47.81492" lon="-3.53499">
        <ele>5</ele>
        <time>2019-07-15T10:05:54Z</time>
      </trkpt>
      <trkpt lat="47.81496" lon="-3.53503">
        <ele>5</ele>
        <time>2019-07-15T10:05:55Z</time>
      </trkpt>
      <trkpt lat="47.815" lon="-3.53507">
        <ele>5</ele>
        <time>2019-07-15T10:05:56Z</time>
      </trkpt>
      <trkpt lat="47.81503" lon="-3.5351">
        <ele>5</ele>
        <time>2019-07-15T10:05:57Z</time>
      </trkpt>
      <trkpt lat="47.81507" lon="-3.53513">
        <ele>5</ele>
        <time>2019-07-15T10:05:58Z</time>
      </trkpt>
      <trkpt lat="47.81511" lon="-3.53516">
        <ele>5</ele>
        <time>2019-07-15T10:05:59Z</time>
      </trkpt>
      <trkpt lat="47.81514" lon="-3.53518">
        <ele>5</ele>
        <time>2019-07-15T10:06:00Z</time>
      </trkpt>
      <trkpt lat="47.81519" lon="-3.53521">
        <ele>5</ele>
        <time>2019-07-15T10:06:01Z</time>
      </trkpt>
      <trkpt lat="47.81523" lon="-3.53525">
        <ele>5</ele>
        <time>2019-07-15T10:06:02Z</time>
      </trkpt>
      <trkpt lat="47.81527" lon="-3.53528">
        <ele>5</ele>
        <time>2019-07-15T10:06:03Z</time>
      </trkpt>
      <trkpt lat="47.81532" lon="-3.53531">
        <ele>5</ele>
        <time>2019-07-15T10:06:04Z</time>
      </trkpt>
      <trkpt lat="47.81535" lon="-3.53534">
        <ele>6</ele>
        <time>2019-07-15T10:06:05Z</time>
      </trkpt>
      <trkpt lat="47.81539" lon="-3.53538">
        <ele>6</ele>
        <time>2019-07-15T10:06:06Z</time>
      </trkpt>
      <trkpt lat="47.81543" lon="-3.53541">
        <ele>6</ele>
        <time>2019-07-15T10:06:07Z</time>
      </trkpt>
      <trkpt lat="47.81547" lon="-3.53543">
        <ele>6</ele>
        <time>2019-07-15T10:06:08Z</time>
      </trkpt>
      <trkpt lat="47.81552" lon="-3.53545">
        <ele>6</ele>
        <time>2019-07-15T10:06:09Z</time>
      </trkpt>
      <trkpt lat="47.81557" lon="-3.53546">
        <ele>6</ele>
        <time>2019-07-15T10:06:10Z</time>
      </trkpt>
      <trkpt lat="47.81562" lon="-3.53549">
        <ele>6</ele>
        <time>2019-07-15T10:06:11Z</time>
      </trkpt>
      <trkpt lat="47.81567" lon="-3.53551">
        <ele>6</ele>
        <time>2019-07-15T10:06:12Z</time>
      </trkpt>
      <trkpt lat="47.81571" lon="-3.53552">
        <ele>6</ele>
        <time>2019-07-15T10:06:13Z</time>
      </trkpt>
      <trkpt lat="47.81574" lon="-3.53555">
        <ele>6</ele>
        <time>2019-07-15T10:06:14Z</time>
      </trkpt>
      <trkpt lat="47.81577" lon="-3.53558">
        <ele>6</ele>
        <time>2019-07-15T10:06:15Z</time>
      </trkpt>
      <trkpt lat="47.81579" lon="-3.53562">
        <ele>7</ele>
        <time>2019-07-15T10:06:16Z</time>
      </trkpt>
      <trkpt lat="47.81582" lon="-3.53565">
        <ele>7</ele>
        <time>2019-07-15T10:06:17Z</time>
      </trkpt>
      <trkpt lat="47.81585" lon="-3.53568">
        <ele>7</ele>
        <time>2019-07-15T10:06:18Z</time>
      </trkpt>
      <trkpt lat="47.81588" lon="-3.53571">
        <ele>7</ele>
        <time>2019-07-15T10:06:19Z</time>
      </trkpt>
      <trkpt lat="47.81592" lon="-3.53572">
        <ele>7</ele>
        <time>2019-07-15T10:06:20Z</time>
      </trkpt>
      <trkpt lat="47.81596" lon="-3.53574">
        <ele>7</ele>
        <time>2019-07-15T10:06:21Z</time>
      </trkpt>
      <trkpt lat="47.81599" lon="-3.53576">
        <ele>7</ele>
        <time>2019-07-15T10:06:22Z</time>
      </trkpt>
      <trkpt lat="47.81603" lon="-3.53578">
        <ele>6</ele>
        <time>2019-07-15T10:06:23Z</time>
      </trkpt>
      <trkpt lat="47.81607" lon="-3.53581">
        <ele>6</ele>
        <time>2019-07-15T10:06:24Z</time>
      </trkpt>
      <trkpt lat="47.8161" lon="-3.53583">
        <ele>6</ele>
        <time>2019-07-15T10:06:25Z</time>
      </trkpt>
      <trkpt lat="47.81615" lon="-3.53585">
        <ele>6</ele>
        <time>2019-07-15T10:06:26Z</time>
      </trkpt>
      <trkpt lat="47.81618" lon="-3.53586">
        <ele>6</ele>
        <time>2019-07-15T10:06:27Z</time>
      </trkpt>
      <trkpt lat="47.81621" lon="-3.53588">
        <ele>6</ele>
        <time>2019-07-15T10:06:28Z</time>
      </trkpt>
      <trkpt lat="47.81625" lon="-3.53588">
        <ele>6</ele>
        <time>2019-07-15T10:06:29Z</time>
      </trkpt>
      <trkpt lat="47.81628" lon="-3.53588">
        <ele>6</ele>
        <time>2019-07-15T10:06:30Z</time>
      </trkpt>
      <trkpt lat="47.81631" lon="-3.53587">
        <ele>6</ele>
        <time>2019-07-15T10:06:31Z</time>
      </trkpt>
      <trkpt lat="47.81633" lon="-3.53587">
        <ele>5</ele>
        <time>2019-07-15T10:06:32Z</time>
      </trkpt>
      <trkpt lat="47.81636" lon="-3.53587">
        <ele>5</ele>
        <time>2019-07-15T10:06:33Z</time>
      </trkpt>
      <trkpt lat="47.81637" lon="-3.53588">
        <ele>5</ele>
        <time>2019-07-15T10:06:34Z</time>
      </trkpt>
      <trkpt lat="47.81639" lon="-3.53589">
        <ele>5</ele>
        <time>2019-07-15T10:06:35Z</time>
      </trkpt>
      <trkpt lat="47.81641" lon="-3.53591">
        <ele>5</ele>
        <time>2019-07-15T10:06:36Z</time>
      </trkpt>
      <trkpt lat="47.81645" lon="-3.53591">
        <ele>5</ele>
        <time>2019-07-15T10:06:37Z</time>
      </trkpt>
      <trkpt lat="47.81649" lon="-3.5359">
        <ele>5</ele>
        <time>2019-07-15T10:06:38Z</time>
      </trkpt>
      <trkpt lat="47.81652" lon="-3.53588">
        <ele>5</ele>
        <time>2019-07-15T10:06:39Z</time>
      </trkpt>
      <trkpt lat="47.81655" lon="-3.53586">
        <ele>5</ele>
        <time>2019-07-15T10:06:40Z</time>
      </trkpt>
      <trkpt lat="47.81658" lon="-3.53585">
        <ele>5</ele>
        <time>2019-07-15T10:06:41Z</time>
      </trkpt>
      <trkpt lat="47.81661" lon="-3.53585">
        <ele>5</ele>
        <time>2019-07-15T10:06:42Z</time>
      </trkpt>
      <trkpt lat="47.81665" lon="-3.53585">
        <ele>5</ele>
        <time>2019-07-15T10:06:43Z</time>
      </trkpt>
      <trkpt lat="47.81668" lon="-3.53585">
        <ele>5</ele>
        <time>2019-07-15T10:06:44Z</time>
      </trkpt>
      <trkpt lat="47.8167" lon="-3.53585">
        <ele>5</ele>
        <time>2019-07-15T10:06:45Z</time>
      </trkpt>
      <trkpt lat="47.81671" lon="-3.53584">
        <ele>5</ele>
        <time>2019-07-15T10:06:46Z</time>
      </trkpt>
      <trkpt lat="47.81673" lon="-3.53583">
        <ele>5</ele>
        <time>2019-07-15T10:06:47Z</time>
      </trkpt>
      <trkpt lat="47.81676" lon="-3.5358">
        <ele>5</ele>
        <time>2019-07-15T10:06:48Z</time>
      </trkpt>
      <trkpt lat="47.81679" lon="-3.53576">
        <ele>6</ele>
        <time>2019-07-15T10:06:49Z</time>
      </trkpt>
      <trkpt lat="47.81682" lon="-3.53573">
        <ele>6</ele>
        <time>2019-07-15T10:06:50Z</time>
      </trkpt>
      <trkpt lat="47.81685" lon="-3.53571">
        <ele>6</ele>
        <time>2019-07-15T10:06:51Z</time>
      </trkpt>
      <trkpt lat="47.81687" lon="-3.5357">
        <ele>6</ele>
        <time>2019-07-15T10:06:52Z</time>
      </trkpt>
      <trkpt lat="47.8169" lon="-3.53568">
        <ele>7</ele>
        <time>2019-07-15T10:06:53Z</time>
      </trkpt>
      <trkpt lat="47.81692" lon="-3.53567">
        <ele>7</ele>
        <time>2019-07-15T10:06:54Z</time>
      </trkpt>
      <trkpt lat="47.81695" lon="-3.53565">
        <ele>7</ele>
        <time>2019-07-15T10:06:55Z</time>
      </trkpt>
      <trkpt lat="47.81697" lon="-3.53564">
        <ele>7</ele>
        <time>2019-07-15T10:06:56Z</time>
      </trkpt>
      <trkpt lat="47.81699" lon="-3.53563">
        <ele>8</ele>
        <time>2019-07-15T10:06:57Z</time>
      </trkpt>
      <trkpt lat="47.81701" lon="-3.53561">
        <ele>8</ele>
        <time>2019-07-15T10:06:58Z</time>
      </trkpt>
      <trkpt lat="47.81704" lon="-3.53559">
        <ele>8</ele>
        <time>2019-07-15T10:06:59Z</time>
      </trkpt>
      <trkpt lat="47.81705" lon="-3.53558">
        <ele>8</ele>
        <time>2019-07-15T10:07:00Z</time>
      </trkpt>
      <trkpt lat="47.81707" lon="-3.53557">
        <ele>8</ele>
        <time>2019-07-15T10:07:01Z</time>
      </trkpt>
      <trkpt lat="47.81709" lon="-3.53556">
        <ele>8</ele>
        <time>2019-07-15T10:07:02Z</time>
      </trkpt>
      <trkpt lat="47.81711" lon="-3.53556">
        <ele>9</ele>
        <time>2019-07-15T10:07:03Z</time>
      </trkpt>
      <trkpt lat="47.81712" lon="-3.53555">
        <ele>9</ele>
        <time>2019-07-15T10:07:04Z</time>
      </trkpt>
      <trkpt lat="47.81714" lon="-3.53554">
        <ele>9</ele>
        <time>2019-07-15T10:07:05Z</time>
      </trkpt>
      <trkpt lat="47.81716" lon="-3.53553">
        <ele>9</ele>
        <time>2019-07-15T10:07:06Z</time>
      </trkpt>
      <trkpt lat="47.81717" lon="-3.53552">
        <ele>9</ele>
        <time>2019-07-15T10:07:07Z</time>
      </trkpt>
      <trkpt lat="47.81719" lon="-3.53551">
        <ele>9</ele>
        <time>2019-07-15T10:07:08Z</time>
      </trkpt>
      <trkpt lat="47.81721" lon="-3.5355">
        <ele>9</ele>
        <time>2019-07-15T10:07:09Z</time>
      </trkpt>
      <trkpt lat="47.81724" lon="-3.53549">
        <ele>9</ele>
        <time>2019-07-15T10:07:10Z</time>
      </trkpt>
      <trkpt lat="47.81725" lon="-3.53549">
        <ele>9</ele>
        <time>2019-07-15T10:07:11Z</time>
      </trkpt>
      <trkpt lat="47.81727" lon="-3.53547">
        <ele>9</ele>
        <time>2019-07-15T10:07:12Z</time>
      </trkpt>
      <trkpt lat="47.81728" lon="-3.53545">
        <ele>9</ele>
        <time>2019-07-15T10:07:13Z</time>
      </trkpt>
      <trkpt lat="47.81729" lon="-3.53543">
        <ele>9</ele>
        <time>2019-07-15T10:07:14Z</time>
      </trkpt>
      <trkpt lat="47.81731" lon="-3.53541">
        <ele>9</ele>
        <time>2019-07-15T10:07:15Z</time>
      </trkpt>
      <trkpt lat="47.81732" lon="-3.53539">
        <ele>9</ele>
        <time>2019-07-15T10:07:16Z</time>
      </trkpt>
      <trkpt lat="47.81733" lon="-3.53539">
        <ele>9</ele>
        <time>2019-07-15T10:07:17Z</time>
      </trkpt>
      <trkpt lat="47.81734" lon="-3.53539">
        <ele>9</ele>
        <time>2019-07-15T10:07:18Z</time>
      </trkpt>
      <trkpt lat="47.81734" lon="-3.53538">
        <ele>9</ele>
        <time>2019-07-15T10:07:19Z</time>
      </trkpt>
      <trkpt lat="47.81757" lon="-3.53521">
        <ele>16</ele>
        <time>2019-07-15T10:07:20Z</time>
      </trkpt>
      <trkpt lat="47.81758" lon="-3.5352">
        <ele>16</ele>
        <time>2019-07-15T10:07:21Z</time>
      </trkpt>
      <trkpt lat="47.81759" lon="-3.5352">
        <ele>16</ele>
        <time>2019-07-15T10:07:22Z</time>
      </trkpt>
      <trkpt lat="47.8176" lon="-3.5352">
        <ele>16</ele>
        <time>2019-07-15T10:07:23Z</time>
      </trkpt>
      <trkpt lat="47.81761" lon="-3.53519">
        <ele>17</ele>
        <time>2019-07-15T10:07:24Z</time>
      </trkpt>
      <trkpt lat="47.81762" lon="-3.53518">
        <ele>17</ele>
        <time>2019-07-15T10:07:25Z</time>
      </trkpt>
      <trkpt lat="47.81763" lon="-3.53517">
        <ele>17</ele>
        <time>2019-07-15T10:07:26Z</time>
      </trkpt>
      <trkpt lat="47.81764" lon="-3.53516">
        <ele>18</ele>
        <time>2019-07-15T10:07:27Z</time>
      </trkpt>
      <trkpt lat="47.81764" lon="-3.53515">
        <ele>18</ele>
        <time>2019-07-15T10:07:28Z</time>
      </trkpt>
      <trkpt lat="47.81766" lon="-3.53513">
        <ele>18</ele>
        <time>2019-07-15T10:07:29Z</time>
      </trkpt>
      <trkpt lat="47.81766" lon="-3.53512">
        <ele>19</ele>
        <time>2019-07-15T10:07:30Z</time>
      </trkpt>
      <trkpt lat="47.81767" lon="-3.53512">
        <ele>19</ele>
        <time>2019-07-15T10:07:31Z</time>
      </trkpt>
      <trkpt lat="47.81768" lon="-3.53511">
        <ele>20</ele>
        <time>2019-07-15T10:07:32Z</time>
      </trkpt>
      <trkpt lat="47.81769" lon="-3.53511">
        <ele>20</ele>
        <time>2019-07-15T10:07:33Z</time>
      </trkpt>
      <trkpt lat="47.8177" lon="-3.5351">
        <ele>20</ele>
        <time>2019-07-15T10:07:34Z</time>
      </trkpt>
      <trkpt lat="47.81771" lon="-3.53509">
        <ele>21</ele>
        <time>2019-07-15T10:07:35Z</time>
      </trkpt>
      <trkpt lat="47.81772" lon="-3.53509">
        <ele>21</ele>
        <time>2019-07-15T10:07:36Z</time>
      </trkpt>
      <trkpt lat="47.81773" lon="-3.53508">
        <ele>22</ele>
        <time>2019-07-15T10:07:37Z</time>
      </trkpt>
      <trkpt lat="47.81773" lon="-3.53508">
        <ele>22</ele>
        <time>2019-07-15T10:07:38Z</time>
      </trkpt>
      <trkpt lat="47.81774" lon="-3.53507">
        <ele>22</ele>
        <time>2019-07-15T10:07:39Z</time>
      </trkpt>
      <trkpt lat="47.81775" lon="-3.53506">
        <ele>23</ele>
        <time>2019-07-15T10:07:40Z</time>
      </trkpt>
      <trkpt lat="47.81775" lon="-3.53507">
        <ele>23</ele>
        <time>2019-07-15T10:07:41Z</time>
      </trkpt>
      <trkpt lat="47.81776" lon="-3.53506">
        <ele>23</ele>
        <time>2019-07-15T10:07:42Z</time>
      </trkpt>
      <trkpt lat="47.81776" lon="-3.53506">
        <ele>24</ele>
        <time>2019-07-15T10:07:43Z</time>
      </trkpt>
      <trkpt lat="47.81777" lon="-3.53504">
        <ele>24</ele>
        <time>2019-07-15T10:07:44Z</time>
      </trkpt>
      <trkpt lat="47.81778" lon="-3.53503">
        <ele>24</ele>
        <time>2019-07-15T10:07:45Z</time>
      </trkpt>
      <trkpt lat="47.81778" lon="-3.53502">
        <ele>24</ele>
        <time>2019-07-15T10:07:46Z</time>
      </trkpt>
      <trkpt lat="47.81779" lon="-3.53502">
        <ele>25</ele>
        <time>2019-07-15T10:07:47Z</time>
      </trkpt>
      <trkpt lat="47.81779" lon="-3.53501">
        <ele>25</ele>
        <time>2019-07-15T10:07:48Z</time>
      </trkpt>
      <trkpt lat="47.8178" lon="-3.535">
        <ele>25</ele>
        <time>2019-07-15T10:07:49Z</time>
      </trkpt>
      <trkpt lat="47.8178" lon="-3.53499">
        <ele>25</ele>
        <time>2019-07-15T10:07:50Z</time>
      </trkpt>
      <trkpt lat="47.81781" lon="-3.53498">
        <ele>25</ele>
        <time>2019-07-15T10:07:51Z</time>
      </trkpt>
      <trkpt lat="47.81782" lon="-3.53496">
        <ele>25</ele>
        <time>2019-07-15T10:07:52Z</time>
      </trkpt>
      <trkpt lat="47.81782" lon="-3.53496">
        <ele>25</ele>
        <time>2019-07-15T10:07:53Z</time>
      </trkpt>
      <trkpt lat="47.81782" lon="-3.53495">
        <ele>25</ele>
        <time>2019-07-15T10:07:54Z</time>
      </trkpt>
      <trkpt lat="47.81783" lon="-3.53495">
        <ele>25</ele>
        <time>2019-07-15T10:07:55Z</time>
      </trkpt>
      <trkpt lat="47.81782" lon="-3.53495">
        <ele>25</ele>
        <time>2019-07-15T10:07:56Z</time>
      </trkpt>
      <trkpt lat="47.81782" lon="-3.53494">
        <ele>25</ele>
        <time>2019-07-15T10:07:57Z</time>
      </trkpt>
      <trkpt lat="47.81781" lon="-3.53494">
        <ele>25</ele>
        <time>2019-07-15T10:07:58Z</time>
      </trkpt>
      <trkpt lat="47.81781" lon="-3.53493">
        <ele>25</ele>
        <time>2019-07-15T10:07:59Z</time>
      </trkpt>
      <trkpt lat="47.81785" lon="-3.53471">
        <ele>24</ele>
        <time>2019-07-15T10:08:00Z</time>
      </trkpt>
      <trkpt lat="47.81785" lon="-3.53469">
        <ele>24</ele>
        <time>2019-07-15T10:08:01Z</time>
      </trkpt>
      <trkpt lat="47.81786" lon="-3.53467">
        <ele>24</ele>
        <time>2019-07-15T10:08:02Z</time>
      </trkpt>
      <trkpt lat="47.81787" lon="-3.53466">
        <ele>24</ele>
        <time>2019-07-15T10:08:03Z</time>
      </trkpt>
      <trkpt lat="47.81787" lon="-3.53465">
        <ele>24</ele>
        <time>2019-07-15T10:08:04Z</time>
      </trkpt>
      <trkpt lat="47.81791" lon="-3.53451">
        <ele>24</ele>
        <time>2019-07-15T10:08:05Z</time>
      </trkpt>
      <trkpt lat="47.81791" lon="-3.5345">
        <ele>24</ele>
        <time>2019-07-15T10:08:06Z</time>
      </trkpt>
      <trkpt lat="47.81792" lon="-3.53449">
        <ele>24</ele>
        <time>2019-07-15T10:08:07Z</time>
      </trkpt>
      <trkpt lat="47.81792" lon="-3.53448">
        <ele>24</ele>
        <time>2019-07-15T10:08:08Z</time>
      </trkpt>
      <trkpt lat="47.81797" lon="-3.53437">
        <ele>23</ele>
        <time>2019-07-15T10:08:09Z</time>
      </trkpt>
      <trkpt lat="47.81797" lon="-3.53435">
        <ele>23</ele>
        <time>2019-07-15T10:08:10Z</time>
      </trkpt>
      <trkpt lat="47.81797" lon="-3.53434">
        <ele>23</ele>
        <time>2019-07-15T10:08:11Z</time>
      </trkpt>
      <trkpt lat="47.81797" lon="-3.53433">
        <ele>23</ele>
        <time>2019-07-15T10:08:12Z</time>
      </trkpt>
      <trkpt lat="47.818" lon="-3.53426">
        <ele>23</ele>
        <time>2019-07-15T10:08:13Z</time>
      </trkpt>
      <trkpt lat="47.81801" lon="-3.53424">
        <ele>23</ele>
        <time>2019-07-15T10:08:14Z</time>
      </trkpt>
      <trkpt lat="47.81802" lon="-3.53423">
        <ele>23</ele>
        <time>2019-07-15T10:08:15Z</time>
      </trkpt>
      <trkpt lat="47.81803" lon="-3.53423">
        <ele>23</ele>
        <time>2019-07-15T10:08:16Z</time>
      </trkpt>
      <trkpt lat="47.81804" lon="-3.53422">
        <ele>23</ele>
        <time>2019-07-15T10:08:17Z</time>
      </trkpt>
      <trkpt lat="47.81806" lon="-3.53421">
        <ele>23</ele>
        <time>2019-07-15T10:08:18Z</time>
      </trkpt>
      <trkpt lat="47.81807" lon="-3.5342">
        <ele>23</ele>
        <time>2019-07-15T10:08:19Z</time>
      </trkpt>
      <trkpt lat="47.81809" lon="-3.53419">
        <ele>23</ele>
        <time>2019-07-15T10:08:20Z</time>
      </trkpt>
      <trkpt lat="47.8181" lon="-3.53417">
        <ele>23</ele>
        <time>2019-07-15T10:08:21Z</time>
      </trkpt>
      <trkpt lat="47.81811" lon="-3.53415">
        <ele>23</ele>
        <time>2019-07-15T10:08:22Z</time>
      </trkpt>
      <trkpt lat="47.81812" lon="-3.53414">
        <ele>23</ele>
        <time>2019-07-15T10:08:23Z</time>
      </trkpt>
      <trkpt lat="47.81813" lon="-3.53412">
        <ele>23</ele>
        <time>2019-07-15T10:08:24Z</time>
      </trkpt>
      <trkpt lat="47.81814" lon="-3.5341">
        <ele>23</ele>
        <time>2019-07-15T10:08:25Z</time>
      </trkpt>
      <trkpt lat="47.81814" lon="-3.53408">
        <ele>23</ele>
        <time>2019-07-15T10:08:26Z</time>
      </trkpt>
      <trkpt lat="47.81815" lon="-3.53406">
        <ele>23</ele>
        <time>2019-07-15T10:08:27Z</time>
      </trkpt>
      <trkpt lat="47.81816" lon="-3.53404">
        <ele>23</ele>
        <time>2019-07-15T10:08:28Z</time>
      </trkpt>
      <trkpt lat="47.81817" lon="-3.53403">
        <ele>23</ele>
        <time>2019-07-15T10:08:29Z</time>
      </trkpt>
      <trkpt lat="47.81817" lon="-3.53401">
        <ele>23</ele>
        <time>2019-07-15T10:08:30Z</time>
      </trkpt>
      <trkpt lat="47.81819" lon="-3.53399">
        <ele>23</ele>
        <time>2019-07-15T10:08:31Z</time>
      </trkpt>
      <trkpt lat="47.8182" lon="-3.53398">
        <ele>23</ele>
        <time>2019-07-15T10:08:32Z</time>
      </trkpt>
      <trkpt lat="47.81821" lon="-3.53397">
        <ele>23</ele>
        <time>2019-07-15T10:08:33Z</time>
      </trkpt>
      <trkpt lat="47.81822" lon="-3.53395">
        <ele>23</ele>
        <time>2019-07-15T10:08:34Z</time>
      </trkpt>
      <trkpt lat="47.81823" lon="-3.53393">
        <ele>24</ele>
        <time>2019-07-15T10:08:35Z</time>
      </trkpt>
      <trkpt lat="47.81825" lon="-3.5339">
        <ele>24</ele>
        <time>2019-07-15T10:08:36Z</time>
      </trkpt>
      <trkpt lat="47.81826" lon="-3.53387">
        <ele>24</ele>
        <time>2019-07-15T10:08:37Z</time>
      </trkpt>
      <trkpt lat="47.81827" lon="-3.53385">
        <ele>24</ele>
        <time>2019-07-15T10:08:38Z</time>
      </trkpt>
      <trkpt lat="47.81827" lon="-3.53384">
        <ele>24</ele>
        <time>2019-07-15T10:08:39Z</time>
      </trkpt>
      <trkpt lat="47.81828" lon="-3.53382">
        <ele>24</ele>
        <time>2019-07-15T10:08:40Z</time>
      </trkpt>
      <trkpt lat="47.81829" lon="-3.53381">
        <ele>25</ele>
        <time>2019-07-15T10:08:41Z</time>
      </trkpt>
      <trkpt lat="47.81829" lon="-3.53379">
        <ele>25</ele>
        <time>2019-07-15T10:08:42Z</time>
      </trkpt>
      <trkpt lat="47.8183" lon="-3.53377">
        <ele>25</ele>
        <time>2019-07-15T10:08:43Z</time>
      </trkpt>
      <trkpt lat="47.81831" lon="-3.53375">
        <ele>25</ele>
        <time>2019-07-15T10:08:44Z</time>
      </trkpt>
      <trkpt lat="47.81832" lon="-3.53373">
        <ele>26</ele>
        <time>2019-07-15T10:08:45Z</time>
      </trkpt>
      <trkpt lat="47.81832" lon="-3.53371">
        <ele>26</ele>
        <time>2019-07-15T10:08:46Z</time>
      </trkpt>
      <trkpt lat="47.81833" lon="-3.53369">
        <ele>26</ele>
        <time>2019-07-15T10:08:47Z</time>
      </trkpt>
      <trkpt lat="47.81834" lon="-3.53367">
        <ele>27</ele>
        <time>2019-07-15T10:08:48Z</time>
      </trkpt>
      <trkpt lat="47.81834" lon="-3.53365">
        <ele>27</ele>
        <time>2019-07-15T10:08:49Z</time>
      </trkpt>
      <trkpt lat="47.81835" lon="-3.53363">
        <ele>27</ele>
        <time>2019-07-15T10:08:50Z</time>
      </trkpt>
      <trkpt lat="47.81836" lon="-3.53361">
        <ele>28</ele>
        <time>2019-07-15T10:08:51Z</time>
      </trkpt>
      <trkpt lat="47.81836" lon="-3.53359">
        <ele>28</ele>
        <time>2019-07-15T10:08:52Z</time>
      </trkpt>
      <trkpt lat="47.81836" lon="-3.53357">
        <ele>28</ele>
        <time>2019-07-15T10:08:53Z</time>
      </trkpt>
      <trkpt lat="47.81837" lon="-3.53355">
        <ele>29</ele>
        <time>2019-07-15T10:08:54Z</time>
      </trkpt>
      <trkpt lat="47.81837" lon="-3.53353">
        <ele>29</ele>
        <time>2019-07-15T10:08:55Z</time>
      </trkpt>
      <trkpt lat="47.81838" lon="-3.53351">
        <ele>30</ele>
        <time>2019-07-15T10:08:56Z</time>
      </trkpt>
      <trkpt lat="47.81839" lon="-3.53349">
        <ele>30</ele>
        <time>2019-07-15T10:08:57Z</time>
      </trkpt>
      <trkpt lat="47.8184" lon="-3.53347">
        <ele>31</ele>
        <time>2019-07-15T10:08:58Z</time>
      </trkpt>
      <trkpt lat="47.81841" lon="-3.53346">
        <ele>31</ele>
        <time>2019-07-15T10:08:59Z</time>
      </trkpt>
      <trkpt lat="47.81842" lon="-3.53345">
        <ele>32</ele>
        <time>2019-07-15T10:09:00Z</time>
      </trkpt>
      <trkpt lat="47.81843" lon="-3.53345">
        <ele>32</ele>
        <time>2019-07-15T10:09:01Z</time>
      </trkpt>
      <trkpt lat="47.81845" lon="-3.53343">
        <ele>32</ele>
        <time>2019-07-15T10:09:02Z</time>
      </trkpt>
      <trkpt lat="47.81847" lon="-3.53339">
        <ele>33</ele>
        <time>2019-07-15T10:09:03Z</time>
      </trkpt>
      <trkpt lat="47.8185" lon="-3.53335">
        <ele>33</ele>
        <time>2019-07-15T10:09:04Z</time>
      </trkpt>
      <trkpt lat="47.81853" lon="-3.53331">
        <ele>33</ele>
        <time>2019-07-15T10:09:05Z</time>
      </trkpt>
      <trkpt lat="47.81855" lon="-3.53326">
        <ele>34</ele>
        <time>2019-07-15T10:09:06Z</time>
      </trkpt>
      <trkpt lat="47.81857" lon="-3.53321">
        <ele>34</ele>
        <time>2019-07-15T10:09:07Z</time>
      </trkpt>
      <trkpt lat="47.81859" lon="-3.53314">
        <ele>34</ele>
        <time>2019-07-15T10:09:08Z</time>
      </trkpt>
      <trkpt lat="47.81862" lon="-3.53306">
        <ele>34</ele>
        <time>2019-07-15T10:09:09Z</time>
      </trkpt>
      <trkpt lat="47.81866" lon="-3.533">
        <ele>34</ele>
        <time>2019-07-15T10:09:10Z</time>
      </trkpt>
      <trkpt lat="47.8187" lon="-3.53294">
        <ele>35</ele>
        <time>2019-07-15T10:09:11Z</time>
      </trkpt>
      <trkpt lat="47.81874" lon="-3.53288">
        <ele>35</ele>
        <time>2019-07-15T10:09:12Z</time>
      </trkpt>
      <trkpt lat="47.81878" lon="-3.53282">
        <ele>35</ele>
        <time>2019-07-15T10:09:13Z</time>
      </trkpt>
      <trkpt lat="47.81882" lon="-3.53278">
        <ele>35</ele>
        <time>2019-07-15T10:09:14Z</time>
      </trkpt>
      <trkpt lat="47.81886" lon="-3.53276">
        <ele>35</ele>
        <time>2019-07-15T10:09:15Z</time>
      </trkpt>
      <trkpt lat="47.81891" lon="-3.53272">
        <ele>35</ele>
        <time>2019-07-15T10:09:16Z</time>
      </trkpt>
      <trkpt lat="47.81895" lon="-3.53269">
        <ele>35</ele>
        <time>2019-07-15T10:09:17Z</time>
      </trkpt>
      <trkpt lat="47.81899" lon="-3.53267">
        <ele>35</ele>
        <time>2019-07-15T10:09:18Z</time>
      </trkpt>
      <trkpt lat="47.81902" lon="-3.53265">
        <ele>35</ele>
        <time>2019-07-15T10:09:19Z</time>
      </trkpt>
      <trkpt lat="47.81905" lon="-3.53263">
        <ele>35</ele>
        <time>2019-07-15T10:09:20Z</time>
      </trkpt>
      <trkpt lat="47.81908" lon="-3.53261">
        <ele>35</ele>
        <time>2019-07-15T10:09:21Z</time>
      </trkpt>
      <trkpt lat="47.8191" lon="-3.53258">
        <ele>35</ele>
        <time>2019-07-15T10:09:22Z</time>
      </trkpt>
      <trkpt lat="47.81913" lon="-3.53254">
        <ele>35</ele>
        <time>2019-07-15T10:09:23Z</time>
      </trkpt>
      <trkpt lat="47.81916" lon="-3.53249">
        <ele>35</ele>
        <time>2019-07-15T10:09:24Z</time>
      </trkpt>
      <trkpt lat="47.81918" lon="-3.53244">
        <ele>35</ele>
        <time>2019-07-15T10:09:25Z</time>
      </trkpt>
      <trkpt lat="47.8192" lon="-3.53239">
        <ele>35</ele>
        <time>2019-07-15T10:09:26Z</time>
      </trkpt>
      <trkpt lat="47.81922" lon="-3.53234">
        <ele>34</ele>
        <time>2019-07-15T10:09:27Z</time>
      </trkpt>
      <trkpt lat="47.81924" lon="-3.5323">
        <ele>34</ele>
        <time>2019-07-15T10:09:28Z</time>
      </trkpt>
      <trkpt lat="47.81925" lon="-3.53227">
        <ele>34</ele>
        <time>2019-07-15T10:09:29Z</time>
      </trkpt>
      <trkpt lat="47.81927" lon="-3.53223">
        <ele>34</ele>
        <time>2019-07-15T10:09:30Z</time>
      </trkpt>
      <trkpt lat="47.81929" lon="-3.53218">
        <ele>34</ele>
        <time>2019-07-15T10:09:31Z</time>
      </trkpt>
      <trkpt lat="47.81931" lon="-3.53214">
        <ele>34</ele>
        <time>2019-07-15T10:09:32Z</time>
      </trkpt>
      <trkpt lat="47.81932" lon="-3.5321">
        <ele>34</ele>
        <time>2019-07-15T10:09:33Z</time>
      </trkpt>
      <trkpt lat="47.81934" lon="-3.53207">
        <ele>34</ele>
        <time>2019-07-15T10:09:34Z</time>
      </trkpt>
      <trkpt lat="47.81936" lon="-3.53204">
        <ele>35</ele>
        <time>2019-07-15T10:09:35Z</time>
      </trkpt>
      <trkpt lat="47.81938" lon="-3.53203">
        <ele>35</ele>
        <time>2019-07-15T10:09:36Z</time>
      </trkpt>
      <trkpt lat="47.8194" lon="-3.53202">
        <ele>35</ele>
        <time>2019-07-15T10:09:37Z</time>
      </trkpt>
      <trkpt lat="47.81942" lon="-3.53199">
        <ele>35</ele>
        <time>2019-07-15T10:09:38Z</time>
      </trkpt>
      <trkpt lat="47.81945" lon="-3.53195">
        <ele>35</ele>
        <time>2019-07-15T10:09:39Z</time>
      </trkpt>
      <trkpt lat="47.81948" lon="-3.53191">
        <ele>35</ele>
        <time>2019-07-15T10:09:40Z</time>
      </trkpt>
      <trkpt lat="47.8195" lon="-3.53186">
        <ele>36</ele>
        <time>2019-07-15T10:09:41Z</time>
      </trkpt>
      <trkpt lat="47.81952" lon="-3.53181">
        <ele>36</ele>
        <time>2019-07-15T10:09:42Z</time>
      </trkpt>
      <trkpt lat="47.81955" lon="-3.53177">
        <ele>36</ele>
        <time>2019-07-15T10:09:43Z</time>
      </trkpt>
      <trkpt lat="47.81957" lon="-3.53174">
        <ele>36</ele>
        <time>2019-07-15T10:09:44Z</time>
      </trkpt>
      <trkpt lat="47.8196" lon="-3.53174">
        <ele>36</ele>
        <time>2019-07-15T10:09:45Z</time>
      </trkpt>
      <trkpt lat="47.81962" lon="-3.53174">
        <ele>36</ele>
        <time>2019-07-15T10:09:46Z</time>
      </trkpt>
      <trkpt lat="47.81964" lon="-3.53174">
        <ele>37</ele>
        <time>2019-07-15T10:09:47Z</time>
      </trkpt>
      <trkpt lat="47.81967" lon="-3.53176">
        <ele>37</ele>
        <time>2019-07-15T10:09:48Z</time>
      </trkpt>
      <trkpt lat="47.81969" lon="-3.53177">
        <ele>37</ele>
        <time>2019-07-15T10:09:49Z</time>
      </trkpt>
      <trkpt lat="47.81972" lon="-3.53179">
        <ele>37</ele>
        <time>2019-07-15T10:09:50Z</time>
      </trkpt>
      <trkpt lat="47.81976" lon="-3.53183">
        <ele>37</ele>
        <time>2019-07-15T10:09:51Z</time>
      </trkpt>
      <trkpt lat="47.81979" lon="-3.53185">
        <ele>37</ele>
        <time>2019-07-15T10:09:52Z</time>
      </trkpt>
      <trkpt lat="47.81982" lon="-3.53188">
        <ele>37</ele>
        <time>2019-07-15T10:09:53Z</time>
      </trkpt>
      <trkpt lat="47.81984" lon="-3.53191">
        <ele>37</ele>
        <time>2019-07-15T10:09:54Z</time>
      </trkpt>
      <trkpt lat="47.81987" lon="-3.53191">
        <ele>36</ele>
        <time>2019-07-15T10:09:55Z</time>
      </trkpt>
      <trkpt lat="47.81989" lon="-3.53192">
        <ele>36</ele>
        <time>2019-07-15T10:09:56Z</time>
      </trkpt>
      <trkpt lat="47.81991" lon="-3.53195">
        <ele>36</ele>
        <time>2019-07-15T10:09:57Z</time>
      </trkpt>
      <trkpt lat="47.81993" lon="-3.53198">
        <ele>36</ele>
        <time>2019-07-15T10:09:58Z</time>
      </trkpt>
      <trkpt lat="47.81995" lon="-3.53203">
        <ele>36</ele>
        <time>2019-07-15T10:09:59Z</time>
      </trkpt>
      <trkpt lat="47.81997" lon="-3.53207">
        <ele>36</ele>
        <time>2019-07-15T10:10:00Z</time>
      </trkpt>
      <trkpt lat="47.81998" lon="-3.53213">
        <ele>36</ele>
        <time>2019-07-15T10:10:01Z</time>
      </trkpt>
      <trkpt lat="47.81999" lon="-3.53218">
        <ele>36</ele>
        <time>2019-07-15T10:10:02Z</time>
      </trkpt>
      <trkpt lat="47.82001" lon="-3.53223">
        <ele>35</ele>
        <time>2019-07-15T10:10:03Z</time>
      </trkpt>
      <trkpt lat="47.82002" lon="-3.53227">
        <ele>35</ele>
        <time>2019-07-15T10:10:04Z</time>
      </trkpt>
      <trkpt lat="47.82004" lon="-3.5323">
        <ele>35</ele>
        <time>2019-07-15T10:10:05Z</time>
      </trkpt>
      <trkpt lat="47.82005" lon="-3.53233">
        <ele>35</ele>
        <time>2019-07-15T10:10:06Z</time>
      </trkpt>
      <trkpt lat="47.82006" lon="-3.53234">
        <ele>35</ele>
        <time>2019-07-15T10:10:07Z</time>
      </trkpt>
      <trkpt lat="47.82006" lon="-3.53235">
        <ele>35</ele>
        <time>2019-07-15T10:10:08Z</time>
      </trkpt>
      <trkpt lat="47.82008" lon="-3.53237">
        <ele>34</ele>
        <time>2019-07-15T10:10:09Z</time>
      </trkpt>
      <trkpt lat="47.82012" lon="-3.5324">
        <ele>34</ele>
        <time>2019-07-15T10:10:10Z</time>
      </trkpt>
      <trkpt lat="47.82017" lon="-3.53243">
        <ele>34</ele>
        <time>2019-07-15T10:10:11Z</time>
      </trkpt>
      <trkpt lat="47.82023" lon="-3.53247">
        <ele>34</ele>
        <time>2019-07-15T10:10:12Z</time>
      </trkpt>
      <trkpt lat="47.82028" lon="-3.53251">
        <ele>33</ele>
        <time>2019-07-15T10:10:13Z</time>
      </trkpt>
      <trkpt lat="47.82033" lon="-3.53256">
        <ele>33</ele>
        <time>2019-07-15T10:10:14Z</time>
      </trkpt>
      <trkpt lat="47.82037" lon="-3.53262">
        <ele>32</ele>
        <time>2019-07-15T10:10:15Z</time>
      </trkpt>
      <trkpt lat="47.82043" lon="-3.53268">
        <ele>31</ele>
        <time>2019-07-15T10:10:16Z</time>
      </trkpt>
      <trkpt lat="47.82049" lon="-3.53274">
        <ele>31</ele>
        <time>2019-07-15T10:10:17Z</time>
      </trkpt>
      <trkpt lat="47.82054" lon="-3.5328">
        <ele>30</ele>
        <time>2019-07-15T10:10:18Z</time>
      </trkpt>
      <trkpt lat="47.8206" lon="-3.53286">
        <ele>30</ele>
        <time>2019-07-15T10:10:19Z</time>
      </trkpt>
      <trkpt lat="47.82067" lon="-3.53293">
        <ele>29</ele>
        <time>2019-07-15T10:10:20Z</time>
      </trkpt>
      <trkpt lat="47.82074" lon="-3.533">
        <ele>29</ele>
        <time>2019-07-15T10:10:21Z</time>
      </trkpt>
      <trkpt lat="47.8208" lon="-3.53308">
        <ele>28</ele>
        <time>2019-07-15T10:10:22Z</time>
      </trkpt>
      <trkpt lat="47.82086" lon="-3.53315">
        <ele>28</ele>
        <time>2019-07-15T10:10:23Z</time>
      </trkpt>
      <trkpt lat="47.82092" lon="-3.53322">
        <ele>27</ele>
        <time>2019-07-15T10:10:24Z</time>
      </trkpt>
      <trkpt lat="47.82098" lon="-3.53327">
        <ele>27</ele>
        <time>2019-07-15T10:10:25Z</time>
      </trkpt>
      <trkpt lat="47.82104" lon="-3.53332">
        <ele>26</ele>
        <time>2019-07-15T10:10:26Z</time>
      </trkpt>
      <trkpt lat="47.8211" lon="-3.53336">
        <ele>25</ele>
        <time>2019-07-15T10:10:27Z</time>
      </trkpt>
      <trkpt lat="47.82115" lon="-3.53339">
        <ele>25</ele>
        <time>2019-07-15T10:10:28Z</time>
      </trkpt>
      <trkpt lat="47.82119" lon="-3.53343">
        <ele>24</ele>
        <time>2019-07-15T10:10:29Z</time>
      </trkpt>
      <trkpt lat="47.82122" lon="-3.53347">
        <ele>24</ele>
        <time>2019-07-15T10:10:30Z</time>
      </trkpt>
      <trkpt lat="47.82125" lon="-3.53351">
        <ele>23</ele>
        <time>2019-07-15T10:10:31Z</time>
      </trkpt>
      <trkpt lat="47.82128" lon="-3.53356">
        <ele>22</ele>
        <time>2019-07-15T10:10:32Z</time>
      </trkpt>
      <trkpt lat="47.82132" lon="-3.53362">
        <ele>22</ele>
        <time>2019-07-15T10:10:33Z</time>
      </trkpt>
      <trkpt lat="47.82135" lon="-3.53369">
        <ele>21</ele>
        <time>2019-07-15T10:10:34Z</time>
      </trkpt>
      <trkpt lat="47.82139" lon="-3.53374">
        <ele>21</ele>
        <time>2019-07-15T10:10:35Z</time>
      </trkpt>
      <trkpt lat="47.82144" lon="-3.5338">
        <ele>20</ele>
        <time>2019-07-15T10:10:36Z</time>
      </trkpt>
      <trkpt lat="47.82148" lon="-3.53387">
        <ele>20</ele>
        <time>2019-07-15T10:10:37Z</time>
      </trkpt>
      <trkpt lat="47.82153" lon="-3.53393">
        <ele>19</ele>
        <time>2019-07-15T10:10:38Z</time>
      </trkpt>
      <trkpt lat="47.82157" lon="-3.53399">
        <ele>19</ele>
        <time>2019-07-15T10:10:39Z</time>
      </trkpt>
      <trkpt lat="47.8216" lon="-3.53405">
        <ele>18</ele>
        <time>2019-07-15T10:10:40Z</time>
      </trkpt>
      <trkpt lat="47.82162" lon="-3.53412">
        <ele>18</ele>
        <time>2019-07-15T10:10:41Z</time>
      </trkpt>
      <trkpt lat="47.82164" lon="-3.53418">
        <ele>17</ele>
        <time>2019-07-15T10:10:42Z</time>
      </trkpt>
      <trkpt lat="47.82167" lon="-3.53424">
        <ele>17</ele>
        <time>2019-07-15T10:10:43Z</time>
      </trkpt>
      <trkpt lat="47.8217" lon="-3.53429">
        <ele>16</ele>
        <time>2019-07-15T10:10:44Z</time>
      </trkpt>
      <trkpt lat="47.82173" lon="-3.53434">
        <ele>16</ele>
        <time>2019-07-15T10:10:45Z</time>
      </trkpt>
      <trkpt lat="47.82177" lon="-3.53436">
        <ele>15</ele>
        <time>2019-07-15T10:10:46Z</time>
      </trkpt>
      <trkpt lat="47.82182" lon="-3.53437">
        <ele>15</ele>
        <time>2019-07-15T10:10:47Z</time>
      </trkpt>
      <trkpt lat="47.82186" lon="-3.53438">
        <ele>15</ele>
        <time>2019-07-15T10:10:48Z</time>
      </trkpt>
      <trkpt lat="47.8219" lon="-3.53439">
        <ele>14</ele>
        <time>2019-07-15T10:10:49Z</time>
      </trkpt>
      <trkpt lat="47.82194" lon="-3.53438">
        <ele>14</ele>
        <time>2019-07-15T10:10:50Z</time>
      </trkpt>
      <trkpt lat="47.82197" lon="-3.53437">
        <ele>14</ele>
        <time>2019-07-15T10:10:51Z</time>
      </trkpt>
      <trkpt lat="47.822" lon="-3.53435">
        <ele>13</ele>
        <time>2019-07-15T10:10:52Z</time>
      </trkpt>
      <trkpt lat="47.82203" lon="-3.53434">
        <ele>13</ele>
        <time>2019-07-15T10:10:53Z</time>
      </trkpt>
      <trkpt lat="47.82206" lon="-3.53432">
        <ele>13</ele>
        <time>2019-07-15T10:10:54Z</time>
      </trkpt>
      <trkpt lat="47.82208" lon="-3.53431">
        <ele>13</ele>
        <time>2019-07-15T10:10:55Z</time>
      </trkpt>
      <trkpt lat="47.82211" lon="-3.53428">
        <ele>12</ele>
        <time>2019-07-15T10:10:56Z</time>
      </trkpt>
      <trkpt lat="47.82214" lon="-3.53426">
        <ele>12</ele>
        <time>2019-07-15T10:10:57Z</time>
      </trkpt>
      <trkpt lat="47.82217" lon="-3.53423">
        <ele>12</ele>
        <time>2019-07-15T10:10:58Z</time>
      </trkpt>
      <trkpt lat="47.8222" lon="-3.5342">
        <ele>12</ele>
        <time>2019-07-15T10:10:59Z</time>
      </trkpt>
      <trkpt lat="47.82222" lon="-3.53417">
        <ele>12</ele>
        <time>2019-07-15T10:11:00Z</time>
      </trkpt>
      <trkpt lat="47.82224" lon="-3.53416">
        <ele>12</ele>
        <time>2019-07-15T10:11:01Z</time>
      </trkpt>
      <trkpt lat="47.82226" lon="-3.53416">
        <ele>12</ele>
        <time>2019-07-15T10:11:02Z</time>
      </trkpt>
      <trkpt lat="47.82227" lon="-3.53417">
        <ele>12</ele>
        <time>2019-07-15T10:11:03Z</time>
      </trkpt>
      <trkpt lat="47.82229" lon="-3.53419">
        <ele>12</ele>
        <time>2019-07-15T10:11:04Z</time>
      </trkpt>
      <trkpt lat="47.82231" lon="-3.53421">
        <ele>12</ele>
        <time>2019-07-15T10:11:05Z</time>
      </trkpt>
      <trkpt lat="47.82232" lon="-3.53425">
        <ele>12</ele>
        <time>2019-07-15T10:11:06Z</time>
      </trkpt>
      <trkpt lat="47.82232" lon="-3.53429">
        <ele>12</ele>
        <time>2019-07-15T10:11:07Z</time>
      </trkpt>
      <trkpt lat="47.82231" lon="-3.53434">
        <ele>12</ele>
        <time>2019-07-15T10:11:08Z</time>
      </trkpt>
      <trkpt lat="47.8223" lon="-3.53438">
        <ele>13</ele>
        <time>2019-07-15T10:11:09Z</time>
      </trkpt>
      <trkpt lat="47.82229" lon="-3.53442">
        <ele>13</ele>
        <time>2019-07-15T10:11:10Z</time>
      </trkpt>
      <trkpt lat="47.82228" lon="-3.53446">
        <ele>13</ele>
        <time>2019-07-15T10:11:11Z</time>
      </trkpt>
      <trkpt lat="47.82228" lon="-3.53449">
        <ele>13</ele>
        <time>2019-07-15T10:11:12Z</time>
      </trkpt>
      <trkpt lat="47.82227" lon="-3.53452">
        <ele>13</ele>
        <time>2019-07-15T10:11:13Z</time>
      </trkpt>
      <trkpt lat="47.82227" lon="-3.53453">
        <ele>13</ele>
        <time>2019-07-15T10:11:14Z</time>
      </trkpt>
      <trkpt lat="47.82227" lon="-3.53456">
        <ele>13</ele>
        <time>2019-07-15T10:11:15Z</time>
      </trkpt>
      <trkpt lat="47.82226" lon="-3.53459">
        <ele>14</ele>
        <time>2019-07-15T10:11:16Z</time>
      </trkpt>
      <trkpt lat="47.82225" lon="-3.53462">
        <ele>14</ele>
        <time>2019-07-15T10:11:17Z</time>
      </trkpt>
      <trkpt lat="47.82225" lon="-3.53465">
        <ele>14</ele>
        <time>2019-07-15T10:11:18Z</time>
      </trkpt>
      <trkpt lat="47.82224" lon="-3.53468">
        <ele>14</ele>
        <time>2019-07-15T10:11:19Z</time>
      </trkpt>
      <trkpt lat="47.82223" lon="-3.5347">
        <ele>14</ele>
        <time>2019-07-15T10:11:20Z</time>
      </trkpt>
      <trkpt lat="47.82224" lon="-3.53472">
        <ele>14</ele>
        <time>2019-07-15T10:11:21Z</time>
      </trkpt>
      <trkpt lat="47.82224" lon="-3.53475">
        <ele>14</ele>
        <time>2019-07-15T10:11:22Z</time>
      </trkpt>
      <trkpt lat="47.82224" lon="-3.53477">
        <ele>15</ele>
        <time>2019-07-15T10:11:23Z</time>
      </trkpt>
      <trkpt lat="47.82223" lon="-3.53479">
        <ele>15</ele>
        <time>2019-07-15T10:11:24Z</time>
      </trkpt>
      <trkpt lat="47.82223" lon="-3.5348">
        <ele>15</ele>
        <time>2019-07-15T10:11:25Z</time>
      </trkpt>
      <trkpt lat="47.82222" lon="-3.53482">
        <ele>15</ele>
        <time>2019-07-15T10:11:26Z</time>
      </trkpt>
      <trkpt lat="47.82221" lon="-3.53484">
        <ele>15</ele>
        <time>2019-07-15T10:11:27Z</time>
      </trkpt>
      <trkpt lat="47.82221" lon="-3.53486">
        <ele>15</ele>
        <time>2019-07-15T10:11:28Z</time>
      </trkpt>
      <trkpt lat="47.8222" lon="-3.53489">
        <ele>14</ele>
        <time>2019-07-15T10:11:29Z</time>
      </trkpt>
      <trkpt lat="47.8222" lon="-3.53492">
        <ele>14</ele>
        <time>2019-07-15T10:11:30Z</time>
      </trkpt>
      <trkpt lat="47.8222" lon="-3.53497">
        <ele>14</ele>
        <time>2019-07-15T10:11:31Z</time>
      </trkpt>
      <trkpt lat="47.82221" lon="-3.53501">
        <ele>14</ele>
        <time>2019-07-15T10:11:32Z</time>
      </trkpt>
      <trkpt lat="47.82221" lon="-3.53506">
        <ele>14</ele>
        <time>2019-07-15T10:11:33Z</time>
      </trkpt>
      <trkpt lat="47.82223" lon="-3.53509">
        <ele>14</ele>
        <time>2019-07-15T10:11:34Z</time>
      </trkpt>
      <trkpt lat="47.82224" lon="-3.53513">
        <ele>13</ele>
        <time>2019-07-15T10:11:35Z</time>
      </trkpt>
      <trkpt lat="47.82225" lon="-3.53518">
        <ele>13</ele>
        <time>2019-07-15T10:11:36Z</time>
      </trkpt>
      <trkpt lat="47.82226" lon="-3.53522">
        <ele>13</ele>
        <time>2019-07-15T10:11:37Z</time>
      </trkpt>
      <trkpt lat="47.82227" lon="-3.53527">
        <ele>13</ele>
        <time>2019-07-15T10:11:38Z</time>
      </trkpt>
      <trkpt lat="47.82229" lon="-3.53532">
        <ele>13</ele>
        <time>2019-07-15T10:11:39Z</time>
      </trkpt>
      <trkpt lat="47.8223" lon="-3.53536">
        <ele>12</ele>
        <time>2019-07-15T10:11:40Z</time>
      </trkpt>
      <trkpt lat="47.82231" lon="-3.53541">
        <ele>12</ele>
        <time>2019-07-15T10:11:41Z</time>
      </trkpt>
      <trkpt lat="47.82232" lon="-3.53545">
        <ele>12</ele>
        <time>2019-07-15T10:11:42Z</time>
      </trkpt>
      <trkpt lat="47.82233" lon="-3.53549">
        <ele>12</ele>
        <time>2019-07-15T10:11:43Z</time>
      </trkpt>
      <trkpt lat="47.82233" lon="-3.53554">
        <ele>12</ele>
        <time>2019-07-15T10:11:44Z</time>
      </trkpt>
      <trkpt lat="47.82234" lon="-3.53559">
        <ele>12</ele>
        <time>2019-07-15T10:11:45Z</time>
      </trkpt>
      <trkpt lat="47.82236" lon="-3.53565">
        <ele>11</ele>
        <time>2019-07-15T10:11:46Z</time>
      </trkpt>
      <trkpt lat="47.82237" lon="-3.5357">
        <ele>11</ele>
        <time>2019-07-15T10:11:47Z</time>
      </trkpt>
      <trkpt lat="47.82239" lon="-3.53575">
        <ele>11</ele>
        <time>2019-07-15T10:11:48Z</time>
      </trkpt>
      <trkpt lat="47.82241" lon="-3.53579">
        <ele>11</ele>
        <time>2019-07-15T10:11:49Z</time>
      </trkpt>
      <trkpt lat="47.82244" lon="-3.53583">
        <ele>11</ele>
        <time>2019-07-15T10:11:50Z</time>
      </trkpt>
      <trkpt lat="47.82247" lon="-3.53585">
        <ele>11</ele>
        <time>2019-07-15T10:11:51Z</time>
      </trkpt>
      <trkpt lat="47.82249" lon="-3.53586">
        <ele>10</ele>
        <time>2019-07-15T10:11:52Z</time>
      </trkpt>
      <trkpt lat="47.82251" lon="-3.53586">
        <ele>10</ele>
        <time>2019-07-15T10:11:53Z</time>
      </trkpt>
      <trkpt lat="47.82253" lon="-3.53585">
        <ele>10</ele>
        <time>2019-07-15T10:11:54Z</time>
      </trkpt>
      <trkpt lat="47.82255" lon="-3.53585">
        <ele>10</ele>
        <time>2019-07-15T10:11:55Z</time>
      </trkpt>
      <trkpt lat="47.82257" lon="-3.53585">
        <ele>10</ele>
        <time>2019-07-15T10:11:56Z</time>
      </trkpt>
      <trkpt lat="47.82259" lon="-3.53584">
        <ele>9</ele>
        <time>2019-07-15T10:11:57Z</time>
      </trkpt>
      <trkpt lat="47.82262" lon="-3.53582">
        <ele>9</ele>
        <time>2019-07-15T10:11:58Z</time>
      </trkpt>
      <trkpt lat="47.82264" lon="-3.53579">
        <ele>9</ele>
        <time>2019-07-15T10:11:59Z</time>
      </trkpt>
      <trkpt lat="47.82266" lon="-3.53576">
        <ele>9</ele>
        <time>2019-07-15T10:12:00Z</time>
      </trkpt>
      <trkpt lat="47.82268" lon="-3.53572">
        <ele>9</ele>
        <time>2019-07-15T10:12:01Z</time>
      </trkpt>
      <trkpt lat="47.8227" lon="-3.53568">
        <ele>9</ele>
        <time>2019-07-15T10:12:02Z</time>
      </trkpt>
      <trkpt lat="47.82271" lon="-3.53565">
        <ele>9</ele>
        <time>2019-07-15T10:12:03Z</time>
      </trkpt>
      <trkpt lat="47.82273" lon="-3.53563">
        <ele>9</ele>
        <time>2019-07-15T10:12:04Z</time>
      </trkpt>
      <trkpt lat="47.82275" lon="-3.53561">
        <ele>9</ele>
        <time>2019-07-15T10:12:05Z</time>
      </trkpt>
      <trkpt lat="47.82276" lon="-3.53558">
        <ele>9</ele>
        <time>2019-07-15T10:12:06Z</time>
      </trkpt>
      <trkpt lat="47.82277" lon="-3.53555">
        <ele>9</ele>
        <time>2019-07-15T10:12:07Z</time>
      </trkpt>
      <trkpt lat="47.82278" lon="-3.53554">
        <ele>9</ele>
        <time>2019-07-15T10:12:08Z</time>
      </trkpt>
      <trkpt lat="47.82279" lon="-3.53553">
        <ele>9</ele>
        <time>2019-07-15T10:12:09Z</time>
      </trkpt>
      <trkpt lat="47.82279" lon="-3.53552">
        <ele>9</ele>
        <time>2019-07-15T10:12:10Z</time>
      </trkpt>
      <trkpt lat="47.8228" lon="-3.53552">
        <ele>9</ele>
        <time>2019-07-15T10:12:11Z</time>
      </trkpt>
      <trkpt lat="47.82281" lon="-3.53551">
        <ele>9</ele>
        <time>2019-07-15T10:12:12Z</time>
      </trkpt>
      <trkpt lat="47.82283" lon="-3.53549">
        <ele>10</ele>
        <time>2019-07-15T10:12:13Z</time>
      </trkpt>
      <trkpt lat="47.82283" lon="-3.53548">
        <ele>10</ele>
        <time>2019-07-15T10:12:14Z</time>
      </trkpt>
      <trkpt lat="47.82284" lon="-3.53546">
        <ele>10</ele>
        <time>2019-07-15T10:12:15Z</time>
      </trkpt>
      <trkpt lat="47.82285" lon="-3.53545">
        <ele>10</ele>
        <time>2019-07-15T10:12:16Z</time>
      </trkpt>
      <trkpt lat="47.82285" lon="-3.53544">
        <ele>10</ele>
        <time>2019-07-15T10:12:17Z</time>
      </trkpt>
      <trkpt lat="47.82286" lon="-3.53544">
        <ele>10</ele>
        <time>2019-07-15T10:12:18Z</time>
      </trkpt>
      <trkpt lat="47.82286" lon="-3.53543">
        <ele>10</ele>
        <time>2019-07-15T10:12:19Z</time>
      </trkpt>
      <trkpt lat="47.82287" lon="-3.53543">
        <ele>10</ele>
        <time>2019-07-15T10:12:20Z</time>
      </trkpt>
      <trkpt lat="47.82292" lon="-3.53541">
        <ele>14</ele>
        <time>2019-07-15T10:12:21Z</time>
      </trkpt>
      <trkpt lat="47.82292" lon="-3.53541">
        <ele>14</ele>
        <time>2019-07-15T10:12:22Z</time>
      </trkpt>
      <trkpt lat="47.82294" lon="-3.53541">
        <ele>14</ele>
        <time>2019-07-15T10:12:23Z</time>
      </trkpt>
      <trkpt lat="47.82295" lon="-3.53542">
        <ele>15</ele>
        <time>2019-07-15T10:12:24Z</time>
      </trkpt>
      <trkpt lat="47.82297" lon="-3.53543">
        <ele>15</ele>
        <time>2019-07-15T10:12:25Z</time>
      </trkpt>
      <trkpt lat="47.82299" lon="-3.53543">
        <ele>15</ele>
        <time>2019-07-15T10:12:26Z</time>
      </trkpt>
      <trkpt lat="47.82301" lon="-3.53544">
        <ele>15</ele>
        <time>2019-07-15T10:12:27Z</time>
      </trkpt>
      <trkpt lat="47.82302" lon="-3.53545">
        <ele>16</ele>
        <time>2019-07-15T10:12:28Z</time>
      </trkpt>
      <trkpt lat="47.82304" lon="-3.53546">
        <ele>16</ele>
        <time>2019-07-15T10:12:29Z</time>
      </trkpt>
      <trkpt lat="47.82305" lon="-3.53547">
        <ele>16</ele>
        <time>2019-07-15T10:12:30Z</time>
      </trkpt>
      <trkpt lat="47.82307" lon="-3.53548">
        <ele>16</ele>
        <time>2019-07-15T10:12:31Z</time>
      </trkpt>
      <trkpt lat="47.82308" lon="-3.53549">
        <ele>17</ele>
        <time>2019-07-15T10:12:32Z</time>
      </trkpt>
      <trkpt lat="47.82309" lon="-3.53552">
        <ele>17</ele>
        <time>2019-07-15T10:12:33Z</time>
      </trkpt>
      <trkpt lat="47.82311" lon="-3.53554">
        <ele>17</ele>
        <time>2019-07-15T10:12:34Z</time>
      </trkpt>
      <trkpt lat="47.82312" lon="-3.53555">
        <ele>17</ele>
        <time>2019-07-15T10:12:35Z</time>
      </trkpt>
      <trkpt lat="47.82314" lon="-3.53555">
        <ele>18</ele>
        <time>2019-07-15T10:12:36Z</time>
      </trkpt>
      <trkpt lat="47.82314" lon="-3.53555">
        <ele>18</ele>
        <time>2019-07-15T10:12:37Z</time>
      </trkpt>
      <trkpt lat="47.82315" lon="-3.53555">
        <ele>19</ele>
        <time>2019-07-15T10:12:38Z</time>
      </trkpt>
      <trkpt lat="47.82315" lon="-3.53555">
        <ele>19</ele>
        <time>2019-07-15T10:12:39Z</time>
      </trkpt>
      <trkpt lat="47.82315" lon="-3.53555">
        <ele>19</ele>
        <time>2019-07-15T10:12:40Z</time>
      </trkpt>
      <trkpt lat="47.8232" lon="-3.53562">
        <ele>23</ele>
        <time>2019-07-15T10:12:41Z</time>
      </trkpt>
      <trkpt lat="47.82319" lon="-3.53564">
        <ele>23</ele>
        <time>2019-07-15T10:12:42Z</time>
      </trkpt>
      <trkpt lat="47.82318" lon="-3.53566">
        <ele>23</ele>
        <time>2019-07-15T10:12:43Z</time>
      </trkpt>
      <trkpt lat="47.82317" lon="-3.53568">
        <ele>23</ele>
        <time>2019-07-15T10:12:44Z</time>
      </trkpt>
      <trkpt lat="47.82315" lon="-3.53571">
        <ele>23</ele>
        <time>2019-07-15T10:12:45Z</time>
      </trkpt>
      <trkpt lat="47.82315" lon="-3.53573">
        <ele>23</ele>
        <time>2019-07-15T10:12:46Z</time>
      </trkpt>
      <trkpt lat="47.82314" lon="-3.53575">
        <ele>23</ele>
        <time>2019-07-15T10:12:47Z</time>
      </trkpt>
      <trkpt lat="47.82314" lon="-3.53577">
        <ele>23</ele>
        <time>2019-07-15T10:12:48Z</time>
      </trkpt>
      <trkpt lat="47.82313" lon="-3.53578">
        <ele>24</ele>
        <time>2019-07-15T10:12:49Z</time>
      </trkpt>
      <trkpt lat="47.82312" lon="-3.5358">
        <ele>24</ele>
        <time>2019-07-15T10:12:50Z</time>
      </trkpt>
      <trkpt lat="47.8231" lon="-3.53582">
        <ele>24</ele>
        <time>2019-07-15T10:12:51Z</time>
      </trkpt>
      <trkpt lat="47.82308" lon="-3.53585">
        <ele>24</ele>
        <time>2019-07-15T10:12:52Z</time>
      </trkpt>
      <trkpt lat="47.82306" lon="-3.53589">
        <ele>24</ele>
        <time>2019-07-15T10:12:53Z</time>
      </trkpt>
      <trkpt lat="47.82303" lon="-3.53594">
        <ele>24</ele>
        <time>2019-07-15T10:12:54Z</time>
      </trkpt>
      <trkpt lat="47.82301" lon="-3.536">
        <ele>24</ele>
        <time>2019-07-15T10:12:55Z</time>
      </trkpt>
      <trkpt lat="47.82298" lon="-3.53606">
        <ele>24</ele>
        <time>2019-07-15T10:12:56Z</time>
      </trkpt>
      <trkpt lat="47.82296" lon="-3.53612">
        <ele>24</ele>
        <time>2019-07-15T10:12:57Z</time>
      </trkpt>
      <trkpt lat="47.82293" lon="-3.53618">
        <ele>24</ele>
        <time>2019-07-15T10:12:58Z</time>
      </trkpt>
      <trkpt lat="47.8229" lon="-3.53624">
        <ele>24</ele>
        <time>2019-07-15T10:12:59Z</time>
      </trkpt>
      <trkpt lat="47.82288" lon="-3.5363">
        <ele>24</ele>
        <time>2019-07-15T10:13:00Z</time>
      </trkpt>
      <trkpt lat="47.82286" lon="-3.53636">
        <ele>24</ele>
        <time>2019-07-15T10:13:01Z</time>
      </trkpt>
      <trkpt lat="47.82284" lon="-3.53641">
        <ele>24</ele>
        <time>2019-07-15T10:13:02Z</time>
      </trkpt>
      <trkpt lat="47.82283" lon="-3.53645">
        <ele>23</ele>
        <time>2019-07-15T10:13:03Z</time>
      </trkpt>
      <trkpt lat="47.82282" lon="-3.53647">
        <ele>23</ele>
        <time>2019-07-15T10:13:04Z</time>
      </trkpt>
      <trkpt lat="47.82281" lon="-3.53648">
        <ele>23</ele>
        <time>2019-07-15T10:13:05Z</time>
      </trkpt>
      <trkpt lat="47.8228" lon="-3.5365">
        <ele>23</ele>
        <time>2019-07-15T10:13:06Z</time>
      </trkpt>
      <trkpt lat="47.82279" lon="-3.53652">
        <ele>22</ele>
        <time>2019-07-15T10:13:07Z</time>
      </trkpt>
      <trkpt lat="47.82277" lon="-3.53654">
        <ele>22</ele>
        <time>2019-07-15T10:13:08Z</time>
      </trkpt>
      <trkpt lat="47.82274" lon="-3.53656">
        <ele>21</ele>
        <time>2019-07-15T10:13:09Z</time>
      </trkpt>
      <trkpt lat="47.82271" lon="-3.53657">
        <ele>21</ele>
        <time>2019-07-15T10:13:10Z</time>
      </trkpt>
      <trkpt lat="47.82268" lon="-3.53659">
        <ele>20</ele>
        <time>2019-07-15T10:13:11Z</time>
      </trkpt>
      <trkpt lat="47.82267" lon="-3.53662">
        <ele>20</ele>
        <time>2019-07-15T10:13:12Z</time>
      </trkpt>
      <trkpt lat="47.82266" lon="-3.53666">
        <ele>19</ele>
        <time>2019-07-15T10:13:13Z</time>
      </trkpt>
      <trkpt lat="47.82267" lon="-3.5367">
        <ele>19</ele>
        <time>2019-07-15T10:13:14Z</time>
      </trkpt>
      <trkpt lat="47.82267" lon="-3.53674">
        <ele>18</ele>
        <time>2019-07-15T10:13:15Z</time>
      </trkpt>
      <trkpt lat="47.82268" lon="-3.53678">
        <ele>18</ele>
        <time>2019-07-15T10:13:16Z</time>
      </trkpt>
      <trkpt lat="47.82268" lon="-3.53682">
        <ele>17</ele>
        <time>2019-07-15T10:13:17Z</time>
      </trkpt>
      <trkpt lat="47.82269" lon="-3.53686">
        <ele>17</ele>
        <time>2019-07-15T10:13:18Z</time>
      </trkpt>
      <trkpt lat="47.8227" lon="-3.53691">
        <ele>17</ele>
        <time>2019-07-15T10:13:19Z</time>
      </trkpt>
      <trkpt lat="47.82272" lon="-3.53697">
        <ele>16</ele>
        <time>2019-07-15T10:13:20Z</time>
      </trkpt>
      <trkpt lat="47.82272" lon="-3.53702">
        <ele>16</ele>
        <time>2019-07-15T10:13:21Z</time>
      </trkpt>
      <trkpt lat="47.82273" lon="-3.53706">
        <ele>15</ele>
        <time>2019-07-15T10:13:22Z</time>
      </trkpt>
      <trkpt lat="47.82273" lon="-3.53711">
        <ele>15</ele>
        <time>2019-07-15T10:13:23Z</time>
      </trkpt>
      <trkpt lat="47.82273" lon="-3.53713">
        <ele>14</ele>
        <time>2019-07-15T10:13:24Z</time>
      </trkpt>
      <trkpt lat="47.82274" lon="-3.53716">
        <ele>14</ele>
        <time>2019-07-15T10:13:25Z</time>
      </trkpt>
      <trkpt lat="47.82276" lon="-3.53719">
        <ele>14</ele>
        <time>2019-07-15T10:13:26Z</time>
      </trkpt>
      <trkpt lat="47.82279" lon="-3.53721">
        <ele>13</ele>
        <time>2019-07-15T10:13:27Z</time>
      </trkpt>
      <trkpt lat="47.82282" lon="-3.53723">
        <ele>13</ele>
        <time>2019-07-15T10:13:28Z</time>
      </trkpt>
      <trkpt lat="47.82285" lon="-3.53725">
        <ele>12</ele>
        <time>2019-07-15T10:13:29Z</time>
      </trkpt>
      <trkpt lat="47.82288" lon="-3.53727">
        <ele>12</ele>
        <time>2019-07-15T10:13:30Z</time>
      </trkpt>
      <trkpt lat="47.8229" lon="-3.53729">
        <ele>11</ele>
        <time>2019-07-15T10:13:31Z</time>
      </trkpt>
      <trkpt lat="47.82293" lon="-3.53731">
        <ele>11</ele>
        <time>2019-07-15T10:13:32Z</time>
      </trkpt>
      <trkpt lat="47.82297" lon="-3.53733">
        <ele>11</ele>
        <time>2019-07-15T10:13:33Z</time>
      </trkpt>
      <trkpt lat="47.823" lon="-3.53736">
        <ele>10</ele>
        <time>2019-07-15T10:13:34Z</time>
      </trkpt>
      <trkpt lat="47.82303" lon="-3.53739">
        <ele>10</ele>
        <time>2019-07-15T10:13:35Z</time>
      </trkpt>
      <trkpt lat="47.82306" lon="-3.53741">
        <ele>10</ele>
        <time>2019-07-15T10:13:36Z</time>
      </trkpt>
      <trkpt lat="47.82309" lon="-3.53743">
        <ele>10</ele>
        <time>2019-07-15T10:13:37Z</time>
      </trkpt>
      <trkpt lat="47.82311" lon="-3.53747">
        <ele>10</ele>
        <time>2019-07-15T10:13:38Z</time>
      </trkpt>
      <trkpt lat="47.82312" lon="-3.5375">
        <ele>9</ele>
        <time>2019-07-15T10:13:39Z</time>
      </trkpt>
      <trkpt lat="47.82313" lon="-3.53754">
        <ele>9</ele>
        <time>2019-07-15T10:13:40Z</time>
      </trkpt>
      <trkpt lat="47.82315" lon="-3.53758">
        <ele>9</ele>
        <time>2019-07-15T10:13:41Z</time>
      </trkpt>
      <trkpt lat="47.82316" lon="-3.53762">
        <ele>9</ele>
        <time>2019-07-15T10:13:42Z</time>
      </trkpt>
      <trkpt lat="47.82318" lon="-3.53765">
        <ele>9</ele>
        <time>2019-07-15T10:13:43Z</time>
      </trkpt>
      <trkpt lat="47.8232" lon="-3.53768">
        <ele>9</ele>
        <time>2019-07-15T10:13:44Z</time>
      </trkpt>
      <trkpt lat="47.82322" lon="-3.53771">
        <ele>9</ele>
        <time>2019-07-15T10:13:45Z</time>
      </trkpt>
      <trkpt lat="47.82325" lon="-3.53774">
        <ele>9</ele>
        <time>2019-07-15T10:13:46Z</time>
      </trkpt>
      <trkpt lat="47.82327" lon="-3.53775">
        <ele>9</ele>
        <time>2019-07-15T10:13:47Z</time>
      </trkpt>
      <trkpt lat="47.82329" lon="-3.53777">
        <ele>8</ele>
        <time>2019-07-15T10:13:48Z</time>
      </trkpt>
      <trkpt lat="47.82331" lon="-3.53779">
        <ele>8</ele>
        <time>2019-07-15T10:13:49Z</time>
      </trkpt>
      <trkpt lat="47.82333" lon="-3.53781">
        <ele>8</ele>
        <time>2019-07-15T10:13:50Z</time>
      </trkpt>
      <trkpt lat="47.82335" lon="-3.53782">
        <ele>8</ele>
        <time>2019-07-15T10:13:51Z</time>
      </trkpt>
      <trkpt lat="47.82337" lon="-3.53783">
        <ele>8</ele>
        <time>2019-07-15T10:13:52Z</time>
      </trkpt>
      <trkpt lat="47.82339" lon="-3.53784">
        <ele>8</ele>
        <time>2019-07-15T10:13:53Z</time>
      </trkpt>
      <trkpt lat="47.8234" lon="-3.53784">
        <ele>8</ele>
        <time>2019-07-15T10:13:54Z</time>
      </trkpt>
      <trkpt lat="47.82341" lon="-3.53784">
        <ele>8</ele>
        <time>2019-07-15T10:13:55Z</time>
      </trkpt>
      <trkpt lat="47.82343" lon="-3.53786">
        <ele>7</ele>
        <time>2019-07-15T10:13:56Z</time>
      </trkpt>
      <trkpt lat="47.82346" lon="-3.5379">
        <ele>7</ele>
        <time>2019-07-15T10:13:57Z</time>
      </trkpt>
      <trkpt lat="47.8235" lon="-3.53794">
        <ele>7</ele>
        <time>2019-07-15T10:13:58Z</time>
      </trkpt>
      <trkpt lat="47.82354" lon="-3.53799">
        <ele>7</ele>
        <time>2019-07-15T10:13:59Z</time>
      </trkpt>
      <trkpt lat="47.82358" lon="-3.53805">
        <ele>7</ele>
        <time>2019-07-15T10:14:00Z</time>
      </trkpt>
      <trkpt lat="47.82362" lon="-3.53811">
        <ele>7</ele>
        <time>2019-07-15T10:14:01Z</time>
      </trkpt>
      <trkpt lat="47.82367" lon="-3.53817">
        <ele>7</ele>
        <time>2019-07-15T10:14:02Z</time>
      </trkpt>
      <trkpt lat="47.82371" lon="-3.53824">
        <ele>7</ele>
        <time>2019-07-15T10:14:03Z</time>
      </trkpt>
      <trkpt lat="47.82376" lon="-3.53831">
        <ele>7</ele>
        <time>2019-07-15T10:14:04Z</time>
      </trkpt>
      <trkpt lat="47.82381" lon="-3.53838">
        <ele>7</ele>
        <time>2019-07-15T10:14:05Z</time>
      </trkpt>
      <trkpt lat="47.82385" lon="-3.53846">
        <ele>7</ele>
        <time>2019-07-15T10:14:06Z</time>
      </trkpt>
      <trkpt lat="47.8239" lon="-3.53853">
        <ele>7</ele>
        <time>2019-07-15T10:14:07Z</time>
      </trkpt>
      <trkpt lat="47.82395" lon="-3.53859">
        <ele>7</ele>
        <time>2019-07-15T10:14:08Z</time>
      </trkpt>
      <trkpt lat="47.82401" lon="-3.53863">
        <ele>7</ele>
        <time>2019-07-15T10:14:09Z</time>
      </trkpt>
      <trkpt lat="47.82406" lon="-3.53866">
        <ele>7</ele>
        <time>2019-07-15T10:14:10Z</time>
      </trkpt>
      <trkpt lat="47.8241" lon="-3.53868">
        <ele>7</ele>
        <time>2019-07-15T10:14:11Z</time>
      </trkpt>
      <trkpt lat="47.82414" lon="-3.5387">
        <ele>7</ele>
        <time>2019-07-15T10:14:12Z</time>
      </trkpt>
      <trkpt lat="47.82417" lon="-3.53871">
        <ele>7</ele>
        <time>2019-07-15T10:14:13Z</time>
      </trkpt>
      <trkpt lat="47.8242" lon="-3.53872">
        <ele>7</ele>
        <time>2019-07-15T10:14:14Z</time>
      </trkpt>
      <trkpt lat="47.82422" lon="-3.53874">
        <ele>7</ele>
        <time>2019-07-15T10:14:15Z</time>
      </trkpt>
      <trkpt lat="47.82425" lon="-3.53876">
        <ele>7</ele>
        <time>2019-07-15T10:14:16Z</time>
      </trkpt>
      <trkpt lat="47.82429" lon="-3.53877">
        <ele>7</ele>
        <time>2019-07-15T10:14:17Z</time>
      </trkpt>
      <trkpt lat="47.82432" lon="-3.53878">
        <ele>7</ele>
        <time>2019-07-15T10:14:18Z</time>
      </trkpt>
      <trkpt lat="47.82437" lon="-3.53879">
        <ele>6</ele>
        <time>2019-07-15T10:14:19Z</time>
      </trkpt>
      <trkpt lat="47.82441" lon="-3.5388">
        <ele>6</ele>
        <time>2019-07-15T10:14:20Z</time>
      </trkpt>
      <trkpt lat="47.82446" lon="-3.53882">
        <ele>6</ele>
        <time>2019-07-15T10:14:21Z</time>
      </trkpt>
      <trkpt lat="47.8245" lon="-3.53883">
        <ele>6</ele>
        <time>2019-07-15T10:14:22Z</time>
      </trkpt>
      <trkpt lat="47.82454" lon="-3.53884">
        <ele>6</ele>
        <time>2019-07-15T10:14:23Z</time>
      </trkpt>
      <trkpt lat="47.82458" lon="-3.53885">
        <ele>6</ele>
        <time>2019-07-15T10:14:24Z</time>
      </trkpt>
      <trkpt lat="47.82462" lon="-3.53886">
        <ele>7</ele>
        <time>2019-07-15T10:14:25Z</time>
      </trkpt>
      <trkpt lat="47.82466" lon="-3.53886">
        <ele>7</ele>
        <time>2019-07-15T10:14:26Z</time>
      </trkpt>
      <trkpt lat="47.82469" lon="-3.53887">
        <ele>7</ele>
        <time>2019-07-15T10:14:27Z</time>
      </trkpt>
      <trkpt lat="47.82472" lon="-3.53888">
        <ele>7</ele>
        <time>2019-07-15T10:14:28Z</time>
      </trkpt>
      <trkpt lat="47.82475" lon="-3.53889">
        <ele>7</ele>
        <time>2019-07-15T10:14:29Z</time>
      </trkpt>
      <trkpt lat="47.82479" lon="-3.5389">
        <ele>7</ele>
        <time>2019-07-15T10:14:30Z</time>
      </trkpt>
      <trkpt lat="47.82483" lon="-3.5389">
        <ele>7</ele>
        <time>2019-07-15T10:14:31Z</time>
      </trkpt>
      <trkpt lat="47.82487" lon="-3.5389">
        <ele>7</ele>
        <time>2019-07-15T10:14:32Z</time>
      </trkpt>
      <trkpt lat="47.82491" lon="-3.53891">
        <ele>7</ele>
        <time>2019-07-15T10:14:33Z</time>
      </trkpt>
      <trkpt lat="47.82495" lon="-3.53891">
        <ele>7</ele>
        <time>2019-07-15T10:14:34Z</time>
      </trkpt>
      <trkpt lat="47.82499" lon="-3.53891">
        <ele>7</ele>
        <time>2019-07-15T10:14:35Z</time>
      </trkpt>
      <trkpt lat="47.82503" lon="-3.53891">
        <ele>7</ele>
        <time>2019-07-15T10:14:36Z</time>
      </trkpt>
      <trkpt lat="47.82506" lon="-3.5389">
        <ele>7</ele>
        <time>2019-07-15T10:14:37Z</time>
      </trkpt>
      <trkpt lat="47.82509" lon="-3.5389">
        <ele>7</ele>
        <time>2019-07-15T10:14:38Z</time>
      </trkpt>
      <trkpt lat="47.82512" lon="-3.5389">
        <ele>7</ele>
        <time>2019-07-15T10:14:39Z</time>
      </trkpt>
      <trkpt lat="47.82513" lon="-3.53889">
        <ele>7</ele>
        <time>2019-07-15T10:14:40Z</time>
      </trkpt>
      <trkpt lat="47.82516" lon="-3.53889">
        <ele>7</ele>
        <time>2019-07-15T10:14:41Z</time>
      </trkpt>
      <trkpt lat="47.82518" lon="-3.53887">
        <ele>7</ele>
        <time>2019-07-15T10:14:42Z</time>
      </trkpt>
      <trkpt lat="47.82519" lon="-3.53886">
        <ele>7</ele>
        <time>2019-07-15T10:14:43Z</time>
      </trkpt>
      <trkpt lat="47.82521" lon="-3.53884">
        <ele>7</ele>
        <time>2019-07-15T10:14:44Z</time>
      </trkpt>
      <trkpt lat="47.82522" lon="-3.53881">
        <ele>8</ele>
        <time>2019-07-15T10:14:45Z</time>
      </trkpt>
      <trkpt lat="47.82523" lon="-3.53879">
        <ele>8</ele>
        <time>2019-07-15T10:14:46Z</time>
      </trkpt>
      <trkpt lat="47.82525" lon="-3.53877">
        <ele>8</ele>
        <time>2019-07-15T10:14:47Z</time>
      </trkpt>
      <trkpt lat="47.82526" lon="-3.53875">
        <ele>8</ele>
        <time>2019-07-15T10:14:48Z</time>
      </trkpt>
      <trkpt lat="47.82527" lon="-3.53874">
        <ele>9</ele>
        <time>2019-07-15T10:14:49Z</time>
      </trkpt>
      <trkpt lat="47.82528" lon="-3.53874">
        <ele>9</ele>
        <time>2019-07-15T10:14:50Z</time>
      </trkpt>
      <trkpt lat="47.82529" lon="-3.53874">
        <ele>9</ele>
        <time>2019-07-15T10:14:51Z</time>
      </trkpt>
      <trkpt lat="47.82531" lon="-3.53873">
        <ele>9</ele>
        <time>2019-07-15T10:14:52Z</time>
      </trkpt>
      <trkpt lat="47.82533" lon="-3.53874">
        <ele>10</ele>
        <time>2019-07-15T10:14:53Z</time>
      </trkpt>
      <trkpt lat="47.82536" lon="-3.53874">
        <ele>10</ele>
        <time>2019-07-15T10:14:54Z</time>
      </trkpt>
      <trkpt lat="47.82538" lon="-3.53874">
        <ele>10</ele>
        <time>2019-07-15T10:14:55Z</time>
      </trkpt>
      <trkpt lat="47.82539" lon="-3.53875">
        <ele>10</ele>
        <time>2019-07-15T10:14:56Z</time>
      </trkpt>
      <trkpt lat="47.8254" lon="-3.53876">
        <ele>10</ele>
        <time>2019-07-15T10:14:57Z</time>
      </trkpt>
      <trkpt lat="47.82539" lon="-3.53877">
        <ele>10</ele>
        <time>2019-07-15T10:14:58Z</time>
      </trkpt>
      <trkpt lat="47.8254" lon="-3.53878">
        <ele>10</ele>
        <time>2019-07-15T10:14:59Z</time>
      </trkpt>
      <trkpt lat="47.82541" lon="-3.53879">
        <ele>11</ele>
        <time>2019-07-15T10:15:00Z</time>
      </trkpt>
      <trkpt lat="47.82542" lon="-3.53881">
        <ele>11</ele>
        <time>2019-07-15T10:15:01Z</time>
      </trkpt>
      <trkpt lat="47.82543" lon="-3.53881">
        <ele>11</ele>
        <time>2019-07-15T10:15:02Z</time>
      </trkpt>
      <trkpt lat="47.82543" lon="-3.53882">
        <ele>11</ele>
        <time>2019-07-15T10:15:03Z</time>
      </trkpt>
      <trkpt lat="47.82544" lon="-3.53882">
        <ele>11</ele>
        <time>2019-07-15T10:15:04Z</time>
      </trkpt>
      <trkpt lat="47.82544" lon="-3.53882">
        <ele>11</ele>
        <time>2019-07-15T10:15:05Z</time>
      </trkpt>
      <trkpt lat="47.82545" lon="-3.53882">
        <ele>11</ele>
        <time>2019-07-15T10:15:06Z</time>
      </trkpt>
      <trkpt lat="47.82545" lon="-3.53882">
        <ele>12</ele>
        <time>2019-07-15T10:15:07Z</time>
      </trkpt>
      <trkpt lat="47.82551" lon="-3.53888">
        <ele>13</ele>
        <time>2019-07-15T10:15:08Z</time>
      </trkpt>
      <trkpt lat="47.82552" lon="-3.53889">
        <ele>13</ele>
        <time>2019-07-15T10:15:09Z</time>
      </trkpt>
      <trkpt lat="47.82552" lon="-3.5389">
        <ele>13</ele>
        <time>2019-07-15T10:15:10Z</time>
      </trkpt>
      <trkpt lat="47.82553" lon="-3.5389">
        <ele>13</ele>
        <time>2019-07-15T10:15:11Z</time>
      </trkpt>
      <trkpt lat="47.82553" lon="-3.5389">
        <ele>13</ele>
        <time>2019-07-15T10:15:12Z</time>
      </trkpt>
      <trkpt lat="47.82559" lon="-3.53891">
        <ele>13</ele>
        <time>2019-07-15T10:15:13Z</time>
      </trkpt>
      <trkpt lat="47.82559" lon="-3.53892">
        <ele>13</ele>
        <time>2019-07-15T10:15:14Z</time>
      </trkpt>
      <trkpt lat="47.82559" lon="-3.53893">
        <ele>13</ele>
        <time>2019-07-15T10:15:15Z</time>
      </trkpt>
      <trkpt lat="47.82559" lon="-3.53894">
        <ele>13</ele>
        <time>2019-07-15T10:15:16Z</time>
      </trkpt>
      <trkpt lat="47.82578" lon="-3.53906">
        <ele>16</ele>
        <time>2019-07-15T10:15:17Z</time>
      </trkpt>
      <trkpt lat="47.82579" lon="-3.53906">
        <ele>16</ele>
        <time>2019-07-15T10:15:18Z</time>
      </trkpt>
      <trkpt lat="47.8258" lon="-3.53907">
        <ele>16</ele>
        <time>2019-07-15T10:15:19Z</time>
      </trkpt>
      <trkpt lat="47.8258" lon="-3.53908">
        <ele>16</ele>
        <time>2019-07-15T10:15:20Z</time>
      </trkpt>
      <trkpt lat="47.8258" lon="-3.53907">
        <ele>16</ele>
        <time>2019-07-15T10:15:21Z</time>
      </trkpt>
      <trkpt lat="47.82581" lon="-3.53907">
        <ele>16</ele>
        <time>2019-07-15T10:15:22Z</time>
      </trkpt>
      <trkpt lat="47.82582" lon="-3.53908">
        <ele>16</ele>
        <time>2019-07-15T10:15:23Z</time>
      </trkpt>
      <trkpt lat="47.82582" lon="-3.53908">
        <ele>16</ele>
        <time>2019-07-15T10:15:24Z</time>
      </trkpt>
      <trkpt lat="47.82583" lon="-3.53908">
        <ele>16</ele>
        <time>2019-07-15T10:15:25Z</time>
      </trkpt>
      <trkpt lat="47.82584" lon="-3.53907">
        <ele>16</ele>
        <time>2019-07-15T10:15:26Z</time>
      </trkpt>
      <trkpt lat="47.82585" lon="-3.53906">
        <ele>16</ele>
        <time>2019-07-15T10:15:27Z</time>
      </trkpt>
      <trkpt lat="47.82586" lon="-3.53906">
        <ele>15</ele>
        <time>2019-07-15T10:15:28Z</time>
      </trkpt>
      <trkpt lat="47.82587" lon="-3.53907">
        <ele>15</ele>
        <time>2019-07-15T10:15:29Z</time>
      </trkpt>
      <trkpt lat="47.82587" lon="-3.53907">
        <ele>15</ele>
        <time>2019-07-15T10:15:30Z</time>
      </trkpt>
      <trkpt lat="47.82588" lon="-3.53907">
        <ele>15</ele>
        <time>2019-07-15T10:15:31Z</time>
      </trkpt>
      <trkpt lat="47.82588" lon="-3.53907">
        <ele>15</ele>
        <time>2019-07-15T10:15:32Z</time>
      </trkpt>
      <trkpt lat="47.82596" lon="-3.53906">
        <ele>19</ele>
        <time>2019-07-15T10:15:33Z</time>
      </trkpt>
      <trkpt lat="47.82597" lon="-3.53906">
        <ele>19</ele>
        <time>2019-07-15T10:15:34Z</time>
      </trkpt>
      <trkpt lat="47.82598" lon="-3.53906">
        <ele>20</ele>
        <time>2019-07-15T10:15:35Z</time>
      </trkpt>
      <trkpt lat="47.82599" lon="-3.53905">
        <ele>20</ele>
        <time>2019-07-15T10:15:36Z</time>
      </trkpt>
      <trkpt lat="47.82601" lon="-3.53905">
        <ele>20</ele>
        <time>2019-07-15T10:15:37Z</time>
      </trkpt>
      <trkpt lat="47.82602" lon="-3.53904">
        <ele>20</ele>
        <time>2019-07-15T10:15:38Z</time>
      </trkpt>
      <trkpt lat="47.82603" lon="-3.53903">
        <ele>20</ele>
        <time>2019-07-15T10:15:39Z</time>
      </trkpt>
      <trkpt lat="47.82604" lon="-3.53903">
        <ele>20</ele>
        <time>2019-07-15T10:15:40Z</time>
      </trkpt>
      <trkpt lat="47.82605" lon="-3.53904">
        <ele>20</ele>
        <time>2019-07-15T10:15:41Z</time>
      </trkpt>
      <trkpt lat="47.82606" lon="-3.53903">
        <ele>20</ele>
        <time>2019-07-15T10:15:42Z</time>
      </trkpt>
      <trkpt lat="47.82607" lon="-3.53903">
        <ele>21</ele>
        <time>2019-07-15T10:15:43Z</time>
      </trkpt>
      <trkpt lat="47.82607" lon="-3.53903">
        <ele>21</ele>
        <time>2019-07-15T10:15:44Z</time>
      </trkpt>
      <trkpt lat="47.82607" lon="-3.53904">
        <ele>21</ele>
        <time>2019-07-15T10:15:45Z</time>
      </trkpt>
      <trkpt lat="47.82608" lon="-3.53904">
        <ele>21</ele>
        <time>2019-07-15T10:15:46Z</time>
      </trkpt>
      <trkpt lat="47.82608" lon="-3.53905">
        <ele>21</ele>
        <time>2019-07-15T10:15:47Z</time>
      </trkpt>
      <trkpt lat="47.82625" lon="-3.53905">
        <ele>18</ele>
        <time>2019-07-15T10:15:48Z</time>
      </trkpt>
      <trkpt lat="47.82626" lon="-3.53905">
        <ele>18</ele>
        <time>2019-07-15T10:15:49Z</time>
      </trkpt>
      <trkpt lat="47.82628" lon="-3.53904">
        <ele>18</ele>
        <time>2019-07-15T10:15:50Z</time>
      </trkpt>
      <trkpt lat="47.8263" lon="-3.53904">
        <ele>18</ele>
        <time>2019-07-15T10:15:51Z</time>
      </trkpt>
      <trkpt lat="47.82631" lon="-3.53903">
        <ele>18</ele>
        <time>2019-07-15T10:15:52Z</time>
      </trkpt>
      <trkpt lat="47.82632" lon="-3.53903">
        <ele>18</ele>
        <time>2019-07-15T10:15:53Z</time>
      </trkpt>
      <trkpt lat="47.82634" lon="-3.53904">
        <ele>18</ele>
        <time>2019-07-15T10:15:54Z</time>
      </trkpt>
      <trkpt lat="47.82636" lon="-3.53903">
        <ele>18</ele>
        <time>2019-07-15T10:15:55Z</time>
      </trkpt>
      <trkpt lat="47.82638" lon="-3.53903">
        <ele>18</ele>
        <time>2019-07-15T10:15:56Z</time>
      </trkpt>
      <trkpt lat="47.8264" lon="-3.53902">
        <ele>18</ele>
        <time>2019-07-15T10:15:57Z</time>
      </trkpt>
      <trkpt lat="47.82642" lon="-3.53901">
        <ele>18</ele>
        <time>2019-07-15T10:15:58Z</time>
      </trkpt>
      <trkpt lat="47.82644" lon="-3.53902">
        <ele>18</ele>
        <time>2019-07-15T10:15:59Z</time>
      </trkpt>
      <trkpt lat="47.82645" lon="-3.53901">
        <ele>17</ele>
        <time>2019-07-15T10:16:00Z</time>
      </trkpt>
      <trkpt lat="47.82647" lon="-3.53901">
        <ele>17</ele>
        <time>2019-07-15T10:16:01Z</time>
      </trkpt>
      <trkpt lat="47.8265" lon="-3.539">
        <ele>17</ele>
        <time>2019-07-15T10:16:02Z</time>
      </trkpt>
      <trkpt lat="47.82653" lon="-3.53899">
        <ele>17</ele>
        <time>2019-07-15T10:16:03Z</time>
      </trkpt>
      <trkpt lat="47.82657" lon="-3.53897">
        <ele>17</ele>
        <time>2019-07-15T10:16:04Z</time>
      </trkpt>
      <trkpt lat="47.82661" lon="-3.53897">
        <ele>17</ele>
        <time>2019-07-15T10:16:05Z</time>
      </trkpt>
      <trkpt lat="47.82664" lon="-3.53897">
        <ele>17</ele>
        <time>2019-07-15T10:16:06Z</time>
      </trkpt>
      <trkpt lat="47.82666" lon="-3.53896">
        <ele>17</ele>
        <time>2019-07-15T10:16:07Z</time>
      </trkpt>
      <trkpt lat="47.82669" lon="-3.53896">
        <ele>17</ele>
        <time>2019-07-15T10:16:08Z</time>
      </trkpt>
      <trkpt lat="47.8267" lon="-3.53895">
        <ele>17</ele>
        <time>2019-07-15T10:16:09Z</time>
      </trkpt>
      <trkpt lat="47.82672" lon="-3.53896">
        <ele>17</ele>
        <time>2019-07-15T10:16:10Z</time>
      </trkpt>
      <trkpt lat="47.82674" lon="-3.53898">
        <ele>16</ele>
        <time>2019-07-15T10:16:11Z</time>
      </trkpt>
      <trkpt lat="47.82676" lon="-3.53899">
        <ele>16</ele>
        <time>2019-07-15T10:16:12Z</time>
      </trkpt>
      <trkpt lat="47.82679" lon="-3.53901">
        <ele>16</ele>
        <time>2019-07-15T10:16:13Z</time>
      </trkpt>
      <trkpt lat="47.82681" lon="-3.53903">
        <ele>16</ele>
        <time>2019-07-15T10:16:14Z</time>
      </trkpt>
      <trkpt lat="47.82683" lon="-3.53904">
        <ele>16</ele>
        <time>2019-07-15T10:16:15Z</time>
      </trkpt>
      <trkpt lat="47.82685" lon="-3.53906">
        <ele>16</ele>
        <time>2019-07-15T10:16:16Z</time>
      </trkpt>
      <trkpt lat="47.82686" lon="-3.53908">
        <ele>15</ele>
        <time>2019-07-15T10:16:17Z</time>
      </trkpt>
      <trkpt lat="47.82688" lon="-3.5391">
        <ele>15</ele>
        <time>2019-07-15T10:16:18Z</time>
      </trkpt>
      <trkpt lat="47.8269" lon="-3.53912">
        <ele>15</ele>
        <time>2019-07-15T10:16:19Z</time>
      </trkpt>
      <trkpt lat="47.82692" lon="-3.53915">
        <ele>15</ele>
        <time>2019-07-15T10:16:20Z</time>
      </trkpt>
      <trkpt lat="47.82694" lon="-3.53917">
        <ele>15</ele>
        <time>2019-07-15T10:16:21Z</time>
      </trkpt>
      <trkpt lat="47.82696" lon="-3.53917">
        <ele>15</ele>
        <time>2019-07-15T10:16:22Z</time>
      </trkpt>
      <trkpt lat="47.82697" lon="-3.53918">
        <ele>15</ele>
        <time>2019-07-15T10:16:23Z</time>
      </trkpt>
      <trkpt lat="47.82699" lon="-3.53919">
        <ele>15</ele>
        <time>2019-07-15T10:16:24Z</time>
      </trkpt>
      <trkpt lat="47.827" lon="-3.5392">
        <ele>15</ele>
        <time>2019-07-15T10:16:25Z</time>
      </trkpt>
      <trkpt lat="47.82701" lon="-3.53922">
        <ele>15</ele>
        <time>2019-07-15T10:16:26Z</time>
      </trkpt>
      <trkpt lat="47.82704" lon="-3.53924">
        <ele>15</ele>
        <time>2019-07-15T10:16:27Z</time>
      </trkpt>
      <trkpt lat="47.82706" lon="-3.53926">
        <ele>15</ele>
        <time>2019-07-15T10:16:28Z</time>
      </trkpt>
      <trkpt lat="47.82709" lon="-3.53926">
        <ele>15</ele>
        <time>2019-07-15T10:16:29Z</time>
      </trkpt>
      <trkpt lat="47.82712" lon="-3.53927">
        <ele>15</ele>
        <time>2019-07-15T10:16:30Z</time>
      </trkpt>
      <trkpt lat="47.82715" lon="-3.53928">
        <ele>15</ele>
        <time>2019-07-15T10:16:31Z</time>
      </trkpt>
      <trkpt lat="47.82717" lon="-3.53929">
        <ele>15</ele>
        <time>2019-07-15T10:16:32Z</time>
      </trkpt>
      <trkpt lat="47.82719" lon="-3.53929">
        <ele>15</ele>
        <time>2019-07-15T10:16:33Z</time>
      </trkpt>
      <trkpt lat="47.82722" lon="-3.53928">
        <ele>15</ele>
        <time>2019-07-15T10:16:34Z</time>
      </trkpt>
      <trkpt lat="47.82726" lon="-3.53929">
        <ele>15</ele>
        <time>2019-07-15T10:16:35Z</time>
      </trkpt>
      <trkpt lat="47.8273" lon="-3.5393">
        <ele>15</ele>
        <time>2019-07-15T10:16:36Z</time>
      </trkpt>
      <trkpt lat="47.82733" lon="-3.53931">
        <ele>15</ele>
        <time>2019-07-15T10:16:37Z</time>
      </trkpt>
      <trkpt lat="47.82736" lon="-3.53933">
        <ele>15</ele>
        <time>2019-07-15T10:16:38Z</time>
      </trkpt>
      <trkpt lat="47.82739" lon="-3.53935">
        <ele>15</ele>
        <time>2019-07-15T10:16:39Z</time>
      </trkpt>
      <trkpt lat="47.82742" lon="-3.53936">
        <ele>15</ele>
        <time>2019-07-15T10:16:40Z</time>
      </trkpt>
      <trkpt lat="47.82745" lon="-3.53938">
        <ele>15</ele>
        <time>2019-07-15T10:16:41Z</time>
      </trkpt>
      <trkpt lat="47.82747" lon="-3.5394">
        <ele>15</ele>
        <time>2019-07-15T10:16:42Z</time>
      </trkpt>
      <trkpt lat="47.82749" lon="-3.5394">
        <ele>15</ele>
        <time>2019-07-15T10:16:43Z</time>
      </trkpt>
      <trkpt lat="47.82752" lon="-3.53942">
        <ele>15</ele>
        <time>2019-07-15T10:16:44Z</time>
      </trkpt>
      <trkpt lat="47.82755" lon="-3.53943">
        <ele>15</ele>
        <time>2019-07-15T10:16:45Z</time>
      </trkpt>
      <trkpt lat="47.82758" lon="-3.53945">
        <ele>15</ele>
        <time>2019-07-15T10:16:46Z</time>
      </trkpt>
      <trkpt lat="47.82761" lon="-3.53946">
        <ele>15</ele>
        <time>2019-07-15T10:16:47Z</time>
      </trkpt>
      <trkpt lat="47.82764" lon="-3.53947">
        <ele>14</ele>
        <time>2019-07-15T10:16:48Z</time>
      </trkpt>
      <trkpt lat="47.82768" lon="-3.53948">
        <ele>14</ele>
        <time>2019-07-15T10:16:49Z</time>
      </trkpt>
      <trkpt lat="47.82771" lon="-3.53949">
        <ele>14</ele>
        <time>2019-07-15T10:16:50Z</time>
      </trkpt>
      <trkpt lat="47.82774" lon="-3.5395">
        <ele>14</ele>
        <time>2019-07-15T10:16:51Z</time>
      </trkpt>
      <trkpt lat="47.82777" lon="-3.53952">
        <ele>14</ele>
        <time>2019-07-15T10:16:52Z</time>
      </trkpt>
      <trkpt lat="47.8278" lon="-3.53955">
        <ele>14</ele>
        <time>2019-07-15T10:16:53Z</time>
      </trkpt>
      <trkpt lat="47.82783" lon="-3.53956">
        <ele>14</ele>
        <time>2019-07-15T10:16:54Z</time>
      </trkpt>
      <trkpt lat="47.82787" lon="-3.53958">
        <ele>14</ele>
        <time>2019-07-15T10:16:55Z</time>
      </trkpt>
      <trkpt lat="47.8279" lon="-3.53959">
        <ele>14</ele>
        <time>2019-07-15T10:16:56Z</time>
      </trkpt>
      <trkpt lat="47.82792" lon="-3.53961">
        <ele>14</ele>
        <time>2019-07-15T10:16:57Z</time>
      </trkpt>
      <trkpt lat="47.82795" lon="-3.53963">
        <ele>14</ele>
        <time>2019-07-15T10:16:58Z</time>
      </trkpt>
      <trkpt lat="47.82797" lon="-3.53966">
        <ele>14</ele>
        <time>2019-07-15T10:16:59Z</time>
      </trkpt>
      <trkpt lat="47.828" lon="-3.53968">
        <ele>14</ele>
        <time>2019-07-15T10:17:00Z</time>
      </trkpt>
      <trkpt lat="47.82802" lon="-3.53969">
        <ele>14</ele>
        <time>2019-07-15T10:17:01Z</time>
      </trkpt>
      <trkpt lat="47.82805" lon="-3.53971">
        <ele>14</ele>
        <time>2019-07-15T10:17:02Z</time>
      </trkpt>
      <trkpt lat="47.82809" lon="-3.53972">
        <ele>14</ele>
        <time>2019-07-15T10:17:03Z</time>
      </trkpt>
      <trkpt lat="47.82812" lon="-3.53973">
        <ele>14</ele>
        <time>2019-07-15T10:17:04Z</time>
      </trkpt>
      <trkpt lat="47.82814" lon="-3.53974">
        <ele>14</ele>
        <time>2019-07-15T10:17:05Z</time>
      </trkpt>
      <trkpt lat="47.82818" lon="-3.53975">
        <ele>14</ele>
        <time>2019-07-15T10:17:06Z</time>
      </trkpt>
      <trkpt lat="47.82821" lon="-3.53976">
        <ele>14</ele>
        <time>2019-07-15T10:17:07Z</time>
      </trkpt>
      <trkpt lat="47.82823" lon="-3.53976">
        <ele>14</ele>
        <time>2019-07-15T10:17:08Z</time>
      </trkpt>
      <trkpt lat="47.82825" lon="-3.53977">
        <ele>14</ele>
        <time>2019-07-15T10:17:09Z</time>
      </trkpt>
      <trkpt lat="47.82828" lon="-3.53977">
        <ele>14</ele>
        <time>2019-07-15T10:17:10Z</time>
      </trkpt>
      <trkpt lat="47.82831" lon="-3.53979">
        <ele>14</ele>
        <time>2019-07-15T10:17:11Z</time>
      </trkpt>
      <trkpt lat="47.82834" lon="-3.53981">
        <ele>14</ele>
        <time>2019-07-15T10:17:12Z</time>
      </trkpt>
      <trkpt lat="47.82837" lon="-3.53983">
        <ele>15</ele>
        <time>2019-07-15T10:17:13Z</time>
      </trkpt>
      <trkpt lat="47.8284" lon="-3.53984">
        <ele>15</ele>
        <time>2019-07-15T10:17:14Z</time>
      </trkpt>
      <trkpt lat="47.82843" lon="-3.53985">
        <ele>15</ele>
        <time>2019-07-15T10:17:15Z</time>
      </trkpt>
      <trkpt lat="47.82845" lon="-3.53986">
        <ele>15</ele>
        <time>2019-07-15T10:17:16Z</time>
      </trkpt>
      <trkpt lat="47.82847" lon="-3.53987">
        <ele>15</ele>
        <time>2019-07-15T10:17:17Z</time>
      </trkpt>
      <trkpt lat="47.82849" lon="-3.53988">
        <ele>15</ele>
        <time>2019-07-15T10:17:18Z</time>
      </trkpt>
      <trkpt lat="47.82851" lon="-3.53989">
        <ele>15</ele>
        <time>2019-07-15T10:17:19Z</time>
      </trkpt>
      <trkpt lat="47.82852" lon="-3.5399">
        <ele>15</ele>
        <time>2019-07-15T10:17:20Z</time>
      </trkpt>
      <trkpt lat="47.82854" lon="-3.53991">
        <ele>16</ele>
        <time>2019-07-15T10:17:21Z</time>
      </trkpt>
      <trkpt lat="47.82857" lon="-3.53991">
        <ele>16</ele>
        <time>2019-07-15T10:17:22Z</time>
      </trkpt>
      <trkpt lat="47.82859" lon="-3.53992">
        <ele>16</ele>
        <time>2019-07-15T10:17:23Z</time>
      </trkpt>
      <trkpt lat="47.82861" lon="-3.53993">
        <ele>16</ele>
        <time>2019-07-15T10:17:24Z</time>
      </trkpt>
      <trkpt lat="47.82864" lon="-3.53994">
        <ele>16</ele>
        <time>2019-07-15T10:17:25Z</time>
      </trkpt>
      <trkpt lat="47.82866" lon="-3.53995">
        <ele>16</ele>
        <time>2019-07-15T10:17:26Z</time>
      </trkpt>
      <trkpt lat="47.82868" lon="-3.53995">
        <ele>16</ele>
        <time>2019-07-15T10:17:27Z</time>
      </trkpt>
      <trkpt lat="47.82871" lon="-3.53995">
        <ele>16</ele>
        <time>2019-07-15T10:17:28Z</time>
      </trkpt>
      <trkpt lat="47.82874" lon="-3.53994">
        <ele>16</ele>
        <time>2019-07-15T10:17:29Z</time>
      </trkpt>
      <trkpt lat="47.82877" lon="-3.53994">
        <ele>17</ele>
        <time>2019-07-15T10:17:30Z</time>
      </trkpt>
      <trkpt lat="47.8288" lon="-3.53993">
        <ele>17</ele>
        <time>2019-07-15T10:17:31Z</time>
      </trkpt>
      <trkpt lat="47.82882" lon="-3.53993">
        <ele>17</ele>
        <time>2019-07-15T10:17:32Z</time>
      </trkpt>
      <trkpt lat="47.82885" lon="-3.53993">
        <ele>17</ele>
        <time>2019-07-15T10:17:33Z</time>
      </trkpt>
      <trkpt lat="47.82887" lon="-3.53993">
        <ele>17</ele>
        <time>2019-07-15T10:17:34Z</time>
      </trkpt>
      <trkpt lat="47.8289" lon="-3.53994">
        <ele>17</ele>
        <time>2019-07-15T10:17:35Z</time>
      </trkpt>
      <trkpt lat="47.82892" lon="-3.53993">
        <ele>17</ele>
        <time>2019-07-15T10:17:36Z</time>
      </trkpt>
      <trkpt lat="47.82895" lon="-3.53994">
        <ele>17</ele>
        <time>2019-07-15T10:17:37Z</time>
      </trkpt>
      <trkpt lat="47.82897" lon="-3.53993">
        <ele>17</ele>
        <time>2019-07-15T10:17:38Z</time>
      </trkpt>
      <trkpt lat="47.829" lon="-3.53993">
        <ele>17</ele>
        <time>2019-07-15T10:17:39Z</time>
      </trkpt>
      <trkpt lat="47.82902" lon="-3.53993">
        <ele>17</ele>
        <time>2019-07-15T10:17:40Z</time>
      </trkpt>
      <trkpt lat="47.82905" lon="-3.53993">
        <ele>17</ele>
        <time>2019-07-15T10:17:41Z</time>
      </trkpt>
      <trkpt lat="47.82908" lon="-3.53993">
        <ele>18</ele>
        <time>2019-07-15T10:17:42Z</time>
      </trkpt>
      <trkpt lat="47.82911" lon="-3.53992">
        <ele>18</ele>
        <time>2019-07-15T10:17:43Z</time>
      </trkpt>
      <trkpt lat="47.82913" lon="-3.53992">
        <ele>18</ele>
        <time>2019-07-15T10:17:44Z</time>
      </trkpt>
      <trkpt lat="47.82916" lon="-3.53992">
        <ele>18</ele>
        <time>2019-07-15T10:17:45Z</time>
      </trkpt>
      <trkpt lat="47.82918" lon="-3.53992">
        <ele>18</ele>
        <time>2019-07-15T10:17:46Z</time>
      </trkpt>
      <trkpt lat="47.8292" lon="-3.53991">
        <ele>19</ele>
        <time>2019-07-15T10:17:47Z</time>
      </trkpt>
      <trkpt lat="47.82922" lon="-3.53991">
        <ele>19</ele>
        <time>2019-07-15T10:17:48Z</time>
      </trkpt>
      <trkpt lat="47.82923" lon="-3.53991">
        <ele>19</ele>
        <time>2019-07-15T10:17:49Z</time>
      </trkpt>
      <trkpt lat="47.82926" lon="-3.53991">
        <ele>19</ele>
        <time>2019-07-15T10:17:50Z</time>
      </trkpt>
      <trkpt lat="47.82928" lon="-3.53992">
        <ele>19</ele>
        <time>2019-07-15T10:17:51Z</time>
      </trkpt>
      <trkpt lat="47.82931" lon="-3.53992">
        <ele>20</ele>
        <time>2019-07-15T10:17:52Z</time>
      </trkpt>
      <trkpt lat="47.82934" lon="-3.53992">
        <ele>20</ele>
        <time>2019-07-15T10:17:53Z</time>
      </trkpt>
      <trkpt lat="47.82937" lon="-3.53991">
        <ele>20</ele>
        <time>2019-07-15T10:17:54Z</time>
      </trkpt>
      <trkpt lat="47.82941" lon="-3.53991">
        <ele>20</ele>
        <time>2019-07-15T10:17:55Z</time>
      </trkpt>
      <trkpt lat="47.82944" lon="-3.53991">
        <ele>20</ele>
        <time>2019-07-15T10:17:56Z</time>
      </trkpt>
      <trkpt lat="47.82948" lon="-3.53991">
        <ele>21</ele>
        <time>2019-07-15T10:17:57Z</time>
      </trkpt>
      <trkpt lat="47.82951" lon="-3.53991">
        <ele>21</ele>
        <time>2019-07-15T10:17:58Z</time>
      </trkpt>
      <trkpt lat="47.82954" lon="-3.5399">
        <ele>21</ele>
        <time>2019-07-15T10:17:59Z</time>
      </trkpt>
      <trkpt lat="47.82956" lon="-3.5399">
        <ele>21</ele>
        <time>2019-07-15T10:18:00Z</time>
      </trkpt>
      <trkpt lat="47.82959" lon="-3.5399">
        <ele>21</ele>
        <time>2019-07-15T10:18:01Z</time>
      </trkpt>
      <trkpt lat="47.82961" lon="-3.53989">
        <ele>21</ele>
        <time>2019-07-15T10:18:02Z</time>
      </trkpt>
      <trkpt lat="47.82964" lon="-3.5399">
        <ele>21</ele>
        <time>2019-07-15T10:18:03Z</time>
      </trkpt>
      <trkpt lat="47.82967" lon="-3.53991">
        <ele>21</ele>
        <time>2019-07-15T10:18:04Z</time>
      </trkpt>
      <trkpt lat="47.82969" lon="-3.53991">
        <ele>22</ele>
        <time>2019-07-15T10:18:05Z</time>
      </trkpt>
      <trkpt lat="47.82972" lon="-3.53991">
        <ele>22</ele>
        <time>2019-07-15T10:18:06Z</time>
      </trkpt>
      <trkpt lat="47.82975" lon="-3.53991">
        <ele>22</ele>
        <time>2019-07-15T10:18:07Z</time>
      </trkpt>
      <trkpt lat="47.82978" lon="-3.53991">
        <ele>22</ele>
        <time>2019-07-15T10:18:08Z</time>
      </trkpt>
      <trkpt lat="47.8298" lon="-3.53991">
        <ele>22</ele>
        <time>2019-07-15T10:18:09Z</time>
      </trkpt>
      <trkpt lat="47.82982" lon="-3.53991">
        <ele>22</ele>
        <time>2019-07-15T10:18:10Z</time>
      </trkpt>
      <trkpt lat="47.82985" lon="-3.5399">
        <ele>22</ele>
        <time>2019-07-15T10:18:11Z</time>
      </trkpt>
      <trkpt lat="47.82986" lon="-3.53989">
        <ele>22</ele>
        <time>2019-07-15T10:18:12Z</time>
      </trkpt>
      <trkpt lat="47.82988" lon="-3.53987">
        <ele>22</ele>
        <time>2019-07-15T10:18:13Z</time>
      </trkpt>
      <trkpt lat="47.82989" lon="-3.53984">
        <ele>22</ele>
        <time>2019-07-15T10:18:14Z</time>
      </trkpt>
      <trkpt lat="47.82991" lon="-3.53982">
        <ele>22</ele>
        <time>2019-07-15T10:18:15Z</time>
      </trkpt>
      <trkpt lat="47.82991" lon="-3.53979">
        <ele>22</ele>
        <time>2019-07-15T10:18:16Z</time>
      </trkpt>
      <trkpt lat="47.82992" lon="-3.53977">
        <ele>22</ele>
        <time>2019-07-15T10:18:17Z</time>
      </trkpt>
      <trkpt lat="47.82992" lon="-3.53975">
        <ele>22</ele>
        <time>2019-07-15T10:18:18Z</time>
      </trkpt>
      <trkpt lat="47.82993" lon="-3.53974">
        <ele>22</ele>
        <time>2019-07-15T10:18:19Z</time>
      </trkpt>
      <trkpt lat="47.82993" lon="-3.53972">
        <ele>22</ele>
        <time>2019-07-15T10:18:20Z</time>
      </trkpt>
      <trkpt lat="47.82993" lon="-3.53971">
        <ele>23</ele>
        <time>2019-07-15T10:18:21Z</time>
      </trkpt>
      <trkpt lat="47.82993" lon="-3.5397">
        <ele>23</ele>
        <time>2019-07-15T10:18:22Z</time>
      </trkpt>
      <trkpt lat="47.82992" lon="-3.53968">
        <ele>23</ele>
        <time>2019-07-15T10:18:23Z</time>
      </trkpt>
      <trkpt lat="47.82992" lon="-3.53966">
        <ele>23</ele>
        <time>2019-07-15T10:18:24Z</time>
      </trkpt>
      <trkpt lat="47.82992" lon="-3.53965">
        <ele>23</ele>
        <time>2019-07-15T10:18:25Z</time>
      </trkpt>
      <trkpt lat="47.82992" lon="-3.53964">
        <ele>23</ele>
        <time>2019-07-15T10:18:26Z</time>
      </trkpt>
      <trkpt lat="47.82991" lon="-3.53963">
        <ele>23</ele>
        <time>2019-07-15T10:18:27Z</time>
      </trkpt>
      <trkpt lat="47.8299" lon="-3.53961">
        <ele>24</ele>
        <time>2019-07-15T10:18:28Z</time>
      </trkpt>
      <trkpt lat="47.82989" lon="-3.53959">
        <ele>24</ele>
        <time>2019-07-15T10:18:29Z</time>
      </trkpt>
      <trkpt lat="47.82988" lon="-3.53957">
        <ele>24</ele>
        <time>2019-07-15T10:18:30Z</time>
      </trkpt>
      <trkpt lat="47.82987" lon="-3.53955">
        <ele>24</ele>
        <time>2019-07-15T10:18:31Z</time>
      </trkpt>
      <trkpt lat="47.82987" lon="-3.53953">
        <ele>25</ele>
        <time>2019-07-15T10:18:32Z</time>
      </trkpt>
      <trkpt lat="47.82986" lon="-3.53951">
        <ele>25</ele>
        <time>2019-07-15T10:18:33Z</time>
      </trkpt>
      <trkpt lat="47.82985" lon="-3.5395">
        <ele>25</ele>
        <time>2019-07-15T10:18:34Z</time>
      </trkpt>
      <trkpt lat="47.82984" lon="-3.53949">
        <ele>25</ele>
        <time>2019-07-15T10:18:35Z</time>
      </trkpt>
      <trkpt lat="47.82982" lon="-3.53948">
        <ele>26</ele>
        <time>2019-07-15T10:18:36Z</time>
      </trkpt>
      <trkpt lat="47.82981" lon="-3.53947">
        <ele>26</ele>
        <time>2019-07-15T10:18:37Z</time>
      </trkpt>
      <trkpt lat="47.82979" lon="-3.53946">
        <ele>26</ele>
        <time>2019-07-15T10:18:38Z</time>
      </trkpt>
      <trkpt lat="47.82978" lon="-3.53944">
        <ele>27</ele>
        <time>2019-07-15T10:18:39Z</time>
      </trkpt>
      <trkpt lat="47.82976" lon="-3.53942">
        <ele>27</ele>
        <time>2019-07-15T10:18:40Z</time>
      </trkpt>
      <trkpt lat="47.82974" lon="-3.5394">
        <ele>28</ele>
        <time>2019-07-15T10:18:41Z</time>
      </trkpt>
      <trkpt lat="47.82972" lon="-3.53939">
        <ele>28</ele>
        <time>2019-07-15T10:18:42Z</time>
      </trkpt>
      <trkpt lat="47.82971" lon="-3.53938">
        <ele>28</ele>
        <time>2019-07-15T10:18:43Z</time>
      </trkpt>
      <trkpt lat="47.8297" lon="-3.53936">
        <ele>29</ele>
        <time>2019-07-15T10:18:44Z</time>
      </trkpt>
      <trkpt lat="47.82969" lon="-3.53934">
        <ele>29</ele>
        <time>2019-07-15T10:18:45Z</time>
      </trkpt>
      <trkpt lat="47.82967" lon="-3.53931">
        <ele>30</ele>
        <time>2019-07-15T10:18:46Z</time>
      </trkpt>
      <trkpt lat="47.82966" lon="-3.53929">
        <ele>30</ele>
        <time>2019-07-15T10:18:47Z</time>
      </trkpt>
      <trkpt lat="47.82964" lon="-3.53927">
        <ele>31</ele>
        <time>2019-07-15T10:18:48Z</time>
      </trkpt>
      <trkpt lat="47.82962" lon="-3.53926">
        <ele>31</ele>
        <time>2019-07-15T10:18:49Z</time>
      </trkpt>
      <trkpt lat="47.82959" lon="-3.53924">
        <ele>32</ele>
        <time>2019-07-15T10:18:50Z</time>
      </trkpt>
      <trkpt lat="47.82956" lon="-3.53923">
        <ele>32</ele>
        <time>2019-07-15T10:18:51Z</time>
      </trkpt>
      <trkpt lat="47.82954" lon="-3.53923">
        <ele>33</ele>
        <time>2019-07-15T10:18:52Z</time>
      </trkpt>
      <trkpt lat="47.82951" lon="-3.53923">
        <ele>33</ele>
        <time>2019-07-15T10:18:53Z</time>
      </trkpt>
      <trkpt lat="47.82949" lon="-3.53921">
        <ele>34</ele>
        <time>2019-07-15T10:18:54Z</time>
      </trkpt>
      <trkpt lat="47.82945" lon="-3.5392">
        <ele>34</ele>
        <time>2019-07-15T10:18:55Z</time>
      </trkpt>
      <trkpt lat="47.82943" lon="-3.5392">
        <ele>34</ele>
        <time>2019-07-15T10:18:56Z</time>
      </trkpt>
      <trkpt lat="47.8294" lon="-3.5392">
        <ele>35</ele>
        <time>2019-07-15T10:18:57Z</time>
      </trkpt>
      <trkpt lat="47.82936" lon="-3.5392">
        <ele>35</ele>
        <time>2019-07-15T10:18:58Z</time>
      </trkpt>
      <trkpt lat="47.82932" lon="-3.53919">
        <ele>36</ele>
        <time>2019-07-15T10:18:59Z</time>
      </trkpt>
      <trkpt lat="47.82929" lon="-3.53919">
        <ele>36</ele>
        <time>2019-07-15T10:19:00Z</time>
      </trkpt>
      <trkpt lat="47.82926" lon="-3.53919">
        <ele>36</ele>
        <time>2019-07-15T10:19:01Z</time>
      </trkpt>
      <trkpt lat="47.82924" lon="-3.53918">
        <ele>37</ele>
        <time>2019-07-15T10:19:02Z</time>
      </trkpt>
      <trkpt lat="47.82921" lon="-3.53917">
        <ele>37</ele>
        <time>2019-07-15T10:19:03Z</time>
      </trkpt>
      <trkpt lat="47.82918" lon="-3.53916">
        <ele>37</ele>
        <time>2019-07-15T10:19:04Z</time>
      </trkpt>
      <trkpt lat="47.82915" lon="-3.53916">
        <ele>38</ele>
        <time>2019-07-15T10:19:05Z</time>
      </trkpt>
      <trkpt lat="47.82911" lon="-3.53915">
        <ele>38</ele>
        <time>2019-07-15T10:19:06Z</time>
      </trkpt>
      <trkpt lat="47.82908" lon="-3.53914">
        <ele>38</ele>
        <time>2019-07-15T10:19:07Z</time>
      </trkpt>
      <trkpt lat="47.82905" lon="-3.53913">
        <ele>38</ele>
        <time>2019-07-15T10:19:08Z</time>
      </trkpt>
      <trkpt lat="47.82903" lon="-3.53912">
        <ele>38</ele>
        <time>2019-07-15T10:19:09Z</time>
      </trkpt>
      <trkpt lat="47.829" lon="-3.53911">
        <ele>39</ele>
        <time>2019-07-15T10:19:10Z</time>
      </trkpt>
      <trkpt lat="47.82898" lon="-3.53909">
        <ele>39</ele>
        <time>2019-07-15T10:19:11Z</time>
      </trkpt>
      <trkpt lat="47.82896" lon="-3.53907">
        <ele>39</ele>
        <time>2019-07-15T10:19:12Z</time>
      </trkpt>
      <trkpt lat="47.82893" lon="-3.53906">
        <ele>39</ele>
        <time>2019-07-15T10:19:13Z</time>
      </trkpt>
      <trkpt lat="47.82892" lon="-3.53904">
        <ele>39</ele>
        <time>2019-07-15T10:19:14Z</time>
      </trkpt>
      <trkpt lat="47.82891" lon="-3.53904">
        <ele>39</ele>
        <time>2019-07-15T10:19:15Z</time>
      </trkpt>
      <trkpt lat="47.82891" lon="-3.53904">
        <ele>39</ele>
        <time>2019-07-15T10:19:16Z</time>
      </trkpt>
      <trkpt lat="47.82891" lon="-3.53904">
        <ele>39</ele>
        <time>2019-07-15T10:19:17Z</time>
      </trkpt>
      <trkpt lat="47.82892" lon="-3.53904">
        <ele>39</ele>
        <time>2019-07-15T10:19:18Z</time>
      </trkpt>
      <trkpt lat="47.82893" lon="-3.53903">
        <ele>39</ele>
        <time>2019-07-15T10:19:19Z</time>
      </trkpt>
      <trkpt lat="47.82893" lon="-3.53904">
        <ele>39</ele>
        <time>2019-07-15T10:19:20Z</time>
      </trkpt>
      <trkpt lat="47.82894" lon="-3.53904">
        <ele>40</ele>
        <time>2019-07-15T10:19:21Z</time>
      </trkpt>
      <trkpt lat="47.82894" lon="-3.53905">
        <ele>40</ele>
        <time>2019-07-15T10:19:22Z</time>
      </trkpt>
      <trkpt lat="47.82895" lon="-3.53904">
        <ele>40</ele>
        <time>2019-07-15T10:19:23Z</time>
      </trkpt>
      <trkpt lat="47.82896" lon="-3.53904">
        <ele>40</ele>
        <time>2019-07-15T10:19:24Z</time>
      </trkpt>
      <trkpt lat="47.82896" lon="-3.53903">
        <ele>40</ele>
        <time>2019-07-15T10:19:25Z</time>
      </trkpt>
      <trkpt lat="47.82897" lon="-3.53903">
        <ele>40</ele>
        <time>2019-07-15T10:19:26Z</time>
      </trkpt>
      <trkpt lat="47.82898" lon="-3.53902">
        <ele>40</ele>
        <time>2019-07-15T10:19:27Z</time>
      </trkpt>
      <trkpt lat="47.82898" lon="-3.53901">
        <ele>40</ele>
        <time>2019-07-15T10:19:28Z</time>
      </trkpt>
      <trkpt lat="47.82899" lon="-3.539">
        <ele>40</ele>
        <time>2019-07-15T10:19:29Z</time>
      </trkpt>
      <trkpt lat="47.82901" lon="-3.539">
        <ele>40</ele>
        <time>2019-07-15T10:19:30Z</time>
      </trkpt>
      <trkpt lat="47.82902" lon="-3.53898">
        <ele>40</ele>
        <time>2019-07-15T10:19:31Z</time>
      </trkpt>
      <trkpt lat="47.82903" lon="-3.53896">
        <ele>40</ele>
        <time>2019-07-15T10:19:32Z</time>
      </trkpt>
      <trkpt lat="47.82905" lon="-3.53894">
        <ele>40</ele>
        <time>2019-07-15T10:19:33Z</time>
      </trkpt>
      <trkpt lat="47.82907" lon="-3.53893">
        <ele>40</ele>
        <time>2019-07-15T10:19:34Z</time>
      </trkpt>
      <trkpt lat="47.8291" lon="-3.53891">
        <ele>40</ele>
        <time>2019-07-15T10:19:35Z</time>
      </trkpt>
      <trkpt lat="47.82913" lon="-3.5389">
        <ele>40</ele>
        <time>2019-07-15T10:19:36Z</time>
      </trkpt>
      <trkpt lat="47.82916" lon="-3.53889">
        <ele>41</ele>
        <time>2019-07-15T10:19:37Z</time>
      </trkpt>
      <trkpt lat="47.8292" lon="-3.53887">
        <ele>41</ele>
        <time>2019-07-15T10:19:38Z</time>
      </trkpt>
      <trkpt lat="47.82923" lon="-3.53886">
        <ele>41</ele>
        <time>2019-07-15T10:19:39Z</time>
      </trkpt>
      <trkpt lat="47.82927" lon="-3.53885">
        <ele>41</ele>
        <time>2019-07-15T10:19:40Z</time>
      </trkpt>
      <trkpt lat="47.82929" lon="-3.53885">
        <ele>41</ele>
        <time>2019-07-15T10:19:41Z</time>
      </trkpt>
      <trkpt lat="47.82932" lon="-3.53885">
        <ele>42</ele>
        <time>2019-07-15T10:19:42Z</time>
      </trkpt>
      <trkpt lat="47.82935" lon="-3.53885">
        <ele>42</ele>
        <time>2019-07-15T10:19:43Z</time>
      </trkpt>
      <trkpt lat="47.82937" lon="-3.53885">
        <ele>42</ele>
        <time>2019-07-15T10:19:44Z</time>
      </trkpt>
      <trkpt lat="47.82939" lon="-3.53886">
        <ele>42</ele>
        <time>2019-07-15T10:19:45Z</time>
      </trkpt>
      <trkpt lat="47.82942" lon="-3.53886">
        <ele>42</ele>
        <time>2019-07-15T10:19:46Z</time>
      </trkpt>
      <trkpt lat="47.82943" lon="-3.53886">
        <ele>42</ele>
        <time>2019-07-15T10:19:47Z</time>
      </trkpt>
      <trkpt lat="47.82945" lon="-3.53886">
        <ele>42</ele>
        <time>2019-07-15T10:19:48Z</time>
      </trkpt>
      <trkpt lat="47.82948" lon="-3.53887">
        <ele>43</ele>
        <time>2019-07-15T10:19:49Z</time>
      </trkpt>
      <trkpt lat="47.82949" lon="-3.53887">
        <ele>43</ele>
        <time>2019-07-15T10:19:50Z</time>
      </trkpt>
      <trkpt lat="47.8295" lon="-3.53887">
        <ele>43</ele>
        <time>2019-07-15T10:19:51Z</time>
      </trkpt>
      <trkpt lat="47.8295" lon="-3.53886">
        <ele>43</ele>
        <time>2019-07-15T10:19:52Z</time>
      </trkpt>
      <trkpt lat="47.82951" lon="-3.53886">
        <ele>43</ele>
        <time>2019-07-15T10:19:53Z</time>
      </trkpt>
      <trkpt lat="47.82952" lon="-3.53886">
        <ele>44</ele>
        <time>2019-07-15T10:19:54Z</time>
      </trkpt>
      <trkpt lat="47.82967" lon="-3.5388">
        <ele>50</ele>
        <time>2019-07-15T10:19:55Z</time>
      </trkpt>
      <trkpt lat="47.82968" lon="-3.5388">
        <ele>50</ele>
        <time>2019-07-15T10:19:56Z</time>
      </trkpt>
      <trkpt lat="47.82969" lon="-3.5388">
        <ele>50</ele>
        <time>2019-07-15T10:19:57Z</time>
      </trkpt>
      <trkpt lat="47.8297" lon="-3.53881">
        <ele>50</ele>
        <time>2019-07-15T10:19:58Z</time>
      </trkpt>
      <trkpt lat="47.82972" lon="-3.53881">
        <ele>50</ele>
        <time>2019-07-15T10:19:59Z</time>
      </trkpt>
      <trkpt lat="47.82972" lon="-3.53881">
        <ele>50</ele>
        <time>2019-07-15T10:20:00Z</time>
      </trkpt>
      <trkpt lat="47.82972" lon="-3.53881">
        <ele>50</ele>
        <time>2019-07-15T10:20:01Z</time>
      </trkpt>
      <trkpt lat="47.82977" lon="-3.53887">
        <ele>53</ele>
        <time>2019-07-15T10:20:02Z</time>
      </trkpt>
      <trkpt lat="47.82978" lon="-3.53886">
        <ele>53</ele>
        <time>2019-07-15T10:20:03Z</time>
      </trkpt>
      <trkpt lat="47.82978" lon="-3.53885">
        <ele>53</ele>
        <time>2019-07-15T10:20:04Z</time>
      </trkpt>
      <trkpt lat="47.82979" lon="-3.53884">
        <ele>53</ele>
        <time>2019-07-15T10:20:05Z</time>
      </trkpt>
      <trkpt lat="47.82979" lon="-3.53882">
        <ele>53</ele>
        <time>2019-07-15T10:20:06Z</time>
      </trkpt>
      <trkpt lat="47.8298" lon="-3.53881">
        <ele>53</ele>
        <time>2019-07-15T10:20:07Z</time>
      </trkpt>
      <trkpt lat="47.82981" lon="-3.5388">
        <ele>53</ele>
        <time>2019-07-15T10:20:08Z</time>
      </trkpt>
      <trkpt lat="47.82981" lon="-3.53879">
        <ele>53</ele>
        <time>2019-07-15T10:20:09Z</time>
      </trkpt>
      <trkpt lat="47.82982" lon="-3.53878">
        <ele>53</ele>
        <time>2019-07-15T10:20:10Z</time>
      </trkpt>
      <trkpt lat="47.82987" lon="-3.53864">
        <ele>53</ele>
        <time>2019-07-15T10:20:11Z</time>
      </trkpt>
      <trkpt lat="47.82988" lon="-3.53862">
        <ele>54</ele>
        <time>2019-07-15T10:20:12Z</time>
      </trkpt>
      <trkpt lat="47.82988" lon="-3.53859">
        <ele>54</ele>
        <time>2019-07-15T10:20:13Z</time>
      </trkpt>
      <trkpt lat="47.8299" lon="-3.53856">
        <ele>54</ele>
        <time>2019-07-15T10:20:14Z</time>
      </trkpt>
      <trkpt lat="47.82991" lon="-3.53853">
        <ele>54</ele>
        <time>2019-07-15T10:20:15Z</time>
      </trkpt>
      <trkpt lat="47.82993" lon="-3.5385">
        <ele>55</ele>
        <time>2019-07-15T10:20:16Z</time>
      </trkpt>
      <trkpt lat="47.82994" lon="-3.53848">
        <ele>55</ele>
        <time>2019-07-15T10:20:17Z</time>
      </trkpt>
      <trkpt lat="47.82995" lon="-3.53847">
        <ele>55</ele>
        <time>2019-07-15T10:20:18Z</time>
      </trkpt>
      <trkpt lat="47.82997" lon="-3.53847">
        <ele>56</ele>
        <time>2019-07-15T10:20:19Z</time>
      </trkpt>
      <trkpt lat="47.82999" lon="-3.53846">
        <ele>56</ele>
        <time>2019-07-15T10:20:20Z</time>
      </trkpt>
      <trkpt lat="47.83001" lon="-3.53845">
        <ele>57</ele>
        <time>2019-07-15T10:20:21Z</time>
      </trkpt>
      <trkpt lat="47.83002" lon="-3.53845">
        <ele>57</ele>
        <time>2019-07-15T10:20:22Z</time>
      </trkpt>
      <trkpt lat="47.83005" lon="-3.53844">
        <ele>58</ele>
        <time>2019-07-15T10:20:23Z</time>
      </trkpt>
      <trkpt lat="47.83007" lon="-3.53844">
        <ele>58</ele>
        <time>2019-07-15T10:20:24Z</time>
      </trkpt>
      <trkpt lat="47.8301" lon="-3.53843">
        <ele>58</ele>
        <time>2019-07-15T10:20:25Z</time>
      </trkpt>
      <trkpt lat="47.83012" lon="-3.53843">
        <ele>59</ele>
        <time>2019-07-15T10:20:26Z</time>
      </trkpt>
      <trkpt lat="47.83015" lon="-3.53843">
        <ele>59</ele>
        <time>2019-07-15T10:20:27Z</time>
      </trkpt>
      <trkpt lat="47.83018" lon="-3.53843">
        <ele>60</ele>
        <time>2019-07-15T10:20:28Z</time>
      </trkpt>
      <trkpt lat="47.8302" lon="-3.53843">
        <ele>60</ele>
        <time>2019-07-15T10:20:29Z</time>
      </trkpt>
      <trkpt lat="47.83022" lon="-3.53843">
        <ele>60</ele>
        <time>2019-07-15T10:20:30Z</time>
      </trkpt>
      <trkpt lat="47.83024" lon="-3.53843">
        <ele>61</ele>
        <time>2019-07-15T10:20:31Z</time>
      </trkpt>
      <trkpt lat="47.83027" lon="-3.53843">
        <ele>61</ele>
        <time>2019-07-15T10:20:32Z</time>
      </trkpt>
      <trkpt lat="47.83029" lon="-3.53843">
        <ele>61</ele>
        <time>2019-07-15T10:20:33Z</time>
      </trkpt>
      <trkpt lat="47.83031" lon="-3.53843">
        <ele>61</ele>
        <time>2019-07-15T10:20:34Z</time>
      </trkpt>
      <trkpt lat="47.83033" lon="-3.53843">
        <ele>62</ele>
        <time>2019-07-15T10:20:35Z</time>
      </trkpt>
      <trkpt lat="47.83036" lon="-3.53843">
        <ele>62</ele>
        <time>2019-07-15T10:20:36Z</time>
      </trkpt>
      <trkpt lat="47.83038" lon="-3.53843">
        <ele>62</ele>
        <time>2019-07-15T10:20:37Z</time>
      </trkpt>
      <trkpt lat="47.83041" lon="-3.53843">
        <ele>62</ele>
        <time>2019-07-15T10:20:38Z</time>
      </trkpt>
      <trkpt lat="47.83042" lon="-3.53843">
        <ele>63</ele>
        <time>2019-07-15T10:20:39Z</time>
      </trkpt>
      <trkpt lat="47.83044" lon="-3.53843">
        <ele>63</ele>
        <time>2019-07-15T10:20:40Z</time>
      </trkpt>
      <trkpt lat="47.83046" lon="-3.53844">
        <ele>63</ele>
        <time>2019-07-15T10:20:41Z</time>
      </trkpt>
      <trkpt lat="47.83047" lon="-3.53844">
        <ele>63</ele>
        <time>2019-07-15T10:20:42Z</time>
      </trkpt>
      <trkpt lat="47.83049" lon="-3.53845">
        <ele>63</ele>
        <time>2019-07-15T10:20:43Z</time>
      </trkpt>
      <trkpt lat="47.8305" lon="-3.53844">
        <ele>63</ele>
        <time>2019-07-15T10:20:44Z</time>
      </trkpt>
      <trkpt lat="47.8305" lon="-3.53844">
        <ele>63</ele>
        <time>2019-07-15T10:20:45Z</time>
      </trkpt>
      <trkpt lat="47.83051" lon="-3.53844">
        <ele>64</ele>
        <time>2019-07-15T10:20:46Z</time>
      </trkpt>
      <trkpt lat="47.83051" lon="-3.53844">
        <ele>64</ele>
        <time>2019-07-15T10:20:47Z</time>
      </trkpt>
      <trkpt lat="47.83052" lon="-3.53843">
        <ele>64</ele>
        <time>2019-07-15T10:20:48Z</time>
      </trkpt>
      <trkpt lat="47.83053" lon="-3.5384">
        <ele>64</ele>
        <time>2019-07-15T10:20:49Z</time>
      </trkpt>
      <trkpt lat="47.83054" lon="-3.53838">
        <ele>65</ele>
        <time>2019-07-15T10:20:50Z</time>
      </trkpt>
      <trkpt lat="47.83055" lon="-3.53837">
        <ele>65</ele>
        <time>2019-07-15T10:20:51Z</time>
      </trkpt>
      <trkpt lat="47.83056" lon="-3.53835">
        <ele>65</ele>
        <time>2019-07-15T10:20:52Z</time>
      </trkpt>
      <trkpt lat="47.83057" lon="-3.53834">
        <ele>66</ele>
        <time>2019-07-15T10:20:53Z</time>
      </trkpt>
      <trkpt lat="47.83058" lon="-3.53833">
        <ele>66</ele>
        <time>2019-07-15T10:20:54Z</time>
      </trkpt>
      <trkpt lat="47.8306" lon="-3.53832">
        <ele>66</ele>
        <time>2019-07-15T10:20:55Z</time>
      </trkpt>
      <trkpt lat="47.83061" lon="-3.53831">
        <ele>67</ele>
        <time>2019-07-15T10:20:56Z</time>
      </trkpt>
      <trkpt lat="47.83063" lon="-3.5383">
        <ele>67</ele>
        <time>2019-07-15T10:20:57Z</time>
      </trkpt>
      <trkpt lat="47.83065" lon="-3.5383">
        <ele>67</ele>
        <time>2019-07-15T10:20:58Z</time>
      </trkpt>
      <trkpt lat="47.83067" lon="-3.53829">
        <ele>67</ele>
        <time>2019-07-15T10:20:59Z</time>
      </trkpt>
      <trkpt lat="47.8307" lon="-3.53827">
        <ele>67</ele>
        <time>2019-07-15T10:21:00Z</time>
      </trkpt>
      <trkpt lat="47.83071" lon="-3.53825">
        <ele>67</ele>
        <time>2019-07-15T10:21:01Z</time>
      </trkpt>
      <trkpt lat="47.83073" lon="-3.53824">
        <ele>67</ele>
        <time>2019-07-15T10:21:02Z</time>
      </trkpt>
      <trkpt lat="47.83074" lon="-3.53822">
        <ele>68</ele>
        <time>2019-07-15T10:21:03Z</time>
      </trkpt>
      <trkpt lat="47.83076" lon="-3.5382">
        <ele>68</ele>
        <time>2019-07-15T10:21:04Z</time>
      </trkpt>
      <trkpt lat="47.83077" lon="-3.53817">
        <ele>68</ele>
        <time>2019-07-15T10:21:05Z</time>
      </trkpt>
      <trkpt lat="47.83078" lon="-3.53815">
        <ele>68</ele>
        <time>2019-07-15T10:21:06Z</time>
      </trkpt>
      <trkpt lat="47.83079" lon="-3.53813">
        <ele>68</ele>
        <time>2019-07-15T10:21:07Z</time>
      </trkpt>
      <trkpt lat="47.8308" lon="-3.53811">
        <ele>68</ele>
        <time>2019-07-15T10:21:08Z</time>
      </trkpt>
      <trkpt lat="47.83081" lon="-3.5381">
        <ele>68</ele>
        <time>2019-07-15T10:21:09Z</time>
      </trkpt>
      <trkpt lat="47.83082" lon="-3.53809">
        <ele>68</ele>
        <time>2019-07-15T10:21:10Z</time>
      </trkpt>
      <trkpt lat="47.83083" lon="-3.53807">
        <ele>68</ele>
        <time>2019-07-15T10:21:11Z</time>
      </trkpt>
      <trkpt lat="47.83083" lon="-3.53805">
        <ele>68</ele>
        <time>2019-07-15T10:21:12Z</time>
      </trkpt>
      <trkpt lat="47.83084" lon="-3.53802">
        <ele>68</ele>
        <time>2019-07-15T10:21:13Z</time>
      </trkpt>
      <trkpt lat="47.83084" lon="-3.53798">
        <ele>69</ele>
        <time>2019-07-15T10:21:14Z</time>
      </trkpt>
      <trkpt lat="47.83085" lon="-3.53795">
        <ele>69</ele>
        <time>2019-07-15T10:21:15Z</time>
      </trkpt>
      <trkpt lat="47.83085" lon="-3.53792">
        <ele>69</ele>
        <time>2019-07-15T10:21:16Z</time>
      </trkpt>
      <trkpt lat="47.83085" lon="-3.53788">
        <ele>69</ele>
        <time>2019-07-15T10:21:17Z</time>
      </trkpt>
      <trkpt lat="47.83086" lon="-3.53785">
        <ele>69</ele>
        <time>2019-07-15T10:21:18Z</time>
      </trkpt>
      <trkpt lat="47.83087" lon="-3.53782">
        <ele>69</ele>
        <time>2019-07-15T10:21:19Z</time>
      </trkpt>
      <trkpt lat="47.83088" lon="-3.53779">
        <ele>69</ele>
        <time>2019-07-15T10:21:20Z</time>
      </trkpt>
      <trkpt lat="47.83088" lon="-3.53775">
        <ele>69</ele>
        <time>2019-07-15T10:21:21Z</time>
      </trkpt>
      <trkpt lat="47.83089" lon="-3.53773">
        <ele>69</ele>
        <time>2019-07-15T10:21:22Z</time>
      </trkpt>
      <trkpt lat="47.8309" lon="-3.53771">
        <ele>69</ele>
        <time>2019-07-15T10:21:23Z</time>
      </trkpt>
      <trkpt lat="47.83091" lon="-3.53769">
        <ele>69</ele>
        <time>2019-07-15T10:21:24Z</time>
      </trkpt>
      <trkpt lat="47.83092" lon="-3.53768">
        <ele>69</ele>
        <time>2019-07-15T10:21:25Z</time>
      </trkpt>
      <trkpt lat="47.83093" lon="-3.53766">
        <ele>69</ele>
        <time>2019-07-15T10:21:26Z</time>
      </trkpt>
      <trkpt lat="47.83094" lon="-3.53765">
        <ele>69</ele>
        <time>2019-07-15T10:21:27Z</time>
      </trkpt>
      <trkpt lat="47.83094" lon="-3.53764">
        <ele>69</ele>
        <time>2019-07-15T10:21:28Z</time>
      </trkpt>
      <trkpt lat="47.83095" lon="-3.53764">
        <ele>69</ele>
        <time>2019-07-15T10:21:29Z</time>
      </trkpt>
      <trkpt lat="47.83096" lon="-3.53763">
        <ele>69</ele>
        <time>2019-07-15T10:21:30Z</time>
      </trkpt>
      <trkpt lat="47.83097" lon="-3.53763">
        <ele>69</ele>
        <time>2019-07-15T10:21:31Z</time>
      </trkpt>
      <trkpt lat="47.83099" lon="-3.53762">
        <ele>69</ele>
        <time>2019-07-15T10:21:32Z</time>
      </trkpt>
      <trkpt lat="47.831" lon="-3.53762">
        <ele>69</ele>
        <time>2019-07-15T10:21:33Z</time>
      </trkpt>
      <trkpt lat="47.83102" lon="-3.53761">
        <ele>70</ele>
        <time>2019-07-15T10:21:34Z</time>
      </trkpt>
      <trkpt lat="47.83103" lon="-3.53762">
        <ele>70</ele>
        <time>2019-07-15T10:21:35Z</time>
      </trkpt>
      <trkpt lat="47.83105" lon="-3.53762">
        <ele>70</ele>
        <time>2019-07-15T10:21:36Z</time>
      </trkpt>
      <trkpt lat="47.83107" lon="-3.53762">
        <ele>70</ele>
        <time>2019-07-15T10:21:37Z</time>
      </trkpt>
      <trkpt lat="47.8311" lon="-3.53762">
        <ele>70</ele>
        <time>2019-07-15T10:21:38Z</time>
      </trkpt>
      <trkpt lat="47.83113" lon="-3.53763">
        <ele>70</ele>
        <time>2019-07-15T10:21:39Z</time>
      </trkpt>
      <trkpt lat="47.83116" lon="-3.53764">
        <ele>70</ele>
        <time>2019-07-15T10:21:40Z</time>
      </trkpt>
      <trkpt lat="47.83119" lon="-3.53765">
        <ele>70</ele>
        <time>2019-07-15T10:21:41Z</time>
      </trkpt>
      <trkpt lat="47.83122" lon="-3.53764">
        <ele>70</ele>
        <time>2019-07-15T10:21:42Z</time>
      </trkpt>
      <trkpt lat="47.83125" lon="-3.53764">
        <ele>70</ele>
        <time>2019-07-15T10:21:43Z</time>
      </trkpt>
      <trkpt lat="47.83127" lon="-3.53763">
        <ele>70</ele>
        <time>2019-07-15T10:21:44Z</time>
      </trkpt>
      <trkpt lat="47.83129" lon="-3.53763">
        <ele>70</ele>
        <time>2019-07-15T10:21:45Z</time>
      </trkpt>
      <trkpt lat="47.83131" lon="-3.53762">
        <ele>70</ele>
        <time>2019-07-15T10:21:46Z</time>
      </trkpt>
      <trkpt lat="47.83133" lon="-3.53762">
        <ele>70</ele>
        <time>2019-07-15T10:21:47Z</time>
      </trkpt>
      <trkpt lat="47.83135" lon="-3.53762">
        <ele>71</ele>
        <time>2019-07-15T10:21:48Z</time>
      </trkpt>
      <trkpt lat="47.83138" lon="-3.53761">
        <ele>71</ele>
        <time>2019-07-15T10:21:49Z</time>
      </trkpt>
      <trkpt lat="47.8314" lon="-3.53762">
        <ele>71</ele>
        <time>2019-07-15T10:21:50Z</time>
      </trkpt>
      <trkpt lat="47.83143" lon="-3.53765">
        <ele>71</ele>
        <time>2019-07-15T10:21:51Z</time>
      </trkpt>
      <trkpt lat="47.83146" lon="-3.53767">
        <ele>71</ele>
        <time>2019-07-15T10:21:52Z</time>
      </trkpt>
      <trkpt lat="47.83147" lon="-3.53768">
        <ele>71</ele>
        <time>2019-07-15T10:21:53Z</time>
      </trkpt>
      <trkpt lat="47.83149" lon="-3.53769">
        <ele>71</ele>
        <time>2019-07-15T10:21:54Z</time>
      </trkpt>
      <trkpt lat="47.83153" lon="-3.53769">
        <ele>71</ele>
        <time>2019-07-15T10:21:55Z</time>
      </trkpt>
      <trkpt lat="47.83157" lon="-3.53769">
        <ele>71</ele>
        <time>2019-07-15T10:21:56Z</time>
      </trkpt>
      <trkpt lat="47.83162" lon="-3.53768">
        <ele>71</ele>
        <time>2019-07-15T10:21:57Z</time>
      </trkpt>
      <trkpt lat="47.83165" lon="-3.53768">
        <ele>71</ele>
        <time>2019-07-15T10:21:58Z</time>
      </trkpt>
      <trkpt lat="47.83169" lon="-3.53768">
        <ele>71</ele>
        <time>2019-07-15T10:21:59Z</time>
      </trkpt>
      <trkpt lat="47.83172" lon="-3.53768">
        <ele>71</ele>
        <time>2019-07-15T10:22:00Z</time>
      </trkpt>
      <trkpt lat="47.83177" lon="-3.53767">
        <ele>71</ele>
        <time>2019-07-15T10:22:01Z</time>
      </trkpt>
      <trkpt lat="47.83181" lon="-3.53767">
        <ele>71</ele>
        <time>2019-07-15T10:22:02Z</time>
      </trkpt>
      <trkpt lat="47.83185" lon="-3.53766">
        <ele>71</ele>
        <time>2019-07-15T10:22:03Z</time>
      </trkpt>
      <trkpt lat="47.8319" lon="-3.53766">
        <ele>71</ele>
        <time>2019-07-15T10:22:04Z</time>
      </trkpt>
      <trkpt lat="47.83195" lon="-3.53765">
        <ele>71</ele>
        <time>2019-07-15T10:22:05Z</time>
      </trkpt>
      <trkpt lat="47.83199" lon="-3.53765">
        <ele>70</ele>
        <time>2019-07-15T10:22:06Z</time>
      </trkpt>
      <trkpt lat="47.83203" lon="-3.53765">
        <ele>70</ele>
        <time>2019-07-15T10:22:07Z</time>
      </trkpt>
      <trkpt lat="47.83207" lon="-3.53766">
        <ele>70</ele>
        <time>2019-07-15T10:22:08Z</time>
      </trkpt>
      <trkpt lat="47.8321" lon="-3.53766">
        <ele>70</ele>
        <time>2019-07-15T10:22:09Z</time>
      </trkpt>
      <trkpt lat="47.83214" lon="-3.53765">
        <ele>70</ele>
        <time>2019-07-15T10:22:10Z</time>
      </trkpt>
      <trkpt lat="47.83218" lon="-3.53764">
        <ele>70</ele>
        <time>2019-07-15T10:22:11Z</time>
      </trkpt>
      <trkpt lat="47.83223" lon="-3.53763">
        <ele>70</ele>
        <time>2019-07-15T10:22:12Z</time>
      </trkpt>
      <trkpt lat="47.83226" lon="-3.53761">
        <ele>70</ele>
        <time>2019-07-15T10:22:13Z</time>
      </trkpt>
      <trkpt lat="47.83228" lon="-3.53759">
        <ele>70</ele>
        <time>2019-07-15T10:22:14Z</time>
      </trkpt>
      <trkpt lat="47.8323" lon="-3.53757">
        <ele>70</ele>
        <time>2019-07-15T10:22:15Z</time>
      </trkpt>
      <trkpt lat="47.83231" lon="-3.53755">
        <ele>70</ele>
        <time>2019-07-15T10:22:16Z</time>
      </trkpt>
      <trkpt lat="47.83233" lon="-3.53752">
        <ele>70</ele>
        <time>2019-07-15T10:22:17Z</time>
      </trkpt>
      <trkpt lat="47.83235" lon="-3.53748">
        <ele>70</ele>
        <time>2019-07-15T10:22:18Z</time>
      </trkpt>
      <trkpt lat="47.83236" lon="-3.53744">
        <ele>69</ele>
        <time>2019-07-15T10:22:19Z</time>
      </trkpt>
      <trkpt lat="47.83237" lon="-3.5374">
        <ele>69</ele>
        <time>2019-07-15T10:22:20Z</time>
      </trkpt>
      <trkpt lat="47.83237" lon="-3.53736">
        <ele>69</ele>
        <time>2019-07-15T10:22:21Z</time>
      </trkpt>
      <trkpt lat="47.83236" lon="-3.53732">
        <ele>70</ele>
        <time>2019-07-15T10:22:22Z</time>
      </trkpt>
      <trkpt lat="47.83236" lon="-3.53727">
        <ele>70</ele>
        <time>2019-07-15T10:22:23Z</time>
      </trkpt>
      <trkpt lat="47.83237" lon="-3.53724">
        <ele>69</ele>
        <time>2019-07-15T10:22:24Z</time>
      </trkpt>
      <trkpt lat="47.83238" lon="-3.53722">
        <ele>69</ele>
        <time>2019-07-15T10:22:25Z</time>
      </trkpt>
      <trkpt lat="47.83239" lon="-3.53722">
        <ele>69</ele>
        <time>2019-07-15T10:22:26Z</time>
      </trkpt>
      <trkpt lat="47.8324" lon="-3.5372">
        <ele>69</ele>
        <time>2019-07-15T10:22:27Z</time>
      </trkpt>
      <trkpt lat="47.83241" lon="-3.53719">
        <ele>69</ele>
        <time>2019-07-15T10:22:28Z</time>
      </trkpt>
      <trkpt lat="47.83242" lon="-3.53719">
        <ele>68</ele>
        <time>2019-07-15T10:22:29Z</time>
      </trkpt>
      <trkpt lat="47.83243" lon="-3.53718">
        <ele>68</ele>
        <time>2019-07-15T10:22:30Z</time>
      </trkpt>
      <trkpt lat="47.83244" lon="-3.53718">
        <ele>68</ele>
        <time>2019-07-15T10:22:31Z</time>
      </trkpt>
      <trkpt lat="47.83244" lon="-3.53717">
        <ele>68</ele>
        <time>2019-07-15T10:22:32Z</time>
      </trkpt>
      <trkpt lat="47.83245" lon="-3.53716">
        <ele>68</ele>
        <time>2019-07-15T10:22:33Z</time>
      </trkpt>
      <trkpt lat="47.83246" lon="-3.53716">
        <ele>68</ele>
        <time>2019-07-15T10:22:34Z</time>
      </trkpt>
      <trkpt lat="47.83246" lon="-3.53716">
        <ele>68</ele>
        <time>2019-07-15T10:22:35Z</time>
      </trkpt>
      <trkpt lat="47.83247" lon="-3.53715">
        <ele>67</ele>
        <time>2019-07-15T10:22:36Z</time>
      </trkpt>
      <trkpt lat="47.83247" lon="-3.53715">
        <ele>67</ele>
        <time>2019-07-15T10:22:37Z</time>
      </trkpt>
      <trkpt lat="47.83254" lon="-3.53704">
        <ele>66</ele>
        <time>2019-07-15T10:22:38Z</time>
      </trkpt>
      <trkpt lat="47.83256" lon="-3.53701">
        <ele>66</ele>
        <time>2019-07-15T10:22:39Z</time>
      </trkpt>
      <trkpt lat="47.83257" lon="-3.53697">
        <ele>66</ele>
        <time>2019-07-15T10:22:40Z</time>
      </trkpt>
      <trkpt lat="47.83258" lon="-3.53693">
        <ele>66</ele>
        <time>2019-07-15T10:22:41Z</time>
      </trkpt>
      <trkpt lat="47.83259" lon="-3.53689">
        <ele>66</ele>
        <time>2019-07-15T10:22:42Z</time>
      </trkpt>
      <trkpt lat="47.83259" lon="-3.53686">
        <ele>66</ele>
        <time>2019-07-15T10:22:43Z</time>
      </trkpt>
      <trkpt lat="47.8326" lon="-3.53682">
        <ele>66</ele>
        <time>2019-07-15T10:22:44Z</time>
      </trkpt>
      <trkpt lat="47.83261" lon="-3.53678">
        <ele>66</ele>
        <time>2019-07-15T10:22:45Z</time>
      </trkpt>
      <trkpt lat="47.83263" lon="-3.53674">
        <ele>66</ele>
        <time>2019-07-15T10:22:46Z</time>
      </trkpt>
      <trkpt lat="47.83264" lon="-3.53671">
        <ele>66</ele>
        <time>2019-07-15T10:22:47Z</time>
      </trkpt>
      <trkpt lat="47.83264" lon="-3.53669">
        <ele>66</ele>
        <time>2019-07-15T10:22:48Z</time>
      </trkpt>
      <trkpt lat="47.83264" lon="-3.53666">
        <ele>66</ele>
        <time>2019-07-15T10:22:49Z</time>
      </trkpt>
      <trkpt lat="47.83265" lon="-3.53663">
        <ele>66</ele>
        <time>2019-07-15T10:22:50Z</time>
      </trkpt>
      <trkpt lat="47.83265" lon="-3.5366">
        <ele>66</ele>
        <time>2019-07-15T10:22:51Z</time>
      </trkpt>
      <trkpt lat="47.83266" lon="-3.53657">
        <ele>66</ele>
        <time>2019-07-15T10:22:52Z</time>
      </trkpt>
      <trkpt lat="47.83266" lon="-3.53654">
        <ele>66</ele>
        <time>2019-07-15T10:22:53Z</time>
      </trkpt>
      <trkpt lat="47.83266" lon="-3.53652">
        <ele>66</ele>
        <time>2019-07-15T10:22:54Z</time>
      </trkpt>
      <trkpt lat="47.83266" lon="-3.53649">
        <ele>66</ele>
        <time>2019-07-15T10:22:55Z</time>
      </trkpt>
      <trkpt lat="47.83266" lon="-3.53648">
        <ele>66</ele>
        <time>2019-07-15T10:22:56Z</time>
      </trkpt>
      <trkpt lat="47.83266" lon="-3.53648">
        <ele>66</ele>
        <time>2019-07-15T10:22:57Z</time>
      </trkpt>
      <trkpt lat="47.83266" lon="-3.53647">
        <ele>66</ele>
        <time>2019-07-15T10:22:58Z</time>
      </trkpt>
      <trkpt lat="47.83266" lon="-3.53647">
        <ele>66</ele>
        <time>2019-07-15T10:22:59Z</time>
      </trkpt>
      <trkpt lat="47.83266" lon="-3.53633">
        <ele>65</ele>
        <time>2019-07-15T10:23:00Z</time>
      </trkpt>
      <trkpt lat="47.83267" lon="-3.5363">
        <ele>65</ele>
        <time>2019-07-15T10:23:01Z</time>
      </trkpt>
      <trkpt lat="47.83268" lon="-3.53627">
        <ele>65</ele>
        <time>2019-07-15T10:23:02Z</time>
      </trkpt>
      <trkpt lat="47.83269" lon="-3.53623">
        <ele>65</ele>
        <time>2019-07-15T10:23:03Z</time>
      </trkpt>
      <trkpt lat="47.8327" lon="-3.53619">
        <ele>65</ele>
        <time>2019-07-15T10:23:04Z</time>
      </trkpt>
      <trkpt lat="47.8327" lon="-3.53614">
        <ele>65</ele>
        <time>2019-07-15T10:23:05Z</time>
      </trkpt>
      <trkpt lat="47.8327" lon="-3.5361">
        <ele>65</ele>
        <time>2019-07-15T10:23:06Z</time>
      </trkpt>
      <trkpt lat="47.8327" lon="-3.53606">
        <ele>65</ele>
        <time>2019-07-15T10:23:07Z</time>
      </trkpt>
      <trkpt lat="47.8327" lon="-3.53602">
        <ele>65</ele>
        <time>2019-07-15T10:23:08Z</time>
      </trkpt>
      <trkpt lat="47.8327" lon="-3.53597">
        <ele>65</ele>
        <time>2019-07-15T10:23:09Z</time>
      </trkpt>
      <trkpt lat="47.8327" lon="-3.53592">
        <ele>65</ele>
        <time>2019-07-15T10:23:10Z</time>
      </trkpt>
      <trkpt lat="47.8327" lon="-3.53588">
        <ele>65</ele>
        <time>2019-07-15T10:23:11Z</time>
      </trkpt>
      <trkpt lat="47.83271" lon="-3.53583">
        <ele>65</ele>
        <time>2019-07-15T10:23:12Z</time>
      </trkpt>
      <trkpt lat="47.83271" lon="-3.53578">
        <ele>65</ele>
        <time>2019-07-15T10:23:13Z</time>
      </trkpt>
      <trkpt lat="47.83271" lon="-3.53575">
        <ele>65</ele>
        <time>2019-07-15T10:23:14Z</time>
      </trkpt>
      <trkpt lat="47.8327" lon="-3.53572">
        <ele>65</ele>
        <time>2019-07-15T10:23:15Z</time>
      </trkpt>
      <trkpt lat="47.8327" lon="-3.5357">
        <ele>65</ele>
        <time>2019-07-15T10:23:16Z</time>
      </trkpt>
      <trkpt lat="47.83269" lon="-3.53569">
        <ele>65</ele>
        <time>2019-07-15T10:23:17Z</time>
      </trkpt>
      <trkpt lat="47.83268" lon="-3.53568">
        <ele>64</ele>
        <time>2019-07-15T10:23:18Z</time>
      </trkpt>
      <trkpt lat="47.83267" lon="-3.53565">
        <ele>64</ele>
        <time>2019-07-15T10:23:19Z</time>
      </trkpt>
      <trkpt lat="47.83265" lon="-3.53564">
        <ele>64</ele>
        <time>2019-07-15T10:23:20Z</time>
      </trkpt>
      <trkpt lat="47.83264" lon="-3.53562">
        <ele>64</ele>
        <time>2019-07-15T10:23:21Z</time>
      </trkpt>
      <trkpt lat="47.83263" lon="-3.5356">
        <ele>64</ele>
        <time>2019-07-15T10:23:22Z</time>
      </trkpt>
      <trkpt lat="47.83263" lon="-3.53558">
        <ele>64</ele>
        <time>2019-07-15T10:23:23Z</time>
      </trkpt>
      <trkpt lat="47.83261" lon="-3.53556">
        <ele>64</ele>
        <time>2019-07-15T10:23:24Z</time>
      </trkpt>
      <trkpt lat="47.8326" lon="-3.53553">
        <ele>64</ele>
        <time>2019-07-15T10:23:25Z</time>
      </trkpt>
      <trkpt lat="47.83258" lon="-3.5355">
        <ele>64</ele>
        <time>2019-07-15T10:23:26Z</time>
      </trkpt>
      <trkpt lat="47.83256" lon="-3.53547">
        <ele>63</ele>
        <time>2019-07-15T10:23:27Z</time>
      </trkpt>
      <trkpt lat="47.83254" lon="-3.53543">
        <ele>63</ele>
        <time>2019-07-15T10:23:28Z</time>
      </trkpt>
      <trkpt lat="47.83252" lon="-3.5354">
        <ele>63</ele>
        <time>2019-07-15T10:23:29Z</time>
      </trkpt>
      <trkpt lat="47.8325" lon="-3.53536">
        <ele>63</ele>
        <time>2019-07-15T10:23:30Z</time>
      </trkpt>
      <trkpt lat="47.83248" lon="-3.53532">
        <ele>63</ele>
        <time>2019-07-15T10:23:31Z</time>
      </trkpt>
      <trkpt lat="47.83247" lon="-3.53528">
        <ele>63</ele>
        <time>2019-07-15T10:23:32Z</time>
      </trkpt>
      <trkpt lat="47.83245" lon="-3.53524">
        <ele>63</ele>
        <time>2019-07-15T10:23:33Z</time>
      </trkpt>
      <trkpt lat="47.83244" lon="-3.53519">
        <ele>63</ele>
        <time>2019-07-15T10:23:34Z</time>
      </trkpt>
      <trkpt lat="47.83242" lon="-3.53516">
        <ele>63</ele>
        <time>2019-07-15T10:23:35Z</time>
      </trkpt>
      <trkpt lat="47.83241" lon="-3.53514">
        <ele>63</ele>
        <time>2019-07-15T10:23:36Z</time>
      </trkpt>
      <trkpt lat="47.8324" lon="-3.53512">
        <ele>63</ele>
        <time>2019-07-15T10:23:37Z</time>
      </trkpt>
      <trkpt lat="47.8324" lon="-3.5351">
        <ele>62</ele>
        <time>2019-07-15T10:23:38Z</time>
      </trkpt>
      <trkpt lat="47.83239" lon="-3.53508">
        <ele>62</ele>
        <time>2019-07-15T10:23:39Z</time>
      </trkpt>
      <trkpt lat="47.83238" lon="-3.53506">
        <ele>62</ele>
        <time>2019-07-15T10:23:40Z</time>
      </trkpt>
      <trkpt lat="47.83237" lon="-3.53504">
        <ele>62</ele>
        <time>2019-07-15T10:23:41Z</time>
      </trkpt>
      <trkpt lat="47.83237" lon="-3.53502">
        <ele>62</ele>
        <time>2019-07-15T10:23:42Z</time>
      </trkpt>
      <trkpt lat="47.83237" lon="-3.53501">
        <ele>62</ele>
        <time>2019-07-15T10:23:43Z</time>
      </trkpt>
      <trkpt lat="47.83236" lon="-3.53499">
        <ele>62</ele>
        <time>2019-07-15T10:23:44Z</time>
      </trkpt>
      <trkpt lat="47.83235" lon="-3.53497">
        <ele>61</ele>
        <time>2019-07-15T10:23:45Z</time>
      </trkpt>
      <trkpt lat="47.83234" lon="-3.53494">
        <ele>61</ele>
        <time>2019-07-15T10:23:46Z</time>
      </trkpt>
      <trkpt lat="47.83234" lon="-3.53491">
        <ele>61</ele>
        <time>2019-07-15T10:23:47Z</time>
      </trkpt>
      <trkpt lat="47.83233" lon="-3.53488">
        <ele>61</ele>
        <time>2019-07-15T10:23:48Z</time>
      </trkpt>
      <trkpt lat="47.83232" lon="-3.53485">
        <ele>60</ele>
        <time>2019-07-15T10:23:49Z</time>
      </trkpt>
      <trkpt lat="47.83232" lon="-3.53481">
        <ele>60</ele>
        <time>2019-07-15T10:23:50Z</time>
      </trkpt>
      <trkpt lat="47.83231" lon="-3.53478">
        <ele>60</ele>
        <time>2019-07-15T10:23:51Z</time>
      </trkpt>
      <trkpt lat="47.8323" lon="-3.53475">
        <ele>60</ele>
        <time>2019-07-15T10:23:52Z</time>
      </trkpt>
      <trkpt lat="47.83229" lon="-3.53472">
        <ele>60</ele>
        <time>2019-07-15T10:23:53Z</time>
      </trkpt>
      <trkpt lat="47.83227" lon="-3.53469">
        <ele>60</ele>
        <time>2019-07-15T10:23:54Z</time>
      </trkpt>
      <trkpt lat="47.83224" lon="-3.53466">
        <ele>59</ele>
        <time>2019-07-15T10:23:55Z</time>
      </trkpt>
      <trkpt lat="47.83223" lon="-3.53463">
        <ele>59</ele>
        <time>2019-07-15T10:23:56Z</time>
      </trkpt>
      <trkpt lat="47.83221" lon="-3.5346">
        <ele>59</ele>
        <time>2019-07-15T10:23:57Z</time>
      </trkpt>
      <trkpt lat="47.83219" lon="-3.53456">
        <ele>59</ele>
        <time>2019-07-15T10:23:58Z</time>
      </trkpt>
      <trkpt lat="47.83218" lon="-3.53453">
        <ele>59</ele>
        <time>2019-07-15T10:23:59Z</time>
      </trkpt>
      <trkpt lat="47.83217" lon="-3.5345">
        <ele>59</ele>
        <time>2019-07-15T10:24:00Z</time>
      </trkpt>
      <trkpt lat="47.83216" lon="-3.53447">
        <ele>59</ele>
        <time>2019-07-15T10:24:01Z</time>
      </trkpt>
      <trkpt lat="47.83215" lon="-3.53444">
        <ele>59</ele>
        <time>2019-07-15T10:24:02Z</time>
      </trkpt>
      <trkpt lat="47.83214" lon="-3.53441">
        <ele>59</ele>
        <time>2019-07-15T10:24:03Z</time>
      </trkpt>
      <trkpt lat="47.83212" lon="-3.53438">
        <ele>59</ele>
        <time>2019-07-15T10:24:04Z</time>
      </trkpt>
      <trkpt lat="47.83211" lon="-3.53435">
        <ele>60</ele>
        <time>2019-07-15T10:24:05Z</time>
      </trkpt>
      <trkpt lat="47.8321" lon="-3.53431">
        <ele>60</ele>
        <time>2019-07-15T10:24:06Z</time>
      </trkpt>
      <trkpt lat="47.83208" lon="-3.53428">
        <ele>60</ele>
        <time>2019-07-15T10:24:07Z</time>
      </trkpt>
      <trkpt lat="47.83207" lon="-3.53426">
        <ele>60</ele>
        <time>2019-07-15T10:24:08Z</time>
      </trkpt>
      <trkpt lat="47.83206" lon="-3.53424">
        <ele>60</ele>
        <time>2019-07-15T10:24:09Z</time>
      </trkpt>
      <trkpt lat="47.83205" lon="-3.53423">
        <ele>60</ele>
        <time>2019-07-15T10:24:10Z</time>
      </trkpt>
      <trkpt lat="47.83205" lon="-3.53423">
        <ele>60</ele>
        <time>2019-07-15T10:24:11Z</time>
      </trkpt>
      <trkpt lat="47.83205" lon="-3.53422">
        <ele>60</ele>
        <time>2019-07-15T10:24:12Z</time>
      </trkpt>
      <trkpt lat="47.83204" lon="-3.53421">
        <ele>61</ele>
        <time>2019-07-15T10:24:13Z</time>
      </trkpt>
      <trkpt lat="47.83204" lon="-3.53421">
        <ele>61</ele>
        <time>2019-07-15T10:24:14Z</time>
      </trkpt>
      <trkpt lat="47.83206" lon="-3.53424">
        <ele>61</ele>
        <time>2019-07-15T10:24:15Z</time>
      </trkpt>
      <trkpt lat="47.83208" lon="-3.53425">
        <ele>61</ele>
        <time>2019-07-15T10:24:16Z</time>
      </trkpt>
      <trkpt lat="47.83208" lon="-3.53426">
        <ele>61</ele>
        <time>2019-07-15T10:24:17Z</time>
      </trkpt>
      <trkpt lat="47.83208" lon="-3.53427">
        <ele>61</ele>
        <time>2019-07-15T10:24:18Z</time>
      </trkpt>
      <trkpt lat="47.83208" lon="-3.53427">
        <ele>60</ele>
        <time>2019-07-15T10:24:19Z</time>
      </trkpt>
      <trkpt lat="47.83209" lon="-3.53434">
        <ele>60</ele>
        <time>2019-07-15T10:24:20Z</time>
      </trkpt>
      <trkpt lat="47.8321" lon="-3.53435">
        <ele>60</ele>
        <time>2019-07-15T10:24:21Z</time>
      </trkpt>
      <trkpt lat="47.83212" lon="-3.53436">
        <ele>60</ele>
        <time>2019-07-15T10:24:22Z</time>
      </trkpt>
      <trkpt lat="47.83213" lon="-3.53437">
        <ele>60</ele>
        <time>2019-07-15T10:24:23Z</time>
      </trkpt>
      <trkpt lat="47.83214" lon="-3.53439">
        <ele>60</ele>
        <time>2019-07-15T10:24:24Z</time>
      </trkpt>
      <trkpt lat="47.83216" lon="-3.53441">
        <ele>60</ele>
        <time>2019-07-15T10:24:25Z</time>
      </trkpt>
      <trkpt lat="47.83218" lon="-3.53443">
        <ele>60</ele>
        <time>2019-07-15T10:24:26Z</time>
      </trkpt>
      <trkpt lat="47.8322" lon="-3.53445">
        <ele>60</ele>
        <time>2019-07-15T10:24:27Z</time>
      </trkpt>
      <trkpt lat="47.83223" lon="-3.53447">
        <ele>60</ele>
        <time>2019-07-15T10:24:28Z</time>
      </trkpt>
      <trkpt lat="47.83226" lon="-3.53449">
        <ele>60</ele>
        <time>2019-07-15T10:24:29Z</time>
      </trkpt>
      <trkpt lat="47.83229" lon="-3.5345">
        <ele>60</ele>
        <time>2019-07-15T10:24:30Z</time>
      </trkpt>
      <trkpt lat="47.83231" lon="-3.53453">
        <ele>60</ele>
        <time>2019-07-15T10:24:31Z</time>
      </trkpt>
      <trkpt lat="47.83234" lon="-3.53455">
        <ele>60</ele>
        <time>2019-07-15T10:24:32Z</time>
      </trkpt>
      <trkpt lat="47.83238" lon="-3.53457">
        <ele>60</ele>
        <time>2019-07-15T10:24:33Z</time>
      </trkpt>
      <trkpt lat="47.83241" lon="-3.5346">
        <ele>59</ele>
        <time>2019-07-15T10:24:34Z</time>
      </trkpt>
      <trkpt lat="47.83244" lon="-3.53461">
        <ele>59</ele>
        <time>2019-07-15T10:24:35Z</time>
      </trkpt>
      <trkpt lat="47.83246" lon="-3.53463">
        <ele>59</ele>
        <time>2019-07-15T10:24:36Z</time>
      </trkpt>
      <trkpt lat="47.83249" lon="-3.53464">
        <ele>59</ele>
        <time>2019-07-15T10:24:37Z</time>
      </trkpt>
      <trkpt lat="47.83252" lon="-3.53466">
        <ele>59</ele>
        <time>2019-07-15T10:24:38Z</time>
      </trkpt>
      <trkpt lat="47.83255" lon="-3.53468">
        <ele>59</ele>
        <time>2019-07-15T10:24:39Z</time>
      </trkpt>
      <trkpt lat="47.83258" lon="-3.53469">
        <ele>59</ele>
        <time>2019-07-15T10:24:40Z</time>
      </trkpt>
      <trkpt lat="47.83262" lon="-3.53471">
        <ele>59</ele>
        <time>2019-07-15T10:24:41Z</time>
      </trkpt>
      <trkpt lat="47.83266" lon="-3.53473">
        <ele>59</ele>
        <time>2019-07-15T10:24:42Z</time>
      </trkpt>
      <trkpt lat="47.8327" lon="-3.53475">
        <ele>58</ele>
        <time>2019-07-15T10:24:43Z</time>
      </trkpt>
      <trkpt lat="47.83274" lon="-3.53477">
        <ele>58</ele>
        <time>2019-07-15T10:24:44Z</time>
      </trkpt>
      <trkpt lat="47.83279" lon="-3.5348">
        <ele>58</ele>
        <time>2019-07-15T10:24:45Z</time>
      </trkpt>
      <trkpt lat="47.83283" lon="-3.53483">
        <ele>58</ele>
        <time>2019-07-15T10:24:46Z</time>
      </trkpt>
      <trkpt lat="47.83286" lon="-3.53486">
        <ele>58</ele>
        <time>2019-07-15T10:24:47Z</time>
      </trkpt>
      <trkpt lat="47.83288" lon="-3.53488">
        <ele>57</ele>
        <time>2019-07-15T10:24:48Z</time>
      </trkpt>
      <trkpt lat="47.8329" lon="-3.5349">
        <ele>57</ele>
        <time>2019-07-15T10:24:49Z</time>
      </trkpt>
      <trkpt lat="47.83291" lon="-3.53491">
        <ele>57</ele>
        <time>2019-07-15T10:24:50Z</time>
      </trkpt>
      <trkpt lat="47.83292" lon="-3.53493">
        <ele>57</ele>
        <time>2019-07-15T10:24:51Z</time>
      </trkpt>
      <trkpt lat="47.83293" lon="-3.53494">
        <ele>56</ele>
        <time>2019-07-15T10:24:52Z</time>
      </trkpt>
      <trkpt lat="47.83295" lon="-3.53496">
        <ele>56</ele>
        <time>2019-07-15T10:24:53Z</time>
      </trkpt>
      <trkpt lat="47.83297" lon="-3.53497">
        <ele>56</ele>
        <time>2019-07-15T10:24:54Z</time>
      </trkpt>
      <trkpt lat="47.83299" lon="-3.53499">
        <ele>55</ele>
        <time>2019-07-15T10:24:55Z</time>
      </trkpt>
      <trkpt lat="47.83303" lon="-3.53502">
        <ele>55</ele>
        <time>2019-07-15T10:24:56Z</time>
      </trkpt>
      <trkpt lat="47.83307" lon="-3.53504">
        <ele>55</ele>
        <time>2019-07-15T10:24:57Z</time>
      </trkpt>
      <trkpt lat="47.83311" lon="-3.53507">
        <ele>54</ele>
        <time>2019-07-15T10:24:58Z</time>
      </trkpt>
      <trkpt lat="47.83314" lon="-3.5351">
        <ele>54</ele>
        <time>2019-07-15T10:24:59Z</time>
      </trkpt>
      <trkpt lat="47.83317" lon="-3.53512">
        <ele>53</ele>
        <time>2019-07-15T10:25:00Z</time>
      </trkpt>
      <trkpt lat="47.8332" lon="-3.53513">
        <ele>53</ele>
        <time>2019-07-15T10:25:01Z</time>
      </trkpt>
      <trkpt lat="47.83321" lon="-3.53514">
        <ele>53</ele>
        <time>2019-07-15T10:25:02Z</time>
      </trkpt>
      <trkpt lat="47.83321" lon="-3.53516">
        <ele>52</ele>
        <time>2019-07-15T10:25:03Z</time>
      </trkpt>
      <trkpt lat="47.83321" lon="-3.53517">
        <ele>52</ele>
        <time>2019-07-15T10:25:04Z</time>
      </trkpt>
      <trkpt lat="47.83322" lon="-3.53518">
        <ele>52</ele>
        <time>2019-07-15T10:25:05Z</time>
      </trkpt>
      <trkpt lat="47.83324" lon="-3.53519">
        <ele>51</ele>
        <time>2019-07-15T10:25:06Z</time>
      </trkpt>
      <trkpt lat="47.83324" lon="-3.5352">
        <ele>51</ele>
        <time>2019-07-15T10:25:07Z</time>
      </trkpt>
      <trkpt lat="47.83326" lon="-3.53521">
        <ele>51</ele>
        <time>2019-07-15T10:25:08Z</time>
      </trkpt>
      <trkpt lat="47.83326" lon="-3.53522">
        <ele>51</ele>
        <time>2019-07-15T10:25:09Z</time>
      </trkpt>
      <trkpt lat="47.83327" lon="-3.53522">
        <ele>51</ele>
        <time>2019-07-15T10:25:10Z</time>
      </trkpt>
      <trkpt lat="47.83328" lon="-3.53523">
        <ele>51</ele>
        <time>2019-07-15T10:25:11Z</time>
      </trkpt>
      <trkpt lat="47.83329" lon="-3.53524">
        <ele>51</ele>
        <time>2019-07-15T10:25:12Z</time>
      </trkpt>
      <trkpt lat="47.8333" lon="-3.53524">
        <ele>50</ele>
        <time>2019-07-15T10:25:13Z</time>
      </trkpt>
      <trkpt lat="47.83331" lon="-3.53524">
        <ele>50</ele>
        <time>2019-07-15T10:25:14Z</time>
      </trkpt>
      <trkpt lat="47.83331" lon="-3.53525">
        <ele>50</ele>
        <time>2019-07-15T10:25:15Z</time>
      </trkpt>
      <trkpt lat="47.83332" lon="-3.53525">
        <ele>50</ele>
        <time>2019-07-15T10:25:16Z</time>
      </trkpt>
      <trkpt lat="47.83337" lon="-3.53531">
        <ele>50</ele>
        <time>2019-07-15T10:25:17Z</time>
      </trkpt>
      <trkpt lat="47.83339" lon="-3.53532">
        <ele>50</ele>
        <time>2019-07-15T10:25:18Z</time>
      </trkpt>
      <trkpt lat="47.8334" lon="-3.53533">
        <ele>50</ele>
        <time>2019-07-15T10:25:19Z</time>
      </trkpt>
      <trkpt lat="47.83341" lon="-3.53535">
        <ele>50</ele>
        <time>2019-07-15T10:25:20Z</time>
      </trkpt>
      <trkpt lat="47.83343" lon="-3.53536">
        <ele>50</ele>
        <time>2019-07-15T10:25:21Z</time>
      </trkpt>
      <trkpt lat="47.83345" lon="-3.53537">
        <ele>49</ele>
        <time>2019-07-15T10:25:22Z</time>
      </trkpt>
      <trkpt lat="47.83347" lon="-3.53538">
        <ele>49</ele>
        <time>2019-07-15T10:25:23Z</time>
      </trkpt>
      <trkpt lat="47.83349" lon="-3.53539">
        <ele>49</ele>
        <time>2019-07-15T10:25:24Z</time>
      </trkpt>
      <trkpt lat="47.83351" lon="-3.53541">
        <ele>49</ele>
        <time>2019-07-15T10:25:25Z</time>
      </trkpt>
      <trkpt lat="47.83353" lon="-3.53542">
        <ele>49</ele>
        <time>2019-07-15T10:25:26Z</time>
      </trkpt>
      <trkpt lat="47.83354" lon="-3.53543">
        <ele>49</ele>
        <time>2019-07-15T10:25:27Z</time>
      </trkpt>
      <trkpt lat="47.83356" lon="-3.53544">
        <ele>48</ele>
        <time>2019-07-15T10:25:28Z</time>
      </trkpt>
      <trkpt lat="47.83358" lon="-3.53546">
        <ele>48</ele>
        <time>2019-07-15T10:25:29Z</time>
      </trkpt>
      <trkpt lat="47.83359" lon="-3.53547">
        <ele>48</ele>
        <time>2019-07-15T10:25:30Z</time>
      </trkpt>
      <trkpt lat="47.8336" lon="-3.53548">
        <ele>48</ele>
        <time>2019-07-15T10:25:31Z</time>
      </trkpt>
      <trkpt lat="47.83362" lon="-3.53549">
        <ele>48</ele>
        <time>2019-07-15T10:25:32Z</time>
      </trkpt>
      <trkpt lat="47.83363" lon="-3.5355">
        <ele>48</ele>
        <time>2019-07-15T10:25:33Z</time>
      </trkpt>
      <trkpt lat="47.83365" lon="-3.53551">
        <ele>47</ele>
        <time>2019-07-15T10:25:34Z</time>
      </trkpt>
      <trkpt lat="47.83366" lon="-3.53552">
        <ele>47</ele>
        <time>2019-07-15T10:25:35Z</time>
      </trkpt>
      <trkpt lat="47.83368" lon="-3.53553">
        <ele>47</ele>
        <time>2019-07-15T10:25:36Z</time>
      </trkpt>
      <trkpt lat="47.8337" lon="-3.53553">
        <ele>47</ele>
        <time>2019-07-15T10:25:37Z</time>
      </trkpt>
      <trkpt lat="47.83372" lon="-3.53554">
        <ele>47</ele>
        <time>2019-07-15T10:25:38Z</time>
      </trkpt>
      <trkpt lat="47.83373" lon="-3.53554">
        <ele>46</ele>
        <time>2019-07-15T10:25:39Z</time>
      </trkpt>
      <trkpt lat="47.83375" lon="-3.53555">
        <ele>46</ele>
        <time>2019-07-15T10:25:40Z</time>
      </trkpt>
      <trkpt lat="47.83376" lon="-3.53555">
        <ele>46</ele>
        <time>2019-07-15T10:25:41Z</time>
      </trkpt>
      <trkpt lat="47.83378" lon="-3.53555">
        <ele>46</ele>
        <time>2019-07-15T10:25:42Z</time>
      </trkpt>
      <trkpt lat="47.8338" lon="-3.53556">
        <ele>45</ele>
        <time>2019-07-15T10:25:43Z</time>
      </trkpt>
      <trkpt lat="47.83382" lon="-3.53557">
        <ele>45</ele>
        <time>2019-07-15T10:25:44Z</time>
      </trkpt>
      <trkpt lat="47.83384" lon="-3.53558">
        <ele>45</ele>
        <time>2019-07-15T10:25:45Z</time>
      </trkpt>
      <trkpt lat="47.83386" lon="-3.53558">
        <ele>44</ele>
        <time>2019-07-15T10:25:46Z</time>
      </trkpt>
      <trkpt lat="47.83389" lon="-3.53559">
        <ele>44</ele>
        <time>2019-07-15T10:25:47Z</time>
      </trkpt>
      <trkpt lat="47.83391" lon="-3.53559">
        <ele>44</ele>
        <time>2019-07-15T10:25:48Z</time>
      </trkpt>
      <trkpt lat="47.83392" lon="-3.5356">
        <ele>43</ele>
        <time>2019-07-15T10:25:49Z</time>
      </trkpt>
      <trkpt lat="47.83394" lon="-3.53561">
        <ele>43</ele>
        <time>2019-07-15T10:25:50Z</time>
      </trkpt>
      <trkpt lat="47.83397" lon="-3.53561">
        <ele>43</ele>
        <time>2019-07-15T10:25:51Z</time>
      </trkpt>
      <trkpt lat="47.83399" lon="-3.53561">
        <ele>43</ele>
        <time>2019-07-15T10:25:52Z</time>
      </trkpt>
      <trkpt lat="47.83401" lon="-3.53561">
        <ele>42</ele>
        <time>2019-07-15T10:25:53Z</time>
      </trkpt>
      <trkpt lat="47.83403" lon="-3.53562">
        <ele>42</ele>
        <time>2019-07-15T10:25:54Z</time>
      </trkpt>
      <trkpt lat="47.83404" lon="-3.53562">
        <ele>42</ele>
        <time>2019-07-15T10:25:55Z</time>
      </trkpt>
      <trkpt lat="47.83406" lon="-3.53562">
        <ele>41</ele>
        <time>2019-07-15T10:25:56Z</time>
      </trkpt>
      <trkpt lat="47.83408" lon="-3.53563">
        <ele>41</ele>
        <time>2019-07-15T10:25:57Z</time>
      </trkpt>
      <trkpt lat="47.8341" lon="-3.53564">
        <ele>40</ele>
        <time>2019-07-15T10:25:58Z</time>
      </trkpt>
      <trkpt lat="47.83411" lon="-3.53564">
        <ele>39</ele>
        <time>2019-07-15T10:25:59Z</time>
      </trkpt>
      <trkpt lat="47.83413" lon="-3.53564">
        <ele>39</ele>
        <time>2019-07-15T10:26:00Z</time>
      </trkpt>
      <trkpt lat="47.83415" lon="-3.53564">
        <ele>38</ele>
        <time>2019-07-15T10:26:01Z</time>
      </trkpt>
      <trkpt lat="47.83417" lon="-3.53564">
        <ele>38</ele>
        <time>2019-07-15T10:26:02Z</time>
      </trkpt>
      <trkpt lat="47.83419" lon="-3.53564">
        <ele>37</ele>
        <time>2019-07-15T10:26:03Z</time>
      </trkpt>
      <trkpt lat="47.83421" lon="-3.53565">
        <ele>36</ele>
        <time>2019-07-15T10:26:04Z</time>
      </trkpt>
      <trkpt lat="47.83422" lon="-3.53565">
        <ele>36</ele>
        <time>2019-07-15T10:26:05Z</time>
      </trkpt>
      <trkpt lat="47.83424" lon="-3.53565">
        <ele>35</ele>
        <time>2019-07-15T10:26:06Z</time>
      </trkpt>
      <trkpt lat="47.83426" lon="-3.53566">
        <ele>34</ele>
        <time>2019-07-15T10:26:07Z</time>
      </trkpt>
      <trkpt lat="47.83428" lon="-3.53566">
        <ele>34</ele>
        <time>2019-07-15T10:26:08Z</time>
      </trkpt>
      <trkpt lat="47.83429" lon="-3.53567">
        <ele>33</ele>
        <time>2019-07-15T10:26:09Z</time>
      </trkpt>
      <trkpt lat="47.83431" lon="-3.53568">
        <ele>32</ele>
        <time>2019-07-15T10:26:10Z</time>
      </trkpt>
      <trkpt lat="47.83432" lon="-3.53569">
        <ele>32</ele>
        <time>2019-07-15T10:26:11Z</time>
      </trkpt>
      <trkpt lat="47.83433" lon="-3.53571">
        <ele>31</ele>
        <time>2019-07-15T10:26:12Z</time>
      </trkpt>
      <trkpt lat="47.83434" lon="-3.53572">
        <ele>30</ele>
        <time>2019-07-15T10:26:13Z</time>
      </trkpt>
      <trkpt lat="47.83436" lon="-3.53573">
        <ele>30</ele>
        <time>2019-07-15T10:26:14Z</time>
      </trkpt>
      <trkpt lat="47.83437" lon="-3.53574">
        <ele>29</ele>
        <time>2019-07-15T10:26:15Z</time>
      </trkpt>
      <trkpt lat="47.83439" lon="-3.53574">
        <ele>29</ele>
        <time>2019-07-15T10:26:16Z</time>
      </trkpt>
      <trkpt lat="47.83441" lon="-3.53574">
        <ele>28</ele>
        <time>2019-07-15T10:26:17Z</time>
      </trkpt>
      <trkpt lat="47.83442" lon="-3.53574">
        <ele>28</ele>
        <time>2019-07-15T10:26:18Z</time>
      </trkpt>
      <trkpt lat="47.83443" lon="-3.53574">
        <ele>27</ele>
        <time>2019-07-15T10:26:19Z</time>
      </trkpt>
      <trkpt lat="47.83444" lon="-3.53575">
        <ele>27</ele>
        <time>2019-07-15T10:26:20Z</time>
      </trkpt>
      <trkpt lat="47.83445" lon="-3.53575">
        <ele>26</ele>
        <time>2019-07-15T10:26:21Z</time>
      </trkpt>
      <trkpt lat="47.83445" lon="-3.53575">
        <ele>26</ele>
        <time>2019-07-15T10:26:22Z</time>
      </trkpt>
      <trkpt lat="47.83446" lon="-3.53575">
        <ele>25</ele>
        <time>2019-07-15T10:26:23Z</time>
      </trkpt>
      <trkpt lat="47.83453" lon="-3.53573">
        <ele>23</ele>
        <time>2019-07-15T10:26:24Z</time>
      </trkpt>
      <trkpt lat="47.83455" lon="-3.53572">
        <ele>22</ele>
        <time>2019-07-15T10:26:25Z</time>
      </trkpt>
      <trkpt lat="47.83457" lon="-3.53572">
        <ele>22</ele>
        <time>2019-07-15T10:26:26Z</time>
      </trkpt>
      <trkpt lat="47.83459" lon="-3.5357">
        <ele>22</ele>
        <time>2019-07-15T10:26:27Z</time>
      </trkpt>
      <trkpt lat="47.83461" lon="-3.53568">
        <ele>22</ele>
        <time>2019-07-15T10:26:28Z</time>
      </trkpt>
      <trkpt lat="47.83463" lon="-3.53566">
        <ele>22</ele>
        <time>2019-07-15T10:26:29Z</time>
      </trkpt>
      <trkpt lat="47.83465" lon="-3.53564">
        <ele>21</ele>
        <time>2019-07-15T10:26:30Z</time>
      </trkpt>
      <trkpt lat="47.83467" lon="-3.53561">
        <ele>21</ele>
        <time>2019-07-15T10:26:31Z</time>
      </trkpt>
      <trkpt lat="47.83469" lon="-3.53558">
        <ele>21</ele>
        <time>2019-07-15T10:26:32Z</time>
      </trkpt>
      <trkpt lat="47.83471" lon="-3.53555">
        <ele>21</ele>
        <time>2019-07-15T10:26:33Z</time>
      </trkpt>
      <trkpt lat="47.83473" lon="-3.53551">
        <ele>21</ele>
        <time>2019-07-15T10:26:34Z</time>
      </trkpt>
      <trkpt lat="47.83474" lon="-3.53546">
        <ele>20</ele>
        <time>2019-07-15T10:26:35Z</time>
      </trkpt>
      <trkpt lat="47.83475" lon="-3.53541">
        <ele>20</ele>
        <time>2019-07-15T10:26:36Z</time>
      </trkpt>
      <trkpt lat="47.83476" lon="-3.53536">
        <ele>20</ele>
        <time>2019-07-15T10:26:37Z</time>
      </trkpt>
      <trkpt lat="47.83477" lon="-3.53532">
        <ele>19</ele>
        <time>2019-07-15T10:26:38Z</time>
      </trkpt>
      <trkpt lat="47.83479" lon="-3.53527">
        <ele>19</ele>
        <time>2019-07-15T10:26:39Z</time>
      </trkpt>
      <trkpt lat="47.8348" lon="-3.53522">
        <ele>19</ele>
        <time>2019-07-15T10:26:40Z</time>
      </trkpt>
      <trkpt lat="47.83481" lon="-3.53516">
        <ele>18</ele>
        <time>2019-07-15T10:26:41Z</time>
      </trkpt>
      <trkpt lat="47.83483" lon="-3.53511">
        <ele>18</ele>
        <time>2019-07-15T10:26:42Z</time>
      </trkpt>
      <trkpt lat="47.83484" lon="-3.53506">
        <ele>18</ele>
        <time>2019-07-15T10:26:43Z</time>
      </trkpt>
      <trkpt lat="47.83485" lon="-3.535">
        <ele>17</ele>
        <time>2019-07-15T10:26:44Z</time>
      </trkpt>
      <trkpt lat="47.83486" lon="-3.53495">
        <ele>17</ele>
        <time>2019-07-15T10:26:45Z</time>
      </trkpt>
      <trkpt lat="47.83488" lon="-3.53489">
        <ele>17</ele>
        <time>2019-07-15T10:26:46Z</time>
      </trkpt>
      <trkpt lat="47.83489" lon="-3.53484">
        <ele>17</ele>
        <time>2019-07-15T10:26:47Z</time>
      </trkpt>
      <trkpt lat="47.8349" lon="-3.53479">
        <ele>17</ele>
        <time>2019-07-15T10:26:48Z</time>
      </trkpt>
      <trkpt lat="47.83491" lon="-3.53473">
        <ele>17</ele>
        <time>2019-07-15T10:26:49Z</time>
      </trkpt>
      <trkpt lat="47.83493" lon="-3.53467">
        <ele>17</ele>
        <time>2019-07-15T10:26:50Z</time>
      </trkpt>
      <trkpt lat="47.83494" lon="-3.53461">
        <ele>17</ele>
        <time>2019-07-15T10:26:51Z</time>
      </trkpt>
      <trkpt lat="47.83495" lon="-3.53456">
        <ele>16</ele>
        <time>2019-07-15T10:26:52Z</time>
      </trkpt>
      <trkpt lat="47.83497" lon="-3.5345">
        <ele>16</ele>
        <time>2019-07-15T10:26:53Z</time>
      </trkpt>
      <trkpt lat="47.83498" lon="-3.53445">
        <ele>17</ele>
        <time>2019-07-15T10:26:54Z</time>
      </trkpt>
      <trkpt lat="47.83499" lon="-3.5344">
        <ele>17</ele>
        <time>2019-07-15T10:26:55Z</time>
      </trkpt>
      <trkpt lat="47.835" lon="-3.53434">
        <ele>17</ele>
        <time>2019-07-15T10:26:56Z</time>
      </trkpt>
      <trkpt lat="47.83501" lon="-3.53429">
        <ele>17</ele>
        <time>2019-07-15T10:26:57Z</time>
      </trkpt>
      <trkpt lat="47.83503" lon="-3.53424">
        <ele>17</ele>
        <time>2019-07-15T10:26:58Z</time>
      </trkpt>
      <trkpt lat="47.83505" lon="-3.5342">
        <ele>17</ele>
        <time>2019-07-15T10:26:59Z</time>
      </trkpt>
      <trkpt lat="47.83507" lon="-3.53416">
        <ele>17</ele>
        <time>2019-07-15T10:27:00Z</time>
      </trkpt>
      <trkpt lat="47.8351" lon="-3.53412">
        <ele>18</ele>
        <time>2019-07-15T10:27:01Z</time>
      </trkpt>
      <trkpt lat="47.83512" lon="-3.53409">
        <ele>18</ele>
        <time>2019-07-15T10:27:02Z</time>
      </trkpt>
      <trkpt lat="47.83515" lon="-3.53407">
        <ele>18</ele>
        <time>2019-07-15T10:27:03Z</time>
      </trkpt>
      <trkpt lat="47.83518" lon="-3.53403">
        <ele>18</ele>
        <time>2019-07-15T10:27:04Z</time>
      </trkpt>
      <trkpt lat="47.8352" lon="-3.534">
        <ele>19</ele>
        <time>2019-07-15T10:27:05Z</time>
      </trkpt>
      <trkpt lat="47.83523" lon="-3.53397">
        <ele>19</ele>
        <time>2019-07-15T10:27:06Z</time>
      </trkpt>
      <trkpt lat="47.83526" lon="-3.53394">
        <ele>19</ele>
        <time>2019-07-15T10:27:07Z</time>
      </trkpt>
      <trkpt lat="47.83529" lon="-3.53392">
        <ele>19</ele>
        <time>2019-07-15T10:27:08Z</time>
      </trkpt>
      <trkpt lat="47.83532" lon="-3.5339">
        <ele>20</ele>
        <time>2019-07-15T10:27:09Z</time>
      </trkpt>
      <trkpt lat="47.83535" lon="-3.53388">
        <ele>20</ele>
        <time>2019-07-15T10:27:10Z</time>
      </trkpt>
      <trkpt lat="47.83538" lon="-3.53385">
        <ele>20</ele>
        <time>2019-07-15T10:27:11Z</time>
      </trkpt>
      <trkpt lat="47.8354" lon="-3.53383">
        <ele>20</ele>
        <time>2019-07-15T10:27:12Z</time>
      </trkpt>
      <trkpt lat="47.83543" lon="-3.53381">
        <ele>20</ele>
        <time>2019-07-15T10:27:13Z</time>
      </trkpt>
      <trkpt lat="47.83547" lon="-3.53378">
        <ele>21</ele>
        <time>2019-07-15T10:27:14Z</time>
      </trkpt>
      <trkpt lat="47.8355" lon="-3.53376">
        <ele>21</ele>
        <time>2019-07-15T10:27:15Z</time>
      </trkpt>
      <trkpt lat="47.83553" lon="-3.53374">
        <ele>21</ele>
        <time>2019-07-15T10:27:16Z</time>
      </trkpt>
      <trkpt lat="47.83555" lon="-3.53372">
        <ele>21</ele>
        <time>2019-07-15T10:27:17Z</time>
      </trkpt>
      <trkpt lat="47.83559" lon="-3.53371">
        <ele>22</ele>
        <time>2019-07-15T10:27:18Z</time>
      </trkpt>
      <trkpt lat="47.83562" lon="-3.5337">
        <ele>22</ele>
        <time>2019-07-15T10:27:19Z</time>
      </trkpt>
      <trkpt lat="47.83564" lon="-3.53369">
        <ele>22</ele>
        <time>2019-07-15T10:27:20Z</time>
      </trkpt>
      <trkpt lat="47.83567" lon="-3.53369">
        <ele>22</ele>
        <time>2019-07-15T10:27:21Z</time>
      </trkpt>
      <trkpt lat="47.83569" lon="-3.5337">
        <ele>22</ele>
        <time>2019-07-15T10:27:22Z</time>
      </trkpt>
      <trkpt lat="47.83572" lon="-3.5337">
        <ele>22</ele>
        <time>2019-07-15T10:27:23Z</time>
      </trkpt>
      <trkpt lat="47.83574" lon="-3.53372">
        <ele>22</ele>
        <time>2019-07-15T10:27:24Z</time>
      </trkpt>
      <trkpt lat="47.83577" lon="-3.53374">
        <ele>22</ele>
        <time>2019-07-15T10:27:25Z</time>
      </trkpt>
      <trkpt lat="47.83579" lon="-3.53378">
        <ele>23</ele>
        <time>2019-07-15T10:27:26Z</time>
      </trkpt>
      <trkpt lat="47.83582" lon="-3.53381">
        <ele>23</ele>
        <time>2019-07-15T10:27:27Z</time>
      </trkpt>
      <trkpt lat="47.83583" lon="-3.53384">
        <ele>23</ele>
        <time>2019-07-15T10:27:28Z</time>
      </trkpt>
      <trkpt lat="47.83585" lon="-3.53387">
        <ele>23</ele>
        <time>2019-07-15T10:27:29Z</time>
      </trkpt>
      <trkpt lat="47.83586" lon="-3.5339">
        <ele>23</ele>
        <time>2019-07-15T10:27:30Z</time>
      </trkpt>
      <trkpt lat="47.83588" lon="-3.53393">
        <ele>23</ele>
        <time>2019-07-15T10:27:31Z</time>
      </trkpt>
      <trkpt lat="47.83591" lon="-3.53396">
        <ele>23</ele>
        <time>2019-07-15T10:27:32Z</time>
      </trkpt>
      <trkpt lat="47.83593" lon="-3.534">
        <ele>23</ele>
        <time>2019-07-15T10:27:33Z</time>
      </trkpt>
      <trkpt lat="47.83596" lon="-3.53403">
        <ele>22</ele>
        <time>2019-07-15T10:27:34Z</time>
      </trkpt>
      <trkpt lat="47.836" lon="-3.53406">
        <ele>22</ele>
        <time>2019-07-15T10:27:35Z</time>
      </trkpt>
      <trkpt lat="47.83604" lon="-3.53409">
        <ele>22</ele>
        <time>2019-07-15T10:27:36Z</time>
      </trkpt>
      <trkpt lat="47.83608" lon="-3.53413">
        <ele>22</ele>
        <time>2019-07-15T10:27:37Z</time>
      </trkpt>
      <trkpt lat="47.83614" lon="-3.53419">
        <ele>22</ele>
        <time>2019-07-15T10:27:38Z</time>
      </trkpt>
      <trkpt lat="47.83618" lon="-3.53424">
        <ele>22</ele>
        <time>2019-07-15T10:27:39Z</time>
      </trkpt>
      <trkpt lat="47.83623" lon="-3.53429">
        <ele>22</ele>
        <time>2019-07-15T10:27:40Z</time>
      </trkpt>
      <trkpt lat="47.83627" lon="-3.53433">
        <ele>22</ele>
        <time>2019-07-15T10:27:41Z</time>
      </trkpt>
      <trkpt lat="47.83631" lon="-3.53437">
        <ele>22</ele>
        <time>2019-07-15T10:27:42Z</time>
      </trkpt>
      <trkpt lat="47.83634" lon="-3.53441">
        <ele>22</ele>
        <time>2019-07-15T10:27:43Z</time>
      </trkpt>
      <trkpt lat="47.83636" lon="-3.53444">
        <ele>23</ele>
        <time>2019-07-15T10:27:44Z</time>
      </trkpt>
      <trkpt lat="47.83638" lon="-3.53447">
        <ele>23</ele>
        <time>2019-07-15T10:27:45Z</time>
      </trkpt>
      <trkpt lat="47.8364" lon="-3.53451">
        <ele>23</ele>
        <time>2019-07-15T10:27:46Z</time>
      </trkpt>
      <trkpt lat="47.83642" lon="-3.53456">
        <ele>23</ele>
        <time>2019-07-15T10:27:47Z</time>
      </trkpt>
      <trkpt lat="47.83646" lon="-3.5346">
        <ele>23</ele>
        <time>2019-07-15T10:27:48Z</time>
      </trkpt>
      <trkpt lat="47.83651" lon="-3.53464">
        <ele>23</ele>
        <time>2019-07-15T10:27:49Z</time>
      </trkpt>
      <trkpt lat="47.83655" lon="-3.53467">
        <ele>23</ele>
        <time>2019-07-15T10:27:50Z</time>
      </trkpt>
      <trkpt lat="47.8366" lon="-3.53472">
        <ele>23</ele>
        <time>2019-07-15T10:27:51Z</time>
      </trkpt>
      <trkpt lat="47.83665" lon="-3.53477">
        <ele>23</ele>
        <time>2019-07-15T10:27:52Z</time>
      </trkpt>
      <trkpt lat="47.8367" lon="-3.53482">
        <ele>23</ele>
        <time>2019-07-15T10:27:53Z</time>
      </trkpt>
      <trkpt lat="47.83675" lon="-3.53487">
        <ele>24</ele>
        <time>2019-07-15T10:27:54Z</time>
      </trkpt>
      <trkpt lat="47.8368" lon="-3.53491">
        <ele>24</ele>
        <time>2019-07-15T10:27:55Z</time>
      </trkpt>
      <trkpt lat="47.83685" lon="-3.53496">
        <ele>24</ele>
        <time>2019-07-15T10:27:56Z</time>
      </trkpt>
      <trkpt lat="47.83688" lon="-3.535">
        <ele>24</ele>
        <time>2019-07-15T10:27:57Z</time>
      </trkpt>
      <trkpt lat="47.83693" lon="-3.53503">
        <ele>24</ele>
        <time>2019-07-15T10:27:58Z</time>
      </trkpt>
      <trkpt lat="47.83697" lon="-3.53507">
        <ele>24</ele>
        <time>2019-07-15T10:27:59Z</time>
      </trkpt>
      <trkpt lat="47.83703" lon="-3.5351">
        <ele>24</ele>
        <time>2019-07-15T10:28:00Z</time>
      </trkpt>
      <trkpt lat="47.83709" lon="-3.53514">
        <ele>24</ele>
        <time>2019-07-15T10:28:01Z</time>
      </trkpt>
      <trkpt lat="47.83716" lon="-3.53517">
        <ele>24</ele>
        <time>2019-07-15T10:28:02Z</time>
      </trkpt>
      <trkpt lat="47.83721" lon="-3.53519">
        <ele>24</ele>
        <time>2019-07-15T10:28:03Z</time>
      </trkpt>
      <trkpt lat="47.83725" lon="-3.5352">
        <ele>24</ele>
        <time>2019-07-15T10:28:04Z</time>
      </trkpt>
      <trkpt lat="47.83729" lon="-3.53522">
        <ele>23</ele>
        <time>2019-07-15T10:28:05Z</time>
      </trkpt>
      <trkpt lat="47.83733" lon="-3.53523">
        <ele>23</ele>
        <time>2019-07-15T10:28:06Z</time>
      </trkpt>
      <trkpt lat="47.83737" lon="-3.53524">
        <ele>23</ele>
        <time>2019-07-15T10:28:07Z</time>
      </trkpt>
      <trkpt lat="47.83742" lon="-3.53525">
        <ele>23</ele>
        <time>2019-07-15T10:28:08Z</time>
      </trkpt>
      <trkpt lat="47.83746" lon="-3.53525">
        <ele>23</ele>
        <time>2019-07-15T10:28:09Z</time>
      </trkpt>
      <trkpt lat="47.8375" lon="-3.53525">
        <ele>23</ele>
        <time>2019-07-15T10:28:10Z</time>
      </trkpt>
      <trkpt lat="47.83753" lon="-3.53525">
        <ele>23</ele>
        <time>2019-07-15T10:28:11Z</time>
      </trkpt>
      <trkpt lat="47.83757" lon="-3.53525">
        <ele>23</ele>
        <time>2019-07-15T10:28:12Z</time>
      </trkpt>
      <trkpt lat="47.8376" lon="-3.53525">
        <ele>23</ele>
        <time>2019-07-15T10:28:13Z</time>
      </trkpt>
      <trkpt lat="47.83763" lon="-3.53525">
        <ele>23</ele>
        <time>2019-07-15T10:28:14Z</time>
      </trkpt>
      <trkpt lat="47.83766" lon="-3.53524">
        <ele>23</ele>
        <time>2019-07-15T10:28:15Z</time>
      </trkpt>
      <trkpt lat="47.8377" lon="-3.53523">
        <ele>23</ele>
        <time>2019-07-15T10:28:16Z</time>
      </trkpt>
      <trkpt lat="47.83774" lon="-3.53522">
        <ele>23</ele>
        <time>2019-07-15T10:28:17Z</time>
      </trkpt>
      <trkpt lat="47.83778" lon="-3.53519">
        <ele>22</ele>
        <time>2019-07-15T10:28:18Z</time>
      </trkpt>
      <trkpt lat="47.83783" lon="-3.53515">
        <ele>22</ele>
        <time>2019-07-15T10:28:19Z</time>
      </trkpt>
      <trkpt lat="47.83787" lon="-3.5351">
        <ele>22</ele>
        <time>2019-07-15T10:28:20Z</time>
      </trkpt>
      <trkpt lat="47.83791" lon="-3.53505">
        <ele>22</ele>
        <time>2019-07-15T10:28:21Z</time>
      </trkpt>
      <trkpt lat="47.83795" lon="-3.53499">
        <ele>22</ele>
        <time>2019-07-15T10:28:22Z</time>
      </trkpt>
      <trkpt lat="47.83798" lon="-3.53494">
        <ele>22</ele>
        <time>2019-07-15T10:28:23Z</time>
      </trkpt>
      <trkpt lat="47.83801" lon="-3.53489">
        <ele>22</ele>
        <time>2019-07-15T10:28:24Z</time>
      </trkpt>
      <trkpt lat="47.83804" lon="-3.53483">
        <ele>22</ele>
        <time>2019-07-15T10:28:25Z</time>
      </trkpt>
      <trkpt lat="47.83807" lon="-3.53478">
        <ele>22</ele>
        <time>2019-07-15T10:28:26Z</time>
      </trkpt>
      <trkpt lat="47.83811" lon="-3.53472">
        <ele>22</ele>
        <time>2019-07-15T10:28:27Z</time>
      </trkpt>
      <trkpt lat="47.83814" lon="-3.53466">
        <ele>22</ele>
        <time>2019-07-15T10:28:28Z</time>
      </trkpt>
      <trkpt lat="47.83819" lon="-3.53458">
        <ele>22</ele>
        <time>2019-07-15T10:28:29Z</time>
      </trkpt>
      <trkpt lat="47.83824" lon="-3.53451">
        <ele>22</ele>
        <time>2019-07-15T10:28:30Z</time>
      </trkpt>
      <trkpt lat="47.83829" lon="-3.53444">
        <ele>22</ele>
        <time>2019-07-15T10:28:31Z</time>
      </trkpt>
      <trkpt lat="47.83834" lon="-3.53439">
        <ele>22</ele>
        <time>2019-07-15T10:28:32Z</time>
      </trkpt>
      <trkpt lat="47.83838" lon="-3.53432">
        <ele>22</ele>
        <time>2019-07-15T10:28:33Z</time>
      </trkpt>
      <trkpt lat="47.83842" lon="-3.53426">
        <ele>22</ele>
        <time>2019-07-15T10:28:34Z</time>
      </trkpt>
      <trkpt lat="47.83846" lon="-3.53417">
        <ele>22</ele>
        <time>2019-07-15T10:28:35Z</time>
      </trkpt>
      <trkpt lat="47.8385" lon="-3.53408">
        <ele>22</ele>
        <time>2019-07-15T10:28:36Z</time>
      </trkpt>
      <trkpt lat="47.83854" lon="-3.53399">
        <ele>22</ele>
        <time>2019-07-15T10:28:37Z</time>
      </trkpt>
      <trkpt lat="47.83858" lon="-3.53391">
        <ele>22</ele>
        <time>2019-07-15T10:28:38Z</time>
      </trkpt>
      <trkpt lat="47.83862" lon="-3.53383">
        <ele>22</ele>
        <time>2019-07-15T10:28:39Z</time>
      </trkpt>
      <trkpt lat="47.83866" lon="-3.53377">
        <ele>22</ele>
        <time>2019-07-15T10:28:40Z</time>
      </trkpt>
      <trkpt lat="47.8387" lon="-3.53372">
        <ele>21</ele>
        <time>2019-07-15T10:28:41Z</time>
      </trkpt>
      <trkpt lat="47.83874" lon="-3.53367">
        <ele>21</ele>
        <time>2019-07-15T10:28:42Z</time>
      </trkpt>
      <trkpt lat="47.83878" lon="-3.53363">
        <ele>21</ele>
        <time>2019-07-15T10:28:43Z</time>
      </trkpt>
      <trkpt lat="47.83882" lon="-3.53359">
        <ele>21</ele>
        <time>2019-07-15T10:28:44Z</time>
      </trkpt>
      <trkpt lat="47.83885" lon="-3.53356">
        <ele>21</ele>
        <time>2019-07-15T10:28:45Z</time>
      </trkpt>
      <trkpt lat="47.83889" lon="-3.53354">
        <ele>21</ele>
        <time>2019-07-15T10:28:46Z</time>
      </trkpt>
      <trkpt lat="47.83892" lon="-3.53351">
        <ele>21</ele>
        <time>2019-07-15T10:28:47Z</time>
      </trkpt>
      <trkpt lat="47.83895" lon="-3.53347">
        <ele>21</ele>
        <time>2019-07-15T10:28:48Z</time>
      </trkpt>
      <trkpt lat="47.83897" lon="-3.53342">
        <ele>21</ele>
        <time>2019-07-15T10:28:49Z</time>
      </trkpt>
      <trkpt lat="47.839" lon="-3.53338">
        <ele>21</ele>
        <time>2019-07-15T10:28:50Z</time>
      </trkpt>
      <trkpt lat="47.83901" lon="-3.53334">
        <ele>21</ele>
        <time>2019-07-15T10:28:51Z</time>
      </trkpt>
      <trkpt lat="47.83902" lon="-3.53331">
        <ele>21</ele>
        <time>2019-07-15T10:28:52Z</time>
      </trkpt>
      <trkpt lat="47.83904" lon="-3.53328">
        <ele>21</ele>
        <time>2019-07-15T10:28:53Z</time>
      </trkpt>
      <trkpt lat="47.83905" lon="-3.53323">
        <ele>21</ele>
        <time>2019-07-15T10:28:54Z</time>
      </trkpt>
      <trkpt lat="47.83907" lon="-3.53319">
        <ele>21</ele>
        <time>2019-07-15T10:28:55Z</time>
      </trkpt>
      <trkpt lat="47.83907" lon="-3.53314">
        <ele>21</ele>
        <time>2019-07-15T10:28:56Z</time>
      </trkpt>
      <trkpt lat="47.83908" lon="-3.53309">
        <ele>21</ele>
        <time>2019-07-15T10:28:57Z</time>
      </trkpt>
      <trkpt lat="47.83909" lon="-3.53305">
        <ele>22</ele>
        <time>2019-07-15T10:28:58Z</time>
      </trkpt>
      <trkpt lat="47.83909" lon="-3.533">
        <ele>22</ele>
        <time>2019-07-15T10:28:59Z</time>
      </trkpt>
      <trkpt lat="47.83909" lon="-3.53295">
        <ele>22</ele>
        <time>2019-07-15T10:29:00Z</time>
      </trkpt>
      <trkpt lat="47.83909" lon="-3.5329">
        <ele>22</ele>
        <time>2019-07-15T10:29:01Z</time>
      </trkpt>
      <trkpt lat="47.8391" lon="-3.53286">
        <ele>22</ele>
        <time>2019-07-15T10:29:02Z</time>
      </trkpt>
      <trkpt lat="47.8391" lon="-3.53282">
        <ele>22</ele>
        <time>2019-07-15T10:29:03Z</time>
      </trkpt>
      <trkpt lat="47.83911" lon="-3.53277">
        <ele>22</ele>
        <time>2019-07-15T10:29:04Z</time>
      </trkpt>
      <trkpt lat="47.83912" lon="-3.53273">
        <ele>23</ele>
        <time>2019-07-15T10:29:05Z</time>
      </trkpt>
      <trkpt lat="47.83912" lon="-3.53269">
        <ele>23</ele>
        <time>2019-07-15T10:29:06Z</time>
      </trkpt>
      <trkpt lat="47.83913" lon="-3.53265">
        <ele>23</ele>
        <time>2019-07-15T10:29:07Z</time>
      </trkpt>
      <trkpt lat="47.83914" lon="-3.5326">
        <ele>23</ele>
        <time>2019-07-15T10:29:08Z</time>
      </trkpt>
      <trkpt lat="47.83914" lon="-3.53257">
        <ele>23</ele>
        <time>2019-07-15T10:29:09Z</time>
      </trkpt>
      <trkpt lat="47.83914" lon="-3.53256">
        <ele>24</ele>
        <time>2019-07-15T10:29:10Z</time>
      </trkpt>
      <trkpt lat="47.83914" lon="-3.53255">
        <ele>24</ele>
        <time>2019-07-15T10:29:11Z</time>
      </trkpt>
      <trkpt lat="47.83915" lon="-3.53254">
        <ele>24</ele>
        <time>2019-07-15T10:29:12Z</time>
      </trkpt>
      <trkpt lat="47.83915" lon="-3.53254">
        <ele>24</ele>
        <time>2019-07-15T10:29:13Z</time>
      </trkpt>
      <trkpt lat="47.83911" lon="-3.53241">
        <ele>29</ele>
        <time>2019-07-15T10:29:14Z</time>
      </trkpt>
      <trkpt lat="47.83911" lon="-3.53239">
        <ele>29</ele>
        <time>2019-07-15T10:29:15Z</time>
      </trkpt>
      <trkpt lat="47.8391" lon="-3.53238">
        <ele>29</ele>
        <time>2019-07-15T10:29:16Z</time>
      </trkpt>
      <trkpt lat="47.8391" lon="-3.53237">
        <ele>30</ele>
        <time>2019-07-15T10:29:17Z</time>
      </trkpt>
      <trkpt lat="47.83911" lon="-3.53235">
        <ele>30</ele>
        <time>2019-07-15T10:29:18Z</time>
      </trkpt>
      <trkpt lat="47.83911" lon="-3.53233">
        <ele>30</ele>
        <time>2019-07-15T10:29:19Z</time>
      </trkpt>
      <trkpt lat="47.83912" lon="-3.53231">
        <ele>30</ele>
        <time>2019-07-15T10:29:20Z</time>
      </trkpt>
      <trkpt lat="47.83913" lon="-3.5323">
        <ele>31</ele>
        <time>2019-07-15T10:29:21Z</time>
      </trkpt>
      <trkpt lat="47.83914" lon="-3.53228">
        <ele>31</ele>
        <time>2019-07-15T10:29:22Z</time>
      </trkpt>
      <trkpt lat="47.83915" lon="-3.53226">
        <ele>31</ele>
        <time>2019-07-15T10:29:23Z</time>
      </trkpt>
      <trkpt lat="47.83916" lon="-3.53224">
        <ele>31</ele>
        <time>2019-07-15T10:29:24Z</time>
      </trkpt>
      <trkpt lat="47.83917" lon="-3.53223">
        <ele>31</ele>
        <time>2019-07-15T10:29:25Z</time>
      </trkpt>
      <trkpt lat="47.83917" lon="-3.53222">
        <ele>32</ele>
        <time>2019-07-15T10:29:26Z</time>
      </trkpt>
      <trkpt lat="47.83917" lon="-3.53222">
        <ele>32</ele>
        <time>2019-07-15T10:29:27Z</time>
      </trkpt>
      <trkpt lat="47.83917" lon="-3.53222">
        <ele>32</ele>
        <time>2019-07-15T10:29:28Z</time>
      </trkpt>
      <trkpt lat="47.83916" lon="-3.53221">
        <ele>32</ele>
        <time>2019-07-15T10:29:29Z</time>
      </trkpt>
      <trkpt lat="47.83918" lon="-3.53214">
        <ele>33</ele>
        <time>2019-07-15T10:29:30Z</time>
      </trkpt>
      <trkpt lat="47.83919" lon="-3.53214">
        <ele>33</ele>
        <time>2019-07-15T10:29:31Z</time>
      </trkpt>
      <trkpt lat="47.8392" lon="-3.53214">
        <ele>33</ele>
        <time>2019-07-15T10:29:32Z</time>
      </trkpt>
      <trkpt lat="47.83921" lon="-3.53213">
        <ele>33</ele>
        <time>2019-07-15T10:29:33Z</time>
      </trkpt>
      <trkpt lat="47.83924" lon="-3.53212">
        <ele>33</ele>
        <time>2019-07-15T10:29:34Z</time>
      </trkpt>
      <trkpt lat="47.83926" lon="-3.53211">
        <ele>33</ele>
        <time>2019-07-15T10:29:35Z</time>
      </trkpt>
      <trkpt lat="47.83929" lon="-3.5321">
        <ele>33</ele>
        <time>2019-07-15T10:29:36Z</time>
      </trkpt>
      <trkpt lat="47.83931" lon="-3.5321">
        <ele>33</ele>
        <time>2019-07-15T10:29:37Z</time>
      </trkpt>
      <trkpt lat="47.83935" lon="-3.5321">
        <ele>33</ele>
        <time>2019-07-15T10:29:38Z</time>
      </trkpt>
      <trkpt lat="47.83939" lon="-3.53211">
        <ele>33</ele>
        <time>2019-07-15T10:29:39Z</time>
      </trkpt>
      <trkpt lat="47.83944" lon="-3.53212">
        <ele>33</ele>
        <time>2019-07-15T10:29:40Z</time>
      </trkpt>
      <trkpt lat="47.8395" lon="-3.53214">
        <ele>33</ele>
        <time>2019-07-15T10:29:41Z</time>
      </trkpt>
      <trkpt lat="47.83956" lon="-3.53216">
        <ele>33</ele>
        <time>2019-07-15T10:29:42Z</time>
      </trkpt>
      <trkpt lat="47.83962" lon="-3.53218">
        <ele>33</ele>
        <time>2019-07-15T10:29:43Z</time>
      </trkpt>
      <trkpt lat="47.83968" lon="-3.53219">
        <ele>33</ele>
        <time>2019-07-15T10:29:44Z</time>
      </trkpt>
      <trkpt lat="47.83974" lon="-3.5322">
        <ele>33</ele>
        <time>2019-07-15T10:29:45Z</time>
      </trkpt>
      <trkpt lat="47.83979" lon="-3.53219">
        <ele>33</ele>
        <time>2019-07-15T10:29:46Z</time>
      </trkpt>
      <trkpt lat="47.83983" lon="-3.53215">
        <ele>33</ele>
        <time>2019-07-15T10:29:47Z</time>
      </trkpt>
      <trkpt lat="47.83986" lon="-3.5321">
        <ele>32</ele>
        <time>2019-07-15T10:29:48Z</time>
      </trkpt>
      <trkpt lat="47.83989" lon="-3.53204">
        <ele>32</ele>
        <time>2019-07-15T10:29:49Z</time>
      </trkpt>
      <trkpt lat="47.83992" lon="-3.53199">
        <ele>32</ele>
        <time>2019-07-15T10:29:50Z</time>
      </trkpt>
      <trkpt lat="47.83995" lon="-3.53193">
        <ele>32</ele>
        <time>2019-07-15T10:29:51Z</time>
      </trkpt>
      <trkpt lat="47.83998" lon="-3.53188">
        <ele>31</ele>
        <time>2019-07-15T10:29:52Z</time>
      </trkpt>
      <trkpt lat="47.84" lon="-3.53183">
        <ele>31</ele>
        <time>2019-07-15T10:29:53Z</time>
      </trkpt>
      <trkpt lat="47.84002" lon="-3.53178">
        <ele>31</ele>
        <time>2019-07-15T10:29:54Z</time>
      </trkpt>
      <trkpt lat="47.84003" lon="-3.53174">
        <ele>31</ele>
        <time>2019-07-15T10:29:55Z</time>
      </trkpt>
      <trkpt lat="47.84004" lon="-3.53171">
        <ele>31</ele>
        <time>2019-07-15T10:29:56Z</time>
      </trkpt>
      <trkpt lat="47.84006" lon="-3.53167">
        <ele>31</ele>
        <time>2019-07-15T10:29:57Z</time>
      </trkpt>
      <trkpt lat="47.84008" lon="-3.53162">
        <ele>30</ele>
        <time>2019-07-15T10:29:58Z</time>
      </trkpt>
      <trkpt lat="47.8401" lon="-3.53156">
        <ele>30</ele>
        <time>2019-07-15T10:29:59Z</time>
      </trkpt>
      <trkpt lat="47.84012" lon="-3.53149">
        <ele>30</ele>
        <time>2019-07-15T10:30:00Z</time>
      </trkpt>
      <trkpt lat="47.84013" lon="-3.53143">
        <ele>30</ele>
        <time>2019-07-15T10:30:01Z</time>
      </trkpt>
      <trkpt lat="47.84015" lon="-3.53136">
        <ele>29</ele>
        <time>2019-07-15T10:30:02Z</time>
      </trkpt>
      <trkpt lat="47.84017" lon="-3.5313">
        <ele>29</ele>
        <time>2019-07-15T10:30:03Z</time>
      </trkpt>
      <trkpt lat="47.84019" lon="-3.53124">
        <ele>29</ele>
        <time>2019-07-15T10:30:04Z</time>
      </trkpt>
      <trkpt lat="47.84021" lon="-3.53118">
        <ele>29</ele>
        <time>2019-07-15T10:30:05Z</time>
      </trkpt>
      <trkpt lat="47.84024" lon="-3.53113">
        <ele>29</ele>
        <time>2019-07-15T10:30:06Z</time>
      </trkpt>
      <trkpt lat="47.84027" lon="-3.53109">
        <ele>29</ele>
        <time>2019-07-15T10:30:07Z</time>
      </trkpt>
      <trkpt lat="47.8403" lon="-3.53104">
        <ele>29</ele>
        <time>2019-07-15T10:30:08Z</time>
      </trkpt>
      <trkpt lat="47.84034" lon="-3.53099">
        <ele>28</ele>
        <time>2019-07-15T10:30:09Z</time>
      </trkpt>
      <trkpt lat="47.84037" lon="-3.53094">
        <ele>28</ele>
        <time>2019-07-15T10:30:10Z</time>
      </trkpt>
      <trkpt lat="47.84041" lon="-3.53089">
        <ele>28</ele>
        <time>2019-07-15T10:30:11Z</time>
      </trkpt>
      <trkpt lat="47.84044" lon="-3.53084">
        <ele>28</ele>
        <time>2019-07-15T10:30:12Z</time>
      </trkpt>
      <trkpt lat="47.84048" lon="-3.53079">
        <ele>28</ele>
        <time>2019-07-15T10:30:13Z</time>
      </trkpt>
      <trkpt lat="47.84052" lon="-3.53074">
        <ele>28</ele>
        <time>2019-07-15T10:30:14Z</time>
      </trkpt>
      <trkpt lat="47.84055" lon="-3.53069">
        <ele>28</ele>
        <time>2019-07-15T10:30:15Z</time>
      </trkpt>
      <trkpt lat="47.84059" lon="-3.53063">
        <ele>28</ele>
        <time>2019-07-15T10:30:16Z</time>
      </trkpt>
      <trkpt lat="47.84064" lon="-3.53057">
        <ele>28</ele>
        <time>2019-07-15T10:30:17Z</time>
      </trkpt>
      <trkpt lat="47.84068" lon="-3.53052">
        <ele>28</ele>
        <time>2019-07-15T10:30:18Z</time>
      </trkpt>
      <trkpt lat="47.84071" lon="-3.53046">
        <ele>28</ele>
        <time>2019-07-15T10:30:19Z</time>
      </trkpt>
      <trkpt lat="47.84075" lon="-3.53042">
        <ele>28</ele>
        <time>2019-07-15T10:30:20Z</time>
      </trkpt>
      <trkpt lat="47.84079" lon="-3.53037">
        <ele>28</ele>
        <time>2019-07-15T10:30:21Z</time>
      </trkpt>
      <trkpt lat="47.84082" lon="-3.53034">
        <ele>28</ele>
        <time>2019-07-15T10:30:22Z</time>
      </trkpt>
      <trkpt lat="47.84084" lon="-3.5303">
        <ele>28</ele>
        <time>2019-07-15T10:30:23Z</time>
      </trkpt>
      <trkpt lat="47.84087" lon="-3.53027">
        <ele>28</ele>
        <time>2019-07-15T10:30:24Z</time>
      </trkpt>
      <trkpt lat="47.8409" lon="-3.53023">
        <ele>28</ele>
        <time>2019-07-15T10:30:25Z</time>
      </trkpt>
      <trkpt lat="47.84093" lon="-3.5302">
        <ele>28</ele>
        <time>2019-07-15T10:30:26Z</time>
      </trkpt>
      <trkpt lat="47.84096" lon="-3.53016">
        <ele>28</ele>
        <time>2019-07-15T10:30:27Z</time>
      </trkpt>
      <trkpt lat="47.84099" lon="-3.53012">
        <ele>28</ele>
        <time>2019-07-15T10:30:28Z</time>
      </trkpt>
      <trkpt lat="47.84103" lon="-3.53008">
        <ele>28</ele>
        <time>2019-07-15T10:30:29Z</time>
      </trkpt>
      <trkpt lat="47.84107" lon="-3.53004">
        <ele>28</ele>
        <time>2019-07-15T10:30:30Z</time>
      </trkpt>
      <trkpt lat="47.8411" lon="-3.53">
        <ele>27</ele>
        <time>2019-07-15T10:30:31Z</time>
      </trkpt>
      <trkpt lat="47.84114" lon="-3.52995">
        <ele>27</ele>
        <time>2019-07-15T10:30:32Z</time>
      </trkpt>
      <trkpt lat="47.84118" lon="-3.52991">
        <ele>27</ele>
        <time>2019-07-15T10:30:33Z</time>
      </trkpt>
      <trkpt lat="47.84121" lon="-3.52987">
        <ele>27</ele>
        <time>2019-07-15T10:30:34Z</time>
      </trkpt>
      <trkpt lat="47.84124" lon="-3.52983">
        <ele>27</ele>
        <time>2019-07-15T10:30:35Z</time>
      </trkpt>
      <trkpt lat="47.84127" lon="-3.52979">
        <ele>27</ele>
        <time>2019-07-15T10:30:36Z</time>
      </trkpt>
      <trkpt lat="47.8413" lon="-3.52974">
        <ele>27</ele>
        <time>2019-07-15T10:30:37Z</time>
      </trkpt>
      <trkpt lat="47.84134" lon="-3.52969">
        <ele>27</ele>
        <time>2019-07-15T10:30:38Z</time>
      </trkpt>
      <trkpt lat="47.84136" lon="-3.52964">
        <ele>27</ele>
        <time>2019-07-15T10:30:39Z</time>
      </trkpt>
      <trkpt lat="47.8414" lon="-3.52959">
        <ele>27</ele>
        <time>2019-07-15T10:30:40Z</time>
      </trkpt>
      <trkpt lat="47.84143" lon="-3.52954">
        <ele>27</ele>
        <time>2019-07-15T10:30:41Z</time>
      </trkpt>
      <trkpt lat="47.84148" lon="-3.52948">
        <ele>27</ele>
        <time>2019-07-15T10:30:42Z</time>
      </trkpt>
      <trkpt lat="47.84152" lon="-3.52942">
        <ele>27</ele>
        <time>2019-07-15T10:30:43Z</time>
      </trkpt>
      <trkpt lat="47.84157" lon="-3.52936">
        <ele>27</ele>
        <time>2019-07-15T10:30:44Z</time>
      </trkpt>
      <trkpt lat="47.84162" lon="-3.52931">
        <ele>27</ele>
        <time>2019-07-15T10:30:45Z</time>
      </trkpt>
      <trkpt lat="47.84166" lon="-3.52927">
        <ele>27</ele>
        <time>2019-07-15T10:30:46Z</time>
      </trkpt>
      <trkpt lat="47.8417" lon="-3.52922">
        <ele>27</ele>
        <time>2019-07-15T10:30:47Z</time>
      </trkpt>
      <trkpt lat="47.84174" lon="-3.52917">
        <ele>27</ele>
        <time>2019-07-15T10:30:48Z</time>
      </trkpt>
      <trkpt lat="47.84178" lon="-3.52913">
        <ele>27</ele>
        <time>2019-07-15T10:30:49Z</time>
      </trkpt>
      <trkpt lat="47.84181" lon="-3.52907">
        <ele>27</ele>
        <time>2019-07-15T10:30:50Z</time>
      </trkpt>
      <trkpt lat="47.84184" lon="-3.52902">
        <ele>27</ele>
        <time>2019-07-15T10:30:51Z</time>
      </trkpt>
      <trkpt lat="47.84188" lon="-3.52897">
        <ele>27</ele>
        <time>2019-07-15T10:30:52Z</time>
      </trkpt>
      <trkpt lat="47.8419" lon="-3.52892">
        <ele>27</ele>
        <time>2019-07-15T10:30:53Z</time>
      </trkpt>
      <trkpt lat="47.84193" lon="-3.52886">
        <ele>27</ele>
        <time>2019-07-15T10:30:54Z</time>
      </trkpt>
      <trkpt lat="47.84195" lon="-3.52881">
        <ele>27</ele>
        <time>2019-07-15T10:30:55Z</time>
      </trkpt>
      <trkpt lat="47.84197" lon="-3.52876">
        <ele>27</ele>
        <time>2019-07-15T10:30:56Z</time>
      </trkpt>
      <trkpt lat="47.84199" lon="-3.52872">
        <ele>27</ele>
        <time>2019-07-15T10:30:57Z</time>
      </trkpt>
      <trkpt lat="47.84201" lon="-3.52868">
        <ele>27</ele>
        <time>2019-07-15T10:30:58Z</time>
      </trkpt>
      <trkpt lat="47.84203" lon="-3.52863">
        <ele>27</ele>
        <time>2019-07-15T10:30:59Z</time>
      </trkpt>
      <trkpt lat="47.84204" lon="-3.52858">
        <ele>27</ele>
        <time>2019-07-15T10:31:00Z</time>
      </trkpt>
      <trkpt lat="47.84206" lon="-3.52853">
        <ele>27</ele>
        <time>2019-07-15T10:31:01Z</time>
      </trkpt>
      <trkpt lat="47.84207" lon="-3.52849">
        <ele>27</ele>
        <time>2019-07-15T10:31:02Z</time>
      </trkpt>
      <trkpt lat="47.84208" lon="-3.52845">
        <ele>27</ele>
        <time>2019-07-15T10:31:03Z</time>
      </trkpt>
      <trkpt lat="47.84209" lon="-3.52841">
        <ele>27</ele>
        <time>2019-07-15T10:31:04Z</time>
      </trkpt>
      <trkpt lat="47.84211" lon="-3.52837">
        <ele>27</ele>
        <time>2019-07-15T10:31:05Z</time>
      </trkpt>
      <trkpt lat="47.84213" lon="-3.52833">
        <ele>27</ele>
        <time>2019-07-15T10:31:06Z</time>
      </trkpt>
      <trkpt lat="47.84215" lon="-3.5283">
        <ele>26</ele>
        <time>2019-07-15T10:31:07Z</time>
      </trkpt>
      <trkpt lat="47.84216" lon="-3.52827">
        <ele>26</ele>
        <time>2019-07-15T10:31:08Z</time>
      </trkpt>
      <trkpt lat="47.84217" lon="-3.52824">
        <ele>26</ele>
        <time>2019-07-15T10:31:09Z</time>
      </trkpt>
      <trkpt lat="47.84218" lon="-3.5282">
        <ele>26</ele>
        <time>2019-07-15T10:31:10Z</time>
      </trkpt>
      <trkpt lat="47.84218" lon="-3.52817">
        <ele>26</ele>
        <time>2019-07-15T10:31:11Z</time>
      </trkpt>
      <trkpt lat="47.84219" lon="-3.52814">
        <ele>26</ele>
        <time>2019-07-15T10:31:12Z</time>
      </trkpt>
      <trkpt lat="47.84219" lon="-3.52812">
        <ele>26</ele>
        <time>2019-07-15T10:31:13Z</time>
      </trkpt>
      <trkpt lat="47.8422" lon="-3.52809">
        <ele>26</ele>
        <time>2019-07-15T10:31:14Z</time>
      </trkpt>
      <trkpt lat="47.84221" lon="-3.52807">
        <ele>25</ele>
        <time>2019-07-15T10:31:15Z</time>
      </trkpt>
      <trkpt lat="47.84221" lon="-3.52805">
        <ele>25</ele>
        <time>2019-07-15T10:31:16Z</time>
      </trkpt>
      <trkpt lat="47.84221" lon="-3.52802">
        <ele>25</ele>
        <time>2019-07-15T10:31:17Z</time>
      </trkpt>
      <trkpt lat="47.84222" lon="-3.528">
        <ele>25</ele>
        <time>2019-07-15T10:31:18Z</time>
      </trkpt>
      <trkpt lat="47.84222" lon="-3.52797">
        <ele>25</ele>
        <time>2019-07-15T10:31:19Z</time>
      </trkpt>
      <trkpt lat="47.84222" lon="-3.52795">
        <ele>25</ele>
        <time>2019-07-15T10:31:20Z</time>
      </trkpt>
      <trkpt lat="47.84221" lon="-3.52792">
        <ele>25</ele>
        <time>2019-07-15T10:31:21Z</time>
      </trkpt>
      <trkpt lat="47.84221" lon="-3.5279">
        <ele>25</ele>
        <time>2019-07-15T10:31:22Z</time>
      </trkpt>
      <trkpt lat="47.84222" lon="-3.52786">
        <ele>25</ele>
        <time>2019-07-15T10:31:23Z</time>
      </trkpt>
      <trkpt lat="47.84222" lon="-3.52783">
        <ele>25</ele>
        <time>2019-07-15T10:31:24Z</time>
      </trkpt>
      <trkpt lat="47.84223" lon="-3.5278">
        <ele>25</ele>
        <time>2019-07-15T10:31:25Z</time>
      </trkpt>
      <trkpt lat="47.84223" lon="-3.52777">
        <ele>25</ele>
        <time>2019-07-15T10:31:26Z</time>
      </trkpt>
      <trkpt lat="47.84224" lon="-3.52774">
        <ele>25</ele>
        <time>2019-07-15T10:31:27Z</time>
      </trkpt>
      <trkpt lat="47.84224" lon="-3.52772">
        <ele>25</ele>
        <time>2019-07-15T10:31:28Z</time>
      </trkpt>
      <trkpt lat="47.84225" lon="-3.5277">
        <ele>25</ele>
        <time>2019-07-15T10:31:29Z</time>
      </trkpt>
      <trkpt lat="47.84226" lon="-3.52767">
        <ele>25</ele>
        <time>2019-07-15T10:31:30Z</time>
      </trkpt>
      <trkpt lat="47.84226" lon="-3.52764">
        <ele>26</ele>
        <time>2019-07-15T10:31:31Z</time>
      </trkpt>
      <trkpt lat="47.84227" lon="-3.5276">
        <ele>26</ele>
        <time>2019-07-15T10:31:32Z</time>
      </trkpt>
      <trkpt lat="47.84229" lon="-3.52755">
        <ele>26</ele>
        <time>2019-07-15T10:31:33Z</time>
      </trkpt>
      <trkpt lat="47.8423" lon="-3.5275">
        <ele>26</ele>
        <time>2019-07-15T10:31:34Z</time>
      </trkpt>
      <trkpt lat="47.84232" lon="-3.52743">
        <ele>26</ele>
        <time>2019-07-15T10:31:35Z</time>
      </trkpt>
      <trkpt lat="47.84234" lon="-3.52735">
        <ele>26</ele>
        <time>2019-07-15T10:31:36Z</time>
      </trkpt>
      <trkpt lat="47.84237" lon="-3.52726">
        <ele>27</ele>
        <time>2019-07-15T10:31:37Z</time>
      </trkpt>
      <trkpt lat="47.8424" lon="-3.52717">
        <ele>27</ele>
        <time>2019-07-15T10:31:38Z</time>
      </trkpt>
      <trkpt lat="47.84243" lon="-3.52709">
        <ele>27</ele>
        <time>2019-07-15T10:31:39Z</time>
      </trkpt>
      <trkpt lat="47.84246" lon="-3.52702">
        <ele>27</ele>
        <time>2019-07-15T10:31:40Z</time>
      </trkpt>
      <trkpt lat="47.84249" lon="-3.52695">
        <ele>27</ele>
        <time>2019-07-15T10:31:41Z</time>
      </trkpt>
      <trkpt lat="47.84252" lon="-3.52689">
        <ele>27</ele>
        <time>2019-07-15T10:31:42Z</time>
      </trkpt>
      <trkpt lat="47.84255" lon="-3.52682">
        <ele>28</ele>
        <time>2019-07-15T10:31:43Z</time>
      </trkpt>
      <trkpt lat="47.84259" lon="-3.52675">
        <ele>28</ele>
        <time>2019-07-15T10:31:44Z</time>
      </trkpt>
      <trkpt lat="47.84262" lon="-3.52667">
        <ele>28</ele>
        <time>2019-07-15T10:31:45Z</time>
      </trkpt>
      <trkpt lat="47.84266" lon="-3.52658">
        <ele>28</ele>
        <time>2019-07-15T10:31:46Z</time>
      </trkpt>
      <trkpt lat="47.84269" lon="-3.52651">
        <ele>28</ele>
        <time>2019-07-15T10:31:47Z</time>
      </trkpt>
      <trkpt lat="47.84273" lon="-3.52644">
        <ele>28</ele>
        <time>2019-07-15T10:31:48Z</time>
      </trkpt>
      <trkpt lat="47.84278" lon="-3.52637">
        <ele>28</ele>
        <time>2019-07-15T10:31:49Z</time>
      </trkpt>
      <trkpt lat="47.84282" lon="-3.52629">
        <ele>29</ele>
        <time>2019-07-15T10:31:50Z</time>
      </trkpt>
      <trkpt lat="47.84287" lon="-3.52621">
        <ele>29</ele>
        <time>2019-07-15T10:31:51Z</time>
      </trkpt>
      <trkpt lat="47.84291" lon="-3.52614">
        <ele>29</ele>
        <time>2019-07-15T10:31:52Z</time>
      </trkpt>
      <trkpt lat="47.84293" lon="-3.52606">
        <ele>29</ele>
        <time>2019-07-15T10:31:53Z</time>
      </trkpt>
      <trkpt lat="47.84295" lon="-3.526">
        <ele>29</ele>
        <time>2019-07-15T10:31:54Z</time>
      </trkpt>
      <trkpt lat="47.84297" lon="-3.52593">
        <ele>29</ele>
        <time>2019-07-15T10:31:55Z</time>
      </trkpt>
      <trkpt lat="47.84298" lon="-3.52588">
        <ele>29</ele>
        <time>2019-07-15T10:31:56Z</time>
      </trkpt>
      <trkpt lat="47.84299" lon="-3.52583">
        <ele>29</ele>
        <time>2019-07-15T10:31:57Z</time>
      </trkpt>
      <trkpt lat="47.84299" lon="-3.52579">
        <ele>30</ele>
        <time>2019-07-15T10:31:58Z</time>
      </trkpt>
      <trkpt lat="47.84299" lon="-3.52575">
        <ele>30</ele>
        <time>2019-07-15T10:31:59Z</time>
      </trkpt>
      <trkpt lat="47.84299" lon="-3.52571">
        <ele>30</ele>
        <time>2019-07-15T10:32:00Z</time>
      </trkpt>
      <trkpt lat="47.84299" lon="-3.52566">
        <ele>30</ele>
        <time>2019-07-15T10:32:01Z</time>
      </trkpt>
      <trkpt lat="47.84299" lon="-3.52562">
        <ele>30</ele>
        <time>2019-07-15T10:32:02Z</time>
      </trkpt>
      <trkpt lat="47.84299" lon="-3.52557">
        <ele>30</ele>
        <time>2019-07-15T10:32:03Z</time>
      </trkpt>
      <trkpt lat="47.843" lon="-3.52552">
        <ele>29</ele>
        <time>2019-07-15T10:32:04Z</time>
      </trkpt>
      <trkpt lat="47.84299" lon="-3.52547">
        <ele>29</ele>
        <time>2019-07-15T10:32:05Z</time>
      </trkpt>
      <trkpt lat="47.84298" lon="-3.52542">
        <ele>29</ele>
        <time>2019-07-15T10:32:06Z</time>
      </trkpt>
      <trkpt lat="47.84297" lon="-3.52538">
        <ele>29</ele>
        <time>2019-07-15T10:32:07Z</time>
      </trkpt>
      <trkpt lat="47.84295" lon="-3.52534">
        <ele>29</ele>
        <time>2019-07-15T10:32:08Z</time>
      </trkpt>
      <trkpt lat="47.84294" lon="-3.52529">
        <ele>29</ele>
        <time>2019-07-15T10:32:09Z</time>
      </trkpt>
      <trkpt lat="47.84292" lon="-3.52525">
        <ele>29</ele>
        <time>2019-07-15T10:32:10Z</time>
      </trkpt>
      <trkpt lat="47.84289" lon="-3.52522">
        <ele>29</ele>
        <time>2019-07-15T10:32:11Z</time>
      </trkpt>
      <trkpt lat="47.84287" lon="-3.52519">
        <ele>28</ele>
        <time>2019-07-15T10:32:12Z</time>
      </trkpt>
      <trkpt lat="47.84285" lon="-3.52514">
        <ele>28</ele>
        <time>2019-07-15T10:32:13Z</time>
      </trkpt>
      <trkpt lat="47.84284" lon="-3.5251">
        <ele>28</ele>
        <time>2019-07-15T10:32:14Z</time>
      </trkpt>
      <trkpt lat="47.84282" lon="-3.52505">
        <ele>28</ele>
        <time>2019-07-15T10:32:15Z</time>
      </trkpt>
      <trkpt lat="47.84281" lon="-3.52502">
        <ele>28</ele>
        <time>2019-07-15T10:32:16Z</time>
      </trkpt>
      <trkpt lat="47.84279" lon="-3.52498">
        <ele>28</ele>
        <time>2019-07-15T10:32:17Z</time>
      </trkpt>
      <trkpt lat="47.84277" lon="-3.52495">
        <ele>27</ele>
        <time>2019-07-15T10:32:18Z</time>
      </trkpt>
      <trkpt lat="47.84275" lon="-3.52491">
        <ele>27</ele>
        <time>2019-07-15T10:32:19Z</time>
      </trkpt>
      <trkpt lat="47.84273" lon="-3.52486">
        <ele>27</ele>
        <time>2019-07-15T10:32:20Z</time>
      </trkpt>
      <trkpt lat="47.84272" lon="-3.52482">
        <ele>27</ele>
        <time>2019-07-15T10:32:21Z</time>
      </trkpt>
      <trkpt lat="47.8427" lon="-3.52478">
        <ele>27</ele>
        <time>2019-07-15T10:32:22Z</time>
      </trkpt>
      <trkpt lat="47.84268" lon="-3.52475">
        <ele>27</ele>
        <time>2019-07-15T10:32:23Z</time>
      </trkpt>
      <trkpt lat="47.84266" lon="-3.52473">
        <ele>27</ele>
        <time>2019-07-15T10:32:24Z</time>
      </trkpt>
      <trkpt lat="47.84264" lon="-3.52471">
        <ele>27</ele>
        <time>2019-07-15T10:32:25Z</time>
      </trkpt>
      <trkpt lat="47.84261" lon="-3.52468">
        <ele>27</ele>
        <time>2019-07-15T10:32:26Z</time>
      </trkpt>
      <trkpt lat="47.84259" lon="-3.52467">
        <ele>27</ele>
        <time>2019-07-15T10:32:27Z</time>
      </trkpt>
      <trkpt lat="47.84257" lon="-3.52466">
        <ele>26</ele>
        <time>2019-07-15T10:32:28Z</time>
      </trkpt>
      <trkpt lat="47.84254" lon="-3.52465">
        <ele>26</ele>
        <time>2019-07-15T10:32:29Z</time>
      </trkpt>
      <trkpt lat="47.84252" lon="-3.52463">
        <ele>26</ele>
        <time>2019-07-15T10:32:30Z</time>
      </trkpt>
      <trkpt lat="47.84251" lon="-3.52461">
        <ele>26</ele>
        <time>2019-07-15T10:32:31Z</time>
      </trkpt>
      <trkpt lat="47.84249" lon="-3.52459">
        <ele>26</ele>
        <time>2019-07-15T10:32:32Z</time>
      </trkpt>
      <trkpt lat="47.84246" lon="-3.52459">
        <ele>26</ele>
        <time>2019-07-15T10:32:33Z</time>
      </trkpt>
      <trkpt lat="47.84245" lon="-3.52457">
        <ele>26</ele>
        <time>2019-07-15T10:32:34Z</time>
      </trkpt>
      <trkpt lat="47.84243" lon="-3.52455">
        <ele>26</ele>
        <time>2019-07-15T10:32:35Z</time>
      </trkpt>
      <trkpt lat="47.84241" lon="-3.52453">
        <ele>26</ele>
        <time>2019-07-15T10:32:36Z</time>
      </trkpt>
      <trkpt lat="47.84238" lon="-3.52452">
        <ele>26</ele>
        <time>2019-07-15T10:32:37Z</time>
      </trkpt>
      <trkpt lat="47.84236" lon="-3.52451">
        <ele>26</ele>
        <time>2019-07-15T10:32:38Z</time>
      </trkpt>
      <trkpt lat="47.84234" lon="-3.52449">
        <ele>26</ele>
        <time>2019-07-15T10:32:39Z</time>
      </trkpt>
      <trkpt lat="47.84232" lon="-3.52448">
        <ele>26</ele>
        <time>2019-07-15T10:32:40Z</time>
      </trkpt>
      <trkpt lat="47.8423" lon="-3.52447">
        <ele>26</ele>
        <time>2019-07-15T10:32:41Z</time>
      </trkpt>
      <trkpt lat="47.84228" lon="-3.52446">
        <ele>26</ele>
        <time>2019-07-15T10:32:42Z</time>
      </trkpt>
      <trkpt lat="47.84225" lon="-3.52445">
        <ele>26</ele>
        <time>2019-07-15T10:32:43Z</time>
      </trkpt>
      <trkpt lat="47.84222" lon="-3.52444">
        <ele>25</ele>
        <time>2019-07-15T10:32:44Z</time>
      </trkpt>
      <trkpt lat="47.8422" lon="-3.52443">
        <ele>25</ele>
        <time>2019-07-15T10:32:45Z</time>
      </trkpt>
      <trkpt lat="47.84218" lon="-3.52442">
        <ele>25</ele>
        <time>2019-07-15T10:32:46Z</time>
      </trkpt>
      <trkpt lat="47.84216" lon="-3.5244">
        <ele>25</ele>
        <time>2019-07-15T10:32:47Z</time>
      </trkpt>
      <trkpt lat="47.84214" lon="-3.5244">
        <ele>25</ele>
        <time>2019-07-15T10:32:48Z</time>
      </trkpt>
      <trkpt lat="47.84211" lon="-3.52439">
        <ele>25</ele>
        <time>2019-07-15T10:32:49Z</time>
      </trkpt>
      <trkpt lat="47.84209" lon="-3.52438">
        <ele>24</ele>
        <time>2019-07-15T10:32:50Z</time>
      </trkpt>
      <trkpt lat="47.84207" lon="-3.52437">
        <ele>24</ele>
        <time>2019-07-15T10:32:51Z</time>
      </trkpt>
      <trkpt lat="47.84205" lon="-3.52436">
        <ele>24</ele>
        <time>2019-07-15T10:32:52Z</time>
      </trkpt>
      <trkpt lat="47.84204" lon="-3.52435">
        <ele>24</ele>
        <time>2019-07-15T10:32:53Z</time>
      </trkpt>
      <trkpt lat="47.84202" lon="-3.52434">
        <ele>25</ele>
        <time>2019-07-15T10:32:54Z</time>
      </trkpt>
      <trkpt lat="47.84201" lon="-3.52434">
        <ele>25</ele>
        <time>2019-07-15T10:32:55Z</time>
      </trkpt>
      <trkpt lat="47.842" lon="-3.52432">
        <ele>25</ele>
        <time>2019-07-15T10:32:56Z</time>
      </trkpt>
      <trkpt lat="47.84198" lon="-3.52431">
        <ele>25</ele>
        <time>2019-07-15T10:32:57Z</time>
      </trkpt>
      <trkpt lat="47.84196" lon="-3.52429">
        <ele>25</ele>
        <time>2019-07-15T10:32:58Z</time>
      </trkpt>
      <trkpt lat="47.84194" lon="-3.52426">
        <ele>25</ele>
        <time>2019-07-15T10:32:59Z</time>
      </trkpt>
      <trkpt lat="47.84192" lon="-3.52424">
        <ele>25</ele>
        <time>2019-07-15T10:33:00Z</time>
      </trkpt>
      <trkpt lat="47.8419" lon="-3.52422">
        <ele>26</ele>
        <time>2019-07-15T10:33:01Z</time>
      </trkpt>
      <trkpt lat="47.84188" lon="-3.5242">
        <ele>26</ele>
        <time>2019-07-15T10:33:02Z</time>
      </trkpt>
      <trkpt lat="47.84186" lon="-3.52417">
        <ele>26</ele>
        <time>2019-07-15T10:33:03Z</time>
      </trkpt>
      <trkpt lat="47.84183" lon="-3.52415">
        <ele>26</ele>
        <time>2019-07-15T10:33:04Z</time>
      </trkpt>
      <trkpt lat="47.84181" lon="-3.52413">
        <ele>26</ele>
        <time>2019-07-15T10:33:05Z</time>
      </trkpt>
      <trkpt lat="47.84179" lon="-3.52409">
        <ele>27</ele>
        <time>2019-07-15T10:33:06Z</time>
      </trkpt>
      <trkpt lat="47.84178" lon="-3.52406">
        <ele>27</ele>
        <time>2019-07-15T10:33:07Z</time>
      </trkpt>
      <trkpt lat="47.84177" lon="-3.52403">
        <ele>27</ele>
        <time>2019-07-15T10:33:08Z</time>
      </trkpt>
      <trkpt lat="47.84176" lon="-3.524">
        <ele>27</ele>
        <time>2019-07-15T10:33:09Z</time>
      </trkpt>
      <trkpt lat="47.84175" lon="-3.52397">
        <ele>28</ele>
        <time>2019-07-15T10:33:10Z</time>
      </trkpt>
      <trkpt lat="47.84174" lon="-3.52393">
        <ele>28</ele>
        <time>2019-07-15T10:33:11Z</time>
      </trkpt>
      <trkpt lat="47.84173" lon="-3.52389">
        <ele>28</ele>
        <time>2019-07-15T10:33:12Z</time>
      </trkpt>
      <trkpt lat="47.84172" lon="-3.52385">
        <ele>29</ele>
        <time>2019-07-15T10:33:13Z</time>
      </trkpt>
      <trkpt lat="47.84172" lon="-3.52381">
        <ele>29</ele>
        <time>2019-07-15T10:33:14Z</time>
      </trkpt>
      <trkpt lat="47.84171" lon="-3.52377">
        <ele>29</ele>
        <time>2019-07-15T10:33:15Z</time>
      </trkpt>
      <trkpt lat="47.84171" lon="-3.52374">
        <ele>30</ele>
        <time>2019-07-15T10:33:16Z</time>
      </trkpt>
      <trkpt lat="47.8417" lon="-3.5237">
        <ele>30</ele>
        <time>2019-07-15T10:33:17Z</time>
      </trkpt>
      <trkpt lat="47.8417" lon="-3.52366">
        <ele>30</ele>
        <time>2019-07-15T10:33:18Z</time>
      </trkpt>
      <trkpt lat="47.84169" lon="-3.52363">
        <ele>30</ele>
        <time>2019-07-15T10:33:19Z</time>
      </trkpt>
      <trkpt lat="47.84168" lon="-3.5236">
        <ele>30</ele>
        <time>2019-07-15T10:33:20Z</time>
      </trkpt>
      <trkpt lat="47.84167" lon="-3.52357">
        <ele>31</ele>
        <time>2019-07-15T10:33:21Z</time>
      </trkpt>
      <trkpt lat="47.84166" lon="-3.52354">
        <ele>31</ele>
        <time>2019-07-15T10:33:22Z</time>
      </trkpt>
      <trkpt lat="47.84166" lon="-3.52351">
        <ele>31</ele>
        <time>2019-07-15T10:33:23Z</time>
      </trkpt>
      <trkpt lat="47.84164" lon="-3.52348">
        <ele>31</ele>
        <time>2019-07-15T10:33:24Z</time>
      </trkpt>
      <trkpt lat="47.84164" lon="-3.52345">
        <ele>31</ele>
        <time>2019-07-15T10:33:25Z</time>
      </trkpt>
      <trkpt lat="47.84162" lon="-3.52342">
        <ele>32</ele>
        <time>2019-07-15T10:33:26Z</time>
      </trkpt>
      <trkpt lat="47.8416" lon="-3.52339">
        <ele>32</ele>
        <time>2019-07-15T10:33:27Z</time>
      </trkpt>
      <trkpt lat="47.84158" lon="-3.52337">
        <ele>32</ele>
        <time>2019-07-15T10:33:28Z</time>
      </trkpt>
      <trkpt lat="47.84156" lon="-3.52335">
        <ele>32</ele>
        <time>2019-07-15T10:33:29Z</time>
      </trkpt>
      <trkpt lat="47.84153" lon="-3.52333">
        <ele>32</ele>
        <time>2019-07-15T10:33:30Z</time>
      </trkpt>
      <trkpt lat="47.84151" lon="-3.52332">
        <ele>32</ele>
        <time>2019-07-15T10:33:31Z</time>
      </trkpt>
      <trkpt lat="47.84149" lon="-3.52331">
        <ele>32</ele>
        <time>2019-07-15T10:33:32Z</time>
      </trkpt>
      <trkpt lat="47.84147" lon="-3.52329">
        <ele>33</ele>
        <time>2019-07-15T10:33:33Z</time>
      </trkpt>
      <trkpt lat="47.84146" lon="-3.52328">
        <ele>33</ele>
        <time>2019-07-15T10:33:34Z</time>
      </trkpt>
      <trkpt lat="47.84144" lon="-3.52327">
        <ele>33</ele>
        <time>2019-07-15T10:33:35Z</time>
      </trkpt>
      <trkpt lat="47.84143" lon="-3.52326">
        <ele>33</ele>
        <time>2019-07-15T10:33:36Z</time>
      </trkpt>
      <trkpt lat="47.8414" lon="-3.52324">
        <ele>34</ele>
        <time>2019-07-15T10:33:37Z</time>
      </trkpt>
      <trkpt lat="47.84138" lon="-3.52323">
        <ele>34</ele>
        <time>2019-07-15T10:33:38Z</time>
      </trkpt>
      <trkpt lat="47.84136" lon="-3.52322">
        <ele>34</ele>
        <time>2019-07-15T10:33:39Z</time>
      </trkpt>
      <trkpt lat="47.84134" lon="-3.52321">
        <ele>34</ele>
        <time>2019-07-15T10:33:40Z</time>
      </trkpt>
      <trkpt lat="47.84132" lon="-3.5232">
        <ele>34</ele>
        <time>2019-07-15T10:33:41Z</time>
      </trkpt>
      <trkpt lat="47.84129" lon="-3.52319">
        <ele>35</ele>
        <time>2019-07-15T10:33:42Z</time>
      </trkpt>
      <trkpt lat="47.84127" lon="-3.52317">
        <ele>35</ele>
        <time>2019-07-15T10:33:43Z</time>
      </trkpt>
      <trkpt lat="47.84124" lon="-3.52316">
        <ele>35</ele>
        <time>2019-07-15T10:33:44Z</time>
      </trkpt>
      <trkpt lat="47.84121" lon="-3.52314">
        <ele>35</ele>
        <time>2019-07-15T10:33:45Z</time>
      </trkpt>
      <trkpt lat="47.84119" lon="-3.52311">
        <ele>36</ele>
        <time>2019-07-15T10:33:46Z</time>
      </trkpt>
      <trkpt lat="47.84117" lon="-3.52309">
        <ele>36</ele>
        <time>2019-07-15T10:33:47Z</time>
      </trkpt>
      <trkpt lat="47.84114" lon="-3.52307">
        <ele>36</ele>
        <time>2019-07-15T10:33:48Z</time>
      </trkpt>
      <trkpt lat="47.84111" lon="-3.52305">
        <ele>37</ele>
        <time>2019-07-15T10:33:49Z</time>
      </trkpt>
      <trkpt lat="47.84108" lon="-3.52303">
        <ele>37</ele>
        <time>2019-07-15T10:33:50Z</time>
      </trkpt>
      <trkpt lat="47.84105" lon="-3.52301">
        <ele>37</ele>
        <time>2019-07-15T10:33:51Z</time>
      </trkpt>
      <trkpt lat="47.84103" lon="-3.52299">
        <ele>38</ele>
        <time>2019-07-15T10:33:52Z</time>
      </trkpt>
      <trkpt lat="47.841" lon="-3.52297">
        <ele>38</ele>
        <time>2019-07-15T10:33:53Z</time>
      </trkpt>
      <trkpt lat="47.84097" lon="-3.52295">
        <ele>38</ele>
        <time>2019-07-15T10:33:54Z</time>
      </trkpt>
      <trkpt lat="47.84094" lon="-3.52293">
        <ele>39</ele>
        <time>2019-07-15T10:33:55Z</time>
      </trkpt>
      <trkpt lat="47.84091" lon="-3.52291">
        <ele>39</ele>
        <time>2019-07-15T10:33:56Z</time>
      </trkpt>
      <trkpt lat="47.84088" lon="-3.5229">
        <ele>39</ele>
        <time>2019-07-15T10:33:57Z</time>
      </trkpt>
      <trkpt lat="47.84085" lon="-3.52287">
        <ele>40</ele>
        <time>2019-07-15T10:33:58Z</time>
      </trkpt>
      <trkpt lat="47.84082" lon="-3.52283">
        <ele>40</ele>
        <time>2019-07-15T10:33:59Z</time>
      </trkpt>
      <trkpt lat="47.84079" lon="-3.5228">
        <ele>40</ele>
        <time>2019-07-15T10:34:00Z</time>
      </trkpt>
      <trkpt lat="47.84077" lon="-3.52277">
        <ele>40</ele>
        <time>2019-07-15T10:34:01Z</time>
      </trkpt>
      <trkpt lat="47.84074" lon="-3.52275">
        <ele>41</ele>
        <time>2019-07-15T10:34:02Z</time>
      </trkpt>
      <trkpt lat="47.84071" lon="-3.52272">
        <ele>41</ele>
        <time>2019-07-15T10:34:03Z</time>
      </trkpt>
      <trkpt lat="47.84068" lon="-3.52268">
        <ele>41</ele>
        <time>2019-07-15T10:34:04Z</time>
      </trkpt>
      <trkpt lat="47.84065" lon="-3.52265">
        <ele>41</ele>
        <time>2019-07-15T10:34:05Z</time>
      </trkpt>
      <trkpt lat="47.84061" lon="-3.52262">
        <ele>42</ele>
        <time>2019-07-15T10:34:06Z</time>
      </trkpt>
      <trkpt lat="47.84058" lon="-3.52259">
        <ele>42</ele>
        <time>2019-07-15T10:34:07Z</time>
      </trkpt>
      <trkpt lat="47.84055" lon="-3.52257">
        <ele>42</ele>
        <time>2019-07-15T10:34:08Z</time>
      </trkpt>
      <trkpt lat="47.84052" lon="-3.52254">
        <ele>42</ele>
        <time>2019-07-15T10:34:09Z</time>
      </trkpt>
      <trkpt lat="47.84048" lon="-3.52252">
        <ele>42</ele>
        <time>2019-07-15T10:34:10Z</time>
      </trkpt>
      <trkpt lat="47.84045" lon="-3.52249">
        <ele>42</ele>
        <time>2019-07-15T10:34:11Z</time>
      </trkpt>
      <trkpt lat="47.84044" lon="-3.52247">
        <ele>43</ele>
        <time>2019-07-15T10:34:12Z</time>
      </trkpt>
      <trkpt lat="47.84041" lon="-3.52244">
        <ele>43</ele>
        <time>2019-07-15T10:34:13Z</time>
      </trkpt>
      <trkpt lat="47.84039" lon="-3.52242">
        <ele>43</ele>
        <time>2019-07-15T10:34:14Z</time>
      </trkpt>
      <trkpt lat="47.84036" lon="-3.5224">
        <ele>43</ele>
        <time>2019-07-15T10:34:15Z</time>
      </trkpt>
      <trkpt lat="47.84033" lon="-3.52239">
        <ele>43</ele>
        <time>2019-07-15T10:34:16Z</time>
      </trkpt>
      <trkpt lat="47.84031" lon="-3.52238">
        <ele>43</ele>
        <time>2019-07-15T10:34:17Z</time>
      </trkpt>
      <trkpt lat="47.84028" lon="-3.52237">
        <ele>43</ele>
        <time>2019-07-15T10:34:18Z</time>
      </trkpt>
      <trkpt lat="47.84025" lon="-3.52235">
        <ele>43</ele>
        <time>2019-07-15T10:34:19Z</time>
      </trkpt>
      <trkpt lat="47.84022" lon="-3.52234">
        <ele>43</ele>
        <time>2019-07-15T10:34:20Z</time>
      </trkpt>
      <trkpt lat="47.84019" lon="-3.52232">
        <ele>43</ele>
        <time>2019-07-15T10:34:21Z</time>
      </trkpt>
      <trkpt lat="47.84016" lon="-3.5223">
        <ele>43</ele>
        <time>2019-07-15T10:34:22Z</time>
      </trkpt>
      <trkpt lat="47.84015" lon="-3.52226">
        <ele>44</ele>
        <time>2019-07-15T10:34:23Z</time>
      </trkpt>
      <trkpt lat="47.84014" lon="-3.52222">
        <ele>44</ele>
        <time>2019-07-15T10:34:24Z</time>
      </trkpt>
      <trkpt lat="47.84013" lon="-3.52218">
        <ele>44</ele>
        <time>2019-07-15T10:34:25Z</time>
      </trkpt>
      <trkpt lat="47.84012" lon="-3.52214">
        <ele>44</ele>
        <time>2019-07-15T10:34:26Z</time>
      </trkpt>
      <trkpt lat="47.84013" lon="-3.52211">
        <ele>44</ele>
        <time>2019-07-15T10:34:27Z</time>
      </trkpt>
      <trkpt lat="47.84013" lon="-3.52207">
        <ele>44</ele>
        <time>2019-07-15T10:34:28Z</time>
      </trkpt>
      <trkpt lat="47.84014" lon="-3.52204">
        <ele>44</ele>
        <time>2019-07-15T10:34:29Z</time>
      </trkpt>
      <trkpt lat="47.84015" lon="-3.52201">
        <ele>44</ele>
        <time>2019-07-15T10:34:30Z</time>
      </trkpt>
      <trkpt lat="47.84015" lon="-3.52199">
        <ele>44</ele>
        <time>2019-07-15T10:34:31Z</time>
      </trkpt>
      <trkpt lat="47.84015" lon="-3.52196">
        <ele>44</ele>
        <time>2019-07-15T10:34:32Z</time>
      </trkpt>
      <trkpt lat="47.84016" lon="-3.52193">
        <ele>44</ele>
        <time>2019-07-15T10:34:33Z</time>
      </trkpt>
      <trkpt lat="47.84018" lon="-3.52191">
        <ele>44</ele>
        <time>2019-07-15T10:34:34Z</time>
      </trkpt>
      <trkpt lat="47.84018" lon="-3.5219">
        <ele>44</ele>
        <time>2019-07-15T10:34:35Z</time>
      </trkpt>
      <trkpt lat="47.84019" lon="-3.5219">
        <ele>44</ele>
        <time>2019-07-15T10:34:36Z</time>
      </trkpt>
      <trkpt lat="47.84019" lon="-3.5219">
        <ele>44</ele>
        <time>2019-07-15T10:34:37Z</time>
      </trkpt>
      <trkpt lat="47.84018" lon="-3.5219">
        <ele>45</ele>
        <time>2019-07-15T10:34:38Z</time>
      </trkpt>
      <trkpt lat="47.84018" lon="-3.5219">
        <ele>45</ele>
        <time>2019-07-15T10:34:39Z</time>
      </trkpt>
      <trkpt lat="47.8402" lon="-3.5219">
        <ele>48</ele>
        <time>2019-07-15T10:34:40Z</time>
      </trkpt>
      <trkpt lat="47.84022" lon="-3.5219">
        <ele>48</ele>
        <time>2019-07-15T10:34:41Z</time>
      </trkpt>
      <trkpt lat="47.84023" lon="-3.5219">
        <ele>48</ele>
        <time>2019-07-15T10:34:42Z</time>
      </trkpt>
      <trkpt lat="47.84024" lon="-3.52192">
        <ele>48</ele>
        <time>2019-07-15T10:34:43Z</time>
      </trkpt>
      <trkpt lat="47.84026" lon="-3.52193">
        <ele>48</ele>
        <time>2019-07-15T10:34:44Z</time>
      </trkpt>
      <trkpt lat="47.84028" lon="-3.52194">
        <ele>48</ele>
        <time>2019-07-15T10:34:45Z</time>
      </trkpt>
      <trkpt lat="47.84029" lon="-3.52196">
        <ele>48</ele>
        <time>2019-07-15T10:34:46Z</time>
      </trkpt>
      <trkpt lat="47.84031" lon="-3.52196">
        <ele>48</ele>
        <time>2019-07-15T10:34:47Z</time>
      </trkpt>
      <trkpt lat="47.84034" lon="-3.52197">
        <ele>48</ele>
        <time>2019-07-15T10:34:48Z</time>
      </trkpt>
      <trkpt lat="47.84037" lon="-3.52199">
        <ele>48</ele>
        <time>2019-07-15T10:34:49Z</time>
      </trkpt>
      <trkpt lat="47.8404" lon="-3.52199">
        <ele>48</ele>
        <time>2019-07-15T10:34:50Z</time>
      </trkpt>
      <trkpt lat="47.84043" lon="-3.522">
        <ele>48</ele>
        <time>2019-07-15T10:34:51Z</time>
      </trkpt>
      <trkpt lat="47.84046" lon="-3.52202">
        <ele>48</ele>
        <time>2019-07-15T10:34:52Z</time>
      </trkpt>
      <trkpt lat="47.84049" lon="-3.52203">
        <ele>49</ele>
        <time>2019-07-15T10:34:53Z</time>
      </trkpt>
      <trkpt lat="47.84053" lon="-3.52205">
        <ele>49</ele>
        <time>2019-07-15T10:34:54Z</time>
      </trkpt>
      <trkpt lat="47.84056" lon="-3.52206">
        <ele>49</ele>
        <time>2019-07-15T10:34:55Z</time>
      </trkpt>
      <trkpt lat="47.8406" lon="-3.52207">
        <ele>49</ele>
        <time>2019-07-15T10:34:56Z</time>
      </trkpt>
      <trkpt lat="47.84064" lon="-3.52209">
        <ele>49</ele>
        <time>2019-07-15T10:34:57Z</time>
      </trkpt>
      <trkpt lat="47.84068" lon="-3.5221">
        <ele>49</ele>
        <time>2019-07-15T10:34:58Z</time>
      </trkpt>
      <trkpt lat="47.84071" lon="-3.52211">
        <ele>49</ele>
        <time>2019-07-15T10:34:59Z</time>
      </trkpt>
      <trkpt lat="47.84075" lon="-3.52212">
        <ele>48</ele>
        <time>2019-07-15T10:35:00Z</time>
      </trkpt>
      <trkpt lat="47.84078" lon="-3.52214">
        <ele>48</ele>
        <time>2019-07-15T10:35:01Z</time>
      </trkpt>
      <trkpt lat="47.84081" lon="-3.52215">
        <ele>48</ele>
        <time>2019-07-15T10:35:02Z</time>
      </trkpt>
      <trkpt lat="47.84085" lon="-3.52215">
        <ele>48</ele>
        <time>2019-07-15T10:35:03Z</time>
      </trkpt>
      <trkpt lat="47.84089" lon="-3.52216">
        <ele>48</ele>
        <time>2019-07-15T10:35:04Z</time>
      </trkpt>
      <trkpt lat="47.84093" lon="-3.52217">
        <ele>48</ele>
        <time>2019-07-15T10:35:05Z</time>
      </trkpt>
      <trkpt lat="47.84097" lon="-3.52217">
        <ele>47</ele>
        <time>2019-07-15T10:35:06Z</time>
      </trkpt>
      <trkpt lat="47.84101" lon="-3.52218">
        <ele>47</ele>
        <time>2019-07-15T10:35:07Z</time>
      </trkpt>
      <trkpt lat="47.84105" lon="-3.52217">
        <ele>47</ele>
        <time>2019-07-15T10:35:08Z</time>
      </trkpt>
      <trkpt lat="47.84109" lon="-3.52218">
        <ele>47</ele>
        <time>2019-07-15T10:35:09Z</time>
      </trkpt>
      <trkpt lat="47.84112" lon="-3.52218">
        <ele>47</ele>
        <time>2019-07-15T10:35:10Z</time>
      </trkpt>
      <trkpt lat="47.84116" lon="-3.52217">
        <ele>47</ele>
        <time>2019-07-15T10:35:11Z</time>
      </trkpt>
      <trkpt lat="47.8412" lon="-3.52216">
        <ele>46</ele>
        <time>2019-07-15T10:35:12Z</time>
      </trkpt>
      <trkpt lat="47.84124" lon="-3.52216">
        <ele>46</ele>
        <time>2019-07-15T10:35:13Z</time>
      </trkpt>
      <trkpt lat="47.84128" lon="-3.52215">
        <ele>46</ele>
        <time>2019-07-15T10:35:14Z</time>
      </trkpt>
      <trkpt lat="47.84132" lon="-3.52214">
        <ele>46</ele>
        <time>2019-07-15T10:35:15Z</time>
      </trkpt>
      <trkpt lat="47.84136" lon="-3.52214">
        <ele>46</ele>
        <time>2019-07-15T10:35:16Z</time>
      </trkpt>
      <trkpt lat="47.84139" lon="-3.52213">
        <ele>46</ele>
        <time>2019-07-15T10:35:17Z</time>
      </trkpt>
      <trkpt lat="47.84143" lon="-3.52213">
        <ele>46</ele>
        <time>2019-07-15T10:35:18Z</time>
      </trkpt>
      <trkpt lat="47.84147" lon="-3.52212">
        <ele>46</ele>
        <time>2019-07-15T10:35:19Z</time>
      </trkpt>
      <trkpt lat="47.84151" lon="-3.5221">
        <ele>46</ele>
        <time>2019-07-15T10:35:20Z</time>
      </trkpt>
      <trkpt lat="47.84155" lon="-3.52209">
        <ele>46</ele>
        <time>2019-07-15T10:35:21Z</time>
      </trkpt>
      <trkpt lat="47.84159" lon="-3.52207">
        <ele>46</ele>
        <time>2019-07-15T10:35:22Z</time>
      </trkpt>
      <trkpt lat="47.84163" lon="-3.52206">
        <ele>46</ele>
        <time>2019-07-15T10:35:23Z</time>
      </trkpt>
      <trkpt lat="47.84166" lon="-3.52205">
        <ele>46</ele>
        <time>2019-07-15T10:35:24Z</time>
      </trkpt>
      <trkpt lat="47.84169" lon="-3.52204">
        <ele>46</ele>
        <time>2019-07-15T10:35:25Z</time>
      </trkpt>
      <trkpt lat="47.84172" lon="-3.52203">
        <ele>46</ele>
        <time>2019-07-15T10:35:26Z</time>
      </trkpt>
      <trkpt lat="47.84175" lon="-3.52202">
        <ele>46</ele>
        <time>2019-07-15T10:35:27Z</time>
      </trkpt>
      <trkpt lat="47.84178" lon="-3.52201">
        <ele>45</ele>
        <time>2019-07-15T10:35:28Z</time>
      </trkpt>
      <trkpt lat="47.8418" lon="-3.52199">
        <ele>45</ele>
        <time>2019-07-15T10:35:29Z</time>
      </trkpt>
      <trkpt lat="47.84184" lon="-3.52199">
        <ele>45</ele>
        <time>2019-07-15T10:35:30Z</time>
      </trkpt>
      <trkpt lat="47.84186" lon="-3.52198">
        <ele>45</ele>
        <time>2019-07-15T10:35:31Z</time>
      </trkpt>
      <trkpt lat="47.84189" lon="-3.52196">
        <ele>45</ele>
        <time>2019-07-15T10:35:32Z</time>
      </trkpt>
      <trkpt lat="47.84191" lon="-3.52195">
        <ele>45</ele>
        <time>2019-07-15T10:35:33Z</time>
      </trkpt>
      <trkpt lat="47.84194" lon="-3.52192">
        <ele>45</ele>
        <time>2019-07-15T10:35:34Z</time>
      </trkpt>
      <trkpt lat="47.84198" lon="-3.5219">
        <ele>45</ele>
        <time>2019-07-15T10:35:35Z</time>
      </trkpt>
      <trkpt lat="47.84201" lon="-3.52189">
        <ele>45</ele>
        <time>2019-07-15T10:35:36Z</time>
      </trkpt>
      <trkpt lat="47.84204" lon="-3.52188">
        <ele>45</ele>
        <time>2019-07-15T10:35:37Z</time>
      </trkpt>
      <trkpt lat="47.84207" lon="-3.52189">
        <ele>45</ele>
        <time>2019-07-15T10:35:38Z</time>
      </trkpt>
      <trkpt lat="47.84211" lon="-3.52188">
        <ele>45</ele>
        <time>2019-07-15T10:35:39Z</time>
      </trkpt>
      <trkpt lat="47.84216" lon="-3.52186">
        <ele>45</ele>
        <time>2019-07-15T10:35:40Z</time>
      </trkpt>
      <trkpt lat="47.8422" lon="-3.52184">
        <ele>45</ele>
        <time>2019-07-15T10:35:41Z</time>
      </trkpt>
      <trkpt lat="47.84225" lon="-3.52181">
        <ele>45</ele>
        <time>2019-07-15T10:35:42Z</time>
      </trkpt>
      <trkpt lat="47.84229" lon="-3.52177">
        <ele>45</ele>
        <time>2019-07-15T10:35:43Z</time>
      </trkpt>
      <trkpt lat="47.84233" lon="-3.52175">
        <ele>46</ele>
        <time>2019-07-15T10:35:44Z</time>
      </trkpt>
      <trkpt lat="47.84237" lon="-3.52173">
        <ele>46</ele>
        <time>2019-07-15T10:35:45Z</time>
      </trkpt>
      <trkpt lat="47.84241" lon="-3.5217">
        <ele>46</ele>
        <time>2019-07-15T10:35:46Z</time>
      </trkpt>
      <trkpt lat="47.84245" lon="-3.52168">
        <ele>46</ele>
        <time>2019-07-15T10:35:47Z</time>
      </trkpt>
      <trkpt lat="47.84249" lon="-3.52166">
        <ele>46</ele>
        <time>2019-07-15T10:35:48Z</time>
      </trkpt>
      <trkpt lat="47.84254" lon="-3.52162">
        <ele>46</ele>
        <time>2019-07-15T10:35:49Z</time>
      </trkpt>
      <trkpt lat="47.84259" lon="-3.52159">
        <ele>46</ele>
        <time>2019-07-15T10:35:50Z</time>
      </trkpt>
      <trkpt lat="47.84264" lon="-3.52157">
        <ele>46</ele>
        <time>2019-07-15T10:35:51Z</time>
      </trkpt>
      <trkpt lat="47.84268" lon="-3.52154">
        <ele>46</ele>
        <time>2019-07-15T10:35:52Z</time>
      </trkpt>
      <trkpt lat="47.84273" lon="-3.52151">
        <ele>46</ele>
        <time>2019-07-15T10:35:53Z</time>
      </trkpt>
      <trkpt lat="47.84278" lon="-3.52148">
        <ele>46</ele>
        <time>2019-07-15T10:35:54Z</time>
      </trkpt>
      <trkpt lat="47.84282" lon="-3.52145">
        <ele>46</ele>
        <time>2019-07-15T10:35:55Z</time>
      </trkpt>
      <trkpt lat="47.84288" lon="-3.52141">
        <ele>46</ele>
        <time>2019-07-15T10:35:56Z</time>
      </trkpt>
      <trkpt lat="47.84292" lon="-3.52138">
        <ele>46</ele>
        <time>2019-07-15T10:35:57Z</time>
      </trkpt>
      <trkpt lat="47.84298" lon="-3.52135">
        <ele>46</ele>
        <time>2019-07-15T10:35:58Z</time>
      </trkpt>
      <trkpt lat="47.84302" lon="-3.52132">
        <ele>46</ele>
        <time>2019-07-15T10:35:59Z</time>
      </trkpt>
      <trkpt lat="47.84306" lon="-3.52129">
        <ele>46</ele>
        <time>2019-07-15T10:36:00Z</time>
      </trkpt>
      <trkpt lat="47.8431" lon="-3.52126">
        <ele>46</ele>
        <time>2019-07-15T10:36:01Z</time>
      </trkpt>
      <trkpt lat="47.84312" lon="-3.52123">
        <ele>46</ele>
        <time>2019-07-15T10:36:02Z</time>
      </trkpt>
      <trkpt lat="47.84316" lon="-3.52121">
        <ele>46</ele>
        <time>2019-07-15T10:36:03Z</time>
      </trkpt>
      <trkpt lat="47.8432" lon="-3.5212">
        <ele>46</ele>
        <time>2019-07-15T10:36:04Z</time>
      </trkpt>
      <trkpt lat="47.84325" lon="-3.52117">
        <ele>46</ele>
        <time>2019-07-15T10:36:05Z</time>
      </trkpt>
      <trkpt lat="47.8433" lon="-3.52114">
        <ele>46</ele>
        <time>2019-07-15T10:36:06Z</time>
      </trkpt>
      <trkpt lat="47.84336" lon="-3.52111">
        <ele>46</ele>
        <time>2019-07-15T10:36:07Z</time>
      </trkpt>
      <trkpt lat="47.84342" lon="-3.52108">
        <ele>46</ele>
        <time>2019-07-15T10:36:08Z</time>
      </trkpt>
      <trkpt lat="47.84347" lon="-3.52105">
        <ele>46</ele>
        <time>2019-07-15T10:36:09Z</time>
      </trkpt>
      <trkpt lat="47.84353" lon="-3.52101">
        <ele>46</ele>
        <time>2019-07-15T10:36:10Z</time>
      </trkpt>
      <trkpt lat="47.84358" lon="-3.52098">
        <ele>46</ele>
        <time>2019-07-15T10:36:11Z</time>
      </trkpt>
      <trkpt lat="47.84364" lon="-3.52095">
        <ele>46</ele>
        <time>2019-07-15T10:36:12Z</time>
      </trkpt>
      <trkpt lat="47.8437" lon="-3.52092">
        <ele>46</ele>
        <time>2019-07-15T10:36:13Z</time>
      </trkpt>
      <trkpt lat="47.84375" lon="-3.52088">
        <ele>46</ele>
        <time>2019-07-15T10:36:14Z</time>
      </trkpt>
      <trkpt lat="47.84381" lon="-3.52085">
        <ele>46</ele>
        <time>2019-07-15T10:36:15Z</time>
      </trkpt>
      <trkpt lat="47.84386" lon="-3.52082">
        <ele>46</ele>
        <time>2019-07-15T10:36:16Z</time>
      </trkpt>
      <trkpt lat="47.84392" lon="-3.52078">
        <ele>46</ele>
        <time>2019-07-15T10:36:17Z</time>
      </trkpt>
      <trkpt lat="47.84398" lon="-3.52075">
        <ele>46</ele>
        <time>2019-07-15T10:36:18Z</time>
      </trkpt>
      <trkpt lat="47.84403" lon="-3.52072">
        <ele>46</ele>
        <time>2019-07-15T10:36:19Z</time>
      </trkpt>
      <trkpt lat="47.84408" lon="-3.52068">
        <ele>46</ele>
        <time>2019-07-15T10:36:20Z</time>
      </trkpt>
      <trkpt lat="47.84413" lon="-3.52066">
        <ele>46</ele>
        <time>2019-07-15T10:36:21Z</time>
      </trkpt>
      <trkpt lat="47.84419" lon="-3.52063">
        <ele>46</ele>
        <time>2019-07-15T10:36:22Z</time>
      </trkpt>
      <trkpt lat="47.84424" lon="-3.5206">
        <ele>46</ele>
        <time>2019-07-15T10:36:23Z</time>
      </trkpt>
      <trkpt lat="47.84429" lon="-3.52057">
        <ele>46</ele>
        <time>2019-07-15T10:36:24Z</time>
      </trkpt>
      <trkpt lat="47.84434" lon="-3.52054">
        <ele>46</ele>
        <time>2019-07-15T10:36:25Z</time>
      </trkpt>
      <trkpt lat="47.84439" lon="-3.5205">
        <ele>46</ele>
        <time>2019-07-15T10:36:26Z</time>
      </trkpt>
      <trkpt lat="47.84444" lon="-3.52047">
        <ele>46</ele>
        <time>2019-07-15T10:36:27Z</time>
      </trkpt>
      <trkpt lat="47.84449" lon="-3.52044">
        <ele>46</ele>
        <time>2019-07-15T10:36:28Z</time>
      </trkpt>
      <trkpt lat="47.84455" lon="-3.52041">
        <ele>46</ele>
        <time>2019-07-15T10:36:29Z</time>
      </trkpt>
      <trkpt lat="47.8446" lon="-3.52038">
        <ele>46</ele>
        <time>2019-07-15T10:36:30Z</time>
      </trkpt>
      <trkpt lat="47.84465" lon="-3.52036">
        <ele>46</ele>
        <time>2019-07-15T10:36:31Z</time>
      </trkpt>
      <trkpt lat="47.84469" lon="-3.52034">
        <ele>46</ele>
        <time>2019-07-15T10:36:32Z</time>
      </trkpt>
      <trkpt lat="47.84473" lon="-3.52032">
        <ele>46</ele>
        <time>2019-07-15T10:36:33Z</time>
      </trkpt>
      <trkpt lat="47.84477" lon="-3.52029">
        <ele>46</ele>
        <time>2019-07-15T10:36:34Z</time>
      </trkpt>
      <trkpt lat="47.84482" lon="-3.52026">
        <ele>46</ele>
        <time>2019-07-15T10:36:35Z</time>
      </trkpt>
      <trkpt lat="47.84486" lon="-3.52024">
        <ele>46</ele>
        <time>2019-07-15T10:36:36Z</time>
      </trkpt>
      <trkpt lat="47.84491" lon="-3.52022">
        <ele>45</ele>
        <time>2019-07-15T10:36:37Z</time>
      </trkpt>
      <trkpt lat="47.84495" lon="-3.5202">
        <ele>45</ele>
        <time>2019-07-15T10:36:38Z</time>
      </trkpt>
      <trkpt lat="47.845" lon="-3.52018">
        <ele>45</ele>
        <time>2019-07-15T10:36:39Z</time>
      </trkpt>
      <trkpt lat="47.84504" lon="-3.52015">
        <ele>45</ele>
        <time>2019-07-15T10:36:40Z</time>
      </trkpt>
      <trkpt lat="47.84508" lon="-3.52013">
        <ele>45</ele>
        <time>2019-07-15T10:36:41Z</time>
      </trkpt>
      <trkpt lat="47.84513" lon="-3.52011">
        <ele>45</ele>
        <time>2019-07-15T10:36:42Z</time>
      </trkpt>
      <trkpt lat="47.84518" lon="-3.52008">
        <ele>45</ele>
        <time>2019-07-15T10:36:43Z</time>
      </trkpt>
      <trkpt lat="47.84523" lon="-3.52006">
        <ele>45</ele>
        <time>2019-07-15T10:36:44Z</time>
      </trkpt>
      <trkpt lat="47.84528" lon="-3.52004">
        <ele>45</ele>
        <time>2019-07-15T10:36:45Z</time>
      </trkpt>
      <trkpt lat="47.84533" lon="-3.52002">
        <ele>45</ele>
        <time>2019-07-15T10:36:46Z</time>
      </trkpt>
      <trkpt lat="47.84537" lon="-3.52">
        <ele>46</ele>
        <time>2019-07-15T10:36:47Z</time>
      </trkpt>
      <trkpt lat="47.84542" lon="-3.51997">
        <ele>46</ele>
        <time>2019-07-15T10:36:48Z</time>
      </trkpt>
      <trkpt lat="47.84547" lon="-3.51995">
        <ele>46</ele>
        <time>2019-07-15T10:36:49Z</time>
      </trkpt>
      <trkpt lat="47.84551" lon="-3.51993">
        <ele>46</ele>
        <time>2019-07-15T10:36:50Z</time>
      </trkpt>
      <trkpt lat="47.84556" lon="-3.5199">
        <ele>46</ele>
        <time>2019-07-15T10:36:51Z</time>
      </trkpt>
      <trkpt lat="47.8456" lon="-3.51988">
        <ele>46</ele>
        <time>2019-07-15T10:36:52Z</time>
      </trkpt>
      <trkpt lat="47.84564" lon="-3.51986">
        <ele>46</ele>
        <time>2019-07-15T10:36:53Z</time>
      </trkpt>
      <trkpt lat="47.84568" lon="-3.51984">
        <ele>47</ele>
        <time>2019-07-15T10:36:54Z</time>
      </trkpt>
      <trkpt lat="47.84572" lon="-3.51982">
        <ele>47</ele>
        <time>2019-07-15T10:36:55Z</time>
      </trkpt>
      <trkpt lat="47.84576" lon="-3.5198">
        <ele>47</ele>
        <time>2019-07-15T10:36:56Z</time>
      </trkpt>
      <trkpt lat="47.8458" lon="-3.51979">
        <ele>47</ele>
        <time>2019-07-15T10:36:57Z</time>
      </trkpt>
      <trkpt lat="47.84584" lon="-3.51977">
        <ele>47</ele>
        <time>2019-07-15T10:36:58Z</time>
      </trkpt>
      <trkpt lat="47.84587" lon="-3.51976">
        <ele>48</ele>
        <time>2019-07-15T10:36:59Z</time>
      </trkpt>
      <trkpt lat="47.84591" lon="-3.51975">
        <ele>48</ele>
        <time>2019-07-15T10:37:00Z</time>
      </trkpt>
      <trkpt lat="47.84595" lon="-3.51973">
        <ele>48</ele>
        <time>2019-07-15T10:37:01Z</time>
      </trkpt>
      <trkpt lat="47.84599" lon="-3.51972">
        <ele>48</ele>
        <time>2019-07-15T10:37:02Z</time>
      </trkpt>
      <trkpt lat="47.84602" lon="-3.51971">
        <ele>48</ele>
        <time>2019-07-15T10:37:03Z</time>
      </trkpt>
      <trkpt lat="47.84606" lon="-3.5197">
        <ele>48</ele>
        <time>2019-07-15T10:37:04Z</time>
      </trkpt>
      <trkpt lat="47.8461" lon="-3.51968">
        <ele>48</ele>
        <time>2019-07-15T10:37:05Z</time>
      </trkpt>
      <trkpt lat="47.84613" lon="-3.51967">
        <ele>49</ele>
        <time>2019-07-15T10:37:06Z</time>
      </trkpt>
      <trkpt lat="47.84617" lon="-3.51966">
        <ele>49</ele>
        <time>2019-07-15T10:37:07Z</time>
      </trkpt>
      <trkpt lat="47.8462" lon="-3.51966">
        <ele>49</ele>
        <time>2019-07-15T10:37:08Z</time>
      </trkpt>
      <trkpt lat="47.84623" lon="-3.51966">
        <ele>49</ele>
        <time>2019-07-15T10:37:09Z</time>
      </trkpt>
      <trkpt lat="47.84626" lon="-3.51965">
        <ele>49</ele>
        <time>2019-07-15T10:37:10Z</time>
      </trkpt>
      <trkpt lat="47.84628" lon="-3.51964">
        <ele>50</ele>
        <time>2019-07-15T10:37:11Z</time>
      </trkpt>
      <trkpt lat="47.84631" lon="-3.51964">
        <ele>50</ele>
        <time>2019-07-15T10:37:12Z</time>
      </trkpt>
      <trkpt lat="47.84634" lon="-3.51963">
        <ele>50</ele>
        <time>2019-07-15T10:37:13Z</time>
      </trkpt>
      <trkpt lat="47.84636" lon="-3.51963">
        <ele>50</ele>
        <time>2019-07-15T10:37:14Z</time>
      </trkpt>
      <trkpt lat="47.84639" lon="-3.51961">
        <ele>50</ele>
        <time>2019-07-15T10:37:15Z</time>
      </trkpt>
      <trkpt lat="47.84642" lon="-3.5196">
        <ele>50</ele>
        <time>2019-07-15T10:37:16Z</time>
      </trkpt>
      <trkpt lat="47.84645" lon="-3.51957">
        <ele>51</ele>
        <time>2019-07-15T10:37:17Z</time>
      </trkpt>
      <trkpt lat="47.84648" lon="-3.51956">
        <ele>51</ele>
        <time>2019-07-15T10:37:18Z</time>
      </trkpt>
      <trkpt lat="47.8465" lon="-3.51954">
        <ele>51</ele>
        <time>2019-07-15T10:37:19Z</time>
      </trkpt>
      <trkpt lat="47.84653" lon="-3.51952">
        <ele>51</ele>
        <time>2019-07-15T10:37:20Z</time>
      </trkpt>
      <trkpt lat="47.84658" lon="-3.51948">
        <ele>51</ele>
        <time>2019-07-15T10:37:21Z</time>
      </trkpt>
      <trkpt lat="47.84661" lon="-3.51945">
        <ele>51</ele>
        <time>2019-07-15T10:37:22Z</time>
      </trkpt>
      <trkpt lat="47.84664" lon="-3.51943">
        <ele>51</ele>
        <time>2019-07-15T10:37:23Z</time>
      </trkpt>
      <trkpt lat="47.84668" lon="-3.5194">
        <ele>51</ele>
        <time>2019-07-15T10:37:24Z</time>
      </trkpt>
      <trkpt lat="47.84673" lon="-3.51937">
        <ele>51</ele>
        <time>2019-07-15T10:37:25Z</time>
      </trkpt>
      <trkpt lat="47.84677" lon="-3.51934">
        <ele>51</ele>
        <time>2019-07-15T10:37:26Z</time>
      </trkpt>
      <trkpt lat="47.84682" lon="-3.5193">
        <ele>51</ele>
        <time>2019-07-15T10:37:27Z</time>
      </trkpt>
      <trkpt lat="47.84686" lon="-3.51926">
        <ele>51</ele>
        <time>2019-07-15T10:37:28Z</time>
      </trkpt>
      <trkpt lat="47.84692" lon="-3.51922">
        <ele>51</ele>
        <time>2019-07-15T10:37:29Z</time>
      </trkpt>
      <trkpt lat="47.84697" lon="-3.51918">
        <ele>51</ele>
        <time>2019-07-15T10:37:30Z</time>
      </trkpt>
      <trkpt lat="47.84703" lon="-3.51914">
        <ele>51</ele>
        <time>2019-07-15T10:37:31Z</time>
      </trkpt>
      <trkpt lat="47.84709" lon="-3.51908">
        <ele>51</ele>
        <time>2019-07-15T10:37:32Z</time>
      </trkpt>
      <trkpt lat="47.84715" lon="-3.51903">
        <ele>51</ele>
        <time>2019-07-15T10:37:33Z</time>
      </trkpt>
      <trkpt lat="47.84721" lon="-3.51897">
        <ele>51</ele>
        <time>2019-07-15T10:37:34Z</time>
      </trkpt>
      <trkpt lat="47.84728" lon="-3.51892">
        <ele>51</ele>
        <time>2019-07-15T10:37:35Z</time>
      </trkpt>
      <trkpt lat="47.84736" lon="-3.51886">
        <ele>51</ele>
        <time>2019-07-15T10:37:36Z</time>
      </trkpt>
      <trkpt lat="47.84742" lon="-3.5188">
        <ele>51</ele>
        <time>2019-07-15T10:37:37Z</time>
      </trkpt>
      <trkpt lat="47.8475" lon="-3.51874">
        <ele>51</ele>
        <time>2019-07-15T10:37:38Z</time>
      </trkpt>
      <trkpt lat="47.84757" lon="-3.5187">
        <ele>50</ele>
        <time>2019-07-15T10:37:39Z</time>
      </trkpt>
      <trkpt lat="47.84764" lon="-3.51865">
        <ele>50</ele>
        <time>2019-07-15T10:37:40Z</time>
      </trkpt>
      <trkpt lat="47.84771" lon="-3.51862">
        <ele>50</ele>
        <time>2019-07-15T10:37:41Z</time>
      </trkpt>
      <trkpt lat="47.84779" lon="-3.51858">
        <ele>49</ele>
        <time>2019-07-15T10:37:42Z</time>
      </trkpt>
      <trkpt lat="47.84787" lon="-3.51855">
        <ele>49</ele>
        <time>2019-07-15T10:37:43Z</time>
      </trkpt>
      <trkpt lat="47.84794" lon="-3.51854">
        <ele>49</ele>
        <time>2019-07-15T10:37:44Z</time>
      </trkpt>
      <trkpt lat="47.84801" lon="-3.51854">
        <ele>49</ele>
        <time>2019-07-15T10:37:45Z</time>
      </trkpt>
      <trkpt lat="47.84809" lon="-3.51856">
        <ele>49</ele>
        <time>2019-07-15T10:37:46Z</time>
      </trkpt>
      <trkpt lat="47.84816" lon="-3.51859">
        <ele>49</ele>
        <time>2019-07-15T10:37:47Z</time>
      </trkpt>
      <trkpt lat="47.84823" lon="-3.51864">
        <ele>49</ele>
        <time>2019-07-15T10:37:48Z</time>
      </trkpt>
      <trkpt lat="47.8483" lon="-3.51869">
        <ele>48</ele>
        <time>2019-07-15T10:37:49Z</time>
      </trkpt>
      <trkpt lat="47.84838" lon="-3.51873">
        <ele>48</ele>
        <time>2019-07-15T10:37:50Z</time>
      </trkpt>
      <trkpt lat="47.84845" lon="-3.5188">
        <ele>48</ele>
        <time>2019-07-15T10:37:51Z</time>
      </trkpt>
      <trkpt lat="47.84852" lon="-3.51886">
        <ele>48</ele>
        <time>2019-07-15T10:37:52Z</time>
      </trkpt>
      <trkpt lat="47.84859" lon="-3.51891">
        <ele>48</ele>
        <time>2019-07-15T10:37:53Z</time>
      </trkpt>
      <trkpt lat="47.84866" lon="-3.51895">
        <ele>48</ele>
        <time>2019-07-15T10:37:54Z</time>
      </trkpt>
      <trkpt lat="47.84872" lon="-3.51898">
        <ele>47</ele>
        <time>2019-07-15T10:37:55Z</time>
      </trkpt>
      <trkpt lat="47.84877" lon="-3.519">
        <ele>47</ele>
        <time>2019-07-15T10:37:56Z</time>
      </trkpt>
      <trkpt lat="47.84881" lon="-3.51902">
        <ele>47</ele>
        <time>2019-07-15T10:37:57Z</time>
      </trkpt>
      <trkpt lat="47.84885" lon="-3.51905">
        <ele>47</ele>
        <time>2019-07-15T10:37:58Z</time>
      </trkpt>
      <trkpt lat="47.84889" lon="-3.51906">
        <ele>47</ele>
        <time>2019-07-15T10:37:59Z</time>
      </trkpt>
      <trkpt lat="47.84893" lon="-3.51907">
        <ele>47</ele>
        <time>2019-07-15T10:38:00Z</time>
      </trkpt>
      <trkpt lat="47.84896" lon="-3.51906">
        <ele>47</ele>
        <time>2019-07-15T10:38:01Z</time>
      </trkpt>
      <trkpt lat="47.84899" lon="-3.51901">
        <ele>47</ele>
        <time>2019-07-15T10:38:02Z</time>
      </trkpt>
      <trkpt lat="47.84903" lon="-3.51894">
        <ele>47</ele>
        <time>2019-07-15T10:38:03Z</time>
      </trkpt>
      <trkpt lat="47.84907" lon="-3.51888">
        <ele>47</ele>
        <time>2019-07-15T10:38:04Z</time>
      </trkpt>
      <trkpt lat="47.84913" lon="-3.51882">
        <ele>47</ele>
        <time>2019-07-15T10:38:05Z</time>
      </trkpt>
      <trkpt lat="47.8492" lon="-3.51877">
        <ele>46</ele>
        <time>2019-07-15T10:38:06Z</time>
      </trkpt>
      <trkpt lat="47.84927" lon="-3.51873">
        <ele>46</ele>
        <time>2019-07-15T10:38:07Z</time>
      </trkpt>
      <trkpt lat="47.84933" lon="-3.51871">
        <ele>46</ele>
        <time>2019-07-15T10:38:08Z</time>
      </trkpt>
      <trkpt lat="47.84939" lon="-3.51871">
        <ele>46</ele>
        <time>2019-07-15T10:38:09Z</time>
      </trkpt>
      <trkpt lat="47.84945" lon="-3.51872">
        <ele>46</ele>
        <time>2019-07-15T10:38:10Z</time>
      </trkpt>
      <trkpt lat="47.8495" lon="-3.51873">
        <ele>46</ele>
        <time>2019-07-15T10:38:11Z</time>
      </trkpt>
      <trkpt lat="47.84954" lon="-3.51874">
        <ele>45</ele>
        <time>2019-07-15T10:38:12Z</time>
      </trkpt>
      <trkpt lat="47.84958" lon="-3.51875">
        <ele>45</ele>
        <time>2019-07-15T10:38:13Z</time>
      </trkpt>
      <trkpt lat="47.84962" lon="-3.51875">
        <ele>45</ele>
        <time>2019-07-15T10:38:14Z</time>
      </trkpt>
      <trkpt lat="47.84965" lon="-3.51876">
        <ele>45</ele>
        <time>2019-07-15T10:38:15Z</time>
      </trkpt>
      <trkpt lat="47.84969" lon="-3.51876">
        <ele>45</ele>
        <time>2019-07-15T10:38:16Z</time>
      </trkpt>
      <trkpt lat="47.84972" lon="-3.51876">
        <ele>45</ele>
        <time>2019-07-15T10:38:17Z</time>
      </trkpt>
      <trkpt lat="47.84975" lon="-3.51875">
        <ele>45</ele>
        <time>2019-07-15T10:38:18Z</time>
      </trkpt>
      <trkpt lat="47.84979" lon="-3.51874">
        <ele>44</ele>
        <time>2019-07-15T10:38:19Z</time>
      </trkpt>
      <trkpt lat="47.84982" lon="-3.51873">
        <ele>44</ele>
        <time>2019-07-15T10:38:20Z</time>
      </trkpt>
      <trkpt lat="47.84985" lon="-3.51871">
        <ele>44</ele>
        <time>2019-07-15T10:38:21Z</time>
      </trkpt>
      <trkpt lat="47.84988" lon="-3.5187">
        <ele>44</ele>
        <time>2019-07-15T10:38:22Z</time>
      </trkpt>
      <trkpt lat="47.84992" lon="-3.51868">
        <ele>44</ele>
        <time>2019-07-15T10:38:23Z</time>
      </trkpt>
      <trkpt lat="47.84995" lon="-3.51866">
        <ele>44</ele>
        <time>2019-07-15T10:38:24Z</time>
      </trkpt>
      <trkpt lat="47.84998" lon="-3.51863">
        <ele>44</ele>
        <time>2019-07-15T10:38:25Z</time>
      </trkpt>
      <trkpt lat="47.85001" lon="-3.51862">
        <ele>44</ele>
        <time>2019-07-15T10:38:26Z</time>
      </trkpt>
      <trkpt lat="47.85003" lon="-3.5186">
        <ele>44</ele>
        <time>2019-07-15T10:38:27Z</time>
      </trkpt>
      <trkpt lat="47.85006" lon="-3.51857">
        <ele>44</ele>
        <time>2019-07-15T10:38:28Z</time>
      </trkpt>
      <trkpt lat="47.85009" lon="-3.51855">
        <ele>44</ele>
        <time>2019-07-15T10:38:29Z</time>
      </trkpt>
      <trkpt lat="47.85011" lon="-3.51852">
        <ele>44</ele>
        <time>2019-07-15T10:38:30Z</time>
      </trkpt>
      <trkpt lat="47.85014" lon="-3.51849">
        <ele>44</ele>
        <time>2019-07-15T10:38:31Z</time>
      </trkpt>
      <trkpt lat="47.85017" lon="-3.51846">
        <ele>44</ele>
        <time>2019-07-15T10:38:32Z</time>
      </trkpt>
      <trkpt lat="47.85019" lon="-3.51843">
        <ele>44</ele>
        <time>2019-07-15T10:38:33Z</time>
      </trkpt>
      <trkpt lat="47.85021" lon="-3.5184">
        <ele>44</ele>
        <time>2019-07-15T10:38:34Z</time>
      </trkpt>
      <trkpt lat="47.85023" lon="-3.51838">
        <ele>44</ele>
        <time>2019-07-15T10:38:35Z</time>
      </trkpt>
      <trkpt lat="47.85024" lon="-3.51835">
        <ele>44</ele>
        <time>2019-07-15T10:38:36Z</time>
      </trkpt>
      <trkpt lat="47.85026" lon="-3.51834">
        <ele>44</ele>
        <time>2019-07-15T10:38:37Z</time>
      </trkpt>
      <trkpt lat="47.85027" lon="-3.51832">
        <ele>44</ele>
        <time>2019-07-15T10:38:38Z</time>
      </trkpt>
      <trkpt lat="47.85029" lon="-3.51829">
        <ele>44</ele>
        <time>2019-07-15T10:38:39Z</time>
      </trkpt>
      <trkpt lat="47.85032" lon="-3.51827">
        <ele>44</ele>
        <time>2019-07-15T10:38:40Z</time>
      </trkpt>
      <trkpt lat="47.85035" lon="-3.51825">
        <ele>44</ele>
        <time>2019-07-15T10:38:41Z</time>
      </trkpt>
      <trkpt lat="47.85037" lon="-3.51823">
        <ele>44</ele>
        <time>2019-07-15T10:38:42Z</time>
      </trkpt>
      <trkpt lat="47.8504" lon="-3.51822">
        <ele>44</ele>
        <time>2019-07-15T10:38:43Z</time>
      </trkpt>
      <trkpt lat="47.85042" lon="-3.51822">
        <ele>44</ele>
        <time>2019-07-15T10:38:44Z</time>
      </trkpt>
      <trkpt lat="47.85045" lon="-3.51823">
        <ele>44</ele>
        <time>2019-07-15T10:38:45Z</time>
      </trkpt>
      <trkpt lat="47.85047" lon="-3.51826">
        <ele>44</ele>
        <time>2019-07-15T10:38:46Z</time>
      </trkpt>
      <trkpt lat="47.8505" lon="-3.51829">
        <ele>43</ele>
        <time>2019-07-15T10:38:47Z</time>
      </trkpt>
      <trkpt lat="47.85052" lon="-3.51832">
        <ele>43</ele>
        <time>2019-07-15T10:38:48Z</time>
      </trkpt>
      <trkpt lat="47.85054" lon="-3.51835">
        <ele>43</ele>
        <time>2019-07-15T10:38:49Z</time>
      </trkpt>
      <trkpt lat="47.85056" lon="-3.51838">
        <ele>43</ele>
        <time>2019-07-15T10:38:50Z</time>
      </trkpt>
      <trkpt lat="47.85057" lon="-3.51841">
        <ele>43</ele>
        <time>2019-07-15T10:38:51Z</time>
      </trkpt>
      <trkpt lat="47.85058" lon="-3.51844">
        <ele>43</ele>
        <time>2019-07-15T10:38:52Z</time>
      </trkpt>
      <trkpt lat="47.85059" lon="-3.51846">
        <ele>42</ele>
        <time>2019-07-15T10:38:53Z</time>
      </trkpt>
      <trkpt lat="47.85061" lon="-3.51848">
        <ele>42</ele>
        <time>2019-07-15T10:38:54Z</time>
      </trkpt>
      <trkpt lat="47.85063" lon="-3.5185">
        <ele>42</ele>
        <time>2019-07-15T10:38:55Z</time>
      </trkpt>
      <trkpt lat="47.85064" lon="-3.51852">
        <ele>42</ele>
        <time>2019-07-15T10:38:56Z</time>
      </trkpt>
      <trkpt lat="47.85066" lon="-3.51854">
        <ele>42</ele>
        <time>2019-07-15T10:38:57Z</time>
      </trkpt>
      <trkpt lat="47.85067" lon="-3.51856">
        <ele>41</ele>
        <time>2019-07-15T10:38:58Z</time>
      </trkpt>
      <trkpt lat="47.85068" lon="-3.51858">
        <ele>41</ele>
        <time>2019-07-15T10:38:59Z</time>
      </trkpt>
      <trkpt lat="47.85069" lon="-3.51859">
        <ele>41</ele>
        <time>2019-07-15T10:39:00Z</time>
      </trkpt>
      <trkpt lat="47.8507" lon="-3.51861">
        <ele>41</ele>
        <time>2019-07-15T10:39:01Z</time>
      </trkpt>
      <trkpt lat="47.85071" lon="-3.51863">
        <ele>41</ele>
        <time>2019-07-15T10:39:02Z</time>
      </trkpt>
      <trkpt lat="47.85072" lon="-3.51865">
        <ele>41</ele>
        <time>2019-07-15T10:39:03Z</time>
      </trkpt>
      <trkpt lat="47.85073" lon="-3.51868">
        <ele>42</ele>
        <time>2019-07-15T10:39:04Z</time>
      </trkpt>
      <trkpt lat="47.85074" lon="-3.5187">
        <ele>42</ele>
        <time>2019-07-15T10:39:05Z</time>
      </trkpt>
      <trkpt lat="47.85075" lon="-3.51872">
        <ele>42</ele>
        <time>2019-07-15T10:39:06Z</time>
      </trkpt>
      <trkpt lat="47.85076" lon="-3.51875">
        <ele>42</ele>
        <time>2019-07-15T10:39:07Z</time>
      </trkpt>
      <trkpt lat="47.85077" lon="-3.51877">
        <ele>42</ele>
        <time>2019-07-15T10:39:08Z</time>
      </trkpt>
      <trkpt lat="47.85078" lon="-3.51879">
        <ele>42</ele>
        <time>2019-07-15T10:39:09Z</time>
      </trkpt>
      <trkpt lat="47.85079" lon="-3.51881">
        <ele>42</ele>
        <time>2019-07-15T10:39:10Z</time>
      </trkpt>
      <trkpt lat="47.8508" lon="-3.51883">
        <ele>42</ele>
        <time>2019-07-15T10:39:11Z</time>
      </trkpt>
      <trkpt lat="47.8508" lon="-3.51885">
        <ele>42</ele>
        <time>2019-07-15T10:39:12Z</time>
      </trkpt>
      <trkpt lat="47.85081" lon="-3.51887">
        <ele>42</ele>
        <time>2019-07-15T10:39:13Z</time>
      </trkpt>
      <trkpt lat="47.85081" lon="-3.51888">
        <ele>42</ele>
        <time>2019-07-15T10:39:14Z</time>
      </trkpt>
      <trkpt lat="47.85081" lon="-3.5189">
        <ele>43</ele>
        <time>2019-07-15T10:39:15Z</time>
      </trkpt>
      <trkpt lat="47.8508" lon="-3.51891">
        <ele>43</ele>
        <time>2019-07-15T10:39:16Z</time>
      </trkpt>
      <trkpt lat="47.8508" lon="-3.51893">
        <ele>43</ele>
        <time>2019-07-15T10:39:17Z</time>
      </trkpt>
      <trkpt lat="47.8508" lon="-3.51893">
        <ele>43</ele>
        <time>2019-07-15T10:39:18Z</time>
      </trkpt>
      <trkpt lat="47.8508" lon="-3.51894">
        <ele>43</ele>
        <time>2019-07-15T10:39:19Z</time>
      </trkpt>
      <trkpt lat="47.8508" lon="-3.51894">
        <ele>43</ele>
        <time>2019-07-15T10:39:20Z</time>
      </trkpt>
      <trkpt lat="47.8508" lon="-3.51894">
        <ele>43</ele>
        <time>2019-07-15T10:39:21Z</time>
      </trkpt>
      <trkpt lat="47.85084" lon="-3.51898">
        <ele>45</ele>
        <time>2019-07-15T10:39:22Z</time>
      </trkpt>
      <trkpt lat="47.85086" lon="-3.51899">
        <ele>45</ele>
        <time>2019-07-15T10:39:23Z</time>
      </trkpt>
      <trkpt lat="47.85088" lon="-3.519">
        <ele>45</ele>
        <time>2019-07-15T10:39:24Z</time>
      </trkpt>
      <trkpt lat="47.8509" lon="-3.51902">
        <ele>45</ele>
        <time>2019-07-15T10:39:25Z</time>
      </trkpt>
      <trkpt lat="47.85092" lon="-3.51903">
        <ele>45</ele>
        <time>2019-07-15T10:39:26Z</time>
      </trkpt>
      <trkpt lat="47.85095" lon="-3.51905">
        <ele>45</ele>
        <time>2019-07-15T10:39:27Z</time>
      </trkpt>
      <trkpt lat="47.85097" lon="-3.51906">
        <ele>45</ele>
        <time>2019-07-15T10:39:28Z</time>
      </trkpt>
      <trkpt lat="47.85099" lon="-3.51907">
        <ele>45</ele>
        <time>2019-07-15T10:39:29Z</time>
      </trkpt>
      <trkpt lat="47.85102" lon="-3.51909">
        <ele>45</ele>
        <time>2019-07-15T10:39:30Z</time>
      </trkpt>
      <trkpt lat="47.85105" lon="-3.5191">
        <ele>45</ele>
        <time>2019-07-15T10:39:31Z</time>
      </trkpt>
      <trkpt lat="47.85108" lon="-3.51912">
        <ele>45</ele>
        <time>2019-07-15T10:39:32Z</time>
      </trkpt>
      <trkpt lat="47.85111" lon="-3.51914">
        <ele>45</ele>
        <time>2019-07-15T10:39:33Z</time>
      </trkpt>
      <trkpt lat="47.85113" lon="-3.51916">
        <ele>45</ele>
        <time>2019-07-15T10:39:34Z</time>
      </trkpt>
      <trkpt lat="47.85115" lon="-3.51916">
        <ele>45</ele>
        <time>2019-07-15T10:39:35Z</time>
      </trkpt>
      <trkpt lat="47.85118" lon="-3.51917">
        <ele>44</ele>
        <time>2019-07-15T10:39:36Z</time>
      </trkpt>
      <trkpt lat="47.85119" lon="-3.51918">
        <ele>44</ele>
        <time>2019-07-15T10:39:37Z</time>
      </trkpt>
      <trkpt lat="47.85122" lon="-3.51919">
        <ele>44</ele>
        <time>2019-07-15T10:39:38Z</time>
      </trkpt>
      <trkpt lat="47.85125" lon="-3.5192">
        <ele>44</ele>
        <time>2019-07-15T10:39:39Z</time>
      </trkpt>
      <trkpt lat="47.85127" lon="-3.51921">
        <ele>44</ele>
        <time>2019-07-15T10:39:40Z</time>
      </trkpt>
      <trkpt lat="47.8513" lon="-3.51922">
        <ele>44</ele>
        <time>2019-07-15T10:39:41Z</time>
      </trkpt>
      <trkpt lat="47.85132" lon="-3.51923">
        <ele>44</ele>
        <time>2019-07-15T10:39:42Z</time>
      </trkpt>
      <trkpt lat="47.85135" lon="-3.51925">
        <ele>44</ele>
        <time>2019-07-15T10:39:43Z</time>
      </trkpt>
      <trkpt lat="47.85138" lon="-3.51926">
        <ele>44</ele>
        <time>2019-07-15T10:39:44Z</time>
      </trkpt>
      <trkpt lat="47.85141" lon="-3.51927">
        <ele>44</ele>
        <time>2019-07-15T10:39:45Z</time>
      </trkpt>
      <trkpt lat="47.85144" lon="-3.51928">
        <ele>44</ele>
        <time>2019-07-15T10:39:46Z</time>
      </trkpt>
      <trkpt lat="47.85146" lon="-3.5193">
        <ele>44</ele>
        <time>2019-07-15T10:39:47Z</time>
      </trkpt>
      <trkpt lat="47.85149" lon="-3.51931">
        <ele>45</ele>
        <time>2019-07-15T10:39:48Z</time>
      </trkpt>
      <trkpt lat="47.85151" lon="-3.51932">
        <ele>45</ele>
        <time>2019-07-15T10:39:49Z</time>
      </trkpt>
      <trkpt lat="47.85153" lon="-3.51934">
        <ele>45</ele>
        <time>2019-07-15T10:39:50Z</time>
      </trkpt>
      <trkpt lat="47.85155" lon="-3.51936">
        <ele>45</ele>
        <time>2019-07-15T10:39:51Z</time>
      </trkpt>
      <trkpt lat="47.85157" lon="-3.51939">
        <ele>45</ele>
        <time>2019-07-15T10:39:52Z</time>
      </trkpt>
      <trkpt lat="47.85159" lon="-3.51941">
        <ele>45</ele>
        <time>2019-07-15T10:39:53Z</time>
      </trkpt>
      <trkpt lat="47.85161" lon="-3.51944">
        <ele>45</ele>
        <time>2019-07-15T10:39:54Z</time>
      </trkpt>
      <trkpt lat="47.85163" lon="-3.51947">
        <ele>45</ele>
        <time>2019-07-15T10:39:55Z</time>
      </trkpt>
      <trkpt lat="47.85165" lon="-3.51951">
        <ele>45</ele>
        <time>2019-07-15T10:39:56Z</time>
      </trkpt>
      <trkpt lat="47.85168" lon="-3.51954">
        <ele>45</ele>
        <time>2019-07-15T10:39:57Z</time>
      </trkpt>
      <trkpt lat="47.8517" lon="-3.51957">
        <ele>45</ele>
        <time>2019-07-15T10:39:58Z</time>
      </trkpt>
      <trkpt lat="47.85172" lon="-3.51961">
        <ele>45</ele>
        <time>2019-07-15T10:39:59Z</time>
      </trkpt>
      <trkpt lat="47.85175" lon="-3.51964">
        <ele>45</ele>
        <time>2019-07-15T10:40:00Z</time>
      </trkpt>
      <trkpt lat="47.85177" lon="-3.51966">
        <ele>45</ele>
        <time>2019-07-15T10:40:01Z</time>
      </trkpt>
      <trkpt lat="47.85178" lon="-3.5197">
        <ele>45</ele>
        <time>2019-07-15T10:40:02Z</time>
      </trkpt>
      <trkpt lat="47.8518" lon="-3.51974">
        <ele>45</ele>
        <time>2019-07-15T10:40:03Z</time>
      </trkpt>
      <trkpt lat="47.85182" lon="-3.51978">
        <ele>45</ele>
        <time>2019-07-15T10:40:04Z</time>
      </trkpt>
      <trkpt lat="47.85184" lon="-3.51982">
        <ele>45</ele>
        <time>2019-07-15T10:40:05Z</time>
      </trkpt>
      <trkpt lat="47.85186" lon="-3.51986">
        <ele>45</ele>
        <time>2019-07-15T10:40:06Z</time>
      </trkpt>
      <trkpt lat="47.85188" lon="-3.51989">
        <ele>45</ele>
        <time>2019-07-15T10:40:07Z</time>
      </trkpt>
      <trkpt lat="47.8519" lon="-3.51992">
        <ele>45</ele>
        <time>2019-07-15T10:40:08Z</time>
      </trkpt>
      <trkpt lat="47.85193" lon="-3.51995">
        <ele>45</ele>
        <time>2019-07-15T10:40:09Z</time>
      </trkpt>
      <trkpt lat="47.85195" lon="-3.51997">
        <ele>46</ele>
        <time>2019-07-15T10:40:10Z</time>
      </trkpt>
      <trkpt lat="47.85199" lon="-3.51999">
        <ele>46</ele>
        <time>2019-07-15T10:40:11Z</time>
      </trkpt>
      <trkpt lat="47.85202" lon="-3.52001">
        <ele>46</ele>
        <time>2019-07-15T10:40:12Z</time>
      </trkpt>
      <trkpt lat="47.85205" lon="-3.52004">
        <ele>46</ele>
        <time>2019-07-15T10:40:13Z</time>
      </trkpt>
      <trkpt lat="47.85208" lon="-3.52006">
        <ele>46</ele>
        <time>2019-07-15T10:40:14Z</time>
      </trkpt>
      <trkpt lat="47.85211" lon="-3.52008">
        <ele>46</ele>
        <time>2019-07-15T10:40:15Z</time>
      </trkpt>
      <trkpt lat="47.85214" lon="-3.5201">
        <ele>46</ele>
        <time>2019-07-15T10:40:16Z</time>
      </trkpt>
      <trkpt lat="47.85217" lon="-3.52013">
        <ele>47</ele>
        <time>2019-07-15T10:40:17Z</time>
      </trkpt>
      <trkpt lat="47.8522" lon="-3.52016">
        <ele>47</ele>
        <time>2019-07-15T10:40:18Z</time>
      </trkpt>
      <trkpt lat="47.85223" lon="-3.5202">
        <ele>47</ele>
        <time>2019-07-15T10:40:19Z</time>
      </trkpt>
      <trkpt lat="47.85226" lon="-3.52022">
        <ele>47</ele>
        <time>2019-07-15T10:40:20Z</time>
      </trkpt>
      <trkpt lat="47.8523" lon="-3.52024">
        <ele>47</ele>
        <time>2019-07-15T10:40:21Z</time>
      </trkpt>
      <trkpt lat="47.85234" lon="-3.52025">
        <ele>48</ele>
        <time>2019-07-15T10:40:22Z</time>
      </trkpt>
      <trkpt lat="47.85237" lon="-3.52027">
        <ele>48</ele>
        <time>2019-07-15T10:40:23Z</time>
      </trkpt>
      <trkpt lat="47.85241" lon="-3.5203">
        <ele>48</ele>
        <time>2019-07-15T10:40:24Z</time>
      </trkpt>
      <trkpt lat="47.85243" lon="-3.52032">
        <ele>48</ele>
        <time>2019-07-15T10:40:25Z</time>
      </trkpt>
      <trkpt lat="47.85245" lon="-3.52034">
        <ele>49</ele>
        <time>2019-07-15T10:40:26Z</time>
      </trkpt>
      <trkpt lat="47.85247" lon="-3.52037">
        <ele>49</ele>
        <time>2019-07-15T10:40:27Z</time>
      </trkpt>
      <trkpt lat="47.85249" lon="-3.5204">
        <ele>49</ele>
        <time>2019-07-15T10:40:28Z</time>
      </trkpt>
      <trkpt lat="47.85252" lon="-3.52043">
        <ele>49</ele>
        <time>2019-07-15T10:40:29Z</time>
      </trkpt>
      <trkpt lat="47.85256" lon="-3.52047">
        <ele>49</ele>
        <time>2019-07-15T10:40:30Z</time>
      </trkpt>
      <trkpt lat="47.85259" lon="-3.5205">
        <ele>49</ele>
        <time>2019-07-15T10:40:31Z</time>
      </trkpt>
      <trkpt lat="47.85262" lon="-3.52053">
        <ele>49</ele>
        <time>2019-07-15T10:40:32Z</time>
      </trkpt>
      <trkpt lat="47.85266" lon="-3.52055">
        <ele>50</ele>
        <time>2019-07-15T10:40:33Z</time>
      </trkpt>
      <trkpt lat="47.8527" lon="-3.52057">
        <ele>50</ele>
        <time>2019-07-15T10:40:34Z</time>
      </trkpt>
      <trkpt lat="47.85273" lon="-3.5206">
        <ele>50</ele>
        <time>2019-07-15T10:40:35Z</time>
      </trkpt>
      <trkpt lat="47.85277" lon="-3.52062">
        <ele>50</ele>
        <time>2019-07-15T10:40:36Z</time>
      </trkpt>
      <trkpt lat="47.8528" lon="-3.52063">
        <ele>50</ele>
        <time>2019-07-15T10:40:37Z</time>
      </trkpt>
      <trkpt lat="47.85284" lon="-3.52064">
        <ele>50</ele>
        <time>2019-07-15T10:40:38Z</time>
      </trkpt>
      <trkpt lat="47.85288" lon="-3.52065">
        <ele>50</ele>
        <time>2019-07-15T10:40:39Z</time>
      </trkpt>
      <trkpt lat="47.85291" lon="-3.52067">
        <ele>50</ele>
        <time>2019-07-15T10:40:40Z</time>
      </trkpt>
      <trkpt lat="47.85294" lon="-3.52068">
        <ele>50</ele>
        <time>2019-07-15T10:40:41Z</time>
      </trkpt>
      <trkpt lat="47.85298" lon="-3.52069">
        <ele>50</ele>
        <time>2019-07-15T10:40:42Z</time>
      </trkpt>
      <trkpt lat="47.85301" lon="-3.52069">
        <ele>50</ele>
        <time>2019-07-15T10:40:43Z</time>
      </trkpt>
      <trkpt lat="47.85304" lon="-3.5207">
        <ele>50</ele>
        <time>2019-07-15T10:40:44Z</time>
      </trkpt>
      <trkpt lat="47.85308" lon="-3.52072">
        <ele>50</ele>
        <time>2019-07-15T10:40:45Z</time>
      </trkpt>
      <trkpt lat="47.85312" lon="-3.52073">
        <ele>51</ele>
        <time>2019-07-15T10:40:46Z</time>
      </trkpt>
      <trkpt lat="47.85316" lon="-3.52075">
        <ele>51</ele>
        <time>2019-07-15T10:40:47Z</time>
      </trkpt>
      <trkpt lat="47.8532" lon="-3.52078">
        <ele>51</ele>
        <time>2019-07-15T10:40:48Z</time>
      </trkpt>
      <trkpt lat="47.85324" lon="-3.5208">
        <ele>51</ele>
        <time>2019-07-15T10:40:49Z</time>
      </trkpt>
      <trkpt lat="47.85327" lon="-3.52082">
        <ele>51</ele>
        <time>2019-07-15T10:40:50Z</time>
      </trkpt>
      <trkpt lat="47.85331" lon="-3.52084">
        <ele>52</ele>
        <time>2019-07-15T10:40:51Z</time>
      </trkpt>
      <trkpt lat="47.85334" lon="-3.52085">
        <ele>52</ele>
        <time>2019-07-15T10:40:52Z</time>
      </trkpt>
      <trkpt lat="47.85337" lon="-3.52087">
        <ele>52</ele>
        <time>2019-07-15T10:40:53Z</time>
      </trkpt>
      <trkpt lat="47.8534" lon="-3.52088">
        <ele>52</ele>
        <time>2019-07-15T10:40:54Z</time>
      </trkpt>
      <trkpt lat="47.85342" lon="-3.52091">
        <ele>52</ele>
        <time>2019-07-15T10:40:55Z</time>
      </trkpt>
      <trkpt lat="47.85345" lon="-3.52092">
        <ele>52</ele>
        <time>2019-07-15T10:40:56Z</time>
      </trkpt>
      <trkpt lat="47.85347" lon="-3.52096">
        <ele>52</ele>
        <time>2019-07-15T10:40:57Z</time>
      </trkpt>
      <trkpt lat="47.8535" lon="-3.52099">
        <ele>53</ele>
        <time>2019-07-15T10:40:58Z</time>
      </trkpt>
      <trkpt lat="47.85353" lon="-3.52103">
        <ele>53</ele>
        <time>2019-07-15T10:40:59Z</time>
      </trkpt>
      <trkpt lat="47.85357" lon="-3.52106">
        <ele>53</ele>
        <time>2019-07-15T10:41:00Z</time>
      </trkpt>
      <trkpt lat="47.85361" lon="-3.52109">
        <ele>53</ele>
        <time>2019-07-15T10:41:01Z</time>
      </trkpt>
      <trkpt lat="47.85364" lon="-3.52114">
        <ele>53</ele>
        <time>2019-07-15T10:41:02Z</time>
      </trkpt>
      <trkpt lat="47.85367" lon="-3.52118">
        <ele>53</ele>
        <time>2019-07-15T10:41:03Z</time>
      </trkpt>
      <trkpt lat="47.8537" lon="-3.52122">
        <ele>53</ele>
        <time>2019-07-15T10:41:04Z</time>
      </trkpt>
      <trkpt lat="47.85374" lon="-3.52126">
        <ele>53</ele>
        <time>2019-07-15T10:41:05Z</time>
      </trkpt>
      <trkpt lat="47.85376" lon="-3.52131">
        <ele>53</ele>
        <time>2019-07-15T10:41:06Z</time>
      </trkpt>
      <trkpt lat="47.85379" lon="-3.52136">
        <ele>53</ele>
        <time>2019-07-15T10:41:07Z</time>
      </trkpt>
      <trkpt lat="47.85381" lon="-3.5214">
        <ele>53</ele>
        <time>2019-07-15T10:41:08Z</time>
      </trkpt>
      <trkpt lat="47.85385" lon="-3.52144">
        <ele>53</ele>
        <time>2019-07-15T10:41:09Z</time>
      </trkpt>
      <trkpt lat="47.85389" lon="-3.52149">
        <ele>53</ele>
        <time>2019-07-15T10:41:10Z</time>
      </trkpt>
      <trkpt lat="47.85393" lon="-3.52153">
        <ele>53</ele>
        <time>2019-07-15T10:41:11Z</time>
      </trkpt>
      <trkpt lat="47.85396" lon="-3.52158">
        <ele>53</ele>
        <time>2019-07-15T10:41:12Z</time>
      </trkpt>
      <trkpt lat="47.854" lon="-3.52162">
        <ele>53</ele>
        <time>2019-07-15T10:41:13Z</time>
      </trkpt>
      <trkpt lat="47.85403" lon="-3.52166">
        <ele>53</ele>
        <time>2019-07-15T10:41:14Z</time>
      </trkpt>
      <trkpt lat="47.85406" lon="-3.52169">
        <ele>53</ele>
        <time>2019-07-15T10:41:15Z</time>
      </trkpt>
      <trkpt lat="47.85409" lon="-3.52173">
        <ele>53</ele>
        <time>2019-07-15T10:41:16Z</time>
      </trkpt>
      <trkpt lat="47.85413" lon="-3.52177">
        <ele>53</ele>
        <time>2019-07-15T10:41:17Z</time>
      </trkpt>
      <trkpt lat="47.85416" lon="-3.52181">
        <ele>53</ele>
        <time>2019-07-15T10:41:18Z</time>
      </trkpt>
      <trkpt lat="47.8542" lon="-3.52185">
        <ele>53</ele>
        <time>2019-07-15T10:41:19Z</time>
      </trkpt>
      <trkpt lat="47.85424" lon="-3.52189">
        <ele>53</ele>
        <time>2019-07-15T10:41:20Z</time>
      </trkpt>
      <trkpt lat="47.85429" lon="-3.52193">
        <ele>53</ele>
        <time>2019-07-15T10:41:21Z</time>
      </trkpt>
      <trkpt lat="47.85434" lon="-3.52196">
        <ele>53</ele>
        <time>2019-07-15T10:41:22Z</time>
      </trkpt>
      <trkpt lat="47.85439" lon="-3.522">
        <ele>53</ele>
        <time>2019-07-15T10:41:23Z</time>
      </trkpt>
      <trkpt lat="47.85443" lon="-3.52205">
        <ele>53</ele>
        <time>2019-07-15T10:41:24Z</time>
      </trkpt>
      <trkpt lat="47.85446" lon="-3.52209">
        <ele>53</ele>
        <time>2019-07-15T10:41:25Z</time>
      </trkpt>
      <trkpt lat="47.85449" lon="-3.52216">
        <ele>52</ele>
        <time>2019-07-15T10:41:26Z</time>
      </trkpt>
      <trkpt lat="47.85452" lon="-3.52222">
        <ele>52</ele>
        <time>2019-07-15T10:41:27Z</time>
      </trkpt>
      <trkpt lat="47.85456" lon="-3.52228">
        <ele>52</ele>
        <time>2019-07-15T10:41:28Z</time>
      </trkpt>
      <trkpt lat="47.85459" lon="-3.52235">
        <ele>51</ele>
        <time>2019-07-15T10:41:29Z</time>
      </trkpt>
      <trkpt lat="47.85461" lon="-3.52241">
        <ele>51</ele>
        <time>2019-07-15T10:41:30Z</time>
      </trkpt>
      <trkpt lat="47.85464" lon="-3.52247">
        <ele>51</ele>
        <time>2019-07-15T10:41:31Z</time>
      </trkpt>
      <trkpt lat="47.85466" lon="-3.52253">
        <ele>51</ele>
        <time>2019-07-15T10:41:32Z</time>
      </trkpt>
      <trkpt lat="47.85468" lon="-3.52258">
        <ele>51</ele>
        <time>2019-07-15T10:41:33Z</time>
      </trkpt>
      <trkpt lat="47.85469" lon="-3.52264">
        <ele>50</ele>
        <time>2019-07-15T10:41:34Z</time>
      </trkpt>
      <trkpt lat="47.8547" lon="-3.52272">
        <ele>50</ele>
        <time>2019-07-15T10:41:35Z</time>
      </trkpt>
      <trkpt lat="47.8547" lon="-3.52279">
        <ele>50</ele>
        <time>2019-07-15T10:41:36Z</time>
      </trkpt>
      <trkpt lat="47.85469" lon="-3.52287">
        <ele>50</ele>
        <time>2019-07-15T10:41:37Z</time>
      </trkpt>
      <trkpt lat="47.85468" lon="-3.52295">
        <ele>50</ele>
        <time>2019-07-15T10:41:38Z</time>
      </trkpt>
      <trkpt lat="47.85466" lon="-3.52302">
        <ele>50</ele>
        <time>2019-07-15T10:41:39Z</time>
      </trkpt>
      <trkpt lat="47.85464" lon="-3.52308">
        <ele>50</ele>
        <time>2019-07-15T10:41:40Z</time>
      </trkpt>
      <trkpt lat="47.85463" lon="-3.52314">
        <ele>50</ele>
        <time>2019-07-15T10:41:41Z</time>
      </trkpt>
      <trkpt lat="47.85461" lon="-3.5232">
        <ele>50</ele>
        <time>2019-07-15T10:41:42Z</time>
      </trkpt>
      <trkpt lat="47.85459" lon="-3.52327">
        <ele>50</ele>
        <time>2019-07-15T10:41:43Z</time>
      </trkpt>
      <trkpt lat="47.85458" lon="-3.52333">
        <ele>50</ele>
        <time>2019-07-15T10:41:44Z</time>
      </trkpt>
      <trkpt lat="47.85457" lon="-3.52338">
        <ele>50</ele>
        <time>2019-07-15T10:41:45Z</time>
      </trkpt>
      <trkpt lat="47.85457" lon="-3.52344">
        <ele>50</ele>
        <time>2019-07-15T10:41:46Z</time>
      </trkpt>
      <trkpt lat="47.85457" lon="-3.5235">
        <ele>50</ele>
        <time>2019-07-15T10:41:47Z</time>
      </trkpt>
      <trkpt lat="47.85457" lon="-3.52355">
        <ele>50</ele>
        <time>2019-07-15T10:41:48Z</time>
      </trkpt>
      <trkpt lat="47.85457" lon="-3.5236">
        <ele>50</ele>
        <time>2019-07-15T10:41:49Z</time>
      </trkpt>
      <trkpt lat="47.85457" lon="-3.52363">
        <ele>50</ele>
        <time>2019-07-15T10:41:50Z</time>
      </trkpt>
      <trkpt lat="47.85457" lon="-3.52367">
        <ele>50</ele>
        <time>2019-07-15T10:41:51Z</time>
      </trkpt>
      <trkpt lat="47.85457" lon="-3.5237">
        <ele>50</ele>
        <time>2019-07-15T10:41:52Z</time>
      </trkpt>
      <trkpt lat="47.85458" lon="-3.52373">
        <ele>50</ele>
        <time>2019-07-15T10:41:53Z</time>
      </trkpt>
      <trkpt lat="47.85459" lon="-3.52376">
        <ele>50</ele>
        <time>2019-07-15T10:41:54Z</time>
      </trkpt>
      <trkpt lat="47.8546" lon="-3.5238">
        <ele>50</ele>
        <time>2019-07-15T10:41:55Z</time>
      </trkpt>
      <trkpt lat="47.8546" lon="-3.52383">
        <ele>50</ele>
        <time>2019-07-15T10:41:56Z</time>
      </trkpt>
      <trkpt lat="47.85462" lon="-3.52387">
        <ele>50</ele>
        <time>2019-07-15T10:41:57Z</time>
      </trkpt>
      <trkpt lat="47.85463" lon="-3.5239">
        <ele>50</ele>
        <time>2019-07-15T10:41:58Z</time>
      </trkpt>
      <trkpt lat="47.85463" lon="-3.52393">
        <ele>50</ele>
        <time>2019-07-15T10:41:59Z</time>
      </trkpt>
      <trkpt lat="47.85464" lon="-3.52396">
        <ele>50</ele>
        <time>2019-07-15T10:42:00Z</time>
      </trkpt>
      <trkpt lat="47.85465" lon="-3.52399">
        <ele>49</ele>
        <time>2019-07-15T10:42:01Z</time>
      </trkpt>
      <trkpt lat="47.85466" lon="-3.52402">
        <ele>49</ele>
        <time>2019-07-15T10:42:02Z</time>
      </trkpt>
      <trkpt lat="47.85467" lon="-3.52406">
        <ele>49</ele>
        <time>2019-07-15T10:42:03Z</time>
      </trkpt>
      <trkpt lat="47.85469" lon="-3.52409">
        <ele>49</ele>
        <time>2019-07-15T10:42:04Z</time>
      </trkpt>
      <trkpt lat="47.8547" lon="-3.52412">
        <ele>49</ele>
        <time>2019-07-15T10:42:05Z</time>
      </trkpt>
      <trkpt lat="47.85471" lon="-3.52415">
        <ele>49</ele>
        <time>2019-07-15T10:42:06Z</time>
      </trkpt>
      <trkpt lat="47.85472" lon="-3.52418">
        <ele>49</ele>
        <time>2019-07-15T10:42:07Z</time>
      </trkpt>
      <trkpt lat="47.85473" lon="-3.52422">
        <ele>49</ele>
        <time>2019-07-15T10:42:08Z</time>
      </trkpt>
      <trkpt lat="47.85474" lon="-3.52425">
        <ele>49</ele>
        <time>2019-07-15T10:42:09Z</time>
      </trkpt>
      <trkpt lat="47.85475" lon="-3.52427">
        <ele>49</ele>
        <time>2019-07-15T10:42:10Z</time>
      </trkpt>
      <trkpt lat="47.85476" lon="-3.52429">
        <ele>49</ele>
        <time>2019-07-15T10:42:11Z</time>
      </trkpt>
      <trkpt lat="47.85477" lon="-3.52432">
        <ele>48</ele>
        <time>2019-07-15T10:42:12Z</time>
      </trkpt>
      <trkpt lat="47.85477" lon="-3.52435">
        <ele>48</ele>
        <time>2019-07-15T10:42:13Z</time>
      </trkpt>
      <trkpt lat="47.85478" lon="-3.52438">
        <ele>48</ele>
        <time>2019-07-15T10:42:14Z</time>
      </trkpt>
      <trkpt lat="47.85478" lon="-3.52441">
        <ele>48</ele>
        <time>2019-07-15T10:42:15Z</time>
      </trkpt>
      <trkpt lat="47.85479" lon="-3.52444">
        <ele>48</ele>
        <time>2019-07-15T10:42:16Z</time>
      </trkpt>
      <trkpt lat="47.85479" lon="-3.52446">
        <ele>48</ele>
        <time>2019-07-15T10:42:17Z</time>
      </trkpt>
      <trkpt lat="47.85478" lon="-3.52448">
        <ele>48</ele>
        <time>2019-07-15T10:42:18Z</time>
      </trkpt>
      <trkpt lat="47.85478" lon="-3.52449">
        <ele>47</ele>
        <time>2019-07-15T10:42:19Z</time>
      </trkpt>
      <trkpt lat="47.85477" lon="-3.52451">
        <ele>47</ele>
        <time>2019-07-15T10:42:20Z</time>
      </trkpt>
      <trkpt lat="47.85477" lon="-3.52452">
        <ele>47</ele>
        <time>2019-07-15T10:42:21Z</time>
      </trkpt>
      <trkpt lat="47.85477" lon="-3.52453">
        <ele>47</ele>
        <time>2019-07-15T10:42:22Z</time>
      </trkpt>
      <trkpt lat="47.85477" lon="-3.52455">
        <ele>47</ele>
        <time>2019-07-15T10:42:23Z</time>
      </trkpt>
      <trkpt lat="47.85477" lon="-3.52456">
        <ele>47</ele>
        <time>2019-07-15T10:42:24Z</time>
      </trkpt>
      <trkpt lat="47.85476" lon="-3.52457">
        <ele>47</ele>
        <time>2019-07-15T10:42:25Z</time>
      </trkpt>
      <trkpt lat="47.85476" lon="-3.52459">
        <ele>47</ele>
        <time>2019-07-15T10:42:26Z</time>
      </trkpt>
      <trkpt lat="47.85475" lon="-3.52461">
        <ele>47</ele>
        <time>2019-07-15T10:42:27Z</time>
      </trkpt>
      <trkpt lat="47.85475" lon="-3.52462">
        <ele>47</ele>
        <time>2019-07-15T10:42:28Z</time>
      </trkpt>
      <trkpt lat="47.85475" lon="-3.52463">
        <ele>47</ele>
        <time>2019-07-15T10:42:29Z</time>
      </trkpt>
      <trkpt lat="47.85475" lon="-3.52464">
        <ele>47</ele>
        <time>2019-07-15T10:42:30Z</time>
      </trkpt>
      <trkpt lat="47.85475" lon="-3.52465">
        <ele>47</ele>
        <time>2019-07-15T10:42:31Z</time>
      </trkpt>
      <trkpt lat="47.85477" lon="-3.52465">
        <ele>47</ele>
        <time>2019-07-15T10:42:32Z</time>
      </trkpt>
      <trkpt lat="47.85478" lon="-3.52463">
        <ele>47</ele>
        <time>2019-07-15T10:42:33Z</time>
      </trkpt>
      <trkpt lat="47.8548" lon="-3.52462">
        <ele>47</ele>
        <time>2019-07-15T10:42:34Z</time>
      </trkpt>
      <trkpt lat="47.85481" lon="-3.52461">
        <ele>47</ele>
        <time>2019-07-15T10:42:35Z</time>
      </trkpt>
      <trkpt lat="47.85483" lon="-3.5246">
        <ele>48</ele>
        <time>2019-07-15T10:42:36Z</time>
      </trkpt>
      <trkpt lat="47.85485" lon="-3.5246">
        <ele>48</ele>
        <time>2019-07-15T10:42:37Z</time>
      </trkpt>
      <trkpt lat="47.85486" lon="-3.5246">
        <ele>48</ele>
        <time>2019-07-15T10:42:38Z</time>
      </trkpt>
      <trkpt lat="47.85488" lon="-3.5246">
        <ele>48</ele>
        <time>2019-07-15T10:42:39Z</time>
      </trkpt>
      <trkpt lat="47.85489" lon="-3.5246">
        <ele>48</ele>
        <time>2019-07-15T10:42:40Z</time>
      </trkpt>
      <trkpt lat="47.85491" lon="-3.52461">
        <ele>48</ele>
        <time>2019-07-15T10:42:41Z</time>
      </trkpt>
      <trkpt lat="47.85493" lon="-3.52462">
        <ele>48</ele>
        <time>2019-07-15T10:42:42Z</time>
      </trkpt>
      <trkpt lat="47.85495" lon="-3.52463">
        <ele>48</ele>
        <time>2019-07-15T10:42:43Z</time>
      </trkpt>
      <trkpt lat="47.85496" lon="-3.52465">
        <ele>48</ele>
        <time>2019-07-15T10:42:44Z</time>
      </trkpt>
      <trkpt lat="47.85498" lon="-3.52466">
        <ele>48</ele>
        <time>2019-07-15T10:42:45Z</time>
      </trkpt>
      <trkpt lat="47.85499" lon="-3.52467">
        <ele>48</ele>
        <time>2019-07-15T10:42:46Z</time>
      </trkpt>
      <trkpt lat="47.85501" lon="-3.52467">
        <ele>48</ele>
        <time>2019-07-15T10:42:47Z</time>
      </trkpt>
      <trkpt lat="47.85503" lon="-3.52467">
        <ele>49</ele>
        <time>2019-07-15T10:42:48Z</time>
      </trkpt>
      <trkpt lat="47.85506" lon="-3.52466">
        <ele>49</ele>
        <time>2019-07-15T10:42:49Z</time>
      </trkpt>
      <trkpt lat="47.85507" lon="-3.52465">
        <ele>49</ele>
        <time>2019-07-15T10:42:50Z</time>
      </trkpt>
      <trkpt lat="47.85509" lon="-3.52463">
        <ele>49</ele>
        <time>2019-07-15T10:42:51Z</time>
      </trkpt>
      <trkpt lat="47.8551" lon="-3.52461">
        <ele>49</ele>
        <time>2019-07-15T10:42:52Z</time>
      </trkpt>
      <trkpt lat="47.85512" lon="-3.52458">
        <ele>49</ele>
        <time>2019-07-15T10:42:53Z</time>
      </trkpt>
      <trkpt lat="47.85513" lon="-3.52456">
        <ele>49</ele>
        <time>2019-07-15T10:42:54Z</time>
      </trkpt>
      <trkpt lat="47.85514" lon="-3.52453">
        <ele>49</ele>
        <time>2019-07-15T10:42:55Z</time>
      </trkpt>
      <trkpt lat="47.85515" lon="-3.52452">
        <ele>49</ele>
        <time>2019-07-15T10:42:56Z</time>
      </trkpt>
      <trkpt lat="47.85516" lon="-3.5245">
        <ele>49</ele>
        <time>2019-07-15T10:42:57Z</time>
      </trkpt>
      <trkpt lat="47.85517" lon="-3.52448">
        <ele>49</ele>
        <time>2019-07-15T10:42:58Z</time>
      </trkpt>
      <trkpt lat="47.85518" lon="-3.52446">
        <ele>50</ele>
        <time>2019-07-15T10:42:59Z</time>
      </trkpt>
      <trkpt lat="47.85518" lon="-3.52445">
        <ele>50</ele>
        <time>2019-07-15T10:43:00Z</time>
      </trkpt>
      <trkpt lat="47.85519" lon="-3.52445">
        <ele>50</ele>
        <time>2019-07-15T10:43:01Z</time>
      </trkpt>
      <trkpt lat="47.85519" lon="-3.52445">
        <ele>50</ele>
        <time>2019-07-15T10:43:02Z</time>
      </trkpt>
      <trkpt lat="47.85526" lon="-3.52442">
        <ele>48</ele>
        <time>2019-07-15T10:43:03Z</time>
      </trkpt>
      <trkpt lat="47.85527" lon="-3.52442">
        <ele>48</ele>
        <time>2019-07-15T10:43:04Z</time>
      </trkpt>
      <trkpt lat="47.85528" lon="-3.52442">
        <ele>48</ele>
        <time>2019-07-15T10:43:05Z</time>
      </trkpt>
      <trkpt lat="47.85529" lon="-3.5244">
        <ele>48</ele>
        <time>2019-07-15T10:43:06Z</time>
      </trkpt>
      <trkpt lat="47.85529" lon="-3.52439">
        <ele>48</ele>
        <time>2019-07-15T10:43:07Z</time>
      </trkpt>
      <trkpt lat="47.8553" lon="-3.52438">
        <ele>48</ele>
        <time>2019-07-15T10:43:08Z</time>
      </trkpt>
      <trkpt lat="47.85531" lon="-3.52436">
        <ele>48</ele>
        <time>2019-07-15T10:43:09Z</time>
      </trkpt>
      <trkpt lat="47.85531" lon="-3.52435">
        <ele>48</ele>
        <time>2019-07-15T10:43:10Z</time>
      </trkpt>
      <trkpt lat="47.85531" lon="-3.52435">
        <ele>48</ele>
        <time>2019-07-15T10:43:11Z</time>
      </trkpt>
      <trkpt lat="47.85537" lon="-3.5243">
        <ele>47</ele>
        <time>2019-07-15T10:43:12Z</time>
      </trkpt>
      <trkpt lat="47.85538" lon="-3.52428">
        <ele>47</ele>
        <time>2019-07-15T10:43:13Z</time>
      </trkpt>
      <trkpt lat="47.85539" lon="-3.52426">
        <ele>47</ele>
        <time>2019-07-15T10:43:14Z</time>
      </trkpt>
      <trkpt lat="47.85539" lon="-3.52425">
        <ele>47</ele>
        <time>2019-07-15T10:43:15Z</time>
      </trkpt>
      <trkpt lat="47.8554" lon="-3.52423">
        <ele>47</ele>
        <time>2019-07-15T10:43:16Z</time>
      </trkpt>
      <trkpt lat="47.8554" lon="-3.52423">
        <ele>47</ele>
        <time>2019-07-15T10:43:17Z</time>
      </trkpt>
      <trkpt lat="47.85545" lon="-3.52421">
        <ele>47</ele>
        <time>2019-07-15T10:43:18Z</time>
      </trkpt>
      <trkpt lat="47.85546" lon="-3.52421">
        <ele>47</ele>
        <time>2019-07-15T10:43:19Z</time>
      </trkpt>
      <trkpt lat="47.85547" lon="-3.52421">
        <ele>47</ele>
        <time>2019-07-15T10:43:20Z</time>
      </trkpt>
      <trkpt lat="47.85548" lon="-3.52422">
        <ele>47</ele>
        <time>2019-07-15T10:43:21Z</time>
      </trkpt>
      <trkpt lat="47.85548" lon="-3.52423">
        <ele>47</ele>
        <time>2019-07-15T10:43:22Z</time>
      </trkpt>
      <trkpt lat="47.85549" lon="-3.52424">
        <ele>47</ele>
        <time>2019-07-15T10:43:23Z</time>
      </trkpt>
      <trkpt lat="47.85549" lon="-3.52425">
        <ele>47</ele>
        <time>2019-07-15T10:43:24Z</time>
      </trkpt>
      <trkpt lat="47.85549" lon="-3.52426">
        <ele>47</ele>
        <time>2019-07-15T10:43:25Z</time>
      </trkpt>
      <trkpt lat="47.85549" lon="-3.52426">
        <ele>47</ele>
        <time>2019-07-15T10:43:26Z</time>
      </trkpt>
      <trkpt lat="47.85553" lon="-3.52433">
        <ele>47</ele>
        <time>2019-07-15T10:43:27Z</time>
      </trkpt>
      <trkpt lat="47.85554" lon="-3.52434">
        <ele>47</ele>
        <time>2019-07-15T10:43:28Z</time>
      </trkpt>
      <trkpt lat="47.85555" lon="-3.52435">
        <ele>47</ele>
        <time>2019-07-15T10:43:29Z</time>
      </trkpt>
      <trkpt lat="47.85555" lon="-3.52436">
        <ele>47</ele>
        <time>2019-07-15T10:43:30Z</time>
      </trkpt>
      <trkpt lat="47.85556" lon="-3.52438">
        <ele>47</ele>
        <time>2019-07-15T10:43:31Z</time>
      </trkpt>
      <trkpt lat="47.85557" lon="-3.52439">
        <ele>47</ele>
        <time>2019-07-15T10:43:32Z</time>
      </trkpt>
      <trkpt lat="47.85557" lon="-3.52441">
        <ele>47</ele>
        <time>2019-07-15T10:43:33Z</time>
      </trkpt>
      <trkpt lat="47.85558" lon="-3.52443">
        <ele>47</ele>
        <time>2019-07-15T10:43:34Z</time>
      </trkpt>
      <trkpt lat="47.85558" lon="-3.52445">
        <ele>47</ele>
        <time>2019-07-15T10:43:35Z</time>
      </trkpt>
      <trkpt lat="47.85559" lon="-3.52446">
        <ele>47</ele>
        <time>2019-07-15T10:43:36Z</time>
      </trkpt>
      <trkpt lat="47.85559" lon="-3.52448">
        <ele>47</ele>
        <time>2019-07-15T10:43:37Z</time>
      </trkpt>
      <trkpt lat="47.85559" lon="-3.5245">
        <ele>47</ele>
        <time>2019-07-15T10:43:38Z</time>
      </trkpt>
      <trkpt lat="47.8556" lon="-3.52452">
        <ele>46</ele>
        <time>2019-07-15T10:43:39Z</time>
      </trkpt>
      <trkpt lat="47.8556" lon="-3.52453">
        <ele>46</ele>
        <time>2019-07-15T10:43:40Z</time>
      </trkpt>
      <trkpt lat="47.85561" lon="-3.52454">
        <ele>46</ele>
        <time>2019-07-15T10:43:41Z</time>
      </trkpt>
      <trkpt lat="47.85562" lon="-3.52455">
        <ele>46</ele>
        <time>2019-07-15T10:43:42Z</time>
      </trkpt>
      <trkpt lat="47.85563" lon="-3.52457">
        <ele>46</ele>
        <time>2019-07-15T10:43:43Z</time>
      </trkpt>
      <trkpt lat="47.85564" lon="-3.52458">
        <ele>47</ele>
        <time>2019-07-15T10:43:44Z</time>
      </trkpt>
      <trkpt lat="47.85564" lon="-3.52458">
        <ele>47</ele>
        <time>2019-07-15T10:43:45Z</time>
      </trkpt>
      <trkpt lat="47.85564" lon="-3.52459">
        <ele>47</ele>
        <time>2019-07-15T10:43:46Z</time>
      </trkpt>
      <trkpt lat="47.85564" lon="-3.5246">
        <ele>47</ele>
        <time>2019-07-15T10:43:47Z</time>
      </trkpt>
      <trkpt lat="47.85565" lon="-3.52462">
        <ele>47</ele>
        <time>2019-07-15T10:43:48Z</time>
      </trkpt>
      <trkpt lat="47.85566" lon="-3.52464">
        <ele>47</ele>
        <time>2019-07-15T10:43:49Z</time>
      </trkpt>
      <trkpt lat="47.85568" lon="-3.52466">
        <ele>47</ele>
        <time>2019-07-15T10:43:50Z</time>
      </trkpt>
      <trkpt lat="47.85568" lon="-3.52468">
        <ele>47</ele>
        <time>2019-07-15T10:43:51Z</time>
      </trkpt>
      <trkpt lat="47.8557" lon="-3.52471">
        <ele>47</ele>
        <time>2019-07-15T10:43:52Z</time>
      </trkpt>
      <trkpt lat="47.85571" lon="-3.52474">
        <ele>47</ele>
        <time>2019-07-15T10:43:53Z</time>
      </trkpt>
      <trkpt lat="47.85573" lon="-3.52477">
        <ele>47</ele>
        <time>2019-07-15T10:43:54Z</time>
      </trkpt>
      <trkpt lat="47.85575" lon="-3.5248">
        <ele>47</ele>
        <time>2019-07-15T10:43:55Z</time>
      </trkpt>
      <trkpt lat="47.85576" lon="-3.52482">
        <ele>47</ele>
        <time>2019-07-15T10:43:56Z</time>
      </trkpt>
      <trkpt lat="47.85578" lon="-3.52485">
        <ele>47</ele>
        <time>2019-07-15T10:43:57Z</time>
      </trkpt>
      <trkpt lat="47.85579" lon="-3.52488">
        <ele>47</ele>
        <time>2019-07-15T10:43:58Z</time>
      </trkpt>
      <trkpt lat="47.8558" lon="-3.52489">
        <ele>47</ele>
        <time>2019-07-15T10:43:59Z</time>
      </trkpt>
      <trkpt lat="47.85582" lon="-3.52491">
        <ele>46</ele>
        <time>2019-07-15T10:44:00Z</time>
      </trkpt>
      <trkpt lat="47.85583" lon="-3.52493">
        <ele>46</ele>
        <time>2019-07-15T10:44:01Z</time>
      </trkpt>
      <trkpt lat="47.85584" lon="-3.52495">
        <ele>46</ele>
        <time>2019-07-15T10:44:02Z</time>
      </trkpt>
      <trkpt lat="47.85585" lon="-3.52497">
        <ele>46</ele>
        <time>2019-07-15T10:44:03Z</time>
      </trkpt>
      <trkpt lat="47.85586" lon="-3.52499">
        <ele>46</ele>
        <time>2019-07-15T10:44:04Z</time>
      </trkpt>
      <trkpt lat="47.85587" lon="-3.52501">
        <ele>45</ele>
        <time>2019-07-15T10:44:05Z</time>
      </trkpt>
      <trkpt lat="47.85588" lon="-3.52504">
        <ele>45</ele>
        <time>2019-07-15T10:44:06Z</time>
      </trkpt>
      <trkpt lat="47.85589" lon="-3.52505">
        <ele>45</ele>
        <time>2019-07-15T10:44:07Z</time>
      </trkpt>
      <trkpt lat="47.85591" lon="-3.52507">
        <ele>45</ele>
        <time>2019-07-15T10:44:08Z</time>
      </trkpt>
      <trkpt lat="47.85592" lon="-3.52508">
        <ele>45</ele>
        <time>2019-07-15T10:44:09Z</time>
      </trkpt>
      <trkpt lat="47.85593" lon="-3.52509">
        <ele>45</ele>
        <time>2019-07-15T10:44:10Z</time>
      </trkpt>
      <trkpt lat="47.85594" lon="-3.52511">
        <ele>45</ele>
        <time>2019-07-15T10:44:11Z</time>
      </trkpt>
      <trkpt lat="47.85595" lon="-3.52513">
        <ele>44</ele>
        <time>2019-07-15T10:44:12Z</time>
      </trkpt>
      <trkpt lat="47.85596" lon="-3.52515">
        <ele>44</ele>
        <time>2019-07-15T10:44:13Z</time>
      </trkpt>
      <trkpt lat="47.85598" lon="-3.52518">
        <ele>44</ele>
        <time>2019-07-15T10:44:14Z</time>
      </trkpt>
      <trkpt lat="47.85599" lon="-3.52521">
        <ele>44</ele>
        <time>2019-07-15T10:44:15Z</time>
      </trkpt>
      <trkpt lat="47.856" lon="-3.52523">
        <ele>44</ele>
        <time>2019-07-15T10:44:16Z</time>
      </trkpt>
      <trkpt lat="47.856" lon="-3.52525">
        <ele>44</ele>
        <time>2019-07-15T10:44:17Z</time>
      </trkpt>
      <trkpt lat="47.85601" lon="-3.52528">
        <ele>44</ele>
        <time>2019-07-15T10:44:18Z</time>
      </trkpt>
      <trkpt lat="47.85602" lon="-3.52531">
        <ele>44</ele>
        <time>2019-07-15T10:44:19Z</time>
      </trkpt>
      <trkpt lat="47.85603" lon="-3.52535">
        <ele>44</ele>
        <time>2019-07-15T10:44:20Z</time>
      </trkpt>
      <trkpt lat="47.85604" lon="-3.52538">
        <ele>43</ele>
        <time>2019-07-15T10:44:21Z</time>
      </trkpt>
      <trkpt lat="47.85606" lon="-3.52539">
        <ele>43</ele>
        <time>2019-07-15T10:44:22Z</time>
      </trkpt>
      <trkpt lat="47.85608" lon="-3.5254">
        <ele>43</ele>
        <time>2019-07-15T10:44:23Z</time>
      </trkpt>
      <trkpt lat="47.85609" lon="-3.52539">
        <ele>43</ele>
        <time>2019-07-15T10:44:24Z</time>
      </trkpt>
      <trkpt lat="47.85611" lon="-3.52539">
        <ele>43</ele>
        <time>2019-07-15T10:44:25Z</time>
      </trkpt>
      <trkpt lat="47.85613" lon="-3.52539">
        <ele>43</ele>
        <time>2019-07-15T10:44:26Z</time>
      </trkpt>
      <trkpt lat="47.85614" lon="-3.52539">
        <ele>43</ele>
        <time>2019-07-15T10:44:27Z</time>
      </trkpt>
      <trkpt lat="47.85615" lon="-3.52539">
        <ele>43</ele>
        <time>2019-07-15T10:44:28Z</time>
      </trkpt>
      <trkpt lat="47.85616" lon="-3.5254">
        <ele>43</ele>
        <time>2019-07-15T10:44:29Z</time>
      </trkpt>
      <trkpt lat="47.85616" lon="-3.52541">
        <ele>43</ele>
        <time>2019-07-15T10:44:30Z</time>
      </trkpt>
      <trkpt lat="47.85615" lon="-3.52541">
        <ele>44</ele>
        <time>2019-07-15T10:44:31Z</time>
      </trkpt>
      <trkpt lat="47.85615" lon="-3.5254">
        <ele>44</ele>
        <time>2019-07-15T10:44:32Z</time>
      </trkpt>
      <trkpt lat="47.85613" lon="-3.52539">
        <ele>44</ele>
        <time>2019-07-15T10:44:33Z</time>
      </trkpt>
      <trkpt lat="47.85611" lon="-3.52538">
        <ele>44</ele>
        <time>2019-07-15T10:44:34Z</time>
      </trkpt>
      <trkpt lat="47.85608" lon="-3.52537">
        <ele>44</ele>
        <time>2019-07-15T10:44:35Z</time>
      </trkpt>
      <trkpt lat="47.85605" lon="-3.52538">
        <ele>44</ele>
        <time>2019-07-15T10:44:36Z</time>
      </trkpt>
      <trkpt lat="47.85602" lon="-3.52539">
        <ele>44</ele>
        <time>2019-07-15T10:44:37Z</time>
      </trkpt>
      <trkpt lat="47.85598" lon="-3.52541">
        <ele>44</ele>
        <time>2019-07-15T10:44:38Z</time>
      </trkpt>
      <trkpt lat="47.85594" lon="-3.52544">
        <ele>44</ele>
        <time>2019-07-15T10:44:39Z</time>
      </trkpt>
      <trkpt lat="47.85591" lon="-3.52549">
        <ele>44</ele>
        <time>2019-07-15T10:44:40Z</time>
      </trkpt>
      <trkpt lat="47.85587" lon="-3.52554">
        <ele>44</ele>
        <time>2019-07-15T10:44:41Z</time>
      </trkpt>
      <trkpt lat="47.85583" lon="-3.52559">
        <ele>44</ele>
        <time>2019-07-15T10:44:42Z</time>
      </trkpt>
      <trkpt lat="47.85579" lon="-3.52566">
        <ele>43</ele>
        <time>2019-07-15T10:44:43Z</time>
      </trkpt>
      <trkpt lat="47.85576" lon="-3.52571">
        <ele>43</ele>
        <time>2019-07-15T10:44:44Z</time>
      </trkpt>
      <trkpt lat="47.85573" lon="-3.52578">
        <ele>43</ele>
        <time>2019-07-15T10:44:45Z</time>
      </trkpt>
      <trkpt lat="47.85569" lon="-3.52585">
        <ele>43</ele>
        <time>2019-07-15T10:44:46Z</time>
      </trkpt>
      <trkpt lat="47.85566" lon="-3.52592">
        <ele>43</ele>
        <time>2019-07-15T10:44:47Z</time>
      </trkpt>
      <trkpt lat="47.85562" lon="-3.52599">
        <ele>43</ele>
        <time>2019-07-15T10:44:48Z</time>
      </trkpt>
      <trkpt lat="47.85559" lon="-3.52606">
        <ele>42</ele>
        <time>2019-07-15T10:44:49Z</time>
      </trkpt>
      <trkpt lat="47.85556" lon="-3.52613">
        <ele>42</ele>
        <time>2019-07-15T10:44:50Z</time>
      </trkpt>
      <trkpt lat="47.85553" lon="-3.5262">
        <ele>42</ele>
        <time>2019-07-15T10:44:51Z</time>
      </trkpt>
      <trkpt lat="47.85551" lon="-3.52626">
        <ele>42</ele>
        <time>2019-07-15T10:44:52Z</time>
      </trkpt>
      <trkpt lat="47.85548" lon="-3.52633">
        <ele>42</ele>
        <time>2019-07-15T10:44:53Z</time>
      </trkpt>
      <trkpt lat="47.85546" lon="-3.52641">
        <ele>42</ele>
        <time>2019-07-15T10:44:54Z</time>
      </trkpt>
      <trkpt lat="47.85545" lon="-3.52649">
        <ele>42</ele>
        <time>2019-07-15T10:44:55Z</time>
      </trkpt>
      <trkpt lat="47.85545" lon="-3.52657">
        <ele>42</ele>
        <time>2019-07-15T10:44:56Z</time>
      </trkpt>
      <trkpt lat="47.85545" lon="-3.52665">
        <ele>42</ele>
        <time>2019-07-15T10:44:57Z</time>
      </trkpt>
      <trkpt lat="47.85546" lon="-3.52672">
        <ele>42</ele>
        <time>2019-07-15T10:44:58Z</time>
      </trkpt>
      <trkpt lat="47.85548" lon="-3.52679">
        <ele>42</ele>
        <time>2019-07-15T10:44:59Z</time>
      </trkpt>
      <trkpt lat="47.8555" lon="-3.52686">
        <ele>42</ele>
        <time>2019-07-15T10:45:00Z</time>
      </trkpt>
      <trkpt lat="47.85552" lon="-3.52692">
        <ele>42</ele>
        <time>2019-07-15T10:45:01Z</time>
      </trkpt>
      <trkpt lat="47.85554" lon="-3.52696">
        <ele>42</ele>
        <time>2019-07-15T10:45:02Z</time>
      </trkpt>
      <trkpt lat="47.85557" lon="-3.52701">
        <ele>42</ele>
        <time>2019-07-15T10:45:03Z</time>
      </trkpt>
      <trkpt lat="47.85561" lon="-3.52705">
        <ele>42</ele>
        <time>2019-07-15T10:45:04Z</time>
      </trkpt>
      <trkpt lat="47.85563" lon="-3.52709">
        <ele>42</ele>
        <time>2019-07-15T10:45:05Z</time>
      </trkpt>
      <trkpt lat="47.85565" lon="-3.52713">
        <ele>42</ele>
        <time>2019-07-15T10:45:06Z</time>
      </trkpt>
      <trkpt lat="47.85567" lon="-3.52717">
        <ele>41</ele>
        <time>2019-07-15T10:45:07Z</time>
      </trkpt>
      <trkpt lat="47.8557" lon="-3.5272">
        <ele>41</ele>
        <time>2019-07-15T10:45:08Z</time>
      </trkpt>
      <trkpt lat="47.85573" lon="-3.52725">
        <ele>41</ele>
        <time>2019-07-15T10:45:09Z</time>
      </trkpt>
      <trkpt lat="47.85577" lon="-3.52729">
        <ele>41</ele>
        <time>2019-07-15T10:45:10Z</time>
      </trkpt>
      <trkpt lat="47.85581" lon="-3.52733">
        <ele>41</ele>
        <time>2019-07-15T10:45:11Z</time>
      </trkpt>
      <trkpt lat="47.85585" lon="-3.52737">
        <ele>41</ele>
        <time>2019-07-15T10:45:12Z</time>
      </trkpt>
      <trkpt lat="47.8559" lon="-3.52742">
        <ele>41</ele>
        <time>2019-07-15T10:45:13Z</time>
      </trkpt>
      <trkpt lat="47.85595" lon="-3.52745">
        <ele>41</ele>
        <time>2019-07-15T10:45:14Z</time>
      </trkpt>
      <trkpt lat="47.856" lon="-3.5275">
        <ele>41</ele>
        <time>2019-07-15T10:45:15Z</time>
      </trkpt>
      <trkpt lat="47.85604" lon="-3.52754">
        <ele>41</ele>
        <time>2019-07-15T10:45:16Z</time>
      </trkpt>
      <trkpt lat="47.8561" lon="-3.52758">
        <ele>41</ele>
        <time>2019-07-15T10:45:17Z</time>
      </trkpt>
      <trkpt lat="47.85615" lon="-3.52762">
        <ele>41</ele>
        <time>2019-07-15T10:45:18Z</time>
      </trkpt>
      <trkpt lat="47.85621" lon="-3.52766">
        <ele>41</ele>
        <time>2019-07-15T10:45:19Z</time>
      </trkpt>
      <trkpt lat="47.85627" lon="-3.52769">
        <ele>41</ele>
        <time>2019-07-15T10:45:20Z</time>
      </trkpt>
      <trkpt lat="47.85632" lon="-3.52773">
        <ele>41</ele>
        <time>2019-07-15T10:45:21Z</time>
      </trkpt>
      <trkpt lat="47.85637" lon="-3.52777">
        <ele>41</ele>
        <time>2019-07-15T10:45:22Z</time>
      </trkpt>
      <trkpt lat="47.85642" lon="-3.52781">
        <ele>41</ele>
        <time>2019-07-15T10:45:23Z</time>
      </trkpt>
      <trkpt lat="47.85647" lon="-3.52785">
        <ele>41</ele>
        <time>2019-07-15T10:45:24Z</time>
      </trkpt>
      <trkpt lat="47.85653" lon="-3.52787">
        <ele>40</ele>
        <time>2019-07-15T10:45:25Z</time>
      </trkpt>
      <trkpt lat="47.85659" lon="-3.5279">
        <ele>40</ele>
        <time>2019-07-15T10:45:26Z</time>
      </trkpt>
      <trkpt lat="47.85665" lon="-3.52794">
        <ele>40</ele>
        <time>2019-07-15T10:45:27Z</time>
      </trkpt>
      <trkpt lat="47.8567" lon="-3.52797">
        <ele>40</ele>
        <time>2019-07-15T10:45:28Z</time>
      </trkpt>
      <trkpt lat="47.85676" lon="-3.52801">
        <ele>40</ele>
        <time>2019-07-15T10:45:29Z</time>
      </trkpt>
      <trkpt lat="47.85682" lon="-3.52804">
        <ele>40</ele>
        <time>2019-07-15T10:45:30Z</time>
      </trkpt>
      <trkpt lat="47.85688" lon="-3.52807">
        <ele>39</ele>
        <time>2019-07-15T10:45:31Z</time>
      </trkpt>
      <trkpt lat="47.85694" lon="-3.52809">
        <ele>39</ele>
        <time>2019-07-15T10:45:32Z</time>
      </trkpt>
      <trkpt lat="47.857" lon="-3.52809">
        <ele>39</ele>
        <time>2019-07-15T10:45:33Z</time>
      </trkpt>
      <trkpt lat="47.85706" lon="-3.5281">
        <ele>39</ele>
        <time>2019-07-15T10:45:34Z</time>
      </trkpt>
      <trkpt lat="47.85712" lon="-3.52809">
        <ele>39</ele>
        <time>2019-07-15T10:45:35Z</time>
      </trkpt>
      <trkpt lat="47.85718" lon="-3.52808">
        <ele>39</ele>
        <time>2019-07-15T10:45:36Z</time>
      </trkpt>
      <trkpt lat="47.85723" lon="-3.52807">
        <ele>39</ele>
        <time>2019-07-15T10:45:37Z</time>
      </trkpt>
      <trkpt lat="47.85729" lon="-3.52806">
        <ele>39</ele>
        <time>2019-07-15T10:45:38Z</time>
      </trkpt>
      <trkpt lat="47.85734" lon="-3.52804">
        <ele>39</ele>
        <time>2019-07-15T10:45:39Z</time>
      </trkpt>
      <trkpt lat="47.85739" lon="-3.52803">
        <ele>38</ele>
        <time>2019-07-15T10:45:40Z</time>
      </trkpt>
      <trkpt lat="47.85743" lon="-3.52803">
        <ele>38</ele>
        <time>2019-07-15T10:45:41Z</time>
      </trkpt>
      <trkpt lat="47.85749" lon="-3.52804">
        <ele>38</ele>
        <time>2019-07-15T10:45:42Z</time>
      </trkpt>
      <trkpt lat="47.85756" lon="-3.52807">
        <ele>38</ele>
        <time>2019-07-15T10:45:43Z</time>
      </trkpt>
      <trkpt lat="47.85762" lon="-3.5281">
        <ele>39</ele>
        <time>2019-07-15T10:45:44Z</time>
      </trkpt>
      <trkpt lat="47.85769" lon="-3.52815">
        <ele>39</ele>
        <time>2019-07-15T10:45:45Z</time>
      </trkpt>
      <trkpt lat="47.85774" lon="-3.5282">
        <ele>39</ele>
        <time>2019-07-15T10:45:46Z</time>
      </trkpt>
      <trkpt lat="47.8578" lon="-3.52826">
        <ele>39</ele>
        <time>2019-07-15T10:45:47Z</time>
      </trkpt>
      <trkpt lat="47.85785" lon="-3.52831">
        <ele>39</ele>
        <time>2019-07-15T10:45:48Z</time>
      </trkpt>
      <trkpt lat="47.8579" lon="-3.52836">
        <ele>39</ele>
        <time>2019-07-15T10:45:49Z</time>
      </trkpt>
      <trkpt lat="47.85795" lon="-3.5284">
        <ele>39</ele>
        <time>2019-07-15T10:45:50Z</time>
      </trkpt>
      <trkpt lat="47.85799" lon="-3.52846">
        <ele>39</ele>
        <time>2019-07-15T10:45:51Z</time>
      </trkpt>
      <trkpt lat="47.85804" lon="-3.52851">
        <ele>39</ele>
        <time>2019-07-15T10:45:52Z</time>
      </trkpt>
      <trkpt lat="47.85807" lon="-3.52856">
        <ele>39</ele>
        <time>2019-07-15T10:45:53Z</time>
      </trkpt>
      <trkpt lat="47.8581" lon="-3.5286">
        <ele>39</ele>
        <time>2019-07-15T10:45:54Z</time>
      </trkpt>
      <trkpt lat="47.85813" lon="-3.52864">
        <ele>38</ele>
        <time>2019-07-15T10:45:55Z</time>
      </trkpt>
      <trkpt lat="47.85815" lon="-3.52868">
        <ele>38</ele>
        <time>2019-07-15T10:45:56Z</time>
      </trkpt>
      <trkpt lat="47.85817" lon="-3.52873">
        <ele>38</ele>
        <time>2019-07-15T10:45:57Z</time>
      </trkpt>
      <trkpt lat="47.85819" lon="-3.52878">
        <ele>38</ele>
        <time>2019-07-15T10:45:58Z</time>
      </trkpt>
      <trkpt lat="47.85821" lon="-3.52883">
        <ele>38</ele>
        <time>2019-07-15T10:45:59Z</time>
      </trkpt>
      <trkpt lat="47.85822" lon="-3.52889">
        <ele>37</ele>
        <time>2019-07-15T10:46:00Z</time>
      </trkpt>
      <trkpt lat="47.85824" lon="-3.52895">
        <ele>37</ele>
        <time>2019-07-15T10:46:01Z</time>
      </trkpt>
      <trkpt lat="47.85825" lon="-3.52899">
        <ele>37</ele>
        <time>2019-07-15T10:46:02Z</time>
      </trkpt>
      <trkpt lat="47.85828" lon="-3.52903">
        <ele>37</ele>
        <time>2019-07-15T10:46:03Z</time>
      </trkpt>
      <trkpt lat="47.8583" lon="-3.52908">
        <ele>37</ele>
        <time>2019-07-15T10:46:04Z</time>
      </trkpt>
      <trkpt lat="47.85831" lon="-3.52913">
        <ele>37</ele>
        <time>2019-07-15T10:46:05Z</time>
      </trkpt>
      <trkpt lat="47.85833" lon="-3.52918">
        <ele>37</ele>
        <time>2019-07-15T10:46:06Z</time>
      </trkpt>
      <trkpt lat="47.85834" lon="-3.52924">
        <ele>38</ele>
        <time>2019-07-15T10:46:07Z</time>
      </trkpt>
      <trkpt lat="47.85836" lon="-3.52929">
        <ele>38</ele>
        <time>2019-07-15T10:46:08Z</time>
      </trkpt>
      <trkpt lat="47.85838" lon="-3.52934">
        <ele>38</ele>
        <time>2019-07-15T10:46:09Z</time>
      </trkpt>
      <trkpt lat="47.8584" lon="-3.52938">
        <ele>38</ele>
        <time>2019-07-15T10:46:10Z</time>
      </trkpt>
      <trkpt lat="47.85842" lon="-3.52943">
        <ele>38</ele>
        <time>2019-07-15T10:46:11Z</time>
      </trkpt>
      <trkpt lat="47.85844" lon="-3.52949">
        <ele>38</ele>
        <time>2019-07-15T10:46:12Z</time>
      </trkpt>
      <trkpt lat="47.85845" lon="-3.52955">
        <ele>38</ele>
        <time>2019-07-15T10:46:13Z</time>
      </trkpt>
      <trkpt lat="47.85847" lon="-3.52961">
        <ele>38</ele>
        <time>2019-07-15T10:46:14Z</time>
      </trkpt>
      <trkpt lat="47.85849" lon="-3.52967">
        <ele>38</ele>
        <time>2019-07-15T10:46:15Z</time>
      </trkpt>
      <trkpt lat="47.8585" lon="-3.52973">
        <ele>38</ele>
        <time>2019-07-15T10:46:16Z</time>
      </trkpt>
      <trkpt lat="47.85852" lon="-3.52979">
        <ele>38</ele>
        <time>2019-07-15T10:46:17Z</time>
      </trkpt>
      <trkpt lat="47.85854" lon="-3.52984">
        <ele>38</ele>
        <time>2019-07-15T10:46:18Z</time>
      </trkpt>
      <trkpt lat="47.85856" lon="-3.5299">
        <ele>38</ele>
        <time>2019-07-15T10:46:19Z</time>
      </trkpt>
      <trkpt lat="47.85857" lon="-3.52997">
        <ele>38</ele>
        <time>2019-07-15T10:46:20Z</time>
      </trkpt>
      <trkpt lat="47.85859" lon="-3.53002">
        <ele>38</ele>
        <time>2019-07-15T10:46:21Z</time>
      </trkpt>
      <trkpt lat="47.85861" lon="-3.53008">
        <ele>38</ele>
        <time>2019-07-15T10:46:22Z</time>
      </trkpt>
      <trkpt lat="47.85862" lon="-3.53014">
        <ele>38</ele>
        <time>2019-07-15T10:46:23Z</time>
      </trkpt>
      <trkpt lat="47.85864" lon="-3.5302">
        <ele>37</ele>
        <time>2019-07-15T10:46:24Z</time>
      </trkpt>
      <trkpt lat="47.85865" lon="-3.53027">
        <ele>37</ele>
        <time>2019-07-15T10:46:25Z</time>
      </trkpt>
      <trkpt lat="47.85867" lon="-3.53033">
        <ele>37</ele>
        <time>2019-07-15T10:46:26Z</time>
      </trkpt>
      <trkpt lat="47.85869" lon="-3.5304">
        <ele>37</ele>
        <time>2019-07-15T10:46:27Z</time>
      </trkpt>
      <trkpt lat="47.8587" lon="-3.53048">
        <ele>37</ele>
        <time>2019-07-15T10:46:28Z</time>
      </trkpt>
      <trkpt lat="47.85873" lon="-3.53056">
        <ele>37</ele>
        <time>2019-07-15T10:46:29Z</time>
      </trkpt>
      <trkpt lat="47.85875" lon="-3.53064">
        <ele>37</ele>
        <time>2019-07-15T10:46:30Z</time>
      </trkpt>
      <trkpt lat="47.85877" lon="-3.53073">
        <ele>37</ele>
        <time>2019-07-15T10:46:31Z</time>
      </trkpt>
      <trkpt lat="47.85879" lon="-3.53082">
        <ele>36</ele>
        <time>2019-07-15T10:46:32Z</time>
      </trkpt>
      <trkpt lat="47.85881" lon="-3.53091">
        <ele>36</ele>
        <time>2019-07-15T10:46:33Z</time>
      </trkpt>
      <trkpt lat="47.85883" lon="-3.531">
        <ele>36</ele>
        <time>2019-07-15T10:46:34Z</time>
      </trkpt>
      <trkpt lat="47.85886" lon="-3.5311">
        <ele>36</ele>
        <time>2019-07-15T10:46:35Z</time>
      </trkpt>
      <trkpt lat="47.85888" lon="-3.5312">
        <ele>35</ele>
        <time>2019-07-15T10:46:36Z</time>
      </trkpt>
      <trkpt lat="47.85891" lon="-3.5313">
        <ele>35</ele>
        <time>2019-07-15T10:46:37Z</time>
      </trkpt>
      <trkpt lat="47.85893" lon="-3.5314">
        <ele>35</ele>
        <time>2019-07-15T10:46:38Z</time>
      </trkpt>
      <trkpt lat="47.85897" lon="-3.53149">
        <ele>35</ele>
        <time>2019-07-15T10:46:39Z</time>
      </trkpt>
      <trkpt lat="47.85901" lon="-3.53158">
        <ele>34</ele>
        <time>2019-07-15T10:46:40Z</time>
      </trkpt>
      <trkpt lat="47.85905" lon="-3.53168">
        <ele>34</ele>
        <time>2019-07-15T10:46:41Z</time>
      </trkpt>
      <trkpt lat="47.85909" lon="-3.53179">
        <ele>34</ele>
        <time>2019-07-15T10:46:42Z</time>
      </trkpt>
      <trkpt lat="47.85914" lon="-3.5319">
        <ele>34</ele>
        <time>2019-07-15T10:46:43Z</time>
      </trkpt>
      <trkpt lat="47.85918" lon="-3.53201">
        <ele>34</ele>
        <time>2019-07-15T10:46:44Z</time>
      </trkpt>
      <trkpt lat="47.85922" lon="-3.53213">
        <ele>33</ele>
        <time>2019-07-15T10:46:45Z</time>
      </trkpt>
      <trkpt lat="47.85926" lon="-3.53224">
        <ele>33</ele>
        <time>2019-07-15T10:46:46Z</time>
      </trkpt>
      <trkpt lat="47.85929" lon="-3.53236">
        <ele>33</ele>
        <time>2019-07-15T10:46:47Z</time>
      </trkpt>
      <trkpt lat="47.85932" lon="-3.53249">
        <ele>33</ele>
        <time>2019-07-15T10:46:48Z</time>
      </trkpt>
      <trkpt lat="47.85935" lon="-3.53262">
        <ele>32</ele>
        <time>2019-07-15T10:46:49Z</time>
      </trkpt>
      <trkpt lat="47.85938" lon="-3.53273">
        <ele>32</ele>
        <time>2019-07-15T10:46:50Z</time>
      </trkpt>
      <trkpt lat="47.8594" lon="-3.53286">
        <ele>32</ele>
        <time>2019-07-15T10:46:51Z</time>
      </trkpt>
      <trkpt lat="47.85942" lon="-3.53297">
        <ele>31</ele>
        <time>2019-07-15T10:46:52Z</time>
      </trkpt>
      <trkpt lat="47.85945" lon="-3.53308">
        <ele>31</ele>
        <time>2019-07-15T10:46:53Z</time>
      </trkpt>
      <trkpt lat="47.85947" lon="-3.5332">
        <ele>30</ele>
        <time>2019-07-15T10:46:54Z</time>
      </trkpt>
      <trkpt lat="47.85949" lon="-3.53331">
        <ele>30</ele>
        <time>2019-07-15T10:46:55Z</time>
      </trkpt>
      <trkpt lat="47.85951" lon="-3.53342">
        <ele>30</ele>
        <time>2019-07-15T10:46:56Z</time>
      </trkpt>
      <trkpt lat="47.85952" lon="-3.53353">
        <ele>29</ele>
        <time>2019-07-15T10:46:57Z</time>
      </trkpt>
      <trkpt lat="47.85954" lon="-3.53364">
        <ele>29</ele>
        <time>2019-07-15T10:46:58Z</time>
      </trkpt>
      <trkpt lat="47.85956" lon="-3.53374">
        <ele>29</ele>
        <time>2019-07-15T10:46:59Z</time>
      </trkpt>
      <trkpt lat="47.85958" lon="-3.53384">
        <ele>29</ele>
        <time>2019-07-15T10:47:00Z</time>
      </trkpt>
      <trkpt lat="47.8596" lon="-3.53394">
        <ele>28</ele>
        <time>2019-07-15T10:47:01Z</time>
      </trkpt>
      <trkpt lat="47.85961" lon="-3.53403">
        <ele>28</ele>
        <time>2019-07-15T10:47:02Z</time>
      </trkpt>
      <trkpt lat="47.85962" lon="-3.53412">
        <ele>28</ele>
        <time>2019-07-15T10:47:03Z</time>
      </trkpt>
      <trkpt lat="47.85963" lon="-3.53421">
        <ele>28</ele>
        <time>2019-07-15T10:47:04Z</time>
      </trkpt>
      <trkpt lat="47.85965" lon="-3.53429">
        <ele>28</ele>
        <time>2019-07-15T10:47:05Z</time>
      </trkpt>
      <trkpt lat="47.85965" lon="-3.53437">
        <ele>28</ele>
        <time>2019-07-15T10:47:06Z</time>
      </trkpt>
      <trkpt lat="47.85966" lon="-3.53445">
        <ele>28</ele>
        <time>2019-07-15T10:47:07Z</time>
      </trkpt>
      <trkpt lat="47.85967" lon="-3.53453">
        <ele>28</ele>
        <time>2019-07-15T10:47:08Z</time>
      </trkpt>
      <trkpt lat="47.85967" lon="-3.5346">
        <ele>28</ele>
        <time>2019-07-15T10:47:09Z</time>
      </trkpt>
      <trkpt lat="47.85967" lon="-3.53468">
        <ele>28</ele>
        <time>2019-07-15T10:47:10Z</time>
      </trkpt>
      <trkpt lat="47.85967" lon="-3.53475">
        <ele>28</ele>
        <time>2019-07-15T10:47:11Z</time>
      </trkpt>
      <trkpt lat="47.85967" lon="-3.53482">
        <ele>28</ele>
        <time>2019-07-15T10:47:12Z</time>
      </trkpt>
      <trkpt lat="47.85967" lon="-3.53489">
        <ele>28</ele>
        <time>2019-07-15T10:47:13Z</time>
      </trkpt>
      <trkpt lat="47.85967" lon="-3.53495">
        <ele>28</ele>
        <time>2019-07-15T10:47:14Z</time>
      </trkpt>
      <trkpt lat="47.85966" lon="-3.53501">
        <ele>28</ele>
        <time>2019-07-15T10:47:15Z</time>
      </trkpt>
      <trkpt lat="47.85966" lon="-3.53508">
        <ele>28</ele>
        <time>2019-07-15T10:47:16Z</time>
      </trkpt>
      <trkpt lat="47.85966" lon="-3.53514">
        <ele>28</ele>
        <time>2019-07-15T10:47:17Z</time>
      </trkpt>
      <trkpt lat="47.85965" lon="-3.5352">
        <ele>28</ele>
        <time>2019-07-15T10:47:18Z</time>
      </trkpt>
      <trkpt lat="47.85965" lon="-3.53526">
        <ele>28</ele>
        <time>2019-07-15T10:47:19Z</time>
      </trkpt>
      <trkpt lat="47.85964" lon="-3.53533">
        <ele>28</ele>
        <time>2019-07-15T10:47:20Z</time>
      </trkpt>
      <trkpt lat="47.85964" lon="-3.53539">
        <ele>29</ele>
        <time>2019-07-15T10:47:21Z</time>
      </trkpt>
      <trkpt lat="47.85963" lon="-3.53545">
        <ele>29</ele>
        <time>2019-07-15T10:47:22Z</time>
      </trkpt>
      <trkpt lat="47.85962" lon="-3.53551">
        <ele>29</ele>
        <time>2019-07-15T10:47:23Z</time>
      </trkpt>
      <trkpt lat="47.85962" lon="-3.53557">
        <ele>29</ele>
        <time>2019-07-15T10:47:24Z</time>
      </trkpt>
      <trkpt lat="47.85963" lon="-3.53563">
        <ele>29</ele>
        <time>2019-07-15T10:47:25Z</time>
      </trkpt>
      <trkpt lat="47.85964" lon="-3.53567">
        <ele>29</ele>
        <time>2019-07-15T10:47:26Z</time>
      </trkpt>
      <trkpt lat="47.85966" lon="-3.53571">
        <ele>29</ele>
        <time>2019-07-15T10:47:27Z</time>
      </trkpt>
      <trkpt lat="47.85967" lon="-3.53574">
        <ele>29</ele>
        <time>2019-07-15T10:47:28Z</time>
      </trkpt>
      <trkpt lat="47.85968" lon="-3.53576">
        <ele>29</ele>
        <time>2019-07-15T10:47:29Z</time>
      </trkpt>
      <trkpt lat="47.85968" lon="-3.53578">
        <ele>29</ele>
        <time>2019-07-15T10:47:30Z</time>
      </trkpt>
      <trkpt lat="47.85969" lon="-3.53579">
        <ele>29</ele>
        <time>2019-07-15T10:47:31Z</time>
      </trkpt>
      <trkpt lat="47.85969" lon="-3.53579">
        <ele>29</ele>
        <time>2019-07-15T10:47:32Z</time>
      </trkpt>
      <trkpt lat="47.85971" lon="-3.53583">
        <ele>29</ele>
        <time>2019-07-15T10:47:33Z</time>
      </trkpt>
      <trkpt lat="47.85972" lon="-3.53582">
        <ele>29</ele>
        <time>2019-07-15T10:47:34Z</time>
      </trkpt>
      <trkpt lat="47.85975" lon="-3.53582">
        <ele>29</ele>
        <time>2019-07-15T10:47:35Z</time>
      </trkpt>
      <trkpt lat="47.85977" lon="-3.53583">
        <ele>29</ele>
        <time>2019-07-15T10:47:36Z</time>
      </trkpt>
      <trkpt lat="47.85979" lon="-3.53583">
        <ele>30</ele>
        <time>2019-07-15T10:47:37Z</time>
      </trkpt>
      <trkpt lat="47.85982" lon="-3.53582">
        <ele>30</ele>
        <time>2019-07-15T10:47:38Z</time>
      </trkpt>
      <trkpt lat="47.85985" lon="-3.53581">
        <ele>30</ele>
        <time>2019-07-15T10:47:39Z</time>
      </trkpt>
      <trkpt lat="47.85987" lon="-3.5358">
        <ele>30</ele>
        <time>2019-07-15T10:47:40Z</time>
      </trkpt>
      <trkpt lat="47.8599" lon="-3.53578">
        <ele>30</ele>
        <time>2019-07-15T10:47:41Z</time>
      </trkpt>
      <trkpt lat="47.85994" lon="-3.53576">
        <ele>30</ele>
        <time>2019-07-15T10:47:42Z</time>
      </trkpt>
      <trkpt lat="47.85998" lon="-3.53575">
        <ele>31</ele>
        <time>2019-07-15T10:47:43Z</time>
      </trkpt>
      <trkpt lat="47.86002" lon="-3.53573">
        <ele>31</ele>
        <time>2019-07-15T10:47:44Z</time>
      </trkpt>
      <trkpt lat="47.86007" lon="-3.53571">
        <ele>31</ele>
        <time>2019-07-15T10:47:45Z</time>
      </trkpt>
      <trkpt lat="47.86011" lon="-3.53569">
        <ele>31</ele>
        <time>2019-07-15T10:47:46Z</time>
      </trkpt>
      <trkpt lat="47.86015" lon="-3.53567">
        <ele>31</ele>
        <time>2019-07-15T10:47:47Z</time>
      </trkpt>
      <trkpt lat="47.8602" lon="-3.53565">
        <ele>32</ele>
        <time>2019-07-15T10:47:48Z</time>
      </trkpt>
      <trkpt lat="47.86024" lon="-3.53564">
        <ele>32</ele>
        <time>2019-07-15T10:47:49Z</time>
      </trkpt>
      <trkpt lat="47.86028" lon="-3.53562">
        <ele>32</ele>
        <time>2019-07-15T10:47:50Z</time>
      </trkpt>
      <trkpt lat="47.86032" lon="-3.5356">
        <ele>32</ele>
        <time>2019-07-15T10:47:51Z</time>
      </trkpt>
      <trkpt lat="47.86037" lon="-3.53559">
        <ele>32</ele>
        <time>2019-07-15T10:47:52Z</time>
      </trkpt>
      <trkpt lat="47.86041" lon="-3.53558">
        <ele>33</ele>
        <time>2019-07-15T10:47:53Z</time>
      </trkpt>
      <trkpt lat="47.86045" lon="-3.53558">
        <ele>33</ele>
        <time>2019-07-15T10:47:54Z</time>
      </trkpt>
      <trkpt lat="47.86049" lon="-3.53559">
        <ele>33</ele>
        <time>2019-07-15T10:47:55Z</time>
      </trkpt>
      <trkpt lat="47.86054" lon="-3.53561">
        <ele>33</ele>
        <time>2019-07-15T10:47:56Z</time>
      </trkpt>
      <trkpt lat="47.86057" lon="-3.53564">
        <ele>33</ele>
        <time>2019-07-15T10:47:57Z</time>
      </trkpt>
      <trkpt lat="47.86061" lon="-3.53565">
        <ele>33</ele>
        <time>2019-07-15T10:47:58Z</time>
      </trkpt>
      <trkpt lat="47.86064" lon="-3.53568">
        <ele>34</ele>
        <time>2019-07-15T10:47:59Z</time>
      </trkpt>
      <trkpt lat="47.86068" lon="-3.53571">
        <ele>34</ele>
        <time>2019-07-15T10:48:00Z</time>
      </trkpt>
      <trkpt lat="47.86072" lon="-3.53575">
        <ele>34</ele>
        <time>2019-07-15T10:48:01Z</time>
      </trkpt>
      <trkpt lat="47.86076" lon="-3.53579">
        <ele>34</ele>
        <time>2019-07-15T10:48:02Z</time>
      </trkpt>
      <trkpt lat="47.86079" lon="-3.53583">
        <ele>34</ele>
        <time>2019-07-15T10:48:03Z</time>
      </trkpt>
      <trkpt lat="47.86082" lon="-3.53587">
        <ele>35</ele>
        <time>2019-07-15T10:48:04Z</time>
      </trkpt>
      <trkpt lat="47.86086" lon="-3.5359">
        <ele>35</ele>
        <time>2019-07-15T10:48:05Z</time>
      </trkpt>
      <trkpt lat="47.86089" lon="-3.53593">
        <ele>35</ele>
        <time>2019-07-15T10:48:06Z</time>
      </trkpt>
      <trkpt lat="47.86093" lon="-3.53596">
        <ele>35</ele>
        <time>2019-07-15T10:48:07Z</time>
      </trkpt>
      <trkpt lat="47.86097" lon="-3.53598">
        <ele>35</ele>
        <time>2019-07-15T10:48:08Z</time>
      </trkpt>
      <trkpt lat="47.86101" lon="-3.536">
        <ele>35</ele>
        <time>2019-07-15T10:48:09Z</time>
      </trkpt>
      <trkpt lat="47.86105" lon="-3.536">
        <ele>35</ele>
        <time>2019-07-15T10:48:10Z</time>
      </trkpt>
      <trkpt lat="47.8611" lon="-3.53598">
        <ele>36</ele>
        <time>2019-07-15T10:48:11Z</time>
      </trkpt>
      <trkpt lat="47.86114" lon="-3.53596">
        <ele>36</ele>
        <time>2019-07-15T10:48:12Z</time>
      </trkpt>
      <trkpt lat="47.86118" lon="-3.53594">
        <ele>36</ele>
        <time>2019-07-15T10:48:13Z</time>
      </trkpt>
      <trkpt lat="47.86123" lon="-3.53591">
        <ele>36</ele>
        <time>2019-07-15T10:48:14Z</time>
      </trkpt>
      <trkpt lat="47.86127" lon="-3.53587">
        <ele>36</ele>
        <time>2019-07-15T10:48:15Z</time>
      </trkpt>
      <trkpt lat="47.86131" lon="-3.53584">
        <ele>36</ele>
        <time>2019-07-15T10:48:16Z</time>
      </trkpt>
      <trkpt lat="47.86135" lon="-3.53581">
        <ele>36</ele>
        <time>2019-07-15T10:48:17Z</time>
      </trkpt>
      <trkpt lat="47.86139" lon="-3.53577">
        <ele>37</ele>
        <time>2019-07-15T10:48:18Z</time>
      </trkpt>
      <trkpt lat="47.86144" lon="-3.53574">
        <ele>37</ele>
        <time>2019-07-15T10:48:19Z</time>
      </trkpt>
      <trkpt lat="47.86148" lon="-3.5357">
        <ele>37</ele>
        <time>2019-07-15T10:48:20Z</time>
      </trkpt>
      <trkpt lat="47.86152" lon="-3.53567">
        <ele>37</ele>
        <time>2019-07-15T10:48:21Z</time>
      </trkpt>
      <trkpt lat="47.86156" lon="-3.53564">
        <ele>37</ele>
        <time>2019-07-15T10:48:22Z</time>
      </trkpt>
      <trkpt lat="47.8616" lon="-3.5356">
        <ele>38</ele>
        <time>2019-07-15T10:48:23Z</time>
      </trkpt>
      <trkpt lat="47.86164" lon="-3.53557">
        <ele>38</ele>
        <time>2019-07-15T10:48:24Z</time>
      </trkpt>
      <trkpt lat="47.86168" lon="-3.53553">
        <ele>38</ele>
        <time>2019-07-15T10:48:25Z</time>
      </trkpt>
      <trkpt lat="47.86172" lon="-3.5355">
        <ele>38</ele>
        <time>2019-07-15T10:48:26Z</time>
      </trkpt>
      <trkpt lat="47.86175" lon="-3.53548">
        <ele>38</ele>
        <time>2019-07-15T10:48:27Z</time>
      </trkpt>
      <trkpt lat="47.86179" lon="-3.53548">
        <ele>38</ele>
        <time>2019-07-15T10:48:28Z</time>
      </trkpt>
      <trkpt lat="47.86182" lon="-3.53548">
        <ele>38</ele>
        <time>2019-07-15T10:48:29Z</time>
      </trkpt>
      <trkpt lat="47.86184" lon="-3.53547">
        <ele>39</ele>
        <time>2019-07-15T10:48:30Z</time>
      </trkpt>
      <trkpt lat="47.86187" lon="-3.53546">
        <ele>39</ele>
        <time>2019-07-15T10:48:31Z</time>
      </trkpt>
      <trkpt lat="47.8619" lon="-3.53545">
        <ele>39</ele>
        <time>2019-07-15T10:48:32Z</time>
      </trkpt>
      <trkpt lat="47.86193" lon="-3.53544">
        <ele>39</ele>
        <time>2019-07-15T10:48:33Z</time>
      </trkpt>
      <trkpt lat="47.86195" lon="-3.53544">
        <ele>39</ele>
        <time>2019-07-15T10:48:34Z</time>
      </trkpt>
      <trkpt lat="47.86198" lon="-3.53543">
        <ele>39</ele>
        <time>2019-07-15T10:48:35Z</time>
      </trkpt>
      <trkpt lat="47.862" lon="-3.53542">
        <ele>39</ele>
        <time>2019-07-15T10:48:36Z</time>
      </trkpt>
      <trkpt lat="47.86203" lon="-3.53541">
        <ele>39</ele>
        <time>2019-07-15T10:48:37Z</time>
      </trkpt>
      <trkpt lat="47.86207" lon="-3.53541">
        <ele>39</ele>
        <time>2019-07-15T10:48:38Z</time>
      </trkpt>
      <trkpt lat="47.86211" lon="-3.5354">
        <ele>40</ele>
        <time>2019-07-15T10:48:39Z</time>
      </trkpt>
      <trkpt lat="47.86215" lon="-3.53539">
        <ele>40</ele>
        <time>2019-07-15T10:48:40Z</time>
      </trkpt>
      <trkpt lat="47.86218" lon="-3.53537">
        <ele>40</ele>
        <time>2019-07-15T10:48:41Z</time>
      </trkpt>
      <trkpt lat="47.86222" lon="-3.53537">
        <ele>40</ele>
        <time>2019-07-15T10:48:42Z</time>
      </trkpt>
      <trkpt lat="47.86226" lon="-3.53536">
        <ele>40</ele>
        <time>2019-07-15T10:48:43Z</time>
      </trkpt>
      <trkpt lat="47.8623" lon="-3.53535">
        <ele>40</ele>
        <time>2019-07-15T10:48:44Z</time>
      </trkpt>
      <trkpt lat="47.86234" lon="-3.53535">
        <ele>40</ele>
        <time>2019-07-15T10:48:45Z</time>
      </trkpt>
      <trkpt lat="47.86238" lon="-3.53535">
        <ele>40</ele>
        <time>2019-07-15T10:48:46Z</time>
      </trkpt>
      <trkpt lat="47.86242" lon="-3.53536">
        <ele>40</ele>
        <time>2019-07-15T10:48:47Z</time>
      </trkpt>
      <trkpt lat="47.86246" lon="-3.53537">
        <ele>40</ele>
        <time>2019-07-15T10:48:48Z</time>
      </trkpt>
      <trkpt lat="47.8625" lon="-3.53538">
        <ele>41</ele>
        <time>2019-07-15T10:48:49Z</time>
      </trkpt>
      <trkpt lat="47.86254" lon="-3.53539">
        <ele>41</ele>
        <time>2019-07-15T10:48:50Z</time>
      </trkpt>
      <trkpt lat="47.86257" lon="-3.53539">
        <ele>41</ele>
        <time>2019-07-15T10:48:51Z</time>
      </trkpt>
      <trkpt lat="47.86261" lon="-3.53539">
        <ele>41</ele>
        <time>2019-07-15T10:48:52Z</time>
      </trkpt>
      <trkpt lat="47.86264" lon="-3.53539">
        <ele>41</ele>
        <time>2019-07-15T10:48:53Z</time>
      </trkpt>
      <trkpt lat="47.86268" lon="-3.53539">
        <ele>41</ele>
        <time>2019-07-15T10:48:54Z</time>
      </trkpt>
      <trkpt lat="47.86272" lon="-3.53539">
        <ele>41</ele>
        <time>2019-07-15T10:48:55Z</time>
      </trkpt>
      <trkpt lat="47.86277" lon="-3.53539">
        <ele>41</ele>
        <time>2019-07-15T10:48:56Z</time>
      </trkpt>
      <trkpt lat="47.86282" lon="-3.53538">
        <ele>41</ele>
        <time>2019-07-15T10:48:57Z</time>
      </trkpt>
      <trkpt lat="47.86286" lon="-3.53538">
        <ele>41</ele>
        <time>2019-07-15T10:48:58Z</time>
      </trkpt>
      <trkpt lat="47.8629" lon="-3.53539">
        <ele>41</ele>
        <time>2019-07-15T10:48:59Z</time>
      </trkpt>
      <trkpt lat="47.86294" lon="-3.53538">
        <ele>41</ele>
        <time>2019-07-15T10:49:00Z</time>
      </trkpt>
      <trkpt lat="47.86299" lon="-3.53538">
        <ele>41</ele>
        <time>2019-07-15T10:49:01Z</time>
      </trkpt>
      <trkpt lat="47.86303" lon="-3.53538">
        <ele>41</ele>
        <time>2019-07-15T10:49:02Z</time>
      </trkpt>
      <trkpt lat="47.86307" lon="-3.53538">
        <ele>41</ele>
        <time>2019-07-15T10:49:03Z</time>
      </trkpt>
      <trkpt lat="47.86312" lon="-3.53539">
        <ele>42</ele>
        <time>2019-07-15T10:49:04Z</time>
      </trkpt>
      <trkpt lat="47.86316" lon="-3.53539">
        <ele>42</ele>
        <time>2019-07-15T10:49:05Z</time>
      </trkpt>
      <trkpt lat="47.86322" lon="-3.53539">
        <ele>42</ele>
        <time>2019-07-15T10:49:06Z</time>
      </trkpt>
      <trkpt lat="47.86327" lon="-3.53538">
        <ele>42</ele>
        <time>2019-07-15T10:49:07Z</time>
      </trkpt>
      <trkpt lat="47.86332" lon="-3.53537">
        <ele>42</ele>
        <time>2019-07-15T10:49:08Z</time>
      </trkpt>
      <trkpt lat="47.86336" lon="-3.53536">
        <ele>42</ele>
        <time>2019-07-15T10:49:09Z</time>
      </trkpt>
      <trkpt lat="47.86339" lon="-3.53537">
        <ele>42</ele>
        <time>2019-07-15T10:49:10Z</time>
      </trkpt>
      <trkpt lat="47.86343" lon="-3.53538">
        <ele>42</ele>
        <time>2019-07-15T10:49:11Z</time>
      </trkpt>
      <trkpt lat="47.86348" lon="-3.53539">
        <ele>42</ele>
        <time>2019-07-15T10:49:12Z</time>
      </trkpt>
      <trkpt lat="47.86352" lon="-3.5354">
        <ele>42</ele>
        <time>2019-07-15T10:49:13Z</time>
      </trkpt>
      <trkpt lat="47.86357" lon="-3.53541">
        <ele>43</ele>
        <time>2019-07-15T10:49:14Z</time>
      </trkpt>
      <trkpt lat="47.86362" lon="-3.53543">
        <ele>43</ele>
        <time>2019-07-15T10:49:15Z</time>
      </trkpt>
      <trkpt lat="47.86366" lon="-3.53544">
        <ele>43</ele>
        <time>2019-07-15T10:49:16Z</time>
      </trkpt>
      <trkpt lat="47.86372" lon="-3.53545">
        <ele>43</ele>
        <time>2019-07-15T10:49:17Z</time>
      </trkpt>
      <trkpt lat="47.86376" lon="-3.53546">
        <ele>43</ele>
        <time>2019-07-15T10:49:18Z</time>
      </trkpt>
      <trkpt lat="47.8638" lon="-3.53547">
        <ele>43</ele>
        <time>2019-07-15T10:49:19Z</time>
      </trkpt>
      <trkpt lat="47.86385" lon="-3.53548">
        <ele>43</ele>
        <time>2019-07-15T10:49:20Z</time>
      </trkpt>
      <trkpt lat="47.86389" lon="-3.5355">
        <ele>43</ele>
        <time>2019-07-15T10:49:21Z</time>
      </trkpt>
      <trkpt lat="47.86393" lon="-3.53551">
        <ele>43</ele>
        <time>2019-07-15T10:49:22Z</time>
      </trkpt>
      <trkpt lat="47.86398" lon="-3.53552">
        <ele>43</ele>
        <time>2019-07-15T10:49:23Z</time>
      </trkpt>
      <trkpt lat="47.86402" lon="-3.53554">
        <ele>43</ele>
        <time>2019-07-15T10:49:24Z</time>
      </trkpt>
      <trkpt lat="47.86406" lon="-3.53555">
        <ele>43</ele>
        <time>2019-07-15T10:49:25Z</time>
      </trkpt>
      <trkpt lat="47.86411" lon="-3.53557">
        <ele>43</ele>
        <time>2019-07-15T10:49:26Z</time>
      </trkpt>
      <trkpt lat="47.86415" lon="-3.53559">
        <ele>43</ele>
        <time>2019-07-15T10:49:27Z</time>
      </trkpt>
      <trkpt lat="47.8642" lon="-3.53561">
        <ele>43</ele>
        <time>2019-07-15T10:49:28Z</time>
      </trkpt>
      <trkpt lat="47.86425" lon="-3.53564">
        <ele>42</ele>
        <time>2019-07-15T10:49:29Z</time>
      </trkpt>
      <trkpt lat="47.86431" lon="-3.53566">
        <ele>42</ele>
        <time>2019-07-15T10:49:30Z</time>
      </trkpt>
      <trkpt lat="47.86435" lon="-3.53568">
        <ele>42</ele>
        <time>2019-07-15T10:49:31Z</time>
      </trkpt>
      <trkpt lat="47.86439" lon="-3.53571">
        <ele>42</ele>
        <time>2019-07-15T10:49:32Z</time>
      </trkpt>
      <trkpt lat="47.86443" lon="-3.53572">
        <ele>42</ele>
        <time>2019-07-15T10:49:33Z</time>
      </trkpt>
      <trkpt lat="47.86446" lon="-3.53574">
        <ele>42</ele>
        <time>2019-07-15T10:49:34Z</time>
      </trkpt>
      <trkpt lat="47.86449" lon="-3.53575">
        <ele>42</ele>
        <time>2019-07-15T10:49:35Z</time>
      </trkpt>
      <trkpt lat="47.86451" lon="-3.53577">
        <ele>42</ele>
        <time>2019-07-15T10:49:36Z</time>
      </trkpt>
      <trkpt lat="47.86453" lon="-3.5358">
        <ele>42</ele>
        <time>2019-07-15T10:49:37Z</time>
      </trkpt>
      <trkpt lat="47.86455" lon="-3.53583">
        <ele>41</ele>
        <time>2019-07-15T10:49:38Z</time>
      </trkpt>
      <trkpt lat="47.86458" lon="-3.53586">
        <ele>41</ele>
        <time>2019-07-15T10:49:39Z</time>
      </trkpt>
      <trkpt lat="47.86462" lon="-3.53588">
        <ele>41</ele>
        <time>2019-07-15T10:49:40Z</time>
      </trkpt>
      <trkpt lat="47.86465" lon="-3.53588">
        <ele>41</ele>
        <time>2019-07-15T10:49:41Z</time>
      </trkpt>
      <trkpt lat="47.86469" lon="-3.53587">
        <ele>41</ele>
        <time>2019-07-15T10:49:42Z</time>
      </trkpt>
      <trkpt lat="47.86472" lon="-3.53585">
        <ele>41</ele>
        <time>2019-07-15T10:49:43Z</time>
      </trkpt>
      <trkpt lat="47.86476" lon="-3.53582">
        <ele>41</ele>
        <time>2019-07-15T10:49:44Z</time>
      </trkpt>
      <trkpt lat="47.86479" lon="-3.53579">
        <ele>41</ele>
        <time>2019-07-15T10:49:45Z</time>
      </trkpt>
      <trkpt lat="47.86483" lon="-3.53576">
        <ele>41</ele>
        <time>2019-07-15T10:49:46Z</time>
      </trkpt>
      <trkpt lat="47.86486" lon="-3.53573">
        <ele>41</ele>
        <time>2019-07-15T10:49:47Z</time>
      </trkpt>
      <trkpt lat="47.86488" lon="-3.53569">
        <ele>41</ele>
        <time>2019-07-15T10:49:48Z</time>
      </trkpt>
      <trkpt lat="47.8649" lon="-3.53566">
        <ele>41</ele>
        <time>2019-07-15T10:49:49Z</time>
      </trkpt>
      <trkpt lat="47.86492" lon="-3.53563">
        <ele>41</ele>
        <time>2019-07-15T10:49:50Z</time>
      </trkpt>
      <trkpt lat="47.86493" lon="-3.5356">
        <ele>41</ele>
        <time>2019-07-15T10:49:51Z</time>
      </trkpt>
      <trkpt lat="47.86494" lon="-3.53556">
        <ele>41</ele>
        <time>2019-07-15T10:49:52Z</time>
      </trkpt>
      <trkpt lat="47.86494" lon="-3.53552">
        <ele>41</ele>
        <time>2019-07-15T10:49:53Z</time>
      </trkpt>
      <trkpt lat="47.86495" lon="-3.53549">
        <ele>41</ele>
        <time>2019-07-15T10:49:54Z</time>
      </trkpt>
      <trkpt lat="47.86495" lon="-3.53548">
        <ele>41</ele>
        <time>2019-07-15T10:49:55Z</time>
      </trkpt>
      <trkpt lat="47.86495" lon="-3.53548">
        <ele>41</ele>
        <time>2019-07-15T10:49:56Z</time>
      </trkpt>
      <trkpt lat="47.86496" lon="-3.53548">
        <ele>41</ele>
        <time>2019-07-15T10:49:57Z</time>
      </trkpt>
      <trkpt lat="47.86496" lon="-3.53548">
        <ele>41</ele>
        <time>2019-07-15T10:49:58Z</time>
      </trkpt>
      <trkpt lat="47.86499" lon="-3.53543">
        <ele>44</ele>
        <time>2019-07-15T10:49:59Z</time>
      </trkpt>
      <trkpt lat="47.86498" lon="-3.5354">
        <ele>44</ele>
        <time>2019-07-15T10:50:00Z</time>
      </trkpt>
      <trkpt lat="47.86498" lon="-3.53536">
        <ele>45</ele>
        <time>2019-07-15T10:50:01Z</time>
      </trkpt>
      <trkpt lat="47.86496" lon="-3.53532">
        <ele>45</ele>
        <time>2019-07-15T10:50:02Z</time>
      </trkpt>
      <trkpt lat="47.86494" lon="-3.53527">
        <ele>46</ele>
        <time>2019-07-15T10:50:03Z</time>
      </trkpt>
      <trkpt lat="47.86493" lon="-3.53522">
        <ele>46</ele>
        <time>2019-07-15T10:50:04Z</time>
      </trkpt>
      <trkpt lat="47.8649" lon="-3.53517">
        <ele>47</ele>
        <time>2019-07-15T10:50:05Z</time>
      </trkpt>
      <trkpt lat="47.86488" lon="-3.53512">
        <ele>47</ele>
        <time>2019-07-15T10:50:06Z</time>
      </trkpt>
      <trkpt lat="47.86486" lon="-3.53506">
        <ele>47</ele>
        <time>2019-07-15T10:50:07Z</time>
      </trkpt>
      <trkpt lat="47.86483" lon="-3.535">
        <ele>48</ele>
        <time>2019-07-15T10:50:08Z</time>
      </trkpt>
      <trkpt lat="47.86481" lon="-3.53494">
        <ele>48</ele>
        <time>2019-07-15T10:50:09Z</time>
      </trkpt>
      <trkpt lat="47.86478" lon="-3.53487">
        <ele>48</ele>
        <time>2019-07-15T10:50:10Z</time>
      </trkpt>
      <trkpt lat="47.86475" lon="-3.5348">
        <ele>49</ele>
        <time>2019-07-15T10:50:11Z</time>
      </trkpt>
      <trkpt lat="47.86472" lon="-3.53474">
        <ele>49</ele>
        <time>2019-07-15T10:50:12Z</time>
      </trkpt>
      <trkpt lat="47.8647" lon="-3.53467">
        <ele>49</ele>
        <time>2019-07-15T10:50:13Z</time>
      </trkpt>
      <trkpt lat="47.86468" lon="-3.53462">
        <ele>49</ele>
        <time>2019-07-15T10:50:14Z</time>
      </trkpt>
      <trkpt lat="47.86465" lon="-3.53455">
        <ele>49</ele>
        <time>2019-07-15T10:50:15Z</time>
      </trkpt>
      <trkpt lat="47.86462" lon="-3.53449">
        <ele>50</ele>
        <time>2019-07-15T10:50:16Z</time>
      </trkpt>
      <trkpt lat="47.86458" lon="-3.53442">
        <ele>50</ele>
        <time>2019-07-15T10:50:17Z</time>
      </trkpt>
      <trkpt lat="47.86455" lon="-3.53435">
        <ele>50</ele>
        <time>2019-07-15T10:50:18Z</time>
      </trkpt>
      <trkpt lat="47.86452" lon="-3.53427">
        <ele>50</ele>
        <time>2019-07-15T10:50:19Z</time>
      </trkpt>
      <trkpt lat="47.8645" lon="-3.5342">
        <ele>50</ele>
        <time>2019-07-15T10:50:20Z</time>
      </trkpt>
      <trkpt lat="47.86447" lon="-3.53412">
        <ele>50</ele>
        <time>2019-07-15T10:50:21Z</time>
      </trkpt>
      <trkpt lat="47.86445" lon="-3.53404">
        <ele>50</ele>
        <time>2019-07-15T10:50:22Z</time>
      </trkpt>
      <trkpt lat="47.86442" lon="-3.53396">
        <ele>51</ele>
        <time>2019-07-15T10:50:23Z</time>
      </trkpt>
      <trkpt lat="47.8644" lon="-3.53388">
        <ele>51</ele>
        <time>2019-07-15T10:50:24Z</time>
      </trkpt>
      <trkpt lat="47.86439" lon="-3.5338">
        <ele>51</ele>
        <time>2019-07-15T10:50:25Z</time>
      </trkpt>
      <trkpt lat="47.86438" lon="-3.53371">
        <ele>51</ele>
        <time>2019-07-15T10:50:26Z</time>
      </trkpt>
      <trkpt lat="47.86439" lon="-3.53364">
        <ele>51</ele>
        <time>2019-07-15T10:50:27Z</time>
      </trkpt>
      <trkpt lat="47.86441" lon="-3.53358">
        <ele>51</ele>
        <time>2019-07-15T10:50:28Z</time>
      </trkpt>
      <trkpt lat="47.86444" lon="-3.53353">
        <ele>51</ele>
        <time>2019-07-15T10:50:29Z</time>
      </trkpt>
      <trkpt lat="47.86448" lon="-3.5335">
        <ele>51</ele>
        <time>2019-07-15T10:50:30Z</time>
      </trkpt>
      <trkpt lat="47.86451" lon="-3.53346">
        <ele>51</ele>
        <time>2019-07-15T10:50:31Z</time>
      </trkpt>
      <trkpt lat="47.86455" lon="-3.53344">
        <ele>51</ele>
        <time>2019-07-15T10:50:32Z</time>
      </trkpt>
      <trkpt lat="47.86459" lon="-3.53341">
        <ele>51</ele>
        <time>2019-07-15T10:50:33Z</time>
      </trkpt>
      <trkpt lat="47.86463" lon="-3.53338">
        <ele>51</ele>
        <time>2019-07-15T10:50:34Z</time>
      </trkpt>
      <trkpt lat="47.86468" lon="-3.53335">
        <ele>51</ele>
        <time>2019-07-15T10:50:35Z</time>
      </trkpt>
      <trkpt lat="47.86472" lon="-3.53332">
        <ele>51</ele>
        <time>2019-07-15T10:50:36Z</time>
      </trkpt>
      <trkpt lat="47.86477" lon="-3.5333">
        <ele>51</ele>
        <time>2019-07-15T10:50:37Z</time>
      </trkpt>
      <trkpt lat="47.86481" lon="-3.53328">
        <ele>51</ele>
        <time>2019-07-15T10:50:38Z</time>
      </trkpt>
      <trkpt lat="47.86486" lon="-3.53325">
        <ele>51</ele>
        <time>2019-07-15T10:50:39Z</time>
      </trkpt>
      <trkpt lat="47.8649" lon="-3.53323">
        <ele>51</ele>
        <time>2019-07-15T10:50:40Z</time>
      </trkpt>
      <trkpt lat="47.86495" lon="-3.53321">
        <ele>52</ele>
        <time>2019-07-15T10:50:41Z</time>
      </trkpt>
      <trkpt lat="47.865" lon="-3.53319">
        <ele>52</ele>
        <time>2019-07-15T10:50:42Z</time>
      </trkpt>
      <trkpt lat="47.86505" lon="-3.53317">
        <ele>52</ele>
        <time>2019-07-15T10:50:43Z</time>
      </trkpt>
      <trkpt lat="47.8651" lon="-3.53315">
        <ele>52</ele>
        <time>2019-07-15T10:50:44Z</time>
      </trkpt>
      <trkpt lat="47.86515" lon="-3.53312">
        <ele>51</ele>
        <time>2019-07-15T10:50:45Z</time>
      </trkpt>
      <trkpt lat="47.8652" lon="-3.5331">
        <ele>51</ele>
        <time>2019-07-15T10:50:46Z</time>
      </trkpt>
      <trkpt lat="47.86524" lon="-3.53308">
        <ele>51</ele>
        <time>2019-07-15T10:50:47Z</time>
      </trkpt>
      <trkpt lat="47.86529" lon="-3.53306">
        <ele>51</ele>
        <time>2019-07-15T10:50:48Z</time>
      </trkpt>
      <trkpt lat="47.86534" lon="-3.53303">
        <ele>51</ele>
        <time>2019-07-15T10:50:49Z</time>
      </trkpt>
      <trkpt lat="47.86539" lon="-3.53301">
        <ele>51</ele>
        <time>2019-07-15T10:50:50Z</time>
      </trkpt>
      <trkpt lat="47.86543" lon="-3.53299">
        <ele>51</ele>
        <time>2019-07-15T10:50:51Z</time>
      </trkpt>
      <trkpt lat="47.86548" lon="-3.53296">
        <ele>51</ele>
        <time>2019-07-15T10:50:52Z</time>
      </trkpt>
      <trkpt lat="47.86553" lon="-3.53293">
        <ele>51</ele>
        <time>2019-07-15T10:50:53Z</time>
      </trkpt>
      <trkpt lat="47.86558" lon="-3.53291">
        <ele>51</ele>
        <time>2019-07-15T10:50:54Z</time>
      </trkpt>
      <trkpt lat="47.86562" lon="-3.53288">
        <ele>51</ele>
        <time>2019-07-15T10:50:55Z</time>
      </trkpt>
      <trkpt lat="47.86567" lon="-3.53286">
        <ele>51</ele>
        <time>2019-07-15T10:50:56Z</time>
      </trkpt>
      <trkpt lat="47.86572" lon="-3.53283">
        <ele>51</ele>
        <time>2019-07-15T10:50:57Z</time>
      </trkpt>
      <trkpt lat="47.86576" lon="-3.53281">
        <ele>51</ele>
        <time>2019-07-15T10:50:58Z</time>
      </trkpt>
      <trkpt lat="47.86581" lon="-3.53279">
        <ele>51</ele>
        <time>2019-07-15T10:50:59Z</time>
      </trkpt>
      <trkpt lat="47.86586" lon="-3.53278">
        <ele>51</ele>
        <time>2019-07-15T10:51:00Z</time>
      </trkpt>
      <trkpt lat="47.86591" lon="-3.53278">
        <ele>51</ele>
        <time>2019-07-15T10:51:01Z</time>
      </trkpt>
      <trkpt lat="47.86596" lon="-3.53279">
        <ele>51</ele>
        <time>2019-07-15T10:51:02Z</time>
      </trkpt>
      <trkpt lat="47.86601" lon="-3.53282">
        <ele>51</ele>
        <time>2019-07-15T10:51:03Z</time>
      </trkpt>
      <trkpt lat="47.86605" lon="-3.53287">
        <ele>51</ele>
        <time>2019-07-15T10:51:04Z</time>
      </trkpt>
      <trkpt lat="47.86609" lon="-3.53293">
        <ele>50</ele>
        <time>2019-07-15T10:51:05Z</time>
      </trkpt>
      <trkpt lat="47.86613" lon="-3.533">
        <ele>50</ele>
        <time>2019-07-15T10:51:06Z</time>
      </trkpt>
      <trkpt lat="47.86616" lon="-3.53308">
        <ele>50</ele>
        <time>2019-07-15T10:51:07Z</time>
      </trkpt>
      <trkpt lat="47.86619" lon="-3.53317">
        <ele>50</ele>
        <time>2019-07-15T10:51:08Z</time>
      </trkpt>
      <trkpt lat="47.86622" lon="-3.53325">
        <ele>50</ele>
        <time>2019-07-15T10:51:09Z</time>
      </trkpt>
      <trkpt lat="47.86626" lon="-3.53333">
        <ele>50</ele>
        <time>2019-07-15T10:51:10Z</time>
      </trkpt>
      <trkpt lat="47.86629" lon="-3.53342">
        <ele>50</ele>
        <time>2019-07-15T10:51:11Z</time>
      </trkpt>
      <trkpt lat="47.86633" lon="-3.53351">
        <ele>50</ele>
        <time>2019-07-15T10:51:12Z</time>
      </trkpt>
      <trkpt lat="47.86637" lon="-3.53359">
        <ele>50</ele>
        <time>2019-07-15T10:51:13Z</time>
      </trkpt>
      <trkpt lat="47.86641" lon="-3.53367">
        <ele>50</ele>
        <time>2019-07-15T10:51:14Z</time>
      </trkpt>
      <trkpt lat="47.86645" lon="-3.53376">
        <ele>50</ele>
        <time>2019-07-15T10:51:15Z</time>
      </trkpt>
      <trkpt lat="47.8665" lon="-3.53384">
        <ele>50</ele>
        <time>2019-07-15T10:51:16Z</time>
      </trkpt>
      <trkpt lat="47.86655" lon="-3.53393">
        <ele>50</ele>
        <time>2019-07-15T10:51:17Z</time>
      </trkpt>
      <trkpt lat="47.86659" lon="-3.53401">
        <ele>50</ele>
        <time>2019-07-15T10:51:18Z</time>
      </trkpt>
      <trkpt lat="47.86663" lon="-3.5341">
        <ele>50</ele>
        <time>2019-07-15T10:51:19Z</time>
      </trkpt>
      <trkpt lat="47.86668" lon="-3.53419">
        <ele>50</ele>
        <time>2019-07-15T10:51:20Z</time>
      </trkpt>
      <trkpt lat="47.86672" lon="-3.53429">
        <ele>50</ele>
        <time>2019-07-15T10:51:21Z</time>
      </trkpt>
      <trkpt lat="47.86676" lon="-3.53438">
        <ele>49</ele>
        <time>2019-07-15T10:51:22Z</time>
      </trkpt>
      <trkpt lat="47.86681" lon="-3.53448">
        <ele>49</ele>
        <time>2019-07-15T10:51:23Z</time>
      </trkpt>
      <trkpt lat="47.86685" lon="-3.53457">
        <ele>49</ele>
        <time>2019-07-15T10:51:24Z</time>
      </trkpt>
      <trkpt lat="47.8669" lon="-3.53467">
        <ele>49</ele>
        <time>2019-07-15T10:51:25Z</time>
      </trkpt>
      <trkpt lat="47.86695" lon="-3.53476">
        <ele>49</ele>
        <time>2019-07-15T10:51:26Z</time>
      </trkpt>
      <trkpt lat="47.867" lon="-3.53486">
        <ele>49</ele>
        <time>2019-07-15T10:51:27Z</time>
      </trkpt>
      <trkpt lat="47.86704" lon="-3.53496">
        <ele>49</ele>
        <time>2019-07-15T10:51:28Z</time>
      </trkpt>
      <trkpt lat="47.86709" lon="-3.53505">
        <ele>49</ele>
        <time>2019-07-15T10:51:29Z</time>
      </trkpt>
      <trkpt lat="47.86714" lon="-3.53515">
        <ele>49</ele>
        <time>2019-07-15T10:51:30Z</time>
      </trkpt>
      <trkpt lat="47.86718" lon="-3.53525">
        <ele>49</ele>
        <time>2019-07-15T10:51:31Z</time>
      </trkpt>
      <trkpt lat="47.86723" lon="-3.53534">
        <ele>49</ele>
        <time>2019-07-15T10:51:32Z</time>
      </trkpt>
      <trkpt lat="47.86728" lon="-3.53544">
        <ele>49</ele>
        <time>2019-07-15T10:51:33Z</time>
      </trkpt>
      <trkpt lat="47.86733" lon="-3.53554">
        <ele>49</ele>
        <time>2019-07-15T10:51:34Z</time>
      </trkpt>
      <trkpt lat="47.86738" lon="-3.53563">
        <ele>49</ele>
        <time>2019-07-15T10:51:35Z</time>
      </trkpt>
      <trkpt lat="47.86743" lon="-3.53573">
        <ele>49</ele>
        <time>2019-07-15T10:51:36Z</time>
      </trkpt>
      <trkpt lat="47.86748" lon="-3.53582">
        <ele>49</ele>
        <time>2019-07-15T10:51:37Z</time>
      </trkpt>
      <trkpt lat="47.86753" lon="-3.53592">
        <ele>49</ele>
        <time>2019-07-15T10:51:38Z</time>
      </trkpt>
      <trkpt lat="47.86758" lon="-3.53602">
        <ele>49</ele>
        <time>2019-07-15T10:51:39Z</time>
      </trkpt>
      <trkpt lat="47.86763" lon="-3.53612">
        <ele>49</ele>
        <time>2019-07-15T10:51:40Z</time>
      </trkpt>
      <trkpt lat="47.86768" lon="-3.53622">
        <ele>49</ele>
        <time>2019-07-15T10:51:41Z</time>
      </trkpt>
      <trkpt lat="47.86773" lon="-3.53632">
        <ele>49</ele>
        <time>2019-07-15T10:51:42Z</time>
      </trkpt>
      <trkpt lat="47.86777" lon="-3.53642">
        <ele>49</ele>
        <time>2019-07-15T10:51:43Z</time>
      </trkpt>
      <trkpt lat="47.86781" lon="-3.53653">
        <ele>49</ele>
        <time>2019-07-15T10:51:44Z</time>
      </trkpt>
      <trkpt lat="47.86785" lon="-3.53664">
        <ele>49</ele>
        <time>2019-07-15T10:51:45Z</time>
      </trkpt>
      <trkpt lat="47.86789" lon="-3.53675">
        <ele>49</ele>
        <time>2019-07-15T10:51:46Z</time>
      </trkpt>
      <trkpt lat="47.86792" lon="-3.53686">
        <ele>49</ele>
        <time>2019-07-15T10:51:47Z</time>
      </trkpt>
      <trkpt lat="47.86795" lon="-3.53698">
        <ele>49</ele>
        <time>2019-07-15T10:51:48Z</time>
      </trkpt>
      <trkpt lat="47.86795" lon="-3.53698">
        <ele>49</ele>
        <time>2019-07-15T10:51:51Z</time>
      </trkpt>
      <trkpt lat="47.86795" lon="-3.53698">
        <ele>49</ele>
        <time>2019-07-15T10:51:52Z</time>
      </trkpt>
      <trkpt lat="47.86806" lon="-3.53748">
        <ele>49</ele>
        <time>2019-07-15T10:51:53Z</time>
      </trkpt>
      <trkpt lat="47.86806" lon="-3.53758">
        <ele>49</ele>
        <time>2019-07-15T10:51:54Z</time>
      </trkpt>
      <trkpt lat="47.86807" lon="-3.53767">
        <ele>49</ele>
        <time>2019-07-15T10:51:55Z</time>
      </trkpt>
      <trkpt lat="47.86808" lon="-3.53776">
        <ele>49</ele>
        <time>2019-07-15T10:51:56Z</time>
      </trkpt>
      <trkpt lat="47.86809" lon="-3.53787">
        <ele>48</ele>
        <time>2019-07-15T10:51:57Z</time>
      </trkpt>
      <trkpt lat="47.86809" lon="-3.53797">
        <ele>48</ele>
        <time>2019-07-15T10:51:58Z</time>
      </trkpt>
      <trkpt lat="47.86811" lon="-3.53807">
        <ele>48</ele>
        <time>2019-07-15T10:51:59Z</time>
      </trkpt>
      <trkpt lat="47.86813" lon="-3.53817">
        <ele>48</ele>
        <time>2019-07-15T10:52:00Z</time>
      </trkpt>
      <trkpt lat="47.86815" lon="-3.53827">
        <ele>48</ele>
        <time>2019-07-15T10:52:01Z</time>
      </trkpt>
      <trkpt lat="47.86816" lon="-3.53838">
        <ele>47</ele>
        <time>2019-07-15T10:52:02Z</time>
      </trkpt>
      <trkpt lat="47.86818" lon="-3.53848">
        <ele>47</ele>
        <time>2019-07-15T10:52:03Z</time>
      </trkpt>
      <trkpt lat="47.8682" lon="-3.53858">
        <ele>47</ele>
        <time>2019-07-15T10:52:04Z</time>
      </trkpt>
      <trkpt lat="47.86822" lon="-3.5387">
        <ele>47</ele>
        <time>2019-07-15T10:52:05Z</time>
      </trkpt>
      <trkpt lat="47.86823" lon="-3.53883">
        <ele>46</ele>
        <time>2019-07-15T10:52:06Z</time>
      </trkpt>
      <trkpt lat="47.86825" lon="-3.53896">
        <ele>46</ele>
        <time>2019-07-15T10:52:07Z</time>
      </trkpt>
      <trkpt lat="47.86827" lon="-3.53909">
        <ele>45</ele>
        <time>2019-07-15T10:52:08Z</time>
      </trkpt>
      <trkpt lat="47.86829" lon="-3.53922">
        <ele>45</ele>
        <time>2019-07-15T10:52:09Z</time>
      </trkpt>
      <trkpt lat="47.86831" lon="-3.53935">
        <ele>45</ele>
        <time>2019-07-15T10:52:10Z</time>
      </trkpt>
      <trkpt lat="47.86833" lon="-3.53949">
        <ele>45</ele>
        <time>2019-07-15T10:52:11Z</time>
      </trkpt>
      <trkpt lat="47.86835" lon="-3.53963">
        <ele>44</ele>
        <time>2019-07-15T10:52:12Z</time>
      </trkpt>
      <trkpt lat="47.86836" lon="-3.53977">
        <ele>44</ele>
        <time>2019-07-15T10:52:13Z</time>
      </trkpt>
      <trkpt lat="47.86838" lon="-3.53991">
        <ele>44</ele>
        <time>2019-07-15T10:52:14Z</time>
      </trkpt>
      <trkpt lat="47.8684" lon="-3.54005">
        <ele>44</ele>
        <time>2019-07-15T10:52:15Z</time>
      </trkpt>
      <trkpt lat="47.86842" lon="-3.54019">
        <ele>44</ele>
        <time>2019-07-15T10:52:16Z</time>
      </trkpt>
      <trkpt lat="47.86845" lon="-3.54033">
        <ele>44</ele>
        <time>2019-07-15T10:52:17Z</time>
      </trkpt>
      <trkpt lat="47.86848" lon="-3.54046">
        <ele>44</ele>
        <time>2019-07-15T10:52:18Z</time>
      </trkpt>
      <trkpt lat="47.8685" lon="-3.5406">
        <ele>44</ele>
        <time>2019-07-15T10:52:19Z</time>
      </trkpt>
      <trkpt lat="47.86854" lon="-3.54074">
        <ele>44</ele>
        <time>2019-07-15T10:52:20Z</time>
      </trkpt>
      <trkpt lat="47.86857" lon="-3.54088">
        <ele>44</ele>
        <time>2019-07-15T10:52:21Z</time>
      </trkpt>
      <trkpt lat="47.8686" lon="-3.54101">
        <ele>44</ele>
        <time>2019-07-15T10:52:22Z</time>
      </trkpt>
      <trkpt lat="47.86864" lon="-3.54114">
        <ele>44</ele>
        <time>2019-07-15T10:52:23Z</time>
      </trkpt>
      <trkpt lat="47.86868" lon="-3.54127">
        <ele>44</ele>
        <time>2019-07-15T10:52:24Z</time>
      </trkpt>
      <trkpt lat="47.86873" lon="-3.5414">
        <ele>44</ele>
        <time>2019-07-15T10:52:25Z</time>
      </trkpt>
      <trkpt lat="47.86878" lon="-3.54152">
        <ele>44</ele>
        <time>2019-07-15T10:52:26Z</time>
      </trkpt>
      <trkpt lat="47.86885" lon="-3.54162">
        <ele>44</ele>
        <time>2019-07-15T10:52:27Z</time>
      </trkpt>
      <trkpt lat="47.86892" lon="-3.54171">
        <ele>44</ele>
        <time>2019-07-15T10:52:28Z</time>
      </trkpt>
      <trkpt lat="47.86899" lon="-3.5418">
        <ele>44</ele>
        <time>2019-07-15T10:52:29Z</time>
      </trkpt>
      <trkpt lat="47.86906" lon="-3.54188">
        <ele>44</ele>
        <time>2019-07-15T10:52:30Z</time>
      </trkpt>
      <trkpt lat="47.86914" lon="-3.54196">
        <ele>44</ele>
        <time>2019-07-15T10:52:31Z</time>
      </trkpt>
      <trkpt lat="47.86921" lon="-3.54204">
        <ele>44</ele>
        <time>2019-07-15T10:52:32Z</time>
      </trkpt>
      <trkpt lat="47.86928" lon="-3.54212">
        <ele>43</ele>
        <time>2019-07-15T10:52:33Z</time>
      </trkpt>
      <trkpt lat="47.86935" lon="-3.54221">
        <ele>43</ele>
        <time>2019-07-15T10:52:34Z</time>
      </trkpt>
      <trkpt lat="47.86942" lon="-3.54228">
        <ele>43</ele>
        <time>2019-07-15T10:52:35Z</time>
      </trkpt>
      <trkpt lat="47.86949" lon="-3.54235">
        <ele>43</ele>
        <time>2019-07-15T10:52:36Z</time>
      </trkpt>
      <trkpt lat="47.86954" lon="-3.54244">
        <ele>43</ele>
        <time>2019-07-15T10:52:37Z</time>
      </trkpt>
      <trkpt lat="47.86959" lon="-3.54255">
        <ele>43</ele>
        <time>2019-07-15T10:52:38Z</time>
      </trkpt>
      <trkpt lat="47.86963" lon="-3.54267">
        <ele>43</ele>
        <time>2019-07-15T10:52:39Z</time>
      </trkpt>
      <trkpt lat="47.86966" lon="-3.54278">
        <ele>43</ele>
        <time>2019-07-15T10:52:40Z</time>
      </trkpt>
      <trkpt lat="47.86968" lon="-3.5429">
        <ele>43</ele>
        <time>2019-07-15T10:52:41Z</time>
      </trkpt>
      <trkpt lat="47.8697" lon="-3.54302">
        <ele>43</ele>
        <time>2019-07-15T10:52:42Z</time>
      </trkpt>
      <trkpt lat="47.86971" lon="-3.54314">
        <ele>43</ele>
        <time>2019-07-15T10:52:43Z</time>
      </trkpt>
      <trkpt lat="47.86973" lon="-3.54326">
        <ele>43</ele>
        <time>2019-07-15T10:52:44Z</time>
      </trkpt>
      <trkpt lat="47.86975" lon="-3.54338">
        <ele>43</ele>
        <time>2019-07-15T10:52:45Z</time>
      </trkpt>
      <trkpt lat="47.86978" lon="-3.54349">
        <ele>43</ele>
        <time>2019-07-15T10:52:46Z</time>
      </trkpt>
      <trkpt lat="47.86983" lon="-3.54359">
        <ele>43</ele>
        <time>2019-07-15T10:52:47Z</time>
      </trkpt>
      <trkpt lat="47.86989" lon="-3.54368">
        <ele>43</ele>
        <time>2019-07-15T10:52:48Z</time>
      </trkpt>
      <trkpt lat="47.86996" lon="-3.54374">
        <ele>43</ele>
        <time>2019-07-15T10:52:49Z</time>
      </trkpt>
      <trkpt lat="47.87003" lon="-3.54379">
        <ele>43</ele>
        <time>2019-07-15T10:52:50Z</time>
      </trkpt>
      <trkpt lat="47.8701" lon="-3.54385">
        <ele>43</ele>
        <time>2019-07-15T10:52:51Z</time>
      </trkpt>
      <trkpt lat="47.87017" lon="-3.54389">
        <ele>43</ele>
        <time>2019-07-15T10:52:52Z</time>
      </trkpt>
      <trkpt lat="47.87024" lon="-3.54394">
        <ele>43</ele>
        <time>2019-07-15T10:52:53Z</time>
      </trkpt>
      <trkpt lat="47.87031" lon="-3.54398">
        <ele>43</ele>
        <time>2019-07-15T10:52:54Z</time>
      </trkpt>
      <trkpt lat="47.87037" lon="-3.54402">
        <ele>43</ele>
        <time>2019-07-15T10:52:55Z</time>
      </trkpt>
      <trkpt lat="47.87044" lon="-3.54406">
        <ele>43</ele>
        <time>2019-07-15T10:52:56Z</time>
      </trkpt>
      <trkpt lat="47.8705" lon="-3.5441">
        <ele>43</ele>
        <time>2019-07-15T10:52:57Z</time>
      </trkpt>
      <trkpt lat="47.87057" lon="-3.54413">
        <ele>43</ele>
        <time>2019-07-15T10:52:58Z</time>
      </trkpt>
      <trkpt lat="47.87063" lon="-3.54416">
        <ele>43</ele>
        <time>2019-07-15T10:52:59Z</time>
      </trkpt>
      <trkpt lat="47.87069" lon="-3.5442">
        <ele>43</ele>
        <time>2019-07-15T10:53:00Z</time>
      </trkpt>
      <trkpt lat="47.87075" lon="-3.54422">
        <ele>44</ele>
        <time>2019-07-15T10:53:01Z</time>
      </trkpt>
      <trkpt lat="47.87081" lon="-3.54425">
        <ele>44</ele>
        <time>2019-07-15T10:53:02Z</time>
      </trkpt>
      <trkpt lat="47.87087" lon="-3.54427">
        <ele>44</ele>
        <time>2019-07-15T10:53:03Z</time>
      </trkpt>
      <trkpt lat="47.87087" lon="-3.54427">
        <ele>44</ele>
        <time>2019-07-15T10:53:05Z</time>
      </trkpt>
      <trkpt lat="47.87087" lon="-3.54427">
        <ele>44</ele>
        <time>2019-07-15T10:53:06Z</time>
      </trkpt>
      <trkpt lat="47.87108" lon="-3.54439">
        <ele>44</ele>
        <time>2019-07-15T10:53:07Z</time>
      </trkpt>
      <trkpt lat="47.87114" lon="-3.54441">
        <ele>44</ele>
        <time>2019-07-15T10:53:08Z</time>
      </trkpt>
      <trkpt lat="47.87119" lon="-3.54444">
        <ele>44</ele>
        <time>2019-07-15T10:53:09Z</time>
      </trkpt>
      <trkpt lat="47.87124" lon="-3.54447">
        <ele>44</ele>
        <time>2019-07-15T10:53:10Z</time>
      </trkpt>
      <trkpt lat="47.8713" lon="-3.54449">
        <ele>44</ele>
        <time>2019-07-15T10:53:11Z</time>
      </trkpt>
      <trkpt lat="47.87135" lon="-3.54452">
        <ele>44</ele>
        <time>2019-07-15T10:53:12Z</time>
      </trkpt>
      <trkpt lat="47.8714" lon="-3.54455">
        <ele>44</ele>
        <time>2019-07-15T10:53:13Z</time>
      </trkpt>
      <trkpt lat="47.87145" lon="-3.54457">
        <ele>44</ele>
        <time>2019-07-15T10:53:14Z</time>
      </trkpt>
      <trkpt lat="47.8715" lon="-3.54459">
        <ele>44</ele>
        <time>2019-07-15T10:53:15Z</time>
      </trkpt>
      <trkpt lat="47.87154" lon="-3.54461">
        <ele>44</ele>
        <time>2019-07-15T10:53:16Z</time>
      </trkpt>
      <trkpt lat="47.87157" lon="-3.54463">
        <ele>44</ele>
        <time>2019-07-15T10:53:17Z</time>
      </trkpt>
      <trkpt lat="47.8716" lon="-3.54467">
        <ele>44</ele>
        <time>2019-07-15T10:53:18Z</time>
      </trkpt>
      <trkpt lat="47.8716" lon="-3.54471">
        <ele>44</ele>
        <time>2019-07-15T10:53:19Z</time>
      </trkpt>
      <trkpt lat="47.87159" lon="-3.54475">
        <ele>44</ele>
        <time>2019-07-15T10:53:20Z</time>
      </trkpt>
      <trkpt lat="47.87157" lon="-3.5448">
        <ele>44</ele>
        <time>2019-07-15T10:53:21Z</time>
      </trkpt>
      <trkpt lat="47.87155" lon="-3.54486">
        <ele>44</ele>
        <time>2019-07-15T10:53:22Z</time>
      </trkpt>
      <trkpt lat="47.87154" lon="-3.54491">
        <ele>44</ele>
        <time>2019-07-15T10:53:23Z</time>
      </trkpt>
      <trkpt lat="47.87152" lon="-3.54497">
        <ele>44</ele>
        <time>2019-07-15T10:53:24Z</time>
      </trkpt>
      <trkpt lat="47.8715" lon="-3.54503">
        <ele>43</ele>
        <time>2019-07-15T10:53:25Z</time>
      </trkpt>
      <trkpt lat="47.87148" lon="-3.5451">
        <ele>43</ele>
        <time>2019-07-15T10:53:26Z</time>
      </trkpt>
      <trkpt lat="47.87147" lon="-3.54516">
        <ele>43</ele>
        <time>2019-07-15T10:53:27Z</time>
      </trkpt>
      <trkpt lat="47.87146" lon="-3.54521">
        <ele>43</ele>
        <time>2019-07-15T10:53:28Z</time>
      </trkpt>
      <trkpt lat="47.87144" lon="-3.54527">
        <ele>43</ele>
        <time>2019-07-15T10:53:29Z</time>
      </trkpt>
      <trkpt lat="47.87142" lon="-3.54533">
        <ele>42</ele>
        <time>2019-07-15T10:53:30Z</time>
      </trkpt>
      <trkpt lat="47.8714" lon="-3.54537">
        <ele>42</ele>
        <time>2019-07-15T10:53:31Z</time>
      </trkpt>
      <trkpt lat="47.87136" lon="-3.54538">
        <ele>42</ele>
        <time>2019-07-15T10:53:32Z</time>
      </trkpt>
      <trkpt lat="47.87131" lon="-3.54538">
        <ele>41</ele>
        <time>2019-07-15T10:53:33Z</time>
      </trkpt>
      <trkpt lat="47.87126" lon="-3.54537">
        <ele>40</ele>
        <time>2019-07-15T10:53:34Z</time>
      </trkpt>
      <trkpt lat="47.87121" lon="-3.54536">
        <ele>39</ele>
        <time>2019-07-15T10:53:35Z</time>
      </trkpt>
      <trkpt lat="47.87116" lon="-3.54535">
        <ele>39</ele>
        <time>2019-07-15T10:53:36Z</time>
      </trkpt>
      <trkpt lat="47.87111" lon="-3.54535">
        <ele>38</ele>
        <time>2019-07-15T10:53:37Z</time>
      </trkpt>
      <trkpt lat="47.87105" lon="-3.54534">
        <ele>38</ele>
        <time>2019-07-15T10:53:38Z</time>
      </trkpt>
      <trkpt lat="47.87099" lon="-3.54534">
        <ele>37</ele>
        <time>2019-07-15T10:53:39Z</time>
      </trkpt>
      <trkpt lat="47.87094" lon="-3.54535">
        <ele>37</ele>
        <time>2019-07-15T10:53:40Z</time>
      </trkpt>
      <trkpt lat="47.87088" lon="-3.54536">
        <ele>36</ele>
        <time>2019-07-15T10:53:41Z</time>
      </trkpt>
      <trkpt lat="47.87082" lon="-3.54537">
        <ele>36</ele>
        <time>2019-07-15T10:53:42Z</time>
      </trkpt>
      <trkpt lat="47.87077" lon="-3.54538">
        <ele>36</ele>
        <time>2019-07-15T10:53:43Z</time>
      </trkpt>
      <trkpt lat="47.87071" lon="-3.54539">
        <ele>35</ele>
        <time>2019-07-15T10:53:44Z</time>
      </trkpt>
      <trkpt lat="47.87065" lon="-3.5454">
        <ele>35</ele>
        <time>2019-07-15T10:53:45Z</time>
      </trkpt>
      <trkpt lat="47.8706" lon="-3.5454">
        <ele>35</ele>
        <time>2019-07-15T10:53:46Z</time>
      </trkpt>
      <trkpt lat="47.87055" lon="-3.54541">
        <ele>34</ele>
        <time>2019-07-15T10:53:47Z</time>
      </trkpt>
      <trkpt lat="47.87049" lon="-3.54542">
        <ele>34</ele>
        <time>2019-07-15T10:53:48Z</time>
      </trkpt>
      <trkpt lat="47.87044" lon="-3.54543">
        <ele>34</ele>
        <time>2019-07-15T10:53:49Z</time>
      </trkpt>
      <trkpt lat="47.87039" lon="-3.54543">
        <ele>33</ele>
        <time>2019-07-15T10:53:50Z</time>
      </trkpt>
      <trkpt lat="47.87033" lon="-3.54543">
        <ele>33</ele>
        <time>2019-07-15T10:53:51Z</time>
      </trkpt>
      <trkpt lat="47.87027" lon="-3.54542">
        <ele>33</ele>
        <time>2019-07-15T10:53:52Z</time>
      </trkpt>
      <trkpt lat="47.87022" lon="-3.54542">
        <ele>33</ele>
        <time>2019-07-15T10:53:53Z</time>
      </trkpt>
      <trkpt lat="47.87016" lon="-3.54541">
        <ele>32</ele>
        <time>2019-07-15T10:53:54Z</time>
      </trkpt>
      <trkpt lat="47.8701" lon="-3.5454">
        <ele>32</ele>
        <time>2019-07-15T10:53:55Z</time>
      </trkpt>
      <trkpt lat="47.87005" lon="-3.54539">
        <ele>32</ele>
        <time>2019-07-15T10:53:56Z</time>
      </trkpt>
      <trkpt lat="47.86999" lon="-3.54537">
        <ele>32</ele>
        <time>2019-07-15T10:53:57Z</time>
      </trkpt>
      <trkpt lat="47.86994" lon="-3.54535">
        <ele>31</ele>
        <time>2019-07-15T10:53:58Z</time>
      </trkpt>
      <trkpt lat="47.86988" lon="-3.54532">
        <ele>31</ele>
        <time>2019-07-15T10:53:59Z</time>
      </trkpt>
      <trkpt lat="47.86983" lon="-3.54529">
        <ele>31</ele>
        <time>2019-07-15T10:54:00Z</time>
      </trkpt>
      <trkpt lat="47.86978" lon="-3.54526">
        <ele>31</ele>
        <time>2019-07-15T10:54:01Z</time>
      </trkpt>
      <trkpt lat="47.86973" lon="-3.54523">
        <ele>31</ele>
        <time>2019-07-15T10:54:02Z</time>
      </trkpt>
      <trkpt lat="47.86967" lon="-3.5452">
        <ele>31</ele>
        <time>2019-07-15T10:54:03Z</time>
      </trkpt>
      <trkpt lat="47.86962" lon="-3.54517">
        <ele>30</ele>
        <time>2019-07-15T10:54:04Z</time>
      </trkpt>
      <trkpt lat="47.86956" lon="-3.54514">
        <ele>30</ele>
        <time>2019-07-15T10:54:05Z</time>
      </trkpt>
      <trkpt lat="47.86951" lon="-3.54511">
        <ele>30</ele>
        <time>2019-07-15T10:54:06Z</time>
      </trkpt>
      <trkpt lat="47.86946" lon="-3.54507">
        <ele>30</ele>
        <time>2019-07-15T10:54:07Z</time>
      </trkpt>
      <trkpt lat="47.8694" lon="-3.54504">
        <ele>30</ele>
        <time>2019-07-15T10:54:08Z</time>
      </trkpt>
      <trkpt lat="47.86935" lon="-3.54501">
        <ele>30</ele>
        <time>2019-07-15T10:54:09Z</time>
      </trkpt>
      <trkpt lat="47.8693" lon="-3.54498">
        <ele>30</ele>
        <time>2019-07-15T10:54:10Z</time>
      </trkpt>
      <trkpt lat="47.86924" lon="-3.54496">
        <ele>29</ele>
        <time>2019-07-15T10:54:11Z</time>
      </trkpt>
      <trkpt lat="47.86919" lon="-3.54492">
        <ele>29</ele>
        <time>2019-07-15T10:54:12Z</time>
      </trkpt>
      <trkpt lat="47.86914" lon="-3.54489">
        <ele>29</ele>
        <time>2019-07-15T10:54:13Z</time>
      </trkpt>
      <trkpt lat="47.86908" lon="-3.54486">
        <ele>29</ele>
        <time>2019-07-15T10:54:14Z</time>
      </trkpt>
      <trkpt lat="47.86903" lon="-3.54483">
        <ele>29</ele>
        <time>2019-07-15T10:54:15Z</time>
      </trkpt>
      <trkpt lat="47.86897" lon="-3.5448">
        <ele>29</ele>
        <time>2019-07-15T10:54:16Z</time>
      </trkpt>
      <trkpt lat="47.86892" lon="-3.54477">
        <ele>29</ele>
        <time>2019-07-15T10:54:17Z</time>
      </trkpt>
      <trkpt lat="47.86887" lon="-3.54473">
        <ele>29</ele>
        <time>2019-07-15T10:54:18Z</time>
      </trkpt>
      <trkpt lat="47.86882" lon="-3.5447">
        <ele>28</ele>
        <time>2019-07-15T10:54:19Z</time>
      </trkpt>
      <trkpt lat="47.86877" lon="-3.54466">
        <ele>28</ele>
        <time>2019-07-15T10:54:20Z</time>
      </trkpt>
      <trkpt lat="47.86871" lon="-3.54462">
        <ele>28</ele>
        <time>2019-07-15T10:54:21Z</time>
      </trkpt>
      <trkpt lat="47.86867" lon="-3.54458">
        <ele>28</ele>
        <time>2019-07-15T10:54:22Z</time>
      </trkpt>
      <trkpt lat="47.86862" lon="-3.54453">
        <ele>28</ele>
        <time>2019-07-15T10:54:23Z</time>
      </trkpt>
      <trkpt lat="47.86857" lon="-3.54449">
        <ele>28</ele>
        <time>2019-07-15T10:54:24Z</time>
      </trkpt>
      <trkpt lat="47.86852" lon="-3.54444">
        <ele>28</ele>
        <time>2019-07-15T10:54:25Z</time>
      </trkpt>
      <trkpt lat="47.86848" lon="-3.54439">
        <ele>28</ele>
        <time>2019-07-15T10:54:26Z</time>
      </trkpt>
      <trkpt lat="47.86843" lon="-3.54434">
        <ele>28</ele>
        <time>2019-07-15T10:54:27Z</time>
      </trkpt>
      <trkpt lat="47.86839" lon="-3.5443">
        <ele>28</ele>
        <time>2019-07-15T10:54:28Z</time>
      </trkpt>
      <trkpt lat="47.86835" lon="-3.54425">
        <ele>28</ele>
        <time>2019-07-15T10:54:29Z</time>
      </trkpt>
      <trkpt lat="47.86831" lon="-3.54421">
        <ele>28</ele>
        <time>2019-07-15T10:54:30Z</time>
      </trkpt>
      <trkpt lat="47.86828" lon="-3.54417">
        <ele>28</ele>
        <time>2019-07-15T10:54:31Z</time>
      </trkpt>
      <trkpt lat="47.86825" lon="-3.54415">
        <ele>28</ele>
        <time>2019-07-15T10:54:32Z</time>
      </trkpt>
      <trkpt lat="47.86823" lon="-3.54412">
        <ele>27</ele>
        <time>2019-07-15T10:54:33Z</time>
      </trkpt>
      <trkpt lat="47.86821" lon="-3.54409">
        <ele>27</ele>
        <time>2019-07-15T10:54:34Z</time>
      </trkpt>
      <trkpt lat="47.86821" lon="-3.54404">
        <ele>27</ele>
        <time>2019-07-15T10:54:35Z</time>
      </trkpt>
      <trkpt lat="47.86821" lon="-3.54399">
        <ele>27</ele>
        <time>2019-07-15T10:54:36Z</time>
      </trkpt>
      <trkpt lat="47.86819" lon="-3.54394">
        <ele>27</ele>
        <time>2019-07-15T10:54:37Z</time>
      </trkpt>
      <trkpt lat="47.86817" lon="-3.5439">
        <ele>27</ele>
        <time>2019-07-15T10:54:38Z</time>
      </trkpt>
      <trkpt lat="47.86814" lon="-3.54387">
        <ele>27</ele>
        <time>2019-07-15T10:54:39Z</time>
      </trkpt>
      <trkpt lat="47.86811" lon="-3.54383">
        <ele>27</ele>
        <time>2019-07-15T10:54:40Z</time>
      </trkpt>
      <trkpt lat="47.86808" lon="-3.54379">
        <ele>27</ele>
        <time>2019-07-15T10:54:41Z</time>
      </trkpt>
      <trkpt lat="47.86805" lon="-3.54375">
        <ele>27</ele>
        <time>2019-07-15T10:54:42Z</time>
      </trkpt>
      <trkpt lat="47.86801" lon="-3.54371">
        <ele>27</ele>
        <time>2019-07-15T10:54:43Z</time>
      </trkpt>
      <trkpt lat="47.86797" lon="-3.54366">
        <ele>27</ele>
        <time>2019-07-15T10:54:44Z</time>
      </trkpt>
      <trkpt lat="47.86792" lon="-3.54362">
        <ele>27</ele>
        <time>2019-07-15T10:54:45Z</time>
      </trkpt>
      <trkpt lat="47.86788" lon="-3.54358">
        <ele>27</ele>
        <time>2019-07-15T10:54:46Z</time>
      </trkpt>
      <trkpt lat="47.86783" lon="-3.54354">
        <ele>27</ele>
        <time>2019-07-15T10:54:47Z</time>
      </trkpt>
      <trkpt lat="47.86778" lon="-3.54351">
        <ele>27</ele>
        <time>2019-07-15T10:54:48Z</time>
      </trkpt>
      <trkpt lat="47.86773" lon="-3.54348">
        <ele>27</ele>
        <time>2019-07-15T10:54:49Z</time>
      </trkpt>
      <trkpt lat="47.86767" lon="-3.54345">
        <ele>27</ele>
        <time>2019-07-15T10:54:50Z</time>
      </trkpt>
      <trkpt lat="47.86762" lon="-3.54343">
        <ele>27</ele>
        <time>2019-07-15T10:54:51Z</time>
      </trkpt>
      <trkpt lat="47.86757" lon="-3.5434">
        <ele>27</ele>
        <time>2019-07-15T10:54:52Z</time>
      </trkpt>
      <trkpt lat="47.86752" lon="-3.54339">
        <ele>27</ele>
        <time>2019-07-15T10:54:53Z</time>
      </trkpt>
      <trkpt lat="47.86747" lon="-3.54337">
        <ele>27</ele>
        <time>2019-07-15T10:54:54Z</time>
      </trkpt>
      <trkpt lat="47.86742" lon="-3.54335">
        <ele>27</ele>
        <time>2019-07-15T10:54:55Z</time>
      </trkpt>
      <trkpt lat="47.86737" lon="-3.54333">
        <ele>27</ele>
        <time>2019-07-15T10:54:56Z</time>
      </trkpt>
      <trkpt lat="47.86733" lon="-3.54332">
        <ele>27</ele>
        <time>2019-07-15T10:54:57Z</time>
      </trkpt>
      <trkpt lat="47.86727" lon="-3.5433">
        <ele>27</ele>
        <time>2019-07-15T10:54:58Z</time>
      </trkpt>
      <trkpt lat="47.86723" lon="-3.54328">
        <ele>27</ele>
        <time>2019-07-15T10:54:59Z</time>
      </trkpt>
      <trkpt lat="47.86717" lon="-3.54326">
        <ele>27</ele>
        <time>2019-07-15T10:55:00Z</time>
      </trkpt>
      <trkpt lat="47.86712" lon="-3.54324">
        <ele>26</ele>
        <time>2019-07-15T10:55:01Z</time>
      </trkpt>
      <trkpt lat="47.86707" lon="-3.54323">
        <ele>26</ele>
        <time>2019-07-15T10:55:02Z</time>
      </trkpt>
      <trkpt lat="47.86701" lon="-3.54321">
        <ele>26</ele>
        <time>2019-07-15T10:55:03Z</time>
      </trkpt>
      <trkpt lat="47.86696" lon="-3.54319">
        <ele>26</ele>
        <time>2019-07-15T10:55:04Z</time>
      </trkpt>
      <trkpt lat="47.86691" lon="-3.54317">
        <ele>26</ele>
        <time>2019-07-15T10:55:05Z</time>
      </trkpt>
      <trkpt lat="47.86686" lon="-3.54316">
        <ele>26</ele>
        <time>2019-07-15T10:55:06Z</time>
      </trkpt>
      <trkpt lat="47.86681" lon="-3.54314">
        <ele>26</ele>
        <time>2019-07-15T10:55:07Z</time>
      </trkpt>
      <trkpt lat="47.86676" lon="-3.54313">
        <ele>26</ele>
        <time>2019-07-15T10:55:08Z</time>
      </trkpt>
      <trkpt lat="47.86672" lon="-3.54312">
        <ele>26</ele>
        <time>2019-07-15T10:55:09Z</time>
      </trkpt>
      <trkpt lat="47.86667" lon="-3.54311">
        <ele>26</ele>
        <time>2019-07-15T10:55:10Z</time>
      </trkpt>
      <trkpt lat="47.86662" lon="-3.54309">
        <ele>25</ele>
        <time>2019-07-15T10:55:11Z</time>
      </trkpt>
      <trkpt lat="47.86658" lon="-3.54308">
        <ele>25</ele>
        <time>2019-07-15T10:55:12Z</time>
      </trkpt>
      <trkpt lat="47.86654" lon="-3.54307">
        <ele>25</ele>
        <time>2019-07-15T10:55:13Z</time>
      </trkpt>
      <trkpt lat="47.86649" lon="-3.54306">
        <ele>25</ele>
        <time>2019-07-15T10:55:14Z</time>
      </trkpt>
      <trkpt lat="47.86645" lon="-3.54305">
        <ele>25</ele>
        <time>2019-07-15T10:55:15Z</time>
      </trkpt>
      <trkpt lat="47.86641" lon="-3.54304">
        <ele>25</ele>
        <time>2019-07-15T10:55:16Z</time>
      </trkpt>
      <trkpt lat="47.86638" lon="-3.54303">
        <ele>25</ele>
        <time>2019-07-15T10:55:17Z</time>
      </trkpt>
      <trkpt lat="47.86635" lon="-3.54303">
        <ele>25</ele>
        <time>2019-07-15T10:55:18Z</time>
      </trkpt>
      <trkpt lat="47.86632" lon="-3.54302">
        <ele>26</ele>
        <time>2019-07-15T10:55:19Z</time>
      </trkpt>
      <trkpt lat="47.86629" lon="-3.54302">
        <ele>26</ele>
        <time>2019-07-15T10:55:20Z</time>
      </trkpt>
      <trkpt lat="47.86626" lon="-3.54301">
        <ele>26</ele>
        <time>2019-07-15T10:55:21Z</time>
      </trkpt>
      <trkpt lat="47.86623" lon="-3.543">
        <ele>26</ele>
        <time>2019-07-15T10:55:22Z</time>
      </trkpt>
      <trkpt lat="47.86619" lon="-3.54299">
        <ele>26</ele>
        <time>2019-07-15T10:55:23Z</time>
      </trkpt>
      <trkpt lat="47.86616" lon="-3.54298">
        <ele>26</ele>
        <time>2019-07-15T10:55:24Z</time>
      </trkpt>
      <trkpt lat="47.86612" lon="-3.54297">
        <ele>26</ele>
        <time>2019-07-15T10:55:25Z</time>
      </trkpt>
      <trkpt lat="47.86609" lon="-3.54296">
        <ele>26</ele>
        <time>2019-07-15T10:55:26Z</time>
      </trkpt>
      <trkpt lat="47.86605" lon="-3.54294">
        <ele>26</ele>
        <time>2019-07-15T10:55:27Z</time>
      </trkpt>
      <trkpt lat="47.86601" lon="-3.54293">
        <ele>26</ele>
        <time>2019-07-15T10:55:28Z</time>
      </trkpt>
      <trkpt lat="47.86598" lon="-3.54291">
        <ele>26</ele>
        <time>2019-07-15T10:55:29Z</time>
      </trkpt>
      <trkpt lat="47.86594" lon="-3.54289">
        <ele>26</ele>
        <time>2019-07-15T10:55:30Z</time>
      </trkpt>
      <trkpt lat="47.86591" lon="-3.54287">
        <ele>26</ele>
        <time>2019-07-15T10:55:31Z</time>
      </trkpt>
      <trkpt lat="47.86587" lon="-3.54284">
        <ele>26</ele>
        <time>2019-07-15T10:55:32Z</time>
      </trkpt>
      <trkpt lat="47.86583" lon="-3.54282">
        <ele>26</ele>
        <time>2019-07-15T10:55:33Z</time>
      </trkpt>
      <trkpt lat="47.86579" lon="-3.54279">
        <ele>26</ele>
        <time>2019-07-15T10:55:34Z</time>
      </trkpt>
      <trkpt lat="47.86576" lon="-3.54277">
        <ele>26</ele>
        <time>2019-07-15T10:55:35Z</time>
      </trkpt>
      <trkpt lat="47.86572" lon="-3.54274">
        <ele>26</ele>
        <time>2019-07-15T10:55:36Z</time>
      </trkpt>
      <trkpt lat="47.86568" lon="-3.54271">
        <ele>26</ele>
        <time>2019-07-15T10:55:37Z</time>
      </trkpt>
      <trkpt lat="47.86564" lon="-3.54268">
        <ele>26</ele>
        <time>2019-07-15T10:55:38Z</time>
      </trkpt>
      <trkpt lat="47.8656" lon="-3.54265">
        <ele>26</ele>
        <time>2019-07-15T10:55:39Z</time>
      </trkpt>
      <trkpt lat="47.86556" lon="-3.54262">
        <ele>26</ele>
        <time>2019-07-15T10:55:40Z</time>
      </trkpt>
      <trkpt lat="47.86552" lon="-3.54259">
        <ele>26</ele>
        <time>2019-07-15T10:55:41Z</time>
      </trkpt>
      <trkpt lat="47.86547" lon="-3.54256">
        <ele>26</ele>
        <time>2019-07-15T10:55:42Z</time>
      </trkpt>
      <trkpt lat="47.86543" lon="-3.54252">
        <ele>26</ele>
        <time>2019-07-15T10:55:43Z</time>
      </trkpt>
      <trkpt lat="47.86539" lon="-3.54249">
        <ele>26</ele>
        <time>2019-07-15T10:55:44Z</time>
      </trkpt>
      <trkpt lat="47.86534" lon="-3.54246">
        <ele>26</ele>
        <time>2019-07-15T10:55:45Z</time>
      </trkpt>
      <trkpt lat="47.8653" lon="-3.54243">
        <ele>26</ele>
        <time>2019-07-15T10:55:46Z</time>
      </trkpt>
      <trkpt lat="47.86526" lon="-3.5424">
        <ele>26</ele>
        <time>2019-07-15T10:55:47Z</time>
      </trkpt>
      <trkpt lat="47.86522" lon="-3.54237">
        <ele>26</ele>
        <time>2019-07-15T10:55:48Z</time>
      </trkpt>
      <trkpt lat="47.86518" lon="-3.54234">
        <ele>26</ele>
        <time>2019-07-15T10:55:49Z</time>
      </trkpt>
      <trkpt lat="47.86514" lon="-3.54231">
        <ele>26</ele>
        <time>2019-07-15T10:55:50Z</time>
      </trkpt>
      <trkpt lat="47.8651" lon="-3.54228">
        <ele>26</ele>
        <time>2019-07-15T10:55:51Z</time>
      </trkpt>
      <trkpt lat="47.86506" lon="-3.54225">
        <ele>26</ele>
        <time>2019-07-15T10:55:52Z</time>
      </trkpt>
      <trkpt lat="47.86502" lon="-3.54222">
        <ele>26</ele>
        <time>2019-07-15T10:55:53Z</time>
      </trkpt>
      <trkpt lat="47.86497" lon="-3.54218">
        <ele>26</ele>
        <time>2019-07-15T10:55:54Z</time>
      </trkpt>
      <trkpt lat="47.86493" lon="-3.54215">
        <ele>26</ele>
        <time>2019-07-15T10:55:55Z</time>
      </trkpt>
      <trkpt lat="47.86489" lon="-3.54212">
        <ele>26</ele>
        <time>2019-07-15T10:55:56Z</time>
      </trkpt>
      <trkpt lat="47.86485" lon="-3.54209">
        <ele>26</ele>
        <time>2019-07-15T10:55:57Z</time>
      </trkpt>
      <trkpt lat="47.86481" lon="-3.54206">
        <ele>26</ele>
        <time>2019-07-15T10:55:58Z</time>
      </trkpt>
      <trkpt lat="47.86477" lon="-3.54204">
        <ele>26</ele>
        <time>2019-07-15T10:55:59Z</time>
      </trkpt>
      <trkpt lat="47.86473" lon="-3.542">
        <ele>26</ele>
        <time>2019-07-15T10:56:00Z</time>
      </trkpt>
      <trkpt lat="47.86469" lon="-3.54198">
        <ele>26</ele>
        <time>2019-07-15T10:56:01Z</time>
      </trkpt>
      <trkpt lat="47.86467" lon="-3.54197">
        <ele>26</ele>
        <time>2019-07-15T10:56:02Z</time>
      </trkpt>
      <trkpt lat="47.86466" lon="-3.54196">
        <ele>26</ele>
        <time>2019-07-15T10:56:03Z</time>
      </trkpt>
      <trkpt lat="47.86465" lon="-3.54196">
        <ele>26</ele>
        <time>2019-07-15T10:56:04Z</time>
      </trkpt>
      <trkpt lat="47.86465" lon="-3.54196">
        <ele>26</ele>
        <time>2019-07-15T10:56:05Z</time>
      </trkpt>
      <trkpt lat="47.86465" lon="-3.54196">
        <ele>26</ele>
        <time>2019-07-15T10:56:06Z</time>
      </trkpt>
      <trkpt lat="47.8646" lon="-3.5419">
        <ele>27</ele>
        <time>2019-07-15T10:56:07Z</time>
      </trkpt>
      <trkpt lat="47.86458" lon="-3.54188">
        <ele>27</ele>
        <time>2019-07-15T10:56:08Z</time>
      </trkpt>
      <trkpt lat="47.86454" lon="-3.54186">
        <ele>27</ele>
        <time>2019-07-15T10:56:09Z</time>
      </trkpt>
      <trkpt lat="47.86451" lon="-3.54185">
        <ele>28</ele>
        <time>2019-07-15T10:56:10Z</time>
      </trkpt>
      <trkpt lat="47.86447" lon="-3.54182">
        <ele>28</ele>
        <time>2019-07-15T10:56:11Z</time>
      </trkpt>
      <trkpt lat="47.86443" lon="-3.54181">
        <ele>28</ele>
        <time>2019-07-15T10:56:12Z</time>
      </trkpt>
      <trkpt lat="47.86438" lon="-3.5418">
        <ele>28</ele>
        <time>2019-07-15T10:56:13Z</time>
      </trkpt>
      <trkpt lat="47.86434" lon="-3.54179">
        <ele>28</ele>
        <time>2019-07-15T10:56:14Z</time>
      </trkpt>
      <trkpt lat="47.86429" lon="-3.54179">
        <ele>28</ele>
        <time>2019-07-15T10:56:15Z</time>
      </trkpt>
      <trkpt lat="47.86425" lon="-3.54179">
        <ele>28</ele>
        <time>2019-07-15T10:56:16Z</time>
      </trkpt>
      <trkpt lat="47.86421" lon="-3.54179">
        <ele>28</ele>
        <time>2019-07-15T10:56:17Z</time>
      </trkpt>
      <trkpt lat="47.86416" lon="-3.5418">
        <ele>28</ele>
        <time>2019-07-15T10:56:18Z</time>
      </trkpt>
      <trkpt lat="47.86412" lon="-3.54181">
        <ele>28</ele>
        <time>2019-07-15T10:56:19Z</time>
      </trkpt>
      <trkpt lat="47.86408" lon="-3.54182">
        <ele>28</ele>
        <time>2019-07-15T10:56:20Z</time>
      </trkpt>
      <trkpt lat="47.86403" lon="-3.54183">
        <ele>28</ele>
        <time>2019-07-15T10:56:21Z</time>
      </trkpt>
      <trkpt lat="47.86399" lon="-3.54185">
        <ele>28</ele>
        <time>2019-07-15T10:56:22Z</time>
      </trkpt>
      <trkpt lat="47.86395" lon="-3.54186">
        <ele>28</ele>
        <time>2019-07-15T10:56:23Z</time>
      </trkpt>
      <trkpt lat="47.86391" lon="-3.54188">
        <ele>28</ele>
        <time>2019-07-15T10:56:24Z</time>
      </trkpt>
      <trkpt lat="47.86386" lon="-3.54189">
        <ele>28</ele>
        <time>2019-07-15T10:56:25Z</time>
      </trkpt>
      <trkpt lat="47.86382" lon="-3.54191">
        <ele>28</ele>
        <time>2019-07-15T10:56:26Z</time>
      </trkpt>
      <trkpt lat="47.86378" lon="-3.54193">
        <ele>28</ele>
        <time>2019-07-15T10:56:27Z</time>
      </trkpt>
      <trkpt lat="47.86374" lon="-3.54195">
        <ele>28</ele>
        <time>2019-07-15T10:56:28Z</time>
      </trkpt>
      <trkpt lat="47.8637" lon="-3.54198">
        <ele>28</ele>
        <time>2019-07-15T10:56:29Z</time>
      </trkpt>
      <trkpt lat="47.86366" lon="-3.542">
        <ele>28</ele>
        <time>2019-07-15T10:56:30Z</time>
      </trkpt>
      <trkpt lat="47.86361" lon="-3.54202">
        <ele>28</ele>
        <time>2019-07-15T10:56:31Z</time>
      </trkpt>
      <trkpt lat="47.86357" lon="-3.54204">
        <ele>28</ele>
        <time>2019-07-15T10:56:32Z</time>
      </trkpt>
      <trkpt lat="47.86353" lon="-3.54206">
        <ele>28</ele>
        <time>2019-07-15T10:56:33Z</time>
      </trkpt>
      <trkpt lat="47.8635" lon="-3.54208">
        <ele>28</ele>
        <time>2019-07-15T10:56:34Z</time>
      </trkpt>
      <trkpt lat="47.86346" lon="-3.54209">
        <ele>28</ele>
        <time>2019-07-15T10:56:35Z</time>
      </trkpt>
      <trkpt lat="47.86342" lon="-3.54211">
        <ele>28</ele>
        <time>2019-07-15T10:56:36Z</time>
      </trkpt>
      <trkpt lat="47.86339" lon="-3.54213">
        <ele>29</ele>
        <time>2019-07-15T10:56:37Z</time>
      </trkpt>
      <trkpt lat="47.86335" lon="-3.54215">
        <ele>29</ele>
        <time>2019-07-15T10:56:38Z</time>
      </trkpt>
      <trkpt lat="47.86331" lon="-3.54217">
        <ele>29</ele>
        <time>2019-07-15T10:56:39Z</time>
      </trkpt>
      <trkpt lat="47.86326" lon="-3.54219">
        <ele>29</ele>
        <time>2019-07-15T10:56:40Z</time>
      </trkpt>
      <trkpt lat="47.86323" lon="-3.54221">
        <ele>29</ele>
        <time>2019-07-15T10:56:41Z</time>
      </trkpt>
      <trkpt lat="47.8632" lon="-3.54223">
        <ele>29</ele>
        <time>2019-07-15T10:56:42Z</time>
      </trkpt>
      <trkpt lat="47.86316" lon="-3.54225">
        <ele>29</ele>
        <time>2019-07-15T10:56:43Z</time>
      </trkpt>
      <trkpt lat="47.86311" lon="-3.54228">
        <ele>29</ele>
        <time>2019-07-15T10:56:44Z</time>
      </trkpt>
      <trkpt lat="47.86307" lon="-3.54231">
        <ele>29</ele>
        <time>2019-07-15T10:56:45Z</time>
      </trkpt>
      <trkpt lat="47.86303" lon="-3.54234">
        <ele>29</ele>
        <time>2019-07-15T10:56:46Z</time>
      </trkpt>
      <trkpt lat="47.86298" lon="-3.54238">
        <ele>29</ele>
        <time>2019-07-15T10:56:47Z</time>
      </trkpt>
      <trkpt lat="47.86294" lon="-3.54242">
        <ele>29</ele>
        <time>2019-07-15T10:56:48Z</time>
      </trkpt>
      <trkpt lat="47.8629" lon="-3.54245">
        <ele>29</ele>
        <time>2019-07-15T10:56:49Z</time>
      </trkpt>
      <trkpt lat="47.86286" lon="-3.5425">
        <ele>30</ele>
        <time>2019-07-15T10:56:50Z</time>
      </trkpt>
      <trkpt lat="47.86282" lon="-3.54254">
        <ele>30</ele>
        <time>2019-07-15T10:56:51Z</time>
      </trkpt>
      <trkpt lat="47.86279" lon="-3.54257">
        <ele>30</ele>
        <time>2019-07-15T10:56:52Z</time>
      </trkpt>
      <trkpt lat="47.86276" lon="-3.54261">
        <ele>30</ele>
        <time>2019-07-15T10:56:53Z</time>
      </trkpt>
      <trkpt lat="47.86274" lon="-3.54264">
        <ele>30</ele>
        <time>2019-07-15T10:56:54Z</time>
      </trkpt>
      <trkpt lat="47.86272" lon="-3.54267">
        <ele>30</ele>
        <time>2019-07-15T10:56:55Z</time>
      </trkpt>
      <trkpt lat="47.86269" lon="-3.5427">
        <ele>30</ele>
        <time>2019-07-15T10:56:56Z</time>
      </trkpt>
      <trkpt lat="47.86266" lon="-3.54273">
        <ele>30</ele>
        <time>2019-07-15T10:56:57Z</time>
      </trkpt>
      <trkpt lat="47.86263" lon="-3.54276">
        <ele>30</ele>
        <time>2019-07-15T10:56:58Z</time>
      </trkpt>
      <trkpt lat="47.86259" lon="-3.54279">
        <ele>30</ele>
        <time>2019-07-15T10:56:59Z</time>
      </trkpt>
      <trkpt lat="47.86254" lon="-3.54282">
        <ele>31</ele>
        <time>2019-07-15T10:57:00Z</time>
      </trkpt>
      <trkpt lat="47.8625" lon="-3.54286">
        <ele>31</ele>
        <time>2019-07-15T10:57:01Z</time>
      </trkpt>
      <trkpt lat="47.86245" lon="-3.54289">
        <ele>31</ele>
        <time>2019-07-15T10:57:02Z</time>
      </trkpt>
      <trkpt lat="47.8624" lon="-3.54293">
        <ele>31</ele>
        <time>2019-07-15T10:57:03Z</time>
      </trkpt>
      <trkpt lat="47.86235" lon="-3.54297">
        <ele>31</ele>
        <time>2019-07-15T10:57:04Z</time>
      </trkpt>
      <trkpt lat="47.86231" lon="-3.543">
        <ele>31</ele>
        <time>2019-07-15T10:57:05Z</time>
      </trkpt>
      <trkpt lat="47.86225" lon="-3.54303">
        <ele>31</ele>
        <time>2019-07-15T10:57:06Z</time>
      </trkpt>
      <trkpt lat="47.8622" lon="-3.54307">
        <ele>31</ele>
        <time>2019-07-15T10:57:07Z</time>
      </trkpt>
      <trkpt lat="47.86215" lon="-3.5431">
        <ele>31</ele>
        <time>2019-07-15T10:57:08Z</time>
      </trkpt>
      <trkpt lat="47.86209" lon="-3.54313">
        <ele>31</ele>
        <time>2019-07-15T10:57:09Z</time>
      </trkpt>
      <trkpt lat="47.86204" lon="-3.54317">
        <ele>31</ele>
        <time>2019-07-15T10:57:10Z</time>
      </trkpt>
      <trkpt lat="47.86198" lon="-3.54319">
        <ele>31</ele>
        <time>2019-07-15T10:57:11Z</time>
      </trkpt>
      <trkpt lat="47.86191" lon="-3.54322">
        <ele>31</ele>
        <time>2019-07-15T10:57:12Z</time>
      </trkpt>
      <trkpt lat="47.86185" lon="-3.54324">
        <ele>31</ele>
        <time>2019-07-15T10:57:13Z</time>
      </trkpt>
      <trkpt lat="47.86178" lon="-3.54326">
        <ele>31</ele>
        <time>2019-07-15T10:57:14Z</time>
      </trkpt>
      <trkpt lat="47.86172" lon="-3.54328">
        <ele>31</ele>
        <time>2019-07-15T10:57:15Z</time>
      </trkpt>
      <trkpt lat="47.86166" lon="-3.5433">
        <ele>31</ele>
        <time>2019-07-15T10:57:16Z</time>
      </trkpt>
      <trkpt lat="47.86159" lon="-3.54332">
        <ele>31</ele>
        <time>2019-07-15T10:57:17Z</time>
      </trkpt>
      <trkpt lat="47.86153" lon="-3.54334">
        <ele>31</ele>
        <time>2019-07-15T10:57:18Z</time>
      </trkpt>
      <trkpt lat="47.86148" lon="-3.54337">
        <ele>31</ele>
        <time>2019-07-15T10:57:19Z</time>
      </trkpt>
      <trkpt lat="47.86144" lon="-3.54339">
        <ele>31</ele>
        <time>2019-07-15T10:57:20Z</time>
      </trkpt>
      <trkpt lat="47.86138" lon="-3.54341">
        <ele>31</ele>
        <time>2019-07-15T10:57:21Z</time>
      </trkpt>
      <trkpt lat="47.86133" lon="-3.54342">
        <ele>31</ele>
        <time>2019-07-15T10:57:22Z</time>
      </trkpt>
      <trkpt lat="47.86128" lon="-3.54343">
        <ele>31</ele>
        <time>2019-07-15T10:57:23Z</time>
      </trkpt>
      <trkpt lat="47.86124" lon="-3.54343">
        <ele>31</ele>
        <time>2019-07-15T10:57:24Z</time>
      </trkpt>
      <trkpt lat="47.86117" lon="-3.54345">
        <ele>31</ele>
        <time>2019-07-15T10:57:25Z</time>
      </trkpt>
      <trkpt lat="47.86111" lon="-3.54346">
        <ele>31</ele>
        <time>2019-07-15T10:57:26Z</time>
      </trkpt>
      <trkpt lat="47.86105" lon="-3.54348">
        <ele>31</ele>
        <time>2019-07-15T10:57:27Z</time>
      </trkpt>
      <trkpt lat="47.86099" lon="-3.5435">
        <ele>31</ele>
        <time>2019-07-15T10:57:28Z</time>
      </trkpt>
      <trkpt lat="47.86092" lon="-3.54353">
        <ele>31</ele>
        <time>2019-07-15T10:57:29Z</time>
      </trkpt>
      <trkpt lat="47.86086" lon="-3.54354">
        <ele>31</ele>
        <time>2019-07-15T10:57:30Z</time>
      </trkpt>
      <trkpt lat="47.8608" lon="-3.54356">
        <ele>31</ele>
        <time>2019-07-15T10:57:31Z</time>
      </trkpt>
      <trkpt lat="47.86073" lon="-3.54358">
        <ele>31</ele>
        <time>2019-07-15T10:57:32Z</time>
      </trkpt>
      <trkpt lat="47.86067" lon="-3.5436">
        <ele>31</ele>
        <time>2019-07-15T10:57:33Z</time>
      </trkpt>
      <trkpt lat="47.86061" lon="-3.54362">
        <ele>31</ele>
        <time>2019-07-15T10:57:34Z</time>
      </trkpt>
      <trkpt lat="47.86055" lon="-3.54364">
        <ele>31</ele>
        <time>2019-07-15T10:57:35Z</time>
      </trkpt>
      <trkpt lat="47.8605" lon="-3.54366">
        <ele>31</ele>
        <time>2019-07-15T10:57:36Z</time>
      </trkpt>
      <trkpt lat="47.86044" lon="-3.54368">
        <ele>31</ele>
        <time>2019-07-15T10:57:37Z</time>
      </trkpt>
      <trkpt lat="47.86039" lon="-3.5437">
        <ele>31</ele>
        <time>2019-07-15T10:57:38Z</time>
      </trkpt>
      <trkpt lat="47.86034" lon="-3.54371">
        <ele>30</ele>
        <time>2019-07-15T10:57:39Z</time>
      </trkpt>
      <trkpt lat="47.8603" lon="-3.54373">
        <ele>30</ele>
        <time>2019-07-15T10:57:40Z</time>
      </trkpt>
      <trkpt lat="47.86024" lon="-3.54375">
        <ele>30</ele>
        <time>2019-07-15T10:57:41Z</time>
      </trkpt>
      <trkpt lat="47.8602" lon="-3.54376">
        <ele>30</ele>
        <time>2019-07-15T10:57:42Z</time>
      </trkpt>
      <trkpt lat="47.86015" lon="-3.54378">
        <ele>30</ele>
        <time>2019-07-15T10:57:43Z</time>
      </trkpt>
      <trkpt lat="47.86009" lon="-3.5438">
        <ele>30</ele>
        <time>2019-07-15T10:57:44Z</time>
      </trkpt>
      <trkpt lat="47.86005" lon="-3.54381">
        <ele>30</ele>
        <time>2019-07-15T10:57:45Z</time>
      </trkpt>
      <trkpt lat="47.85999" lon="-3.54383">
        <ele>30</ele>
        <time>2019-07-15T10:57:46Z</time>
      </trkpt>
      <trkpt lat="47.85994" lon="-3.54385">
        <ele>30</ele>
        <time>2019-07-15T10:57:47Z</time>
      </trkpt>
      <trkpt lat="47.85989" lon="-3.54387">
        <ele>30</ele>
        <time>2019-07-15T10:57:48Z</time>
      </trkpt>
      <trkpt lat="47.85984" lon="-3.54389">
        <ele>30</ele>
        <time>2019-07-15T10:57:49Z</time>
      </trkpt>
      <trkpt lat="47.85979" lon="-3.54391">
        <ele>30</ele>
        <time>2019-07-15T10:57:50Z</time>
      </trkpt>
      <trkpt lat="47.85974" lon="-3.54392">
        <ele>30</ele>
        <time>2019-07-15T10:57:51Z</time>
      </trkpt>
      <trkpt lat="47.85969" lon="-3.54395">
        <ele>30</ele>
        <time>2019-07-15T10:57:52Z</time>
      </trkpt>
      <trkpt lat="47.85964" lon="-3.54396">
        <ele>30</ele>
        <time>2019-07-15T10:57:53Z</time>
      </trkpt>
      <trkpt lat="47.85959" lon="-3.54399">
        <ele>30</ele>
        <time>2019-07-15T10:57:54Z</time>
      </trkpt>
      <trkpt lat="47.85955" lon="-3.54401">
        <ele>30</ele>
        <time>2019-07-15T10:57:55Z</time>
      </trkpt>
      <trkpt lat="47.8595" lon="-3.54403">
        <ele>30</ele>
        <time>2019-07-15T10:57:56Z</time>
      </trkpt>
      <trkpt lat="47.85946" lon="-3.54405">
        <ele>30</ele>
        <time>2019-07-15T10:57:57Z</time>
      </trkpt>
      <trkpt lat="47.85942" lon="-3.54406">
        <ele>30</ele>
        <time>2019-07-15T10:57:58Z</time>
      </trkpt>
      <trkpt lat="47.85938" lon="-3.54408">
        <ele>30</ele>
        <time>2019-07-15T10:57:59Z</time>
      </trkpt>
      <trkpt lat="47.85934" lon="-3.54409">
        <ele>30</ele>
        <time>2019-07-15T10:58:00Z</time>
      </trkpt>
      <trkpt lat="47.85929" lon="-3.54411">
        <ele>30</ele>
        <time>2019-07-15T10:58:01Z</time>
      </trkpt>
      <trkpt lat="47.85925" lon="-3.54413">
        <ele>30</ele>
        <time>2019-07-15T10:58:02Z</time>
      </trkpt>
      <trkpt lat="47.8592" lon="-3.54415">
        <ele>30</ele>
        <time>2019-07-15T10:58:03Z</time>
      </trkpt>
      <trkpt lat="47.85915" lon="-3.54416">
        <ele>30</ele>
        <time>2019-07-15T10:58:04Z</time>
      </trkpt>
      <trkpt lat="47.8591" lon="-3.54418">
        <ele>30</ele>
        <time>2019-07-15T10:58:05Z</time>
      </trkpt>
      <trkpt lat="47.85905" lon="-3.5442">
        <ele>30</ele>
        <time>2019-07-15T10:58:06Z</time>
      </trkpt>
      <trkpt lat="47.859" lon="-3.54422">
        <ele>30</ele>
        <time>2019-07-15T10:58:07Z</time>
      </trkpt>
      <trkpt lat="47.85894" lon="-3.54424">
        <ele>30</ele>
        <time>2019-07-15T10:58:08Z</time>
      </trkpt>
      <trkpt lat="47.85889" lon="-3.54427">
        <ele>30</ele>
        <time>2019-07-15T10:58:09Z</time>
      </trkpt>
      <trkpt lat="47.85884" lon="-3.54429">
        <ele>30</ele>
        <time>2019-07-15T10:58:10Z</time>
      </trkpt>
      <trkpt lat="47.85879" lon="-3.54431">
        <ele>30</ele>
        <time>2019-07-15T10:58:11Z</time>
      </trkpt>
      <trkpt lat="47.85873" lon="-3.54433">
        <ele>29</ele>
        <time>2019-07-15T10:58:12Z</time>
      </trkpt>
      <trkpt lat="47.85868" lon="-3.54435">
        <ele>29</ele>
        <time>2019-07-15T10:58:13Z</time>
      </trkpt>
      <trkpt lat="47.85863" lon="-3.54438">
        <ele>29</ele>
        <time>2019-07-15T10:58:14Z</time>
      </trkpt>
      <trkpt lat="47.85857" lon="-3.54441">
        <ele>29</ele>
        <time>2019-07-15T10:58:15Z</time>
      </trkpt>
      <trkpt lat="47.85852" lon="-3.54444">
        <ele>29</ele>
        <time>2019-07-15T10:58:16Z</time>
      </trkpt>
      <trkpt lat="47.85847" lon="-3.54447">
        <ele>29</ele>
        <time>2019-07-15T10:58:17Z</time>
      </trkpt>
      <trkpt lat="47.85842" lon="-3.5445">
        <ele>29</ele>
        <time>2019-07-15T10:58:18Z</time>
      </trkpt>
      <trkpt lat="47.85837" lon="-3.54453">
        <ele>29</ele>
        <time>2019-07-15T10:58:19Z</time>
      </trkpt>
      <trkpt lat="47.85832" lon="-3.54456">
        <ele>29</ele>
        <time>2019-07-15T10:58:20Z</time>
      </trkpt>
      <trkpt lat="47.85827" lon="-3.54459">
        <ele>29</ele>
        <time>2019-07-15T10:58:21Z</time>
      </trkpt>
      <trkpt lat="47.85823" lon="-3.54462">
        <ele>29</ele>
        <time>2019-07-15T10:58:22Z</time>
      </trkpt>
      <trkpt lat="47.85819" lon="-3.54465">
        <ele>29</ele>
        <time>2019-07-15T10:58:23Z</time>
      </trkpt>
      <trkpt lat="47.85814" lon="-3.54468">
        <ele>29</ele>
        <time>2019-07-15T10:58:24Z</time>
      </trkpt>
      <trkpt lat="47.8581" lon="-3.54471">
        <ele>29</ele>
        <time>2019-07-15T10:58:25Z</time>
      </trkpt>
      <trkpt lat="47.85805" lon="-3.54475">
        <ele>29</ele>
        <time>2019-07-15T10:58:26Z</time>
      </trkpt>
      <trkpt lat="47.85801" lon="-3.54478">
        <ele>29</ele>
        <time>2019-07-15T10:58:27Z</time>
      </trkpt>
      <trkpt lat="47.85797" lon="-3.54481">
        <ele>29</ele>
        <time>2019-07-15T10:58:28Z</time>
      </trkpt>
      <trkpt lat="47.85793" lon="-3.54485">
        <ele>29</ele>
        <time>2019-07-15T10:58:29Z</time>
      </trkpt>
      <trkpt lat="47.85789" lon="-3.54489">
        <ele>29</ele>
        <time>2019-07-15T10:58:30Z</time>
      </trkpt>
      <trkpt lat="47.85785" lon="-3.54492">
        <ele>29</ele>
        <time>2019-07-15T10:58:31Z</time>
      </trkpt>
      <trkpt lat="47.85781" lon="-3.54496">
        <ele>29</ele>
        <time>2019-07-15T10:58:32Z</time>
      </trkpt>
      <trkpt lat="47.85777" lon="-3.545">
        <ele>29</ele>
        <time>2019-07-15T10:58:33Z</time>
      </trkpt>
      <trkpt lat="47.85773" lon="-3.54503">
        <ele>29</ele>
        <time>2019-07-15T10:58:34Z</time>
      </trkpt>
      <trkpt lat="47.85769" lon="-3.54507">
        <ele>29</ele>
        <time>2019-07-15T10:58:35Z</time>
      </trkpt>
      <trkpt lat="47.85766" lon="-3.5451">
        <ele>29</ele>
        <time>2019-07-15T10:58:36Z</time>
      </trkpt>
      <trkpt lat="47.85762" lon="-3.54514">
        <ele>29</ele>
        <time>2019-07-15T10:58:37Z</time>
      </trkpt>
      <trkpt lat="47.85758" lon="-3.54517">
        <ele>29</ele>
        <time>2019-07-15T10:58:38Z</time>
      </trkpt>
      <trkpt lat="47.85754" lon="-3.54517">
        <ele>29</ele>
        <time>2019-07-15T10:58:39Z</time>
      </trkpt>
      <trkpt lat="47.85752" lon="-3.54517">
        <ele>30</ele>
        <time>2019-07-15T10:58:40Z</time>
      </trkpt>
      <trkpt lat="47.8575" lon="-3.54516">
        <ele>30</ele>
        <time>2019-07-15T10:58:41Z</time>
      </trkpt>
      <trkpt lat="47.85749" lon="-3.54516">
        <ele>30</ele>
        <time>2019-07-15T10:58:42Z</time>
      </trkpt>
      <trkpt lat="47.85749" lon="-3.54517">
        <ele>30</ele>
        <time>2019-07-15T10:58:43Z</time>
      </trkpt>
      <trkpt lat="47.85748" lon="-3.54519">
        <ele>30</ele>
        <time>2019-07-15T10:58:44Z</time>
      </trkpt>
      <trkpt lat="47.85747" lon="-3.5452">
        <ele>30</ele>
        <time>2019-07-15T10:58:45Z</time>
      </trkpt>
      <trkpt lat="47.85746" lon="-3.54522">
        <ele>30</ele>
        <time>2019-07-15T10:58:46Z</time>
      </trkpt>
      <trkpt lat="47.85745" lon="-3.54523">
        <ele>31</ele>
        <time>2019-07-15T10:58:47Z</time>
      </trkpt>
      <trkpt lat="47.85743" lon="-3.54525">
        <ele>31</ele>
        <time>2019-07-15T10:58:48Z</time>
      </trkpt>
      <trkpt lat="47.85741" lon="-3.54527">
        <ele>31</ele>
        <time>2019-07-15T10:58:49Z</time>
      </trkpt>
      <trkpt lat="47.85739" lon="-3.54529">
        <ele>31</ele>
        <time>2019-07-15T10:58:50Z</time>
      </trkpt>
      <trkpt lat="47.85737" lon="-3.54531">
        <ele>31</ele>
        <time>2019-07-15T10:58:51Z</time>
      </trkpt>
      <trkpt lat="47.85735" lon="-3.54534">
        <ele>32</ele>
        <time>2019-07-15T10:58:52Z</time>
      </trkpt>
      <trkpt lat="47.85733" lon="-3.54536">
        <ele>32</ele>
        <time>2019-07-15T10:58:53Z</time>
      </trkpt>
      <trkpt lat="47.8573" lon="-3.54539">
        <ele>32</ele>
        <time>2019-07-15T10:58:54Z</time>
      </trkpt>
      <trkpt lat="47.85727" lon="-3.54541">
        <ele>32</ele>
        <time>2019-07-15T10:58:55Z</time>
      </trkpt>
      <trkpt lat="47.85725" lon="-3.54543">
        <ele>32</ele>
        <time>2019-07-15T10:58:56Z</time>
      </trkpt>
      <trkpt lat="47.85721" lon="-3.54545">
        <ele>33</ele>
        <time>2019-07-15T10:58:57Z</time>
      </trkpt>
      <trkpt lat="47.85718" lon="-3.54547">
        <ele>33</ele>
        <time>2019-07-15T10:58:58Z</time>
      </trkpt>
      <trkpt lat="47.85715" lon="-3.54551">
        <ele>33</ele>
        <time>2019-07-15T10:58:59Z</time>
      </trkpt>
      <trkpt lat="47.85712" lon="-3.54553">
        <ele>33</ele>
        <time>2019-07-15T10:59:00Z</time>
      </trkpt>
      <trkpt lat="47.85709" lon="-3.54556">
        <ele>33</ele>
        <time>2019-07-15T10:59:01Z</time>
      </trkpt>
      <trkpt lat="47.85706" lon="-3.54558">
        <ele>33</ele>
        <time>2019-07-15T10:59:02Z</time>
      </trkpt>
      <trkpt lat="47.85704" lon="-3.54561">
        <ele>34</ele>
        <time>2019-07-15T10:59:03Z</time>
      </trkpt>
      <trkpt lat="47.85701" lon="-3.54564">
        <ele>34</ele>
        <time>2019-07-15T10:59:04Z</time>
      </trkpt>
      <trkpt lat="47.85699" lon="-3.54567">
        <ele>34</ele>
        <time>2019-07-15T10:59:05Z</time>
      </trkpt>
      <trkpt lat="47.85696" lon="-3.54569">
        <ele>34</ele>
        <time>2019-07-15T10:59:06Z</time>
      </trkpt>
      <trkpt lat="47.85694" lon="-3.54571">
        <ele>34</ele>
        <time>2019-07-15T10:59:07Z</time>
      </trkpt>
      <trkpt lat="47.85692" lon="-3.54575">
        <ele>34</ele>
        <time>2019-07-15T10:59:08Z</time>
      </trkpt>
      <trkpt lat="47.8569" lon="-3.54578">
        <ele>34</ele>
        <time>2019-07-15T10:59:09Z</time>
      </trkpt>
      <trkpt lat="47.85687" lon="-3.54581">
        <ele>34</ele>
        <time>2019-07-15T10:59:10Z</time>
      </trkpt>
      <trkpt lat="47.85684" lon="-3.54584">
        <ele>34</ele>
        <time>2019-07-15T10:59:11Z</time>
      </trkpt>
      <trkpt lat="47.85682" lon="-3.54587">
        <ele>35</ele>
        <time>2019-07-15T10:59:12Z</time>
      </trkpt>
      <trkpt lat="47.85679" lon="-3.54589">
        <ele>35</ele>
        <time>2019-07-15T10:59:13Z</time>
      </trkpt>
      <trkpt lat="47.85676" lon="-3.54592">
        <ele>35</ele>
        <time>2019-07-15T10:59:14Z</time>
      </trkpt>
      <trkpt lat="47.85673" lon="-3.54595">
        <ele>35</ele>
        <time>2019-07-15T10:59:15Z</time>
      </trkpt>
      <trkpt lat="47.8567" lon="-3.54598">
        <ele>35</ele>
        <time>2019-07-15T10:59:16Z</time>
      </trkpt>
      <trkpt lat="47.85668" lon="-3.546">
        <ele>35</ele>
        <time>2019-07-15T10:59:17Z</time>
      </trkpt>
      <trkpt lat="47.85665" lon="-3.54603">
        <ele>36</ele>
        <time>2019-07-15T10:59:18Z</time>
      </trkpt>
      <trkpt lat="47.85663" lon="-3.54606">
        <ele>36</ele>
        <time>2019-07-15T10:59:19Z</time>
      </trkpt>
      <trkpt lat="47.85661" lon="-3.5461">
        <ele>36</ele>
        <time>2019-07-15T10:59:20Z</time>
      </trkpt>
      <trkpt lat="47.85658" lon="-3.54613">
        <ele>36</ele>
        <time>2019-07-15T10:59:21Z</time>
      </trkpt>
      <trkpt lat="47.85655" lon="-3.54616">
        <ele>36</ele>
        <time>2019-07-15T10:59:22Z</time>
      </trkpt>
      <trkpt lat="47.85653" lon="-3.54619">
        <ele>36</ele>
        <time>2019-07-15T10:59:23Z</time>
      </trkpt>
      <trkpt lat="47.85651" lon="-3.54622">
        <ele>37</ele>
        <time>2019-07-15T10:59:24Z</time>
      </trkpt>
      <trkpt lat="47.85648" lon="-3.54625">
        <ele>37</ele>
        <time>2019-07-15T10:59:25Z</time>
      </trkpt>
      <trkpt lat="47.85646" lon="-3.54628">
        <ele>37</ele>
        <time>2019-07-15T10:59:26Z</time>
      </trkpt>
      <trkpt lat="47.85644" lon="-3.5463">
        <ele>37</ele>
        <time>2019-07-15T10:59:27Z</time>
      </trkpt>
      <trkpt lat="47.85641" lon="-3.54633">
        <ele>37</ele>
        <time>2019-07-15T10:59:28Z</time>
      </trkpt>
      <trkpt lat="47.85639" lon="-3.54636">
        <ele>37</ele>
        <time>2019-07-15T10:59:29Z</time>
      </trkpt>
      <trkpt lat="47.85636" lon="-3.54638">
        <ele>37</ele>
        <time>2019-07-15T10:59:30Z</time>
      </trkpt>
      <trkpt lat="47.85633" lon="-3.54641">
        <ele>37</ele>
        <time>2019-07-15T10:59:31Z</time>
      </trkpt>
      <trkpt lat="47.8563" lon="-3.54644">
        <ele>37</ele>
        <time>2019-07-15T10:59:32Z</time>
      </trkpt>
      <trkpt lat="47.85627" lon="-3.54646">
        <ele>37</ele>
        <time>2019-07-15T10:59:33Z</time>
      </trkpt>
      <trkpt lat="47.85624" lon="-3.54648">
        <ele>38</ele>
        <time>2019-07-15T10:59:34Z</time>
      </trkpt>
      <trkpt lat="47.85621" lon="-3.5465">
        <ele>38</ele>
        <time>2019-07-15T10:59:35Z</time>
      </trkpt>
      <trkpt lat="47.85617" lon="-3.54651">
        <ele>38</ele>
        <time>2019-07-15T10:59:36Z</time>
      </trkpt>
      <trkpt lat="47.85615" lon="-3.54652">
        <ele>38</ele>
        <time>2019-07-15T10:59:37Z</time>
      </trkpt>
      <trkpt lat="47.85613" lon="-3.54652">
        <ele>38</ele>
        <time>2019-07-15T10:59:38Z</time>
      </trkpt>
      <trkpt lat="47.8561" lon="-3.54653">
        <ele>38</ele>
        <time>2019-07-15T10:59:39Z</time>
      </trkpt>
      <trkpt lat="47.85607" lon="-3.54654">
        <ele>38</ele>
        <time>2019-07-15T10:59:40Z</time>
      </trkpt>
      <trkpt lat="47.85605" lon="-3.54654">
        <ele>38</ele>
        <time>2019-07-15T10:59:41Z</time>
      </trkpt>
      <trkpt lat="47.85602" lon="-3.54655">
        <ele>38</ele>
        <time>2019-07-15T10:59:42Z</time>
      </trkpt>
      <trkpt lat="47.85601" lon="-3.54656">
        <ele>39</ele>
        <time>2019-07-15T10:59:43Z</time>
      </trkpt>
      <trkpt lat="47.85598" lon="-3.54657">
        <ele>39</ele>
        <time>2019-07-15T10:59:44Z</time>
      </trkpt>
      <trkpt lat="47.85596" lon="-3.54657">
        <ele>39</ele>
        <time>2019-07-15T10:59:45Z</time>
      </trkpt>
      <trkpt lat="47.85594" lon="-3.54657">
        <ele>39</ele>
        <time>2019-07-15T10:59:46Z</time>
      </trkpt>
      <trkpt lat="47.85591" lon="-3.54658">
        <ele>39</ele>
        <time>2019-07-15T10:59:47Z</time>
      </trkpt>
      <trkpt lat="47.8559" lon="-3.54658">
        <ele>39</ele>
        <time>2019-07-15T10:59:48Z</time>
      </trkpt>
      <trkpt lat="47.85588" lon="-3.54659">
        <ele>39</ele>
        <time>2019-07-15T10:59:49Z</time>
      </trkpt>
      <trkpt lat="47.85587" lon="-3.5466">
        <ele>40</ele>
        <time>2019-07-15T10:59:50Z</time>
      </trkpt>
      <trkpt lat="47.85586" lon="-3.54661">
        <ele>40</ele>
        <time>2019-07-15T10:59:51Z</time>
      </trkpt>
      <trkpt lat="47.85586" lon="-3.5466">
        <ele>40</ele>
        <time>2019-07-15T10:59:52Z</time>
      </trkpt>
      <trkpt lat="47.85586" lon="-3.5466">
        <ele>40</ele>
        <time>2019-07-15T10:59:53Z</time>
      </trkpt>
      <trkpt lat="47.85586" lon="-3.54659">
        <ele>40</ele>
        <time>2019-07-15T10:59:54Z</time>
      </trkpt>
      <trkpt lat="47.8558" lon="-3.54661">
        <ele>41</ele>
        <time>2019-07-15T10:59:55Z</time>
      </trkpt>
      <trkpt lat="47.85578" lon="-3.54662">
        <ele>42</ele>
        <time>2019-07-15T10:59:56Z</time>
      </trkpt>
      <trkpt lat="47.85576" lon="-3.54663">
        <ele>42</ele>
        <time>2019-07-15T10:59:57Z</time>
      </trkpt>
      <trkpt lat="47.85574" lon="-3.54664">
        <ele>42</ele>
        <time>2019-07-15T10:59:58Z</time>
      </trkpt>
      <trkpt lat="47.85571" lon="-3.54665">
        <ele>42</ele>
        <time>2019-07-15T10:59:59Z</time>
      </trkpt>
      <trkpt lat="47.85569" lon="-3.54666">
        <ele>42</ele>
        <time>2019-07-15T11:00:00Z</time>
      </trkpt>
      <trkpt lat="47.85567" lon="-3.54667">
        <ele>42</ele>
        <time>2019-07-15T11:00:01Z</time>
      </trkpt>
      <trkpt lat="47.85565" lon="-3.54667">
        <ele>42</ele>
        <time>2019-07-15T11:00:02Z</time>
      </trkpt>
      <trkpt lat="47.85563" lon="-3.54668">
        <ele>42</ele>
        <time>2019-07-15T11:00:03Z</time>
      </trkpt>
      <trkpt lat="47.8556" lon="-3.5467">
        <ele>42</ele>
        <time>2019-07-15T11:00:04Z</time>
      </trkpt>
      <trkpt lat="47.85558" lon="-3.54671">
        <ele>42</ele>
        <time>2019-07-15T11:00:05Z</time>
      </trkpt>
      <trkpt lat="47.85555" lon="-3.54673">
        <ele>42</ele>
        <time>2019-07-15T11:00:06Z</time>
      </trkpt>
      <trkpt lat="47.85553" lon="-3.54674">
        <ele>42</ele>
        <time>2019-07-15T11:00:07Z</time>
      </trkpt>
      <trkpt lat="47.85551" lon="-3.54674">
        <ele>42</ele>
        <time>2019-07-15T11:00:08Z</time>
      </trkpt>
      <trkpt lat="47.85549" lon="-3.54675">
        <ele>42</ele>
        <time>2019-07-15T11:00:09Z</time>
      </trkpt>
      <trkpt lat="47.85546" lon="-3.54677">
        <ele>42</ele>
        <time>2019-07-15T11:00:10Z</time>
      </trkpt>
      <trkpt lat="47.85544" lon="-3.54678">
        <ele>42</ele>
        <time>2019-07-15T11:00:11Z</time>
      </trkpt>
      <trkpt lat="47.85541" lon="-3.5468">
        <ele>42</ele>
        <time>2019-07-15T11:00:12Z</time>
      </trkpt>
      <trkpt lat="47.85539" lon="-3.54682">
        <ele>42</ele>
        <time>2019-07-15T11:00:13Z</time>
      </trkpt>
      <trkpt lat="47.85537" lon="-3.54684">
        <ele>42</ele>
        <time>2019-07-15T11:00:14Z</time>
      </trkpt>
      <trkpt lat="47.85535" lon="-3.54686">
        <ele>42</ele>
        <time>2019-07-15T11:00:15Z</time>
      </trkpt>
      <trkpt lat="47.85533" lon="-3.54689">
        <ele>42</ele>
        <time>2019-07-15T11:00:16Z</time>
      </trkpt>
      <trkpt lat="47.85531" lon="-3.54692">
        <ele>42</ele>
        <time>2019-07-15T11:00:17Z</time>
      </trkpt>
      <trkpt lat="47.85528" lon="-3.54696">
        <ele>42</ele>
        <time>2019-07-15T11:00:18Z</time>
      </trkpt>
      <trkpt lat="47.85525" lon="-3.547">
        <ele>41</ele>
        <time>2019-07-15T11:00:19Z</time>
      </trkpt>
      <trkpt lat="47.85522" lon="-3.54703">
        <ele>41</ele>
        <time>2019-07-15T11:00:20Z</time>
      </trkpt>
      <trkpt lat="47.8552" lon="-3.54707">
        <ele>41</ele>
        <time>2019-07-15T11:00:21Z</time>
      </trkpt>
      <trkpt lat="47.85518" lon="-3.5471">
        <ele>41</ele>
        <time>2019-07-15T11:00:22Z</time>
      </trkpt>
      <trkpt lat="47.85516" lon="-3.54711">
        <ele>41</ele>
        <time>2019-07-15T11:00:23Z</time>
      </trkpt>
      <trkpt lat="47.85514" lon="-3.54713">
        <ele>41</ele>
        <time>2019-07-15T11:00:24Z</time>
      </trkpt>
      <trkpt lat="47.85512" lon="-3.54715">
        <ele>41</ele>
        <time>2019-07-15T11:00:25Z</time>
      </trkpt>
      <trkpt lat="47.85509" lon="-3.54718">
        <ele>40</ele>
        <time>2019-07-15T11:00:26Z</time>
      </trkpt>
      <trkpt lat="47.85507" lon="-3.54722">
        <ele>40</ele>
        <time>2019-07-15T11:00:27Z</time>
      </trkpt>
      <trkpt lat="47.85504" lon="-3.54725">
        <ele>40</ele>
        <time>2019-07-15T11:00:28Z</time>
      </trkpt>
      <trkpt lat="47.85501" lon="-3.54728">
        <ele>40</ele>
        <time>2019-07-15T11:00:29Z</time>
      </trkpt>
      <trkpt lat="47.85497" lon="-3.5473">
        <ele>40</ele>
        <time>2019-07-15T11:00:30Z</time>
      </trkpt>
      <trkpt lat="47.85493" lon="-3.54732">
        <ele>40</ele>
        <time>2019-07-15T11:00:31Z</time>
      </trkpt>
      <trkpt lat="47.85489" lon="-3.54733">
        <ele>40</ele>
        <time>2019-07-15T11:00:32Z</time>
      </trkpt>
      <trkpt lat="47.85486" lon="-3.54734">
        <ele>39</ele>
        <time>2019-07-15T11:00:33Z</time>
      </trkpt>
      <trkpt lat="47.85482" lon="-3.54735">
        <ele>39</ele>
        <time>2019-07-15T11:00:34Z</time>
      </trkpt>
      <trkpt lat="47.85479" lon="-3.54736">
        <ele>39</ele>
        <time>2019-07-15T11:00:35Z</time>
      </trkpt>
      <trkpt lat="47.85475" lon="-3.54735">
        <ele>38</ele>
        <time>2019-07-15T11:00:36Z</time>
      </trkpt>
      <trkpt lat="47.85471" lon="-3.54734">
        <ele>38</ele>
        <time>2019-07-15T11:00:37Z</time>
      </trkpt>
      <trkpt lat="47.85468" lon="-3.54733">
        <ele>37</ele>
        <time>2019-07-15T11:00:38Z</time>
      </trkpt>
      <trkpt lat="47.85465" lon="-3.54732">
        <ele>37</ele>
        <time>2019-07-15T11:00:39Z</time>
      </trkpt>
      <trkpt lat="47.85462" lon="-3.5473">
        <ele>37</ele>
        <time>2019-07-15T11:00:40Z</time>
      </trkpt>
      <trkpt lat="47.8546" lon="-3.54729">
        <ele>36</ele>
        <time>2019-07-15T11:00:41Z</time>
      </trkpt>
      <trkpt lat="47.85457" lon="-3.54727">
        <ele>36</ele>
        <time>2019-07-15T11:00:42Z</time>
      </trkpt>
      <trkpt lat="47.85454" lon="-3.54724">
        <ele>36</ele>
        <time>2019-07-15T11:00:43Z</time>
      </trkpt>
      <trkpt lat="47.85453" lon="-3.5472">
        <ele>36</ele>
        <time>2019-07-15T11:00:44Z</time>
      </trkpt>
      <trkpt lat="47.85451" lon="-3.54717">
        <ele>35</ele>
        <time>2019-07-15T11:00:45Z</time>
      </trkpt>
      <trkpt lat="47.8545" lon="-3.54713">
        <ele>35</ele>
        <time>2019-07-15T11:00:46Z</time>
      </trkpt>
      <trkpt lat="47.8545" lon="-3.5471">
        <ele>35</ele>
        <time>2019-07-15T11:00:47Z</time>
      </trkpt>
      <trkpt lat="47.8545" lon="-3.54707">
        <ele>35</ele>
        <time>2019-07-15T11:00:48Z</time>
      </trkpt>
      <trkpt lat="47.8545" lon="-3.54704">
        <ele>35</ele>
        <time>2019-07-15T11:00:49Z</time>
      </trkpt>
      <trkpt lat="47.85449" lon="-3.547">
        <ele>35</ele>
        <time>2019-07-15T11:00:50Z</time>
      </trkpt>
      <trkpt lat="47.85448" lon="-3.54696">
        <ele>35</ele>
        <time>2019-07-15T11:00:51Z</time>
      </trkpt>
      <trkpt lat="47.85448" lon="-3.54692">
        <ele>35</ele>
        <time>2019-07-15T11:00:52Z</time>
      </trkpt>
      <trkpt lat="47.85448" lon="-3.54687">
        <ele>34</ele>
        <time>2019-07-15T11:00:53Z</time>
      </trkpt>
      <trkpt lat="47.85447" lon="-3.54683">
        <ele>35</ele>
        <time>2019-07-15T11:00:54Z</time>
      </trkpt>
      <trkpt lat="47.85447" lon="-3.54679">
        <ele>35</ele>
        <time>2019-07-15T11:00:55Z</time>
      </trkpt>
      <trkpt lat="47.85446" lon="-3.54674">
        <ele>35</ele>
        <time>2019-07-15T11:00:56Z</time>
      </trkpt>
      <trkpt lat="47.85445" lon="-3.5467">
        <ele>35</ele>
        <time>2019-07-15T11:00:57Z</time>
      </trkpt>
      <trkpt lat="47.85445" lon="-3.54665">
        <ele>35</ele>
        <time>2019-07-15T11:00:58Z</time>
      </trkpt>
      <trkpt lat="47.85444" lon="-3.54661">
        <ele>35</ele>
        <time>2019-07-15T11:00:59Z</time>
      </trkpt>
      <trkpt lat="47.85444" lon="-3.54656">
        <ele>35</ele>
        <time>2019-07-15T11:01:00Z</time>
      </trkpt>
      <trkpt lat="47.85443" lon="-3.54651">
        <ele>35</ele>
        <time>2019-07-15T11:01:01Z</time>
      </trkpt>
      <trkpt lat="47.85442" lon="-3.54646">
        <ele>35</ele>
        <time>2019-07-15T11:01:02Z</time>
      </trkpt>
      <trkpt lat="47.85441" lon="-3.54641">
        <ele>35</ele>
        <time>2019-07-15T11:01:03Z</time>
      </trkpt>
      <trkpt lat="47.8544" lon="-3.54636">
        <ele>35</ele>
        <time>2019-07-15T11:01:04Z</time>
      </trkpt>
      <trkpt lat="47.8544" lon="-3.54632">
        <ele>36</ele>
        <time>2019-07-15T11:01:05Z</time>
      </trkpt>
      <trkpt lat="47.85439" lon="-3.54627">
        <ele>36</ele>
        <time>2019-07-15T11:01:06Z</time>
      </trkpt>
      <trkpt lat="47.85439" lon="-3.54622">
        <ele>36</ele>
        <time>2019-07-15T11:01:07Z</time>
      </trkpt>
      <trkpt lat="47.85438" lon="-3.54618">
        <ele>36</ele>
        <time>2019-07-15T11:01:08Z</time>
      </trkpt>
      <trkpt lat="47.85437" lon="-3.54613">
        <ele>36</ele>
        <time>2019-07-15T11:01:09Z</time>
      </trkpt>
      <trkpt lat="47.85437" lon="-3.54609">
        <ele>36</ele>
        <time>2019-07-15T11:01:10Z</time>
      </trkpt>
      <trkpt lat="47.85437" lon="-3.54604">
        <ele>36</ele>
        <time>2019-07-15T11:01:11Z</time>
      </trkpt>
      <trkpt lat="47.85436" lon="-3.54599">
        <ele>37</ele>
        <time>2019-07-15T11:01:12Z</time>
      </trkpt>
      <trkpt lat="47.85436" lon="-3.54595">
        <ele>37</ele>
        <time>2019-07-15T11:01:13Z</time>
      </trkpt>
      <trkpt lat="47.85436" lon="-3.5459">
        <ele>37</ele>
        <time>2019-07-15T11:01:14Z</time>
      </trkpt>
      <trkpt lat="47.85435" lon="-3.54586">
        <ele>37</ele>
        <time>2019-07-15T11:01:15Z</time>
      </trkpt>
      <trkpt lat="47.85434" lon="-3.54581">
        <ele>37</ele>
        <time>2019-07-15T11:01:16Z</time>
      </trkpt>
      <trkpt lat="47.85434" lon="-3.54577">
        <ele>37</ele>
        <time>2019-07-15T11:01:17Z</time>
      </trkpt>
      <trkpt lat="47.85433" lon="-3.54573">
        <ele>37</ele>
        <time>2019-07-15T11:01:18Z</time>
      </trkpt>
      <trkpt lat="47.85433" lon="-3.54568">
        <ele>38</ele>
        <time>2019-07-15T11:01:19Z</time>
      </trkpt>
      <trkpt lat="47.85432" lon="-3.54564">
        <ele>38</ele>
        <time>2019-07-15T11:01:20Z</time>
      </trkpt>
      <trkpt lat="47.85432" lon="-3.54559">
        <ele>38</ele>
        <time>2019-07-15T11:01:21Z</time>
      </trkpt>
      <trkpt lat="47.85432" lon="-3.54555">
        <ele>38</ele>
        <time>2019-07-15T11:01:22Z</time>
      </trkpt>
      <trkpt lat="47.85432" lon="-3.54551">
        <ele>38</ele>
        <time>2019-07-15T11:01:23Z</time>
      </trkpt>
      <trkpt lat="47.85431" lon="-3.54547">
        <ele>38</ele>
        <time>2019-07-15T11:01:24Z</time>
      </trkpt>
      <trkpt lat="47.8543" lon="-3.54543">
        <ele>39</ele>
        <time>2019-07-15T11:01:25Z</time>
      </trkpt>
      <trkpt lat="47.85429" lon="-3.54539">
        <ele>39</ele>
        <time>2019-07-15T11:01:26Z</time>
      </trkpt>
      <trkpt lat="47.85428" lon="-3.54535">
        <ele>39</ele>
        <time>2019-07-15T11:01:27Z</time>
      </trkpt>
      <trkpt lat="47.85426" lon="-3.54531">
        <ele>39</ele>
        <time>2019-07-15T11:01:28Z</time>
      </trkpt>
      <trkpt lat="47.85424" lon="-3.54528">
        <ele>39</ele>
        <time>2019-07-15T11:01:29Z</time>
      </trkpt>
      <trkpt lat="47.85422" lon="-3.54525">
        <ele>39</ele>
        <time>2019-07-15T11:01:30Z</time>
      </trkpt>
      <trkpt lat="47.8542" lon="-3.54523">
        <ele>39</ele>
        <time>2019-07-15T11:01:31Z</time>
      </trkpt>
      <trkpt lat="47.85418" lon="-3.5452">
        <ele>39</ele>
        <time>2019-07-15T11:01:32Z</time>
      </trkpt>
      <trkpt lat="47.85415" lon="-3.54518">
        <ele>39</ele>
        <time>2019-07-15T11:01:33Z</time>
      </trkpt>
      <trkpt lat="47.85412" lon="-3.54516">
        <ele>39</ele>
        <time>2019-07-15T11:01:34Z</time>
      </trkpt>
      <trkpt lat="47.8541" lon="-3.54515">
        <ele>39</ele>
        <time>2019-07-15T11:01:35Z</time>
      </trkpt>
      <trkpt lat="47.85407" lon="-3.54513">
        <ele>40</ele>
        <time>2019-07-15T11:01:36Z</time>
      </trkpt>
      <trkpt lat="47.85404" lon="-3.54512">
        <ele>40</ele>
        <time>2019-07-15T11:01:37Z</time>
      </trkpt>
      <trkpt lat="47.85401" lon="-3.54511">
        <ele>40</ele>
        <time>2019-07-15T11:01:38Z</time>
      </trkpt>
      <trkpt lat="47.85398" lon="-3.5451">
        <ele>40</ele>
        <time>2019-07-15T11:01:39Z</time>
      </trkpt>
      <trkpt lat="47.85395" lon="-3.54508">
        <ele>40</ele>
        <time>2019-07-15T11:01:40Z</time>
      </trkpt>
      <trkpt lat="47.85392" lon="-3.54507">
        <ele>40</ele>
        <time>2019-07-15T11:01:41Z</time>
      </trkpt>
      <trkpt lat="47.8539" lon="-3.54506">
        <ele>40</ele>
        <time>2019-07-15T11:01:42Z</time>
      </trkpt>
      <trkpt lat="47.85388" lon="-3.54506">
        <ele>40</ele>
        <time>2019-07-15T11:01:43Z</time>
      </trkpt>
      <trkpt lat="47.85385" lon="-3.54505">
        <ele>40</ele>
        <time>2019-07-15T11:01:44Z</time>
      </trkpt>
      <trkpt lat="47.85382" lon="-3.54504">
        <ele>40</ele>
        <time>2019-07-15T11:01:45Z</time>
      </trkpt>
      <trkpt lat="47.8538" lon="-3.54503">
        <ele>40</ele>
        <time>2019-07-15T11:01:46Z</time>
      </trkpt>
      <trkpt lat="47.85377" lon="-3.54503">
        <ele>40</ele>
        <time>2019-07-15T11:01:47Z</time>
      </trkpt>
      <trkpt lat="47.85374" lon="-3.54502">
        <ele>40</ele>
        <time>2019-07-15T11:01:48Z</time>
      </trkpt>
      <trkpt lat="47.85372" lon="-3.54502">
        <ele>40</ele>
        <time>2019-07-15T11:01:49Z</time>
      </trkpt>
      <trkpt lat="47.85369" lon="-3.54501">
        <ele>40</ele>
        <time>2019-07-15T11:01:50Z</time>
      </trkpt>
      <trkpt lat="47.85368" lon="-3.545">
        <ele>41</ele>
        <time>2019-07-15T11:01:51Z</time>
      </trkpt>
      <trkpt lat="47.85365" lon="-3.54499">
        <ele>41</ele>
        <time>2019-07-15T11:01:52Z</time>
      </trkpt>
      <trkpt lat="47.85364" lon="-3.54498">
        <ele>41</ele>
        <time>2019-07-15T11:01:53Z</time>
      </trkpt>
      <trkpt lat="47.85362" lon="-3.54497">
        <ele>41</ele>
        <time>2019-07-15T11:01:54Z</time>
      </trkpt>
      <trkpt lat="47.85361" lon="-3.54496">
        <ele>41</ele>
        <time>2019-07-15T11:01:55Z</time>
      </trkpt>
      <trkpt lat="47.85358" lon="-3.54494">
        <ele>41</ele>
        <time>2019-07-15T11:01:56Z</time>
      </trkpt>
      <trkpt lat="47.85356" lon="-3.54494">
        <ele>42</ele>
        <time>2019-07-15T11:01:57Z</time>
      </trkpt>
      <trkpt lat="47.85354" lon="-3.54493">
        <ele>42</ele>
        <time>2019-07-15T11:01:58Z</time>
      </trkpt>
      <trkpt lat="47.85351" lon="-3.54492">
        <ele>42</ele>
        <time>2019-07-15T11:01:59Z</time>
      </trkpt>
      <trkpt lat="47.85349" lon="-3.54491">
        <ele>42</ele>
        <time>2019-07-15T11:02:00Z</time>
      </trkpt>
      <trkpt lat="47.85346" lon="-3.54489">
        <ele>42</ele>
        <time>2019-07-15T11:02:01Z</time>
      </trkpt>
      <trkpt lat="47.85344" lon="-3.54488">
        <ele>42</ele>
        <time>2019-07-15T11:02:02Z</time>
      </trkpt>
      <trkpt lat="47.85341" lon="-3.54487">
        <ele>42</ele>
        <time>2019-07-15T11:02:03Z</time>
      </trkpt>
      <trkpt lat="47.85338" lon="-3.54486">
        <ele>42</ele>
        <time>2019-07-15T11:02:04Z</time>
      </trkpt>
      <trkpt lat="47.85336" lon="-3.54484">
        <ele>43</ele>
        <time>2019-07-15T11:02:05Z</time>
      </trkpt>
      <trkpt lat="47.85334" lon="-3.54483">
        <ele>43</ele>
        <time>2019-07-15T11:02:06Z</time>
      </trkpt>
      <trkpt lat="47.85331" lon="-3.54481">
        <ele>43</ele>
        <time>2019-07-15T11:02:07Z</time>
      </trkpt>
      <trkpt lat="47.85328" lon="-3.54478">
        <ele>43</ele>
        <time>2019-07-15T11:02:08Z</time>
      </trkpt>
      <trkpt lat="47.85326" lon="-3.54474">
        <ele>44</ele>
        <time>2019-07-15T11:02:09Z</time>
      </trkpt>
      <trkpt lat="47.85324" lon="-3.54471">
        <ele>45</ele>
        <time>2019-07-15T11:02:10Z</time>
      </trkpt>
      <trkpt lat="47.85322" lon="-3.54467">
        <ele>46</ele>
        <time>2019-07-15T11:02:11Z</time>
      </trkpt>
      <trkpt lat="47.8532" lon="-3.54464">
        <ele>46</ele>
        <time>2019-07-15T11:02:12Z</time>
      </trkpt>
      <trkpt lat="47.85318" lon="-3.5446">
        <ele>47</ele>
        <time>2019-07-15T11:02:13Z</time>
      </trkpt>
      <trkpt lat="47.85316" lon="-3.54457">
        <ele>48</ele>
        <time>2019-07-15T11:02:14Z</time>
      </trkpt>
      <trkpt lat="47.85314" lon="-3.54454">
        <ele>48</ele>
        <time>2019-07-15T11:02:15Z</time>
      </trkpt>
      <trkpt lat="47.85312" lon="-3.5445">
        <ele>49</ele>
        <time>2019-07-15T11:02:16Z</time>
      </trkpt>
      <trkpt lat="47.85311" lon="-3.54446">
        <ele>49</ele>
        <time>2019-07-15T11:02:17Z</time>
      </trkpt>
      <trkpt lat="47.85309" lon="-3.54442">
        <ele>49</ele>
        <time>2019-07-15T11:02:18Z</time>
      </trkpt>
      <trkpt lat="47.85307" lon="-3.54438">
        <ele>50</ele>
        <time>2019-07-15T11:02:19Z</time>
      </trkpt>
      <trkpt lat="47.85305" lon="-3.54434">
        <ele>50</ele>
        <time>2019-07-15T11:02:20Z</time>
      </trkpt>
      <trkpt lat="47.85303" lon="-3.54429">
        <ele>50</ele>
        <time>2019-07-15T11:02:21Z</time>
      </trkpt>
      <trkpt lat="47.85301" lon="-3.54425">
        <ele>51</ele>
        <time>2019-07-15T11:02:22Z</time>
      </trkpt>
      <trkpt lat="47.85299" lon="-3.5442">
        <ele>51</ele>
        <time>2019-07-15T11:02:23Z</time>
      </trkpt>
      <trkpt lat="47.85297" lon="-3.54416">
        <ele>51</ele>
        <time>2019-07-15T11:02:24Z</time>
      </trkpt>
      <trkpt lat="47.85295" lon="-3.54412">
        <ele>51</ele>
        <time>2019-07-15T11:02:25Z</time>
      </trkpt>
      <trkpt lat="47.85293" lon="-3.54408">
        <ele>51</ele>
        <time>2019-07-15T11:02:26Z</time>
      </trkpt>
      <trkpt lat="47.85291" lon="-3.54404">
        <ele>52</ele>
        <time>2019-07-15T11:02:27Z</time>
      </trkpt>
      <trkpt lat="47.85289" lon="-3.544">
        <ele>52</ele>
        <time>2019-07-15T11:02:28Z</time>
      </trkpt>
      <trkpt lat="47.85288" lon="-3.54395">
        <ele>52</ele>
        <time>2019-07-15T11:02:29Z</time>
      </trkpt>
      <trkpt lat="47.85287" lon="-3.5439">
        <ele>52</ele>
        <time>2019-07-15T11:02:30Z</time>
      </trkpt>
      <trkpt lat="47.85286" lon="-3.54386">
        <ele>52</ele>
        <time>2019-07-15T11:02:31Z</time>
      </trkpt>
      <trkpt lat="47.85287" lon="-3.54381">
        <ele>52</ele>
        <time>2019-07-15T11:02:32Z</time>
      </trkpt>
      <trkpt lat="47.85287" lon="-3.54377">
        <ele>53</ele>
        <time>2019-07-15T11:02:33Z</time>
      </trkpt>
      <trkpt lat="47.85287" lon="-3.54373">
        <ele>53</ele>
        <time>2019-07-15T11:02:34Z</time>
      </trkpt>
      <trkpt lat="47.85287" lon="-3.5437">
        <ele>53</ele>
        <time>2019-07-15T11:02:35Z</time>
      </trkpt>
      <trkpt lat="47.85287" lon="-3.54367">
        <ele>54</ele>
        <time>2019-07-15T11:02:36Z</time>
      </trkpt>
      <trkpt lat="47.85288" lon="-3.54366">
        <ele>54</ele>
        <time>2019-07-15T11:02:37Z</time>
      </trkpt>
      <trkpt lat="47.85288" lon="-3.54364">
        <ele>54</ele>
        <time>2019-07-15T11:02:38Z</time>
      </trkpt>
      <trkpt lat="47.85288" lon="-3.54363">
        <ele>55</ele>
        <time>2019-07-15T11:02:39Z</time>
      </trkpt>
      <trkpt lat="47.85288" lon="-3.54363">
        <ele>55</ele>
        <time>2019-07-15T11:02:40Z</time>
      </trkpt>
      <trkpt lat="47.85287" lon="-3.54356">
        <ele>58</ele>
        <time>2019-07-15T11:02:41Z</time>
      </trkpt>
      <trkpt lat="47.85288" lon="-3.54355">
        <ele>58</ele>
        <time>2019-07-15T11:02:42Z</time>
      </trkpt>
      <trkpt lat="47.85288" lon="-3.54356">
        <ele>58</ele>
        <time>2019-07-15T11:02:43Z</time>
      </trkpt>
      <trkpt lat="47.85288" lon="-3.54356">
        <ele>58</ele>
        <time>2019-07-15T11:02:44Z</time>
      </trkpt>
      <trkpt lat="47.85291" lon="-3.54352">
        <ele>59</ele>
        <time>2019-07-15T11:02:45Z</time>
      </trkpt>
      <trkpt lat="47.85292" lon="-3.54349">
        <ele>58</ele>
        <time>2019-07-15T11:02:46Z</time>
      </trkpt>
      <trkpt lat="47.85293" lon="-3.54345">
        <ele>58</ele>
        <time>2019-07-15T11:02:47Z</time>
      </trkpt>
      <trkpt lat="47.85295" lon="-3.5434">
        <ele>58</ele>
        <time>2019-07-15T11:02:48Z</time>
      </trkpt>
      <trkpt lat="47.85296" lon="-3.54335">
        <ele>58</ele>
        <time>2019-07-15T11:02:49Z</time>
      </trkpt>
      <trkpt lat="47.85298" lon="-3.5433">
        <ele>58</ele>
        <time>2019-07-15T11:02:50Z</time>
      </trkpt>
      <trkpt lat="47.853" lon="-3.54325">
        <ele>57</ele>
        <time>2019-07-15T11:02:51Z</time>
      </trkpt>
      <trkpt lat="47.85302" lon="-3.54319">
        <ele>57</ele>
        <time>2019-07-15T11:02:52Z</time>
      </trkpt>
      <trkpt lat="47.85304" lon="-3.54313">
        <ele>57</ele>
        <time>2019-07-15T11:02:53Z</time>
      </trkpt>
      <trkpt lat="47.85306" lon="-3.54306">
        <ele>56</ele>
        <time>2019-07-15T11:02:54Z</time>
      </trkpt>
      <trkpt lat="47.85309" lon="-3.543">
        <ele>56</ele>
        <time>2019-07-15T11:02:55Z</time>
      </trkpt>
      <trkpt lat="47.85311" lon="-3.54293">
        <ele>56</ele>
        <time>2019-07-15T11:02:56Z</time>
      </trkpt>
      <trkpt lat="47.85313" lon="-3.54286">
        <ele>55</ele>
        <time>2019-07-15T11:02:57Z</time>
      </trkpt>
      <trkpt lat="47.85315" lon="-3.54278">
        <ele>55</ele>
        <time>2019-07-15T11:02:58Z</time>
      </trkpt>
      <trkpt lat="47.85318" lon="-3.54271">
        <ele>54</ele>
        <time>2019-07-15T11:02:59Z</time>
      </trkpt>
      <trkpt lat="47.8532" lon="-3.54264">
        <ele>54</ele>
        <time>2019-07-15T11:03:00Z</time>
      </trkpt>
      <trkpt lat="47.85322" lon="-3.54257">
        <ele>54</ele>
        <time>2019-07-15T11:03:01Z</time>
      </trkpt>
      <trkpt lat="47.85325" lon="-3.54249">
        <ele>53</ele>
        <time>2019-07-15T11:03:02Z</time>
      </trkpt>
      <trkpt lat="47.85328" lon="-3.54242">
        <ele>53</ele>
        <time>2019-07-15T11:03:03Z</time>
      </trkpt>
      <trkpt lat="47.85331" lon="-3.54234">
        <ele>53</ele>
        <time>2019-07-15T11:03:04Z</time>
      </trkpt>
      <trkpt lat="47.85333" lon="-3.54227">
        <ele>52</ele>
        <time>2019-07-15T11:03:05Z</time>
      </trkpt>
      <trkpt lat="47.85335" lon="-3.54218">
        <ele>52</ele>
        <time>2019-07-15T11:03:06Z</time>
      </trkpt>
      <trkpt lat="47.85338" lon="-3.5421">
        <ele>51</ele>
        <time>2019-07-15T11:03:07Z</time>
      </trkpt>
      <trkpt lat="47.8534" lon="-3.54201">
        <ele>51</ele>
        <time>2019-07-15T11:03:08Z</time>
      </trkpt>
      <trkpt lat="47.85342" lon="-3.54192">
        <ele>51</ele>
        <time>2019-07-15T11:03:09Z</time>
      </trkpt>
      <trkpt lat="47.85344" lon="-3.54183">
        <ele>50</ele>
        <time>2019-07-15T11:03:10Z</time>
      </trkpt>
      <trkpt lat="47.85346" lon="-3.54174">
        <ele>50</ele>
        <time>2019-07-15T11:03:11Z</time>
      </trkpt>
      <trkpt lat="47.85348" lon="-3.54163">
        <ele>50</ele>
        <time>2019-07-15T11:03:12Z</time>
      </trkpt>
      <trkpt lat="47.85349" lon="-3.54152">
        <ele>50</ele>
        <time>2019-07-15T11:03:13Z</time>
      </trkpt>
      <trkpt lat="47.85349" lon="-3.54141">
        <ele>49</ele>
        <time>2019-07-15T11:03:14Z</time>
      </trkpt>
      <trkpt lat="47.8535" lon="-3.5413">
        <ele>49</ele>
        <time>2019-07-15T11:03:15Z</time>
      </trkpt>
      <trkpt lat="47.8535" lon="-3.54119">
        <ele>49</ele>
        <time>2019-07-15T11:03:16Z</time>
      </trkpt>
      <trkpt lat="47.85351" lon="-3.54109">
        <ele>49</ele>
        <time>2019-07-15T11:03:17Z</time>
      </trkpt>
      <trkpt lat="47.85351" lon="-3.541">
        <ele>49</ele>
        <time>2019-07-15T11:03:18Z</time>
      </trkpt>
      <trkpt lat="47.85351" lon="-3.54091">
        <ele>49</ele>
        <time>2019-07-15T11:03:19Z</time>
      </trkpt>
      <trkpt lat="47.85351" lon="-3.54083">
        <ele>48</ele>
        <time>2019-07-15T11:03:20Z</time>
      </trkpt>
      <trkpt lat="47.8535" lon="-3.54076">
        <ele>48</ele>
        <time>2019-07-15T11:03:21Z</time>
      </trkpt>
      <trkpt lat="47.85348" lon="-3.54071">
        <ele>48</ele>
        <time>2019-07-15T11:03:22Z</time>
      </trkpt>
      <trkpt lat="47.85346" lon="-3.54066">
        <ele>48</ele>
        <time>2019-07-15T11:03:23Z</time>
      </trkpt>
      <trkpt lat="47.85344" lon="-3.5406">
        <ele>48</ele>
        <time>2019-07-15T11:03:24Z</time>
      </trkpt>
      <trkpt lat="47.85342" lon="-3.54056">
        <ele>48</ele>
        <time>2019-07-15T11:03:25Z</time>
      </trkpt>
      <trkpt lat="47.85339" lon="-3.54052">
        <ele>48</ele>
        <time>2019-07-15T11:03:26Z</time>
      </trkpt>
      <trkpt lat="47.85336" lon="-3.5405">
        <ele>48</ele>
        <time>2019-07-15T11:03:27Z</time>
      </trkpt>
      <trkpt lat="47.85333" lon="-3.54048">
        <ele>48</ele>
        <time>2019-07-15T11:03:28Z</time>
      </trkpt>
      <trkpt lat="47.85331" lon="-3.54045">
        <ele>48</ele>
        <time>2019-07-15T11:03:29Z</time>
      </trkpt>
      <trkpt lat="47.85328" lon="-3.54042">
        <ele>48</ele>
        <time>2019-07-15T11:03:30Z</time>
      </trkpt>
      <trkpt lat="47.85325" lon="-3.54041">
        <ele>47</ele>
        <time>2019-07-15T11:03:31Z</time>
      </trkpt>
      <trkpt lat="47.85321" lon="-3.54038">
        <ele>48</ele>
        <time>2019-07-15T11:03:32Z</time>
      </trkpt>
      <trkpt lat="47.85318" lon="-3.54036">
        <ele>48</ele>
        <time>2019-07-15T11:03:33Z</time>
      </trkpt>
      <trkpt lat="47.85315" lon="-3.54034">
        <ele>48</ele>
        <time>2019-07-15T11:03:34Z</time>
      </trkpt>
      <trkpt lat="47.85311" lon="-3.54031">
        <ele>48</ele>
        <time>2019-07-15T11:03:35Z</time>
      </trkpt>
      <trkpt lat="47.85308" lon="-3.54028">
        <ele>48</ele>
        <time>2019-07-15T11:03:36Z</time>
      </trkpt>
      <trkpt lat="47.85305" lon="-3.54026">
        <ele>48</ele>
        <time>2019-07-15T11:03:37Z</time>
      </trkpt>
      <trkpt lat="47.85302" lon="-3.54024">
        <ele>48</ele>
        <time>2019-07-15T11:03:38Z</time>
      </trkpt>
      <trkpt lat="47.85298" lon="-3.54021">
        <ele>48</ele>
        <time>2019-07-15T11:03:39Z</time>
      </trkpt>
      <trkpt lat="47.85295" lon="-3.54017">
        <ele>48</ele>
        <time>2019-07-15T11:03:40Z</time>
      </trkpt>
      <trkpt lat="47.85292" lon="-3.54014">
        <ele>48</ele>
        <time>2019-07-15T11:03:41Z</time>
      </trkpt>
      <trkpt lat="47.85288" lon="-3.54012">
        <ele>48</ele>
        <time>2019-07-15T11:03:42Z</time>
      </trkpt>
      <trkpt lat="47.85285" lon="-3.5401">
        <ele>48</ele>
        <time>2019-07-15T11:03:43Z</time>
      </trkpt>
      <trkpt lat="47.85282" lon="-3.54008">
        <ele>48</ele>
        <time>2019-07-15T11:03:44Z</time>
      </trkpt>
      <trkpt lat="47.85278" lon="-3.54007">
        <ele>48</ele>
        <time>2019-07-15T11:03:45Z</time>
      </trkpt>
      <trkpt lat="47.85274" lon="-3.54005">
        <ele>48</ele>
        <time>2019-07-15T11:03:46Z</time>
      </trkpt>
      <trkpt lat="47.85271" lon="-3.54002">
        <ele>48</ele>
        <time>2019-07-15T11:03:47Z</time>
      </trkpt>
      <trkpt lat="47.85267" lon="-3.54">
        <ele>48</ele>
        <time>2019-07-15T11:03:48Z</time>
      </trkpt>
      <trkpt lat="47.85263" lon="-3.53996">
        <ele>48</ele>
        <time>2019-07-15T11:03:49Z</time>
      </trkpt>
      <trkpt lat="47.8526" lon="-3.53992">
        <ele>48</ele>
        <time>2019-07-15T11:03:50Z</time>
      </trkpt>
      <trkpt lat="47.85257" lon="-3.53988">
        <ele>48</ele>
        <time>2019-07-15T11:03:51Z</time>
      </trkpt>
      <trkpt lat="47.85254" lon="-3.53985">
        <ele>48</ele>
        <time>2019-07-15T11:03:52Z</time>
      </trkpt>
      <trkpt lat="47.8525" lon="-3.53981">
        <ele>48</ele>
        <time>2019-07-15T11:03:53Z</time>
      </trkpt>
      <trkpt lat="47.85247" lon="-3.53978">
        <ele>48</ele>
        <time>2019-07-15T11:03:54Z</time>
      </trkpt>
      <trkpt lat="47.85243" lon="-3.53975">
        <ele>48</ele>
        <time>2019-07-15T11:03:55Z</time>
      </trkpt>
      <trkpt lat="47.8524" lon="-3.53971">
        <ele>48</ele>
        <time>2019-07-15T11:03:56Z</time>
      </trkpt>
      <trkpt lat="47.85236" lon="-3.53968">
        <ele>48</ele>
        <time>2019-07-15T11:03:57Z</time>
      </trkpt>
      <trkpt lat="47.85232" lon="-3.53965">
        <ele>48</ele>
        <time>2019-07-15T11:03:58Z</time>
      </trkpt>
      <trkpt lat="47.85228" lon="-3.53961">
        <ele>48</ele>
        <time>2019-07-15T11:03:59Z</time>
      </trkpt>
      <trkpt lat="47.85224" lon="-3.53958">
        <ele>48</ele>
        <time>2019-07-15T11:04:00Z</time>
      </trkpt>
      <trkpt lat="47.8522" lon="-3.53954">
        <ele>48</ele>
        <time>2019-07-15T11:04:01Z</time>
      </trkpt>
      <trkpt lat="47.85215" lon="-3.53951">
        <ele>48</ele>
        <time>2019-07-15T11:04:02Z</time>
      </trkpt>
      <trkpt lat="47.8521" lon="-3.53947">
        <ele>48</ele>
        <time>2019-07-15T11:04:03Z</time>
      </trkpt>
      <trkpt lat="47.85207" lon="-3.53943">
        <ele>48</ele>
        <time>2019-07-15T11:04:04Z</time>
      </trkpt>
      <trkpt lat="47.85202" lon="-3.5394">
        <ele>49</ele>
        <time>2019-07-15T11:04:05Z</time>
      </trkpt>
      <trkpt lat="47.85198" lon="-3.53936">
        <ele>49</ele>
        <time>2019-07-15T11:04:06Z</time>
      </trkpt>
      <trkpt lat="47.85194" lon="-3.53933">
        <ele>49</ele>
        <time>2019-07-15T11:04:07Z</time>
      </trkpt>
      <trkpt lat="47.8519" lon="-3.5393">
        <ele>49</ele>
        <time>2019-07-15T11:04:08Z</time>
      </trkpt>
      <trkpt lat="47.85186" lon="-3.53927">
        <ele>49</ele>
        <time>2019-07-15T11:04:09Z</time>
      </trkpt>
      <trkpt lat="47.85181" lon="-3.53924">
        <ele>49</ele>
        <time>2019-07-15T11:04:10Z</time>
      </trkpt>
      <trkpt lat="47.85179" lon="-3.5392">
        <ele>49</ele>
        <time>2019-07-15T11:04:11Z</time>
      </trkpt>
      <trkpt lat="47.85177" lon="-3.53916">
        <ele>49</ele>
        <time>2019-07-15T11:04:12Z</time>
      </trkpt>
      <trkpt lat="47.85178" lon="-3.53913">
        <ele>50</ele>
        <time>2019-07-15T11:04:13Z</time>
      </trkpt>
      <trkpt lat="47.85178" lon="-3.53909">
        <ele>50</ele>
        <time>2019-07-15T11:04:14Z</time>
      </trkpt>
      <trkpt lat="47.85179" lon="-3.53904">
        <ele>50</ele>
        <time>2019-07-15T11:04:15Z</time>
      </trkpt>
      <trkpt lat="47.8518" lon="-3.53898">
        <ele>50</ele>
        <time>2019-07-15T11:04:16Z</time>
      </trkpt>
      <trkpt lat="47.8518" lon="-3.53894">
        <ele>50</ele>
        <time>2019-07-15T11:04:17Z</time>
      </trkpt>
      <trkpt lat="47.85181" lon="-3.5389">
        <ele>51</ele>
        <time>2019-07-15T11:04:18Z</time>
      </trkpt>
      <trkpt lat="47.85181" lon="-3.53889">
        <ele>51</ele>
        <time>2019-07-15T11:04:19Z</time>
      </trkpt>
      <trkpt lat="47.85181" lon="-3.53889">
        <ele>51</ele>
        <time>2019-07-15T11:04:20Z</time>
      </trkpt>
      <trkpt lat="47.85182" lon="-3.53888">
        <ele>51</ele>
        <time>2019-07-15T11:04:21Z</time>
      </trkpt>
      <trkpt lat="47.85181" lon="-3.53871">
        <ele>52</ele>
        <time>2019-07-15T11:04:22Z</time>
      </trkpt>
      <trkpt lat="47.85181" lon="-3.53868">
        <ele>52</ele>
        <time>2019-07-15T11:04:23Z</time>
      </trkpt>
      <trkpt lat="47.85181" lon="-3.53864">
        <ele>52</ele>
        <time>2019-07-15T11:04:24Z</time>
      </trkpt>
      <trkpt lat="47.85182" lon="-3.5386">
        <ele>52</ele>
        <time>2019-07-15T11:04:25Z</time>
      </trkpt>
      <trkpt lat="47.85183" lon="-3.53856">
        <ele>52</ele>
        <time>2019-07-15T11:04:26Z</time>
      </trkpt>
      <trkpt lat="47.85184" lon="-3.53851">
        <ele>52</ele>
        <time>2019-07-15T11:04:27Z</time>
      </trkpt>
      <trkpt lat="47.85185" lon="-3.53846">
        <ele>52</ele>
        <time>2019-07-15T11:04:28Z</time>
      </trkpt>
      <trkpt lat="47.85185" lon="-3.53841">
        <ele>52</ele>
        <time>2019-07-15T11:04:29Z</time>
      </trkpt>
      <trkpt lat="47.85186" lon="-3.53837">
        <ele>52</ele>
        <time>2019-07-15T11:04:30Z</time>
      </trkpt>
      <trkpt lat="47.85186" lon="-3.53832">
        <ele>52</ele>
        <time>2019-07-15T11:04:31Z</time>
      </trkpt>
      <trkpt lat="47.85186" lon="-3.53827">
        <ele>52</ele>
        <time>2019-07-15T11:04:32Z</time>
      </trkpt>
      <trkpt lat="47.85186" lon="-3.53823">
        <ele>52</ele>
        <time>2019-07-15T11:04:33Z</time>
      </trkpt>
      <trkpt lat="47.85187" lon="-3.53818">
        <ele>52</ele>
        <time>2019-07-15T11:04:34Z</time>
      </trkpt>
      <trkpt lat="47.85188" lon="-3.53812">
        <ele>52</ele>
        <time>2019-07-15T11:04:35Z</time>
      </trkpt>
      <trkpt lat="47.85189" lon="-3.53807">
        <ele>52</ele>
        <time>2019-07-15T11:04:36Z</time>
      </trkpt>
      <trkpt lat="47.8519" lon="-3.53802">
        <ele>52</ele>
        <time>2019-07-15T11:04:37Z</time>
      </trkpt>
      <trkpt lat="47.85191" lon="-3.53797">
        <ele>52</ele>
        <time>2019-07-15T11:04:38Z</time>
      </trkpt>
      <trkpt lat="47.85191" lon="-3.53792">
        <ele>52</ele>
        <time>2019-07-15T11:04:39Z</time>
      </trkpt>
      <trkpt lat="47.85191" lon="-3.53787">
        <ele>52</ele>
        <time>2019-07-15T11:04:40Z</time>
      </trkpt>
      <trkpt lat="47.85191" lon="-3.53781">
        <ele>52</ele>
        <time>2019-07-15T11:04:41Z</time>
      </trkpt>
      <trkpt lat="47.85192" lon="-3.53776">
        <ele>52</ele>
        <time>2019-07-15T11:04:42Z</time>
      </trkpt>
      <trkpt lat="47.85193" lon="-3.5377">
        <ele>52</ele>
        <time>2019-07-15T11:04:43Z</time>
      </trkpt>
      <trkpt lat="47.85193" lon="-3.53765">
        <ele>52</ele>
        <time>2019-07-15T11:04:44Z</time>
      </trkpt>
      <trkpt lat="47.85193" lon="-3.5376">
        <ele>52</ele>
        <time>2019-07-15T11:04:45Z</time>
      </trkpt>
      <trkpt lat="47.85194" lon="-3.53755">
        <ele>52</ele>
        <time>2019-07-15T11:04:46Z</time>
      </trkpt>
      <trkpt lat="47.85195" lon="-3.53749">
        <ele>52</ele>
        <time>2019-07-15T11:04:47Z</time>
      </trkpt>
      <trkpt lat="47.85196" lon="-3.53746">
        <ele>53</ele>
        <time>2019-07-15T11:04:48Z</time>
      </trkpt>
      <trkpt lat="47.85197" lon="-3.53741">
        <ele>53</ele>
        <time>2019-07-15T11:04:49Z</time>
      </trkpt>
      <trkpt lat="47.85198" lon="-3.53736">
        <ele>53</ele>
        <time>2019-07-15T11:04:50Z</time>
      </trkpt>
      <trkpt lat="47.85199" lon="-3.5373">
        <ele>53</ele>
        <time>2019-07-15T11:04:51Z</time>
      </trkpt>
      <trkpt lat="47.852" lon="-3.53725">
        <ele>53</ele>
        <time>2019-07-15T11:04:52Z</time>
      </trkpt>
      <trkpt lat="47.85201" lon="-3.5372">
        <ele>53</ele>
        <time>2019-07-15T11:04:53Z</time>
      </trkpt>
      <trkpt lat="47.85203" lon="-3.53715">
        <ele>53</ele>
        <time>2019-07-15T11:04:54Z</time>
      </trkpt>
      <trkpt lat="47.85204" lon="-3.53709">
        <ele>53</ele>
        <time>2019-07-15T11:04:55Z</time>
      </trkpt>
      <trkpt lat="47.85205" lon="-3.53703">
        <ele>53</ele>
        <time>2019-07-15T11:04:56Z</time>
      </trkpt>
      <trkpt lat="47.85207" lon="-3.53696">
        <ele>53</ele>
        <time>2019-07-15T11:04:57Z</time>
      </trkpt>
      <trkpt lat="47.8521" lon="-3.53688">
        <ele>53</ele>
        <time>2019-07-15T11:04:58Z</time>
      </trkpt>
      <trkpt lat="47.85211" lon="-3.53682">
        <ele>53</ele>
        <time>2019-07-15T11:04:59Z</time>
      </trkpt>
      <trkpt lat="47.85213" lon="-3.53677">
        <ele>53</ele>
        <time>2019-07-15T11:05:00Z</time>
      </trkpt>
      <trkpt lat="47.85214" lon="-3.53673">
        <ele>53</ele>
        <time>2019-07-15T11:05:01Z</time>
      </trkpt>
      <trkpt lat="47.85215" lon="-3.53668">
        <ele>53</ele>
        <time>2019-07-15T11:05:02Z</time>
      </trkpt>
      <trkpt lat="47.85216" lon="-3.53662">
        <ele>53</ele>
        <time>2019-07-15T11:05:03Z</time>
      </trkpt>
      <trkpt lat="47.85217" lon="-3.53655">
        <ele>53</ele>
        <time>2019-07-15T11:05:04Z</time>
      </trkpt>
      <trkpt lat="47.85218" lon="-3.53648">
        <ele>54</ele>
        <time>2019-07-15T11:05:05Z</time>
      </trkpt>
      <trkpt lat="47.85219" lon="-3.53641">
        <ele>54</ele>
        <time>2019-07-15T11:05:06Z</time>
      </trkpt>
      <trkpt lat="47.85221" lon="-3.53636">
        <ele>54</ele>
        <time>2019-07-15T11:05:07Z</time>
      </trkpt>
      <trkpt lat="47.85222" lon="-3.5363">
        <ele>54</ele>
        <time>2019-07-15T11:05:08Z</time>
      </trkpt>
      <trkpt lat="47.85223" lon="-3.53625">
        <ele>54</ele>
        <time>2019-07-15T11:05:09Z</time>
      </trkpt>
      <trkpt lat="47.85224" lon="-3.5362">
        <ele>54</ele>
        <time>2019-07-15T11:05:10Z</time>
      </trkpt>
      <trkpt lat="47.85227" lon="-3.53615">
        <ele>54</ele>
        <time>2019-07-15T11:05:11Z</time>
      </trkpt>
      <trkpt lat="47.8523" lon="-3.53608">
        <ele>54</ele>
        <time>2019-07-15T11:05:12Z</time>
      </trkpt>
      <trkpt lat="47.85232" lon="-3.53602">
        <ele>54</ele>
        <time>2019-07-15T11:05:13Z</time>
      </trkpt>
      <trkpt lat="47.85234" lon="-3.53596">
        <ele>54</ele>
        <time>2019-07-15T11:05:14Z</time>
      </trkpt>
      <trkpt lat="47.85236" lon="-3.53591">
        <ele>54</ele>
        <time>2019-07-15T11:05:15Z</time>
      </trkpt>
      <trkpt lat="47.85237" lon="-3.53585">
        <ele>54</ele>
        <time>2019-07-15T11:05:16Z</time>
      </trkpt>
      <trkpt lat="47.85238" lon="-3.53582">
        <ele>54</ele>
        <time>2019-07-15T11:05:17Z</time>
      </trkpt>
      <trkpt lat="47.8524" lon="-3.53579">
        <ele>55</ele>
        <time>2019-07-15T11:05:18Z</time>
      </trkpt>
      <trkpt lat="47.85241" lon="-3.53577">
        <ele>55</ele>
        <time>2019-07-15T11:05:19Z</time>
      </trkpt>
      <trkpt lat="47.85242" lon="-3.53573">
        <ele>55</ele>
        <time>2019-07-15T11:05:20Z</time>
      </trkpt>
      <trkpt lat="47.85243" lon="-3.5357">
        <ele>55</ele>
        <time>2019-07-15T11:05:21Z</time>
      </trkpt>
      <trkpt lat="47.85244" lon="-3.53566">
        <ele>55</ele>
        <time>2019-07-15T11:05:22Z</time>
      </trkpt>
      <trkpt lat="47.85245" lon="-3.53562">
        <ele>55</ele>
        <time>2019-07-15T11:05:23Z</time>
      </trkpt>
      <trkpt lat="47.85246" lon="-3.53559">
        <ele>55</ele>
        <time>2019-07-15T11:05:24Z</time>
      </trkpt>
      <trkpt lat="47.85247" lon="-3.53555">
        <ele>55</ele>
        <time>2019-07-15T11:05:25Z</time>
      </trkpt>
      <trkpt lat="47.85249" lon="-3.53552">
        <ele>55</ele>
        <time>2019-07-15T11:05:26Z</time>
      </trkpt>
      <trkpt lat="47.85251" lon="-3.53549">
        <ele>55</ele>
        <time>2019-07-15T11:05:27Z</time>
      </trkpt>
      <trkpt lat="47.85253" lon="-3.53545">
        <ele>55</ele>
        <time>2019-07-15T11:05:28Z</time>
      </trkpt>
      <trkpt lat="47.85256" lon="-3.53542">
        <ele>54</ele>
        <time>2019-07-15T11:05:29Z</time>
      </trkpt>
      <trkpt lat="47.85257" lon="-3.53539">
        <ele>54</ele>
        <time>2019-07-15T11:05:30Z</time>
      </trkpt>
      <trkpt lat="47.85259" lon="-3.53535">
        <ele>54</ele>
        <time>2019-07-15T11:05:31Z</time>
      </trkpt>
      <trkpt lat="47.85261" lon="-3.5353">
        <ele>54</ele>
        <time>2019-07-15T11:05:32Z</time>
      </trkpt>
      <trkpt lat="47.85263" lon="-3.53526">
        <ele>54</ele>
        <time>2019-07-15T11:05:33Z</time>
      </trkpt>
      <trkpt lat="47.85264" lon="-3.53523">
        <ele>54</ele>
        <time>2019-07-15T11:05:34Z</time>
      </trkpt>
      <trkpt lat="47.85266" lon="-3.53519">
        <ele>54</ele>
        <time>2019-07-15T11:05:35Z</time>
      </trkpt>
      <trkpt lat="47.85267" lon="-3.53516">
        <ele>53</ele>
        <time>2019-07-15T11:05:36Z</time>
      </trkpt>
      <trkpt lat="47.85269" lon="-3.53512">
        <ele>53</ele>
        <time>2019-07-15T11:05:37Z</time>
      </trkpt>
      <trkpt lat="47.85271" lon="-3.53508">
        <ele>53</ele>
        <time>2019-07-15T11:05:38Z</time>
      </trkpt>
      <trkpt lat="47.85273" lon="-3.53505">
        <ele>53</ele>
        <time>2019-07-15T11:05:39Z</time>
      </trkpt>
      <trkpt lat="47.85275" lon="-3.53501">
        <ele>53</ele>
        <time>2019-07-15T11:05:40Z</time>
      </trkpt>
      <trkpt lat="47.85276" lon="-3.53497">
        <ele>52</ele>
        <time>2019-07-15T11:05:41Z</time>
      </trkpt>
      <trkpt lat="47.85277" lon="-3.53494">
        <ele>52</ele>
        <time>2019-07-15T11:05:42Z</time>
      </trkpt>
      <trkpt lat="47.85278" lon="-3.5349">
        <ele>52</ele>
        <time>2019-07-15T11:05:43Z</time>
      </trkpt>
      <trkpt lat="47.85278" lon="-3.53487">
        <ele>52</ele>
        <time>2019-07-15T11:05:44Z</time>
      </trkpt>
      <trkpt lat="47.85279" lon="-3.53483">
        <ele>51</ele>
        <time>2019-07-15T11:05:45Z</time>
      </trkpt>
      <trkpt lat="47.85281" lon="-3.53479">
        <ele>51</ele>
        <time>2019-07-15T11:05:46Z</time>
      </trkpt>
      <trkpt lat="47.85282" lon="-3.53476">
        <ele>51</ele>
        <time>2019-07-15T11:05:47Z</time>
      </trkpt>
      <trkpt lat="47.85284" lon="-3.53472">
        <ele>50</ele>
        <time>2019-07-15T11:05:48Z</time>
      </trkpt>
      <trkpt lat="47.85286" lon="-3.53467">
        <ele>50</ele>
        <time>2019-07-15T11:05:49Z</time>
      </trkpt>
      <trkpt lat="47.85289" lon="-3.53461">
        <ele>50</ele>
        <time>2019-07-15T11:05:50Z</time>
      </trkpt>
      <trkpt lat="47.85291" lon="-3.53456">
        <ele>49</ele>
        <time>2019-07-15T11:05:51Z</time>
      </trkpt>
      <trkpt lat="47.85293" lon="-3.53452">
        <ele>49</ele>
        <time>2019-07-15T11:05:52Z</time>
      </trkpt>
      <trkpt lat="47.85294" lon="-3.53449">
        <ele>48</ele>
        <time>2019-07-15T11:05:53Z</time>
      </trkpt>
      <trkpt lat="47.85295" lon="-3.53446">
        <ele>48</ele>
        <time>2019-07-15T11:05:54Z</time>
      </trkpt>
      <trkpt lat="47.85295" lon="-3.53445">
        <ele>47</ele>
        <time>2019-07-15T11:05:55Z</time>
      </trkpt>
      <trkpt lat="47.85296" lon="-3.53444">
        <ele>47</ele>
        <time>2019-07-15T11:05:56Z</time>
      </trkpt>
      <trkpt lat="47.85296" lon="-3.53444">
        <ele>46</ele>
        <time>2019-07-15T11:05:57Z</time>
      </trkpt>
      <trkpt lat="47.85297" lon="-3.53443">
        <ele>45</ele>
        <time>2019-07-15T11:05:58Z</time>
      </trkpt>
      <trkpt lat="47.85301" lon="-3.53439">
        <ele>42</ele>
        <time>2019-07-15T11:05:59Z</time>
      </trkpt>
      <trkpt lat="47.85302" lon="-3.53438">
        <ele>41</ele>
        <time>2019-07-15T11:06:00Z</time>
      </trkpt>
      <trkpt lat="47.85303" lon="-3.53436">
        <ele>40</ele>
        <time>2019-07-15T11:06:01Z</time>
      </trkpt>
      <trkpt lat="47.85305" lon="-3.53434">
        <ele>40</ele>
        <time>2019-07-15T11:06:02Z</time>
      </trkpt>
      <trkpt lat="47.85306" lon="-3.53434">
        <ele>39</ele>
        <time>2019-07-15T11:06:03Z</time>
      </trkpt>
      <trkpt lat="47.85306" lon="-3.53433">
        <ele>38</ele>
        <time>2019-07-15T11:06:04Z</time>
      </trkpt>
      <trkpt lat="47.85307" lon="-3.53432">
        <ele>38</ele>
        <time>2019-07-15T11:06:05Z</time>
      </trkpt>
      <trkpt lat="47.85307" lon="-3.53431">
        <ele>37</ele>
        <time>2019-07-15T11:06:06Z</time>
      </trkpt>
      <trkpt lat="47.85308" lon="-3.5343">
        <ele>36</ele>
        <time>2019-07-15T11:06:07Z</time>
      </trkpt>
      <trkpt lat="47.85309" lon="-3.53429">
        <ele>35</ele>
        <time>2019-07-15T11:06:08Z</time>
      </trkpt>
      <trkpt lat="47.85309" lon="-3.53428">
        <ele>35</ele>
        <time>2019-07-15T11:06:09Z</time>
      </trkpt>
      <trkpt lat="47.85309" lon="-3.53426">
        <ele>34</ele>
        <time>2019-07-15T11:06:10Z</time>
      </trkpt>
      <trkpt lat="47.8531" lon="-3.53425">
        <ele>34</ele>
        <time>2019-07-15T11:06:11Z</time>
      </trkpt>
      <trkpt lat="47.8531" lon="-3.53425">
        <ele>33</ele>
        <time>2019-07-15T11:06:12Z</time>
      </trkpt>
      <trkpt lat="47.8531" lon="-3.53424">
        <ele>33</ele>
        <time>2019-07-15T11:06:13Z</time>
      </trkpt>
      <trkpt lat="47.85311" lon="-3.53422">
        <ele>33</ele>
        <time>2019-07-15T11:06:14Z</time>
      </trkpt>
      <trkpt lat="47.85312" lon="-3.53419">
        <ele>32</ele>
        <time>2019-07-15T11:06:15Z</time>
      </trkpt>
      <trkpt lat="47.85313" lon="-3.53415">
        <ele>32</ele>
        <time>2019-07-15T11:06:16Z</time>
      </trkpt>
      <trkpt lat="47.85313" lon="-3.53412">
        <ele>31</ele>
        <time>2019-07-15T11:06:17Z</time>
      </trkpt>
      <trkpt lat="47.85313" lon="-3.53408">
        <ele>31</ele>
        <time>2019-07-15T11:06:18Z</time>
      </trkpt>
      <trkpt lat="47.85313" lon="-3.53403">
        <ele>31</ele>
        <time>2019-07-15T11:06:19Z</time>
      </trkpt>
      <trkpt lat="47.85313" lon="-3.53398">
        <ele>30</ele>
        <time>2019-07-15T11:06:20Z</time>
      </trkpt>
      <trkpt lat="47.85312" lon="-3.53392">
        <ele>30</ele>
        <time>2019-07-15T11:06:21Z</time>
      </trkpt>
      <trkpt lat="47.85311" lon="-3.53385">
        <ele>30</ele>
        <time>2019-07-15T11:06:22Z</time>
      </trkpt>
      <trkpt lat="47.8531" lon="-3.53378">
        <ele>29</ele>
        <time>2019-07-15T11:06:23Z</time>
      </trkpt>
      <trkpt lat="47.85309" lon="-3.5337">
        <ele>29</ele>
        <time>2019-07-15T11:06:24Z</time>
      </trkpt>
      <trkpt lat="47.85309" lon="-3.53363">
        <ele>29</ele>
        <time>2019-07-15T11:06:25Z</time>
      </trkpt>
      <trkpt lat="47.85309" lon="-3.53357">
        <ele>28</ele>
        <time>2019-07-15T11:06:26Z</time>
      </trkpt>
      <trkpt lat="47.85309" lon="-3.53349">
        <ele>28</ele>
        <time>2019-07-15T11:06:27Z</time>
      </trkpt>
      <trkpt lat="47.85309" lon="-3.53344">
        <ele>28</ele>
        <time>2019-07-15T11:06:28Z</time>
      </trkpt>
      <trkpt lat="47.85309" lon="-3.53337">
        <ele>27</ele>
        <time>2019-07-15T11:06:29Z</time>
      </trkpt>
      <trkpt lat="47.85309" lon="-3.53331">
        <ele>27</ele>
        <time>2019-07-15T11:06:30Z</time>
      </trkpt>
      <trkpt lat="47.85309" lon="-3.53326">
        <ele>27</ele>
        <time>2019-07-15T11:06:31Z</time>
      </trkpt>
      <trkpt lat="47.85309" lon="-3.5332">
        <ele>26</ele>
        <time>2019-07-15T11:06:32Z</time>
      </trkpt>
      <trkpt lat="47.85309" lon="-3.53314">
        <ele>26</ele>
        <time>2019-07-15T11:06:33Z</time>
      </trkpt>
      <trkpt lat="47.85308" lon="-3.53309">
        <ele>26</ele>
        <time>2019-07-15T11:06:34Z</time>
      </trkpt>
      <trkpt lat="47.85307" lon="-3.53304">
        <ele>25</ele>
        <time>2019-07-15T11:06:35Z</time>
      </trkpt>
      <trkpt lat="47.85305" lon="-3.53297">
        <ele>25</ele>
        <time>2019-07-15T11:06:36Z</time>
      </trkpt>
      <trkpt lat="47.85303" lon="-3.5329">
        <ele>24</ele>
        <time>2019-07-15T11:06:37Z</time>
      </trkpt>
      <trkpt lat="47.853" lon="-3.53284">
        <ele>24</ele>
        <time>2019-07-15T11:06:38Z</time>
      </trkpt>
      <trkpt lat="47.85298" lon="-3.53278">
        <ele>23</ele>
        <time>2019-07-15T11:06:39Z</time>
      </trkpt>
      <trkpt lat="47.85295" lon="-3.53273">
        <ele>23</ele>
        <time>2019-07-15T11:06:40Z</time>
      </trkpt>
      <trkpt lat="47.85292" lon="-3.53268">
        <ele>22</ele>
        <time>2019-07-15T11:06:41Z</time>
      </trkpt>
      <trkpt lat="47.85287" lon="-3.53263">
        <ele>22</ele>
        <time>2019-07-15T11:06:42Z</time>
      </trkpt>
      <trkpt lat="47.85283" lon="-3.53258">
        <ele>21</ele>
        <time>2019-07-15T11:06:43Z</time>
      </trkpt>
      <trkpt lat="47.85278" lon="-3.53253">
        <ele>20</ele>
        <time>2019-07-15T11:06:44Z</time>
      </trkpt>
      <trkpt lat="47.85274" lon="-3.53248">
        <ele>20</ele>
        <time>2019-07-15T11:06:45Z</time>
      </trkpt>
      <trkpt lat="47.85269" lon="-3.53243">
        <ele>19</ele>
        <time>2019-07-15T11:06:46Z</time>
      </trkpt>
      <trkpt lat="47.85264" lon="-3.53238">
        <ele>19</ele>
        <time>2019-07-15T11:06:47Z</time>
      </trkpt>
      <trkpt lat="47.8526" lon="-3.53233">
        <ele>18</ele>
        <time>2019-07-15T11:06:48Z</time>
      </trkpt>
      <trkpt lat="47.85256" lon="-3.53229">
        <ele>18</ele>
        <time>2019-07-15T11:06:49Z</time>
      </trkpt>
      <trkpt lat="47.85252" lon="-3.53224">
        <ele>17</ele>
        <time>2019-07-15T11:06:50Z</time>
      </trkpt>
      <trkpt lat="47.85247" lon="-3.53218">
        <ele>17</ele>
        <time>2019-07-15T11:06:51Z</time>
      </trkpt>
      <trkpt lat="47.85244" lon="-3.53213">
        <ele>17</ele>
        <time>2019-07-15T11:06:52Z</time>
      </trkpt>
      <trkpt lat="47.8524" lon="-3.53208">
        <ele>16</ele>
        <time>2019-07-15T11:06:53Z</time>
      </trkpt>
      <trkpt lat="47.85235" lon="-3.53203">
        <ele>16</ele>
        <time>2019-07-15T11:06:54Z</time>
      </trkpt>
      <trkpt lat="47.8523" lon="-3.53198">
        <ele>16</ele>
        <time>2019-07-15T11:06:55Z</time>
      </trkpt>
      <trkpt lat="47.85226" lon="-3.53194">
        <ele>15</ele>
        <time>2019-07-15T11:06:56Z</time>
      </trkpt>
      <trkpt lat="47.85221" lon="-3.53189">
        <ele>15</ele>
        <time>2019-07-15T11:06:57Z</time>
      </trkpt>
      <trkpt lat="47.85216" lon="-3.53186">
        <ele>15</ele>
        <time>2019-07-15T11:06:58Z</time>
      </trkpt>
      <trkpt lat="47.85211" lon="-3.53181">
        <ele>15</ele>
        <time>2019-07-15T11:06:59Z</time>
      </trkpt>
      <trkpt lat="47.85206" lon="-3.53177">
        <ele>14</ele>
        <time>2019-07-15T11:07:00Z</time>
      </trkpt>
      <trkpt lat="47.85202" lon="-3.53173">
        <ele>14</ele>
        <time>2019-07-15T11:07:01Z</time>
      </trkpt>
      <trkpt lat="47.85197" lon="-3.5317">
        <ele>14</ele>
        <time>2019-07-15T11:07:02Z</time>
      </trkpt>
      <trkpt lat="47.85193" lon="-3.53166">
        <ele>14</ele>
        <time>2019-07-15T11:07:03Z</time>
      </trkpt>
      <trkpt lat="47.85189" lon="-3.53163">
        <ele>13</ele>
        <time>2019-07-15T11:07:04Z</time>
      </trkpt>
      <trkpt lat="47.85185" lon="-3.53159">
        <ele>13</ele>
        <time>2019-07-15T11:07:05Z</time>
      </trkpt>
      <trkpt lat="47.85182" lon="-3.53156">
        <ele>13</ele>
        <time>2019-07-15T11:07:06Z</time>
      </trkpt>
      <trkpt lat="47.85178" lon="-3.53154">
        <ele>13</ele>
        <time>2019-07-15T11:07:07Z</time>
      </trkpt>
      <trkpt lat="47.85175" lon="-3.53151">
        <ele>12</ele>
        <time>2019-07-15T11:07:08Z</time>
      </trkpt>
      <trkpt lat="47.85171" lon="-3.53149">
        <ele>12</ele>
        <time>2019-07-15T11:07:09Z</time>
      </trkpt>
      <trkpt lat="47.85167" lon="-3.53146">
        <ele>12</ele>
        <time>2019-07-15T11:07:10Z</time>
      </trkpt>
      <trkpt lat="47.85163" lon="-3.53144">
        <ele>12</ele>
        <time>2019-07-15T11:07:11Z</time>
      </trkpt>
      <trkpt lat="47.85159" lon="-3.53143">
        <ele>12</ele>
        <time>2019-07-15T11:07:12Z</time>
      </trkpt>
      <trkpt lat="47.85155" lon="-3.5314">
        <ele>12</ele>
        <time>2019-07-15T11:07:13Z</time>
      </trkpt>
      <trkpt lat="47.85151" lon="-3.53137">
        <ele>12</ele>
        <time>2019-07-15T11:07:14Z</time>
      </trkpt>
      <trkpt lat="47.85146" lon="-3.53135">
        <ele>11</ele>
        <time>2019-07-15T11:07:15Z</time>
      </trkpt>
      <trkpt lat="47.85142" lon="-3.53133">
        <ele>11</ele>
        <time>2019-07-15T11:07:16Z</time>
      </trkpt>
      <trkpt lat="47.85137" lon="-3.53132">
        <ele>11</ele>
        <time>2019-07-15T11:07:17Z</time>
      </trkpt>
      <trkpt lat="47.85133" lon="-3.5313">
        <ele>11</ele>
        <time>2019-07-15T11:07:18Z</time>
      </trkpt>
      <trkpt lat="47.85128" lon="-3.53128">
        <ele>11</ele>
        <time>2019-07-15T11:07:19Z</time>
      </trkpt>
      <trkpt lat="47.85124" lon="-3.53126">
        <ele>11</ele>
        <time>2019-07-15T11:07:20Z</time>
      </trkpt>
      <trkpt lat="47.85119" lon="-3.53125">
        <ele>11</ele>
        <time>2019-07-15T11:07:21Z</time>
      </trkpt>
      <trkpt lat="47.85114" lon="-3.53123">
        <ele>11</ele>
        <time>2019-07-15T11:07:22Z</time>
      </trkpt>
      <trkpt lat="47.8511" lon="-3.53121">
        <ele>11</ele>
        <time>2019-07-15T11:07:23Z</time>
      </trkpt>
      <trkpt lat="47.85106" lon="-3.53118">
        <ele>11</ele>
        <time>2019-07-15T11:07:24Z</time>
      </trkpt>
      <trkpt lat="47.85102" lon="-3.53114">
        <ele>11</ele>
        <time>2019-07-15T11:07:25Z</time>
      </trkpt>
      <trkpt lat="47.85098" lon="-3.53112">
        <ele>11</ele>
        <time>2019-07-15T11:07:26Z</time>
      </trkpt>
      <trkpt lat="47.85094" lon="-3.53109">
        <ele>11</ele>
        <time>2019-07-15T11:07:27Z</time>
      </trkpt>
      <trkpt lat="47.85089" lon="-3.53107">
        <ele>11</ele>
        <time>2019-07-15T11:07:28Z</time>
      </trkpt>
      <trkpt lat="47.85085" lon="-3.53105">
        <ele>11</ele>
        <time>2019-07-15T11:07:29Z</time>
      </trkpt>
      <trkpt lat="47.8508" lon="-3.53104">
        <ele>11</ele>
        <time>2019-07-15T11:07:30Z</time>
      </trkpt>
      <trkpt lat="47.85076" lon="-3.53104">
        <ele>11</ele>
        <time>2019-07-15T11:07:31Z</time>
      </trkpt>
      <trkpt lat="47.85071" lon="-3.53104">
        <ele>11</ele>
        <time>2019-07-15T11:07:32Z</time>
      </trkpt>
      <trkpt lat="47.85067" lon="-3.53103">
        <ele>11</ele>
        <time>2019-07-15T11:07:33Z</time>
      </trkpt>
      <trkpt lat="47.85062" lon="-3.53103">
        <ele>11</ele>
        <time>2019-07-15T11:07:34Z</time>
      </trkpt>
      <trkpt lat="47.85058" lon="-3.53102">
        <ele>11</ele>
        <time>2019-07-15T11:07:35Z</time>
      </trkpt>
      <trkpt lat="47.85053" lon="-3.53102">
        <ele>11</ele>
        <time>2019-07-15T11:07:36Z</time>
      </trkpt>
      <trkpt lat="47.85049" lon="-3.53105">
        <ele>11</ele>
        <time>2019-07-15T11:07:37Z</time>
      </trkpt>
      <trkpt lat="47.85047" lon="-3.53109">
        <ele>11</ele>
        <time>2019-07-15T11:07:38Z</time>
      </trkpt>
      <trkpt lat="47.85045" lon="-3.53113">
        <ele>10</ele>
        <time>2019-07-15T11:07:39Z</time>
      </trkpt>
      <trkpt lat="47.85043" lon="-3.53117">
        <ele>10</ele>
        <time>2019-07-15T11:07:40Z</time>
      </trkpt>
      <trkpt lat="47.8504" lon="-3.5312">
        <ele>10</ele>
        <time>2019-07-15T11:07:41Z</time>
      </trkpt>
      <trkpt lat="47.85038" lon="-3.53122">
        <ele>10</ele>
        <time>2019-07-15T11:07:42Z</time>
      </trkpt>
      <trkpt lat="47.85036" lon="-3.53123">
        <ele>10</ele>
        <time>2019-07-15T11:07:43Z</time>
      </trkpt>
      <trkpt lat="47.85033" lon="-3.53123">
        <ele>10</ele>
        <time>2019-07-15T11:07:44Z</time>
      </trkpt>
      <trkpt lat="47.8503" lon="-3.53122">
        <ele>10</ele>
        <time>2019-07-15T11:07:45Z</time>
      </trkpt>
      <trkpt lat="47.85025" lon="-3.53122">
        <ele>10</ele>
        <time>2019-07-15T11:07:46Z</time>
      </trkpt>
      <trkpt lat="47.8502" lon="-3.53123">
        <ele>10</ele>
        <time>2019-07-15T11:07:47Z</time>
      </trkpt>
      <trkpt lat="47.85015" lon="-3.53124">
        <ele>10</ele>
        <time>2019-07-15T11:07:48Z</time>
      </trkpt>
      <trkpt lat="47.85011" lon="-3.53124">
        <ele>10</ele>
        <time>2019-07-15T11:07:49Z</time>
      </trkpt>
      <trkpt lat="47.85007" lon="-3.53122">
        <ele>10</ele>
        <time>2019-07-15T11:07:50Z</time>
      </trkpt>
      <trkpt lat="47.85004" lon="-3.53119">
        <ele>10</ele>
        <time>2019-07-15T11:07:51Z</time>
      </trkpt>
      <trkpt lat="47.85" lon="-3.53116">
        <ele>10</ele>
        <time>2019-07-15T11:07:52Z</time>
      </trkpt>
      <trkpt lat="47.84996" lon="-3.53113">
        <ele>10</ele>
        <time>2019-07-15T11:07:53Z</time>
      </trkpt>
      <trkpt lat="47.84991" lon="-3.53109">
        <ele>10</ele>
        <time>2019-07-15T11:07:54Z</time>
      </trkpt>
      <trkpt lat="47.84987" lon="-3.53106">
        <ele>10</ele>
        <time>2019-07-15T11:07:55Z</time>
      </trkpt>
      <trkpt lat="47.84982" lon="-3.53103">
        <ele>10</ele>
        <time>2019-07-15T11:07:56Z</time>
      </trkpt>
      <trkpt lat="47.84977" lon="-3.531">
        <ele>10</ele>
        <time>2019-07-15T11:07:57Z</time>
      </trkpt>
      <trkpt lat="47.84973" lon="-3.53098">
        <ele>10</ele>
        <time>2019-07-15T11:07:58Z</time>
      </trkpt>
      <trkpt lat="47.84968" lon="-3.53095">
        <ele>10</ele>
        <time>2019-07-15T11:07:59Z</time>
      </trkpt>
      <trkpt lat="47.84964" lon="-3.53093">
        <ele>10</ele>
        <time>2019-07-15T11:08:00Z</time>
      </trkpt>
      <trkpt lat="47.84959" lon="-3.53091">
        <ele>10</ele>
        <time>2019-07-15T11:08:01Z</time>
      </trkpt>
      <trkpt lat="47.84954" lon="-3.53091">
        <ele>10</ele>
        <time>2019-07-15T11:08:02Z</time>
      </trkpt>
      <trkpt lat="47.84949" lon="-3.5309">
        <ele>10</ele>
        <time>2019-07-15T11:08:03Z</time>
      </trkpt>
      <trkpt lat="47.84945" lon="-3.53089">
        <ele>10</ele>
        <time>2019-07-15T11:08:04Z</time>
      </trkpt>
      <trkpt lat="47.8494" lon="-3.53088">
        <ele>10</ele>
        <time>2019-07-15T11:08:05Z</time>
      </trkpt>
      <trkpt lat="47.84935" lon="-3.53086">
        <ele>10</ele>
        <time>2019-07-15T11:08:06Z</time>
      </trkpt>
      <trkpt lat="47.84931" lon="-3.53086">
        <ele>10</ele>
        <time>2019-07-15T11:08:07Z</time>
      </trkpt>
      <trkpt lat="47.84927" lon="-3.53085">
        <ele>10</ele>
        <time>2019-07-15T11:08:08Z</time>
      </trkpt>
      <trkpt lat="47.84923" lon="-3.53084">
        <ele>10</ele>
        <time>2019-07-15T11:08:09Z</time>
      </trkpt>
      <trkpt lat="47.84919" lon="-3.53083">
        <ele>10</ele>
        <time>2019-07-15T11:08:10Z</time>
      </trkpt>
      <trkpt lat="47.84915" lon="-3.53082">
        <ele>10</ele>
        <time>2019-07-15T11:08:11Z</time>
      </trkpt>
      <trkpt lat="47.84911" lon="-3.53081">
        <ele>10</ele>
        <time>2019-07-15T11:08:12Z</time>
      </trkpt>
      <trkpt lat="47.84905" lon="-3.5308">
        <ele>9</ele>
        <time>2019-07-15T11:08:13Z</time>
      </trkpt>
      <trkpt lat="47.849" lon="-3.5308">
        <ele>9</ele>
        <time>2019-07-15T11:08:14Z</time>
      </trkpt>
      <trkpt lat="47.84895" lon="-3.53079">
        <ele>9</ele>
        <time>2019-07-15T11:08:15Z</time>
      </trkpt>
      <trkpt lat="47.84889" lon="-3.53077">
        <ele>9</ele>
        <time>2019-07-15T11:08:16Z</time>
      </trkpt>
      <trkpt lat="47.84883" lon="-3.53076">
        <ele>9</ele>
        <time>2019-07-15T11:08:17Z</time>
      </trkpt>
      <trkpt lat="47.84878" lon="-3.53076">
        <ele>9</ele>
        <time>2019-07-15T11:08:18Z</time>
      </trkpt>
      <trkpt lat="47.84872" lon="-3.53075">
        <ele>8</ele>
        <time>2019-07-15T11:08:19Z</time>
      </trkpt>
      <trkpt lat="47.84866" lon="-3.53074">
        <ele>8</ele>
        <time>2019-07-15T11:08:20Z</time>
      </trkpt>
      <trkpt lat="47.84862" lon="-3.53074">
        <ele>8</ele>
        <time>2019-07-15T11:08:21Z</time>
      </trkpt>
      <trkpt lat="47.84857" lon="-3.53074">
        <ele>8</ele>
        <time>2019-07-15T11:08:22Z</time>
      </trkpt>
      <trkpt lat="47.84852" lon="-3.53074">
        <ele>8</ele>
        <time>2019-07-15T11:08:23Z</time>
      </trkpt>
      <trkpt lat="47.84847" lon="-3.53073">
        <ele>8</ele>
        <time>2019-07-15T11:08:24Z</time>
      </trkpt>
      <trkpt lat="47.84843" lon="-3.53073">
        <ele>7</ele>
        <time>2019-07-15T11:08:25Z</time>
      </trkpt>
      <trkpt lat="47.84838" lon="-3.53073">
        <ele>7</ele>
        <time>2019-07-15T11:08:26Z</time>
      </trkpt>
      <trkpt lat="47.84833" lon="-3.53073">
        <ele>7</ele>
        <time>2019-07-15T11:08:27Z</time>
      </trkpt>
      <trkpt lat="47.84829" lon="-3.53072">
        <ele>7</ele>
        <time>2019-07-15T11:08:28Z</time>
      </trkpt>
      <trkpt lat="47.84825" lon="-3.53072">
        <ele>7</ele>
        <time>2019-07-15T11:08:29Z</time>
      </trkpt>
      <trkpt lat="47.8482" lon="-3.53072">
        <ele>7</ele>
        <time>2019-07-15T11:08:30Z</time>
      </trkpt>
      <trkpt lat="47.84816" lon="-3.53073">
        <ele>7</ele>
        <time>2019-07-15T11:08:31Z</time>
      </trkpt>
      <trkpt lat="47.84811" lon="-3.53073">
        <ele>7</ele>
        <time>2019-07-15T11:08:32Z</time>
      </trkpt>
      <trkpt lat="47.84806" lon="-3.53074">
        <ele>7</ele>
        <time>2019-07-15T11:08:33Z</time>
      </trkpt>
      <trkpt lat="47.84801" lon="-3.53075">
        <ele>6</ele>
        <time>2019-07-15T11:08:34Z</time>
      </trkpt>
      <trkpt lat="47.84796" lon="-3.53076">
        <ele>6</ele>
        <time>2019-07-15T11:08:35Z</time>
      </trkpt>
      <trkpt lat="47.84792" lon="-3.53077">
        <ele>6</ele>
        <time>2019-07-15T11:08:36Z</time>
      </trkpt>
      <trkpt lat="47.84787" lon="-3.53078">
        <ele>6</ele>
        <time>2019-07-15T11:08:37Z</time>
      </trkpt>
      <trkpt lat="47.84783" lon="-3.53078">
        <ele>6</ele>
        <time>2019-07-15T11:08:38Z</time>
      </trkpt>
      <trkpt lat="47.84778" lon="-3.53079">
        <ele>6</ele>
        <time>2019-07-15T11:08:39Z</time>
      </trkpt>
      <trkpt lat="47.84774" lon="-3.53079">
        <ele>6</ele>
        <time>2019-07-15T11:08:40Z</time>
      </trkpt>
      <trkpt lat="47.84769" lon="-3.5308">
        <ele>6</ele>
        <time>2019-07-15T11:08:41Z</time>
      </trkpt>
      <trkpt lat="47.84765" lon="-3.53081">
        <ele>6</ele>
        <time>2019-07-15T11:08:42Z</time>
      </trkpt>
      <trkpt lat="47.84761" lon="-3.53082">
        <ele>6</ele>
        <time>2019-07-15T11:08:43Z</time>
      </trkpt>
      <trkpt lat="47.84757" lon="-3.53083">
        <ele>6</ele>
        <time>2019-07-15T11:08:44Z</time>
      </trkpt>
      <trkpt lat="47.84753" lon="-3.53083">
        <ele>6</ele>
        <time>2019-07-15T11:08:45Z</time>
      </trkpt>
      <trkpt lat="47.8475" lon="-3.53083">
        <ele>6</ele>
        <time>2019-07-15T11:08:46Z</time>
      </trkpt>
      <trkpt lat="47.84746" lon="-3.53082">
        <ele>6</ele>
        <time>2019-07-15T11:08:47Z</time>
      </trkpt>
      <trkpt lat="47.84743" lon="-3.53079">
        <ele>6</ele>
        <time>2019-07-15T11:08:48Z</time>
      </trkpt>
      <trkpt lat="47.84739" lon="-3.53076">
        <ele>6</ele>
        <time>2019-07-15T11:08:49Z</time>
      </trkpt>
      <trkpt lat="47.84736" lon="-3.53072">
        <ele>6</ele>
        <time>2019-07-15T11:08:50Z</time>
      </trkpt>
      <trkpt lat="47.84733" lon="-3.53067">
        <ele>6</ele>
        <time>2019-07-15T11:08:51Z</time>
      </trkpt>
      <trkpt lat="47.8473" lon="-3.53062">
        <ele>6</ele>
        <time>2019-07-15T11:08:52Z</time>
      </trkpt>
      <trkpt lat="47.84727" lon="-3.53057">
        <ele>6</ele>
        <time>2019-07-15T11:08:53Z</time>
      </trkpt>
      <trkpt lat="47.84724" lon="-3.53053">
        <ele>6</ele>
        <time>2019-07-15T11:08:54Z</time>
      </trkpt>
      <trkpt lat="47.84721" lon="-3.53048">
        <ele>7</ele>
        <time>2019-07-15T11:08:55Z</time>
      </trkpt>
      <trkpt lat="47.84718" lon="-3.53042">
        <ele>7</ele>
        <time>2019-07-15T11:08:56Z</time>
      </trkpt>
      <trkpt lat="47.84716" lon="-3.53036">
        <ele>7</ele>
        <time>2019-07-15T11:08:57Z</time>
      </trkpt>
      <trkpt lat="47.84714" lon="-3.5303">
        <ele>7</ele>
        <time>2019-07-15T11:08:58Z</time>
      </trkpt>
      <trkpt lat="47.84712" lon="-3.53023">
        <ele>8</ele>
        <time>2019-07-15T11:08:59Z</time>
      </trkpt>
      <trkpt lat="47.84711" lon="-3.53017">
        <ele>8</ele>
        <time>2019-07-15T11:09:00Z</time>
      </trkpt>
      <trkpt lat="47.84709" lon="-3.5301">
        <ele>9</ele>
        <time>2019-07-15T11:09:01Z</time>
      </trkpt>
      <trkpt lat="47.84708" lon="-3.53003">
        <ele>9</ele>
        <time>2019-07-15T11:09:02Z</time>
      </trkpt>
      <trkpt lat="47.84706" lon="-3.52996">
        <ele>9</ele>
        <time>2019-07-15T11:09:03Z</time>
      </trkpt>
      <trkpt lat="47.84704" lon="-3.5299">
        <ele>9</ele>
        <time>2019-07-15T11:09:04Z</time>
      </trkpt>
      <trkpt lat="47.84703" lon="-3.52984">
        <ele>9</ele>
        <time>2019-07-15T11:09:05Z</time>
      </trkpt>
      <trkpt lat="47.84702" lon="-3.52977">
        <ele>10</ele>
        <time>2019-07-15T11:09:06Z</time>
      </trkpt>
      <trkpt lat="47.84701" lon="-3.52971">
        <ele>10</ele>
        <time>2019-07-15T11:09:07Z</time>
      </trkpt>
      <trkpt lat="47.847" lon="-3.52965">
        <ele>10</ele>
        <time>2019-07-15T11:09:08Z</time>
      </trkpt>
      <trkpt lat="47.84699" lon="-3.52959">
        <ele>10</ele>
        <time>2019-07-15T11:09:09Z</time>
      </trkpt>
      <trkpt lat="47.84697" lon="-3.52954">
        <ele>10</ele>
        <time>2019-07-15T11:09:10Z</time>
      </trkpt>
      <trkpt lat="47.84695" lon="-3.52948">
        <ele>10</ele>
        <time>2019-07-15T11:09:11Z</time>
      </trkpt>
      <trkpt lat="47.84693" lon="-3.52942">
        <ele>11</ele>
        <time>2019-07-15T11:09:12Z</time>
      </trkpt>
      <trkpt lat="47.8469" lon="-3.52938">
        <ele>11</ele>
        <time>2019-07-15T11:09:13Z</time>
      </trkpt>
      <trkpt lat="47.84687" lon="-3.52934">
        <ele>11</ele>
        <time>2019-07-15T11:09:14Z</time>
      </trkpt>
      <trkpt lat="47.84682" lon="-3.52931">
        <ele>11</ele>
        <time>2019-07-15T11:09:15Z</time>
      </trkpt>
      <trkpt lat="47.84678" lon="-3.52927">
        <ele>11</ele>
        <time>2019-07-15T11:09:16Z</time>
      </trkpt>
      <trkpt lat="47.84673" lon="-3.52924">
        <ele>10</ele>
        <time>2019-07-15T11:09:17Z</time>
      </trkpt>
      <trkpt lat="47.84668" lon="-3.52921">
        <ele>10</ele>
        <time>2019-07-15T11:09:18Z</time>
      </trkpt>
      <trkpt lat="47.84663" lon="-3.52917">
        <ele>10</ele>
        <time>2019-07-15T11:09:19Z</time>
      </trkpt>
      <trkpt lat="47.84658" lon="-3.52913">
        <ele>10</ele>
        <time>2019-07-15T11:09:20Z</time>
      </trkpt>
      <trkpt lat="47.84654" lon="-3.52909">
        <ele>10</ele>
        <time>2019-07-15T11:09:21Z</time>
      </trkpt>
      <trkpt lat="47.8465" lon="-3.52905">
        <ele>10</ele>
        <time>2019-07-15T11:09:22Z</time>
      </trkpt>
      <trkpt lat="47.84646" lon="-3.52902">
        <ele>10</ele>
        <time>2019-07-15T11:09:23Z</time>
      </trkpt>
      <trkpt lat="47.84641" lon="-3.529">
        <ele>9</ele>
        <time>2019-07-15T11:09:24Z</time>
      </trkpt>
      <trkpt lat="47.84637" lon="-3.52898">
        <ele>9</ele>
        <time>2019-07-15T11:09:25Z</time>
      </trkpt>
      <trkpt lat="47.84632" lon="-3.52896">
        <ele>9</ele>
        <time>2019-07-15T11:09:26Z</time>
      </trkpt>
      <trkpt lat="47.84627" lon="-3.52897">
        <ele>9</ele>
        <time>2019-07-15T11:09:27Z</time>
      </trkpt>
      <trkpt lat="47.84622" lon="-3.52898">
        <ele>9</ele>
        <time>2019-07-15T11:09:28Z</time>
      </trkpt>
      <trkpt lat="47.84616" lon="-3.52899">
        <ele>8</ele>
        <time>2019-07-15T11:09:29Z</time>
      </trkpt>
      <trkpt lat="47.8461" lon="-3.529">
        <ele>8</ele>
        <time>2019-07-15T11:09:30Z</time>
      </trkpt>
      <trkpt lat="47.84605" lon="-3.52901">
        <ele>8</ele>
        <time>2019-07-15T11:09:31Z</time>
      </trkpt>
      <trkpt lat="47.84599" lon="-3.52902">
        <ele>8</ele>
        <time>2019-07-15T11:09:32Z</time>
      </trkpt>
      <trkpt lat="47.84593" lon="-3.52904">
        <ele>8</ele>
        <time>2019-07-15T11:09:33Z</time>
      </trkpt>
      <trkpt lat="47.84588" lon="-3.52906">
        <ele>8</ele>
        <time>2019-07-15T11:09:34Z</time>
      </trkpt>
      <trkpt lat="47.84583" lon="-3.52908">
        <ele>8</ele>
        <time>2019-07-15T11:09:35Z</time>
      </trkpt>
      <trkpt lat="47.84579" lon="-3.52911">
        <ele>8</ele>
        <time>2019-07-15T11:09:36Z</time>
      </trkpt>
      <trkpt lat="47.84574" lon="-3.52912">
        <ele>7</ele>
        <time>2019-07-15T11:09:37Z</time>
      </trkpt>
      <trkpt lat="47.8457" lon="-3.52914">
        <ele>7</ele>
        <time>2019-07-15T11:09:38Z</time>
      </trkpt>
      <trkpt lat="47.84566" lon="-3.52915">
        <ele>8</ele>
        <time>2019-07-15T11:09:39Z</time>
      </trkpt>
      <trkpt lat="47.84561" lon="-3.52916">
        <ele>8</ele>
        <time>2019-07-15T11:09:40Z</time>
      </trkpt>
      <trkpt lat="47.84557" lon="-3.52916">
        <ele>8</ele>
        <time>2019-07-15T11:09:41Z</time>
      </trkpt>
      <trkpt lat="47.84552" lon="-3.52916">
        <ele>8</ele>
        <time>2019-07-15T11:09:42Z</time>
      </trkpt>
      <trkpt lat="47.84548" lon="-3.52916">
        <ele>8</ele>
        <time>2019-07-15T11:09:43Z</time>
      </trkpt>
      <trkpt lat="47.84543" lon="-3.52917">
        <ele>8</ele>
        <time>2019-07-15T11:09:44Z</time>
      </trkpt>
      <trkpt lat="47.84539" lon="-3.52917">
        <ele>8</ele>
        <time>2019-07-15T11:09:45Z</time>
      </trkpt>
      <trkpt lat="47.84535" lon="-3.52916">
        <ele>8</ele>
        <time>2019-07-15T11:09:46Z</time>
      </trkpt>
      <trkpt lat="47.84531" lon="-3.52915">
        <ele>8</ele>
        <time>2019-07-15T11:09:47Z</time>
      </trkpt>
      <trkpt lat="47.84526" lon="-3.52915">
        <ele>8</ele>
        <time>2019-07-15T11:09:48Z</time>
      </trkpt>
      <trkpt lat="47.84522" lon="-3.52915">
        <ele>8</ele>
        <time>2019-07-15T11:09:49Z</time>
      </trkpt>
      <trkpt lat="47.84518" lon="-3.52914">
        <ele>8</ele>
        <time>2019-07-15T11:09:50Z</time>
      </trkpt>
      <trkpt lat="47.84514" lon="-3.52914">
        <ele>9</ele>
        <time>2019-07-15T11:09:51Z</time>
      </trkpt>
      <trkpt lat="47.84509" lon="-3.52913">
        <ele>9</ele>
        <time>2019-07-15T11:09:52Z</time>
      </trkpt>
      <trkpt lat="47.84505" lon="-3.52913">
        <ele>9</ele>
        <time>2019-07-15T11:09:53Z</time>
      </trkpt>
      <trkpt lat="47.84501" lon="-3.52913">
        <ele>9</ele>
        <time>2019-07-15T11:09:54Z</time>
      </trkpt>
      <trkpt lat="47.84497" lon="-3.52912">
        <ele>9</ele>
        <time>2019-07-15T11:09:55Z</time>
      </trkpt>
      <trkpt lat="47.84493" lon="-3.52912">
        <ele>9</ele>
        <time>2019-07-15T11:09:56Z</time>
      </trkpt>
      <trkpt lat="47.8449" lon="-3.52909">
        <ele>9</ele>
        <time>2019-07-15T11:09:57Z</time>
      </trkpt>
      <trkpt lat="47.84487" lon="-3.52906">
        <ele>9</ele>
        <time>2019-07-15T11:09:58Z</time>
      </trkpt>
      <trkpt lat="47.84484" lon="-3.52903">
        <ele>9</ele>
        <time>2019-07-15T11:09:59Z</time>
      </trkpt>
      <trkpt lat="47.84482" lon="-3.52899">
        <ele>9</ele>
        <time>2019-07-15T11:10:00Z</time>
      </trkpt>
      <trkpt lat="47.84479" lon="-3.52897">
        <ele>9</ele>
        <time>2019-07-15T11:10:01Z</time>
      </trkpt>
      <trkpt lat="47.84476" lon="-3.52893">
        <ele>10</ele>
        <time>2019-07-15T11:10:02Z</time>
      </trkpt>
      <trkpt lat="47.84473" lon="-3.52891">
        <ele>10</ele>
        <time>2019-07-15T11:10:03Z</time>
      </trkpt>
      <trkpt lat="47.84469" lon="-3.52887">
        <ele>10</ele>
        <time>2019-07-15T11:10:04Z</time>
      </trkpt>
      <trkpt lat="47.84466" lon="-3.52884">
        <ele>10</ele>
        <time>2019-07-15T11:10:05Z</time>
      </trkpt>
      <trkpt lat="47.84462" lon="-3.52882">
        <ele>10</ele>
        <time>2019-07-15T11:10:06Z</time>
      </trkpt>
      <trkpt lat="47.84459" lon="-3.52879">
        <ele>10</ele>
        <time>2019-07-15T11:10:07Z</time>
      </trkpt>
      <trkpt lat="47.84455" lon="-3.52876">
        <ele>11</ele>
        <time>2019-07-15T11:10:08Z</time>
      </trkpt>
      <trkpt lat="47.84452" lon="-3.52874">
        <ele>11</ele>
        <time>2019-07-15T11:10:09Z</time>
      </trkpt>
      <trkpt lat="47.84449" lon="-3.52871">
        <ele>11</ele>
        <time>2019-07-15T11:10:10Z</time>
      </trkpt>
      <trkpt lat="47.84446" lon="-3.52868">
        <ele>11</ele>
        <time>2019-07-15T11:10:11Z</time>
      </trkpt>
      <trkpt lat="47.84443" lon="-3.52865">
        <ele>11</ele>
        <time>2019-07-15T11:10:12Z</time>
      </trkpt>
      <trkpt lat="47.84439" lon="-3.52861">
        <ele>12</ele>
        <time>2019-07-15T11:10:13Z</time>
      </trkpt>
      <trkpt lat="47.84436" lon="-3.52857">
        <ele>12</ele>
        <time>2019-07-15T11:10:14Z</time>
      </trkpt>
      <trkpt lat="47.84433" lon="-3.52853">
        <ele>12</ele>
        <time>2019-07-15T11:10:15Z</time>
      </trkpt>
      <trkpt lat="47.84429" lon="-3.5285">
        <ele>12</ele>
        <time>2019-07-15T11:10:16Z</time>
      </trkpt>
      <trkpt lat="47.84426" lon="-3.52847">
        <ele>12</ele>
        <time>2019-07-15T11:10:17Z</time>
      </trkpt>
      <trkpt lat="47.84421" lon="-3.52846">
        <ele>12</ele>
        <time>2019-07-15T11:10:18Z</time>
      </trkpt>
      <trkpt lat="47.84416" lon="-3.52846">
        <ele>12</ele>
        <time>2019-07-15T11:10:19Z</time>
      </trkpt>
      <trkpt lat="47.84411" lon="-3.52848">
        <ele>12</ele>
        <time>2019-07-15T11:10:20Z</time>
      </trkpt>
      <trkpt lat="47.84407" lon="-3.5285">
        <ele>12</ele>
        <time>2019-07-15T11:10:21Z</time>
      </trkpt>
      <trkpt lat="47.84403" lon="-3.52853">
        <ele>12</ele>
        <time>2019-07-15T11:10:22Z</time>
      </trkpt>
      <trkpt lat="47.84398" lon="-3.52857">
        <ele>12</ele>
        <time>2019-07-15T11:10:23Z</time>
      </trkpt>
      <trkpt lat="47.84394" lon="-3.5286">
        <ele>12</ele>
        <time>2019-07-15T11:10:24Z</time>
      </trkpt>
      <trkpt lat="47.84389" lon="-3.52864">
        <ele>12</ele>
        <time>2019-07-15T11:10:25Z</time>
      </trkpt>
      <trkpt lat="47.84384" lon="-3.52869">
        <ele>12</ele>
        <time>2019-07-15T11:10:26Z</time>
      </trkpt>
      <trkpt lat="47.8438" lon="-3.52874">
        <ele>12</ele>
        <time>2019-07-15T11:10:27Z</time>
      </trkpt>
      <trkpt lat="47.84375" lon="-3.52878">
        <ele>12</ele>
        <time>2019-07-15T11:10:28Z</time>
      </trkpt>
      <trkpt lat="47.84371" lon="-3.52883">
        <ele>12</ele>
        <time>2019-07-15T11:10:29Z</time>
      </trkpt>
      <trkpt lat="47.84367" lon="-3.52889">
        <ele>11</ele>
        <time>2019-07-15T11:10:30Z</time>
      </trkpt>
      <trkpt lat="47.84362" lon="-3.52895">
        <ele>11</ele>
        <time>2019-07-15T11:10:31Z</time>
      </trkpt>
      <trkpt lat="47.84357" lon="-3.52902">
        <ele>11</ele>
        <time>2019-07-15T11:10:32Z</time>
      </trkpt>
      <trkpt lat="47.84353" lon="-3.52909">
        <ele>10</ele>
        <time>2019-07-15T11:10:33Z</time>
      </trkpt>
      <trkpt lat="47.84349" lon="-3.52918">
        <ele>10</ele>
        <time>2019-07-15T11:10:34Z</time>
      </trkpt>
      <trkpt lat="47.84345" lon="-3.52927">
        <ele>10</ele>
        <time>2019-07-15T11:10:35Z</time>
      </trkpt>
      <trkpt lat="47.84343" lon="-3.52935">
        <ele>10</ele>
        <time>2019-07-15T11:10:36Z</time>
      </trkpt>
      <trkpt lat="47.8434" lon="-3.52945">
        <ele>9</ele>
        <time>2019-07-15T11:10:37Z</time>
      </trkpt>
      <trkpt lat="47.84338" lon="-3.52954">
        <ele>9</ele>
        <time>2019-07-15T11:10:38Z</time>
      </trkpt>
      <trkpt lat="47.84337" lon="-3.52963">
        <ele>9</ele>
        <time>2019-07-15T11:10:39Z</time>
      </trkpt>
      <trkpt lat="47.84336" lon="-3.52971">
        <ele>9</ele>
        <time>2019-07-15T11:10:40Z</time>
      </trkpt>
      <trkpt lat="47.84336" lon="-3.52978">
        <ele>9</ele>
        <time>2019-07-15T11:10:41Z</time>
      </trkpt>
      <trkpt lat="47.84337" lon="-3.52983">
        <ele>9</ele>
        <time>2019-07-15T11:10:42Z</time>
      </trkpt>
      <trkpt lat="47.84339" lon="-3.52989">
        <ele>9</ele>
        <time>2019-07-15T11:10:43Z</time>
      </trkpt>
      <trkpt lat="47.8434" lon="-3.52993">
        <ele>9</ele>
        <time>2019-07-15T11:10:44Z</time>
      </trkpt>
      <trkpt lat="47.84343" lon="-3.52997">
        <ele>9</ele>
        <time>2019-07-15T11:10:45Z</time>
      </trkpt>
      <trkpt lat="47.84346" lon="-3.53002">
        <ele>9</ele>
        <time>2019-07-15T11:10:46Z</time>
      </trkpt>
      <trkpt lat="47.84348" lon="-3.53005">
        <ele>8</ele>
        <time>2019-07-15T11:10:47Z</time>
      </trkpt>
      <trkpt lat="47.84352" lon="-3.53008">
        <ele>8</ele>
        <time>2019-07-15T11:10:48Z</time>
      </trkpt>
      <trkpt lat="47.84354" lon="-3.53011">
        <ele>8</ele>
        <time>2019-07-15T11:10:49Z</time>
      </trkpt>
      <trkpt lat="47.84356" lon="-3.53014">
        <ele>7</ele>
        <time>2019-07-15T11:10:50Z</time>
      </trkpt>
      <trkpt lat="47.84357" lon="-3.53017">
        <ele>7</ele>
        <time>2019-07-15T11:10:51Z</time>
      </trkpt>
      <trkpt lat="47.84358" lon="-3.5302">
        <ele>7</ele>
        <time>2019-07-15T11:10:52Z</time>
      </trkpt>
      <trkpt lat="47.8436" lon="-3.53023">
        <ele>7</ele>
        <time>2019-07-15T11:10:53Z</time>
      </trkpt>
      <trkpt lat="47.84362" lon="-3.53026">
        <ele>6</ele>
        <time>2019-07-15T11:10:54Z</time>
      </trkpt>
      <trkpt lat="47.84364" lon="-3.5303">
        <ele>6</ele>
        <time>2019-07-15T11:10:55Z</time>
      </trkpt>
      <trkpt lat="47.84367" lon="-3.53033">
        <ele>6</ele>
        <time>2019-07-15T11:10:56Z</time>
      </trkpt>
      <trkpt lat="47.8437" lon="-3.53037">
        <ele>6</ele>
        <time>2019-07-15T11:10:57Z</time>
      </trkpt>
      <trkpt lat="47.84371" lon="-3.53042">
        <ele>6</ele>
        <time>2019-07-15T11:10:58Z</time>
      </trkpt>
      <trkpt lat="47.84374" lon="-3.53046">
        <ele>5</ele>
        <time>2019-07-15T11:10:59Z</time>
      </trkpt>
      <trkpt lat="47.84377" lon="-3.5305">
        <ele>5</ele>
        <time>2019-07-15T11:11:00Z</time>
      </trkpt>
      <trkpt lat="47.8438" lon="-3.53056">
        <ele>5</ele>
        <time>2019-07-15T11:11:01Z</time>
      </trkpt>
      <trkpt lat="47.84384" lon="-3.53061">
        <ele>5</ele>
        <time>2019-07-15T11:11:02Z</time>
      </trkpt>
      <trkpt lat="47.84387" lon="-3.53067">
        <ele>5</ele>
        <time>2019-07-15T11:11:03Z</time>
      </trkpt>
      <trkpt lat="47.84391" lon="-3.53073">
        <ele>5</ele>
        <time>2019-07-15T11:11:04Z</time>
      </trkpt>
      <trkpt lat="47.84395" lon="-3.53079">
        <ele>5</ele>
        <time>2019-07-15T11:11:05Z</time>
      </trkpt>
      <trkpt lat="47.84399" lon="-3.53085">
        <ele>6</ele>
        <time>2019-07-15T11:11:06Z</time>
      </trkpt>
      <trkpt lat="47.84403" lon="-3.53092">
        <ele>6</ele>
        <time>2019-07-15T11:11:07Z</time>
      </trkpt>
      <trkpt lat="47.84407" lon="-3.53097">
        <ele>6</ele>
        <time>2019-07-15T11:11:08Z</time>
      </trkpt>
      <trkpt lat="47.84411" lon="-3.53101">
        <ele>6</ele>
        <time>2019-07-15T11:11:09Z</time>
      </trkpt>
      <trkpt lat="47.84413" lon="-3.53104">
        <ele>6</ele>
        <time>2019-07-15T11:11:10Z</time>
      </trkpt>
      <trkpt lat="47.84416" lon="-3.53108">
        <ele>6</ele>
        <time>2019-07-15T11:11:11Z</time>
      </trkpt>
      <trkpt lat="47.8442" lon="-3.53113">
        <ele>6</ele>
        <time>2019-07-15T11:11:12Z</time>
      </trkpt>
      <trkpt lat="47.84423" lon="-3.53116">
        <ele>6</ele>
        <time>2019-07-15T11:11:13Z</time>
      </trkpt>
      <trkpt lat="47.84426" lon="-3.53119">
        <ele>6</ele>
        <time>2019-07-15T11:11:14Z</time>
      </trkpt>
      <trkpt lat="47.84429" lon="-3.53122">
        <ele>6</ele>
        <time>2019-07-15T11:11:15Z</time>
      </trkpt>
      <trkpt lat="47.84433" lon="-3.53126">
        <ele>6</ele>
        <time>2019-07-15T11:11:16Z</time>
      </trkpt>
      <trkpt lat="47.84436" lon="-3.5313">
        <ele>6</ele>
        <time>2019-07-15T11:11:17Z</time>
      </trkpt>
      <trkpt lat="47.84439" lon="-3.53134">
        <ele>6</ele>
        <time>2019-07-15T11:11:18Z</time>
      </trkpt>
      <trkpt lat="47.84441" lon="-3.53139">
        <ele>6</ele>
        <time>2019-07-15T11:11:19Z</time>
      </trkpt>
      <trkpt lat="47.84442" lon="-3.53145">
        <ele>7</ele>
        <time>2019-07-15T11:11:20Z</time>
      </trkpt>
      <trkpt lat="47.84442" lon="-3.53151">
        <ele>7</ele>
        <time>2019-07-15T11:11:21Z</time>
      </trkpt>
      <trkpt lat="47.84441" lon="-3.53157">
        <ele>7</ele>
        <time>2019-07-15T11:11:22Z</time>
      </trkpt>
      <trkpt lat="47.84439" lon="-3.53164">
        <ele>7</ele>
        <time>2019-07-15T11:11:23Z</time>
      </trkpt>
      <trkpt lat="47.84436" lon="-3.53171">
        <ele>7</ele>
        <time>2019-07-15T11:11:24Z</time>
      </trkpt>
      <trkpt lat="47.84433" lon="-3.53177">
        <ele>7</ele>
        <time>2019-07-15T11:11:25Z</time>
      </trkpt>
      <trkpt lat="47.8443" lon="-3.53183">
        <ele>8</ele>
        <time>2019-07-15T11:11:26Z</time>
      </trkpt>
      <trkpt lat="47.84428" lon="-3.5319">
        <ele>8</ele>
        <time>2019-07-15T11:11:27Z</time>
      </trkpt>
      <trkpt lat="47.84425" lon="-3.53197">
        <ele>8</ele>
        <time>2019-07-15T11:11:28Z</time>
      </trkpt>
      <trkpt lat="47.84422" lon="-3.53202">
        <ele>8</ele>
        <time>2019-07-15T11:11:29Z</time>
      </trkpt>
      <trkpt lat="47.84419" lon="-3.53206">
        <ele>8</ele>
        <time>2019-07-15T11:11:30Z</time>
      </trkpt>
      <trkpt lat="47.84416" lon="-3.53211">
        <ele>8</ele>
        <time>2019-07-15T11:11:31Z</time>
      </trkpt>
      <trkpt lat="47.84412" lon="-3.53216">
        <ele>8</ele>
        <time>2019-07-15T11:11:32Z</time>
      </trkpt>
      <trkpt lat="47.84407" lon="-3.5322">
        <ele>8</ele>
        <time>2019-07-15T11:11:33Z</time>
      </trkpt>
      <trkpt lat="47.84402" lon="-3.53224">
        <ele>8</ele>
        <time>2019-07-15T11:11:34Z</time>
      </trkpt>
      <trkpt lat="47.84397" lon="-3.53227">
        <ele>9</ele>
        <time>2019-07-15T11:11:35Z</time>
      </trkpt>
      <trkpt lat="47.84393" lon="-3.5323">
        <ele>9</ele>
        <time>2019-07-15T11:11:36Z</time>
      </trkpt>
      <trkpt lat="47.84389" lon="-3.53233">
        <ele>9</ele>
        <time>2019-07-15T11:11:37Z</time>
      </trkpt>
      <trkpt lat="47.84385" lon="-3.53236">
        <ele>9</ele>
        <time>2019-07-15T11:11:38Z</time>
      </trkpt>
      <trkpt lat="47.84381" lon="-3.53237">
        <ele>9</ele>
        <time>2019-07-15T11:11:39Z</time>
      </trkpt>
      <trkpt lat="47.84377" lon="-3.5324">
        <ele>9</ele>
        <time>2019-07-15T11:11:40Z</time>
      </trkpt>
      <trkpt lat="47.84373" lon="-3.53242">
        <ele>9</ele>
        <time>2019-07-15T11:11:41Z</time>
      </trkpt>
      <trkpt lat="47.84369" lon="-3.53243">
        <ele>9</ele>
        <time>2019-07-15T11:11:42Z</time>
      </trkpt>
      <trkpt lat="47.84364" lon="-3.53243">
        <ele>9</ele>
        <time>2019-07-15T11:11:43Z</time>
      </trkpt>
      <trkpt lat="47.8436" lon="-3.53244">
        <ele>9</ele>
        <time>2019-07-15T11:11:44Z</time>
      </trkpt>
      <trkpt lat="47.84356" lon="-3.53246">
        <ele>9</ele>
        <time>2019-07-15T11:11:45Z</time>
      </trkpt>
      <trkpt lat="47.84352" lon="-3.53247">
        <ele>10</ele>
        <time>2019-07-15T11:11:46Z</time>
      </trkpt>
      <trkpt lat="47.84348" lon="-3.53249">
        <ele>10</ele>
        <time>2019-07-15T11:11:47Z</time>
      </trkpt>
      <trkpt lat="47.84344" lon="-3.53251">
        <ele>10</ele>
        <time>2019-07-15T11:11:48Z</time>
      </trkpt>
      <trkpt lat="47.8434" lon="-3.53253">
        <ele>10</ele>
        <time>2019-07-15T11:11:49Z</time>
      </trkpt>
      <trkpt lat="47.84335" lon="-3.53255">
        <ele>10</ele>
        <time>2019-07-15T11:11:50Z</time>
      </trkpt>
      <trkpt lat="47.84331" lon="-3.53257">
        <ele>10</ele>
        <time>2019-07-15T11:11:51Z</time>
      </trkpt>
      <trkpt lat="47.84327" lon="-3.5326">
        <ele>10</ele>
        <time>2019-07-15T11:11:52Z</time>
      </trkpt>
      <trkpt lat="47.84324" lon="-3.53263">
        <ele>10</ele>
        <time>2019-07-15T11:11:53Z</time>
      </trkpt>
      <trkpt lat="47.84321" lon="-3.53266">
        <ele>10</ele>
        <time>2019-07-15T11:11:54Z</time>
      </trkpt>
      <trkpt lat="47.84318" lon="-3.53269">
        <ele>11</ele>
        <time>2019-07-15T11:11:55Z</time>
      </trkpt>
      <trkpt lat="47.84315" lon="-3.53273">
        <ele>11</ele>
        <time>2019-07-15T11:11:56Z</time>
      </trkpt>
      <trkpt lat="47.84312" lon="-3.53276">
        <ele>11</ele>
        <time>2019-07-15T11:11:57Z</time>
      </trkpt>
      <trkpt lat="47.84309" lon="-3.53279">
        <ele>11</ele>
        <time>2019-07-15T11:11:58Z</time>
      </trkpt>
      <trkpt lat="47.84306" lon="-3.53283">
        <ele>11</ele>
        <time>2019-07-15T11:11:59Z</time>
      </trkpt>
      <trkpt lat="47.84304" lon="-3.53286">
        <ele>11</ele>
        <time>2019-07-15T11:12:00Z</time>
      </trkpt>
      <trkpt lat="47.84301" lon="-3.5329">
        <ele>11</ele>
        <time>2019-07-15T11:12:01Z</time>
      </trkpt>
      <trkpt lat="47.84298" lon="-3.53293">
        <ele>12</ele>
        <time>2019-07-15T11:12:02Z</time>
      </trkpt>
      <trkpt lat="47.84295" lon="-3.53296">
        <ele>12</ele>
        <time>2019-07-15T11:12:03Z</time>
      </trkpt>
      <trkpt lat="47.84292" lon="-3.53299">
        <ele>12</ele>
        <time>2019-07-15T11:12:04Z</time>
      </trkpt>
      <trkpt lat="47.8429" lon="-3.53304">
        <ele>12</ele>
        <time>2019-07-15T11:12:05Z</time>
      </trkpt>
      <trkpt lat="47.84288" lon="-3.53308">
        <ele>12</ele>
        <time>2019-07-15T11:12:06Z</time>
      </trkpt>
      <trkpt lat="47.84286" lon="-3.53311">
        <ele>12</ele>
        <time>2019-07-15T11:12:07Z</time>
      </trkpt>
      <trkpt lat="47.84283" lon="-3.53315">
        <ele>12</ele>
        <time>2019-07-15T11:12:08Z</time>
      </trkpt>
      <trkpt lat="47.8428" lon="-3.53318">
        <ele>13</ele>
        <time>2019-07-15T11:12:09Z</time>
      </trkpt>
      <trkpt lat="47.84278" lon="-3.53322">
        <ele>13</ele>
        <time>2019-07-15T11:12:10Z</time>
      </trkpt>
      <trkpt lat="47.84275" lon="-3.53325">
        <ele>13</ele>
        <time>2019-07-15T11:12:11Z</time>
      </trkpt>
      <trkpt lat="47.84273" lon="-3.53329">
        <ele>13</ele>
        <time>2019-07-15T11:12:12Z</time>
      </trkpt>
      <trkpt lat="47.8427" lon="-3.53334">
        <ele>13</ele>
        <time>2019-07-15T11:12:13Z</time>
      </trkpt>
      <trkpt lat="47.84267" lon="-3.53337">
        <ele>13</ele>
        <time>2019-07-15T11:12:14Z</time>
      </trkpt>
      <trkpt lat="47.84265" lon="-3.53342">
        <ele>13</ele>
        <time>2019-07-15T11:12:15Z</time>
      </trkpt>
      <trkpt lat="47.84262" lon="-3.53346">
        <ele>13</ele>
        <time>2019-07-15T11:12:16Z</time>
      </trkpt>
      <trkpt lat="47.84261" lon="-3.5335">
        <ele>13</ele>
        <time>2019-07-15T11:12:17Z</time>
      </trkpt>
      <trkpt lat="47.84258" lon="-3.53355">
        <ele>14</ele>
        <time>2019-07-15T11:12:18Z</time>
      </trkpt>
      <trkpt lat="47.84255" lon="-3.53359">
        <ele>14</ele>
        <time>2019-07-15T11:12:19Z</time>
      </trkpt>
      <trkpt lat="47.84254" lon="-3.53363">
        <ele>14</ele>
        <time>2019-07-15T11:12:20Z</time>
      </trkpt>
      <trkpt lat="47.84252" lon="-3.53366">
        <ele>14</ele>
        <time>2019-07-15T11:12:21Z</time>
      </trkpt>
      <trkpt lat="47.84251" lon="-3.5337">
        <ele>14</ele>
        <time>2019-07-15T11:12:22Z</time>
      </trkpt>
      <trkpt lat="47.84249" lon="-3.53375">
        <ele>14</ele>
        <time>2019-07-15T11:12:23Z</time>
      </trkpt>
      <trkpt lat="47.84246" lon="-3.53378">
        <ele>14</ele>
        <time>2019-07-15T11:12:24Z</time>
      </trkpt>
      <trkpt lat="47.84244" lon="-3.53381">
        <ele>14</ele>
        <time>2019-07-15T11:12:25Z</time>
      </trkpt>
      <trkpt lat="47.84242" lon="-3.53384">
        <ele>14</ele>
        <time>2019-07-15T11:12:26Z</time>
      </trkpt>
      <trkpt lat="47.8424" lon="-3.53387">
        <ele>14</ele>
        <time>2019-07-15T11:12:27Z</time>
      </trkpt>
      <trkpt lat="47.84238" lon="-3.5339">
        <ele>15</ele>
        <time>2019-07-15T11:12:28Z</time>
      </trkpt>
      <trkpt lat="47.84235" lon="-3.53394">
        <ele>15</ele>
        <time>2019-07-15T11:12:29Z</time>
      </trkpt>
      <trkpt lat="47.84233" lon="-3.53397">
        <ele>15</ele>
        <time>2019-07-15T11:12:30Z</time>
      </trkpt>
      <trkpt lat="47.84231" lon="-3.534">
        <ele>15</ele>
        <time>2019-07-15T11:12:31Z</time>
      </trkpt>
      <trkpt lat="47.84228" lon="-3.53404">
        <ele>15</ele>
        <time>2019-07-15T11:12:32Z</time>
      </trkpt>
      <trkpt lat="47.84226" lon="-3.53407">
        <ele>15</ele>
        <time>2019-07-15T11:12:33Z</time>
      </trkpt>
      <trkpt lat="47.84224" lon="-3.53411">
        <ele>15</ele>
        <time>2019-07-15T11:12:34Z</time>
      </trkpt>
      <trkpt lat="47.84222" lon="-3.53414">
        <ele>15</ele>
        <time>2019-07-15T11:12:35Z</time>
      </trkpt>
      <trkpt lat="47.8422" lon="-3.53417">
        <ele>16</ele>
        <time>2019-07-15T11:12:36Z</time>
      </trkpt>
      <trkpt lat="47.84218" lon="-3.5342">
        <ele>16</ele>
        <time>2019-07-15T11:12:37Z</time>
      </trkpt>
      <trkpt lat="47.84215" lon="-3.53423">
        <ele>16</ele>
        <time>2019-07-15T11:12:38Z</time>
      </trkpt>
      <trkpt lat="47.84213" lon="-3.53426">
        <ele>16</ele>
        <time>2019-07-15T11:12:39Z</time>
      </trkpt>
      <trkpt lat="47.8421" lon="-3.53428">
        <ele>16</ele>
        <time>2019-07-15T11:12:40Z</time>
      </trkpt>
      <trkpt lat="47.84208" lon="-3.53431">
        <ele>17</ele>
        <time>2019-07-15T11:12:41Z</time>
      </trkpt>
      <trkpt lat="47.84206" lon="-3.53433">
        <ele>17</ele>
        <time>2019-07-15T11:12:42Z</time>
      </trkpt>
      <trkpt lat="47.84203" lon="-3.53436">
        <ele>17</ele>
        <time>2019-07-15T11:12:43Z</time>
      </trkpt>
      <trkpt lat="47.84201" lon="-3.53439">
        <ele>17</ele>
        <time>2019-07-15T11:12:44Z</time>
      </trkpt>
      <trkpt lat="47.84198" lon="-3.53441">
        <ele>18</ele>
        <time>2019-07-15T11:12:45Z</time>
      </trkpt>
      <trkpt lat="47.84195" lon="-3.53443">
        <ele>18</ele>
        <time>2019-07-15T11:12:46Z</time>
      </trkpt>
      <trkpt lat="47.84192" lon="-3.53445">
        <ele>18</ele>
        <time>2019-07-15T11:12:47Z</time>
      </trkpt>
      <trkpt lat="47.84189" lon="-3.53447">
        <ele>18</ele>
        <time>2019-07-15T11:12:48Z</time>
      </trkpt>
      <trkpt lat="47.84187" lon="-3.53449">
        <ele>18</ele>
        <time>2019-07-15T11:12:49Z</time>
      </trkpt>
      <trkpt lat="47.84183" lon="-3.5345">
        <ele>19</ele>
        <time>2019-07-15T11:12:50Z</time>
      </trkpt>
      <trkpt lat="47.8418" lon="-3.53452">
        <ele>19</ele>
        <time>2019-07-15T11:12:51Z</time>
      </trkpt>
      <trkpt lat="47.84176" lon="-3.53453">
        <ele>19</ele>
        <time>2019-07-15T11:12:52Z</time>
      </trkpt>
      <trkpt lat="47.84173" lon="-3.53454">
        <ele>19</ele>
        <time>2019-07-15T11:12:53Z</time>
      </trkpt>
      <trkpt lat="47.8417" lon="-3.53455">
        <ele>19</ele>
        <time>2019-07-15T11:12:54Z</time>
      </trkpt>
      <trkpt lat="47.84166" lon="-3.53456">
        <ele>19</ele>
        <time>2019-07-15T11:12:55Z</time>
      </trkpt>
      <trkpt lat="47.84163" lon="-3.53456">
        <ele>19</ele>
        <time>2019-07-15T11:12:56Z</time>
      </trkpt>
      <trkpt lat="47.8416" lon="-3.53456">
        <ele>20</ele>
        <time>2019-07-15T11:12:57Z</time>
      </trkpt>
      <trkpt lat="47.84156" lon="-3.53456">
        <ele>20</ele>
        <time>2019-07-15T11:12:58Z</time>
      </trkpt>
      <trkpt lat="47.84152" lon="-3.53455">
        <ele>20</ele>
        <time>2019-07-15T11:12:59Z</time>
      </trkpt>
      <trkpt lat="47.84149" lon="-3.53455">
        <ele>20</ele>
        <time>2019-07-15T11:13:00Z</time>
      </trkpt>
      <trkpt lat="47.84146" lon="-3.53455">
        <ele>20</ele>
        <time>2019-07-15T11:13:01Z</time>
      </trkpt>
      <trkpt lat="47.84143" lon="-3.53454">
        <ele>20</ele>
        <time>2019-07-15T11:13:02Z</time>
      </trkpt>
      <trkpt lat="47.8414" lon="-3.53454">
        <ele>20</ele>
        <time>2019-07-15T11:13:03Z</time>
      </trkpt>
      <trkpt lat="47.84137" lon="-3.53454">
        <ele>20</ele>
        <time>2019-07-15T11:13:04Z</time>
      </trkpt>
      <trkpt lat="47.84134" lon="-3.53454">
        <ele>20</ele>
        <time>2019-07-15T11:13:05Z</time>
      </trkpt>
      <trkpt lat="47.8413" lon="-3.53454">
        <ele>21</ele>
        <time>2019-07-15T11:13:06Z</time>
      </trkpt>
      <trkpt lat="47.84127" lon="-3.53454">
        <ele>21</ele>
        <time>2019-07-15T11:13:07Z</time>
      </trkpt>
      <trkpt lat="47.84124" lon="-3.53454">
        <ele>21</ele>
        <time>2019-07-15T11:13:08Z</time>
      </trkpt>
      <trkpt lat="47.8412" lon="-3.53453">
        <ele>21</ele>
        <time>2019-07-15T11:13:09Z</time>
      </trkpt>
      <trkpt lat="47.84116" lon="-3.53453">
        <ele>21</ele>
        <time>2019-07-15T11:13:10Z</time>
      </trkpt>
      <trkpt lat="47.84112" lon="-3.53452">
        <ele>21</ele>
        <time>2019-07-15T11:13:11Z</time>
      </trkpt>
      <trkpt lat="47.84107" lon="-3.53453">
        <ele>21</ele>
        <time>2019-07-15T11:13:12Z</time>
      </trkpt>
      <trkpt lat="47.84103" lon="-3.53457">
        <ele>21</ele>
        <time>2019-07-15T11:13:13Z</time>
      </trkpt>
      <trkpt lat="47.841" lon="-3.53462">
        <ele>21</ele>
        <time>2019-07-15T11:13:14Z</time>
      </trkpt>
      <trkpt lat="47.84096" lon="-3.53469">
        <ele>21</ele>
        <time>2019-07-15T11:13:15Z</time>
      </trkpt>
      <trkpt lat="47.84092" lon="-3.53476">
        <ele>21</ele>
        <time>2019-07-15T11:13:16Z</time>
      </trkpt>
      <trkpt lat="47.84088" lon="-3.53483">
        <ele>21</ele>
        <time>2019-07-15T11:13:17Z</time>
      </trkpt>
      <trkpt lat="47.84084" lon="-3.5349">
        <ele>21</ele>
        <time>2019-07-15T11:13:18Z</time>
      </trkpt>
      <trkpt lat="47.84079" lon="-3.53498">
        <ele>22</ele>
        <time>2019-07-15T11:13:19Z</time>
      </trkpt>
      <trkpt lat="47.84074" lon="-3.53505">
        <ele>22</ele>
        <time>2019-07-15T11:13:20Z</time>
      </trkpt>
      <trkpt lat="47.84069" lon="-3.53511">
        <ele>22</ele>
        <time>2019-07-15T11:13:21Z</time>
      </trkpt>
      <trkpt lat="47.84063" lon="-3.53516">
        <ele>22</ele>
        <time>2019-07-15T11:13:22Z</time>
      </trkpt>
      <trkpt lat="47.84056" lon="-3.53521">
        <ele>22</ele>
        <time>2019-07-15T11:13:23Z</time>
      </trkpt>
      <trkpt lat="47.84048" lon="-3.53525">
        <ele>22</ele>
        <time>2019-07-15T11:13:24Z</time>
      </trkpt>
      <trkpt lat="47.8404" lon="-3.53529">
        <ele>22</ele>
        <time>2019-07-15T11:13:25Z</time>
      </trkpt>
      <trkpt lat="47.84031" lon="-3.53533">
        <ele>22</ele>
        <time>2019-07-15T11:13:26Z</time>
      </trkpt>
      <trkpt lat="47.84022" lon="-3.53538">
        <ele>22</ele>
        <time>2019-07-15T11:13:27Z</time>
      </trkpt>
      <trkpt lat="47.84013" lon="-3.53542">
        <ele>22</ele>
        <time>2019-07-15T11:13:28Z</time>
      </trkpt>
      <trkpt lat="47.84005" lon="-3.53547">
        <ele>22</ele>
        <time>2019-07-15T11:13:29Z</time>
      </trkpt>
      <trkpt lat="47.83999" lon="-3.53553">
        <ele>22</ele>
        <time>2019-07-15T11:13:30Z</time>
      </trkpt>
      <trkpt lat="47.83992" lon="-3.53559">
        <ele>22</ele>
        <time>2019-07-15T11:13:31Z</time>
      </trkpt>
      <trkpt lat="47.83986" lon="-3.53568">
        <ele>22</ele>
        <time>2019-07-15T11:13:32Z</time>
      </trkpt>
      <trkpt lat="47.83981" lon="-3.53577">
        <ele>22</ele>
        <time>2019-07-15T11:13:33Z</time>
      </trkpt>
      <trkpt lat="47.83976" lon="-3.53586">
        <ele>22</ele>
        <time>2019-07-15T11:13:34Z</time>
      </trkpt>
      <trkpt lat="47.83972" lon="-3.53595">
        <ele>22</ele>
        <time>2019-07-15T11:13:35Z</time>
      </trkpt>
      <trkpt lat="47.83968" lon="-3.53605">
        <ele>22</ele>
        <time>2019-07-15T11:13:36Z</time>
      </trkpt>
      <trkpt lat="47.83965" lon="-3.53615">
        <ele>22</ele>
        <time>2019-07-15T11:13:37Z</time>
      </trkpt>
      <trkpt lat="47.83963" lon="-3.53625">
        <ele>22</ele>
        <time>2019-07-15T11:13:38Z</time>
      </trkpt>
      <trkpt lat="47.83964" lon="-3.53634">
        <ele>22</ele>
        <time>2019-07-15T11:13:39Z</time>
      </trkpt>
      <trkpt lat="47.83964" lon="-3.53643">
        <ele>22</ele>
        <time>2019-07-15T11:13:40Z</time>
      </trkpt>
      <trkpt lat="47.83963" lon="-3.53651">
        <ele>22</ele>
        <time>2019-07-15T11:13:41Z</time>
      </trkpt>
      <trkpt lat="47.83961" lon="-3.53658">
        <ele>22</ele>
        <time>2019-07-15T11:13:42Z</time>
      </trkpt>
      <trkpt lat="47.83959" lon="-3.53663">
        <ele>21</ele>
        <time>2019-07-15T11:13:43Z</time>
      </trkpt>
      <trkpt lat="47.83955" lon="-3.53667">
        <ele>21</ele>
        <time>2019-07-15T11:13:44Z</time>
      </trkpt>
      <trkpt lat="47.8395" lon="-3.53672">
        <ele>21</ele>
        <time>2019-07-15T11:13:45Z</time>
      </trkpt>
      <trkpt lat="47.83944" lon="-3.53676">
        <ele>21</ele>
        <time>2019-07-15T11:13:46Z</time>
      </trkpt>
      <trkpt lat="47.83938" lon="-3.5368">
        <ele>21</ele>
        <time>2019-07-15T11:13:47Z</time>
      </trkpt>
      <trkpt lat="47.83932" lon="-3.53684">
        <ele>21</ele>
        <time>2019-07-15T11:13:48Z</time>
      </trkpt>
      <trkpt lat="47.83926" lon="-3.53688">
        <ele>21</ele>
        <time>2019-07-15T11:13:49Z</time>
      </trkpt>
      <trkpt lat="47.8392" lon="-3.53692">
        <ele>20</ele>
        <time>2019-07-15T11:13:50Z</time>
      </trkpt>
      <trkpt lat="47.83915" lon="-3.53696">
        <ele>20</ele>
        <time>2019-07-15T11:13:51Z</time>
      </trkpt>
      <trkpt lat="47.83909" lon="-3.53702">
        <ele>20</ele>
        <time>2019-07-15T11:13:52Z</time>
      </trkpt>
      <trkpt lat="47.83903" lon="-3.53707">
        <ele>20</ele>
        <time>2019-07-15T11:13:53Z</time>
      </trkpt>
      <trkpt lat="47.83898" lon="-3.53713">
        <ele>20</ele>
        <time>2019-07-15T11:13:54Z</time>
      </trkpt>
      <trkpt lat="47.83893" lon="-3.53719">
        <ele>20</ele>
        <time>2019-07-15T11:13:55Z</time>
      </trkpt>
      <trkpt lat="47.83887" lon="-3.53726">
        <ele>19</ele>
        <time>2019-07-15T11:13:56Z</time>
      </trkpt>
      <trkpt lat="47.83882" lon="-3.53732">
        <ele>19</ele>
        <time>2019-07-15T11:13:57Z</time>
      </trkpt>
      <trkpt lat="47.83876" lon="-3.53739">
        <ele>19</ele>
        <time>2019-07-15T11:13:58Z</time>
      </trkpt>
      <trkpt lat="47.83871" lon="-3.53745">
        <ele>19</ele>
        <time>2019-07-15T11:13:59Z</time>
      </trkpt>
      <trkpt lat="47.83866" lon="-3.53752">
        <ele>19</ele>
        <time>2019-07-15T11:14:00Z</time>
      </trkpt>
      <trkpt lat="47.83862" lon="-3.53758">
        <ele>19</ele>
        <time>2019-07-15T11:14:01Z</time>
      </trkpt>
      <trkpt lat="47.83858" lon="-3.53763">
        <ele>19</ele>
        <time>2019-07-15T11:14:02Z</time>
      </trkpt>
      <trkpt lat="47.83854" lon="-3.53769">
        <ele>19</ele>
        <time>2019-07-15T11:14:03Z</time>
      </trkpt>
      <trkpt lat="47.8385" lon="-3.53776">
        <ele>19</ele>
        <time>2019-07-15T11:14:04Z</time>
      </trkpt>
      <trkpt lat="47.83846" lon="-3.53781">
        <ele>18</ele>
        <time>2019-07-15T11:14:05Z</time>
      </trkpt>
      <trkpt lat="47.83844" lon="-3.53786">
        <ele>18</ele>
        <time>2019-07-15T11:14:06Z</time>
      </trkpt>
      <trkpt lat="47.83841" lon="-3.53793">
        <ele>18</ele>
        <time>2019-07-15T11:14:07Z</time>
      </trkpt>
      <trkpt lat="47.83838" lon="-3.538">
        <ele>18</ele>
        <time>2019-07-15T11:14:08Z</time>
      </trkpt>
      <trkpt lat="47.83835" lon="-3.53808">
        <ele>18</ele>
        <time>2019-07-15T11:14:09Z</time>
      </trkpt>
      <trkpt lat="47.83832" lon="-3.53816">
        <ele>19</ele>
        <time>2019-07-15T11:14:10Z</time>
      </trkpt>
      <trkpt lat="47.8383" lon="-3.53824">
        <ele>19</ele>
        <time>2019-07-15T11:14:11Z</time>
      </trkpt>
      <trkpt lat="47.83827" lon="-3.53833">
        <ele>19</ele>
        <time>2019-07-15T11:14:12Z</time>
      </trkpt>
      <trkpt lat="47.83825" lon="-3.5384">
        <ele>19</ele>
        <time>2019-07-15T11:14:13Z</time>
      </trkpt>
      <trkpt lat="47.83823" lon="-3.53848">
        <ele>19</ele>
        <time>2019-07-15T11:14:14Z</time>
      </trkpt>
      <trkpt lat="47.83822" lon="-3.53856">
        <ele>19</ele>
        <time>2019-07-15T11:14:15Z</time>
      </trkpt>
      <trkpt lat="47.83819" lon="-3.53864">
        <ele>20</ele>
        <time>2019-07-15T11:14:16Z</time>
      </trkpt>
      <trkpt lat="47.83817" lon="-3.53871">
        <ele>20</ele>
        <time>2019-07-15T11:14:17Z</time>
      </trkpt>
      <trkpt lat="47.83816" lon="-3.53878">
        <ele>20</ele>
        <time>2019-07-15T11:14:18Z</time>
      </trkpt>
      <trkpt lat="47.83815" lon="-3.53885">
        <ele>20</ele>
        <time>2019-07-15T11:14:19Z</time>
      </trkpt>
      <trkpt lat="47.83813" lon="-3.53893">
        <ele>20</ele>
        <time>2019-07-15T11:14:20Z</time>
      </trkpt>
      <trkpt lat="47.83811" lon="-3.53899">
        <ele>20</ele>
        <time>2019-07-15T11:14:21Z</time>
      </trkpt>
      <trkpt lat="47.83809" lon="-3.53906">
        <ele>20</ele>
        <time>2019-07-15T11:14:22Z</time>
      </trkpt>
      <trkpt lat="47.83808" lon="-3.53911">
        <ele>20</ele>
        <time>2019-07-15T11:14:23Z</time>
      </trkpt>
      <trkpt lat="47.83806" lon="-3.53916">
        <ele>21</ele>
        <time>2019-07-15T11:14:24Z</time>
      </trkpt>
      <trkpt lat="47.83804" lon="-3.53919">
        <ele>21</ele>
        <time>2019-07-15T11:14:25Z</time>
      </trkpt>
      <trkpt lat="47.83803" lon="-3.5392">
        <ele>21</ele>
        <time>2019-07-15T11:14:26Z</time>
      </trkpt>
      <trkpt lat="47.83802" lon="-3.53919">
        <ele>21</ele>
        <time>2019-07-15T11:14:27Z</time>
      </trkpt>
      <trkpt lat="47.838" lon="-3.53916">
        <ele>21</ele>
        <time>2019-07-15T11:14:28Z</time>
      </trkpt>
      <trkpt lat="47.83796" lon="-3.53915">
        <ele>21</ele>
        <time>2019-07-15T11:14:29Z</time>
      </trkpt>
      <trkpt lat="47.83791" lon="-3.53913">
        <ele>20</ele>
        <time>2019-07-15T11:14:30Z</time>
      </trkpt>
      <trkpt lat="47.83786" lon="-3.53913">
        <ele>20</ele>
        <time>2019-07-15T11:14:31Z</time>
      </trkpt>
      <trkpt lat="47.83781" lon="-3.53913">
        <ele>20</ele>
        <time>2019-07-15T11:14:32Z</time>
      </trkpt>
      <trkpt lat="47.83776" lon="-3.53913">
        <ele>20</ele>
        <time>2019-07-15T11:14:33Z</time>
      </trkpt>
      <trkpt lat="47.83771" lon="-3.53914">
        <ele>20</ele>
        <time>2019-07-15T11:14:34Z</time>
      </trkpt>
      <trkpt lat="47.83767" lon="-3.53916">
        <ele>20</ele>
        <time>2019-07-15T11:14:35Z</time>
      </trkpt>
      <trkpt lat="47.83763" lon="-3.53918">
        <ele>20</ele>
        <time>2019-07-15T11:14:36Z</time>
      </trkpt>
      <trkpt lat="47.8376" lon="-3.5392">
        <ele>20</ele>
        <time>2019-07-15T11:14:37Z</time>
      </trkpt>
      <trkpt lat="47.83756" lon="-3.53924">
        <ele>20</ele>
        <time>2019-07-15T11:14:38Z</time>
      </trkpt>
      <trkpt lat="47.83753" lon="-3.53928">
        <ele>20</ele>
        <time>2019-07-15T11:14:39Z</time>
      </trkpt>
      <trkpt lat="47.83751" lon="-3.53933">
        <ele>20</ele>
        <time>2019-07-15T11:14:40Z</time>
      </trkpt>
      <trkpt lat="47.83749" lon="-3.53937">
        <ele>19</ele>
        <time>2019-07-15T11:14:41Z</time>
      </trkpt>
      <trkpt lat="47.83747" lon="-3.53942">
        <ele>19</ele>
        <time>2019-07-15T11:14:42Z</time>
      </trkpt>
      <trkpt lat="47.83745" lon="-3.53947">
        <ele>19</ele>
        <time>2019-07-15T11:14:43Z</time>
      </trkpt>
      <trkpt lat="47.83743" lon="-3.53952">
        <ele>19</ele>
        <time>2019-07-15T11:14:44Z</time>
      </trkpt>
      <trkpt lat="47.83741" lon="-3.53956">
        <ele>19</ele>
        <time>2019-07-15T11:14:45Z</time>
      </trkpt>
      <trkpt lat="47.83739" lon="-3.5396">
        <ele>19</ele>
        <time>2019-07-15T11:14:46Z</time>
      </trkpt>
      <trkpt lat="47.83738" lon="-3.53963">
        <ele>18</ele>
        <time>2019-07-15T11:14:47Z</time>
      </trkpt>
      <trkpt lat="47.83737" lon="-3.53967">
        <ele>18</ele>
        <time>2019-07-15T11:14:48Z</time>
      </trkpt>
      <trkpt lat="47.83736" lon="-3.5397">
        <ele>18</ele>
        <time>2019-07-15T11:14:49Z</time>
      </trkpt>
      <trkpt lat="47.83734" lon="-3.53973">
        <ele>18</ele>
        <time>2019-07-15T11:14:50Z</time>
      </trkpt>
      <trkpt lat="47.83732" lon="-3.53975">
        <ele>18</ele>
        <time>2019-07-15T11:14:51Z</time>
      </trkpt>
      <trkpt lat="47.83729" lon="-3.53977">
        <ele>18</ele>
        <time>2019-07-15T11:14:52Z</time>
      </trkpt>
      <trkpt lat="47.83727" lon="-3.53978">
        <ele>18</ele>
        <time>2019-07-15T11:14:53Z</time>
      </trkpt>
      <trkpt lat="47.83724" lon="-3.53979">
        <ele>18</ele>
        <time>2019-07-15T11:14:54Z</time>
      </trkpt>
      <trkpt lat="47.83721" lon="-3.5398">
        <ele>17</ele>
        <time>2019-07-15T11:14:55Z</time>
      </trkpt>
      <trkpt lat="47.83719" lon="-3.53982">
        <ele>17</ele>
        <time>2019-07-15T11:14:56Z</time>
      </trkpt>
      <trkpt lat="47.83716" lon="-3.53983">
        <ele>17</ele>
        <time>2019-07-15T11:14:57Z</time>
      </trkpt>
      <trkpt lat="47.83714" lon="-3.53985">
        <ele>17</ele>
        <time>2019-07-15T11:14:58Z</time>
      </trkpt>
      <trkpt lat="47.83711" lon="-3.53987">
        <ele>17</ele>
        <time>2019-07-15T11:14:59Z</time>
      </trkpt>
      <trkpt lat="47.83708" lon="-3.53988">
        <ele>17</ele>
        <time>2019-07-15T11:15:00Z</time>
      </trkpt>
      <trkpt lat="47.83705" lon="-3.5399">
        <ele>17</ele>
        <time>2019-07-15T11:15:01Z</time>
      </trkpt>
      <trkpt lat="47.83702" lon="-3.53991">
        <ele>17</ele>
        <time>2019-07-15T11:15:02Z</time>
      </trkpt>
      <trkpt lat="47.83699" lon="-3.53992">
        <ele>16</ele>
        <time>2019-07-15T11:15:03Z</time>
      </trkpt>
      <trkpt lat="47.83696" lon="-3.53992">
        <ele>16</ele>
        <time>2019-07-15T11:15:04Z</time>
      </trkpt>
      <trkpt lat="47.83693" lon="-3.53991">
        <ele>16</ele>
        <time>2019-07-15T11:15:05Z</time>
      </trkpt>
      <trkpt lat="47.83689" lon="-3.53992">
        <ele>16</ele>
        <time>2019-07-15T11:15:06Z</time>
      </trkpt>
      <trkpt lat="47.83685" lon="-3.53995">
        <ele>16</ele>
        <time>2019-07-15T11:15:07Z</time>
      </trkpt>
      <trkpt lat="47.83681" lon="-3.53997">
        <ele>16</ele>
        <time>2019-07-15T11:15:08Z</time>
      </trkpt>
      <trkpt lat="47.83678" lon="-3.54001">
        <ele>16</ele>
        <time>2019-07-15T11:15:09Z</time>
      </trkpt>
      <trkpt lat="47.83675" lon="-3.54003">
        <ele>16</ele>
        <time>2019-07-15T11:15:10Z</time>
      </trkpt>
      <trkpt lat="47.83671" lon="-3.54005">
        <ele>16</ele>
        <time>2019-07-15T11:15:11Z</time>
      </trkpt>
      <trkpt lat="47.83668" lon="-3.54006">
        <ele>16</ele>
        <time>2019-07-15T11:15:12Z</time>
      </trkpt>
      <trkpt lat="47.83663" lon="-3.54008">
        <ele>16</ele>
        <time>2019-07-15T11:15:13Z</time>
      </trkpt>
      <trkpt lat="47.83659" lon="-3.5401">
        <ele>16</ele>
        <time>2019-07-15T11:15:14Z</time>
      </trkpt>
      <trkpt lat="47.83654" lon="-3.54011">
        <ele>17</ele>
        <time>2019-07-15T11:15:15Z</time>
      </trkpt>
      <trkpt lat="47.8365" lon="-3.54011">
        <ele>17</ele>
        <time>2019-07-15T11:15:16Z</time>
      </trkpt>
      <trkpt lat="47.83645" lon="-3.54011">
        <ele>17</ele>
        <time>2019-07-15T11:15:17Z</time>
      </trkpt>
      <trkpt lat="47.83639" lon="-3.54011">
        <ele>17</ele>
        <time>2019-07-15T11:15:18Z</time>
      </trkpt>
      <trkpt lat="47.83634" lon="-3.54012">
        <ele>17</ele>
        <time>2019-07-15T11:15:19Z</time>
      </trkpt>
      <trkpt lat="47.83629" lon="-3.54015">
        <ele>17</ele>
        <time>2019-07-15T11:15:20Z</time>
      </trkpt>
      <trkpt lat="47.83625" lon="-3.54019">
        <ele>17</ele>
        <time>2019-07-15T11:15:21Z</time>
      </trkpt>
      <trkpt lat="47.83622" lon="-3.54023">
        <ele>17</ele>
        <time>2019-07-15T11:15:22Z</time>
      </trkpt>
      <trkpt lat="47.83618" lon="-3.54026">
        <ele>17</ele>
        <time>2019-07-15T11:15:23Z</time>
      </trkpt>
      <trkpt lat="47.83613" lon="-3.54029">
        <ele>18</ele>
        <time>2019-07-15T11:15:24Z</time>
      </trkpt>
      <trkpt lat="47.83608" lon="-3.54032">
        <ele>18</ele>
        <time>2019-07-15T11:15:25Z</time>
      </trkpt>
      <trkpt lat="47.83605" lon="-3.54035">
        <ele>18</ele>
        <time>2019-07-15T11:15:26Z</time>
      </trkpt>
      <trkpt lat="47.836" lon="-3.54038">
        <ele>18</ele>
        <time>2019-07-15T11:15:27Z</time>
      </trkpt>
      <trkpt lat="47.83595" lon="-3.54039">
        <ele>18</ele>
        <time>2019-07-15T11:15:28Z</time>
      </trkpt>
      <trkpt lat="47.8359" lon="-3.54042">
        <ele>18</ele>
        <time>2019-07-15T11:15:29Z</time>
      </trkpt>
      <trkpt lat="47.83585" lon="-3.54044">
        <ele>18</ele>
        <time>2019-07-15T11:15:30Z</time>
      </trkpt>
      <trkpt lat="47.8358" lon="-3.54046">
        <ele>18</ele>
        <time>2019-07-15T11:15:31Z</time>
      </trkpt>
      <trkpt lat="47.83575" lon="-3.54048">
        <ele>18</ele>
        <time>2019-07-15T11:15:32Z</time>
      </trkpt>
      <trkpt lat="47.8357" lon="-3.54051">
        <ele>18</ele>
        <time>2019-07-15T11:15:33Z</time>
      </trkpt>
      <trkpt lat="47.83565" lon="-3.54053">
        <ele>18</ele>
        <time>2019-07-15T11:15:34Z</time>
      </trkpt>
      <trkpt lat="47.83559" lon="-3.54054">
        <ele>18</ele>
        <time>2019-07-15T11:15:35Z</time>
      </trkpt>
      <trkpt lat="47.83553" lon="-3.54056">
        <ele>18</ele>
        <time>2019-07-15T11:15:36Z</time>
      </trkpt>
      <trkpt lat="47.83548" lon="-3.54058">
        <ele>18</ele>
        <time>2019-07-15T11:15:37Z</time>
      </trkpt>
      <trkpt lat="47.83542" lon="-3.5406">
        <ele>18</ele>
        <time>2019-07-15T11:15:38Z</time>
      </trkpt>
      <trkpt lat="47.83537" lon="-3.54061">
        <ele>18</ele>
        <time>2019-07-15T11:15:39Z</time>
      </trkpt>
      <trkpt lat="47.83531" lon="-3.54063">
        <ele>18</ele>
        <time>2019-07-15T11:15:40Z</time>
      </trkpt>
      <trkpt lat="47.83526" lon="-3.54064">
        <ele>18</ele>
        <time>2019-07-15T11:15:41Z</time>
      </trkpt>
      <trkpt lat="47.83522" lon="-3.54065">
        <ele>18</ele>
        <time>2019-07-15T11:15:42Z</time>
      </trkpt>
      <trkpt lat="47.83517" lon="-3.54065">
        <ele>18</ele>
        <time>2019-07-15T11:15:43Z</time>
      </trkpt>
      <trkpt lat="47.83513" lon="-3.54065">
        <ele>18</ele>
        <time>2019-07-15T11:15:44Z</time>
      </trkpt>
      <trkpt lat="47.83508" lon="-3.54067">
        <ele>18</ele>
        <time>2019-07-15T11:15:45Z</time>
      </trkpt>
      <trkpt lat="47.83504" lon="-3.54067">
        <ele>18</ele>
        <time>2019-07-15T11:15:46Z</time>
      </trkpt>
      <trkpt lat="47.83499" lon="-3.54068">
        <ele>18</ele>
        <time>2019-07-15T11:15:47Z</time>
      </trkpt>
      <trkpt lat="47.83494" lon="-3.54068">
        <ele>18</ele>
        <time>2019-07-15T11:15:48Z</time>
      </trkpt>
      <trkpt lat="47.83489" lon="-3.54068">
        <ele>18</ele>
        <time>2019-07-15T11:15:49Z</time>
      </trkpt>
      <trkpt lat="47.83484" lon="-3.54068">
        <ele>18</ele>
        <time>2019-07-15T11:15:50Z</time>
      </trkpt>
      <trkpt lat="47.8348" lon="-3.54067">
        <ele>18</ele>
        <time>2019-07-15T11:15:51Z</time>
      </trkpt>
      <trkpt lat="47.83474" lon="-3.54067">
        <ele>18</ele>
        <time>2019-07-15T11:15:52Z</time>
      </trkpt>
      <trkpt lat="47.8347" lon="-3.54067">
        <ele>18</ele>
        <time>2019-07-15T11:15:53Z</time>
      </trkpt>
      <trkpt lat="47.83464" lon="-3.54066">
        <ele>18</ele>
        <time>2019-07-15T11:15:54Z</time>
      </trkpt>
      <trkpt lat="47.83459" lon="-3.54065">
        <ele>18</ele>
        <time>2019-07-15T11:15:55Z</time>
      </trkpt>
      <trkpt lat="47.83454" lon="-3.54065">
        <ele>18</ele>
        <time>2019-07-15T11:15:56Z</time>
      </trkpt>
      <trkpt lat="47.83449" lon="-3.54065">
        <ele>18</ele>
        <time>2019-07-15T11:15:57Z</time>
      </trkpt>
      <trkpt lat="47.83445" lon="-3.54065">
        <ele>18</ele>
        <time>2019-07-15T11:15:58Z</time>
      </trkpt>
      <trkpt lat="47.83439" lon="-3.54065">
        <ele>18</ele>
        <time>2019-07-15T11:15:59Z</time>
      </trkpt>
      <trkpt lat="47.83434" lon="-3.54066">
        <ele>18</ele>
        <time>2019-07-15T11:16:00Z</time>
      </trkpt>
      <trkpt lat="47.8343" lon="-3.54068">
        <ele>18</ele>
        <time>2019-07-15T11:16:01Z</time>
      </trkpt>
      <trkpt lat="47.83424" lon="-3.5407">
        <ele>17</ele>
        <time>2019-07-15T11:16:02Z</time>
      </trkpt>
      <trkpt lat="47.83418" lon="-3.54072">
        <ele>17</ele>
        <time>2019-07-15T11:16:03Z</time>
      </trkpt>
      <trkpt lat="47.83412" lon="-3.54073">
        <ele>17</ele>
        <time>2019-07-15T11:16:04Z</time>
      </trkpt>
      <trkpt lat="47.83406" lon="-3.54074">
        <ele>17</ele>
        <time>2019-07-15T11:16:05Z</time>
      </trkpt>
      <trkpt lat="47.83401" lon="-3.54076">
        <ele>17</ele>
        <time>2019-07-15T11:16:06Z</time>
      </trkpt>
      <trkpt lat="47.83396" lon="-3.54078">
        <ele>17</ele>
        <time>2019-07-15T11:16:07Z</time>
      </trkpt>
      <trkpt lat="47.83391" lon="-3.5408">
        <ele>17</ele>
        <time>2019-07-15T11:16:08Z</time>
      </trkpt>
      <trkpt lat="47.83386" lon="-3.54081">
        <ele>17</ele>
        <time>2019-07-15T11:16:09Z</time>
      </trkpt>
      <trkpt lat="47.83381" lon="-3.54084">
        <ele>17</ele>
        <time>2019-07-15T11:16:10Z</time>
      </trkpt>
      <trkpt lat="47.83376" lon="-3.54087">
        <ele>17</ele>
        <time>2019-07-15T11:16:11Z</time>
      </trkpt>
      <trkpt lat="47.83372" lon="-3.5409">
        <ele>17</ele>
        <time>2019-07-15T11:16:12Z</time>
      </trkpt>
      <trkpt lat="47.83367" lon="-3.54093">
        <ele>17</ele>
        <time>2019-07-15T11:16:13Z</time>
      </trkpt>
      <trkpt lat="47.83361" lon="-3.54097">
        <ele>17</ele>
        <time>2019-07-15T11:16:14Z</time>
      </trkpt>
      <trkpt lat="47.83356" lon="-3.541">
        <ele>17</ele>
        <time>2019-07-15T11:16:15Z</time>
      </trkpt>
      <trkpt lat="47.83351" lon="-3.54103">
        <ele>17</ele>
        <time>2019-07-15T11:16:16Z</time>
      </trkpt>
      <trkpt lat="47.83346" lon="-3.54105">
        <ele>17</ele>
        <time>2019-07-15T11:16:17Z</time>
      </trkpt>
      <trkpt lat="47.83341" lon="-3.54107">
        <ele>17</ele>
        <time>2019-07-15T11:16:18Z</time>
      </trkpt>
      <trkpt lat="47.83336" lon="-3.54109">
        <ele>17</ele>
        <time>2019-07-15T11:16:19Z</time>
      </trkpt>
      <trkpt lat="47.83332" lon="-3.5411">
        <ele>17</ele>
        <time>2019-07-15T11:16:20Z</time>
      </trkpt>
      <trkpt lat="47.83327" lon="-3.54111">
        <ele>17</ele>
        <time>2019-07-15T11:16:21Z</time>
      </trkpt>
      <trkpt lat="47.83323" lon="-3.54112">
        <ele>17</ele>
        <time>2019-07-15T11:16:22Z</time>
      </trkpt>
      <trkpt lat="47.83318" lon="-3.54114">
        <ele>17</ele>
        <time>2019-07-15T11:16:23Z</time>
      </trkpt>
      <trkpt lat="47.83313" lon="-3.54116">
        <ele>17</ele>
        <time>2019-07-15T11:16:24Z</time>
      </trkpt>
      <trkpt lat="47.83308" lon="-3.54116">
        <ele>17</ele>
        <time>2019-07-15T11:16:25Z</time>
      </trkpt>
      <trkpt lat="47.83304" lon="-3.54118">
        <ele>17</ele>
        <time>2019-07-15T11:16:26Z</time>
      </trkpt>
      <trkpt lat="47.833" lon="-3.5412">
        <ele>17</ele>
        <time>2019-07-15T11:16:27Z</time>
      </trkpt>
      <trkpt lat="47.83295" lon="-3.54122">
        <ele>17</ele>
        <time>2019-07-15T11:16:28Z</time>
      </trkpt>
      <trkpt lat="47.83291" lon="-3.54123">
        <ele>17</ele>
        <time>2019-07-15T11:16:29Z</time>
      </trkpt>
      <trkpt lat="47.83286" lon="-3.54125">
        <ele>17</ele>
        <time>2019-07-15T11:16:30Z</time>
      </trkpt>
      <trkpt lat="47.83281" lon="-3.54127">
        <ele>17</ele>
        <time>2019-07-15T11:16:31Z</time>
      </trkpt>
      <trkpt lat="47.83276" lon="-3.54128">
        <ele>17</ele>
        <time>2019-07-15T11:16:32Z</time>
      </trkpt>
      <trkpt lat="47.83271" lon="-3.5413">
        <ele>17</ele>
        <time>2019-07-15T11:16:33Z</time>
      </trkpt>
      <trkpt lat="47.83266" lon="-3.54133">
        <ele>17</ele>
        <time>2019-07-15T11:16:34Z</time>
      </trkpt>
      <trkpt lat="47.83261" lon="-3.54135">
        <ele>17</ele>
        <time>2019-07-15T11:16:35Z</time>
      </trkpt>
      <trkpt lat="47.83255" lon="-3.54137">
        <ele>17</ele>
        <time>2019-07-15T11:16:36Z</time>
      </trkpt>
      <trkpt lat="47.8325" lon="-3.54139">
        <ele>17</ele>
        <time>2019-07-15T11:16:37Z</time>
      </trkpt>
      <trkpt lat="47.83244" lon="-3.54141">
        <ele>17</ele>
        <time>2019-07-15T11:16:38Z</time>
      </trkpt>
      <trkpt lat="47.83239" lon="-3.54143">
        <ele>17</ele>
        <time>2019-07-15T11:16:39Z</time>
      </trkpt>
      <trkpt lat="47.83234" lon="-3.54146">
        <ele>17</ele>
        <time>2019-07-15T11:16:40Z</time>
      </trkpt>
      <trkpt lat="47.83229" lon="-3.54149">
        <ele>17</ele>
        <time>2019-07-15T11:16:41Z</time>
      </trkpt>
      <trkpt lat="47.83225" lon="-3.54151">
        <ele>17</ele>
        <time>2019-07-15T11:16:42Z</time>
      </trkpt>
      <trkpt lat="47.83221" lon="-3.54153">
        <ele>17</ele>
        <time>2019-07-15T11:16:43Z</time>
      </trkpt>
      <trkpt lat="47.83217" lon="-3.54155">
        <ele>17</ele>
        <time>2019-07-15T11:16:44Z</time>
      </trkpt>
      <trkpt lat="47.83212" lon="-3.54156">
        <ele>17</ele>
        <time>2019-07-15T11:16:45Z</time>
      </trkpt>
      <trkpt lat="47.83208" lon="-3.54157">
        <ele>17</ele>
        <time>2019-07-15T11:16:46Z</time>
      </trkpt>
      <trkpt lat="47.83204" lon="-3.54157">
        <ele>17</ele>
        <time>2019-07-15T11:16:47Z</time>
      </trkpt>
      <trkpt lat="47.83199" lon="-3.54158">
        <ele>16</ele>
        <time>2019-07-15T11:16:48Z</time>
      </trkpt>
      <trkpt lat="47.83194" lon="-3.54158">
        <ele>16</ele>
        <time>2019-07-15T11:16:49Z</time>
      </trkpt>
      <trkpt lat="47.83189" lon="-3.54158">
        <ele>16</ele>
        <time>2019-07-15T11:16:50Z</time>
      </trkpt>
      <trkpt lat="47.83184" lon="-3.54158">
        <ele>16</ele>
        <time>2019-07-15T11:16:51Z</time>
      </trkpt>
      <trkpt lat="47.83178" lon="-3.54158">
        <ele>16</ele>
        <time>2019-07-15T11:16:52Z</time>
      </trkpt>
      <trkpt lat="47.83172" lon="-3.54159">
        <ele>16</ele>
        <time>2019-07-15T11:16:53Z</time>
      </trkpt>
      <trkpt lat="47.83166" lon="-3.54159">
        <ele>16</ele>
        <time>2019-07-15T11:16:54Z</time>
      </trkpt>
      <trkpt lat="47.83161" lon="-3.54158">
        <ele>16</ele>
        <time>2019-07-15T11:16:55Z</time>
      </trkpt>
      <trkpt lat="47.83155" lon="-3.54159">
        <ele>16</ele>
        <time>2019-07-15T11:16:56Z</time>
      </trkpt>
      <trkpt lat="47.8315" lon="-3.5416">
        <ele>16</ele>
        <time>2019-07-15T11:16:57Z</time>
      </trkpt>
      <trkpt lat="47.83145" lon="-3.5416">
        <ele>16</ele>
        <time>2019-07-15T11:16:58Z</time>
      </trkpt>
      <trkpt lat="47.8314" lon="-3.54161">
        <ele>16</ele>
        <time>2019-07-15T11:16:59Z</time>
      </trkpt>
      <trkpt lat="47.83135" lon="-3.54162">
        <ele>16</ele>
        <time>2019-07-15T11:17:00Z</time>
      </trkpt>
      <trkpt lat="47.8313" lon="-3.54163">
        <ele>16</ele>
        <time>2019-07-15T11:17:01Z</time>
      </trkpt>
      <trkpt lat="47.83126" lon="-3.54164">
        <ele>17</ele>
        <time>2019-07-15T11:17:02Z</time>
      </trkpt>
      <trkpt lat="47.83121" lon="-3.54165">
        <ele>17</ele>
        <time>2019-07-15T11:17:03Z</time>
      </trkpt>
      <trkpt lat="47.83116" lon="-3.54166">
        <ele>17</ele>
        <time>2019-07-15T11:17:04Z</time>
      </trkpt>
      <trkpt lat="47.83112" lon="-3.54167">
        <ele>17</ele>
        <time>2019-07-15T11:17:05Z</time>
      </trkpt>
      <trkpt lat="47.83107" lon="-3.54168">
        <ele>17</ele>
        <time>2019-07-15T11:17:06Z</time>
      </trkpt>
      <trkpt lat="47.83102" lon="-3.54169">
        <ele>17</ele>
        <time>2019-07-15T11:17:07Z</time>
      </trkpt>
      <trkpt lat="47.83098" lon="-3.54169">
        <ele>17</ele>
        <time>2019-07-15T11:17:08Z</time>
      </trkpt>
      <trkpt lat="47.83093" lon="-3.5417">
        <ele>17</ele>
        <time>2019-07-15T11:17:09Z</time>
      </trkpt>
      <trkpt lat="47.83089" lon="-3.54171">
        <ele>17</ele>
        <time>2019-07-15T11:17:10Z</time>
      </trkpt>
      <trkpt lat="47.83084" lon="-3.54171">
        <ele>18</ele>
        <time>2019-07-15T11:17:11Z</time>
      </trkpt>
      <trkpt lat="47.8308" lon="-3.54172">
        <ele>18</ele>
        <time>2019-07-15T11:17:12Z</time>
      </trkpt>
      <trkpt lat="47.83076" lon="-3.54172">
        <ele>18</ele>
        <time>2019-07-15T11:17:13Z</time>
      </trkpt>
      <trkpt lat="47.83073" lon="-3.54172">
        <ele>18</ele>
        <time>2019-07-15T11:17:14Z</time>
      </trkpt>
      <trkpt lat="47.83069" lon="-3.54173">
        <ele>18</ele>
        <time>2019-07-15T11:17:15Z</time>
      </trkpt>
      <trkpt lat="47.83066" lon="-3.54174">
        <ele>18</ele>
        <time>2019-07-15T11:17:16Z</time>
      </trkpt>
      <trkpt lat="47.83062" lon="-3.54174">
        <ele>18</ele>
        <time>2019-07-15T11:17:17Z</time>
      </trkpt>
      <trkpt lat="47.83058" lon="-3.54175">
        <ele>18</ele>
        <time>2019-07-15T11:17:18Z</time>
      </trkpt>
      <trkpt lat="47.83054" lon="-3.54175">
        <ele>18</ele>
        <time>2019-07-15T11:17:19Z</time>
      </trkpt>
      <trkpt lat="47.8305" lon="-3.54176">
        <ele>17</ele>
        <time>2019-07-15T11:17:20Z</time>
      </trkpt>
      <trkpt lat="47.83046" lon="-3.54177">
        <ele>17</ele>
        <time>2019-07-15T11:17:21Z</time>
      </trkpt>
      <trkpt lat="47.83042" lon="-3.54177">
        <ele>17</ele>
        <time>2019-07-15T11:17:22Z</time>
      </trkpt>
      <trkpt lat="47.83038" lon="-3.54178">
        <ele>17</ele>
        <time>2019-07-15T11:17:23Z</time>
      </trkpt>
      <trkpt lat="47.83033" lon="-3.54179">
        <ele>17</ele>
        <time>2019-07-15T11:17:24Z</time>
      </trkpt>
      <trkpt lat="47.83028" lon="-3.5418">
        <ele>17</ele>
        <time>2019-07-15T11:17:25Z</time>
      </trkpt>
      <trkpt lat="47.83024" lon="-3.54181">
        <ele>17</ele>
        <time>2019-07-15T11:17:26Z</time>
      </trkpt>
      <trkpt lat="47.8302" lon="-3.54182">
        <ele>17</ele>
        <time>2019-07-15T11:17:27Z</time>
      </trkpt>
      <trkpt lat="47.83015" lon="-3.54182">
        <ele>17</ele>
        <time>2019-07-15T11:17:28Z</time>
      </trkpt>
      <trkpt lat="47.83011" lon="-3.54182">
        <ele>16</ele>
        <time>2019-07-15T11:17:29Z</time>
      </trkpt>
      <trkpt lat="47.83007" lon="-3.54182">
        <ele>16</ele>
        <time>2019-07-15T11:17:30Z</time>
      </trkpt>
      <trkpt lat="47.83003" lon="-3.54183">
        <ele>16</ele>
        <time>2019-07-15T11:17:31Z</time>
      </trkpt>
      <trkpt lat="47.82999" lon="-3.54183">
        <ele>16</ele>
        <time>2019-07-15T11:17:32Z</time>
      </trkpt>
      <trkpt lat="47.82995" lon="-3.54183">
        <ele>16</ele>
        <time>2019-07-15T11:17:33Z</time>
      </trkpt>
      <trkpt lat="47.82991" lon="-3.54183">
        <ele>17</ele>
        <time>2019-07-15T11:17:34Z</time>
      </trkpt>
      <trkpt lat="47.82987" lon="-3.54183">
        <ele>17</ele>
        <time>2019-07-15T11:17:35Z</time>
      </trkpt>
      <trkpt lat="47.82984" lon="-3.54182">
        <ele>17</ele>
        <time>2019-07-15T11:17:36Z</time>
      </trkpt>
      <trkpt lat="47.82979" lon="-3.54182">
        <ele>17</ele>
        <time>2019-07-15T11:17:37Z</time>
      </trkpt>
      <trkpt lat="47.82975" lon="-3.54181">
        <ele>17</ele>
        <time>2019-07-15T11:17:38Z</time>
      </trkpt>
      <trkpt lat="47.8297" lon="-3.5418">
        <ele>17</ele>
        <time>2019-07-15T11:17:39Z</time>
      </trkpt>
      <trkpt lat="47.82966" lon="-3.54179">
        <ele>17</ele>
        <time>2019-07-15T11:17:40Z</time>
      </trkpt>
      <trkpt lat="47.82961" lon="-3.54178">
        <ele>17</ele>
        <time>2019-07-15T11:17:41Z</time>
      </trkpt>
      <trkpt lat="47.82957" lon="-3.54176">
        <ele>17</ele>
        <time>2019-07-15T11:17:42Z</time>
      </trkpt>
      <trkpt lat="47.82952" lon="-3.54175">
        <ele>17</ele>
        <time>2019-07-15T11:17:43Z</time>
      </trkpt>
      <trkpt lat="47.82948" lon="-3.54174">
        <ele>17</ele>
        <time>2019-07-15T11:17:44Z</time>
      </trkpt>
      <trkpt lat="47.82944" lon="-3.54174">
        <ele>17</ele>
        <time>2019-07-15T11:17:45Z</time>
      </trkpt>
      <trkpt lat="47.8294" lon="-3.54173">
        <ele>17</ele>
        <time>2019-07-15T11:17:46Z</time>
      </trkpt>
      <trkpt lat="47.82936" lon="-3.54173">
        <ele>17</ele>
        <time>2019-07-15T11:17:47Z</time>
      </trkpt>
      <trkpt lat="47.82931" lon="-3.54172">
        <ele>17</ele>
        <time>2019-07-15T11:17:48Z</time>
      </trkpt>
      <trkpt lat="47.82927" lon="-3.54172">
        <ele>17</ele>
        <time>2019-07-15T11:17:49Z</time>
      </trkpt>
      <trkpt lat="47.82923" lon="-3.54171">
        <ele>17</ele>
        <time>2019-07-15T11:17:50Z</time>
      </trkpt>
      <trkpt lat="47.82919" lon="-3.5417">
        <ele>17</ele>
        <time>2019-07-15T11:17:51Z</time>
      </trkpt>
      <trkpt lat="47.82915" lon="-3.54167">
        <ele>17</ele>
        <time>2019-07-15T11:17:52Z</time>
      </trkpt>
      <trkpt lat="47.82912" lon="-3.54165">
        <ele>17</ele>
        <time>2019-07-15T11:17:53Z</time>
      </trkpt>
      <trkpt lat="47.82909" lon="-3.54162">
        <ele>17</ele>
        <time>2019-07-15T11:17:54Z</time>
      </trkpt>
      <trkpt lat="47.82905" lon="-3.54159">
        <ele>17</ele>
        <time>2019-07-15T11:17:55Z</time>
      </trkpt>
      <trkpt lat="47.82901" lon="-3.54156">
        <ele>17</ele>
        <time>2019-07-15T11:17:56Z</time>
      </trkpt>
      <trkpt lat="47.82896" lon="-3.54154">
        <ele>17</ele>
        <time>2019-07-15T11:17:57Z</time>
      </trkpt>
      <trkpt lat="47.82891" lon="-3.54153">
        <ele>17</ele>
        <time>2019-07-15T11:17:58Z</time>
      </trkpt>
      <trkpt lat="47.82886" lon="-3.54153">
        <ele>17</ele>
        <time>2019-07-15T11:17:59Z</time>
      </trkpt>
      <trkpt lat="47.8288" lon="-3.54153">
        <ele>17</ele>
        <time>2019-07-15T11:18:00Z</time>
      </trkpt>
      <trkpt lat="47.82875" lon="-3.54152">
        <ele>17</ele>
        <time>2019-07-15T11:18:01Z</time>
      </trkpt>
      <trkpt lat="47.82869" lon="-3.54151">
        <ele>17</ele>
        <time>2019-07-15T11:18:02Z</time>
      </trkpt>
      <trkpt lat="47.82863" lon="-3.5415">
        <ele>16</ele>
        <time>2019-07-15T11:18:03Z</time>
      </trkpt>
      <trkpt lat="47.82857" lon="-3.54149">
        <ele>16</ele>
        <time>2019-07-15T11:18:04Z</time>
      </trkpt>
      <trkpt lat="47.82851" lon="-3.54148">
        <ele>16</ele>
        <time>2019-07-15T11:18:05Z</time>
      </trkpt>
      <trkpt lat="47.82846" lon="-3.54146">
        <ele>16</ele>
        <time>2019-07-15T11:18:06Z</time>
      </trkpt>
      <trkpt lat="47.8284" lon="-3.54145">
        <ele>16</ele>
        <time>2019-07-15T11:18:07Z</time>
      </trkpt>
      <trkpt lat="47.82834" lon="-3.54143">
        <ele>16</ele>
        <time>2019-07-15T11:18:08Z</time>
      </trkpt>
      <trkpt lat="47.82828" lon="-3.54141">
        <ele>16</ele>
        <time>2019-07-15T11:18:09Z</time>
      </trkpt>
      <trkpt lat="47.82823" lon="-3.5414">
        <ele>16</ele>
        <time>2019-07-15T11:18:10Z</time>
      </trkpt>
      <trkpt lat="47.82818" lon="-3.54139">
        <ele>16</ele>
        <time>2019-07-15T11:18:11Z</time>
      </trkpt>
      <trkpt lat="47.82813" lon="-3.54139">
        <ele>16</ele>
        <time>2019-07-15T11:18:12Z</time>
      </trkpt>
      <trkpt lat="47.82809" lon="-3.54138">
        <ele>16</ele>
        <time>2019-07-15T11:18:13Z</time>
      </trkpt>
      <trkpt lat="47.82804" lon="-3.54136">
        <ele>16</ele>
        <time>2019-07-15T11:18:14Z</time>
      </trkpt>
      <trkpt lat="47.82799" lon="-3.54135">
        <ele>16</ele>
        <time>2019-07-15T11:18:15Z</time>
      </trkpt>
      <trkpt lat="47.82794" lon="-3.54133">
        <ele>16</ele>
        <time>2019-07-15T11:18:16Z</time>
      </trkpt>
      <trkpt lat="47.82789" lon="-3.54132">
        <ele>16</ele>
        <time>2019-07-15T11:18:17Z</time>
      </trkpt>
      <trkpt lat="47.82784" lon="-3.54131">
        <ele>16</ele>
        <time>2019-07-15T11:18:18Z</time>
      </trkpt>
      <trkpt lat="47.82778" lon="-3.5413">
        <ele>16</ele>
        <time>2019-07-15T11:18:19Z</time>
      </trkpt>
      <trkpt lat="47.82772" lon="-3.54129">
        <ele>16</ele>
        <time>2019-07-15T11:18:20Z</time>
      </trkpt>
      <trkpt lat="47.82766" lon="-3.54128">
        <ele>16</ele>
        <time>2019-07-15T11:18:21Z</time>
      </trkpt>
      <trkpt lat="47.82761" lon="-3.54128">
        <ele>16</ele>
        <time>2019-07-15T11:18:22Z</time>
      </trkpt>
      <trkpt lat="47.82755" lon="-3.54127">
        <ele>16</ele>
        <time>2019-07-15T11:18:23Z</time>
      </trkpt>
      <trkpt lat="47.82749" lon="-3.54127">
        <ele>16</ele>
        <time>2019-07-15T11:18:24Z</time>
      </trkpt>
      <trkpt lat="47.82743" lon="-3.54126">
        <ele>16</ele>
        <time>2019-07-15T11:18:25Z</time>
      </trkpt>
      <trkpt lat="47.82737" lon="-3.54125">
        <ele>16</ele>
        <time>2019-07-15T11:18:26Z</time>
      </trkpt>
      <trkpt lat="47.82731" lon="-3.54123">
        <ele>16</ele>
        <time>2019-07-15T11:18:27Z</time>
      </trkpt>
      <trkpt lat="47.82725" lon="-3.54122">
        <ele>16</ele>
        <time>2019-07-15T11:18:28Z</time>
      </trkpt>
      <trkpt lat="47.82721" lon="-3.54122">
        <ele>16</ele>
        <time>2019-07-15T11:18:29Z</time>
      </trkpt>
      <trkpt lat="47.82716" lon="-3.54122">
        <ele>16</ele>
        <time>2019-07-15T11:18:30Z</time>
      </trkpt>
      <trkpt lat="47.82711" lon="-3.54122">
        <ele>16</ele>
        <time>2019-07-15T11:18:31Z</time>
      </trkpt>
      <trkpt lat="47.82706" lon="-3.54121">
        <ele>16</ele>
        <time>2019-07-15T11:18:32Z</time>
      </trkpt>
      <trkpt lat="47.82702" lon="-3.54121">
        <ele>16</ele>
        <time>2019-07-15T11:18:33Z</time>
      </trkpt>
      <trkpt lat="47.82697" lon="-3.54121">
        <ele>16</ele>
        <time>2019-07-15T11:18:34Z</time>
      </trkpt>
      <trkpt lat="47.82693" lon="-3.5412">
        <ele>16</ele>
        <time>2019-07-15T11:18:35Z</time>
      </trkpt>
      <trkpt lat="47.82688" lon="-3.54119">
        <ele>16</ele>
        <time>2019-07-15T11:18:36Z</time>
      </trkpt>
      <trkpt lat="47.82683" lon="-3.54119">
        <ele>16</ele>
        <time>2019-07-15T11:18:37Z</time>
      </trkpt>
      <trkpt lat="47.82678" lon="-3.54118">
        <ele>16</ele>
        <time>2019-07-15T11:18:38Z</time>
      </trkpt>
      <trkpt lat="47.82674" lon="-3.54117">
        <ele>16</ele>
        <time>2019-07-15T11:18:39Z</time>
      </trkpt>
      <trkpt lat="47.82669" lon="-3.54116">
        <ele>16</ele>
        <time>2019-07-15T11:18:40Z</time>
      </trkpt>
      <trkpt lat="47.82664" lon="-3.54115">
        <ele>16</ele>
        <time>2019-07-15T11:18:41Z</time>
      </trkpt>
      <trkpt lat="47.82659" lon="-3.54114">
        <ele>16</ele>
        <time>2019-07-15T11:18:42Z</time>
      </trkpt>
      <trkpt lat="47.82654" lon="-3.54114">
        <ele>16</ele>
        <time>2019-07-15T11:18:43Z</time>
      </trkpt>
      <trkpt lat="47.8265" lon="-3.54114">
        <ele>16</ele>
        <time>2019-07-15T11:18:44Z</time>
      </trkpt>
      <trkpt lat="47.82645" lon="-3.54113">
        <ele>16</ele>
        <time>2019-07-15T11:18:45Z</time>
      </trkpt>
      <trkpt lat="47.8264" lon="-3.54112">
        <ele>16</ele>
        <time>2019-07-15T11:18:46Z</time>
      </trkpt>
      <trkpt lat="47.82635" lon="-3.54111">
        <ele>16</ele>
        <time>2019-07-15T11:18:47Z</time>
      </trkpt>
      <trkpt lat="47.8263" lon="-3.5411">
        <ele>16</ele>
        <time>2019-07-15T11:18:48Z</time>
      </trkpt>
      <trkpt lat="47.82624" lon="-3.54109">
        <ele>16</ele>
        <time>2019-07-15T11:18:49Z</time>
      </trkpt>
      <trkpt lat="47.82619" lon="-3.54109">
        <ele>16</ele>
        <time>2019-07-15T11:18:50Z</time>
      </trkpt>
      <trkpt lat="47.82614" lon="-3.54109">
        <ele>16</ele>
        <time>2019-07-15T11:18:51Z</time>
      </trkpt>
      <trkpt lat="47.82609" lon="-3.54112">
        <ele>16</ele>
        <time>2019-07-15T11:18:52Z</time>
      </trkpt>
      <trkpt lat="47.82605" lon="-3.54116">
        <ele>16</ele>
        <time>2019-07-15T11:18:53Z</time>
      </trkpt>
      <trkpt lat="47.82602" lon="-3.5412">
        <ele>16</ele>
        <time>2019-07-15T11:18:54Z</time>
      </trkpt>
      <trkpt lat="47.82598" lon="-3.54126">
        <ele>16</ele>
        <time>2019-07-15T11:18:55Z</time>
      </trkpt>
      <trkpt lat="47.82596" lon="-3.54132">
        <ele>16</ele>
        <time>2019-07-15T11:18:56Z</time>
      </trkpt>
      <trkpt lat="47.82593" lon="-3.54138">
        <ele>16</ele>
        <time>2019-07-15T11:18:57Z</time>
      </trkpt>
      <trkpt lat="47.8259" lon="-3.54141">
        <ele>16</ele>
        <time>2019-07-15T11:18:58Z</time>
      </trkpt>
      <trkpt lat="47.82586" lon="-3.54141">
        <ele>16</ele>
        <time>2019-07-15T11:18:59Z</time>
      </trkpt>
      <trkpt lat="47.82582" lon="-3.5414">
        <ele>16</ele>
        <time>2019-07-15T11:19:00Z</time>
      </trkpt>
      <trkpt lat="47.8258" lon="-3.54139">
        <ele>16</ele>
        <time>2019-07-15T11:19:01Z</time>
      </trkpt>
      <trkpt lat="47.82577" lon="-3.54137">
        <ele>16</ele>
        <time>2019-07-15T11:19:02Z</time>
      </trkpt>
      <trkpt lat="47.82574" lon="-3.54135">
        <ele>16</ele>
        <time>2019-07-15T11:19:03Z</time>
      </trkpt>
      <trkpt lat="47.82569" lon="-3.54133">
        <ele>16</ele>
        <time>2019-07-15T11:19:04Z</time>
      </trkpt>
      <trkpt lat="47.82564" lon="-3.54132">
        <ele>16</ele>
        <time>2019-07-15T11:19:05Z</time>
      </trkpt>
      <trkpt lat="47.82559" lon="-3.54131">
        <ele>16</ele>
        <time>2019-07-15T11:19:06Z</time>
      </trkpt>
      <trkpt lat="47.82553" lon="-3.54131">
        <ele>16</ele>
        <time>2019-07-15T11:19:07Z</time>
      </trkpt>
      <trkpt lat="47.82547" lon="-3.5413">
        <ele>16</ele>
        <time>2019-07-15T11:19:08Z</time>
      </trkpt>
      <trkpt lat="47.82542" lon="-3.5413">
        <ele>16</ele>
        <time>2019-07-15T11:19:09Z</time>
      </trkpt>
      <trkpt lat="47.82537" lon="-3.5413">
        <ele>16</ele>
        <time>2019-07-15T11:19:10Z</time>
      </trkpt>
      <trkpt lat="47.82532" lon="-3.5413">
        <ele>16</ele>
        <time>2019-07-15T11:19:11Z</time>
      </trkpt>
      <trkpt lat="47.82527" lon="-3.5413">
        <ele>16</ele>
        <time>2019-07-15T11:19:12Z</time>
      </trkpt>
      <trkpt lat="47.82522" lon="-3.54132">
        <ele>16</ele>
        <time>2019-07-15T11:19:13Z</time>
      </trkpt>
      <trkpt lat="47.82517" lon="-3.54133">
        <ele>16</ele>
        <time>2019-07-15T11:19:14Z</time>
      </trkpt>
      <trkpt lat="47.82511" lon="-3.54134">
        <ele>16</ele>
        <time>2019-07-15T11:19:15Z</time>
      </trkpt>
      <trkpt lat="47.82506" lon="-3.54134">
        <ele>16</ele>
        <time>2019-07-15T11:19:16Z</time>
      </trkpt>
      <trkpt lat="47.825" lon="-3.54135">
        <ele>16</ele>
        <time>2019-07-15T11:19:17Z</time>
      </trkpt>
      <trkpt lat="47.82495" lon="-3.54136">
        <ele>16</ele>
        <time>2019-07-15T11:19:18Z</time>
      </trkpt>
      <trkpt lat="47.8249" lon="-3.54136">
        <ele>16</ele>
        <time>2019-07-15T11:19:19Z</time>
      </trkpt>
      <trkpt lat="47.82486" lon="-3.54137">
        <ele>16</ele>
        <time>2019-07-15T11:19:20Z</time>
      </trkpt>
      <trkpt lat="47.82481" lon="-3.54138">
        <ele>16</ele>
        <time>2019-07-15T11:19:21Z</time>
      </trkpt>
      <trkpt lat="47.82476" lon="-3.54139">
        <ele>16</ele>
        <time>2019-07-15T11:19:22Z</time>
      </trkpt>
      <trkpt lat="47.82472" lon="-3.5414">
        <ele>16</ele>
        <time>2019-07-15T11:19:23Z</time>
      </trkpt>
      <trkpt lat="47.82467" lon="-3.54142">
        <ele>16</ele>
        <time>2019-07-15T11:19:24Z</time>
      </trkpt>
      <trkpt lat="47.82462" lon="-3.54143">
        <ele>16</ele>
        <time>2019-07-15T11:19:25Z</time>
      </trkpt>
      <trkpt lat="47.82457" lon="-3.54145">
        <ele>16</ele>
        <time>2019-07-15T11:19:26Z</time>
      </trkpt>
      <trkpt lat="47.82452" lon="-3.54146">
        <ele>16</ele>
        <time>2019-07-15T11:19:27Z</time>
      </trkpt>
      <trkpt lat="47.82447" lon="-3.54149">
        <ele>16</ele>
        <time>2019-07-15T11:19:28Z</time>
      </trkpt>
      <trkpt lat="47.82442" lon="-3.54152">
        <ele>16</ele>
        <time>2019-07-15T11:19:29Z</time>
      </trkpt>
      <trkpt lat="47.82437" lon="-3.54154">
        <ele>16</ele>
        <time>2019-07-15T11:19:30Z</time>
      </trkpt>
      <trkpt lat="47.82433" lon="-3.54157">
        <ele>16</ele>
        <time>2019-07-15T11:19:31Z</time>
      </trkpt>
      <trkpt lat="47.82429" lon="-3.54161">
        <ele>16</ele>
        <time>2019-07-15T11:19:32Z</time>
      </trkpt>
      <trkpt lat="47.82426" lon="-3.54166">
        <ele>16</ele>
        <time>2019-07-15T11:19:33Z</time>
      </trkpt>
      <trkpt lat="47.82423" lon="-3.54171">
        <ele>16</ele>
        <time>2019-07-15T11:19:34Z</time>
      </trkpt>
      <trkpt lat="47.82421" lon="-3.54175">
        <ele>15</ele>
        <time>2019-07-15T11:19:35Z</time>
      </trkpt>
      <trkpt lat="47.82418" lon="-3.54179">
        <ele>15</ele>
        <time>2019-07-15T11:19:36Z</time>
      </trkpt>
      <trkpt lat="47.82415" lon="-3.54183">
        <ele>15</ele>
        <time>2019-07-15T11:19:37Z</time>
      </trkpt>
      <trkpt lat="47.82412" lon="-3.54188">
        <ele>15</ele>
        <time>2019-07-15T11:19:38Z</time>
      </trkpt>
      <trkpt lat="47.82409" lon="-3.54192">
        <ele>15</ele>
        <time>2019-07-15T11:19:39Z</time>
      </trkpt>
      <trkpt lat="47.82406" lon="-3.54196">
        <ele>15</ele>
        <time>2019-07-15T11:19:40Z</time>
      </trkpt>
      <trkpt lat="47.82403" lon="-3.542">
        <ele>15</ele>
        <time>2019-07-15T11:19:41Z</time>
      </trkpt>
      <trkpt lat="47.82401" lon="-3.54204">
        <ele>16</ele>
        <time>2019-07-15T11:19:42Z</time>
      </trkpt>
      <trkpt lat="47.82397" lon="-3.54209">
        <ele>16</ele>
        <time>2019-07-15T11:19:43Z</time>
      </trkpt>
      <trkpt lat="47.82394" lon="-3.54214">
        <ele>16</ele>
        <time>2019-07-15T11:19:44Z</time>
      </trkpt>
      <trkpt lat="47.82391" lon="-3.54218">
        <ele>16</ele>
        <time>2019-07-15T11:19:45Z</time>
      </trkpt>
      <trkpt lat="47.82388" lon="-3.54223">
        <ele>16</ele>
        <time>2019-07-15T11:19:46Z</time>
      </trkpt>
      <trkpt lat="47.82385" lon="-3.54227">
        <ele>16</ele>
        <time>2019-07-15T11:19:47Z</time>
      </trkpt>
      <trkpt lat="47.82383" lon="-3.54232">
        <ele>16</ele>
        <time>2019-07-15T11:19:48Z</time>
      </trkpt>
      <trkpt lat="47.8238" lon="-3.54237">
        <ele>16</ele>
        <time>2019-07-15T11:19:49Z</time>
      </trkpt>
      <trkpt lat="47.82377" lon="-3.54241">
        <ele>16</ele>
        <time>2019-07-15T11:19:50Z</time>
      </trkpt>
      <trkpt lat="47.82374" lon="-3.54246">
        <ele>16</ele>
        <time>2019-07-15T11:19:51Z</time>
      </trkpt>
      <trkpt lat="47.82371" lon="-3.54251">
        <ele>16</ele>
        <time>2019-07-15T11:19:52Z</time>
      </trkpt>
      <trkpt lat="47.82369" lon="-3.54256">
        <ele>17</ele>
        <time>2019-07-15T11:19:53Z</time>
      </trkpt>
      <trkpt lat="47.82367" lon="-3.54261">
        <ele>17</ele>
        <time>2019-07-15T11:19:54Z</time>
      </trkpt>
      <trkpt lat="47.82364" lon="-3.54267">
        <ele>17</ele>
        <time>2019-07-15T11:19:55Z</time>
      </trkpt>
      <trkpt lat="47.82364" lon="-3.54272">
        <ele>17</ele>
        <time>2019-07-15T11:19:56Z</time>
      </trkpt>
      <trkpt lat="47.82364" lon="-3.54276">
        <ele>17</ele>
        <time>2019-07-15T11:19:57Z</time>
      </trkpt>
      <trkpt lat="47.82365" lon="-3.54279">
        <ele>18</ele>
        <time>2019-07-15T11:19:58Z</time>
      </trkpt>
      <trkpt lat="47.82364" lon="-3.5428">
        <ele>18</ele>
        <time>2019-07-15T11:19:59Z</time>
      </trkpt>
      <trkpt lat="47.82364" lon="-3.5428">
        <ele>18</ele>
        <time>2019-07-15T11:20:00Z</time>
      </trkpt>
      <trkpt lat="47.82364" lon="-3.54281">
        <ele>19</ele>
        <time>2019-07-15T11:20:01Z</time>
      </trkpt>
      <trkpt lat="47.82363" lon="-3.54281">
        <ele>19</ele>
        <time>2019-07-15T11:20:02Z</time>
      </trkpt>
      <trkpt lat="47.8236" lon="-3.54288">
        <ele>20</ele>
        <time>2019-07-15T11:20:03Z</time>
      </trkpt>
      <trkpt lat="47.82358" lon="-3.54291">
        <ele>20</ele>
        <time>2019-07-15T11:20:04Z</time>
      </trkpt>
      <trkpt lat="47.82357" lon="-3.54294">
        <ele>20</ele>
        <time>2019-07-15T11:20:05Z</time>
      </trkpt>
      <trkpt lat="47.82357" lon="-3.54297">
        <ele>20</ele>
        <time>2019-07-15T11:20:06Z</time>
      </trkpt>
      <trkpt lat="47.82357" lon="-3.543">
        <ele>20</ele>
        <time>2019-07-15T11:20:07Z</time>
      </trkpt>
      <trkpt lat="47.82358" lon="-3.54303">
        <ele>21</ele>
        <time>2019-07-15T11:20:08Z</time>
      </trkpt>
      <trkpt lat="47.8236" lon="-3.54306">
        <ele>21</ele>
        <time>2019-07-15T11:20:09Z</time>
      </trkpt>
      <trkpt lat="47.82361" lon="-3.54307">
        <ele>21</ele>
        <time>2019-07-15T11:20:10Z</time>
      </trkpt>
      <trkpt lat="47.82363" lon="-3.54309">
        <ele>21</ele>
        <time>2019-07-15T11:20:11Z</time>
      </trkpt>
      <trkpt lat="47.82365" lon="-3.54309">
        <ele>21</ele>
        <time>2019-07-15T11:20:12Z</time>
      </trkpt>
      <trkpt lat="47.82367" lon="-3.54311">
        <ele>21</ele>
        <time>2019-07-15T11:20:13Z</time>
      </trkpt>
      <trkpt lat="47.8237" lon="-3.54316">
        <ele>22</ele>
        <time>2019-07-15T11:20:14Z</time>
      </trkpt>
      <trkpt lat="47.82374" lon="-3.5432">
        <ele>22</ele>
        <time>2019-07-15T11:20:15Z</time>
      </trkpt>
      <trkpt lat="47.82377" lon="-3.54326">
        <ele>22</ele>
        <time>2019-07-15T11:20:16Z</time>
      </trkpt>
      <trkpt lat="47.8238" lon="-3.54332">
        <ele>22</ele>
        <time>2019-07-15T11:20:17Z</time>
      </trkpt>
      <trkpt lat="47.82383" lon="-3.54337">
        <ele>23</ele>
        <time>2019-07-15T11:20:18Z</time>
      </trkpt>
      <trkpt lat="47.82385" lon="-3.54343">
        <ele>23</ele>
        <time>2019-07-15T11:20:19Z</time>
      </trkpt>
      <trkpt lat="47.82387" lon="-3.54349">
        <ele>23</ele>
        <time>2019-07-15T11:20:20Z</time>
      </trkpt>
      <trkpt lat="47.82387" lon="-3.54357">
        <ele>24</ele>
        <time>2019-07-15T11:20:21Z</time>
      </trkpt>
      <trkpt lat="47.82387" lon="-3.54366">
        <ele>24</ele>
        <time>2019-07-15T11:20:22Z</time>
      </trkpt>
      <trkpt lat="47.82386" lon="-3.54374">
        <ele>24</ele>
        <time>2019-07-15T11:20:23Z</time>
      </trkpt>
      <trkpt lat="47.82385" lon="-3.54383">
        <ele>25</ele>
        <time>2019-07-15T11:20:24Z</time>
      </trkpt>
      <trkpt lat="47.82383" lon="-3.54392">
        <ele>25</ele>
        <time>2019-07-15T11:20:25Z</time>
      </trkpt>
      <trkpt lat="47.8238" lon="-3.54402">
        <ele>25</ele>
        <time>2019-07-15T11:20:26Z</time>
      </trkpt>
      <trkpt lat="47.82379" lon="-3.54411">
        <ele>26</ele>
        <time>2019-07-15T11:20:27Z</time>
      </trkpt>
      <trkpt lat="47.82377" lon="-3.54419">
        <ele>26</ele>
        <time>2019-07-15T11:20:28Z</time>
      </trkpt>
      <trkpt lat="47.82375" lon="-3.54426">
        <ele>26</ele>
        <time>2019-07-15T11:20:29Z</time>
      </trkpt>
      <trkpt lat="47.82374" lon="-3.54431">
        <ele>27</ele>
        <time>2019-07-15T11:20:30Z</time>
      </trkpt>
      <trkpt lat="47.82372" lon="-3.54433">
        <ele>27</ele>
        <time>2019-07-15T11:20:31Z</time>
      </trkpt>
      <trkpt lat="47.82372" lon="-3.54435">
        <ele>28</ele>
        <time>2019-07-15T11:20:32Z</time>
      </trkpt>
      <trkpt lat="47.82371" lon="-3.54435">
        <ele>28</ele>
        <time>2019-07-15T11:20:33Z</time>
      </trkpt>
      <trkpt lat="47.82371" lon="-3.54436">
        <ele>28</ele>
        <time>2019-07-15T11:20:34Z</time>
      </trkpt>
      <trkpt lat="47.82371" lon="-3.54437">
        <ele>29</ele>
        <time>2019-07-15T11:20:35Z</time>
      </trkpt>
      <trkpt lat="47.82371" lon="-3.54438">
        <ele>29</ele>
        <time>2019-07-15T11:20:36Z</time>
      </trkpt>
      <trkpt lat="47.82371" lon="-3.54439">
        <ele>29</ele>
        <time>2019-07-15T11:20:37Z</time>
      </trkpt>
      <trkpt lat="47.8237" lon="-3.5444">
        <ele>29</ele>
        <time>2019-07-15T11:20:38Z</time>
      </trkpt>
      <trkpt lat="47.8237" lon="-3.54445">
        <ele>30</ele>
        <time>2019-07-15T11:20:39Z</time>
      </trkpt>
      <trkpt lat="47.8237" lon="-3.54445">
        <ele>30</ele>
        <time>2019-07-15T11:20:40Z</time>
      </trkpt>
      <trkpt lat="47.82369" lon="-3.54454">
        <ele>31</ele>
        <time>2019-07-15T11:20:41Z</time>
      </trkpt>
      <trkpt lat="47.82369" lon="-3.54457">
        <ele>31</ele>
        <time>2019-07-15T11:20:42Z</time>
      </trkpt>
      <trkpt lat="47.82368" lon="-3.54461">
        <ele>31</ele>
        <time>2019-07-15T11:20:43Z</time>
      </trkpt>
      <trkpt lat="47.82367" lon="-3.54465">
        <ele>31</ele>
        <time>2019-07-15T11:20:44Z</time>
      </trkpt>
      <trkpt lat="47.82365" lon="-3.54471">
        <ele>31</ele>
        <time>2019-07-15T11:20:45Z</time>
      </trkpt>
      <trkpt lat="47.82364" lon="-3.54477">
        <ele>31</ele>
        <time>2019-07-15T11:20:46Z</time>
      </trkpt>
      <trkpt lat="47.82364" lon="-3.54482">
        <ele>31</ele>
        <time>2019-07-15T11:20:47Z</time>
      </trkpt>
      <trkpt lat="47.82365" lon="-3.54488">
        <ele>31</ele>
        <time>2019-07-15T11:20:48Z</time>
      </trkpt>
      <trkpt lat="47.82367" lon="-3.54494">
        <ele>31</ele>
        <time>2019-07-15T11:20:49Z</time>
      </trkpt>
      <trkpt lat="47.82368" lon="-3.54499">
        <ele>31</ele>
        <time>2019-07-15T11:20:50Z</time>
      </trkpt>
      <trkpt lat="47.82369" lon="-3.54502">
        <ele>31</ele>
        <time>2019-07-15T11:20:51Z</time>
      </trkpt>
      <trkpt lat="47.8237" lon="-3.54506">
        <ele>31</ele>
        <time>2019-07-15T11:20:52Z</time>
      </trkpt>
      <trkpt lat="47.82371" lon="-3.5451">
        <ele>31</ele>
        <time>2019-07-15T11:20:53Z</time>
      </trkpt>
      <trkpt lat="47.82372" lon="-3.54513">
        <ele>31</ele>
        <time>2019-07-15T11:20:54Z</time>
      </trkpt>
      <trkpt lat="47.82372" lon="-3.54517">
        <ele>31</ele>
        <time>2019-07-15T11:20:55Z</time>
      </trkpt>
      <trkpt lat="47.82372" lon="-3.54522">
        <ele>31</ele>
        <time>2019-07-15T11:20:56Z</time>
      </trkpt>
      <trkpt lat="47.82372" lon="-3.54529">
        <ele>31</ele>
        <time>2019-07-15T11:20:57Z</time>
      </trkpt>
      <trkpt lat="47.82371" lon="-3.54535">
        <ele>31</ele>
        <time>2019-07-15T11:20:58Z</time>
      </trkpt>
      <trkpt lat="47.8237" lon="-3.54542">
        <ele>31</ele>
        <time>2019-07-15T11:20:59Z</time>
      </trkpt>
      <trkpt lat="47.8237" lon="-3.54549">
        <ele>31</ele>
        <time>2019-07-15T11:21:00Z</time>
      </trkpt>
      <trkpt lat="47.8237" lon="-3.54555">
        <ele>30</ele>
        <time>2019-07-15T11:21:01Z</time>
      </trkpt>
      <trkpt lat="47.8237" lon="-3.54562">
        <ele>30</ele>
        <time>2019-07-15T11:21:02Z</time>
      </trkpt>
      <trkpt lat="47.8237" lon="-3.54568">
        <ele>30</ele>
        <time>2019-07-15T11:21:03Z</time>
      </trkpt>
      <trkpt lat="47.8237" lon="-3.54574">
        <ele>30</ele>
        <time>2019-07-15T11:21:04Z</time>
      </trkpt>
      <trkpt lat="47.82369" lon="-3.54579">
        <ele>30</ele>
        <time>2019-07-15T11:21:05Z</time>
      </trkpt>
      <trkpt lat="47.82367" lon="-3.54584">
        <ele>30</ele>
        <time>2019-07-15T11:21:06Z</time>
      </trkpt>
      <trkpt lat="47.82365" lon="-3.54588">
        <ele>30</ele>
        <time>2019-07-15T11:21:07Z</time>
      </trkpt>
      <trkpt lat="47.82362" lon="-3.54592">
        <ele>29</ele>
        <time>2019-07-15T11:21:08Z</time>
      </trkpt>
      <trkpt lat="47.8236" lon="-3.54596">
        <ele>29</ele>
        <time>2019-07-15T11:21:09Z</time>
      </trkpt>
      <trkpt lat="47.82357" lon="-3.54598">
        <ele>29</ele>
        <time>2019-07-15T11:21:10Z</time>
      </trkpt>
      <trkpt lat="47.82355" lon="-3.546">
        <ele>29</ele>
        <time>2019-07-15T11:21:11Z</time>
      </trkpt>
      <trkpt lat="47.82354" lon="-3.54601">
        <ele>28</ele>
        <time>2019-07-15T11:21:12Z</time>
      </trkpt>
      <trkpt lat="47.82354" lon="-3.54601">
        <ele>28</ele>
        <time>2019-07-15T11:21:13Z</time>
      </trkpt>
      <trkpt lat="47.82354" lon="-3.54601">
        <ele>28</ele>
        <time>2019-07-15T11:21:14Z</time>
      </trkpt>
      <trkpt lat="47.82354" lon="-3.54599">
        <ele>28</ele>
        <time>2019-07-15T11:21:15Z</time>
      </trkpt>
      <trkpt lat="47.82354" lon="-3.54596">
        <ele>28</ele>
        <time>2019-07-15T11:21:16Z</time>
      </trkpt>
      <trkpt lat="47.82354" lon="-3.54592">
        <ele>27</ele>
        <time>2019-07-15T11:21:17Z</time>
      </trkpt>
      <trkpt lat="47.82353" lon="-3.54587">
        <ele>27</ele>
        <time>2019-07-15T11:21:18Z</time>
      </trkpt>
      <trkpt lat="47.82353" lon="-3.54582">
        <ele>27</ele>
        <time>2019-07-15T11:21:19Z</time>
      </trkpt>
      <trkpt lat="47.82353" lon="-3.54576">
        <ele>26</ele>
        <time>2019-07-15T11:21:20Z</time>
      </trkpt>
      <trkpt lat="47.82352" lon="-3.54572">
        <ele>26</ele>
        <time>2019-07-15T11:21:21Z</time>
      </trkpt>
      <trkpt lat="47.82351" lon="-3.54568">
        <ele>26</ele>
        <time>2019-07-15T11:21:22Z</time>
      </trkpt>
      <trkpt lat="47.8235" lon="-3.54564">
        <ele>25</ele>
        <time>2019-07-15T11:21:23Z</time>
      </trkpt>
      <trkpt lat="47.82349" lon="-3.5456">
        <ele>25</ele>
        <time>2019-07-15T11:21:24Z</time>
      </trkpt>
      <trkpt lat="47.82349" lon="-3.54556">
        <ele>25</ele>
        <time>2019-07-15T11:21:25Z</time>
      </trkpt>
      <trkpt lat="47.82348" lon="-3.54552">
        <ele>25</ele>
        <time>2019-07-15T11:21:26Z</time>
      </trkpt>
      <trkpt lat="47.82348" lon="-3.54548">
        <ele>24</ele>
        <time>2019-07-15T11:21:27Z</time>
      </trkpt>
      <trkpt lat="47.82348" lon="-3.54543">
        <ele>24</ele>
        <time>2019-07-15T11:21:28Z</time>
      </trkpt>
      <trkpt lat="47.82348" lon="-3.54538">
        <ele>24</ele>
        <time>2019-07-15T11:21:29Z</time>
      </trkpt>
      <trkpt lat="47.82347" lon="-3.54532">
        <ele>24</ele>
        <time>2019-07-15T11:21:30Z</time>
      </trkpt>
      <trkpt lat="47.82345" lon="-3.54526">
        <ele>23</ele>
        <time>2019-07-15T11:21:31Z</time>
      </trkpt>
      <trkpt lat="47.82345" lon="-3.54519">
        <ele>23</ele>
        <time>2019-07-15T11:21:32Z</time>
      </trkpt>
      <trkpt lat="47.82344" lon="-3.54512">
        <ele>23</ele>
        <time>2019-07-15T11:21:33Z</time>
      </trkpt>
      <trkpt lat="47.82344" lon="-3.54505">
        <ele>23</ele>
        <time>2019-07-15T11:21:34Z</time>
      </trkpt>
      <trkpt lat="47.82342" lon="-3.54498">
        <ele>22</ele>
        <time>2019-07-15T11:21:35Z</time>
      </trkpt>
      <trkpt lat="47.82341" lon="-3.54492">
        <ele>22</ele>
        <time>2019-07-15T11:21:36Z</time>
      </trkpt>
      <trkpt lat="47.82339" lon="-3.54485">
        <ele>22</ele>
        <time>2019-07-15T11:21:37Z</time>
      </trkpt>
      <trkpt lat="47.82338" lon="-3.54479">
        <ele>22</ele>
        <time>2019-07-15T11:21:38Z</time>
      </trkpt>
      <trkpt lat="47.82338" lon="-3.54474">
        <ele>22</ele>
        <time>2019-07-15T11:21:39Z</time>
      </trkpt>
      <trkpt lat="47.82339" lon="-3.54469">
        <ele>22</ele>
        <time>2019-07-15T11:21:40Z</time>
      </trkpt>
      <trkpt lat="47.82338" lon="-3.54464">
        <ele>22</ele>
        <time>2019-07-15T11:21:41Z</time>
      </trkpt>
      <trkpt lat="47.82337" lon="-3.54459">
        <ele>21</ele>
        <time>2019-07-15T11:21:42Z</time>
      </trkpt>
      <trkpt lat="47.82334" lon="-3.54454">
        <ele>21</ele>
        <time>2019-07-15T11:21:43Z</time>
      </trkpt>
      <trkpt lat="47.82331" lon="-3.54449">
        <ele>21</ele>
        <time>2019-07-15T11:21:44Z</time>
      </trkpt>
      <trkpt lat="47.82328" lon="-3.54444">
        <ele>21</ele>
        <time>2019-07-15T11:21:45Z</time>
      </trkpt>
      <trkpt lat="47.82326" lon="-3.54439">
        <ele>21</ele>
        <time>2019-07-15T11:21:46Z</time>
      </trkpt>
      <trkpt lat="47.82324" lon="-3.54434">
        <ele>20</ele>
        <time>2019-07-15T11:21:47Z</time>
      </trkpt>
      <trkpt lat="47.82322" lon="-3.54429">
        <ele>20</ele>
        <time>2019-07-15T11:21:48Z</time>
      </trkpt>
      <trkpt lat="47.8232" lon="-3.54425">
        <ele>20</ele>
        <time>2019-07-15T11:21:49Z</time>
      </trkpt>
      <trkpt lat="47.82319" lon="-3.5442">
        <ele>20</ele>
        <time>2019-07-15T11:21:50Z</time>
      </trkpt>
      <trkpt lat="47.82319" lon="-3.54416">
        <ele>19</ele>
        <time>2019-07-15T11:21:51Z</time>
      </trkpt>
      <trkpt lat="47.82318" lon="-3.54412">
        <ele>19</ele>
        <time>2019-07-15T11:21:52Z</time>
      </trkpt>
      <trkpt lat="47.82317" lon="-3.54407">
        <ele>19</ele>
        <time>2019-07-15T11:21:53Z</time>
      </trkpt>
      <trkpt lat="47.82316" lon="-3.54404">
        <ele>19</ele>
        <time>2019-07-15T11:21:54Z</time>
      </trkpt>
      <trkpt lat="47.82315" lon="-3.54403">
        <ele>18</ele>
        <time>2019-07-15T11:21:55Z</time>
      </trkpt>
      <trkpt lat="47.82314" lon="-3.54402">
        <ele>18</ele>
        <time>2019-07-15T11:21:56Z</time>
      </trkpt>
      <trkpt lat="47.82313" lon="-3.54401">
        <ele>18</ele>
        <time>2019-07-15T11:21:57Z</time>
      </trkpt>
      <trkpt lat="47.82313" lon="-3.54401">
        <ele>18</ele>
        <time>2019-07-15T11:21:58Z</time>
      </trkpt>
      <trkpt lat="47.8231" lon="-3.54392">
        <ele>16</ele>
        <time>2019-07-15T11:21:59Z</time>
      </trkpt>
      <trkpt lat="47.82311" lon="-3.54389">
        <ele>16</ele>
        <time>2019-07-15T11:22:00Z</time>
      </trkpt>
      <trkpt lat="47.82312" lon="-3.54386">
        <ele>15</ele>
        <time>2019-07-15T11:22:01Z</time>
      </trkpt>
      <trkpt lat="47.82312" lon="-3.54384">
        <ele>15</ele>
        <time>2019-07-15T11:22:02Z</time>
      </trkpt>
      <trkpt lat="47.82312" lon="-3.54383">
        <ele>15</ele>
        <time>2019-07-15T11:22:03Z</time>
      </trkpt>
      <trkpt lat="47.82313" lon="-3.54382">
        <ele>14</ele>
        <time>2019-07-15T11:22:04Z</time>
      </trkpt>
      <trkpt lat="47.82313" lon="-3.54382">
        <ele>14</ele>
        <time>2019-07-15T11:22:05Z</time>
      </trkpt>
      <trkpt lat="47.82315" lon="-3.54373">
        <ele>11</ele>
        <time>2019-07-15T11:22:06Z</time>
      </trkpt>
      <trkpt lat="47.82316" lon="-3.54371">
        <ele>11</ele>
        <time>2019-07-15T11:22:07Z</time>
      </trkpt>
      <trkpt lat="47.82316" lon="-3.5437">
        <ele>11</ele>
        <time>2019-07-15T11:22:08Z</time>
      </trkpt>
      <trkpt lat="47.82316" lon="-3.5437">
        <ele>10</ele>
        <time>2019-07-15T11:22:09Z</time>
      </trkpt>
      <trkpt lat="47.82314" lon="-3.54371">
        <ele>7</ele>
        <time>2019-07-15T11:22:10Z</time>
      </trkpt>
      <trkpt lat="47.82313" lon="-3.54372">
        <ele>6</ele>
        <time>2019-07-15T11:22:11Z</time>
      </trkpt>
      <trkpt lat="47.8231" lon="-3.54374">
        <ele>5</ele>
        <time>2019-07-15T11:22:12Z</time>
      </trkpt>
      <trkpt lat="47.82308" lon="-3.54376">
        <ele>4</ele>
        <time>2019-07-15T11:22:13Z</time>
      </trkpt>
      <trkpt lat="47.82307" lon="-3.54379">
        <ele>4</ele>
        <time>2019-07-15T11:22:14Z</time>
      </trkpt>
      <trkpt lat="47.82305" lon="-3.54383">
        <ele>4</ele>
        <time>2019-07-15T11:22:15Z</time>
      </trkpt>
      <trkpt lat="47.82303" lon="-3.54386">
        <ele>4</ele>
        <time>2019-07-15T11:22:16Z</time>
      </trkpt>
      <trkpt lat="47.82302" lon="-3.54389">
        <ele>3</ele>
        <time>2019-07-15T11:22:17Z</time>
      </trkpt>
      <trkpt lat="47.82301" lon="-3.5439">
        <ele>3</ele>
        <time>2019-07-15T11:22:18Z</time>
      </trkpt>
      <trkpt lat="47.823" lon="-3.54391">
        <ele>3</ele>
        <time>2019-07-15T11:22:19Z</time>
      </trkpt>
      <trkpt lat="47.82299" lon="-3.54391">
        <ele>3</ele>
        <time>2019-07-15T11:22:20Z</time>
      </trkpt>
      <trkpt lat="47.82299" lon="-3.54391">
        <ele>3</ele>
        <time>2019-07-15T11:22:21Z</time>
      </trkpt>
      <trkpt lat="47.82295" lon="-3.54383">
        <ele>3</ele>
        <time>2019-07-15T11:22:22Z</time>
      </trkpt>
      <trkpt lat="47.82294" lon="-3.54382">
        <ele>3</ele>
        <time>2019-07-15T11:22:23Z</time>
      </trkpt>
      <trkpt lat="47.82295" lon="-3.54381">
        <ele>3</ele>
        <time>2019-07-15T11:22:24Z</time>
      </trkpt>
      <trkpt lat="47.82295" lon="-3.54379">
        <ele>3</ele>
        <time>2019-07-15T11:22:25Z</time>
      </trkpt>
      <trkpt lat="47.82287" lon="-3.54367">
        <ele>3</ele>
        <time>2019-07-15T11:22:26Z</time>
      </trkpt>
      <trkpt lat="47.82286" lon="-3.54367">
        <ele>3</ele>
        <time>2019-07-15T11:22:27Z</time>
      </trkpt>
      <trkpt lat="47.82286" lon="-3.54367">
        <ele>3</ele>
        <time>2019-07-15T11:22:28Z</time>
      </trkpt>
      <trkpt lat="47.82285" lon="-3.54367">
        <ele>3</ele>
        <time>2019-07-15T11:22:29Z</time>
      </trkpt>
      <trkpt lat="47.82284" lon="-3.54367">
        <ele>3</ele>
        <time>2019-07-15T11:22:30Z</time>
      </trkpt>
      <trkpt lat="47.82283" lon="-3.54368">
        <ele>3</ele>
        <time>2019-07-15T11:22:31Z</time>
      </trkpt>
      <trkpt lat="47.82278" lon="-3.54366">
        <ele>2</ele>
        <time>2019-07-15T11:22:32Z</time>
      </trkpt>
      <trkpt lat="47.82276" lon="-3.54367">
        <ele>2</ele>
        <time>2019-07-15T11:22:33Z</time>
      </trkpt>
      <trkpt lat="47.82276" lon="-3.54367">
        <ele>2</ele>
        <time>2019-07-15T11:22:34Z</time>
      </trkpt>
      <trkpt lat="47.82275" lon="-3.54367">
        <ele>2</ele>
        <time>2019-07-15T11:22:35Z</time>
      </trkpt>
      <trkpt lat="47.82274" lon="-3.54367">
        <ele>2</ele>
        <time>2019-07-15T11:22:36Z</time>
      </trkpt>
      <trkpt lat="47.82273" lon="-3.54367">
        <ele>2</ele>
        <time>2019-07-15T11:22:37Z</time>
      </trkpt>
      <trkpt lat="47.82272" lon="-3.54367">
        <ele>2</ele>
        <time>2019-07-15T11:22:38Z</time>
      </trkpt>
      <trkpt lat="47.82271" lon="-3.54367">
        <ele>1</ele>
        <time>2019-07-15T11:22:39Z</time>
      </trkpt>
      <trkpt lat="47.8227" lon="-3.54367">
        <ele>1</ele>
        <time>2019-07-15T11:22:40Z</time>
      </trkpt>
      <trkpt lat="47.82269" lon="-3.54366">
        <ele>1</ele>
        <time>2019-07-15T11:22:41Z</time>
      </trkpt>
      <trkpt lat="47.82269" lon="-3.54366">
        <ele>1</ele>
        <time>2019-07-15T11:22:42Z</time>
      </trkpt>
      <trkpt lat="47.82269" lon="-3.54366">
        <ele>1</ele>
        <time>2019-07-15T11:22:43Z</time>
      </trkpt>
      <trkpt lat="47.8226" lon="-3.54365">
        <ele>6.2</ele>
        <time>2019-07-15T11:22:44Z</time>
      </trkpt>
      <trkpt lat="47.82258" lon="-3.54363">
        <ele>6.1</ele>
        <time>2019-07-15T11:22:45Z</time>
      </trkpt>
      <trkpt lat="47.82256" lon="-3.54363">
        <ele>6.3</ele>
        <time>2019-07-15T11:22:46Z</time>
      </trkpt>
      <trkpt lat="47.82254" lon="-3.54363">
        <ele>6.2</ele>
        <time>2019-07-15T11:22:47Z</time>
      </trkpt>
      <trkpt lat="47.82252" lon="-3.54362">
        <ele>6.2</ele>
        <time>2019-07-15T11:22:48Z</time>
      </trkpt>
      <trkpt lat="47.8225" lon="-3.54361">
        <ele>6.1</ele>
        <time>2019-07-15T11:22:49Z</time>
      </trkpt>
      <trkpt lat="47.82248" lon="-3.54359">
        <ele>6.1</ele>
        <time>2019-07-15T11:22:50Z</time>
      </trkpt>
      <trkpt lat="47.82245" lon="-3.54358">
        <ele>6.3</ele>
        <time>2019-07-15T11:22:51Z</time>
      </trkpt>
      <trkpt lat="47.82243" lon="-3.54357">
        <ele>1</ele>
        <time>2019-07-15T11:22:52Z</time>
      </trkpt>
      <trkpt lat="47.82242" lon="-3.54358">
        <ele>1</ele>
        <time>2019-07-15T11:22:53Z</time>
      </trkpt>
      <trkpt lat="47.8224" lon="-3.54359">
        <ele>1</ele>
        <time>2019-07-15T11:22:54Z</time>
      </trkpt>
      <trkpt lat="47.82238" lon="-3.54359">
        <ele>1</ele>
        <time>2019-07-15T11:22:55Z</time>
      </trkpt>
      <trkpt lat="47.82237" lon="-3.5436">
        <ele>1</ele>
        <time>2019-07-15T11:22:56Z</time>
      </trkpt>
      <trkpt lat="47.82236" lon="-3.54361">
        <ele>1</ele>
        <time>2019-07-15T11:22:57Z</time>
      </trkpt>
      <trkpt lat="47.82234" lon="-3.54361">
        <ele>1</ele>
        <time>2019-07-15T11:22:58Z</time>
      </trkpt>
      <trkpt lat="47.82232" lon="-3.5436">
        <ele>2</ele>
        <time>2019-07-15T11:22:59Z</time>
      </trkpt>
      <trkpt lat="47.8223" lon="-3.54359">
        <ele>2</ele>
        <time>2019-07-15T11:23:00Z</time>
      </trkpt>
      <trkpt lat="47.82228" lon="-3.54358">
        <ele>2</ele>
        <time>2019-07-15T11:23:01Z</time>
      </trkpt>
      <trkpt lat="47.82226" lon="-3.54356">
        <ele>2</ele>
        <time>2019-07-15T11:23:02Z</time>
      </trkpt>
      <trkpt lat="47.82223" lon="-3.54355">
        <ele>2</ele>
        <time>2019-07-15T11:23:03Z</time>
      </trkpt>
      <trkpt lat="47.8222" lon="-3.54353">
        <ele>2</ele>
        <time>2019-07-15T11:23:04Z</time>
      </trkpt>
      <trkpt lat="47.82217" lon="-3.5435">
        <ele>3</ele>
        <time>2019-07-15T11:23:05Z</time>
      </trkpt>
      <trkpt lat="47.82216" lon="-3.54346">
        <ele>3</ele>
        <time>2019-07-15T11:23:06Z</time>
      </trkpt>
      <trkpt lat="47.82213" lon="-3.54341">
        <ele>3</ele>
        <time>2019-07-15T11:23:07Z</time>
      </trkpt>
      <trkpt lat="47.8221" lon="-3.54337">
        <ele>3</ele>
        <time>2019-07-15T11:23:08Z</time>
      </trkpt>
      <trkpt lat="47.82207" lon="-3.54333">
        <ele>4</ele>
        <time>2019-07-15T11:23:09Z</time>
      </trkpt>
      <trkpt lat="47.82204" lon="-3.5433">
        <ele>4</ele>
        <time>2019-07-15T11:23:10Z</time>
      </trkpt>
      <trkpt lat="47.822" lon="-3.54326">
        <ele>4</ele>
        <time>2019-07-15T11:23:11Z</time>
      </trkpt>
      <trkpt lat="47.82195" lon="-3.54324">
        <ele>4</ele>
        <time>2019-07-15T11:23:12Z</time>
      </trkpt>
      <trkpt lat="47.82191" lon="-3.54323">
        <ele>4</ele>
        <time>2019-07-15T11:23:13Z</time>
      </trkpt>
      <trkpt lat="47.82188" lon="-3.54321">
        <ele>5</ele>
        <time>2019-07-15T11:23:14Z</time>
      </trkpt>
      <trkpt lat="47.82186" lon="-3.54318">
        <ele>5</ele>
        <time>2019-07-15T11:23:15Z</time>
      </trkpt>
      <trkpt lat="47.82184" lon="-3.54313">
        <ele>5</ele>
        <time>2019-07-15T11:23:16Z</time>
      </trkpt>
      <trkpt lat="47.82181" lon="-3.5431">
        <ele>5</ele>
        <time>2019-07-15T11:23:17Z</time>
      </trkpt>
      <trkpt lat="47.82176" lon="-3.54308">
        <ele>5</ele>
        <time>2019-07-15T11:23:18Z</time>
      </trkpt>
      <trkpt lat="47.82172" lon="-3.54307">
        <ele>6</ele>
        <time>2019-07-15T11:23:19Z</time>
      </trkpt>
      <trkpt lat="47.82168" lon="-3.54306">
        <ele>6</ele>
        <time>2019-07-15T11:23:20Z</time>
      </trkpt>
      <trkpt lat="47.82165" lon="-3.54306">
        <ele>6</ele>
        <time>2019-07-15T11:23:21Z</time>
      </trkpt>
      <trkpt lat="47.82163" lon="-3.54304">
        <ele>6</ele>
        <time>2019-07-15T11:23:22Z</time>
      </trkpt>
      <trkpt lat="47.82159" lon="-3.54303">
        <ele>6</ele>
        <time>2019-07-15T11:23:23Z</time>
      </trkpt>
      <trkpt lat="47.82155" lon="-3.54301">
        <ele>7</ele>
        <time>2019-07-15T11:23:24Z</time>
      </trkpt>
      <trkpt lat="47.82152" lon="-3.543">
        <ele>7</ele>
        <time>2019-07-15T11:23:25Z</time>
      </trkpt>
      <trkpt lat="47.82148" lon="-3.54299">
        <ele>7</ele>
        <time>2019-07-15T11:23:26Z</time>
      </trkpt>
      <trkpt lat="47.82143" lon="-3.54297">
        <ele>7</ele>
        <time>2019-07-15T11:23:27Z</time>
      </trkpt>
      <trkpt lat="47.82139" lon="-3.54297">
        <ele>7</ele>
        <time>2019-07-15T11:23:28Z</time>
      </trkpt>
      <trkpt lat="47.82135" lon="-3.54298">
        <ele>8</ele>
        <time>2019-07-15T11:23:29Z</time>
      </trkpt>
      <trkpt lat="47.82131" lon="-3.543">
        <ele>8</ele>
        <time>2019-07-15T11:23:30Z</time>
      </trkpt>
      <trkpt lat="47.82127" lon="-3.54302">
        <ele>8</ele>
        <time>2019-07-15T11:23:31Z</time>
      </trkpt>
      <trkpt lat="47.82124" lon="-3.54304">
        <ele>9</ele>
        <time>2019-07-15T11:23:32Z</time>
      </trkpt>
      <trkpt lat="47.82122" lon="-3.54305">
        <ele>9</ele>
        <time>2019-07-15T11:23:33Z</time>
      </trkpt>
      <trkpt lat="47.82119" lon="-3.54307">
        <ele>9</ele>
        <time>2019-07-15T11:23:34Z</time>
      </trkpt>
      <trkpt lat="47.82116" lon="-3.54309">
        <ele>10</ele>
        <time>2019-07-15T11:23:35Z</time>
      </trkpt>
      <trkpt lat="47.82114" lon="-3.5431">
        <ele>10</ele>
        <time>2019-07-15T11:23:36Z</time>
      </trkpt>
      <trkpt lat="47.82112" lon="-3.54311">
        <ele>11</ele>
        <time>2019-07-15T11:23:37Z</time>
      </trkpt>
      <trkpt lat="47.8211" lon="-3.54312">
        <ele>11</ele>
        <time>2019-07-15T11:23:38Z</time>
      </trkpt>
      <trkpt lat="47.82107" lon="-3.54314">
        <ele>11</ele>
        <time>2019-07-15T11:23:39Z</time>
      </trkpt>
      <trkpt lat="47.82105" lon="-3.54316">
        <ele>12</ele>
        <time>2019-07-15T11:23:40Z</time>
      </trkpt>
      <trkpt lat="47.82102" lon="-3.54316">
        <ele>12</ele>
        <time>2019-07-15T11:23:41Z</time>
      </trkpt>
      <trkpt lat="47.82099" lon="-3.54317">
        <ele>12</ele>
        <time>2019-07-15T11:23:42Z</time>
      </trkpt>
      <trkpt lat="47.82096" lon="-3.54319">
        <ele>13</ele>
        <time>2019-07-15T11:23:43Z</time>
      </trkpt>
      <trkpt lat="47.82094" lon="-3.54321">
        <ele>13</ele>
        <time>2019-07-15T11:23:44Z</time>
      </trkpt>
      <trkpt lat="47.82091" lon="-3.54323">
        <ele>13</ele>
        <time>2019-07-15T11:23:45Z</time>
      </trkpt>
      <trkpt lat="47.82088" lon="-3.54323">
        <ele>14</ele>
        <time>2019-07-15T11:23:46Z</time>
      </trkpt>
      <trkpt lat="47.82086" lon="-3.54324">
        <ele>14</ele>
        <time>2019-07-15T11:23:47Z</time>
      </trkpt>
      <trkpt lat="47.82083" lon="-3.54325">
        <ele>15</ele>
        <time>2019-07-15T11:23:48Z</time>
      </trkpt>
      <trkpt lat="47.8208" lon="-3.54326">
        <ele>15</ele>
        <time>2019-07-15T11:23:49Z</time>
      </trkpt>
      <trkpt lat="47.82077" lon="-3.54327">
        <ele>15</ele>
        <time>2019-07-15T11:23:50Z</time>
      </trkpt>
      <trkpt lat="47.82075" lon="-3.54329">
        <ele>16</ele>
        <time>2019-07-15T11:23:51Z</time>
      </trkpt>
      <trkpt lat="47.82073" lon="-3.54331">
        <ele>16</ele>
        <time>2019-07-15T11:23:52Z</time>
      </trkpt>
      <trkpt lat="47.82071" lon="-3.54332">
        <ele>17</ele>
        <time>2019-07-15T11:23:53Z</time>
      </trkpt>
      <trkpt lat="47.82069" lon="-3.54333">
        <ele>17</ele>
        <time>2019-07-15T11:23:54Z</time>
      </trkpt>
      <trkpt lat="47.82067" lon="-3.54335">
        <ele>17</ele>
        <time>2019-07-15T11:23:55Z</time>
      </trkpt>
      <trkpt lat="47.82065" lon="-3.54337">
        <ele>18</ele>
        <time>2019-07-15T11:23:56Z</time>
      </trkpt>
      <trkpt lat="47.82062" lon="-3.54338">
        <ele>18</ele>
        <time>2019-07-15T11:23:57Z</time>
      </trkpt>
      <trkpt lat="47.8206" lon="-3.54339">
        <ele>19</ele>
        <time>2019-07-15T11:23:58Z</time>
      </trkpt>
      <trkpt lat="47.82059" lon="-3.5434">
        <ele>19</ele>
        <time>2019-07-15T11:23:59Z</time>
      </trkpt>
      <trkpt lat="47.82056" lon="-3.54342">
        <ele>19</ele>
        <time>2019-07-15T11:24:00Z</time>
      </trkpt>
      <trkpt lat="47.82053" lon="-3.54343">
        <ele>20</ele>
        <time>2019-07-15T11:24:01Z</time>
      </trkpt>
      <trkpt lat="47.82051" lon="-3.54346">
        <ele>20</ele>
        <time>2019-07-15T11:24:02Z</time>
      </trkpt>
      <trkpt lat="47.82049" lon="-3.54347">
        <ele>20</ele>
        <time>2019-07-15T11:24:03Z</time>
      </trkpt>
      <trkpt lat="47.82047" lon="-3.54349">
        <ele>21</ele>
        <time>2019-07-15T11:24:04Z</time>
      </trkpt>
      <trkpt lat="47.82045" lon="-3.54351">
        <ele>21</ele>
        <time>2019-07-15T11:24:05Z</time>
      </trkpt>
      <trkpt lat="47.82043" lon="-3.54353">
        <ele>22</ele>
        <time>2019-07-15T11:24:06Z</time>
      </trkpt>
      <trkpt lat="47.82041" lon="-3.54354">
        <ele>22</ele>
        <time>2019-07-15T11:24:07Z</time>
      </trkpt>
      <trkpt lat="47.82039" lon="-3.54355">
        <ele>22</ele>
        <time>2019-07-15T11:24:08Z</time>
      </trkpt>
      <trkpt lat="47.82036" lon="-3.54356">
        <ele>23</ele>
        <time>2019-07-15T11:24:09Z</time>
      </trkpt>
      <trkpt lat="47.82034" lon="-3.54358">
        <ele>23</ele>
        <time>2019-07-15T11:24:10Z</time>
      </trkpt>
      <trkpt lat="47.82032" lon="-3.5436">
        <ele>23</ele>
        <time>2019-07-15T11:24:11Z</time>
      </trkpt>
      <trkpt lat="47.8203" lon="-3.54361">
        <ele>23</ele>
        <time>2019-07-15T11:24:12Z</time>
      </trkpt>
      <trkpt lat="47.82027" lon="-3.54363">
        <ele>24</ele>
        <time>2019-07-15T11:24:13Z</time>
      </trkpt>
      <trkpt lat="47.82025" lon="-3.54364">
        <ele>24</ele>
        <time>2019-07-15T11:24:14Z</time>
      </trkpt>
      <trkpt lat="47.82024" lon="-3.54365">
        <ele>24</ele>
        <time>2019-07-15T11:24:15Z</time>
      </trkpt>
      <trkpt lat="47.82021" lon="-3.54366">
        <ele>25</ele>
        <time>2019-07-15T11:24:16Z</time>
      </trkpt>
      <trkpt lat="47.82019" lon="-3.54368">
        <ele>25</ele>
        <time>2019-07-15T11:24:17Z</time>
      </trkpt>
      <trkpt lat="47.82016" lon="-3.5437">
        <ele>25</ele>
        <time>2019-07-15T11:24:18Z</time>
      </trkpt>
      <trkpt lat="47.82013" lon="-3.54371">
        <ele>25</ele>
        <time>2019-07-15T11:24:19Z</time>
      </trkpt>
      <trkpt lat="47.82011" lon="-3.54372">
        <ele>26</ele>
        <time>2019-07-15T11:24:20Z</time>
      </trkpt>
      <trkpt lat="47.82009" lon="-3.54374">
        <ele>26</ele>
        <time>2019-07-15T11:24:21Z</time>
      </trkpt>
      <trkpt lat="47.82006" lon="-3.54376">
        <ele>26</ele>
        <time>2019-07-15T11:24:22Z</time>
      </trkpt>
      <trkpt lat="47.82004" lon="-3.54377">
        <ele>27</ele>
        <time>2019-07-15T11:24:23Z</time>
      </trkpt>
      <trkpt lat="47.82002" lon="-3.54378">
        <ele>27</ele>
        <time>2019-07-15T11:24:24Z</time>
      </trkpt>
      <trkpt lat="47.82" lon="-3.5438">
        <ele>27</ele>
        <time>2019-07-15T11:24:25Z</time>
      </trkpt>
      <trkpt lat="47.81998" lon="-3.54382">
        <ele>27</ele>
        <time>2019-07-15T11:24:26Z</time>
      </trkpt>
      <trkpt lat="47.81996" lon="-3.54383">
        <ele>28</ele>
        <time>2019-07-15T11:24:27Z</time>
      </trkpt>
      <trkpt lat="47.81993" lon="-3.54385">
        <ele>28</ele>
        <time>2019-07-15T11:24:28Z</time>
      </trkpt>
      <trkpt lat="47.81991" lon="-3.54386">
        <ele>28</ele>
        <time>2019-07-15T11:24:29Z</time>
      </trkpt>
      <trkpt lat="47.8199" lon="-3.54387">
        <ele>29</ele>
        <time>2019-07-15T11:24:30Z</time>
      </trkpt>
      <trkpt lat="47.81988" lon="-3.54388">
        <ele>29</ele>
        <time>2019-07-15T11:24:31Z</time>
      </trkpt>
      <trkpt lat="47.81986" lon="-3.54389">
        <ele>29</ele>
        <time>2019-07-15T11:24:32Z</time>
      </trkpt>
      <trkpt lat="47.81985" lon="-3.5439">
        <ele>30</ele>
        <time>2019-07-15T11:24:33Z</time>
      </trkpt>
      <trkpt lat="47.81984" lon="-3.54391">
        <ele>30</ele>
        <time>2019-07-15T11:24:34Z</time>
      </trkpt>
      <trkpt lat="47.81983" lon="-3.54391">
        <ele>31</ele>
        <time>2019-07-15T11:24:35Z</time>
      </trkpt>
      <trkpt lat="47.81982" lon="-3.54391">
        <ele>31</ele>
        <time>2019-07-15T11:24:36Z</time>
      </trkpt>
      <trkpt lat="47.81982" lon="-3.54392">
        <ele>31</ele>
        <time>2019-07-15T11:24:37Z</time>
      </trkpt>
      <trkpt lat="47.81981" lon="-3.54392">
        <ele>32</ele>
        <time>2019-07-15T11:24:38Z</time>
      </trkpt>
      <trkpt lat="47.81971" lon="-3.54397">
        <ele>43</ele>
        <time>2019-07-15T11:24:39Z</time>
      </trkpt>
      <trkpt lat="47.8197" lon="-3.54399">
        <ele>43</ele>
        <time>2019-07-15T11:24:40Z</time>
      </trkpt>
      <trkpt lat="47.81969" lon="-3.54401">
        <ele>43</ele>
        <time>2019-07-15T11:24:41Z</time>
      </trkpt>
      <trkpt lat="47.81968" lon="-3.54403">
        <ele>43</ele>
        <time>2019-07-15T11:24:42Z</time>
      </trkpt>
      <trkpt lat="47.81967" lon="-3.54405">
        <ele>43</ele>
        <time>2019-07-15T11:24:43Z</time>
      </trkpt>
      <trkpt lat="47.81965" lon="-3.54406">
        <ele>43</ele>
        <time>2019-07-15T11:24:44Z</time>
      </trkpt>
      <trkpt lat="47.81964" lon="-3.54408">
        <ele>44</ele>
        <time>2019-07-15T11:24:45Z</time>
      </trkpt>
      <trkpt lat="47.81962" lon="-3.54411">
        <ele>44</ele>
        <time>2019-07-15T11:24:46Z</time>
      </trkpt>
      <trkpt lat="47.81961" lon="-3.54413">
        <ele>44</ele>
        <time>2019-07-15T11:24:47Z</time>
      </trkpt>
      <trkpt lat="47.81959" lon="-3.54416">
        <ele>44</ele>
        <time>2019-07-15T11:24:48Z</time>
      </trkpt>
      <trkpt lat="47.81957" lon="-3.54418">
        <ele>44</ele>
        <time>2019-07-15T11:24:49Z</time>
      </trkpt>
      <trkpt lat="47.81955" lon="-3.54421">
        <ele>45</ele>
        <time>2019-07-15T11:24:50Z</time>
      </trkpt>
      <trkpt lat="47.81954" lon="-3.54424">
        <ele>45</ele>
        <time>2019-07-15T11:24:51Z</time>
      </trkpt>
      <trkpt lat="47.81953" lon="-3.54426">
        <ele>45</ele>
        <time>2019-07-15T11:24:52Z</time>
      </trkpt>
      <trkpt lat="47.81952" lon="-3.54429">
        <ele>45</ele>
        <time>2019-07-15T11:24:53Z</time>
      </trkpt>
      <trkpt lat="47.81951" lon="-3.54433">
        <ele>46</ele>
        <time>2019-07-15T11:24:54Z</time>
      </trkpt>
      <trkpt lat="47.8195" lon="-3.54437">
        <ele>46</ele>
        <time>2019-07-15T11:24:55Z</time>
      </trkpt>
      <trkpt lat="47.8195" lon="-3.54439">
        <ele>46</ele>
        <time>2019-07-15T11:24:56Z</time>
      </trkpt>
      <trkpt lat="47.81949" lon="-3.54443">
        <ele>46</ele>
        <time>2019-07-15T11:24:57Z</time>
      </trkpt>
      <trkpt lat="47.81948" lon="-3.54446">
        <ele>47</ele>
        <time>2019-07-15T11:24:58Z</time>
      </trkpt>
      <trkpt lat="47.81946" lon="-3.54448">
        <ele>47</ele>
        <time>2019-07-15T11:24:59Z</time>
      </trkpt>
      <trkpt lat="47.81945" lon="-3.54451">
        <ele>47</ele>
        <time>2019-07-15T11:25:00Z</time>
      </trkpt>
      <trkpt lat="47.81944" lon="-3.54454">
        <ele>47</ele>
        <time>2019-07-15T11:25:01Z</time>
      </trkpt>
      <trkpt lat="47.81942" lon="-3.54457">
        <ele>47</ele>
        <time>2019-07-15T11:25:02Z</time>
      </trkpt>
      <trkpt lat="47.8194" lon="-3.54459">
        <ele>47</ele>
        <time>2019-07-15T11:25:03Z</time>
      </trkpt>
      <trkpt lat="47.81939" lon="-3.54461">
        <ele>48</ele>
        <time>2019-07-15T11:25:04Z</time>
      </trkpt>
      <trkpt lat="47.81938" lon="-3.54462">
        <ele>48</ele>
        <time>2019-07-15T11:25:05Z</time>
      </trkpt>
      <trkpt lat="47.81937" lon="-3.54464">
        <ele>48</ele>
        <time>2019-07-15T11:25:06Z</time>
      </trkpt>
      <trkpt lat="47.81936" lon="-3.54464">
        <ele>48</ele>
        <time>2019-07-15T11:25:07Z</time>
      </trkpt>
      <trkpt lat="47.81935" lon="-3.54464">
        <ele>48</ele>
        <time>2019-07-15T11:25:08Z</time>
      </trkpt>
      <trkpt lat="47.81934" lon="-3.54464">
        <ele>48</ele>
        <time>2019-07-15T11:25:09Z</time>
      </trkpt>
      <trkpt lat="47.81934" lon="-3.54465">
        <ele>48</ele>
        <time>2019-07-15T11:25:10Z</time>
      </trkpt>
      <trkpt lat="47.81929" lon="-3.54467">
        <ele>49</ele>
        <time>2019-07-15T11:25:11Z</time>
      </trkpt>
      <trkpt lat="47.81928" lon="-3.54467">
        <ele>49</ele>
        <time>2019-07-15T11:25:12Z</time>
      </trkpt>
      <trkpt lat="47.81927" lon="-3.54468">
        <ele>49</ele>
        <time>2019-07-15T11:25:13Z</time>
      </trkpt>
      <trkpt lat="47.81926" lon="-3.54469">
        <ele>50</ele>
        <time>2019-07-15T11:25:14Z</time>
      </trkpt>
      <trkpt lat="47.81926" lon="-3.5447">
        <ele>50</ele>
        <time>2019-07-15T11:25:15Z</time>
      </trkpt>
      <trkpt lat="47.81919" lon="-3.54477">
        <ele>49</ele>
        <time>2019-07-15T11:25:16Z</time>
      </trkpt>
      <trkpt lat="47.81917" lon="-3.54479">
        <ele>49</ele>
        <time>2019-07-15T11:25:17Z</time>
      </trkpt>
      <trkpt lat="47.81916" lon="-3.54481">
        <ele>49</ele>
        <time>2019-07-15T11:25:18Z</time>
      </trkpt>
      <trkpt lat="47.81915" lon="-3.54483">
        <ele>49</ele>
        <time>2019-07-15T11:25:19Z</time>
      </trkpt>
      <trkpt lat="47.81913" lon="-3.54485">
        <ele>49</ele>
        <time>2019-07-15T11:25:20Z</time>
      </trkpt>
      <trkpt lat="47.81911" lon="-3.54487">
        <ele>49</ele>
        <time>2019-07-15T11:25:21Z</time>
      </trkpt>
      <trkpt lat="47.81909" lon="-3.54489">
        <ele>49</ele>
        <time>2019-07-15T11:25:22Z</time>
      </trkpt>
      <trkpt lat="47.81908" lon="-3.54491">
        <ele>49</ele>
        <time>2019-07-15T11:25:23Z</time>
      </trkpt>
      <trkpt lat="47.81907" lon="-3.54494">
        <ele>48</ele>
        <time>2019-07-15T11:25:24Z</time>
      </trkpt>
      <trkpt lat="47.81905" lon="-3.54497">
        <ele>48</ele>
        <time>2019-07-15T11:25:25Z</time>
      </trkpt>
      <trkpt lat="47.81904" lon="-3.545">
        <ele>48</ele>
        <time>2019-07-15T11:25:26Z</time>
      </trkpt>
      <trkpt lat="47.81902" lon="-3.54502">
        <ele>48</ele>
        <time>2019-07-15T11:25:27Z</time>
      </trkpt>
      <trkpt lat="47.81901" lon="-3.54505">
        <ele>48</ele>
        <time>2019-07-15T11:25:28Z</time>
      </trkpt>
      <trkpt lat="47.81899" lon="-3.54507">
        <ele>48</ele>
        <time>2019-07-15T11:25:29Z</time>
      </trkpt>
      <trkpt lat="47.81897" lon="-3.5451">
        <ele>48</ele>
        <time>2019-07-15T11:25:30Z</time>
      </trkpt>
      <trkpt lat="47.81895" lon="-3.54512">
        <ele>48</ele>
        <time>2019-07-15T11:25:31Z</time>
      </trkpt>
      <trkpt lat="47.81894" lon="-3.54515">
        <ele>48</ele>
        <time>2019-07-15T11:25:32Z</time>
      </trkpt>
      <trkpt lat="47.81892" lon="-3.54517">
        <ele>48</ele>
        <time>2019-07-15T11:25:33Z</time>
      </trkpt>
      <trkpt lat="47.81891" lon="-3.5452">
        <ele>48</ele>
        <time>2019-07-15T11:25:34Z</time>
      </trkpt>
      <trkpt lat="47.8189" lon="-3.54522">
        <ele>47</ele>
        <time>2019-07-15T11:25:35Z</time>
      </trkpt>
      <trkpt lat="47.81888" lon="-3.54525">
        <ele>47</ele>
        <time>2019-07-15T11:25:36Z</time>
      </trkpt>
      <trkpt lat="47.81887" lon="-3.54527">
        <ele>47</ele>
        <time>2019-07-15T11:25:37Z</time>
      </trkpt>
      <trkpt lat="47.81885" lon="-3.54529">
        <ele>47</ele>
        <time>2019-07-15T11:25:38Z</time>
      </trkpt>
      <trkpt lat="47.81884" lon="-3.5453">
        <ele>47</ele>
        <time>2019-07-15T11:25:39Z</time>
      </trkpt>
      <trkpt lat="47.81882" lon="-3.54533">
        <ele>47</ele>
        <time>2019-07-15T11:25:40Z</time>
      </trkpt>
      <trkpt lat="47.81881" lon="-3.54535">
        <ele>47</ele>
        <time>2019-07-15T11:25:41Z</time>
      </trkpt>
      <trkpt lat="47.81879" lon="-3.54537">
        <ele>47</ele>
        <time>2019-07-15T11:25:42Z</time>
      </trkpt>
      <trkpt lat="47.81878" lon="-3.54539">
        <ele>47</ele>
        <time>2019-07-15T11:25:43Z</time>
      </trkpt>
      <trkpt lat="47.81876" lon="-3.5454">
        <ele>46</ele>
        <time>2019-07-15T11:25:44Z</time>
      </trkpt>
      <trkpt lat="47.81875" lon="-3.54543">
        <ele>46</ele>
        <time>2019-07-15T11:25:45Z</time>
      </trkpt>
      <trkpt lat="47.81874" lon="-3.54545">
        <ele>46</ele>
        <time>2019-07-15T11:25:46Z</time>
      </trkpt>
      <trkpt lat="47.81873" lon="-3.54547">
        <ele>46</ele>
        <time>2019-07-15T11:25:47Z</time>
      </trkpt>
      <trkpt lat="47.81872" lon="-3.54549">
        <ele>46</ele>
        <time>2019-07-15T11:25:48Z</time>
      </trkpt>
      <trkpt lat="47.81871" lon="-3.54551">
        <ele>46</ele>
        <time>2019-07-15T11:25:49Z</time>
      </trkpt>
      <trkpt lat="47.8187" lon="-3.54552">
        <ele>45</ele>
        <time>2019-07-15T11:25:50Z</time>
      </trkpt>
      <trkpt lat="47.81868" lon="-3.54554">
        <ele>45</ele>
        <time>2019-07-15T11:25:51Z</time>
      </trkpt>
      <trkpt lat="47.81867" lon="-3.54556">
        <ele>45</ele>
        <time>2019-07-15T11:25:52Z</time>
      </trkpt>
      <trkpt lat="47.81865" lon="-3.54559">
        <ele>45</ele>
        <time>2019-07-15T11:25:53Z</time>
      </trkpt>
      <trkpt lat="47.81863" lon="-3.54562">
        <ele>45</ele>
        <time>2019-07-15T11:25:54Z</time>
      </trkpt>
      <trkpt lat="47.81861" lon="-3.54564">
        <ele>45</ele>
        <time>2019-07-15T11:25:55Z</time>
      </trkpt>
      <trkpt lat="47.81859" lon="-3.54566">
        <ele>45</ele>
        <time>2019-07-15T11:25:56Z</time>
      </trkpt>
      <trkpt lat="47.81857" lon="-3.54567">
        <ele>45</ele>
        <time>2019-07-15T11:25:57Z</time>
      </trkpt>
      <trkpt lat="47.81855" lon="-3.54569">
        <ele>45</ele>
        <time>2019-07-15T11:25:58Z</time>
      </trkpt>
      <trkpt lat="47.81854" lon="-3.5457">
        <ele>45</ele>
        <time>2019-07-15T11:25:59Z</time>
      </trkpt>
      <trkpt lat="47.81852" lon="-3.54572">
        <ele>46</ele>
        <time>2019-07-15T11:26:00Z</time>
      </trkpt>
      <trkpt lat="47.81851" lon="-3.54574">
        <ele>46</ele>
        <time>2019-07-15T11:26:01Z</time>
      </trkpt>
      <trkpt lat="47.81848" lon="-3.54577">
        <ele>46</ele>
        <time>2019-07-15T11:26:02Z</time>
      </trkpt>
      <trkpt lat="47.81846" lon="-3.5458">
        <ele>46</ele>
        <time>2019-07-15T11:26:03Z</time>
      </trkpt>
      <trkpt lat="47.81843" lon="-3.54583">
        <ele>45</ele>
        <time>2019-07-15T11:26:04Z</time>
      </trkpt>
      <trkpt lat="47.81841" lon="-3.54586">
        <ele>45</ele>
        <time>2019-07-15T11:26:05Z</time>
      </trkpt>
      <trkpt lat="47.81839" lon="-3.54588">
        <ele>45</ele>
        <time>2019-07-15T11:26:06Z</time>
      </trkpt>
      <trkpt lat="47.81836" lon="-3.5459">
        <ele>45</ele>
        <time>2019-07-15T11:26:07Z</time>
      </trkpt>
      <trkpt lat="47.81834" lon="-3.54592">
        <ele>44</ele>
        <time>2019-07-15T11:26:08Z</time>
      </trkpt>
      <trkpt lat="47.81833" lon="-3.54594">
        <ele>44</ele>
        <time>2019-07-15T11:26:09Z</time>
      </trkpt>
      <trkpt lat="47.81831" lon="-3.54595">
        <ele>44</ele>
        <time>2019-07-15T11:26:10Z</time>
      </trkpt>
      <trkpt lat="47.81829" lon="-3.54596">
        <ele>44</ele>
        <time>2019-07-15T11:26:11Z</time>
      </trkpt>
      <trkpt lat="47.81828" lon="-3.54598">
        <ele>43</ele>
        <time>2019-07-15T11:26:12Z</time>
      </trkpt>
      <trkpt lat="47.81826" lon="-3.54599">
        <ele>43</ele>
        <time>2019-07-15T11:26:13Z</time>
      </trkpt>
      <trkpt lat="47.81826" lon="-3.54601">
        <ele>43</ele>
        <time>2019-07-15T11:26:14Z</time>
      </trkpt>
      <trkpt lat="47.81826" lon="-3.54603">
        <ele>43</ele>
        <time>2019-07-15T11:26:15Z</time>
      </trkpt>
      <trkpt lat="47.81825" lon="-3.54606">
        <ele>42</ele>
        <time>2019-07-15T11:26:16Z</time>
      </trkpt>
      <trkpt lat="47.81824" lon="-3.54608">
        <ele>42</ele>
        <time>2019-07-15T11:26:17Z</time>
      </trkpt>
      <trkpt lat="47.81823" lon="-3.5461">
        <ele>42</ele>
        <time>2019-07-15T11:26:18Z</time>
      </trkpt>
      <trkpt lat="47.81822" lon="-3.54612">
        <ele>42</ele>
        <time>2019-07-15T11:26:19Z</time>
      </trkpt>
      <trkpt lat="47.81821" lon="-3.54614">
        <ele>41</ele>
        <time>2019-07-15T11:26:20Z</time>
      </trkpt>
      <trkpt lat="47.8182" lon="-3.54616">
        <ele>41</ele>
        <time>2019-07-15T11:26:21Z</time>
      </trkpt>
      <trkpt lat="47.81817" lon="-3.54618">
        <ele>41</ele>
        <time>2019-07-15T11:26:22Z</time>
      </trkpt>
      <trkpt lat="47.81815" lon="-3.54619">
        <ele>41</ele>
        <time>2019-07-15T11:26:23Z</time>
      </trkpt>
      <trkpt lat="47.81813" lon="-3.54621">
        <ele>40</ele>
        <time>2019-07-15T11:26:24Z</time>
      </trkpt>
      <trkpt lat="47.81812" lon="-3.54623">
        <ele>40</ele>
        <time>2019-07-15T11:26:25Z</time>
      </trkpt>
      <trkpt lat="47.8181" lon="-3.54625">
        <ele>40</ele>
        <time>2019-07-15T11:26:26Z</time>
      </trkpt>
      <trkpt lat="47.81808" lon="-3.54627">
        <ele>40</ele>
        <time>2019-07-15T11:26:27Z</time>
      </trkpt>
      <trkpt lat="47.81806" lon="-3.54629">
        <ele>40</ele>
        <time>2019-07-15T11:26:28Z</time>
      </trkpt>
      <trkpt lat="47.81804" lon="-3.5463">
        <ele>40</ele>
        <time>2019-07-15T11:26:29Z</time>
      </trkpt>
      <trkpt lat="47.81802" lon="-3.54632">
        <ele>40</ele>
        <time>2019-07-15T11:26:30Z</time>
      </trkpt>
      <trkpt lat="47.818" lon="-3.54635">
        <ele>39</ele>
        <time>2019-07-15T11:26:31Z</time>
      </trkpt>
      <trkpt lat="47.81799" lon="-3.54637">
        <ele>39</ele>
        <time>2019-07-15T11:26:32Z</time>
      </trkpt>
      <trkpt lat="47.81797" lon="-3.54639">
        <ele>39</ele>
        <time>2019-07-15T11:26:33Z</time>
      </trkpt>
      <trkpt lat="47.81795" lon="-3.54642">
        <ele>39</ele>
        <time>2019-07-15T11:26:34Z</time>
      </trkpt>
      <trkpt lat="47.81793" lon="-3.54644">
        <ele>39</ele>
        <time>2019-07-15T11:26:35Z</time>
      </trkpt>
      <trkpt lat="47.8179" lon="-3.54647">
        <ele>39</ele>
        <time>2019-07-15T11:26:36Z</time>
      </trkpt>
      <trkpt lat="47.81788" lon="-3.54649">
        <ele>39</ele>
        <time>2019-07-15T11:26:37Z</time>
      </trkpt>
      <trkpt lat="47.81786" lon="-3.54652">
        <ele>39</ele>
        <time>2019-07-15T11:26:38Z</time>
      </trkpt>
      <trkpt lat="47.81783" lon="-3.54654">
        <ele>39</ele>
        <time>2019-07-15T11:26:39Z</time>
      </trkpt>
      <trkpt lat="47.81781" lon="-3.54656">
        <ele>39</ele>
        <time>2019-07-15T11:26:40Z</time>
      </trkpt>
      <trkpt lat="47.8178" lon="-3.54658">
        <ele>39</ele>
        <time>2019-07-15T11:26:41Z</time>
      </trkpt>
      <trkpt lat="47.81778" lon="-3.5466">
        <ele>39</ele>
        <time>2019-07-15T11:26:42Z</time>
      </trkpt>
      <trkpt lat="47.81776" lon="-3.54662">
        <ele>40</ele>
        <time>2019-07-15T11:26:43Z</time>
      </trkpt>
      <trkpt lat="47.81773" lon="-3.54664">
        <ele>40</ele>
        <time>2019-07-15T11:26:44Z</time>
      </trkpt>
      <trkpt lat="47.81771" lon="-3.54666">
        <ele>40</ele>
        <time>2019-07-15T11:26:45Z</time>
      </trkpt>
      <trkpt lat="47.81768" lon="-3.54669">
        <ele>40</ele>
        <time>2019-07-15T11:26:46Z</time>
      </trkpt>
      <trkpt lat="47.81766" lon="-3.54672">
        <ele>40</ele>
        <time>2019-07-15T11:26:47Z</time>
      </trkpt>
      <trkpt lat="47.81764" lon="-3.54675">
        <ele>40</ele>
        <time>2019-07-15T11:26:48Z</time>
      </trkpt>
      <trkpt lat="47.81761" lon="-3.54677">
        <ele>40</ele>
        <time>2019-07-15T11:26:49Z</time>
      </trkpt>
      <trkpt lat="47.81758" lon="-3.5468">
        <ele>40</ele>
        <time>2019-07-15T11:26:50Z</time>
      </trkpt>
      <trkpt lat="47.81756" lon="-3.54682">
        <ele>40</ele>
        <time>2019-07-15T11:26:51Z</time>
      </trkpt>
      <trkpt lat="47.81754" lon="-3.54684">
        <ele>40</ele>
        <time>2019-07-15T11:26:52Z</time>
      </trkpt>
      <trkpt lat="47.81752" lon="-3.54687">
        <ele>40</ele>
        <time>2019-07-15T11:26:53Z</time>
      </trkpt>
      <trkpt lat="47.81749" lon="-3.54689">
        <ele>40</ele>
        <time>2019-07-15T11:26:54Z</time>
      </trkpt>
      <trkpt lat="47.81747" lon="-3.54693">
        <ele>40</ele>
        <time>2019-07-15T11:26:55Z</time>
      </trkpt>
      <trkpt lat="47.81744" lon="-3.54697">
        <ele>40</ele>
        <time>2019-07-15T11:26:56Z</time>
      </trkpt>
      <trkpt lat="47.81741" lon="-3.547">
        <ele>40</ele>
        <time>2019-07-15T11:26:57Z</time>
      </trkpt>
      <trkpt lat="47.81738" lon="-3.54703">
        <ele>40</ele>
        <time>2019-07-15T11:26:58Z</time>
      </trkpt>
      <trkpt lat="47.81735" lon="-3.54706">
        <ele>40</ele>
        <time>2019-07-15T11:26:59Z</time>
      </trkpt>
      <trkpt lat="47.81733" lon="-3.5471">
        <ele>40</ele>
        <time>2019-07-15T11:27:00Z</time>
      </trkpt>
      <trkpt lat="47.8173" lon="-3.54714">
        <ele>40</ele>
        <time>2019-07-15T11:27:01Z</time>
      </trkpt>
      <trkpt lat="47.81727" lon="-3.54717">
        <ele>40</ele>
        <time>2019-07-15T11:27:02Z</time>
      </trkpt>
      <trkpt lat="47.81724" lon="-3.54719">
        <ele>40</ele>
        <time>2019-07-15T11:27:03Z</time>
      </trkpt>
      <trkpt lat="47.81721" lon="-3.5472">
        <ele>40</ele>
        <time>2019-07-15T11:27:04Z</time>
      </trkpt>
      <trkpt lat="47.81719" lon="-3.54719">
        <ele>40</ele>
        <time>2019-07-15T11:27:05Z</time>
      </trkpt>
      <trkpt lat="47.81718" lon="-3.54716">
        <ele>41</ele>
        <time>2019-07-15T11:27:06Z</time>
      </trkpt>
      <trkpt lat="47.81717" lon="-3.54713">
        <ele>41</ele>
        <time>2019-07-15T11:27:07Z</time>
      </trkpt>
      <trkpt lat="47.81716" lon="-3.5471">
        <ele>41</ele>
        <time>2019-07-15T11:27:08Z</time>
      </trkpt>
      <trkpt lat="47.81715" lon="-3.54706">
        <ele>41</ele>
        <time>2019-07-15T11:27:09Z</time>
      </trkpt>
      <trkpt lat="47.81712" lon="-3.54702">
        <ele>41</ele>
        <time>2019-07-15T11:27:10Z</time>
      </trkpt>
      <trkpt lat="47.81711" lon="-3.547">
        <ele>42</ele>
        <time>2019-07-15T11:27:11Z</time>
      </trkpt>
      <trkpt lat="47.81708" lon="-3.54697">
        <ele>42</ele>
        <time>2019-07-15T11:27:12Z</time>
      </trkpt>
      <trkpt lat="47.81706" lon="-3.54695">
        <ele>42</ele>
        <time>2019-07-15T11:27:13Z</time>
      </trkpt>
      <trkpt lat="47.81704" lon="-3.54693">
        <ele>42</ele>
        <time>2019-07-15T11:27:14Z</time>
      </trkpt>
      <trkpt lat="47.81702" lon="-3.5469">
        <ele>42</ele>
        <time>2019-07-15T11:27:15Z</time>
      </trkpt>
      <trkpt lat="47.81701" lon="-3.54687">
        <ele>43</ele>
        <time>2019-07-15T11:27:16Z</time>
      </trkpt>
      <trkpt lat="47.81699" lon="-3.54685">
        <ele>43</ele>
        <time>2019-07-15T11:27:17Z</time>
      </trkpt>
      <trkpt lat="47.81697" lon="-3.54682">
        <ele>43</ele>
        <time>2019-07-15T11:27:18Z</time>
      </trkpt>
      <trkpt lat="47.81695" lon="-3.54679">
        <ele>43</ele>
        <time>2019-07-15T11:27:19Z</time>
      </trkpt>
      <trkpt lat="47.81691" lon="-3.54675">
        <ele>44</ele>
        <time>2019-07-15T11:27:20Z</time>
      </trkpt>
      <trkpt lat="47.81688" lon="-3.54671">
        <ele>44</ele>
        <time>2019-07-15T11:27:21Z</time>
      </trkpt>
      <trkpt lat="47.81685" lon="-3.54667">
        <ele>44</ele>
        <time>2019-07-15T11:27:22Z</time>
      </trkpt>
      <trkpt lat="47.81682" lon="-3.54663">
        <ele>45</ele>
        <time>2019-07-15T11:27:23Z</time>
      </trkpt>
      <trkpt lat="47.8168" lon="-3.5466">
        <ele>45</ele>
        <time>2019-07-15T11:27:24Z</time>
      </trkpt>
      <trkpt lat="47.81678" lon="-3.54658">
        <ele>45</ele>
        <time>2019-07-15T11:27:25Z</time>
      </trkpt>
      <trkpt lat="47.81677" lon="-3.54655">
        <ele>46</ele>
        <time>2019-07-15T11:27:26Z</time>
      </trkpt>
      <trkpt lat="47.81675" lon="-3.54651">
        <ele>46</ele>
        <time>2019-07-15T11:27:27Z</time>
      </trkpt>
      <trkpt lat="47.81674" lon="-3.54649">
        <ele>46</ele>
        <time>2019-07-15T11:27:28Z</time>
      </trkpt>
      <trkpt lat="47.81673" lon="-3.54647">
        <ele>47</ele>
        <time>2019-07-15T11:27:29Z</time>
      </trkpt>
      <trkpt lat="47.81671" lon="-3.54645">
        <ele>47</ele>
        <time>2019-07-15T11:27:30Z</time>
      </trkpt>
      <trkpt lat="47.8167" lon="-3.54641">
        <ele>47</ele>
        <time>2019-07-15T11:27:31Z</time>
      </trkpt>
      <trkpt lat="47.81668" lon="-3.54639">
        <ele>48</ele>
        <time>2019-07-15T11:27:32Z</time>
      </trkpt>
      <trkpt lat="47.81667" lon="-3.54637">
        <ele>48</ele>
        <time>2019-07-15T11:27:33Z</time>
      </trkpt>
      <trkpt lat="47.81666" lon="-3.54635">
        <ele>48</ele>
        <time>2019-07-15T11:27:34Z</time>
      </trkpt>
      <trkpt lat="47.81665" lon="-3.54632">
        <ele>49</ele>
        <time>2019-07-15T11:27:35Z</time>
      </trkpt>
      <trkpt lat="47.81664" lon="-3.5463">
        <ele>49</ele>
        <time>2019-07-15T11:27:36Z</time>
      </trkpt>
      <trkpt lat="47.81663" lon="-3.54628">
        <ele>49</ele>
        <time>2019-07-15T11:27:37Z</time>
      </trkpt>
      <trkpt lat="47.81662" lon="-3.54625">
        <ele>50</ele>
        <time>2019-07-15T11:27:38Z</time>
      </trkpt>
      <trkpt lat="47.81661" lon="-3.54622">
        <ele>50</ele>
        <time>2019-07-15T11:27:39Z</time>
      </trkpt>
      <trkpt lat="47.81659" lon="-3.54618">
        <ele>50</ele>
        <time>2019-07-15T11:27:40Z</time>
      </trkpt>
      <trkpt lat="47.81657" lon="-3.54615">
        <ele>51</ele>
        <time>2019-07-15T11:27:41Z</time>
      </trkpt>
      <trkpt lat="47.81655" lon="-3.54611">
        <ele>51</ele>
        <time>2019-07-15T11:27:42Z</time>
      </trkpt>
      <trkpt lat="47.81653" lon="-3.54607">
        <ele>51</ele>
        <time>2019-07-15T11:27:43Z</time>
      </trkpt>
      <trkpt lat="47.81651" lon="-3.54602">
        <ele>51</ele>
        <time>2019-07-15T11:27:44Z</time>
      </trkpt>
      <trkpt lat="47.81648" lon="-3.54597">
        <ele>52</ele>
        <time>2019-07-15T11:27:45Z</time>
      </trkpt>
      <trkpt lat="47.81645" lon="-3.54592">
        <ele>52</ele>
        <time>2019-07-15T11:27:46Z</time>
      </trkpt>
      <trkpt lat="47.81642" lon="-3.54586">
        <ele>52</ele>
        <time>2019-07-15T11:27:47Z</time>
      </trkpt>
      <trkpt lat="47.8164" lon="-3.54582">
        <ele>53</ele>
        <time>2019-07-15T11:27:48Z</time>
      </trkpt>
      <trkpt lat="47.81638" lon="-3.54578">
        <ele>53</ele>
        <time>2019-07-15T11:27:49Z</time>
      </trkpt>
      <trkpt lat="47.81636" lon="-3.54575">
        <ele>53</ele>
        <time>2019-07-15T11:27:50Z</time>
      </trkpt>
      <trkpt lat="47.81634" lon="-3.54573">
        <ele>54</ele>
        <time>2019-07-15T11:27:51Z</time>
      </trkpt>
      <trkpt lat="47.81633" lon="-3.5457">
        <ele>54</ele>
        <time>2019-07-15T11:27:52Z</time>
      </trkpt>
      <trkpt lat="47.81631" lon="-3.54567">
        <ele>54</ele>
        <time>2019-07-15T11:27:53Z</time>
      </trkpt>
      <trkpt lat="47.8163" lon="-3.54565">
        <ele>55</ele>
        <time>2019-07-15T11:27:54Z</time>
      </trkpt>
      <trkpt lat="47.81628" lon="-3.54561">
        <ele>55</ele>
        <time>2019-07-15T11:27:55Z</time>
      </trkpt>
      <trkpt lat="47.81626" lon="-3.54558">
        <ele>55</ele>
        <time>2019-07-15T11:27:56Z</time>
      </trkpt>
      <trkpt lat="47.81623" lon="-3.54555">
        <ele>55</ele>
        <time>2019-07-15T11:27:57Z</time>
      </trkpt>
      <trkpt lat="47.81619" lon="-3.54551">
        <ele>55</ele>
        <time>2019-07-15T11:27:58Z</time>
      </trkpt>
      <trkpt lat="47.81616" lon="-3.54548">
        <ele>55</ele>
        <time>2019-07-15T11:27:59Z</time>
      </trkpt>
      <trkpt lat="47.81613" lon="-3.54545">
        <ele>56</ele>
        <time>2019-07-15T11:28:00Z</time>
      </trkpt>
      <trkpt lat="47.8161" lon="-3.54541">
        <ele>56</ele>
        <time>2019-07-15T11:28:01Z</time>
      </trkpt>
      <trkpt lat="47.81608" lon="-3.54537">
        <ele>56</ele>
        <time>2019-07-15T11:28:02Z</time>
      </trkpt>
      <trkpt lat="47.81605" lon="-3.54534">
        <ele>56</ele>
        <time>2019-07-15T11:28:03Z</time>
      </trkpt>
      <trkpt lat="47.81601" lon="-3.54531">
        <ele>56</ele>
        <time>2019-07-15T11:28:04Z</time>
      </trkpt>
      <trkpt lat="47.81598" lon="-3.54528">
        <ele>56</ele>
        <time>2019-07-15T11:28:05Z</time>
      </trkpt>
      <trkpt lat="47.81595" lon="-3.54525">
        <ele>56</ele>
        <time>2019-07-15T11:28:06Z</time>
      </trkpt>
      <trkpt lat="47.81592" lon="-3.54523">
        <ele>56</ele>
        <time>2019-07-15T11:28:07Z</time>
      </trkpt>
      <trkpt lat="47.81588" lon="-3.54522">
        <ele>56</ele>
        <time>2019-07-15T11:28:08Z</time>
      </trkpt>
      <trkpt lat="47.81584" lon="-3.5452">
        <ele>56</ele>
        <time>2019-07-15T11:28:09Z</time>
      </trkpt>
      <trkpt lat="47.81581" lon="-3.54519">
        <ele>56</ele>
        <time>2019-07-15T11:28:10Z</time>
      </trkpt>
      <trkpt lat="47.81578" lon="-3.54517">
        <ele>57</ele>
        <time>2019-07-15T11:28:11Z</time>
      </trkpt>
      <trkpt lat="47.81575" lon="-3.54515">
        <ele>57</ele>
        <time>2019-07-15T11:28:12Z</time>
      </trkpt>
      <trkpt lat="47.81573" lon="-3.54513">
        <ele>57</ele>
        <time>2019-07-15T11:28:13Z</time>
      </trkpt>
      <trkpt lat="47.8157" lon="-3.54511">
        <ele>57</ele>
        <time>2019-07-15T11:28:14Z</time>
      </trkpt>
      <trkpt lat="47.81567" lon="-3.54509">
        <ele>57</ele>
        <time>2019-07-15T11:28:15Z</time>
      </trkpt>
      <trkpt lat="47.81564" lon="-3.54506">
        <ele>57</ele>
        <time>2019-07-15T11:28:16Z</time>
      </trkpt>
      <trkpt lat="47.8156" lon="-3.54503">
        <ele>57</ele>
        <time>2019-07-15T11:28:17Z</time>
      </trkpt>
      <trkpt lat="47.81556" lon="-3.54499">
        <ele>57</ele>
        <time>2019-07-15T11:28:18Z</time>
      </trkpt>
      <trkpt lat="47.81552" lon="-3.54496">
        <ele>57</ele>
        <time>2019-07-15T11:28:19Z</time>
      </trkpt>
      <trkpt lat="47.81548" lon="-3.54491">
        <ele>58</ele>
        <time>2019-07-15T11:28:20Z</time>
      </trkpt>
      <trkpt lat="47.81545" lon="-3.54487">
        <ele>58</ele>
        <time>2019-07-15T11:28:21Z</time>
      </trkpt>
      <trkpt lat="47.81542" lon="-3.54482">
        <ele>58</ele>
        <time>2019-07-15T11:28:22Z</time>
      </trkpt>
      <trkpt lat="47.8154" lon="-3.54479">
        <ele>58</ele>
        <time>2019-07-15T11:28:23Z</time>
      </trkpt>
      <trkpt lat="47.81538" lon="-3.54476">
        <ele>58</ele>
        <time>2019-07-15T11:28:24Z</time>
      </trkpt>
      <trkpt lat="47.81538" lon="-3.54474">
        <ele>58</ele>
        <time>2019-07-15T11:28:25Z</time>
      </trkpt>
      <trkpt lat="47.81537" lon="-3.5447">
        <ele>58</ele>
        <time>2019-07-15T11:28:26Z</time>
      </trkpt>
      <trkpt lat="47.81535" lon="-3.54467">
        <ele>58</ele>
        <time>2019-07-15T11:28:27Z</time>
      </trkpt>
      <trkpt lat="47.81533" lon="-3.54465">
        <ele>58</ele>
        <time>2019-07-15T11:28:28Z</time>
      </trkpt>
      <trkpt lat="47.81529" lon="-3.54464">
        <ele>58</ele>
        <time>2019-07-15T11:28:29Z</time>
      </trkpt>
      <trkpt lat="47.81526" lon="-3.54463">
        <ele>58</ele>
        <time>2019-07-15T11:28:30Z</time>
      </trkpt>
      <trkpt lat="47.81524" lon="-3.54461">
        <ele>58</ele>
        <time>2019-07-15T11:28:31Z</time>
      </trkpt>
      <trkpt lat="47.81523" lon="-3.54457">
        <ele>58</ele>
        <time>2019-07-15T11:28:32Z</time>
      </trkpt>
      <trkpt lat="47.81521" lon="-3.54453">
        <ele>58</ele>
        <time>2019-07-15T11:28:33Z</time>
      </trkpt>
      <trkpt lat="47.81519" lon="-3.54447">
        <ele>58</ele>
        <time>2019-07-15T11:28:34Z</time>
      </trkpt>
      <trkpt lat="47.81517" lon="-3.5444">
        <ele>58</ele>
        <time>2019-07-15T11:28:35Z</time>
      </trkpt>
      <trkpt lat="47.81514" lon="-3.54434">
        <ele>58</ele>
        <time>2019-07-15T11:28:36Z</time>
      </trkpt>
      <trkpt lat="47.81512" lon="-3.54427">
        <ele>58</ele>
        <time>2019-07-15T11:28:37Z</time>
      </trkpt>
      <trkpt lat="47.8151" lon="-3.5442">
        <ele>58</ele>
        <time>2019-07-15T11:28:38Z</time>
      </trkpt>
      <trkpt lat="47.81508" lon="-3.54413">
        <ele>58</ele>
        <time>2019-07-15T11:28:39Z</time>
      </trkpt>
      <trkpt lat="47.81506" lon="-3.54406">
        <ele>58</ele>
        <time>2019-07-15T11:28:40Z</time>
      </trkpt>
      <trkpt lat="47.81503" lon="-3.54398">
        <ele>58</ele>
        <time>2019-07-15T11:28:41Z</time>
      </trkpt>
      <trkpt lat="47.81501" lon="-3.5439">
        <ele>58</ele>
        <time>2019-07-15T11:28:42Z</time>
      </trkpt>
      <trkpt lat="47.81498" lon="-3.54382">
        <ele>58</ele>
        <time>2019-07-15T11:28:43Z</time>
      </trkpt>
      <trkpt lat="47.81495" lon="-3.54376">
        <ele>58</ele>
        <time>2019-07-15T11:28:44Z</time>
      </trkpt>
      <trkpt lat="47.81493" lon="-3.54372">
        <ele>58</ele>
        <time>2019-07-15T11:28:45Z</time>
      </trkpt>
      <trkpt lat="47.8149" lon="-3.54367">
        <ele>58</ele>
        <time>2019-07-15T11:28:46Z</time>
      </trkpt>
      <trkpt lat="47.81486" lon="-3.54363">
        <ele>58</ele>
        <time>2019-07-15T11:28:47Z</time>
      </trkpt>
      <trkpt lat="47.81481" lon="-3.54358">
        <ele>58</ele>
        <time>2019-07-15T11:28:48Z</time>
      </trkpt>
      <trkpt lat="47.81476" lon="-3.54354">
        <ele>57</ele>
        <time>2019-07-15T11:28:49Z</time>
      </trkpt>
      <trkpt lat="47.81471" lon="-3.54349">
        <ele>57</ele>
        <time>2019-07-15T11:28:50Z</time>
      </trkpt>
      <trkpt lat="47.81466" lon="-3.54343">
        <ele>57</ele>
        <time>2019-07-15T11:28:51Z</time>
      </trkpt>
      <trkpt lat="47.81462" lon="-3.54337">
        <ele>57</ele>
        <time>2019-07-15T11:28:52Z</time>
      </trkpt>
      <trkpt lat="47.81458" lon="-3.5433">
        <ele>57</ele>
        <time>2019-07-15T11:28:53Z</time>
      </trkpt>
      <trkpt lat="47.81453" lon="-3.54322">
        <ele>57</ele>
        <time>2019-07-15T11:28:54Z</time>
      </trkpt>
      <trkpt lat="47.81449" lon="-3.54314">
        <ele>57</ele>
        <time>2019-07-15T11:28:55Z</time>
      </trkpt>
      <trkpt lat="47.81446" lon="-3.54307">
        <ele>57</ele>
        <time>2019-07-15T11:28:56Z</time>
      </trkpt>
      <trkpt lat="47.81445" lon="-3.543">
        <ele>57</ele>
        <time>2019-07-15T11:28:57Z</time>
      </trkpt>
      <trkpt lat="47.81443" lon="-3.54294">
        <ele>56</ele>
        <time>2019-07-15T11:28:58Z</time>
      </trkpt>
      <trkpt lat="47.81441" lon="-3.54288">
        <ele>56</ele>
        <time>2019-07-15T11:28:59Z</time>
      </trkpt>
      <trkpt lat="47.81439" lon="-3.54282">
        <ele>56</ele>
        <time>2019-07-15T11:29:00Z</time>
      </trkpt>
      <trkpt lat="47.81436" lon="-3.54277">
        <ele>56</ele>
        <time>2019-07-15T11:29:01Z</time>
      </trkpt>
      <trkpt lat="47.81434" lon="-3.54271">
        <ele>56</ele>
        <time>2019-07-15T11:29:02Z</time>
      </trkpt>
      <trkpt lat="47.81432" lon="-3.54264">
        <ele>56</ele>
        <time>2019-07-15T11:29:03Z</time>
      </trkpt>
      <trkpt lat="47.8143" lon="-3.54258">
        <ele>56</ele>
        <time>2019-07-15T11:29:04Z</time>
      </trkpt>
      <trkpt lat="47.81428" lon="-3.54251">
        <ele>56</ele>
        <time>2019-07-15T11:29:05Z</time>
      </trkpt>
      <trkpt lat="47.81426" lon="-3.54244">
        <ele>56</ele>
        <time>2019-07-15T11:29:06Z</time>
      </trkpt>
      <trkpt lat="47.81423" lon="-3.54239">
        <ele>56</ele>
        <time>2019-07-15T11:29:07Z</time>
      </trkpt>
      <trkpt lat="47.81422" lon="-3.54235">
        <ele>56</ele>
        <time>2019-07-15T11:29:08Z</time>
      </trkpt>
      <trkpt lat="47.81421" lon="-3.54231">
        <ele>55</ele>
        <time>2019-07-15T11:29:09Z</time>
      </trkpt>
      <trkpt lat="47.8142" lon="-3.54227">
        <ele>55</ele>
        <time>2019-07-15T11:29:10Z</time>
      </trkpt>
      <trkpt lat="47.81419" lon="-3.54223">
        <ele>55</ele>
        <time>2019-07-15T11:29:11Z</time>
      </trkpt>
      <trkpt lat="47.81418" lon="-3.54221">
        <ele>55</ele>
        <time>2019-07-15T11:29:12Z</time>
      </trkpt>
      <trkpt lat="47.81416" lon="-3.54218">
        <ele>55</ele>
        <time>2019-07-15T11:29:13Z</time>
      </trkpt>
      <trkpt lat="47.81416" lon="-3.54215">
        <ele>55</ele>
        <time>2019-07-15T11:29:14Z</time>
      </trkpt>
      <trkpt lat="47.81416" lon="-3.54212">
        <ele>54</ele>
        <time>2019-07-15T11:29:15Z</time>
      </trkpt>
      <trkpt lat="47.81415" lon="-3.54209">
        <ele>54</ele>
        <time>2019-07-15T11:29:16Z</time>
      </trkpt>
      <trkpt lat="47.81413" lon="-3.54205">
        <ele>54</ele>
        <time>2019-07-15T11:29:17Z</time>
      </trkpt>
      <trkpt lat="47.81411" lon="-3.54202">
        <ele>54</ele>
        <time>2019-07-15T11:29:18Z</time>
      </trkpt>
      <trkpt lat="47.81409" lon="-3.54198">
        <ele>54</ele>
        <time>2019-07-15T11:29:19Z</time>
      </trkpt>
      <trkpt lat="47.81408" lon="-3.54194">
        <ele>54</ele>
        <time>2019-07-15T11:29:20Z</time>
      </trkpt>
      <trkpt lat="47.81407" lon="-3.5419">
        <ele>54</ele>
        <time>2019-07-15T11:29:21Z</time>
      </trkpt>
      <trkpt lat="47.81406" lon="-3.54186">
        <ele>54</ele>
        <time>2019-07-15T11:29:22Z</time>
      </trkpt>
      <trkpt lat="47.81406" lon="-3.54182">
        <ele>54</ele>
        <time>2019-07-15T11:29:23Z</time>
      </trkpt>
      <trkpt lat="47.81405" lon="-3.54177">
        <ele>54</ele>
        <time>2019-07-15T11:29:24Z</time>
      </trkpt>
      <trkpt lat="47.81403" lon="-3.54173">
        <ele>54</ele>
        <time>2019-07-15T11:29:25Z</time>
      </trkpt>
      <trkpt lat="47.81402" lon="-3.5417">
        <ele>54</ele>
        <time>2019-07-15T11:29:26Z</time>
      </trkpt>
      <trkpt lat="47.81401" lon="-3.54166">
        <ele>54</ele>
        <time>2019-07-15T11:29:27Z</time>
      </trkpt>
      <trkpt lat="47.814" lon="-3.54161">
        <ele>54</ele>
        <time>2019-07-15T11:29:28Z</time>
      </trkpt>
      <trkpt lat="47.81399" lon="-3.54158">
        <ele>54</ele>
        <time>2019-07-15T11:29:29Z</time>
      </trkpt>
      <trkpt lat="47.81399" lon="-3.54157">
        <ele>53</ele>
        <time>2019-07-15T11:29:30Z</time>
      </trkpt>
      <trkpt lat="47.81398" lon="-3.54156">
        <ele>53</ele>
        <time>2019-07-15T11:29:31Z</time>
      </trkpt>
      <trkpt lat="47.81397" lon="-3.54156">
        <ele>53</ele>
        <time>2019-07-15T11:29:32Z</time>
      </trkpt>
      <trkpt lat="47.81397" lon="-3.54156">
        <ele>52</ele>
        <time>2019-07-15T11:29:33Z</time>
      </trkpt>
      <trkpt lat="47.81396" lon="-3.54155">
        <ele>52</ele>
        <time>2019-07-15T11:29:34Z</time>
      </trkpt>
      <trkpt lat="47.81394" lon="-3.54154">
        <ele>52</ele>
        <time>2019-07-15T11:29:35Z</time>
      </trkpt>
      <trkpt lat="47.81392" lon="-3.54153">
        <ele>52</ele>
        <time>2019-07-15T11:29:36Z</time>
      </trkpt>
      <trkpt lat="47.81389" lon="-3.54152">
        <ele>51</ele>
        <time>2019-07-15T11:29:37Z</time>
      </trkpt>
      <trkpt lat="47.81385" lon="-3.54152">
        <ele>51</ele>
        <time>2019-07-15T11:29:38Z</time>
      </trkpt>
      <trkpt lat="47.81382" lon="-3.54151">
        <ele>51</ele>
        <time>2019-07-15T11:29:39Z</time>
      </trkpt>
      <trkpt lat="47.81378" lon="-3.5415">
        <ele>51</ele>
        <time>2019-07-15T11:29:40Z</time>
      </trkpt>
      <trkpt lat="47.81375" lon="-3.54149">
        <ele>51</ele>
        <time>2019-07-15T11:29:41Z</time>
      </trkpt>
      <trkpt lat="47.81372" lon="-3.54149">
        <ele>51</ele>
        <time>2019-07-15T11:29:42Z</time>
      </trkpt>
      <trkpt lat="47.81369" lon="-3.54149">
        <ele>51</ele>
        <time>2019-07-15T11:29:43Z</time>
      </trkpt>
      <trkpt lat="47.81365" lon="-3.54149">
        <ele>51</ele>
        <time>2019-07-15T11:29:44Z</time>
      </trkpt>
      <trkpt lat="47.81361" lon="-3.54149">
        <ele>50</ele>
        <time>2019-07-15T11:29:45Z</time>
      </trkpt>
      <trkpt lat="47.81357" lon="-3.54148">
        <ele>50</ele>
        <time>2019-07-15T11:29:46Z</time>
      </trkpt>
      <trkpt lat="47.81353" lon="-3.54147">
        <ele>50</ele>
        <time>2019-07-15T11:29:47Z</time>
      </trkpt>
      <trkpt lat="47.8135" lon="-3.54146">
        <ele>50</ele>
        <time>2019-07-15T11:29:48Z</time>
      </trkpt>
      <trkpt lat="47.81345" lon="-3.54144">
        <ele>50</ele>
        <time>2019-07-15T11:29:49Z</time>
      </trkpt>
      <trkpt lat="47.81341" lon="-3.54143">
        <ele>50</ele>
        <time>2019-07-15T11:29:50Z</time>
      </trkpt>
      <trkpt lat="47.81337" lon="-3.54141">
        <ele>50</ele>
        <time>2019-07-15T11:29:51Z</time>
      </trkpt>
      <trkpt lat="47.81332" lon="-3.5414">
        <ele>50</ele>
        <time>2019-07-15T11:29:52Z</time>
      </trkpt>
      <trkpt lat="47.81327" lon="-3.54137">
        <ele>50</ele>
        <time>2019-07-15T11:29:53Z</time>
      </trkpt>
      <trkpt lat="47.81322" lon="-3.54134">
        <ele>50</ele>
        <time>2019-07-15T11:29:54Z</time>
      </trkpt>
      <trkpt lat="47.81317" lon="-3.5413">
        <ele>50</ele>
        <time>2019-07-15T11:29:55Z</time>
      </trkpt>
      <trkpt lat="47.81311" lon="-3.54126">
        <ele>50</ele>
        <time>2019-07-15T11:29:56Z</time>
      </trkpt>
      <trkpt lat="47.81305" lon="-3.54121">
        <ele>50</ele>
        <time>2019-07-15T11:29:57Z</time>
      </trkpt>
      <trkpt lat="47.813" lon="-3.54116">
        <ele>50</ele>
        <time>2019-07-15T11:29:58Z</time>
      </trkpt>
      <trkpt lat="47.81294" lon="-3.54112">
        <ele>50</ele>
        <time>2019-07-15T11:29:59Z</time>
      </trkpt>
      <trkpt lat="47.81289" lon="-3.54108">
        <ele>50</ele>
        <time>2019-07-15T11:30:00Z</time>
      </trkpt>
      <trkpt lat="47.81283" lon="-3.54103">
        <ele>50</ele>
        <time>2019-07-15T11:30:01Z</time>
      </trkpt>
      <trkpt lat="47.81278" lon="-3.54099">
        <ele>50</ele>
        <time>2019-07-15T11:30:02Z</time>
      </trkpt>
      <trkpt lat="47.81274" lon="-3.54094">
        <ele>50</ele>
        <time>2019-07-15T11:30:03Z</time>
      </trkpt>
      <trkpt lat="47.81268" lon="-3.54089">
        <ele>50</ele>
        <time>2019-07-15T11:30:04Z</time>
      </trkpt>
      <trkpt lat="47.81263" lon="-3.54084">
        <ele>50</ele>
        <time>2019-07-15T11:30:05Z</time>
      </trkpt>
      <trkpt lat="47.81258" lon="-3.54079">
        <ele>50</ele>
        <time>2019-07-15T11:30:06Z</time>
      </trkpt>
      <trkpt lat="47.81252" lon="-3.54073">
        <ele>50</ele>
        <time>2019-07-15T11:30:07Z</time>
      </trkpt>
      <trkpt lat="47.81247" lon="-3.54068">
        <ele>50</ele>
        <time>2019-07-15T11:30:08Z</time>
      </trkpt>
      <trkpt lat="47.81242" lon="-3.54063">
        <ele>50</ele>
        <time>2019-07-15T11:30:09Z</time>
      </trkpt>
      <trkpt lat="47.81238" lon="-3.54058">
        <ele>50</ele>
        <time>2019-07-15T11:30:10Z</time>
      </trkpt>
      <trkpt lat="47.81234" lon="-3.54054">
        <ele>50</ele>
        <time>2019-07-15T11:30:11Z</time>
      </trkpt>
      <trkpt lat="47.81229" lon="-3.54048">
        <ele>50</ele>
        <time>2019-07-15T11:30:12Z</time>
      </trkpt>
      <trkpt lat="47.81226" lon="-3.54044">
        <ele>50</ele>
        <time>2019-07-15T11:30:13Z</time>
      </trkpt>
      <trkpt lat="47.81222" lon="-3.54039">
        <ele>50</ele>
        <time>2019-07-15T11:30:14Z</time>
      </trkpt>
      <trkpt lat="47.81218" lon="-3.54034">
        <ele>51</ele>
        <time>2019-07-15T11:30:15Z</time>
      </trkpt>
      <trkpt lat="47.81215" lon="-3.54031">
        <ele>51</ele>
        <time>2019-07-15T11:30:16Z</time>
      </trkpt>
      <trkpt lat="47.81212" lon="-3.54027">
        <ele>51</ele>
        <time>2019-07-15T11:30:17Z</time>
      </trkpt>
      <trkpt lat="47.8121" lon="-3.54023">
        <ele>51</ele>
        <time>2019-07-15T11:30:18Z</time>
      </trkpt>
      <trkpt lat="47.81206" lon="-3.54019">
        <ele>51</ele>
        <time>2019-07-15T11:30:19Z</time>
      </trkpt>
      <trkpt lat="47.81204" lon="-3.54015">
        <ele>51</ele>
        <time>2019-07-15T11:30:20Z</time>
      </trkpt>
      <trkpt lat="47.81202" lon="-3.5401">
        <ele>51</ele>
        <time>2019-07-15T11:30:21Z</time>
      </trkpt>
      <trkpt lat="47.81199" lon="-3.54005">
        <ele>51</ele>
        <time>2019-07-15T11:30:22Z</time>
      </trkpt>
      <trkpt lat="47.81195" lon="-3.54">
        <ele>51</ele>
        <time>2019-07-15T11:30:23Z</time>
      </trkpt>
      <trkpt lat="47.81192" lon="-3.53995">
        <ele>51</ele>
        <time>2019-07-15T11:30:24Z</time>
      </trkpt>
      <trkpt lat="47.81188" lon="-3.5399">
        <ele>51</ele>
        <time>2019-07-15T11:30:25Z</time>
      </trkpt>
      <trkpt lat="47.81184" lon="-3.53985">
        <ele>51</ele>
        <time>2019-07-15T11:30:26Z</time>
      </trkpt>
      <trkpt lat="47.8118" lon="-3.5398">
        <ele>51</ele>
        <time>2019-07-15T11:30:27Z</time>
      </trkpt>
      <trkpt lat="47.81175" lon="-3.53975">
        <ele>51</ele>
        <time>2019-07-15T11:30:28Z</time>
      </trkpt>
      <trkpt lat="47.81171" lon="-3.53969">
        <ele>51</ele>
        <time>2019-07-15T11:30:29Z</time>
      </trkpt>
      <trkpt lat="47.81167" lon="-3.53963">
        <ele>51</ele>
        <time>2019-07-15T11:30:30Z</time>
      </trkpt>
      <trkpt lat="47.81163" lon="-3.53958">
        <ele>51</ele>
        <time>2019-07-15T11:30:31Z</time>
      </trkpt>
      <trkpt lat="47.8116" lon="-3.53953">
        <ele>51</ele>
        <time>2019-07-15T11:30:32Z</time>
      </trkpt>
      <trkpt lat="47.81156" lon="-3.53949">
        <ele>51</ele>
        <time>2019-07-15T11:30:33Z</time>
      </trkpt>
      <trkpt lat="47.81152" lon="-3.53944">
        <ele>51</ele>
        <time>2019-07-15T11:30:34Z</time>
      </trkpt>
      <trkpt lat="47.81148" lon="-3.53939">
        <ele>51</ele>
        <time>2019-07-15T11:30:35Z</time>
      </trkpt>
      <trkpt lat="47.81144" lon="-3.53934">
        <ele>51</ele>
        <time>2019-07-15T11:30:36Z</time>
      </trkpt>
      <trkpt lat="47.81139" lon="-3.53928">
        <ele>51</ele>
        <time>2019-07-15T11:30:37Z</time>
      </trkpt>
      <trkpt lat="47.81135" lon="-3.53922">
        <ele>51</ele>
        <time>2019-07-15T11:30:38Z</time>
      </trkpt>
      <trkpt lat="47.81131" lon="-3.53917">
        <ele>51</ele>
        <time>2019-07-15T11:30:39Z</time>
      </trkpt>
      <trkpt lat="47.81128" lon="-3.53913">
        <ele>51</ele>
        <time>2019-07-15T11:30:40Z</time>
      </trkpt>
      <trkpt lat="47.81124" lon="-3.53907">
        <ele>51</ele>
        <time>2019-07-15T11:30:41Z</time>
      </trkpt>
      <trkpt lat="47.81119" lon="-3.53901">
        <ele>51</ele>
        <time>2019-07-15T11:30:42Z</time>
      </trkpt>
      <trkpt lat="47.81115" lon="-3.53895">
        <ele>51</ele>
        <time>2019-07-15T11:30:43Z</time>
      </trkpt>
      <trkpt lat="47.81111" lon="-3.53889">
        <ele>51</ele>
        <time>2019-07-15T11:30:44Z</time>
      </trkpt>
      <trkpt lat="47.81108" lon="-3.53885">
        <ele>51</ele>
        <time>2019-07-15T11:30:45Z</time>
      </trkpt>
      <trkpt lat="47.81104" lon="-3.5388">
        <ele>51</ele>
        <time>2019-07-15T11:30:46Z</time>
      </trkpt>
      <trkpt lat="47.811" lon="-3.53876">
        <ele>51</ele>
        <time>2019-07-15T11:30:47Z</time>
      </trkpt>
      <trkpt lat="47.81096" lon="-3.5387">
        <ele>51</ele>
        <time>2019-07-15T11:30:48Z</time>
      </trkpt>
      <trkpt lat="47.81092" lon="-3.53865">
        <ele>51</ele>
        <time>2019-07-15T11:30:49Z</time>
      </trkpt>
      <trkpt lat="47.81088" lon="-3.5386">
        <ele>51</ele>
        <time>2019-07-15T11:30:50Z</time>
      </trkpt>
      <trkpt lat="47.81084" lon="-3.53854">
        <ele>51</ele>
        <time>2019-07-15T11:30:51Z</time>
      </trkpt>
      <trkpt lat="47.8108" lon="-3.53848">
        <ele>51</ele>
        <time>2019-07-15T11:30:52Z</time>
      </trkpt>
      <trkpt lat="47.81075" lon="-3.53842">
        <ele>51</ele>
        <time>2019-07-15T11:30:53Z</time>
      </trkpt>
      <trkpt lat="47.81071" lon="-3.53835">
        <ele>51</ele>
        <time>2019-07-15T11:30:54Z</time>
      </trkpt>
      <trkpt lat="47.81066" lon="-3.53828">
        <ele>52</ele>
        <time>2019-07-15T11:30:55Z</time>
      </trkpt>
      <trkpt lat="47.81062" lon="-3.53822">
        <ele>52</ele>
        <time>2019-07-15T11:30:56Z</time>
      </trkpt>
      <trkpt lat="47.81057" lon="-3.53816">
        <ele>52</ele>
        <time>2019-07-15T11:30:57Z</time>
      </trkpt>
      <trkpt lat="47.81052" lon="-3.53811">
        <ele>52</ele>
        <time>2019-07-15T11:30:58Z</time>
      </trkpt>
      <trkpt lat="47.81047" lon="-3.53805">
        <ele>52</ele>
        <time>2019-07-15T11:30:59Z</time>
      </trkpt>
      <trkpt lat="47.81043" lon="-3.53799">
        <ele>52</ele>
        <time>2019-07-15T11:31:00Z</time>
      </trkpt>
      <trkpt lat="47.81039" lon="-3.53793">
        <ele>52</ele>
        <time>2019-07-15T11:31:01Z</time>
      </trkpt>
      <trkpt lat="47.81034" lon="-3.53787">
        <ele>52</ele>
        <time>2019-07-15T11:31:02Z</time>
      </trkpt>
      <trkpt lat="47.8103" lon="-3.5378">
        <ele>52</ele>
        <time>2019-07-15T11:31:03Z</time>
      </trkpt>
      <trkpt lat="47.81025" lon="-3.53774">
        <ele>52</ele>
        <time>2019-07-15T11:31:04Z</time>
      </trkpt>
      <trkpt lat="47.81021" lon="-3.53767">
        <ele>53</ele>
        <time>2019-07-15T11:31:05Z</time>
      </trkpt>
      <trkpt lat="47.81017" lon="-3.53762">
        <ele>53</ele>
        <time>2019-07-15T11:31:06Z</time>
      </trkpt>
      <trkpt lat="47.81013" lon="-3.53757">
        <ele>53</ele>
        <time>2019-07-15T11:31:07Z</time>
      </trkpt>
      <trkpt lat="47.8101" lon="-3.53752">
        <ele>53</ele>
        <time>2019-07-15T11:31:08Z</time>
      </trkpt>
      <trkpt lat="47.81007" lon="-3.53748">
        <ele>53</ele>
        <time>2019-07-15T11:31:09Z</time>
      </trkpt>
      <trkpt lat="47.81004" lon="-3.53744">
        <ele>53</ele>
        <time>2019-07-15T11:31:10Z</time>
      </trkpt>
      <trkpt lat="47.81" lon="-3.5374">
        <ele>53</ele>
        <time>2019-07-15T11:31:11Z</time>
      </trkpt>
      <trkpt lat="47.80995" lon="-3.53735">
        <ele>54</ele>
        <time>2019-07-15T11:31:12Z</time>
      </trkpt>
      <trkpt lat="47.80991" lon="-3.53731">
        <ele>54</ele>
        <time>2019-07-15T11:31:13Z</time>
      </trkpt>
      <trkpt lat="47.80988" lon="-3.53725">
        <ele>54</ele>
        <time>2019-07-15T11:31:14Z</time>
      </trkpt>
      <trkpt lat="47.80984" lon="-3.5372">
        <ele>54</ele>
        <time>2019-07-15T11:31:15Z</time>
      </trkpt>
      <trkpt lat="47.80979" lon="-3.53715">
        <ele>54</ele>
        <time>2019-07-15T11:31:16Z</time>
      </trkpt>
      <trkpt lat="47.80975" lon="-3.53709">
        <ele>54</ele>
        <time>2019-07-15T11:31:17Z</time>
      </trkpt>
      <trkpt lat="47.80971" lon="-3.53704">
        <ele>54</ele>
        <time>2019-07-15T11:31:18Z</time>
      </trkpt>
      <trkpt lat="47.80967" lon="-3.53698">
        <ele>55</ele>
        <time>2019-07-15T11:31:19Z</time>
      </trkpt>
      <trkpt lat="47.80963" lon="-3.53692">
        <ele>55</ele>
        <time>2019-07-15T11:31:20Z</time>
      </trkpt>
      <trkpt lat="47.80958" lon="-3.53686">
        <ele>55</ele>
        <time>2019-07-15T11:31:21Z</time>
      </trkpt>
      <trkpt lat="47.80954" lon="-3.5368">
        <ele>55</ele>
        <time>2019-07-15T11:31:22Z</time>
      </trkpt>
      <trkpt lat="47.8095" lon="-3.53674">
        <ele>55</ele>
        <time>2019-07-15T11:31:23Z</time>
      </trkpt>
      <trkpt lat="47.80945" lon="-3.53669">
        <ele>55</ele>
        <time>2019-07-15T11:31:24Z</time>
      </trkpt>
      <trkpt lat="47.8094" lon="-3.53663">
        <ele>55</ele>
        <time>2019-07-15T11:31:25Z</time>
      </trkpt>
      <trkpt lat="47.80936" lon="-3.53657">
        <ele>55</ele>
        <time>2019-07-15T11:31:26Z</time>
      </trkpt>
      <trkpt lat="47.80931" lon="-3.53651">
        <ele>56</ele>
        <time>2019-07-15T11:31:27Z</time>
      </trkpt>
      <trkpt lat="47.80926" lon="-3.53645">
        <ele>56</ele>
        <time>2019-07-15T11:31:28Z</time>
      </trkpt>
      <trkpt lat="47.80921" lon="-3.53639">
        <ele>56</ele>
        <time>2019-07-15T11:31:29Z</time>
      </trkpt>
      <trkpt lat="47.80916" lon="-3.53633">
        <ele>56</ele>
        <time>2019-07-15T11:31:30Z</time>
      </trkpt>
      <trkpt lat="47.80911" lon="-3.53628">
        <ele>56</ele>
        <time>2019-07-15T11:31:31Z</time>
      </trkpt>
      <trkpt lat="47.80906" lon="-3.53623">
        <ele>56</ele>
        <time>2019-07-15T11:31:32Z</time>
      </trkpt>
      <trkpt lat="47.80901" lon="-3.53618">
        <ele>56</ele>
        <time>2019-07-15T11:31:33Z</time>
      </trkpt>
      <trkpt lat="47.80897" lon="-3.53612">
        <ele>56</ele>
        <time>2019-07-15T11:31:34Z</time>
      </trkpt>
      <trkpt lat="47.80892" lon="-3.53606">
        <ele>56</ele>
        <time>2019-07-15T11:31:35Z</time>
      </trkpt>
      <trkpt lat="47.80888" lon="-3.53601">
        <ele>57</ele>
        <time>2019-07-15T11:31:36Z</time>
      </trkpt>
      <trkpt lat="47.80884" lon="-3.53595">
        <ele>57</ele>
        <time>2019-07-15T11:31:37Z</time>
      </trkpt>
      <trkpt lat="47.80879" lon="-3.5359">
        <ele>57</ele>
        <time>2019-07-15T11:31:38Z</time>
      </trkpt>
      <trkpt lat="47.80875" lon="-3.53584">
        <ele>57</ele>
        <time>2019-07-15T11:31:39Z</time>
      </trkpt>
      <trkpt lat="47.80871" lon="-3.53577">
        <ele>57</ele>
        <time>2019-07-15T11:31:40Z</time>
      </trkpt>
      <trkpt lat="47.80867" lon="-3.53571">
        <ele>57</ele>
        <time>2019-07-15T11:31:41Z</time>
      </trkpt>
      <trkpt lat="47.80864" lon="-3.53565">
        <ele>57</ele>
        <time>2019-07-15T11:31:42Z</time>
      </trkpt>
      <trkpt lat="47.8086" lon="-3.53558">
        <ele>57</ele>
        <time>2019-07-15T11:31:43Z</time>
      </trkpt>
      <trkpt lat="47.80856" lon="-3.53551">
        <ele>57</ele>
        <time>2019-07-15T11:31:44Z</time>
      </trkpt>
      <trkpt lat="47.80854" lon="-3.53545">
        <ele>57</ele>
        <time>2019-07-15T11:31:45Z</time>
      </trkpt>
      <trkpt lat="47.8085" lon="-3.5354">
        <ele>57</ele>
        <time>2019-07-15T11:31:46Z</time>
      </trkpt>
      <trkpt lat="47.80847" lon="-3.53534">
        <ele>57</ele>
        <time>2019-07-15T11:31:47Z</time>
      </trkpt>
      <trkpt lat="47.80844" lon="-3.53529">
        <ele>57</ele>
        <time>2019-07-15T11:31:48Z</time>
      </trkpt>
      <trkpt lat="47.80841" lon="-3.53525">
        <ele>57</ele>
        <time>2019-07-15T11:31:49Z</time>
      </trkpt>
      <trkpt lat="47.80839" lon="-3.53522">
        <ele>57</ele>
        <time>2019-07-15T11:31:50Z</time>
      </trkpt>
      <trkpt lat="47.80837" lon="-3.53518">
        <ele>57</ele>
        <time>2019-07-15T11:31:51Z</time>
      </trkpt>
      <trkpt lat="47.80834" lon="-3.53514">
        <ele>56</ele>
        <time>2019-07-15T11:31:52Z</time>
      </trkpt>
      <trkpt lat="47.80831" lon="-3.5351">
        <ele>56</ele>
        <time>2019-07-15T11:31:53Z</time>
      </trkpt>
      <trkpt lat="47.80828" lon="-3.53504">
        <ele>56</ele>
        <time>2019-07-15T11:31:54Z</time>
      </trkpt>
      <trkpt lat="47.80824" lon="-3.53498">
        <ele>56</ele>
        <time>2019-07-15T11:31:55Z</time>
      </trkpt>
      <trkpt lat="47.80819" lon="-3.53492">
        <ele>56</ele>
        <time>2019-07-15T11:31:56Z</time>
      </trkpt>
      <trkpt lat="47.80815" lon="-3.53485">
        <ele>56</ele>
        <time>2019-07-15T11:31:57Z</time>
      </trkpt>
      <trkpt lat="47.80811" lon="-3.53478">
        <ele>56</ele>
        <time>2019-07-15T11:31:58Z</time>
      </trkpt>
      <trkpt lat="47.80808" lon="-3.53473">
        <ele>56</ele>
        <time>2019-07-15T11:31:59Z</time>
      </trkpt>
      <trkpt lat="47.80804" lon="-3.53468">
        <ele>56</ele>
        <time>2019-07-15T11:32:00Z</time>
      </trkpt>
      <trkpt lat="47.80801" lon="-3.53463">
        <ele>55</ele>
        <time>2019-07-15T11:32:01Z</time>
      </trkpt>
      <trkpt lat="47.80798" lon="-3.53457">
        <ele>55</ele>
        <time>2019-07-15T11:32:02Z</time>
      </trkpt>
      <trkpt lat="47.80794" lon="-3.53451">
        <ele>55</ele>
        <time>2019-07-15T11:32:03Z</time>
      </trkpt>
      <trkpt lat="47.80791" lon="-3.53445">
        <ele>55</ele>
        <time>2019-07-15T11:32:04Z</time>
      </trkpt>
      <trkpt lat="47.80786" lon="-3.53437">
        <ele>55</ele>
        <time>2019-07-15T11:32:05Z</time>
      </trkpt>
      <trkpt lat="47.80782" lon="-3.5343">
        <ele>55</ele>
        <time>2019-07-15T11:32:06Z</time>
      </trkpt>
      <trkpt lat="47.80777" lon="-3.53423">
        <ele>55</ele>
        <time>2019-07-15T11:32:07Z</time>
      </trkpt>
      <trkpt lat="47.80773" lon="-3.53417">
        <ele>55</ele>
        <time>2019-07-15T11:32:08Z</time>
      </trkpt>
      <trkpt lat="47.80769" lon="-3.53411">
        <ele>54</ele>
        <time>2019-07-15T11:32:09Z</time>
      </trkpt>
      <trkpt lat="47.80766" lon="-3.53404">
        <ele>54</ele>
        <time>2019-07-15T11:32:10Z</time>
      </trkpt>
      <trkpt lat="47.80762" lon="-3.53398">
        <ele>54</ele>
        <time>2019-07-15T11:32:11Z</time>
      </trkpt>
      <trkpt lat="47.80758" lon="-3.53394">
        <ele>54</ele>
        <time>2019-07-15T11:32:12Z</time>
      </trkpt>
      <trkpt lat="47.80754" lon="-3.53388">
        <ele>54</ele>
        <time>2019-07-15T11:32:13Z</time>
      </trkpt>
      <trkpt lat="47.80749" lon="-3.53383">
        <ele>54</ele>
        <time>2019-07-15T11:32:14Z</time>
      </trkpt>
      <trkpt lat="47.80745" lon="-3.53378">
        <ele>54</ele>
        <time>2019-07-15T11:32:15Z</time>
      </trkpt>
      <trkpt lat="47.80741" lon="-3.53373">
        <ele>54</ele>
        <time>2019-07-15T11:32:16Z</time>
      </trkpt>
      <trkpt lat="47.80738" lon="-3.53368">
        <ele>54</ele>
        <time>2019-07-15T11:32:17Z</time>
      </trkpt>
      <trkpt lat="47.80734" lon="-3.53363">
        <ele>54</ele>
        <time>2019-07-15T11:32:18Z</time>
      </trkpt>
      <trkpt lat="47.80732" lon="-3.53358">
        <ele>54</ele>
        <time>2019-07-15T11:32:19Z</time>
      </trkpt>
      <trkpt lat="47.8073" lon="-3.53352">
        <ele>54</ele>
        <time>2019-07-15T11:32:20Z</time>
      </trkpt>
      <trkpt lat="47.80727" lon="-3.53345">
        <ele>53</ele>
        <time>2019-07-15T11:32:21Z</time>
      </trkpt>
      <trkpt lat="47.80726" lon="-3.53338">
        <ele>53</ele>
        <time>2019-07-15T11:32:22Z</time>
      </trkpt>
      <trkpt lat="47.80724" lon="-3.53331">
        <ele>53</ele>
        <time>2019-07-15T11:32:23Z</time>
      </trkpt>
      <trkpt lat="47.80722" lon="-3.53323">
        <ele>53</ele>
        <time>2019-07-15T11:32:24Z</time>
      </trkpt>
      <trkpt lat="47.80721" lon="-3.53316">
        <ele>53</ele>
        <time>2019-07-15T11:32:25Z</time>
      </trkpt>
      <trkpt lat="47.80721" lon="-3.53309">
        <ele>53</ele>
        <time>2019-07-15T11:32:26Z</time>
      </trkpt>
      <trkpt lat="47.80722" lon="-3.53303">
        <ele>53</ele>
        <time>2019-07-15T11:32:27Z</time>
      </trkpt>
      <trkpt lat="47.80723" lon="-3.53298">
        <ele>53</ele>
        <time>2019-07-15T11:32:28Z</time>
      </trkpt>
      <trkpt lat="47.80724" lon="-3.53294">
        <ele>53</ele>
        <time>2019-07-15T11:32:29Z</time>
      </trkpt>
      <trkpt lat="47.80725" lon="-3.53291">
        <ele>52</ele>
        <time>2019-07-15T11:32:30Z</time>
      </trkpt>
      <trkpt lat="47.80727" lon="-3.53288">
        <ele>52</ele>
        <time>2019-07-15T11:32:31Z</time>
      </trkpt>
      <trkpt lat="47.80729" lon="-3.53285">
        <ele>52</ele>
        <time>2019-07-15T11:32:32Z</time>
      </trkpt>
      <trkpt lat="47.8073" lon="-3.53282">
        <ele>52</ele>
        <time>2019-07-15T11:32:33Z</time>
      </trkpt>
      <trkpt lat="47.80733" lon="-3.5328">
        <ele>52</ele>
        <time>2019-07-15T11:32:34Z</time>
      </trkpt>
      <trkpt lat="47.80735" lon="-3.53279">
        <ele>52</ele>
        <time>2019-07-15T11:32:35Z</time>
      </trkpt>
      <trkpt lat="47.80737" lon="-3.53276">
        <ele>51</ele>
        <time>2019-07-15T11:32:36Z</time>
      </trkpt>
      <trkpt lat="47.80741" lon="-3.53274">
        <ele>51</ele>
        <time>2019-07-15T11:32:37Z</time>
      </trkpt>
      <trkpt lat="47.80744" lon="-3.53272">
        <ele>51</ele>
        <time>2019-07-15T11:32:38Z</time>
      </trkpt>
      <trkpt lat="47.80747" lon="-3.53269">
        <ele>51</ele>
        <time>2019-07-15T11:32:39Z</time>
      </trkpt>
      <trkpt lat="47.80749" lon="-3.53266">
        <ele>51</ele>
        <time>2019-07-15T11:32:40Z</time>
      </trkpt>
      <trkpt lat="47.80752" lon="-3.53263">
        <ele>51</ele>
        <time>2019-07-15T11:32:41Z</time>
      </trkpt>
      <trkpt lat="47.80756" lon="-3.5326">
        <ele>51</ele>
        <time>2019-07-15T11:32:42Z</time>
      </trkpt>
      <trkpt lat="47.8076" lon="-3.53256">
        <ele>51</ele>
        <time>2019-07-15T11:32:43Z</time>
      </trkpt>
      <trkpt lat="47.80763" lon="-3.53253">
        <ele>51</ele>
        <time>2019-07-15T11:32:44Z</time>
      </trkpt>
      <trkpt lat="47.80766" lon="-3.53249">
        <ele>51</ele>
        <time>2019-07-15T11:32:45Z</time>
      </trkpt>
      <trkpt lat="47.80769" lon="-3.53245">
        <ele>51</ele>
        <time>2019-07-15T11:32:46Z</time>
      </trkpt>
      <trkpt lat="47.80772" lon="-3.53241">
        <ele>51</ele>
        <time>2019-07-15T11:32:47Z</time>
      </trkpt>
      <trkpt lat="47.80775" lon="-3.53239">
        <ele>51</ele>
        <time>2019-07-15T11:32:48Z</time>
      </trkpt>
      <trkpt lat="47.80775" lon="-3.53239">
        <ele>51</ele>
        <time>2019-07-15T11:32:51Z</time>
      </trkpt>
      <trkpt lat="47.80775" lon="-3.53239">
        <ele>51</ele>
        <time>2019-07-15T11:32:52Z</time>
      </trkpt>
      <trkpt lat="47.80786" lon="-3.53222">
        <ele>51</ele>
        <time>2019-07-15T11:32:53Z</time>
      </trkpt>
      <trkpt lat="47.80789" lon="-3.53217">
        <ele>51</ele>
        <time>2019-07-15T11:32:54Z</time>
      </trkpt>
      <trkpt lat="47.80793" lon="-3.5321">
        <ele>51</ele>
        <time>2019-07-15T11:32:55Z</time>
      </trkpt>
      <trkpt lat="47.80798" lon="-3.53203">
        <ele>51</ele>
        <time>2019-07-15T11:32:56Z</time>
      </trkpt>
      <trkpt lat="47.80802" lon="-3.53196">
        <ele>52</ele>
        <time>2019-07-15T11:32:57Z</time>
      </trkpt>
      <trkpt lat="47.80806" lon="-3.53189">
        <ele>52</ele>
        <time>2019-07-15T11:32:58Z</time>
      </trkpt>
      <trkpt lat="47.80811" lon="-3.5318">
        <ele>52</ele>
        <time>2019-07-15T11:32:59Z</time>
      </trkpt>
      <trkpt lat="47.80815" lon="-3.53171">
        <ele>52</ele>
        <time>2019-07-15T11:33:00Z</time>
      </trkpt>
      <trkpt lat="47.80818" lon="-3.53163">
        <ele>52</ele>
        <time>2019-07-15T11:33:01Z</time>
      </trkpt>
      <trkpt lat="47.80822" lon="-3.53155">
        <ele>52</ele>
        <time>2019-07-15T11:33:02Z</time>
      </trkpt>
      <trkpt lat="47.80826" lon="-3.53147">
        <ele>52</ele>
        <time>2019-07-15T11:33:03Z</time>
      </trkpt>
      <trkpt lat="47.80829" lon="-3.53138">
        <ele>52</ele>
        <time>2019-07-15T11:33:04Z</time>
      </trkpt>
      <trkpt lat="47.80832" lon="-3.53128">
        <ele>52</ele>
        <time>2019-07-15T11:33:05Z</time>
      </trkpt>
      <trkpt lat="47.80836" lon="-3.53119">
        <ele>51</ele>
        <time>2019-07-15T11:33:06Z</time>
      </trkpt>
      <trkpt lat="47.80839" lon="-3.53111">
        <ele>51</ele>
        <time>2019-07-15T11:33:07Z</time>
      </trkpt>
      <trkpt lat="47.80841" lon="-3.53102">
        <ele>50</ele>
        <time>2019-07-15T11:33:08Z</time>
      </trkpt>
      <trkpt lat="47.80844" lon="-3.53095">
        <ele>50</ele>
        <time>2019-07-15T11:33:09Z</time>
      </trkpt>
      <trkpt lat="47.80847" lon="-3.53087">
        <ele>49</ele>
        <time>2019-07-15T11:33:10Z</time>
      </trkpt>
      <trkpt lat="47.80849" lon="-3.53078">
        <ele>48</ele>
        <time>2019-07-15T11:33:11Z</time>
      </trkpt>
      <trkpt lat="47.80852" lon="-3.53069">
        <ele>48</ele>
        <time>2019-07-15T11:33:12Z</time>
      </trkpt>
      <trkpt lat="47.80856" lon="-3.5306">
        <ele>47</ele>
        <time>2019-07-15T11:33:13Z</time>
      </trkpt>
      <trkpt lat="47.8086" lon="-3.53052">
        <ele>46</ele>
        <time>2019-07-15T11:33:14Z</time>
      </trkpt>
      <trkpt lat="47.80863" lon="-3.53044">
        <ele>45</ele>
        <time>2019-07-15T11:33:15Z</time>
      </trkpt>
      <trkpt lat="47.80867" lon="-3.53038">
        <ele>44</ele>
        <time>2019-07-15T11:33:16Z</time>
      </trkpt>
      <trkpt lat="47.8087" lon="-3.53031">
        <ele>44</ele>
        <time>2019-07-15T11:33:17Z</time>
      </trkpt>
      <trkpt lat="47.80874" lon="-3.53024">
        <ele>43</ele>
        <time>2019-07-15T11:33:18Z</time>
      </trkpt>
      <trkpt lat="47.80878" lon="-3.53016">
        <ele>42</ele>
        <time>2019-07-15T11:33:19Z</time>
      </trkpt>
      <trkpt lat="47.80882" lon="-3.5301">
        <ele>41</ele>
        <time>2019-07-15T11:33:20Z</time>
      </trkpt>
      <trkpt lat="47.80886" lon="-3.53003">
        <ele>40</ele>
        <time>2019-07-15T11:33:21Z</time>
      </trkpt>
      <trkpt lat="47.8089" lon="-3.52997">
        <ele>40</ele>
        <time>2019-07-15T11:33:22Z</time>
      </trkpt>
      <trkpt lat="47.80894" lon="-3.52991">
        <ele>40</ele>
        <time>2019-07-15T11:33:23Z</time>
      </trkpt>
      <trkpt lat="47.80897" lon="-3.52985">
        <ele>39</ele>
        <time>2019-07-15T11:33:24Z</time>
      </trkpt>
      <trkpt lat="47.80901" lon="-3.52979">
        <ele>39</ele>
        <time>2019-07-15T11:33:25Z</time>
      </trkpt>
      <trkpt lat="47.80904" lon="-3.52975">
        <ele>39</ele>
        <time>2019-07-15T11:33:26Z</time>
      </trkpt>
      <trkpt lat="47.80908" lon="-3.52971">
        <ele>39</ele>
        <time>2019-07-15T11:33:27Z</time>
      </trkpt>
      <trkpt lat="47.80912" lon="-3.52967">
        <ele>38</ele>
        <time>2019-07-15T11:33:28Z</time>
      </trkpt>
      <trkpt lat="47.80916" lon="-3.52963">
        <ele>38</ele>
        <time>2019-07-15T11:33:29Z</time>
      </trkpt>
      <trkpt lat="47.80919" lon="-3.52958">
        <ele>38</ele>
        <time>2019-07-15T11:33:30Z</time>
      </trkpt>
      <trkpt lat="47.80923" lon="-3.52953">
        <ele>38</ele>
        <time>2019-07-15T11:33:31Z</time>
      </trkpt>
      <trkpt lat="47.80927" lon="-3.52948">
        <ele>38</ele>
        <time>2019-07-15T11:33:32Z</time>
      </trkpt>
      <trkpt lat="47.80932" lon="-3.52945">
        <ele>38</ele>
        <time>2019-07-15T11:33:33Z</time>
      </trkpt>
      <trkpt lat="47.80937" lon="-3.52941">
        <ele>38</ele>
        <time>2019-07-15T11:33:34Z</time>
      </trkpt>
      <trkpt lat="47.80942" lon="-3.52937">
        <ele>38</ele>
        <time>2019-07-15T11:33:35Z</time>
      </trkpt>
      <trkpt lat="47.80947" lon="-3.52933">
        <ele>38</ele>
        <time>2019-07-15T11:33:36Z</time>
      </trkpt>
      <trkpt lat="47.80954" lon="-3.52927">
        <ele>38</ele>
        <time>2019-07-15T11:33:37Z</time>
      </trkpt>
      <trkpt lat="47.8096" lon="-3.5292">
        <ele>38</ele>
        <time>2019-07-15T11:33:38Z</time>
      </trkpt>
      <trkpt lat="47.80966" lon="-3.52913">
        <ele>38</ele>
        <time>2019-07-15T11:33:39Z</time>
      </trkpt>
      <trkpt lat="47.80971" lon="-3.52904">
        <ele>38</ele>
        <time>2019-07-15T11:33:40Z</time>
      </trkpt>
      <trkpt lat="47.80974" lon="-3.52895">
        <ele>38</ele>
        <time>2019-07-15T11:33:41Z</time>
      </trkpt>
      <trkpt lat="47.80977" lon="-3.52885">
        <ele>38</ele>
        <time>2019-07-15T11:33:42Z</time>
      </trkpt>
      <trkpt lat="47.80978" lon="-3.52875">
        <ele>38</ele>
        <time>2019-07-15T11:33:43Z</time>
      </trkpt>
      <trkpt lat="47.80979" lon="-3.52865">
        <ele>38</ele>
        <time>2019-07-15T11:33:44Z</time>
      </trkpt>
      <trkpt lat="47.80981" lon="-3.52855">
        <ele>38</ele>
        <time>2019-07-15T11:33:45Z</time>
      </trkpt>
      <trkpt lat="47.80982" lon="-3.52844">
        <ele>38</ele>
        <time>2019-07-15T11:33:46Z</time>
      </trkpt>
      <trkpt lat="47.80982" lon="-3.52834">
        <ele>38</ele>
        <time>2019-07-15T11:33:47Z</time>
      </trkpt>
      <trkpt lat="47.80982" lon="-3.52824">
        <ele>38</ele>
        <time>2019-07-15T11:33:48Z</time>
      </trkpt>
      <trkpt lat="47.80982" lon="-3.52815">
        <ele>38</ele>
        <time>2019-07-15T11:33:49Z</time>
      </trkpt>
      <trkpt lat="47.80981" lon="-3.52805">
        <ele>38</ele>
        <time>2019-07-15T11:33:50Z</time>
      </trkpt>
      <trkpt lat="47.80979" lon="-3.52794">
        <ele>38</ele>
        <time>2019-07-15T11:33:51Z</time>
      </trkpt>
      <trkpt lat="47.80977" lon="-3.52781">
        <ele>38</ele>
        <time>2019-07-15T11:33:52Z</time>
      </trkpt>
      <trkpt lat="47.80974" lon="-3.52769">
        <ele>37</ele>
        <time>2019-07-15T11:33:53Z</time>
      </trkpt>
      <trkpt lat="47.80973" lon="-3.52755">
        <ele>37</ele>
        <time>2019-07-15T11:33:54Z</time>
      </trkpt>
      <trkpt lat="47.80971" lon="-3.52741">
        <ele>37</ele>
        <time>2019-07-15T11:33:55Z</time>
      </trkpt>
      <trkpt lat="47.80968" lon="-3.52727">
        <ele>37</ele>
        <time>2019-07-15T11:33:56Z</time>
      </trkpt>
      <trkpt lat="47.80965" lon="-3.52712">
        <ele>37</ele>
        <time>2019-07-15T11:33:57Z</time>
      </trkpt>
      <trkpt lat="47.80962" lon="-3.52699">
        <ele>36</ele>
        <time>2019-07-15T11:33:58Z</time>
      </trkpt>
      <trkpt lat="47.80958" lon="-3.52686">
        <ele>36</ele>
        <time>2019-07-15T11:33:59Z</time>
      </trkpt>
      <trkpt lat="47.80954" lon="-3.52672">
        <ele>36</ele>
        <time>2019-07-15T11:34:00Z</time>
      </trkpt>
      <trkpt lat="47.80949" lon="-3.52657">
        <ele>35</ele>
        <time>2019-07-15T11:34:01Z</time>
      </trkpt>
      <trkpt lat="47.80944" lon="-3.52643">
        <ele>35</ele>
        <time>2019-07-15T11:34:02Z</time>
      </trkpt>
      <trkpt lat="47.80938" lon="-3.52631">
        <ele>35</ele>
        <time>2019-07-15T11:34:03Z</time>
      </trkpt>
      <trkpt lat="47.80931" lon="-3.52621">
        <ele>34</ele>
        <time>2019-07-15T11:34:04Z</time>
      </trkpt>
      <trkpt lat="47.80925" lon="-3.52611">
        <ele>34</ele>
        <time>2019-07-15T11:34:05Z</time>
      </trkpt>
      <trkpt lat="47.80919" lon="-3.52602">
        <ele>34</ele>
        <time>2019-07-15T11:34:06Z</time>
      </trkpt>
      <trkpt lat="47.80913" lon="-3.52594">
        <ele>34</ele>
        <time>2019-07-15T11:34:07Z</time>
      </trkpt>
      <trkpt lat="47.80906" lon="-3.52587">
        <ele>34</ele>
        <time>2019-07-15T11:34:08Z</time>
      </trkpt>
      <trkpt lat="47.80899" lon="-3.52582">
        <ele>33</ele>
        <time>2019-07-15T11:34:09Z</time>
      </trkpt>
      <trkpt lat="47.80891" lon="-3.52579">
        <ele>33</ele>
        <time>2019-07-15T11:34:10Z</time>
      </trkpt>
      <trkpt lat="47.80884" lon="-3.52577">
        <ele>33</ele>
        <time>2019-07-15T11:34:11Z</time>
      </trkpt>
      <trkpt lat="47.80877" lon="-3.52577">
        <ele>32</ele>
        <time>2019-07-15T11:34:12Z</time>
      </trkpt>
      <trkpt lat="47.80871" lon="-3.52577">
        <ele>32</ele>
        <time>2019-07-15T11:34:13Z</time>
      </trkpt>
      <trkpt lat="47.80865" lon="-3.5258">
        <ele>31</ele>
        <time>2019-07-15T11:34:14Z</time>
      </trkpt>
      <trkpt lat="47.80858" lon="-3.52582">
        <ele>31</ele>
        <time>2019-07-15T11:34:15Z</time>
      </trkpt>
      <trkpt lat="47.80853" lon="-3.52585">
        <ele>30</ele>
        <time>2019-07-15T11:34:16Z</time>
      </trkpt>
      <trkpt lat="47.80847" lon="-3.52587">
        <ele>30</ele>
        <time>2019-07-15T11:34:17Z</time>
      </trkpt>
      <trkpt lat="47.80842" lon="-3.5259">
        <ele>30</ele>
        <time>2019-07-15T11:34:18Z</time>
      </trkpt>
      <trkpt lat="47.80837" lon="-3.52593">
        <ele>29</ele>
        <time>2019-07-15T11:34:19Z</time>
      </trkpt>
      <trkpt lat="47.80831" lon="-3.52594">
        <ele>29</ele>
        <time>2019-07-15T11:34:20Z</time>
      </trkpt>
      <trkpt lat="47.80826" lon="-3.52596">
        <ele>29</ele>
        <time>2019-07-15T11:34:21Z</time>
      </trkpt>
      <trkpt lat="47.8082" lon="-3.52598">
        <ele>28</ele>
        <time>2019-07-15T11:34:22Z</time>
      </trkpt>
      <trkpt lat="47.80815" lon="-3.52602">
        <ele>28</ele>
        <time>2019-07-15T11:34:23Z</time>
      </trkpt>
      <trkpt lat="47.8081" lon="-3.52604">
        <ele>28</ele>
        <time>2019-07-15T11:34:24Z</time>
      </trkpt>
      <trkpt lat="47.80805" lon="-3.52606">
        <ele>28</ele>
        <time>2019-07-15T11:34:25Z</time>
      </trkpt>
      <trkpt lat="47.80799" lon="-3.52608">
        <ele>28</ele>
        <time>2019-07-15T11:34:26Z</time>
      </trkpt>
      <trkpt lat="47.80793" lon="-3.5261">
        <ele>27</ele>
        <time>2019-07-15T11:34:27Z</time>
      </trkpt>
      <trkpt lat="47.80787" lon="-3.52612">
        <ele>27</ele>
        <time>2019-07-15T11:34:28Z</time>
      </trkpt>
      <trkpt lat="47.80782" lon="-3.52616">
        <ele>27</ele>
        <time>2019-07-15T11:34:29Z</time>
      </trkpt>
      <trkpt lat="47.80777" lon="-3.52619">
        <ele>27</ele>
        <time>2019-07-15T11:34:30Z</time>
      </trkpt>
      <trkpt lat="47.80771" lon="-3.52622">
        <ele>27</ele>
        <time>2019-07-15T11:34:31Z</time>
      </trkpt>
      <trkpt lat="47.80765" lon="-3.52625">
        <ele>27</ele>
        <time>2019-07-15T11:34:32Z</time>
      </trkpt>
      <trkpt lat="47.80759" lon="-3.52628">
        <ele>26</ele>
        <time>2019-07-15T11:34:33Z</time>
      </trkpt>
      <trkpt lat="47.80752" lon="-3.5263">
        <ele>26</ele>
        <time>2019-07-15T11:34:34Z</time>
      </trkpt>
      <trkpt lat="47.80746" lon="-3.52632">
        <ele>26</ele>
        <time>2019-07-15T11:34:35Z</time>
      </trkpt>
      <trkpt lat="47.8074" lon="-3.52635">
        <ele>25</ele>
        <time>2019-07-15T11:34:36Z</time>
      </trkpt>
      <trkpt lat="47.80734" lon="-3.52638">
        <ele>25</ele>
        <time>2019-07-15T11:34:37Z</time>
      </trkpt>
      <trkpt lat="47.80728" lon="-3.52641">
        <ele>25</ele>
        <time>2019-07-15T11:34:38Z</time>
      </trkpt>
      <trkpt lat="47.80722" lon="-3.52644">
        <ele>24</ele>
        <time>2019-07-15T11:34:39Z</time>
      </trkpt>
      <trkpt lat="47.80717" lon="-3.52646">
        <ele>24</ele>
        <time>2019-07-15T11:34:40Z</time>
      </trkpt>
      <trkpt lat="47.80711" lon="-3.52648">
        <ele>24</ele>
        <time>2019-07-15T11:34:41Z</time>
      </trkpt>
      <trkpt lat="47.80705" lon="-3.5265">
        <ele>24</ele>
        <time>2019-07-15T11:34:42Z</time>
      </trkpt>
      <trkpt lat="47.807" lon="-3.52652">
        <ele>23</ele>
        <time>2019-07-15T11:34:43Z</time>
      </trkpt>
      <trkpt lat="47.80695" lon="-3.52653">
        <ele>23</ele>
        <time>2019-07-15T11:34:44Z</time>
      </trkpt>
      <trkpt lat="47.8069" lon="-3.52654">
        <ele>23</ele>
        <time>2019-07-15T11:34:45Z</time>
      </trkpt>
      <trkpt lat="47.80686" lon="-3.52656">
        <ele>22</ele>
        <time>2019-07-15T11:34:46Z</time>
      </trkpt>
      <trkpt lat="47.80683" lon="-3.52657">
        <ele>22</ele>
        <time>2019-07-15T11:34:47Z</time>
      </trkpt>
      <trkpt lat="47.80682" lon="-3.52656">
        <ele>22</ele>
        <time>2019-07-15T11:34:48Z</time>
      </trkpt>
      <trkpt lat="47.80681" lon="-3.52653">
        <ele>22</ele>
        <time>2019-07-15T11:34:49Z</time>
      </trkpt>
      <trkpt lat="47.80681" lon="-3.52651">
        <ele>21</ele>
        <time>2019-07-15T11:34:50Z</time>
      </trkpt>
      <trkpt lat="47.80682" lon="-3.52649">
        <ele>21</ele>
        <time>2019-07-15T11:34:51Z</time>
      </trkpt>
      <trkpt lat="47.80682" lon="-3.52649">
        <ele>21</ele>
        <time>2019-07-15T11:34:52Z</time>
      </trkpt>
      <trkpt lat="47.80682" lon="-3.52649">
        <ele>21</ele>
        <time>2019-07-15T11:34:53Z</time>
      </trkpt>
      <trkpt lat="47.80675" lon="-3.52654">
        <ele>11</ele>
        <time>2019-07-15T11:34:54Z</time>
      </trkpt>
      <trkpt lat="47.80674" lon="-3.52656">
        <ele>11</ele>
        <time>2019-07-15T11:34:55Z</time>
      </trkpt>
      <trkpt lat="47.80673" lon="-3.52658">
        <ele>11</ele>
        <time>2019-07-15T11:34:56Z</time>
      </trkpt>
      <trkpt lat="47.80671" lon="-3.5266">
        <ele>11</ele>
        <time>2019-07-15T11:34:57Z</time>
      </trkpt>
      <trkpt lat="47.80669" lon="-3.52663">
        <ele>11</ele>
        <time>2019-07-15T11:34:58Z</time>
      </trkpt>
      <trkpt lat="47.80667" lon="-3.52667">
        <ele>11</ele>
        <time>2019-07-15T11:34:59Z</time>
      </trkpt>
      <trkpt lat="47.80664" lon="-3.5267">
        <ele>11</ele>
        <time>2019-07-15T11:35:00Z</time>
      </trkpt>
      <trkpt lat="47.80661" lon="-3.52671">
        <ele>11</ele>
        <time>2019-07-15T11:35:01Z</time>
      </trkpt>
      <trkpt lat="47.80658" lon="-3.52673">
        <ele>11</ele>
        <time>2019-07-15T11:35:02Z</time>
      </trkpt>
      <trkpt lat="47.80655" lon="-3.52674">
        <ele>10</ele>
        <time>2019-07-15T11:35:03Z</time>
      </trkpt>
      <trkpt lat="47.80652" lon="-3.52676">
        <ele>10</ele>
        <time>2019-07-15T11:35:04Z</time>
      </trkpt>
      <trkpt lat="47.80648" lon="-3.52677">
        <ele>10</ele>
        <time>2019-07-15T11:35:05Z</time>
      </trkpt>
      <trkpt lat="47.80645" lon="-3.52678">
        <ele>10</ele>
        <time>2019-07-15T11:35:06Z</time>
      </trkpt>
      <trkpt lat="47.80642" lon="-3.5268">
        <ele>10</ele>
        <time>2019-07-15T11:35:07Z</time>
      </trkpt>
      <trkpt lat="47.80638" lon="-3.52682">
        <ele>10</ele>
        <time>2019-07-15T11:35:08Z</time>
      </trkpt>
      <trkpt lat="47.80635" lon="-3.52683">
        <ele>10</ele>
        <time>2019-07-15T11:35:09Z</time>
      </trkpt>
      <trkpt lat="47.80631" lon="-3.52684">
        <ele>10</ele>
        <time>2019-07-15T11:35:10Z</time>
      </trkpt>
      <trkpt lat="47.80627" lon="-3.52685">
        <ele>10</ele>
        <time>2019-07-15T11:35:11Z</time>
      </trkpt>
      <trkpt lat="47.80623" lon="-3.52686">
        <ele>9</ele>
        <time>2019-07-15T11:35:12Z</time>
      </trkpt>
      <trkpt lat="47.80619" lon="-3.52689">
        <ele>9</ele>
        <time>2019-07-15T11:35:13Z</time>
      </trkpt>
      <trkpt lat="47.80615" lon="-3.52691">
        <ele>9</ele>
        <time>2019-07-15T11:35:14Z</time>
      </trkpt>
      <trkpt lat="47.80611" lon="-3.52693">
        <ele>9</ele>
        <time>2019-07-15T11:35:15Z</time>
      </trkpt>
      <trkpt lat="47.80607" lon="-3.52695">
        <ele>9</ele>
        <time>2019-07-15T11:35:16Z</time>
      </trkpt>
      <trkpt lat="47.80603" lon="-3.52696">
        <ele>9</ele>
        <time>2019-07-15T11:35:17Z</time>
      </trkpt>
      <trkpt lat="47.80598" lon="-3.52698">
        <ele>9</ele>
        <time>2019-07-15T11:35:18Z</time>
      </trkpt>
      <trkpt lat="47.80594" lon="-3.527">
        <ele>9</ele>
        <time>2019-07-15T11:35:19Z</time>
      </trkpt>
      <trkpt lat="47.80589" lon="-3.52702">
        <ele>9</ele>
        <time>2019-07-15T11:35:20Z</time>
      </trkpt>
      <trkpt lat="47.80585" lon="-3.52704">
        <ele>8</ele>
        <time>2019-07-15T11:35:21Z</time>
      </trkpt>
      <trkpt lat="47.8058" lon="-3.52706">
        <ele>8</ele>
        <time>2019-07-15T11:35:22Z</time>
      </trkpt>
      <trkpt lat="47.80575" lon="-3.52708">
        <ele>8</ele>
        <time>2019-07-15T11:35:23Z</time>
      </trkpt>
      <trkpt lat="47.80571" lon="-3.5271">
        <ele>8</ele>
        <time>2019-07-15T11:35:24Z</time>
      </trkpt>
      <trkpt lat="47.80566" lon="-3.52713">
        <ele>8</ele>
        <time>2019-07-15T11:35:25Z</time>
      </trkpt>
      <trkpt lat="47.8056" lon="-3.52714">
        <ele>8</ele>
        <time>2019-07-15T11:35:26Z</time>
      </trkpt>
      <trkpt lat="47.80555" lon="-3.52717">
        <ele>8</ele>
        <time>2019-07-15T11:35:27Z</time>
      </trkpt>
      <trkpt lat="47.8055" lon="-3.52719">
        <ele>8</ele>
        <time>2019-07-15T11:35:28Z</time>
      </trkpt>
      <trkpt lat="47.80545" lon="-3.52721">
        <ele>8</ele>
        <time>2019-07-15T11:35:29Z</time>
      </trkpt>
      <trkpt lat="47.80539" lon="-3.52723">
        <ele>8</ele>
        <time>2019-07-15T11:35:30Z</time>
      </trkpt>
      <trkpt lat="47.80533" lon="-3.52725">
        <ele>7</ele>
        <time>2019-07-15T11:35:31Z</time>
      </trkpt>
      <trkpt lat="47.80527" lon="-3.52727">
        <ele>7</ele>
        <time>2019-07-15T11:35:32Z</time>
      </trkpt>
      <trkpt lat="47.8052" lon="-3.52728">
        <ele>7</ele>
        <time>2019-07-15T11:35:33Z</time>
      </trkpt>
      <trkpt lat="47.80513" lon="-3.52729">
        <ele>7</ele>
        <time>2019-07-15T11:35:34Z</time>
      </trkpt>
      <trkpt lat="47.80507" lon="-3.52729">
        <ele>6</ele>
        <time>2019-07-15T11:35:35Z</time>
      </trkpt>
      <trkpt lat="47.805" lon="-3.5273">
        <ele>6</ele>
        <time>2019-07-15T11:35:36Z</time>
      </trkpt>
      <trkpt lat="47.80494" lon="-3.5273">
        <ele>6</ele>
        <time>2019-07-15T11:35:37Z</time>
      </trkpt>
      <trkpt lat="47.80488" lon="-3.5273">
        <ele>5</ele>
        <time>2019-07-15T11:35:38Z</time>
      </trkpt>
      <trkpt lat="47.80482" lon="-3.5273">
        <ele>5</ele>
        <time>2019-07-15T11:35:39Z</time>
      </trkpt>
      <trkpt lat="47.80476" lon="-3.52731">
        <ele>5</ele>
        <time>2019-07-15T11:35:40Z</time>
      </trkpt>
      <trkpt lat="47.8047" lon="-3.52731">
        <ele>4</ele>
        <time>2019-07-15T11:35:41Z</time>
      </trkpt>
      <trkpt lat="47.80464" lon="-3.52731">
        <ele>4</ele>
        <time>2019-07-15T11:35:42Z</time>
      </trkpt>
      <trkpt lat="47.80458" lon="-3.52731">
        <ele>4</ele>
        <time>2019-07-15T11:35:43Z</time>
      </trkpt>
      <trkpt lat="47.80453" lon="-3.5273">
        <ele>3</ele>
        <time>2019-07-15T11:35:44Z</time>
      </trkpt>
      <trkpt lat="47.80447" lon="-3.5273">
        <ele>3</ele>
        <time>2019-07-15T11:35:45Z</time>
      </trkpt>
      <trkpt lat="47.80442" lon="-3.52729">
        <ele>3</ele>
        <time>2019-07-15T11:35:46Z</time>
      </trkpt>
      <trkpt lat="47.80437" lon="-3.52728">
        <ele>3</ele>
        <time>2019-07-15T11:35:47Z</time>
      </trkpt>
      <trkpt lat="47.80433" lon="-3.52727">
        <ele>3</ele>
        <time>2019-07-15T11:35:48Z</time>
      </trkpt>
      <trkpt lat="47.80428" lon="-3.52726">
        <ele>3</ele>
        <time>2019-07-15T11:35:49Z</time>
      </trkpt>
      <trkpt lat="47.80424" lon="-3.52726">
        <ele>3</ele>
        <time>2019-07-15T11:35:50Z</time>
      </trkpt>
      <trkpt lat="47.8042" lon="-3.52726">
        <ele>3</ele>
        <time>2019-07-15T11:35:51Z</time>
      </trkpt>
      <trkpt lat="47.80416" lon="-3.52725">
        <ele>2</ele>
        <time>2019-07-15T11:35:52Z</time>
      </trkpt>
      <trkpt lat="47.80412" lon="-3.52725">
        <ele>2</ele>
        <time>2019-07-15T11:35:53Z</time>
      </trkpt>
      <trkpt lat="47.80408" lon="-3.52724">
        <ele>2</ele>
        <time>2019-07-15T11:35:54Z</time>
      </trkpt>
      <trkpt lat="47.80404" lon="-3.52723">
        <ele>2</ele>
        <time>2019-07-15T11:35:55Z</time>
      </trkpt>
      <trkpt lat="47.804" lon="-3.52722">
        <ele>2</ele>
        <time>2019-07-15T11:35:56Z</time>
      </trkpt>
      <trkpt lat="47.80396" lon="-3.52721">
        <ele>2</ele>
        <time>2019-07-15T11:35:57Z</time>
      </trkpt>
      <trkpt lat="47.80392" lon="-3.5272">
        <ele>2</ele>
        <time>2019-07-15T11:35:58Z</time>
      </trkpt>
      <trkpt lat="47.80388" lon="-3.52718">
        <ele>2</ele>
        <time>2019-07-15T11:35:59Z</time>
      </trkpt>
      <trkpt lat="47.80384" lon="-3.52716">
        <ele>2</ele>
        <time>2019-07-15T11:36:00Z</time>
      </trkpt>
      <trkpt lat="47.8038" lon="-3.52715">
        <ele>3</ele>
        <time>2019-07-15T11:36:01Z</time>
      </trkpt>
      <trkpt lat="47.80377" lon="-3.52713">
        <ele>3</ele>
        <time>2019-07-15T11:36:02Z</time>
      </trkpt>
      <trkpt lat="47.80373" lon="-3.52711">
        <ele>3</ele>
        <time>2019-07-15T11:36:03Z</time>
      </trkpt>
      <trkpt lat="47.80371" lon="-3.52709">
        <ele>3</ele>
        <time>2019-07-15T11:36:04Z</time>
      </trkpt>
      <trkpt lat="47.80368" lon="-3.52707">
        <ele>3</ele>
        <time>2019-07-15T11:36:05Z</time>
      </trkpt>
      <trkpt lat="47.80365" lon="-3.52707">
        <ele>3</ele>
        <time>2019-07-15T11:36:06Z</time>
      </trkpt>
      <trkpt lat="47.80362" lon="-3.52707">
        <ele>3</ele>
        <time>2019-07-15T11:36:07Z</time>
      </trkpt>
      <trkpt lat="47.80359" lon="-3.52707">
        <ele>3</ele>
        <time>2019-07-15T11:36:08Z</time>
      </trkpt>
      <trkpt lat="47.80356" lon="-3.52706">
        <ele>3</ele>
        <time>2019-07-15T11:36:09Z</time>
      </trkpt>
      <trkpt lat="47.80355" lon="-3.52704">
        <ele>3</ele>
        <time>2019-07-15T11:36:10Z</time>
      </trkpt>
      <trkpt lat="47.80353" lon="-3.52703">
        <ele>4</ele>
        <time>2019-07-15T11:36:11Z</time>
      </trkpt>
      <trkpt lat="47.80352" lon="-3.52702">
        <ele>4</ele>
        <time>2019-07-15T11:36:12Z</time>
      </trkpt>
      <trkpt lat="47.80351" lon="-3.52701">
        <ele>4</ele>
        <time>2019-07-15T11:36:13Z</time>
      </trkpt>
      <trkpt lat="47.8035" lon="-3.52701">
        <ele>5</ele>
        <time>2019-07-15T11:36:14Z</time>
      </trkpt>
      <trkpt lat="47.80349" lon="-3.52701">
        <ele>5</ele>
        <time>2019-07-15T11:36:15Z</time>
      </trkpt>
      <trkpt lat="47.80349" lon="-3.52701">
        <ele>5</ele>
        <time>2019-07-15T11:36:16Z</time>
      </trkpt>
      <trkpt lat="47.80349" lon="-3.527">
        <ele>5</ele>
        <time>2019-07-15T11:36:17Z</time>
      </trkpt>
      <trkpt lat="47.80349" lon="-3.52698">
        <ele>6</ele>
        <time>2019-07-15T11:36:18Z</time>
      </trkpt>
      <trkpt lat="47.8035" lon="-3.52697">
        <ele>6</ele>
        <time>2019-07-15T11:36:19Z</time>
      </trkpt>
      <trkpt lat="47.8035" lon="-3.52696">
        <ele>6</ele>
        <time>2019-07-15T11:36:20Z</time>
      </trkpt>
      <trkpt lat="47.80351" lon="-3.52696">
        <ele>6</ele>
        <time>2019-07-15T11:36:21Z</time>
      </trkpt>
      <trkpt lat="47.80351" lon="-3.52696">
        <ele>6</ele>
        <time>2019-07-15T11:36:22Z</time>
      </trkpt>
      <trkpt lat="47.80352" lon="-3.52699">
        <ele>7</ele>
        <time>2019-07-15T11:36:23Z</time>
      </trkpt>
      <trkpt lat="47.80351" lon="-3.52701">
        <ele>8</ele>
        <time>2019-07-15T11:36:24Z</time>
      </trkpt>
      <trkpt lat="47.80349" lon="-3.52701">
        <ele>8</ele>
        <time>2019-07-15T11:36:25Z</time>
      </trkpt>
      <trkpt lat="47.80348" lon="-3.52701">
        <ele>8</ele>
        <time>2019-07-15T11:36:26Z</time>
      </trkpt>
      <trkpt lat="47.80346" lon="-3.527">
        <ele>8</ele>
        <time>2019-07-15T11:36:27Z</time>
      </trkpt>
      <trkpt lat="47.80345" lon="-3.527">
        <ele>8</ele>
        <time>2019-07-15T11:36:28Z</time>
      </trkpt>
      <trkpt lat="47.80342" lon="-3.52701">
        <ele>8</ele>
        <time>2019-07-15T11:36:29Z</time>
      </trkpt>
      <trkpt lat="47.8034" lon="-3.52701">
        <ele>8</ele>
        <time>2019-07-15T11:36:30Z</time>
      </trkpt>
      <trkpt lat="47.80338" lon="-3.52701">
        <ele>8</ele>
        <time>2019-07-15T11:36:31Z</time>
      </trkpt>
      <trkpt lat="47.80336" lon="-3.52702">
        <ele>8</ele>
        <time>2019-07-15T11:36:32Z</time>
      </trkpt>
      <trkpt lat="47.80334" lon="-3.52702">
        <ele>8</ele>
        <time>2019-07-15T11:36:33Z</time>
      </trkpt>
      <trkpt lat="47.80332" lon="-3.52703">
        <ele>8</ele>
        <time>2019-07-15T11:36:34Z</time>
      </trkpt>
      <trkpt lat="47.8033" lon="-3.52704">
        <ele>8</ele>
        <time>2019-07-15T11:36:35Z</time>
      </trkpt>
      <trkpt lat="47.80328" lon="-3.52705">
        <ele>8</ele>
        <time>2019-07-15T11:36:36Z</time>
      </trkpt>
      <trkpt lat="47.80326" lon="-3.52706">
        <ele>8</ele>
        <time>2019-07-15T11:36:37Z</time>
      </trkpt>
      <trkpt lat="47.80324" lon="-3.52707">
        <ele>8</ele>
        <time>2019-07-15T11:36:38Z</time>
      </trkpt>
      <trkpt lat="47.80322" lon="-3.52708">
        <ele>9</ele>
        <time>2019-07-15T11:36:39Z</time>
      </trkpt>
      <trkpt lat="47.8032" lon="-3.52709">
        <ele>9</ele>
        <time>2019-07-15T11:36:40Z</time>
      </trkpt>
      <trkpt lat="47.80317" lon="-3.52711">
        <ele>9</ele>
        <time>2019-07-15T11:36:41Z</time>
      </trkpt>
      <trkpt lat="47.80316" lon="-3.52713">
        <ele>9</ele>
        <time>2019-07-15T11:36:42Z</time>
      </trkpt>
      <trkpt lat="47.80314" lon="-3.52715">
        <ele>9</ele>
        <time>2019-07-15T11:36:43Z</time>
      </trkpt>
      <trkpt lat="47.80311" lon="-3.52717">
        <ele>9</ele>
        <time>2019-07-15T11:36:44Z</time>
      </trkpt>
      <trkpt lat="47.80309" lon="-3.52719">
        <ele>10</ele>
        <time>2019-07-15T11:36:45Z</time>
      </trkpt>
      <trkpt lat="47.80306" lon="-3.52721">
        <ele>10</ele>
        <time>2019-07-15T11:36:46Z</time>
      </trkpt>
      <trkpt lat="47.80304" lon="-3.52724">
        <ele>10</ele>
        <time>2019-07-15T11:36:47Z</time>
      </trkpt>
      <trkpt lat="47.80302" lon="-3.52725">
        <ele>10</ele>
        <time>2019-07-15T11:36:48Z</time>
      </trkpt>
      <trkpt lat="47.803" lon="-3.52727">
        <ele>11</ele>
        <time>2019-07-15T11:36:49Z</time>
      </trkpt>
      <trkpt lat="47.80298" lon="-3.52728">
        <ele>11</ele>
        <time>2019-07-15T11:36:50Z</time>
      </trkpt>
      <trkpt lat="47.80296" lon="-3.5273">
        <ele>11</ele>
        <time>2019-07-15T11:36:51Z</time>
      </trkpt>
      <trkpt lat="47.80294" lon="-3.52731">
        <ele>12</ele>
        <time>2019-07-15T11:36:52Z</time>
      </trkpt>
      <trkpt lat="47.80292" lon="-3.52733">
        <ele>12</ele>
        <time>2019-07-15T11:36:53Z</time>
      </trkpt>
      <trkpt lat="47.8029" lon="-3.52734">
        <ele>12</ele>
        <time>2019-07-15T11:36:54Z</time>
      </trkpt>
      <trkpt lat="47.80289" lon="-3.52736">
        <ele>13</ele>
        <time>2019-07-15T11:36:55Z</time>
      </trkpt>
      <trkpt lat="47.80287" lon="-3.52738">
        <ele>13</ele>
        <time>2019-07-15T11:36:56Z</time>
      </trkpt>
      <trkpt lat="47.80284" lon="-3.5274">
        <ele>14</ele>
        <time>2019-07-15T11:36:57Z</time>
      </trkpt>
      <trkpt lat="47.80282" lon="-3.52742">
        <ele>14</ele>
        <time>2019-07-15T11:36:58Z</time>
      </trkpt>
      <trkpt lat="47.8028" lon="-3.52744">
        <ele>14</ele>
        <time>2019-07-15T11:36:59Z</time>
      </trkpt>
      <trkpt lat="47.80277" lon="-3.52746">
        <ele>14</ele>
        <time>2019-07-15T11:37:00Z</time>
      </trkpt>
      <trkpt lat="47.80275" lon="-3.52747">
        <ele>14</ele>
        <time>2019-07-15T11:37:01Z</time>
      </trkpt>
      <trkpt lat="47.80273" lon="-3.52749">
        <ele>14</ele>
        <time>2019-07-15T11:37:02Z</time>
      </trkpt>
      <trkpt lat="47.8027" lon="-3.5275">
        <ele>14</ele>
        <time>2019-07-15T11:37:03Z</time>
      </trkpt>
      <trkpt lat="47.80267" lon="-3.52752">
        <ele>14</ele>
        <time>2019-07-15T11:37:04Z</time>
      </trkpt>
      <trkpt lat="47.80265" lon="-3.52754">
        <ele>14</ele>
        <time>2019-07-15T11:37:05Z</time>
      </trkpt>
      <trkpt lat="47.80262" lon="-3.52755">
        <ele>14</ele>
        <time>2019-07-15T11:37:06Z</time>
      </trkpt>
      <trkpt lat="47.8026" lon="-3.52756">
        <ele>15</ele>
        <time>2019-07-15T11:37:07Z</time>
      </trkpt>
      <trkpt lat="47.80257" lon="-3.52758">
        <ele>15</ele>
        <time>2019-07-15T11:37:08Z</time>
      </trkpt>
      <trkpt lat="47.80255" lon="-3.52759">
        <ele>15</ele>
        <time>2019-07-15T11:37:09Z</time>
      </trkpt>
      <trkpt lat="47.80253" lon="-3.5276">
        <ele>15</ele>
        <time>2019-07-15T11:37:10Z</time>
      </trkpt>
      <trkpt lat="47.8025" lon="-3.52761">
        <ele>15</ele>
        <time>2019-07-15T11:37:11Z</time>
      </trkpt>
      <trkpt lat="47.80248" lon="-3.52762">
        <ele>15</ele>
        <time>2019-07-15T11:37:12Z</time>
      </trkpt>
      <trkpt lat="47.80247" lon="-3.52762">
        <ele>15</ele>
        <time>2019-07-15T11:37:13Z</time>
      </trkpt>
      <trkpt lat="47.80246" lon="-3.52761">
        <ele>16</ele>
        <time>2019-07-15T11:37:14Z</time>
      </trkpt>
      <trkpt lat="47.80246" lon="-3.52761">
        <ele>16</ele>
        <time>2019-07-15T11:37:15Z</time>
      </trkpt>
      <trkpt lat="47.80245" lon="-3.52761">
        <ele>16</ele>
        <time>2019-07-15T11:37:16Z</time>
      </trkpt>
      <trkpt lat="47.80245" lon="-3.52761">
        <ele>16</ele>
        <time>2019-07-15T11:37:17Z</time>
      </trkpt>
      <trkpt lat="47.80252" lon="-3.52761">
        <ele>20</ele>
        <time>2019-07-15T11:37:18Z</time>
      </trkpt>
      <trkpt lat="47.80253" lon="-3.5276">
        <ele>20</ele>
        <time>2019-07-15T11:37:19Z</time>
      </trkpt>
      <trkpt lat="47.80254" lon="-3.52758">
        <ele>20</ele>
        <time>2019-07-15T11:37:20Z</time>
      </trkpt>
      <trkpt lat="47.80256" lon="-3.52757">
        <ele>20</ele>
        <time>2019-07-15T11:37:21Z</time>
      </trkpt>
      <trkpt lat="47.80257" lon="-3.52756">
        <ele>21</ele>
        <time>2019-07-15T11:37:22Z</time>
      </trkpt>
      <trkpt lat="47.80258" lon="-3.52754">
        <ele>21</ele>
        <time>2019-07-15T11:37:23Z</time>
      </trkpt>
      <trkpt lat="47.80259" lon="-3.52754">
        <ele>21</ele>
        <time>2019-07-15T11:37:24Z</time>
      </trkpt>
      <trkpt lat="47.80261" lon="-3.52753">
        <ele>20</ele>
        <time>2019-07-15T11:37:25Z</time>
      </trkpt>
      <trkpt lat="47.80263" lon="-3.52751">
        <ele>20</ele>
        <time>2019-07-15T11:37:26Z</time>
      </trkpt>
      <trkpt lat="47.80265" lon="-3.52749">
        <ele>20</ele>
        <time>2019-07-15T11:37:27Z</time>
      </trkpt>
      <trkpt lat="47.80267" lon="-3.52747">
        <ele>20</ele>
        <time>2019-07-15T11:37:28Z</time>
      </trkpt>
      <trkpt lat="47.80269" lon="-3.52745">
        <ele>20</ele>
        <time>2019-07-15T11:37:29Z</time>
      </trkpt>
      <trkpt lat="47.8027" lon="-3.52743">
        <ele>20</ele>
        <time>2019-07-15T11:37:30Z</time>
      </trkpt>
      <trkpt lat="47.8027" lon="-3.52741">
        <ele>21</ele>
        <time>2019-07-15T11:37:31Z</time>
      </trkpt>
      <trkpt lat="47.80271" lon="-3.52739">
        <ele>21</ele>
        <time>2019-07-15T11:37:32Z</time>
      </trkpt>
      <trkpt lat="47.80272" lon="-3.52738">
        <ele>21</ele>
        <time>2019-07-15T11:37:33Z</time>
      </trkpt>
      <trkpt lat="47.80273" lon="-3.52736">
        <ele>21</ele>
        <time>2019-07-15T11:37:34Z</time>
      </trkpt>
      <trkpt lat="47.80274" lon="-3.52735">
        <ele>21</ele>
        <time>2019-07-15T11:37:35Z</time>
      </trkpt>
      <trkpt lat="47.80275" lon="-3.52733">
        <ele>21</ele>
        <time>2019-07-15T11:37:36Z</time>
      </trkpt>
      <trkpt lat="47.80276" lon="-3.52731">
        <ele>21</ele>
        <time>2019-07-15T11:37:37Z</time>
      </trkpt>
      <trkpt lat="47.80277" lon="-3.52728">
        <ele>22</ele>
        <time>2019-07-15T11:37:38Z</time>
      </trkpt>
      <trkpt lat="47.80278" lon="-3.52727">
        <ele>22</ele>
        <time>2019-07-15T11:37:39Z</time>
      </trkpt>
      <trkpt lat="47.80279" lon="-3.52725">
        <ele>22</ele>
        <time>2019-07-15T11:37:40Z</time>
      </trkpt>
      <trkpt lat="47.8028" lon="-3.52723">
        <ele>22</ele>
        <time>2019-07-15T11:37:41Z</time>
      </trkpt>
      <trkpt lat="47.80281" lon="-3.52721">
        <ele>22</ele>
        <time>2019-07-15T11:37:42Z</time>
      </trkpt>
      <trkpt lat="47.80282" lon="-3.52718">
        <ele>23</ele>
        <time>2019-07-15T11:37:43Z</time>
      </trkpt>
      <trkpt lat="47.80283" lon="-3.52716">
        <ele>23</ele>
        <time>2019-07-15T11:37:44Z</time>
      </trkpt>
      <trkpt lat="47.80284" lon="-3.52714">
        <ele>23</ele>
        <time>2019-07-15T11:37:45Z</time>
      </trkpt>
      <trkpt lat="47.80286" lon="-3.5271">
        <ele>23</ele>
        <time>2019-07-15T11:37:46Z</time>
      </trkpt>
      <trkpt lat="47.80287" lon="-3.52707">
        <ele>24</ele>
        <time>2019-07-15T11:37:47Z</time>
      </trkpt>
      <trkpt lat="47.80288" lon="-3.52704">
        <ele>24</ele>
        <time>2019-07-15T11:37:48Z</time>
      </trkpt>
      <trkpt lat="47.80289" lon="-3.52701">
        <ele>24</ele>
        <time>2019-07-15T11:37:49Z</time>
      </trkpt>
      <trkpt lat="47.80289" lon="-3.52698">
        <ele>24</ele>
        <time>2019-07-15T11:37:50Z</time>
      </trkpt>
      <trkpt lat="47.8029" lon="-3.52696">
        <ele>24</ele>
        <time>2019-07-15T11:37:51Z</time>
      </trkpt>
      <trkpt lat="47.8029" lon="-3.52693">
        <ele>25</ele>
        <time>2019-07-15T11:37:52Z</time>
      </trkpt>
      <trkpt lat="47.8029" lon="-3.52691">
        <ele>25</ele>
        <time>2019-07-15T11:37:53Z</time>
      </trkpt>
      <trkpt lat="47.8029" lon="-3.52689">
        <ele>25</ele>
        <time>2019-07-15T11:37:54Z</time>
      </trkpt>
      <trkpt lat="47.8029" lon="-3.52686">
        <ele>25</ele>
        <time>2019-07-15T11:37:55Z</time>
      </trkpt>
      <trkpt lat="47.8029" lon="-3.52683">
        <ele>25</ele>
        <time>2019-07-15T11:37:56Z</time>
      </trkpt>
      <trkpt lat="47.8029" lon="-3.5268">
        <ele>25</ele>
        <time>2019-07-15T11:37:57Z</time>
      </trkpt>
      <trkpt lat="47.8029" lon="-3.52677">
        <ele>25</ele>
        <time>2019-07-15T11:37:58Z</time>
      </trkpt>
      <trkpt lat="47.80291" lon="-3.52674">
        <ele>26</ele>
        <time>2019-07-15T11:37:59Z</time>
      </trkpt>
      <trkpt lat="47.80291" lon="-3.52671">
        <ele>26</ele>
        <time>2019-07-15T11:38:00Z</time>
      </trkpt>
      <trkpt lat="47.80292" lon="-3.52667">
        <ele>26</ele>
        <time>2019-07-15T11:38:01Z</time>
      </trkpt>
      <trkpt lat="47.80292" lon="-3.52664">
        <ele>26</ele>
        <time>2019-07-15T11:38:02Z</time>
      </trkpt>
      <trkpt lat="47.80292" lon="-3.52661">
        <ele>26</ele>
        <time>2019-07-15T11:38:03Z</time>
      </trkpt>
      <trkpt lat="47.80293" lon="-3.52659">
        <ele>26</ele>
        <time>2019-07-15T11:38:04Z</time>
      </trkpt>
      <trkpt lat="47.80293" lon="-3.52656">
        <ele>26</ele>
        <time>2019-07-15T11:38:05Z</time>
      </trkpt>
      <trkpt lat="47.80293" lon="-3.52652">
        <ele>26</ele>
        <time>2019-07-15T11:38:06Z</time>
      </trkpt>
      <trkpt lat="47.80294" lon="-3.52649">
        <ele>27</ele>
        <time>2019-07-15T11:38:07Z</time>
      </trkpt>
      <trkpt lat="47.80293" lon="-3.52645">
        <ele>27</ele>
        <time>2019-07-15T11:38:08Z</time>
      </trkpt>
      <trkpt lat="47.80294" lon="-3.52641">
        <ele>27</ele>
        <time>2019-07-15T11:38:09Z</time>
      </trkpt>
      <trkpt lat="47.80294" lon="-3.52637">
        <ele>27</ele>
        <time>2019-07-15T11:38:10Z</time>
      </trkpt>
      <trkpt lat="47.80294" lon="-3.52633">
        <ele>27</ele>
        <time>2019-07-15T11:38:11Z</time>
      </trkpt>
      <trkpt lat="47.80294" lon="-3.5263">
        <ele>28</ele>
        <time>2019-07-15T11:38:12Z</time>
      </trkpt>
      <trkpt lat="47.80294" lon="-3.52626">
        <ele>28</ele>
        <time>2019-07-15T11:38:13Z</time>
      </trkpt>
      <trkpt lat="47.80294" lon="-3.52622">
        <ele>28</ele>
        <time>2019-07-15T11:38:14Z</time>
      </trkpt>
      <trkpt lat="47.80294" lon="-3.52618">
        <ele>28</ele>
        <time>2019-07-15T11:38:15Z</time>
      </trkpt>
      <trkpt lat="47.80294" lon="-3.52615">
        <ele>28</ele>
        <time>2019-07-15T11:38:16Z</time>
      </trkpt>
      <trkpt lat="47.80294" lon="-3.52611">
        <ele>29</ele>
        <time>2019-07-15T11:38:17Z</time>
      </trkpt>
      <trkpt lat="47.80294" lon="-3.52608">
        <ele>29</ele>
        <time>2019-07-15T11:38:18Z</time>
      </trkpt>
      <trkpt lat="47.80294" lon="-3.52606">
        <ele>29</ele>
        <time>2019-07-15T11:38:19Z</time>
      </trkpt>
      <trkpt lat="47.80294" lon="-3.52602">
        <ele>29</ele>
        <time>2019-07-15T11:38:20Z</time>
      </trkpt>
      <trkpt lat="47.80293" lon="-3.52599">
        <ele>29</ele>
        <time>2019-07-15T11:38:21Z</time>
      </trkpt>
      <trkpt lat="47.80292" lon="-3.52596">
        <ele>29</ele>
        <time>2019-07-15T11:38:22Z</time>
      </trkpt>
      <trkpt lat="47.80292" lon="-3.52593">
        <ele>29</ele>
        <time>2019-07-15T11:38:23Z</time>
      </trkpt>
      <trkpt lat="47.80291" lon="-3.5259">
        <ele>29</ele>
        <time>2019-07-15T11:38:24Z</time>
      </trkpt>
      <trkpt lat="47.80291" lon="-3.52587">
        <ele>30</ele>
        <time>2019-07-15T11:38:25Z</time>
      </trkpt>
      <trkpt lat="47.80291" lon="-3.52583">
        <ele>30</ele>
        <time>2019-07-15T11:38:26Z</time>
      </trkpt>
      <trkpt lat="47.80291" lon="-3.52579">
        <ele>30</ele>
        <time>2019-07-15T11:38:27Z</time>
      </trkpt>
      <trkpt lat="47.80291" lon="-3.52576">
        <ele>30</ele>
        <time>2019-07-15T11:38:28Z</time>
      </trkpt>
      <trkpt lat="47.80291" lon="-3.52572">
        <ele>30</ele>
        <time>2019-07-15T11:38:29Z</time>
      </trkpt>
      <trkpt lat="47.80291" lon="-3.52567">
        <ele>30</ele>
        <time>2019-07-15T11:38:30Z</time>
      </trkpt>
      <trkpt lat="47.80292" lon="-3.52562">
        <ele>31</ele>
        <time>2019-07-15T11:38:31Z</time>
      </trkpt>
      <trkpt lat="47.80291" lon="-3.52558">
        <ele>31</ele>
        <time>2019-07-15T11:38:32Z</time>
      </trkpt>
      <trkpt lat="47.80291" lon="-3.52554">
        <ele>31</ele>
        <time>2019-07-15T11:38:33Z</time>
      </trkpt>
      <trkpt lat="47.80291" lon="-3.52549">
        <ele>31</ele>
        <time>2019-07-15T11:38:34Z</time>
      </trkpt>
      <trkpt lat="47.80291" lon="-3.52543">
        <ele>31</ele>
        <time>2019-07-15T11:38:35Z</time>
      </trkpt>
      <trkpt lat="47.80291" lon="-3.52538">
        <ele>32</ele>
        <time>2019-07-15T11:38:36Z</time>
      </trkpt>
      <trkpt lat="47.80291" lon="-3.52532">
        <ele>32</ele>
        <time>2019-07-15T11:38:37Z</time>
      </trkpt>
      <trkpt lat="47.80291" lon="-3.52526">
        <ele>32</ele>
        <time>2019-07-15T11:38:38Z</time>
      </trkpt>
      <trkpt lat="47.80292" lon="-3.52521">
        <ele>32</ele>
        <time>2019-07-15T11:38:39Z</time>
      </trkpt>
      <trkpt lat="47.80292" lon="-3.52515">
        <ele>32</ele>
        <time>2019-07-15T11:38:40Z</time>
      </trkpt>
      <trkpt lat="47.80292" lon="-3.52511">
        <ele>32</ele>
        <time>2019-07-15T11:38:41Z</time>
      </trkpt>
      <trkpt lat="47.80293" lon="-3.52506">
        <ele>32</ele>
        <time>2019-07-15T11:38:42Z</time>
      </trkpt>
      <trkpt lat="47.80293" lon="-3.52501">
        <ele>32</ele>
        <time>2019-07-15T11:38:43Z</time>
      </trkpt>
      <trkpt lat="47.80293" lon="-3.52497">
        <ele>32</ele>
        <time>2019-07-15T11:38:44Z</time>
      </trkpt>
      <trkpt lat="47.80294" lon="-3.52493">
        <ele>32</ele>
        <time>2019-07-15T11:38:45Z</time>
      </trkpt>
      <trkpt lat="47.80294" lon="-3.52488">
        <ele>33</ele>
        <time>2019-07-15T11:38:46Z</time>
      </trkpt>
      <trkpt lat="47.80295" lon="-3.52484">
        <ele>33</ele>
        <time>2019-07-15T11:38:47Z</time>
      </trkpt>
      <trkpt lat="47.80296" lon="-3.52479">
        <ele>33</ele>
        <time>2019-07-15T11:38:48Z</time>
      </trkpt>
      <trkpt lat="47.80296" lon="-3.52475">
        <ele>33</ele>
        <time>2019-07-15T11:38:49Z</time>
      </trkpt>
      <trkpt lat="47.80297" lon="-3.52471">
        <ele>33</ele>
        <time>2019-07-15T11:38:50Z</time>
      </trkpt>
      <trkpt lat="47.80298" lon="-3.52466">
        <ele>33</ele>
        <time>2019-07-15T11:38:51Z</time>
      </trkpt>
      <trkpt lat="47.80299" lon="-3.52459">
        <ele>33</ele>
        <time>2019-07-15T11:38:52Z</time>
      </trkpt>
      <trkpt lat="47.80299" lon="-3.52454">
        <ele>33</ele>
        <time>2019-07-15T11:38:53Z</time>
      </trkpt>
      <trkpt lat="47.803" lon="-3.52449">
        <ele>33</ele>
        <time>2019-07-15T11:38:54Z</time>
      </trkpt>
      <trkpt lat="47.803" lon="-3.52443">
        <ele>33</ele>
        <time>2019-07-15T11:38:55Z</time>
      </trkpt>
      <trkpt lat="47.80301" lon="-3.52437">
        <ele>33</ele>
        <time>2019-07-15T11:38:56Z</time>
      </trkpt>
      <trkpt lat="47.80302" lon="-3.5243">
        <ele>33</ele>
        <time>2019-07-15T11:38:57Z</time>
      </trkpt>
      <trkpt lat="47.80302" lon="-3.52425">
        <ele>33</ele>
        <time>2019-07-15T11:38:58Z</time>
      </trkpt>
      <trkpt lat="47.80302" lon="-3.52419">
        <ele>33</ele>
        <time>2019-07-15T11:38:59Z</time>
      </trkpt>
      <trkpt lat="47.80303" lon="-3.52414">
        <ele>33</ele>
        <time>2019-07-15T11:39:00Z</time>
      </trkpt>
      <trkpt lat="47.80305" lon="-3.52408">
        <ele>33</ele>
        <time>2019-07-15T11:39:01Z</time>
      </trkpt>
      <trkpt lat="47.80306" lon="-3.52403">
        <ele>34</ele>
        <time>2019-07-15T11:39:02Z</time>
      </trkpt>
      <trkpt lat="47.80307" lon="-3.52399">
        <ele>34</ele>
        <time>2019-07-15T11:39:03Z</time>
      </trkpt>
      <trkpt lat="47.80307" lon="-3.52394">
        <ele>34</ele>
        <time>2019-07-15T11:39:04Z</time>
      </trkpt>
      <trkpt lat="47.80307" lon="-3.52389">
        <ele>34</ele>
        <time>2019-07-15T11:39:05Z</time>
      </trkpt>
      <trkpt lat="47.80308" lon="-3.52383">
        <ele>34</ele>
        <time>2019-07-15T11:39:06Z</time>
      </trkpt>
      <trkpt lat="47.8031" lon="-3.5238">
        <ele>34</ele>
        <time>2019-07-15T11:39:07Z</time>
      </trkpt>
      <trkpt lat="47.80312" lon="-3.52376">
        <ele>35</ele>
        <time>2019-07-15T11:39:08Z</time>
      </trkpt>
      <trkpt lat="47.80314" lon="-3.52373">
        <ele>35</ele>
        <time>2019-07-15T11:39:09Z</time>
      </trkpt>
      <trkpt lat="47.80316" lon="-3.52367">
        <ele>35</ele>
        <time>2019-07-15T11:39:10Z</time>
      </trkpt>
      <trkpt lat="47.80319" lon="-3.52362">
        <ele>35</ele>
        <time>2019-07-15T11:39:11Z</time>
      </trkpt>
      <trkpt lat="47.80323" lon="-3.52356">
        <ele>35</ele>
        <time>2019-07-15T11:39:12Z</time>
      </trkpt>
      <trkpt lat="47.80326" lon="-3.52351">
        <ele>35</ele>
        <time>2019-07-15T11:39:13Z</time>
      </trkpt>
      <trkpt lat="47.80329" lon="-3.52346">
        <ele>35</ele>
        <time>2019-07-15T11:39:14Z</time>
      </trkpt>
      <trkpt lat="47.80332" lon="-3.52342">
        <ele>35</ele>
        <time>2019-07-15T11:39:15Z</time>
      </trkpt>
      <trkpt lat="47.80335" lon="-3.52338">
        <ele>35</ele>
        <time>2019-07-15T11:39:16Z</time>
      </trkpt>
      <trkpt lat="47.80336" lon="-3.52335">
        <ele>35</ele>
        <time>2019-07-15T11:39:17Z</time>
      </trkpt>
      <trkpt lat="47.80337" lon="-3.52331">
        <ele>34</ele>
        <time>2019-07-15T11:39:18Z</time>
      </trkpt>
      <trkpt lat="47.80337" lon="-3.52328">
        <ele>34</ele>
        <time>2019-07-15T11:39:19Z</time>
      </trkpt>
      <trkpt lat="47.80336" lon="-3.52324">
        <ele>34</ele>
        <time>2019-07-15T11:39:20Z</time>
      </trkpt>
      <trkpt lat="47.80334" lon="-3.52318">
        <ele>34</ele>
        <time>2019-07-15T11:39:21Z</time>
      </trkpt>
      <trkpt lat="47.80333" lon="-3.52312">
        <ele>34</ele>
        <time>2019-07-15T11:39:22Z</time>
      </trkpt>
      <trkpt lat="47.80331" lon="-3.52305">
        <ele>33</ele>
        <time>2019-07-15T11:39:23Z</time>
      </trkpt>
      <trkpt lat="47.80329" lon="-3.52296">
        <ele>33</ele>
        <time>2019-07-15T11:39:24Z</time>
      </trkpt>
      <trkpt lat="47.80327" lon="-3.52287">
        <ele>33</ele>
        <time>2019-07-15T11:39:25Z</time>
      </trkpt>
      <trkpt lat="47.80327" lon="-3.52279">
        <ele>33</ele>
        <time>2019-07-15T11:39:26Z</time>
      </trkpt>
      <trkpt lat="47.80327" lon="-3.52272">
        <ele>32</ele>
        <time>2019-07-15T11:39:27Z</time>
      </trkpt>
      <trkpt lat="47.80329" lon="-3.52264">
        <ele>32</ele>
        <time>2019-07-15T11:39:28Z</time>
      </trkpt>
      <trkpt lat="47.8033" lon="-3.52256">
        <ele>32</ele>
        <time>2019-07-15T11:39:29Z</time>
      </trkpt>
      <trkpt lat="47.80332" lon="-3.52249">
        <ele>32</ele>
        <time>2019-07-15T11:39:30Z</time>
      </trkpt>
      <trkpt lat="47.80334" lon="-3.52244">
        <ele>31</ele>
        <time>2019-07-15T11:39:31Z</time>
      </trkpt>
      <trkpt lat="47.80336" lon="-3.52241">
        <ele>31</ele>
        <time>2019-07-15T11:39:32Z</time>
      </trkpt>
      <trkpt lat="47.80337" lon="-3.52239">
        <ele>30</ele>
        <time>2019-07-15T11:39:33Z</time>
      </trkpt>
      <trkpt lat="47.80338" lon="-3.52238">
        <ele>30</ele>
        <time>2019-07-15T11:39:34Z</time>
      </trkpt>
      <trkpt lat="47.80339" lon="-3.52237">
        <ele>29</ele>
        <time>2019-07-15T11:39:35Z</time>
      </trkpt>
      <trkpt lat="47.8034" lon="-3.52235">
        <ele>29</ele>
        <time>2019-07-15T11:39:36Z</time>
      </trkpt>
      <trkpt lat="47.80341" lon="-3.52233">
        <ele>28</ele>
        <time>2019-07-15T11:39:37Z</time>
      </trkpt>
      <trkpt lat="47.80343" lon="-3.52229">
        <ele>27</ele>
        <time>2019-07-15T11:39:38Z</time>
      </trkpt>
      <trkpt lat="47.80345" lon="-3.52225">
        <ele>27</ele>
        <time>2019-07-15T11:39:39Z</time>
      </trkpt>
      <trkpt lat="47.80345" lon="-3.52222">
        <ele>26</ele>
        <time>2019-07-15T11:39:40Z</time>
      </trkpt>
      <trkpt lat="47.80346" lon="-3.52219">
        <ele>26</ele>
        <time>2019-07-15T11:39:41Z</time>
      </trkpt>
      <trkpt lat="47.80348" lon="-3.52215">
        <ele>25</ele>
        <time>2019-07-15T11:39:42Z</time>
      </trkpt>
      <trkpt lat="47.80349" lon="-3.52209">
        <ele>25</ele>
        <time>2019-07-15T11:39:43Z</time>
      </trkpt>
      <trkpt lat="47.8035" lon="-3.52203">
        <ele>24</ele>
        <time>2019-07-15T11:39:44Z</time>
      </trkpt>
      <trkpt lat="47.80351" lon="-3.52199">
        <ele>24</ele>
        <time>2019-07-15T11:39:45Z</time>
      </trkpt>
      <trkpt lat="47.80352" lon="-3.52194">
        <ele>24</ele>
        <time>2019-07-15T11:39:46Z</time>
      </trkpt>
      <trkpt lat="47.80353" lon="-3.52186">
        <ele>23</ele>
        <time>2019-07-15T11:39:47Z</time>
      </trkpt>
      <trkpt lat="47.80354" lon="-3.5218">
        <ele>23</ele>
        <time>2019-07-15T11:39:48Z</time>
      </trkpt>
      <trkpt lat="47.80356" lon="-3.52173">
        <ele>23</ele>
        <time>2019-07-15T11:39:49Z</time>
      </trkpt>
      <trkpt lat="47.80356" lon="-3.52168">
        <ele>22</ele>
        <time>2019-07-15T11:39:50Z</time>
      </trkpt>
      <trkpt lat="47.80358" lon="-3.52164">
        <ele>22</ele>
        <time>2019-07-15T11:39:51Z</time>
      </trkpt>
      <trkpt lat="47.8036" lon="-3.52161">
        <ele>21</ele>
        <time>2019-07-15T11:39:52Z</time>
      </trkpt>
      <trkpt lat="47.80361" lon="-3.52157">
        <ele>21</ele>
        <time>2019-07-15T11:39:53Z</time>
      </trkpt>
      <trkpt lat="47.80362" lon="-3.52152">
        <ele>21</ele>
        <time>2019-07-15T11:39:54Z</time>
      </trkpt>
      <trkpt lat="47.80363" lon="-3.52146">
        <ele>20</ele>
        <time>2019-07-15T11:39:55Z</time>
      </trkpt>
      <trkpt lat="47.80363" lon="-3.52138">
        <ele>20</ele>
        <time>2019-07-15T11:39:56Z</time>
      </trkpt>
      <trkpt lat="47.80364" lon="-3.5213">
        <ele>19</ele>
        <time>2019-07-15T11:39:57Z</time>
      </trkpt>
      <trkpt lat="47.80365" lon="-3.52121">
        <ele>19</ele>
        <time>2019-07-15T11:39:58Z</time>
      </trkpt>
      <trkpt lat="47.80365" lon="-3.52114">
        <ele>19</ele>
        <time>2019-07-15T11:39:59Z</time>
      </trkpt>
      <trkpt lat="47.80365" lon="-3.52108">
        <ele>18</ele>
        <time>2019-07-15T11:40:00Z</time>
      </trkpt>
      <trkpt lat="47.80364" lon="-3.52102">
        <ele>18</ele>
        <time>2019-07-15T11:40:01Z</time>
      </trkpt>
      <trkpt lat="47.80361" lon="-3.52098">
        <ele>17</ele>
        <time>2019-07-15T11:40:02Z</time>
      </trkpt>
      <trkpt lat="47.80358" lon="-3.52096">
        <ele>17</ele>
        <time>2019-07-15T11:40:03Z</time>
      </trkpt>
      <trkpt lat="47.80355" lon="-3.52095">
        <ele>16</ele>
        <time>2019-07-15T11:40:04Z</time>
      </trkpt>
      <trkpt lat="47.80352" lon="-3.52096">
        <ele>16</ele>
        <time>2019-07-15T11:40:05Z</time>
      </trkpt>
      <trkpt lat="47.80349" lon="-3.52097">
        <ele>16</ele>
        <time>2019-07-15T11:40:06Z</time>
      </trkpt>
      <trkpt lat="47.80346" lon="-3.52097">
        <ele>15</ele>
        <time>2019-07-15T11:40:07Z</time>
      </trkpt>
      <trkpt lat="47.80342" lon="-3.52098">
        <ele>15</ele>
        <time>2019-07-15T11:40:08Z</time>
      </trkpt>
      <trkpt lat="47.80339" lon="-3.521">
        <ele>14</ele>
        <time>2019-07-15T11:40:09Z</time>
      </trkpt>
      <trkpt lat="47.80336" lon="-3.52101">
        <ele>14</ele>
        <time>2019-07-15T11:40:10Z</time>
      </trkpt>
      <trkpt lat="47.80334" lon="-3.52104">
        <ele>14</ele>
        <time>2019-07-15T11:40:11Z</time>
      </trkpt>
      <trkpt lat="47.80331" lon="-3.52107">
        <ele>13</ele>
        <time>2019-07-15T11:40:12Z</time>
      </trkpt>
      <trkpt lat="47.80329" lon="-3.52109">
        <ele>13</ele>
        <time>2019-07-15T11:40:13Z</time>
      </trkpt>
      <trkpt lat="47.80326" lon="-3.52111">
        <ele>13</ele>
        <time>2019-07-15T11:40:14Z</time>
      </trkpt>
      <trkpt lat="47.80323" lon="-3.52114">
        <ele>12</ele>
        <time>2019-07-15T11:40:15Z</time>
      </trkpt>
      <trkpt lat="47.80321" lon="-3.52117">
        <ele>12</ele>
        <time>2019-07-15T11:40:16Z</time>
      </trkpt>
      <trkpt lat="47.8032" lon="-3.52119">
        <ele>12</ele>
        <time>2019-07-15T11:40:17Z</time>
      </trkpt>
      <trkpt lat="47.80319" lon="-3.52122">
        <ele>12</ele>
        <time>2019-07-15T11:40:18Z</time>
      </trkpt>
      <trkpt lat="47.80318" lon="-3.52124">
        <ele>11</ele>
        <time>2019-07-15T11:40:19Z</time>
      </trkpt>
      <trkpt lat="47.80317" lon="-3.52125">
        <ele>11</ele>
        <time>2019-07-15T11:40:20Z</time>
      </trkpt>
      <trkpt lat="47.80316" lon="-3.52127">
        <ele>11</ele>
        <time>2019-07-15T11:40:21Z</time>
      </trkpt>
      <trkpt lat="47.80316" lon="-3.5213">
        <ele>11</ele>
        <time>2019-07-15T11:40:22Z</time>
      </trkpt>
      <trkpt lat="47.80316" lon="-3.52132">
        <ele>11</ele>
        <time>2019-07-15T11:40:23Z</time>
      </trkpt>
      <trkpt lat="47.80315" lon="-3.52134">
        <ele>11</ele>
        <time>2019-07-15T11:40:24Z</time>
      </trkpt>
      <trkpt lat="47.80315" lon="-3.52137">
        <ele>11</ele>
        <time>2019-07-15T11:40:25Z</time>
      </trkpt>
      <trkpt lat="47.80314" lon="-3.52139">
        <ele>11</ele>
        <time>2019-07-15T11:40:26Z</time>
      </trkpt>
      <trkpt lat="47.80313" lon="-3.52141">
        <ele>12</ele>
        <time>2019-07-15T11:40:27Z</time>
      </trkpt>
      <trkpt lat="47.80313" lon="-3.52143">
        <ele>12</ele>
        <time>2019-07-15T11:40:28Z</time>
      </trkpt>
      <trkpt lat="47.80313" lon="-3.52144">
        <ele>12</ele>
        <time>2019-07-15T11:40:29Z</time>
      </trkpt>
      <trkpt lat="47.80312" lon="-3.52146">
        <ele>12</ele>
        <time>2019-07-15T11:40:30Z</time>
      </trkpt>
      <trkpt lat="47.80311" lon="-3.52148">
        <ele>12</ele>
        <time>2019-07-15T11:40:31Z</time>
      </trkpt>
      <trkpt lat="47.80311" lon="-3.52151">
        <ele>12</ele>
        <time>2019-07-15T11:40:32Z</time>
      </trkpt>
      <trkpt lat="47.8031" lon="-3.52154">
        <ele>12</ele>
        <time>2019-07-15T11:40:33Z</time>
      </trkpt>
      <trkpt lat="47.8031" lon="-3.52157">
        <ele>13</ele>
        <time>2019-07-15T11:40:34Z</time>
      </trkpt>
      <trkpt lat="47.80309" lon="-3.5216">
        <ele>13</ele>
        <time>2019-07-15T11:40:35Z</time>
      </trkpt>
      <trkpt lat="47.80309" lon="-3.52162">
        <ele>13</ele>
        <time>2019-07-15T11:40:36Z</time>
      </trkpt>
      <trkpt lat="47.80308" lon="-3.52165">
        <ele>13</ele>
        <time>2019-07-15T11:40:37Z</time>
      </trkpt>
      <trkpt lat="47.80308" lon="-3.52167">
        <ele>13</ele>
        <time>2019-07-15T11:40:38Z</time>
      </trkpt>
      <trkpt lat="47.80307" lon="-3.5217">
        <ele>13</ele>
        <time>2019-07-15T11:40:39Z</time>
      </trkpt>
      <trkpt lat="47.80307" lon="-3.52173">
        <ele>13</ele>
        <time>2019-07-15T11:40:40Z</time>
      </trkpt>
      <trkpt lat="47.80306" lon="-3.52176">
        <ele>13</ele>
        <time>2019-07-15T11:40:41Z</time>
      </trkpt>
      <trkpt lat="47.80306" lon="-3.52179">
        <ele>13</ele>
        <time>2019-07-15T11:40:42Z</time>
      </trkpt>
      <trkpt lat="47.80305" lon="-3.5218">
        <ele>13</ele>
        <time>2019-07-15T11:40:43Z</time>
      </trkpt>
      <trkpt lat="47.80305" lon="-3.52183">
        <ele>14</ele>
        <time>2019-07-15T11:40:44Z</time>
      </trkpt>
      <trkpt lat="47.80304" lon="-3.52186">
        <ele>14</ele>
        <time>2019-07-15T11:40:45Z</time>
      </trkpt>
      <trkpt lat="47.80303" lon="-3.52188">
        <ele>14</ele>
        <time>2019-07-15T11:40:46Z</time>
      </trkpt>
      <trkpt lat="47.80303" lon="-3.52191">
        <ele>14</ele>
        <time>2019-07-15T11:40:47Z</time>
      </trkpt>
      <trkpt lat="47.80302" lon="-3.52193">
        <ele>14</ele>
        <time>2019-07-15T11:40:48Z</time>
      </trkpt>
      <trkpt lat="47.80301" lon="-3.52196">
        <ele>14</ele>
        <time>2019-07-15T11:40:49Z</time>
      </trkpt>
      <trkpt lat="47.803" lon="-3.522">
        <ele>14</ele>
        <time>2019-07-15T11:40:50Z</time>
      </trkpt>
      <trkpt lat="47.80299" lon="-3.52203">
        <ele>15</ele>
        <time>2019-07-15T11:40:51Z</time>
      </trkpt>
      <trkpt lat="47.80298" lon="-3.52206">
        <ele>15</ele>
        <time>2019-07-15T11:40:52Z</time>
      </trkpt>
      <trkpt lat="47.80296" lon="-3.52209">
        <ele>15</ele>
        <time>2019-07-15T11:40:53Z</time>
      </trkpt>
      <trkpt lat="47.80295" lon="-3.52212">
        <ele>16</ele>
        <time>2019-07-15T11:40:54Z</time>
      </trkpt>
      <trkpt lat="47.80294" lon="-3.52216">
        <ele>16</ele>
        <time>2019-07-15T11:40:55Z</time>
      </trkpt>
      <trkpt lat="47.80294" lon="-3.52217">
        <ele>16</ele>
        <time>2019-07-15T11:40:56Z</time>
      </trkpt>
      <trkpt lat="47.80293" lon="-3.52219">
        <ele>16</ele>
        <time>2019-07-15T11:40:57Z</time>
      </trkpt>
      <trkpt lat="47.80293" lon="-3.52222">
        <ele>16</ele>
        <time>2019-07-15T11:40:58Z</time>
      </trkpt>
      <trkpt lat="47.80291" lon="-3.52226">
        <ele>17</ele>
        <time>2019-07-15T11:40:59Z</time>
      </trkpt>
      <trkpt lat="47.8029" lon="-3.52229">
        <ele>17</ele>
        <time>2019-07-15T11:41:00Z</time>
      </trkpt>
      <trkpt lat="47.8029" lon="-3.52233">
        <ele>17</ele>
        <time>2019-07-15T11:41:01Z</time>
      </trkpt>
      <trkpt lat="47.80289" lon="-3.52236">
        <ele>17</ele>
        <time>2019-07-15T11:41:02Z</time>
      </trkpt>
      <trkpt lat="47.80288" lon="-3.52239">
        <ele>18</ele>
        <time>2019-07-15T11:41:03Z</time>
      </trkpt>
      <trkpt lat="47.80287" lon="-3.52242">
        <ele>18</ele>
        <time>2019-07-15T11:41:04Z</time>
      </trkpt>
      <trkpt lat="47.80287" lon="-3.52244">
        <ele>18</ele>
        <time>2019-07-15T11:41:05Z</time>
      </trkpt>
      <trkpt lat="47.80286" lon="-3.52246">
        <ele>18</ele>
        <time>2019-07-15T11:41:06Z</time>
      </trkpt>
      <trkpt lat="47.80285" lon="-3.52249">
        <ele>19</ele>
        <time>2019-07-15T11:41:07Z</time>
      </trkpt>
      <trkpt lat="47.80283" lon="-3.52251">
        <ele>19</ele>
        <time>2019-07-15T11:41:08Z</time>
      </trkpt>
      <trkpt lat="47.80282" lon="-3.52254">
        <ele>19</ele>
        <time>2019-07-15T11:41:09Z</time>
      </trkpt>
      <trkpt lat="47.8028" lon="-3.52256">
        <ele>20</ele>
        <time>2019-07-15T11:41:10Z</time>
      </trkpt>
      <trkpt lat="47.80279" lon="-3.52258">
        <ele>20</ele>
        <time>2019-07-15T11:41:11Z</time>
      </trkpt>
      <trkpt lat="47.80278" lon="-3.5226">
        <ele>21</ele>
        <time>2019-07-15T11:41:12Z</time>
      </trkpt>
      <trkpt lat="47.80276" lon="-3.52262">
        <ele>21</ele>
        <time>2019-07-15T11:41:13Z</time>
      </trkpt>
      <trkpt lat="47.80275" lon="-3.52265">
        <ele>21</ele>
        <time>2019-07-15T11:41:14Z</time>
      </trkpt>
      <trkpt lat="47.80273" lon="-3.52268">
        <ele>22</ele>
        <time>2019-07-15T11:41:15Z</time>
      </trkpt>
      <trkpt lat="47.80271" lon="-3.52272">
        <ele>22</ele>
        <time>2019-07-15T11:41:16Z</time>
      </trkpt>
      <trkpt lat="47.8027" lon="-3.52275">
        <ele>22</ele>
        <time>2019-07-15T11:41:17Z</time>
      </trkpt>
      <trkpt lat="47.8027" lon="-3.52277">
        <ele>22</ele>
        <time>2019-07-15T11:41:18Z</time>
      </trkpt>
      <trkpt lat="47.80268" lon="-3.5228">
        <ele>23</ele>
        <time>2019-07-15T11:41:19Z</time>
      </trkpt>
      <trkpt lat="47.80267" lon="-3.52283">
        <ele>23</ele>
        <time>2019-07-15T11:41:20Z</time>
      </trkpt>
      <trkpt lat="47.80266" lon="-3.52285">
        <ele>23</ele>
        <time>2019-07-15T11:41:21Z</time>
      </trkpt>
      <trkpt lat="47.80264" lon="-3.52287">
        <ele>23</ele>
        <time>2019-07-15T11:41:22Z</time>
      </trkpt>
      <trkpt lat="47.80263" lon="-3.5229">
        <ele>24</ele>
        <time>2019-07-15T11:41:23Z</time>
      </trkpt>
      <trkpt lat="47.80262" lon="-3.52293">
        <ele>24</ele>
        <time>2019-07-15T11:41:24Z</time>
      </trkpt>
      <trkpt lat="47.8026" lon="-3.52296">
        <ele>24</ele>
        <time>2019-07-15T11:41:25Z</time>
      </trkpt>
      <trkpt lat="47.8026" lon="-3.52298">
        <ele>24</ele>
        <time>2019-07-15T11:41:26Z</time>
      </trkpt>
      <trkpt lat="47.80258" lon="-3.523">
        <ele>24</ele>
        <time>2019-07-15T11:41:27Z</time>
      </trkpt>
      <trkpt lat="47.80258" lon="-3.52302">
        <ele>24</ele>
        <time>2019-07-15T11:41:28Z</time>
      </trkpt>
      <trkpt lat="47.80257" lon="-3.52305">
        <ele>24</ele>
        <time>2019-07-15T11:41:29Z</time>
      </trkpt>
      <trkpt lat="47.80256" lon="-3.52308">
        <ele>24</ele>
        <time>2019-07-15T11:41:30Z</time>
      </trkpt>
      <trkpt lat="47.80255" lon="-3.52311">
        <ele>25</ele>
        <time>2019-07-15T11:41:31Z</time>
      </trkpt>
      <trkpt lat="47.80254" lon="-3.52314">
        <ele>25</ele>
        <time>2019-07-15T11:41:32Z</time>
      </trkpt>
      <trkpt lat="47.80254" lon="-3.52316">
        <ele>25</ele>
        <time>2019-07-15T11:41:33Z</time>
      </trkpt>
      <trkpt lat="47.80253" lon="-3.52319">
        <ele>25</ele>
        <time>2019-07-15T11:41:34Z</time>
      </trkpt>
      <trkpt lat="47.80252" lon="-3.52321">
        <ele>25</ele>
        <time>2019-07-15T11:41:35Z</time>
      </trkpt>
      <trkpt lat="47.80251" lon="-3.52323">
        <ele>25</ele>
        <time>2019-07-15T11:41:36Z</time>
      </trkpt>
      <trkpt lat="47.8025" lon="-3.52326">
        <ele>25</ele>
        <time>2019-07-15T11:41:37Z</time>
      </trkpt>
      <trkpt lat="47.8025" lon="-3.52329">
        <ele>26</ele>
        <time>2019-07-15T11:41:38Z</time>
      </trkpt>
      <trkpt lat="47.80249" lon="-3.52332">
        <ele>26</ele>
        <time>2019-07-15T11:41:39Z</time>
      </trkpt>
      <trkpt lat="47.80248" lon="-3.52336">
        <ele>26</ele>
        <time>2019-07-15T11:41:40Z</time>
      </trkpt>
      <trkpt lat="47.80247" lon="-3.52339">
        <ele>26</ele>
        <time>2019-07-15T11:41:41Z</time>
      </trkpt>
      <trkpt lat="47.80247" lon="-3.52343">
        <ele>26</ele>
        <time>2019-07-15T11:41:42Z</time>
      </trkpt>
      <trkpt lat="47.80245" lon="-3.52345">
        <ele>27</ele>
        <time>2019-07-15T11:41:43Z</time>
      </trkpt>
      <trkpt lat="47.80244" lon="-3.52348">
        <ele>27</ele>
        <time>2019-07-15T11:41:44Z</time>
      </trkpt>
      <trkpt lat="47.80243" lon="-3.52351">
        <ele>27</ele>
        <time>2019-07-15T11:41:45Z</time>
      </trkpt>
      <trkpt lat="47.80242" lon="-3.52354">
        <ele>27</ele>
        <time>2019-07-15T11:41:46Z</time>
      </trkpt>
      <trkpt lat="47.80241" lon="-3.52356">
        <ele>28</ele>
        <time>2019-07-15T11:41:47Z</time>
      </trkpt>
      <trkpt lat="47.8024" lon="-3.52358">
        <ele>28</ele>
        <time>2019-07-15T11:41:48Z</time>
      </trkpt>
      <trkpt lat="47.80238" lon="-3.5236">
        <ele>28</ele>
        <time>2019-07-15T11:41:49Z</time>
      </trkpt>
      <trkpt lat="47.80236" lon="-3.52363">
        <ele>28</ele>
        <time>2019-07-15T11:41:50Z</time>
      </trkpt>
      <trkpt lat="47.80234" lon="-3.52364">
        <ele>29</ele>
        <time>2019-07-15T11:41:51Z</time>
      </trkpt>
      <trkpt lat="47.80232" lon="-3.52366">
        <ele>29</ele>
        <time>2019-07-15T11:41:52Z</time>
      </trkpt>
      <trkpt lat="47.80229" lon="-3.52368">
        <ele>29</ele>
        <time>2019-07-15T11:41:53Z</time>
      </trkpt>
      <trkpt lat="47.80226" lon="-3.5237">
        <ele>29</ele>
        <time>2019-07-15T11:41:54Z</time>
      </trkpt>
      <trkpt lat="47.80222" lon="-3.52373">
        <ele>29</ele>
        <time>2019-07-15T11:41:55Z</time>
      </trkpt>
      <trkpt lat="47.80218" lon="-3.52374">
        <ele>29</ele>
        <time>2019-07-15T11:41:56Z</time>
      </trkpt>
      <trkpt lat="47.80215" lon="-3.52377">
        <ele>29</ele>
        <time>2019-07-15T11:41:57Z</time>
      </trkpt>
      <trkpt lat="47.80212" lon="-3.52379">
        <ele>29</ele>
        <time>2019-07-15T11:41:58Z</time>
      </trkpt>
      <trkpt lat="47.80209" lon="-3.52382">
        <ele>29</ele>
        <time>2019-07-15T11:41:59Z</time>
      </trkpt>
      <trkpt lat="47.80206" lon="-3.52386">
        <ele>29</ele>
        <time>2019-07-15T11:42:00Z</time>
      </trkpt>
      <trkpt lat="47.80203" lon="-3.52388">
        <ele>29</ele>
        <time>2019-07-15T11:42:01Z</time>
      </trkpt>
      <trkpt lat="47.80201" lon="-3.5239">
        <ele>29</ele>
        <time>2019-07-15T11:42:02Z</time>
      </trkpt>
      <trkpt lat="47.80198" lon="-3.52392">
        <ele>29</ele>
        <time>2019-07-15T11:42:03Z</time>
      </trkpt>
      <trkpt lat="47.80195" lon="-3.52394">
        <ele>29</ele>
        <time>2019-07-15T11:42:04Z</time>
      </trkpt>
      <trkpt lat="47.80191" lon="-3.52395">
        <ele>29</ele>
        <time>2019-07-15T11:42:05Z</time>
      </trkpt>
      <trkpt lat="47.80188" lon="-3.52396">
        <ele>29</ele>
        <time>2019-07-15T11:42:06Z</time>
      </trkpt>
      <trkpt lat="47.80185" lon="-3.52398">
        <ele>29</ele>
        <time>2019-07-15T11:42:07Z</time>
      </trkpt>
      <trkpt lat="47.80182" lon="-3.52401">
        <ele>29</ele>
        <time>2019-07-15T11:42:08Z</time>
      </trkpt>
      <trkpt lat="47.80179" lon="-3.52403">
        <ele>29</ele>
        <time>2019-07-15T11:42:09Z</time>
      </trkpt>
      <trkpt lat="47.80176" lon="-3.52405">
        <ele>29</ele>
        <time>2019-07-15T11:42:10Z</time>
      </trkpt>
      <trkpt lat="47.80172" lon="-3.52407">
        <ele>29</ele>
        <time>2019-07-15T11:42:11Z</time>
      </trkpt>
      <trkpt lat="47.80168" lon="-3.5241">
        <ele>29</ele>
        <time>2019-07-15T11:42:12Z</time>
      </trkpt>
      <trkpt lat="47.80165" lon="-3.52412">
        <ele>28</ele>
        <time>2019-07-15T11:42:13Z</time>
      </trkpt>
      <trkpt lat="47.80162" lon="-3.52414">
        <ele>28</ele>
        <time>2019-07-15T11:42:14Z</time>
      </trkpt>
      <trkpt lat="47.80158" lon="-3.52416">
        <ele>28</ele>
        <time>2019-07-15T11:42:15Z</time>
      </trkpt>
      <trkpt lat="47.80155" lon="-3.52417">
        <ele>28</ele>
        <time>2019-07-15T11:42:16Z</time>
      </trkpt>
      <trkpt lat="47.80152" lon="-3.52418">
        <ele>28</ele>
        <time>2019-07-15T11:42:17Z</time>
      </trkpt>
      <trkpt lat="47.80149" lon="-3.5242">
        <ele>28</ele>
        <time>2019-07-15T11:42:18Z</time>
      </trkpt>
      <trkpt lat="47.80146" lon="-3.52421">
        <ele>27</ele>
        <time>2019-07-15T11:42:19Z</time>
      </trkpt>
      <trkpt lat="47.80142" lon="-3.52423">
        <ele>27</ele>
        <time>2019-07-15T11:42:20Z</time>
      </trkpt>
      <trkpt lat="47.80139" lon="-3.52424">
        <ele>27</ele>
        <time>2019-07-15T11:42:21Z</time>
      </trkpt>
      <trkpt lat="47.80136" lon="-3.52425">
        <ele>27</ele>
        <time>2019-07-15T11:42:22Z</time>
      </trkpt>
      <trkpt lat="47.80132" lon="-3.52426">
        <ele>27</ele>
        <time>2019-07-15T11:42:23Z</time>
      </trkpt>
      <trkpt lat="47.80129" lon="-3.52428">
        <ele>27</ele>
        <time>2019-07-15T11:42:24Z</time>
      </trkpt>
      <trkpt lat="47.80126" lon="-3.52429">
        <ele>27</ele>
        <time>2019-07-15T11:42:25Z</time>
      </trkpt>
      <trkpt lat="47.80122" lon="-3.5243">
        <ele>27</ele>
        <time>2019-07-15T11:42:26Z</time>
      </trkpt>
      <trkpt lat="47.80119" lon="-3.52431">
        <ele>26</ele>
        <time>2019-07-15T11:42:27Z</time>
      </trkpt>
      <trkpt lat="47.80116" lon="-3.52432">
        <ele>26</ele>
        <time>2019-07-15T11:42:28Z</time>
      </trkpt>
      <trkpt lat="47.80113" lon="-3.52433">
        <ele>26</ele>
        <time>2019-07-15T11:42:29Z</time>
      </trkpt>
      <trkpt lat="47.80109" lon="-3.52433">
        <ele>26</ele>
        <time>2019-07-15T11:42:30Z</time>
      </trkpt>
      <trkpt lat="47.80106" lon="-3.52432">
        <ele>26</ele>
        <time>2019-07-15T11:42:31Z</time>
      </trkpt>
      <trkpt lat="47.80103" lon="-3.5243">
        <ele>26</ele>
        <time>2019-07-15T11:42:32Z</time>
      </trkpt>
      <trkpt lat="47.80101" lon="-3.52427">
        <ele>26</ele>
        <time>2019-07-15T11:42:33Z</time>
      </trkpt>
      <trkpt lat="47.801" lon="-3.52423">
        <ele>26</ele>
        <time>2019-07-15T11:42:34Z</time>
      </trkpt>
      <trkpt lat="47.80098" lon="-3.52419">
        <ele>26</ele>
        <time>2019-07-15T11:42:35Z</time>
      </trkpt>
      <trkpt lat="47.80096" lon="-3.52415">
        <ele>26</ele>
        <time>2019-07-15T11:42:36Z</time>
      </trkpt>
      <trkpt lat="47.80093" lon="-3.52411">
        <ele>26</ele>
        <time>2019-07-15T11:42:37Z</time>
      </trkpt>
      <trkpt lat="47.80089" lon="-3.52409">
        <ele>27</ele>
        <time>2019-07-15T11:42:38Z</time>
      </trkpt>
      <trkpt lat="47.80084" lon="-3.52405">
        <ele>27</ele>
        <time>2019-07-15T11:42:39Z</time>
      </trkpt>
      <trkpt lat="47.8008" lon="-3.52402">
        <ele>27</ele>
        <time>2019-07-15T11:42:40Z</time>
      </trkpt>
      <trkpt lat="47.80075" lon="-3.52399">
        <ele>27</ele>
        <time>2019-07-15T11:42:41Z</time>
      </trkpt>
      <trkpt lat="47.80071" lon="-3.52397">
        <ele>27</ele>
        <time>2019-07-15T11:42:42Z</time>
      </trkpt>
      <trkpt lat="47.80067" lon="-3.52395">
        <ele>27</ele>
        <time>2019-07-15T11:42:43Z</time>
      </trkpt>
      <trkpt lat="47.80064" lon="-3.52393">
        <ele>27</ele>
        <time>2019-07-15T11:42:44Z</time>
      </trkpt>
      <trkpt lat="47.80061" lon="-3.52391">
        <ele>27</ele>
        <time>2019-07-15T11:42:45Z</time>
      </trkpt>
      <trkpt lat="47.80059" lon="-3.52391">
        <ele>27</ele>
        <time>2019-07-15T11:42:46Z</time>
      </trkpt>
      <trkpt lat="47.80057" lon="-3.5239">
        <ele>27</ele>
        <time>2019-07-15T11:42:47Z</time>
      </trkpt>
      <trkpt lat="47.80054" lon="-3.52389">
        <ele>27</ele>
        <time>2019-07-15T11:42:48Z</time>
      </trkpt>
      <trkpt lat="47.80051" lon="-3.52386">
        <ele>27</ele>
        <time>2019-07-15T11:42:49Z</time>
      </trkpt>
      <trkpt lat="47.80048" lon="-3.52384">
        <ele>27</ele>
        <time>2019-07-15T11:42:50Z</time>
      </trkpt>
      <trkpt lat="47.80045" lon="-3.52383">
        <ele>27</ele>
        <time>2019-07-15T11:42:51Z</time>
      </trkpt>
      <trkpt lat="47.80042" lon="-3.5238">
        <ele>27</ele>
        <time>2019-07-15T11:42:52Z</time>
      </trkpt>
      <trkpt lat="47.8004" lon="-3.52377">
        <ele>27</ele>
        <time>2019-07-15T11:42:53Z</time>
      </trkpt>
      <trkpt lat="47.80037" lon="-3.52373">
        <ele>27</ele>
        <time>2019-07-15T11:42:54Z</time>
      </trkpt>
      <trkpt lat="47.80035" lon="-3.52369">
        <ele>27</ele>
        <time>2019-07-15T11:42:55Z</time>
      </trkpt>
      <trkpt lat="47.80033" lon="-3.52366">
        <ele>27</ele>
        <time>2019-07-15T11:42:56Z</time>
      </trkpt>
      <trkpt lat="47.80031" lon="-3.52363">
        <ele>27</ele>
        <time>2019-07-15T11:42:57Z</time>
      </trkpt>
      <trkpt lat="47.80028" lon="-3.5236">
        <ele>27</ele>
        <time>2019-07-15T11:42:58Z</time>
      </trkpt>
      <trkpt lat="47.80024" lon="-3.52357">
        <ele>27</ele>
        <time>2019-07-15T11:42:59Z</time>
      </trkpt>
      <trkpt lat="47.8002" lon="-3.52354">
        <ele>26</ele>
        <time>2019-07-15T11:43:00Z</time>
      </trkpt>
      <trkpt lat="47.80016" lon="-3.52351">
        <ele>26</ele>
        <time>2019-07-15T11:43:01Z</time>
      </trkpt>
      <trkpt lat="47.80013" lon="-3.52349">
        <ele>26</ele>
        <time>2019-07-15T11:43:02Z</time>
      </trkpt>
      <trkpt lat="47.80011" lon="-3.52346">
        <ele>26</ele>
        <time>2019-07-15T11:43:03Z</time>
      </trkpt>
      <trkpt lat="47.80008" lon="-3.52342">
        <ele>26</ele>
        <time>2019-07-15T11:43:04Z</time>
      </trkpt>
      <trkpt lat="47.80006" lon="-3.5234">
        <ele>26</ele>
        <time>2019-07-15T11:43:05Z</time>
      </trkpt>
      <trkpt lat="47.80004" lon="-3.52338">
        <ele>27</ele>
        <time>2019-07-15T11:43:06Z</time>
      </trkpt>
      <trkpt lat="47.80004" lon="-3.52336">
        <ele>27</ele>
        <time>2019-07-15T11:43:07Z</time>
      </trkpt>
      <trkpt lat="47.80003" lon="-3.52335">
        <ele>27</ele>
        <time>2019-07-15T11:43:08Z</time>
      </trkpt>
      <trkpt lat="47.80002" lon="-3.52335">
        <ele>26</ele>
        <time>2019-07-15T11:43:09Z</time>
      </trkpt>
      <trkpt lat="47.80001" lon="-3.52334">
        <ele>26</ele>
        <time>2019-07-15T11:43:10Z</time>
      </trkpt>
      <trkpt lat="47.80001" lon="-3.52334">
        <ele>26</ele>
        <time>2019-07-15T11:43:11Z</time>
      </trkpt>
      <trkpt lat="47.8" lon="-3.52333">
        <ele>26</ele>
        <time>2019-07-15T11:43:12Z</time>
      </trkpt>
      <trkpt lat="47.79999" lon="-3.52332">
        <ele>26</ele>
        <time>2019-07-15T11:43:13Z</time>
      </trkpt>
      <trkpt lat="47.79998" lon="-3.52331">
        <ele>26</ele>
        <time>2019-07-15T11:43:14Z</time>
      </trkpt>
      <trkpt lat="47.79998" lon="-3.5233">
        <ele>26</ele>
        <time>2019-07-15T11:43:15Z</time>
      </trkpt>
      <trkpt lat="47.79997" lon="-3.5233">
        <ele>26</ele>
        <time>2019-07-15T11:43:16Z</time>
      </trkpt>
      <trkpt lat="47.79988" lon="-3.52317">
        <ele>25</ele>
        <time>2019-07-15T11:43:17Z</time>
      </trkpt>
      <trkpt lat="47.79986" lon="-3.52313">
        <ele>25</ele>
        <time>2019-07-15T11:43:18Z</time>
      </trkpt>
      <trkpt lat="47.79985" lon="-3.52309">
        <ele>25</ele>
        <time>2019-07-15T11:43:19Z</time>
      </trkpt>
      <trkpt lat="47.79983" lon="-3.52305">
        <ele>25</ele>
        <time>2019-07-15T11:43:20Z</time>
      </trkpt>
      <trkpt lat="47.79982" lon="-3.523">
        <ele>25</ele>
        <time>2019-07-15T11:43:21Z</time>
      </trkpt>
      <trkpt lat="47.79981" lon="-3.52295">
        <ele>25</ele>
        <time>2019-07-15T11:43:22Z</time>
      </trkpt>
      <trkpt lat="47.7998" lon="-3.5229">
        <ele>25</ele>
        <time>2019-07-15T11:43:23Z</time>
      </trkpt>
      <trkpt lat="47.79979" lon="-3.52284">
        <ele>25</ele>
        <time>2019-07-15T11:43:24Z</time>
      </trkpt>
      <trkpt lat="47.79978" lon="-3.52278">
        <ele>25</ele>
        <time>2019-07-15T11:43:25Z</time>
      </trkpt>
      <trkpt lat="47.79978" lon="-3.52272">
        <ele>25</ele>
        <time>2019-07-15T11:43:26Z</time>
      </trkpt>
      <trkpt lat="47.79979" lon="-3.52265">
        <ele>24</ele>
        <time>2019-07-15T11:43:27Z</time>
      </trkpt>
      <trkpt lat="47.7998" lon="-3.52259">
        <ele>24</ele>
        <time>2019-07-15T11:43:28Z</time>
      </trkpt>
      <trkpt lat="47.79981" lon="-3.52255">
        <ele>24</ele>
        <time>2019-07-15T11:43:29Z</time>
      </trkpt>
      <trkpt lat="47.79981" lon="-3.52252">
        <ele>24</ele>
        <time>2019-07-15T11:43:30Z</time>
      </trkpt>
      <trkpt lat="47.79982" lon="-3.5225">
        <ele>24</ele>
        <time>2019-07-15T11:43:31Z</time>
      </trkpt>
      <trkpt lat="47.79981" lon="-3.52248">
        <ele>24</ele>
        <time>2019-07-15T11:43:32Z</time>
      </trkpt>
      <trkpt lat="47.79981" lon="-3.52244">
        <ele>23</ele>
        <time>2019-07-15T11:43:33Z</time>
      </trkpt>
      <trkpt lat="47.79982" lon="-3.5224">
        <ele>23</ele>
        <time>2019-07-15T11:43:34Z</time>
      </trkpt>
      <trkpt lat="47.79982" lon="-3.52236">
        <ele>22</ele>
        <time>2019-07-15T11:43:35Z</time>
      </trkpt>
      <trkpt lat="47.79982" lon="-3.52233">
        <ele>22</ele>
        <time>2019-07-15T11:43:36Z</time>
      </trkpt>
      <trkpt lat="47.79982" lon="-3.52228">
        <ele>21</ele>
        <time>2019-07-15T11:43:37Z</time>
      </trkpt>
      <trkpt lat="47.79981" lon="-3.52223">
        <ele>21</ele>
        <time>2019-07-15T11:43:38Z</time>
      </trkpt>
      <trkpt lat="47.79979" lon="-3.52217">
        <ele>20</ele>
        <time>2019-07-15T11:43:39Z</time>
      </trkpt>
      <trkpt lat="47.79977" lon="-3.52211">
        <ele>19</ele>
        <time>2019-07-15T11:43:40Z</time>
      </trkpt>
      <trkpt lat="47.79975" lon="-3.52205">
        <ele>19</ele>
        <time>2019-07-15T11:43:41Z</time>
      </trkpt>
      <trkpt lat="47.79974" lon="-3.52199">
        <ele>18</ele>
        <time>2019-07-15T11:43:42Z</time>
      </trkpt>
      <trkpt lat="47.79973" lon="-3.52192">
        <ele>18</ele>
        <time>2019-07-15T11:43:43Z</time>
      </trkpt>
      <trkpt lat="47.79972" lon="-3.52186">
        <ele>18</ele>
        <time>2019-07-15T11:43:44Z</time>
      </trkpt>
      <trkpt lat="47.79971" lon="-3.52181">
        <ele>17</ele>
        <time>2019-07-15T11:43:45Z</time>
      </trkpt>
      <trkpt lat="47.7997" lon="-3.52177">
        <ele>17</ele>
        <time>2019-07-15T11:43:46Z</time>
      </trkpt>
      <trkpt lat="47.79969" lon="-3.52174">
        <ele>16</ele>
        <time>2019-07-15T11:43:47Z</time>
      </trkpt>
      <trkpt lat="47.79967" lon="-3.52171">
        <ele>16</ele>
        <time>2019-07-15T11:43:48Z</time>
      </trkpt>
      <trkpt lat="47.79964" lon="-3.5217">
        <ele>16</ele>
        <time>2019-07-15T11:43:49Z</time>
      </trkpt>
      <trkpt lat="47.79961" lon="-3.5217">
        <ele>15</ele>
        <time>2019-07-15T11:43:50Z</time>
      </trkpt>
      <trkpt lat="47.79958" lon="-3.5217">
        <ele>15</ele>
        <time>2019-07-15T11:43:51Z</time>
      </trkpt>
      <trkpt lat="47.79955" lon="-3.5217">
        <ele>14</ele>
        <time>2019-07-15T11:43:52Z</time>
      </trkpt>
      <trkpt lat="47.79953" lon="-3.5217">
        <ele>14</ele>
        <time>2019-07-15T11:43:53Z</time>
      </trkpt>
      <trkpt lat="47.79951" lon="-3.5217">
        <ele>14</ele>
        <time>2019-07-15T11:43:54Z</time>
      </trkpt>
      <trkpt lat="47.79949" lon="-3.52171">
        <ele>13</ele>
        <time>2019-07-15T11:43:55Z</time>
      </trkpt>
      <trkpt lat="47.79947" lon="-3.52172">
        <ele>13</ele>
        <time>2019-07-15T11:43:56Z</time>
      </trkpt>
      <trkpt lat="47.79945" lon="-3.52171">
        <ele>12</ele>
        <time>2019-07-15T11:43:57Z</time>
      </trkpt>
      <trkpt lat="47.79945" lon="-3.52171">
        <ele>12</ele>
        <time>2019-07-15T11:43:58Z</time>
      </trkpt>
      <trkpt lat="47.79944" lon="-3.52171">
        <ele>12</ele>
        <time>2019-07-15T11:43:59Z</time>
      </trkpt>
      <trkpt lat="47.79944" lon="-3.52171">
        <ele>12</ele>
        <time>2019-07-15T11:44:00Z</time>
      </trkpt>
      <trkpt lat="47.79935" lon="-3.5217">
        <ele>8</ele>
        <time>2019-07-15T11:44:01Z</time>
      </trkpt>
      <trkpt lat="47.79934" lon="-3.5217">
        <ele>8</ele>
        <time>2019-07-15T11:44:02Z</time>
      </trkpt>
      <trkpt lat="47.79932" lon="-3.5217">
        <ele>8</ele>
        <time>2019-07-15T11:44:03Z</time>
      </trkpt>
      <trkpt lat="47.79929" lon="-3.52172">
        <ele>8</ele>
        <time>2019-07-15T11:44:04Z</time>
      </trkpt>
      <trkpt lat="47.79927" lon="-3.52173">
        <ele>8</ele>
        <time>2019-07-15T11:44:05Z</time>
      </trkpt>
      <trkpt lat="47.79925" lon="-3.52175">
        <ele>8</ele>
        <time>2019-07-15T11:44:06Z</time>
      </trkpt>
      <trkpt lat="47.79923" lon="-3.52177">
        <ele>8</ele>
        <time>2019-07-15T11:44:07Z</time>
      </trkpt>
      <trkpt lat="47.79921" lon="-3.52179">
        <ele>8</ele>
        <time>2019-07-15T11:44:08Z</time>
      </trkpt>
      <trkpt lat="47.79919" lon="-3.5218">
        <ele>8</ele>
        <time>2019-07-15T11:44:09Z</time>
      </trkpt>
      <trkpt lat="47.79916" lon="-3.52182">
        <ele>8</ele>
        <time>2019-07-15T11:44:10Z</time>
      </trkpt>
      <trkpt lat="47.79912" lon="-3.52183">
        <ele>8</ele>
        <time>2019-07-15T11:44:11Z</time>
      </trkpt>
      <trkpt lat="47.79909" lon="-3.52184">
        <ele>7</ele>
        <time>2019-07-15T11:44:12Z</time>
      </trkpt>
      <trkpt lat="47.79905" lon="-3.52186">
        <ele>7</ele>
        <time>2019-07-15T11:44:13Z</time>
      </trkpt>
      <trkpt lat="47.79902" lon="-3.52188">
        <ele>7</ele>
        <time>2019-07-15T11:44:14Z</time>
      </trkpt>
      <trkpt lat="47.79899" lon="-3.5219">
        <ele>7</ele>
        <time>2019-07-15T11:44:15Z</time>
      </trkpt>
      <trkpt lat="47.79897" lon="-3.52192">
        <ele>7</ele>
        <time>2019-07-15T11:44:16Z</time>
      </trkpt>
      <trkpt lat="47.79894" lon="-3.52193">
        <ele>6</ele>
        <time>2019-07-15T11:44:17Z</time>
      </trkpt>
      <trkpt lat="47.79891" lon="-3.52194">
        <ele>6</ele>
        <time>2019-07-15T11:44:18Z</time>
      </trkpt>
      <trkpt lat="47.79889" lon="-3.52196">
        <ele>6</ele>
        <time>2019-07-15T11:44:19Z</time>
      </trkpt>
      <trkpt lat="47.79886" lon="-3.52197">
        <ele>6</ele>
        <time>2019-07-15T11:44:20Z</time>
      </trkpt>
      <trkpt lat="47.79883" lon="-3.52199">
        <ele>5</ele>
        <time>2019-07-15T11:44:21Z</time>
      </trkpt>
      <trkpt lat="47.7988" lon="-3.522">
        <ele>5</ele>
        <time>2019-07-15T11:44:22Z</time>
      </trkpt>
      <trkpt lat="47.79876" lon="-3.52201">
        <ele>5</ele>
        <time>2019-07-15T11:44:23Z</time>
      </trkpt>
      <trkpt lat="47.79873" lon="-3.52203">
        <ele>5</ele>
        <time>2019-07-15T11:44:24Z</time>
      </trkpt>
      <trkpt lat="47.7987" lon="-3.52205">
        <ele>5</ele>
        <time>2019-07-15T11:44:25Z</time>
      </trkpt>
      <trkpt lat="47.79867" lon="-3.52206">
        <ele>4</ele>
        <time>2019-07-15T11:44:26Z</time>
      </trkpt>
      <trkpt lat="47.79864" lon="-3.52209">
        <ele>4</ele>
        <time>2019-07-15T11:44:27Z</time>
      </trkpt>
      <trkpt lat="47.79861" lon="-3.52211">
        <ele>4</ele>
        <time>2019-07-15T11:44:28Z</time>
      </trkpt>
      <trkpt lat="47.79859" lon="-3.52214">
        <ele>4</ele>
        <time>2019-07-15T11:44:29Z</time>
      </trkpt>
      <trkpt lat="47.79856" lon="-3.52218">
        <ele>4</ele>
        <time>2019-07-15T11:44:30Z</time>
      </trkpt>
      <trkpt lat="47.79853" lon="-3.5222">
        <ele>4</ele>
        <time>2019-07-15T11:44:31Z</time>
      </trkpt>
      <trkpt lat="47.7985" lon="-3.52223">
        <ele>4</ele>
        <time>2019-07-15T11:44:32Z</time>
      </trkpt>
      <trkpt lat="47.79847" lon="-3.52226">
        <ele>3</ele>
        <time>2019-07-15T11:44:33Z</time>
      </trkpt>
      <trkpt lat="47.79843" lon="-3.52229">
        <ele>3</ele>
        <time>2019-07-15T11:44:34Z</time>
      </trkpt>
      <trkpt lat="47.7984" lon="-3.52232">
        <ele>3</ele>
        <time>2019-07-15T11:44:35Z</time>
      </trkpt>
      <trkpt lat="47.79839" lon="-3.52235">
        <ele>3</ele>
        <time>2019-07-15T11:44:36Z</time>
      </trkpt>
      <trkpt lat="47.79838" lon="-3.52239">
        <ele>3</ele>
        <time>2019-07-15T11:44:37Z</time>
      </trkpt>
      <trkpt lat="47.79838" lon="-3.52242">
        <ele>3</ele>
        <time>2019-07-15T11:44:38Z</time>
      </trkpt>
      <trkpt lat="47.79837" lon="-3.52245">
        <ele>4</ele>
        <time>2019-07-15T11:44:39Z</time>
      </trkpt>
      <trkpt lat="47.79837" lon="-3.52248">
        <ele>4</ele>
        <time>2019-07-15T11:44:40Z</time>
      </trkpt>
      <trkpt lat="47.79836" lon="-3.52251">
        <ele>4</ele>
        <time>2019-07-15T11:44:41Z</time>
      </trkpt>
      <trkpt lat="47.79835" lon="-3.52253">
        <ele>4</ele>
        <time>2019-07-15T11:44:42Z</time>
      </trkpt>
      <trkpt lat="47.79834" lon="-3.52255">
        <ele>4</ele>
        <time>2019-07-15T11:44:43Z</time>
      </trkpt>
      <trkpt lat="47.79832" lon="-3.52258">
        <ele>4</ele>
        <time>2019-07-15T11:44:44Z</time>
      </trkpt>
      <trkpt lat="47.7983" lon="-3.5226">
        <ele>4</ele>
        <time>2019-07-15T11:44:45Z</time>
      </trkpt>
      <trkpt lat="47.79827" lon="-3.52262">
        <ele>4</ele>
        <time>2019-07-15T11:44:46Z</time>
      </trkpt>
      <trkpt lat="47.79824" lon="-3.52265">
        <ele>4</ele>
        <time>2019-07-15T11:44:47Z</time>
      </trkpt>
      <trkpt lat="47.79821" lon="-3.52266">
        <ele>4</ele>
        <time>2019-07-15T11:44:48Z</time>
      </trkpt>
      <trkpt lat="47.79819" lon="-3.52268">
        <ele>4</ele>
        <time>2019-07-15T11:44:49Z</time>
      </trkpt>
      <trkpt lat="47.79817" lon="-3.5227">
        <ele>4</ele>
        <time>2019-07-15T11:44:50Z</time>
      </trkpt>
      <trkpt lat="47.79815" lon="-3.52273">
        <ele>4</ele>
        <time>2019-07-15T11:44:51Z</time>
      </trkpt>
      <trkpt lat="47.79813" lon="-3.52277">
        <ele>4</ele>
        <time>2019-07-15T11:44:52Z</time>
      </trkpt>
      <trkpt lat="47.79811" lon="-3.5228">
        <ele>4</ele>
        <time>2019-07-15T11:44:53Z</time>
      </trkpt>
      <trkpt lat="47.79809" lon="-3.52284">
        <ele>4</ele>
        <time>2019-07-15T11:44:54Z</time>
      </trkpt>
      <trkpt lat="47.79808" lon="-3.52287">
        <ele>4</ele>
        <time>2019-07-15T11:44:55Z</time>
      </trkpt>
      <trkpt lat="47.79807" lon="-3.52291">
        <ele>4</ele>
        <time>2019-07-15T11:44:56Z</time>
      </trkpt>
      <trkpt lat="47.79805" lon="-3.52295">
        <ele>4</ele>
        <time>2019-07-15T11:44:57Z</time>
      </trkpt>
      <trkpt lat="47.79804" lon="-3.52298">
        <ele>4</ele>
        <time>2019-07-15T11:44:58Z</time>
      </trkpt>
      <trkpt lat="47.79802" lon="-3.52302">
        <ele>4</ele>
        <time>2019-07-15T11:44:59Z</time>
      </trkpt>
      <trkpt lat="47.798" lon="-3.52306">
        <ele>4</ele>
        <time>2019-07-15T11:45:00Z</time>
      </trkpt>
      <trkpt lat="47.79797" lon="-3.5231">
        <ele>4</ele>
        <time>2019-07-15T11:45:01Z</time>
      </trkpt>
      <trkpt lat="47.79794" lon="-3.52313">
        <ele>4</ele>
        <time>2019-07-15T11:45:02Z</time>
      </trkpt>
      <trkpt lat="47.79792" lon="-3.52314">
        <ele>4</ele>
        <time>2019-07-15T11:45:03Z</time>
      </trkpt>
      <trkpt lat="47.7979" lon="-3.52317">
        <ele>5</ele>
        <time>2019-07-15T11:45:04Z</time>
      </trkpt>
      <trkpt lat="47.79789" lon="-3.52321">
        <ele>5</ele>
        <time>2019-07-15T11:45:05Z</time>
      </trkpt>
      <trkpt lat="47.79788" lon="-3.52325">
        <ele>5</ele>
        <time>2019-07-15T11:45:06Z</time>
      </trkpt>
      <trkpt lat="47.79788" lon="-3.52331">
        <ele>6</ele>
        <time>2019-07-15T11:45:07Z</time>
      </trkpt>
      <trkpt lat="47.79789" lon="-3.52337">
        <ele>6</ele>
        <time>2019-07-15T11:45:08Z</time>
      </trkpt>
      <trkpt lat="47.79791" lon="-3.52341">
        <ele>6</ele>
        <time>2019-07-15T11:45:09Z</time>
      </trkpt>
      <trkpt lat="47.79792" lon="-3.52344">
        <ele>7</ele>
        <time>2019-07-15T11:45:10Z</time>
      </trkpt>
      <trkpt lat="47.79792" lon="-3.52345">
        <ele>7</ele>
        <time>2019-07-15T11:45:11Z</time>
      </trkpt>
      <trkpt lat="47.79792" lon="-3.52346">
        <ele>7</ele>
        <time>2019-07-15T11:45:12Z</time>
      </trkpt>
      <trkpt lat="47.79792" lon="-3.52348">
        <ele>7</ele>
        <time>2019-07-15T11:45:13Z</time>
      </trkpt>
      <trkpt lat="47.79791" lon="-3.52351">
        <ele>8</ele>
        <time>2019-07-15T11:45:14Z</time>
      </trkpt>
      <trkpt lat="47.7979" lon="-3.52356">
        <ele>8</ele>
        <time>2019-07-15T11:45:15Z</time>
      </trkpt>
      <trkpt lat="47.79789" lon="-3.52362">
        <ele>8</ele>
        <time>2019-07-15T11:45:16Z</time>
      </trkpt>
      <trkpt lat="47.79789" lon="-3.52367">
        <ele>8</ele>
        <time>2019-07-15T11:45:17Z</time>
      </trkpt>
      <trkpt lat="47.79788" lon="-3.52371">
        <ele>8</ele>
        <time>2019-07-15T11:45:18Z</time>
      </trkpt>
      <trkpt lat="47.79788" lon="-3.52375">
        <ele>8</ele>
        <time>2019-07-15T11:45:19Z</time>
      </trkpt>
      <trkpt lat="47.79788" lon="-3.52378">
        <ele>8</ele>
        <time>2019-07-15T11:45:20Z</time>
      </trkpt>
      <trkpt lat="47.79788" lon="-3.52381">
        <ele>9</ele>
        <time>2019-07-15T11:45:21Z</time>
      </trkpt>
      <trkpt lat="47.79788" lon="-3.52383">
        <ele>9</ele>
        <time>2019-07-15T11:45:22Z</time>
      </trkpt>
      <trkpt lat="47.79788" lon="-3.52386">
        <ele>9</ele>
        <time>2019-07-15T11:45:23Z</time>
      </trkpt>
      <trkpt lat="47.79788" lon="-3.52388">
        <ele>9</ele>
        <time>2019-07-15T11:45:24Z</time>
      </trkpt>
      <trkpt lat="47.79789" lon="-3.52392">
        <ele>9</ele>
        <time>2019-07-15T11:45:25Z</time>
      </trkpt>
      <trkpt lat="47.7979" lon="-3.52395">
        <ele>9</ele>
        <time>2019-07-15T11:45:26Z</time>
      </trkpt>
      <trkpt lat="47.79792" lon="-3.52396">
        <ele>9</ele>
        <time>2019-07-15T11:45:27Z</time>
      </trkpt>
      <trkpt lat="47.79793" lon="-3.52398">
        <ele>9</ele>
        <time>2019-07-15T11:45:28Z</time>
      </trkpt>
      <trkpt lat="47.79794" lon="-3.524">
        <ele>9</ele>
        <time>2019-07-15T11:45:29Z</time>
      </trkpt>
      <trkpt lat="47.79795" lon="-3.524">
        <ele>9</ele>
        <time>2019-07-15T11:45:30Z</time>
      </trkpt>
      <trkpt lat="47.79795" lon="-3.52401">
        <ele>9</ele>
        <time>2019-07-15T11:45:31Z</time>
      </trkpt>
      <trkpt lat="47.79795" lon="-3.52402">
        <ele>9</ele>
        <time>2019-07-15T11:45:32Z</time>
      </trkpt>
      <trkpt lat="47.79795" lon="-3.52403">
        <ele>9</ele>
        <time>2019-07-15T11:45:33Z</time>
      </trkpt>
      <trkpt lat="47.79796" lon="-3.52405">
        <ele>10</ele>
        <time>2019-07-15T11:45:34Z</time>
      </trkpt>
      <trkpt lat="47.79796" lon="-3.52407">
        <ele>10</ele>
        <time>2019-07-15T11:45:35Z</time>
      </trkpt>
      <trkpt lat="47.79795" lon="-3.52409">
        <ele>10</ele>
        <time>2019-07-15T11:45:36Z</time>
      </trkpt>
      <trkpt lat="47.79795" lon="-3.5241">
        <ele>10</ele>
        <time>2019-07-15T11:45:37Z</time>
      </trkpt>
      <trkpt lat="47.79795" lon="-3.52412">
        <ele>10</ele>
        <time>2019-07-15T11:45:38Z</time>
      </trkpt>
      <trkpt lat="47.79794" lon="-3.52414">
        <ele>10</ele>
        <time>2019-07-15T11:45:39Z</time>
      </trkpt>
      <trkpt lat="47.79794" lon="-3.52416">
        <ele>10</ele>
        <time>2019-07-15T11:45:40Z</time>
      </trkpt>
      <trkpt lat="47.79793" lon="-3.52419">
        <ele>10</ele>
        <time>2019-07-15T11:45:41Z</time>
      </trkpt>
      <trkpt lat="47.79792" lon="-3.52421">
        <ele>10</ele>
        <time>2019-07-15T11:45:42Z</time>
      </trkpt>
      <trkpt lat="47.79791" lon="-3.52425">
        <ele>10</ele>
        <time>2019-07-15T11:45:43Z</time>
      </trkpt>
      <trkpt lat="47.7979" lon="-3.52429">
        <ele>10</ele>
        <time>2019-07-15T11:45:44Z</time>
      </trkpt>
      <trkpt lat="47.79788" lon="-3.52433">
        <ele>10</ele>
        <time>2019-07-15T11:45:45Z</time>
      </trkpt>
      <trkpt lat="47.79786" lon="-3.52438">
        <ele>10</ele>
        <time>2019-07-15T11:45:46Z</time>
      </trkpt>
      <trkpt lat="47.79785" lon="-3.52443">
        <ele>10</ele>
        <time>2019-07-15T11:45:47Z</time>
      </trkpt>
      <trkpt lat="47.79783" lon="-3.52448">
        <ele>10</ele>
        <time>2019-07-15T11:45:48Z</time>
      </trkpt>
      <trkpt lat="47.79781" lon="-3.52454">
        <ele>10</ele>
        <time>2019-07-15T11:45:49Z</time>
      </trkpt>
      <trkpt lat="47.7978" lon="-3.5246">
        <ele>10</ele>
        <time>2019-07-15T11:45:50Z</time>
      </trkpt>
      <trkpt lat="47.79778" lon="-3.52467">
        <ele>10</ele>
        <time>2019-07-15T11:45:51Z</time>
      </trkpt>
      <trkpt lat="47.79776" lon="-3.52474">
        <ele>9</ele>
        <time>2019-07-15T11:45:52Z</time>
      </trkpt>
      <trkpt lat="47.79774" lon="-3.52482">
        <ele>9</ele>
        <time>2019-07-15T11:45:53Z</time>
      </trkpt>
      <trkpt lat="47.79772" lon="-3.52489">
        <ele>9</ele>
        <time>2019-07-15T11:45:54Z</time>
      </trkpt>
      <trkpt lat="47.7977" lon="-3.52495">
        <ele>9</ele>
        <time>2019-07-15T11:45:55Z</time>
      </trkpt>
      <trkpt lat="47.79768" lon="-3.52501">
        <ele>9</ele>
        <time>2019-07-15T11:45:56Z</time>
      </trkpt>
      <trkpt lat="47.79767" lon="-3.52507">
        <ele>9</ele>
        <time>2019-07-15T11:45:57Z</time>
      </trkpt>
      <trkpt lat="47.79766" lon="-3.52511">
        <ele>9</ele>
        <time>2019-07-15T11:45:58Z</time>
      </trkpt>
      <trkpt lat="47.79765" lon="-3.52516">
        <ele>9</ele>
        <time>2019-07-15T11:45:59Z</time>
      </trkpt>
      <trkpt lat="47.79763" lon="-3.5252">
        <ele>9</ele>
        <time>2019-07-15T11:46:00Z</time>
      </trkpt>
      <trkpt lat="47.79762" lon="-3.52524">
        <ele>9</ele>
        <time>2019-07-15T11:46:01Z</time>
      </trkpt>
      <trkpt lat="47.7976" lon="-3.52529">
        <ele>9</ele>
        <time>2019-07-15T11:46:02Z</time>
      </trkpt>
      <trkpt lat="47.79758" lon="-3.52534">
        <ele>9</ele>
        <time>2019-07-15T11:46:03Z</time>
      </trkpt>
      <trkpt lat="47.79757" lon="-3.52539">
        <ele>9</ele>
        <time>2019-07-15T11:46:04Z</time>
      </trkpt>
      <trkpt lat="47.79755" lon="-3.52544">
        <ele>9</ele>
        <time>2019-07-15T11:46:05Z</time>
      </trkpt>
      <trkpt lat="47.79755" lon="-3.52549">
        <ele>9</ele>
        <time>2019-07-15T11:46:06Z</time>
      </trkpt>
      <trkpt lat="47.79754" lon="-3.52554">
        <ele>9</ele>
        <time>2019-07-15T11:46:07Z</time>
      </trkpt>
      <trkpt lat="47.79753" lon="-3.5256">
        <ele>9</ele>
        <time>2019-07-15T11:46:08Z</time>
      </trkpt>
      <trkpt lat="47.79752" lon="-3.52564">
        <ele>10</ele>
        <time>2019-07-15T11:46:09Z</time>
      </trkpt>
      <trkpt lat="47.79752" lon="-3.52568">
        <ele>10</ele>
        <time>2019-07-15T11:46:10Z</time>
      </trkpt>
      <trkpt lat="47.79751" lon="-3.52573">
        <ele>10</ele>
        <time>2019-07-15T11:46:11Z</time>
      </trkpt>
      <trkpt lat="47.79751" lon="-3.52579">
        <ele>10</ele>
        <time>2019-07-15T11:46:12Z</time>
      </trkpt>
      <trkpt lat="47.79752" lon="-3.52584">
        <ele>10</ele>
        <time>2019-07-15T11:46:13Z</time>
      </trkpt>
      <trkpt lat="47.79753" lon="-3.5259">
        <ele>10</ele>
        <time>2019-07-15T11:46:14Z</time>
      </trkpt>
      <trkpt lat="47.79754" lon="-3.52594">
        <ele>10</ele>
        <time>2019-07-15T11:46:15Z</time>
      </trkpt>
      <trkpt lat="47.79755" lon="-3.52599">
        <ele>10</ele>
        <time>2019-07-15T11:46:16Z</time>
      </trkpt>
      <trkpt lat="47.79757" lon="-3.52604">
        <ele>10</ele>
        <time>2019-07-15T11:46:17Z</time>
      </trkpt>
      <trkpt lat="47.79757" lon="-3.5261">
        <ele>10</ele>
        <time>2019-07-15T11:46:18Z</time>
      </trkpt>
      <trkpt lat="47.79757" lon="-3.52615">
        <ele>10</ele>
        <time>2019-07-15T11:46:19Z</time>
      </trkpt>
      <trkpt lat="47.79755" lon="-3.5262">
        <ele>10</ele>
        <time>2019-07-15T11:46:20Z</time>
      </trkpt>
      <trkpt lat="47.79754" lon="-3.52625">
        <ele>10</ele>
        <time>2019-07-15T11:46:21Z</time>
      </trkpt>
      <trkpt lat="47.79752" lon="-3.5263">
        <ele>10</ele>
        <time>2019-07-15T11:46:22Z</time>
      </trkpt>
      <trkpt lat="47.79751" lon="-3.52634">
        <ele>10</ele>
        <time>2019-07-15T11:46:23Z</time>
      </trkpt>
      <trkpt lat="47.79749" lon="-3.52638">
        <ele>10</ele>
        <time>2019-07-15T11:46:24Z</time>
      </trkpt>
      <trkpt lat="47.79748" lon="-3.52642">
        <ele>10</ele>
        <time>2019-07-15T11:46:25Z</time>
      </trkpt>
      <trkpt lat="47.79747" lon="-3.52645">
        <ele>10</ele>
        <time>2019-07-15T11:46:26Z</time>
      </trkpt>
      <trkpt lat="47.79745" lon="-3.52648">
        <ele>10</ele>
        <time>2019-07-15T11:46:27Z</time>
      </trkpt>
      <trkpt lat="47.79744" lon="-3.52651">
        <ele>10</ele>
        <time>2019-07-15T11:46:28Z</time>
      </trkpt>
      <trkpt lat="47.79743" lon="-3.52654">
        <ele>10</ele>
        <time>2019-07-15T11:46:29Z</time>
      </trkpt>
      <trkpt lat="47.79742" lon="-3.52658">
        <ele>10</ele>
        <time>2019-07-15T11:46:30Z</time>
      </trkpt>
      <trkpt lat="47.79741" lon="-3.52661">
        <ele>10</ele>
        <time>2019-07-15T11:46:31Z</time>
      </trkpt>
      <trkpt lat="47.7974" lon="-3.52663">
        <ele>10</ele>
        <time>2019-07-15T11:46:32Z</time>
      </trkpt>
      <trkpt lat="47.79739" lon="-3.52665">
        <ele>10</ele>
        <time>2019-07-15T11:46:33Z</time>
      </trkpt>
      <trkpt lat="47.79739" lon="-3.52667">
        <ele>10</ele>
        <time>2019-07-15T11:46:34Z</time>
      </trkpt>
      <trkpt lat="47.79739" lon="-3.52669">
        <ele>10</ele>
        <time>2019-07-15T11:46:35Z</time>
      </trkpt>
      <trkpt lat="47.79738" lon="-3.52672">
        <ele>11</ele>
        <time>2019-07-15T11:46:36Z</time>
      </trkpt>
      <trkpt lat="47.79738" lon="-3.52674">
        <ele>11</ele>
        <time>2019-07-15T11:46:37Z</time>
      </trkpt>
      <trkpt lat="47.79737" lon="-3.52676">
        <ele>11</ele>
        <time>2019-07-15T11:46:38Z</time>
      </trkpt>
      <trkpt lat="47.79736" lon="-3.52679">
        <ele>11</ele>
        <time>2019-07-15T11:46:39Z</time>
      </trkpt>
      <trkpt lat="47.79735" lon="-3.52681">
        <ele>11</ele>
        <time>2019-07-15T11:46:40Z</time>
      </trkpt>
      <trkpt lat="47.79734" lon="-3.52684">
        <ele>11</ele>
        <time>2019-07-15T11:46:41Z</time>
      </trkpt>
      <trkpt lat="47.79733" lon="-3.52686">
        <ele>11</ele>
        <time>2019-07-15T11:46:42Z</time>
      </trkpt>
      <trkpt lat="47.79732" lon="-3.52689">
        <ele>11</ele>
        <time>2019-07-15T11:46:43Z</time>
      </trkpt>
      <trkpt lat="47.79731" lon="-3.52693">
        <ele>11</ele>
        <time>2019-07-15T11:46:44Z</time>
      </trkpt>
      <trkpt lat="47.7973" lon="-3.52696">
        <ele>12</ele>
        <time>2019-07-15T11:46:45Z</time>
      </trkpt>
      <trkpt lat="47.79729" lon="-3.52701">
        <ele>12</ele>
        <time>2019-07-15T11:46:46Z</time>
      </trkpt>
      <trkpt lat="47.79728" lon="-3.52704">
        <ele>12</ele>
        <time>2019-07-15T11:46:47Z</time>
      </trkpt>
      <trkpt lat="47.79728" lon="-3.52707">
        <ele>12</ele>
        <time>2019-07-15T11:46:48Z</time>
      </trkpt>
      <trkpt lat="47.79727" lon="-3.5271">
        <ele>12</ele>
        <time>2019-07-15T11:46:49Z</time>
      </trkpt>
      <trkpt lat="47.79726" lon="-3.52714">
        <ele>12</ele>
        <time>2019-07-15T11:46:50Z</time>
      </trkpt>
      <trkpt lat="47.79725" lon="-3.52717">
        <ele>13</ele>
        <time>2019-07-15T11:46:51Z</time>
      </trkpt>
      <trkpt lat="47.79725" lon="-3.52721">
        <ele>13</ele>
        <time>2019-07-15T11:46:52Z</time>
      </trkpt>
      <trkpt lat="47.79725" lon="-3.52723">
        <ele>13</ele>
        <time>2019-07-15T11:46:53Z</time>
      </trkpt>
      <trkpt lat="47.79724" lon="-3.52726">
        <ele>13</ele>
        <time>2019-07-15T11:46:54Z</time>
      </trkpt>
      <trkpt lat="47.79723" lon="-3.5273">
        <ele>13</ele>
        <time>2019-07-15T11:46:55Z</time>
      </trkpt>
      <trkpt lat="47.79722" lon="-3.52733">
        <ele>14</ele>
        <time>2019-07-15T11:46:56Z</time>
      </trkpt>
      <trkpt lat="47.79721" lon="-3.52737">
        <ele>14</ele>
        <time>2019-07-15T11:46:57Z</time>
      </trkpt>
      <trkpt lat="47.79719" lon="-3.52742">
        <ele>14</ele>
        <time>2019-07-15T11:46:58Z</time>
      </trkpt>
      <trkpt lat="47.79718" lon="-3.52747">
        <ele>14</ele>
        <time>2019-07-15T11:46:59Z</time>
      </trkpt>
      <trkpt lat="47.79717" lon="-3.52752">
        <ele>15</ele>
        <time>2019-07-15T11:47:00Z</time>
      </trkpt>
      <trkpt lat="47.79715" lon="-3.52757">
        <ele>15</ele>
        <time>2019-07-15T11:47:01Z</time>
      </trkpt>
      <trkpt lat="47.79712" lon="-3.52762">
        <ele>15</ele>
        <time>2019-07-15T11:47:02Z</time>
      </trkpt>
      <trkpt lat="47.7971" lon="-3.52765">
        <ele>15</ele>
        <time>2019-07-15T11:47:03Z</time>
      </trkpt>
      <trkpt lat="47.79708" lon="-3.52768">
        <ele>15</ele>
        <time>2019-07-15T11:47:04Z</time>
      </trkpt>
      <trkpt lat="47.79705" lon="-3.52771">
        <ele>15</ele>
        <time>2019-07-15T11:47:05Z</time>
      </trkpt>
      <trkpt lat="47.79703" lon="-3.52772">
        <ele>15</ele>
        <time>2019-07-15T11:47:06Z</time>
      </trkpt>
      <trkpt lat="47.797" lon="-3.52774">
        <ele>15</ele>
        <time>2019-07-15T11:47:07Z</time>
      </trkpt>
      <trkpt lat="47.79698" lon="-3.52775">
        <ele>15</ele>
        <time>2019-07-15T11:47:08Z</time>
      </trkpt>
      <trkpt lat="47.79695" lon="-3.52775">
        <ele>15</ele>
        <time>2019-07-15T11:47:09Z</time>
      </trkpt>
      <trkpt lat="47.79692" lon="-3.52775">
        <ele>16</ele>
        <time>2019-07-15T11:47:10Z</time>
      </trkpt>
      <trkpt lat="47.79689" lon="-3.52775">
        <ele>16</ele>
        <time>2019-07-15T11:47:11Z</time>
      </trkpt>
      <trkpt lat="47.79688" lon="-3.52775">
        <ele>16</ele>
        <time>2019-07-15T11:47:12Z</time>
      </trkpt>
      <trkpt lat="47.79686" lon="-3.52776">
        <ele>16</ele>
        <time>2019-07-15T11:47:13Z</time>
      </trkpt>
      <trkpt lat="47.79684" lon="-3.52777">
        <ele>16</ele>
        <time>2019-07-15T11:47:14Z</time>
      </trkpt>
      <trkpt lat="47.79681" lon="-3.52778">
        <ele>16</ele>
        <time>2019-07-15T11:47:15Z</time>
      </trkpt>
      <trkpt lat="47.79679" lon="-3.52778">
        <ele>16</ele>
        <time>2019-07-15T11:47:16Z</time>
      </trkpt>
      <trkpt lat="47.79676" lon="-3.52778">
        <ele>15</ele>
        <time>2019-07-15T11:47:17Z</time>
      </trkpt>
      <trkpt lat="47.79673" lon="-3.52778">
        <ele>15</ele>
        <time>2019-07-15T11:47:18Z</time>
      </trkpt>
      <trkpt lat="47.7967" lon="-3.52777">
        <ele>15</ele>
        <time>2019-07-15T11:47:19Z</time>
      </trkpt>
      <trkpt lat="47.79665" lon="-3.52777">
        <ele>15</ele>
        <time>2019-07-15T11:47:20Z</time>
      </trkpt>
      <trkpt lat="47.79659" lon="-3.52778">
        <ele>15</ele>
        <time>2019-07-15T11:47:21Z</time>
      </trkpt>
      <trkpt lat="47.79652" lon="-3.52779">
        <ele>15</ele>
        <time>2019-07-15T11:47:22Z</time>
      </trkpt>
      <trkpt lat="47.79646" lon="-3.52781">
        <ele>15</ele>
        <time>2019-07-15T11:47:23Z</time>
      </trkpt>
      <trkpt lat="47.7964" lon="-3.52785">
        <ele>15</ele>
        <time>2019-07-15T11:47:24Z</time>
      </trkpt>
      <trkpt lat="47.79636" lon="-3.52788">
        <ele>15</ele>
        <time>2019-07-15T11:47:25Z</time>
      </trkpt>
      <trkpt lat="47.79631" lon="-3.52792">
        <ele>15</ele>
        <time>2019-07-15T11:47:26Z</time>
      </trkpt>
      <trkpt lat="47.79626" lon="-3.52795">
        <ele>15</ele>
        <time>2019-07-15T11:47:27Z</time>
      </trkpt>
      <trkpt lat="47.79621" lon="-3.52798">
        <ele>15</ele>
        <time>2019-07-15T11:47:28Z</time>
      </trkpt>
      <trkpt lat="47.79617" lon="-3.52801">
        <ele>15</ele>
        <time>2019-07-15T11:47:29Z</time>
      </trkpt>
      <trkpt lat="47.79614" lon="-3.52804">
        <ele>15</ele>
        <time>2019-07-15T11:47:30Z</time>
      </trkpt>
      <trkpt lat="47.79612" lon="-3.52807">
        <ele>14</ele>
        <time>2019-07-15T11:47:31Z</time>
      </trkpt>
      <trkpt lat="47.7961" lon="-3.52809">
        <ele>14</ele>
        <time>2019-07-15T11:47:32Z</time>
      </trkpt>
      <trkpt lat="47.79608" lon="-3.5281">
        <ele>14</ele>
        <time>2019-07-15T11:47:33Z</time>
      </trkpt>
      <trkpt lat="47.79606" lon="-3.52811">
        <ele>14</ele>
        <time>2019-07-15T11:47:34Z</time>
      </trkpt>
      <trkpt lat="47.79604" lon="-3.52812">
        <ele>14</ele>
        <time>2019-07-15T11:47:35Z</time>
      </trkpt>
      <trkpt lat="47.79602" lon="-3.52813">
        <ele>14</ele>
        <time>2019-07-15T11:47:36Z</time>
      </trkpt>
      <trkpt lat="47.79601" lon="-3.52814">
        <ele>14</ele>
        <time>2019-07-15T11:47:37Z</time>
      </trkpt>
      <trkpt lat="47.79599" lon="-3.52815">
        <ele>13</ele>
        <time>2019-07-15T11:47:38Z</time>
      </trkpt>
      <trkpt lat="47.79598" lon="-3.52815">
        <ele>13</ele>
        <time>2019-07-15T11:47:39Z</time>
      </trkpt>
      <trkpt lat="47.79597" lon="-3.52815">
        <ele>13</ele>
        <time>2019-07-15T11:47:40Z</time>
      </trkpt>
      <trkpt lat="47.79595" lon="-3.52816">
        <ele>13</ele>
        <time>2019-07-15T11:47:41Z</time>
      </trkpt>
      <trkpt lat="47.79594" lon="-3.52816">
        <ele>13</ele>
        <time>2019-07-15T11:47:42Z</time>
      </trkpt>
      <trkpt lat="47.79592" lon="-3.52818">
        <ele>13</ele>
        <time>2019-07-15T11:47:43Z</time>
      </trkpt>
      <trkpt lat="47.7959" lon="-3.52819">
        <ele>13</ele>
        <time>2019-07-15T11:47:44Z</time>
      </trkpt>
      <trkpt lat="47.79588" lon="-3.5282">
        <ele>13</ele>
        <time>2019-07-15T11:47:45Z</time>
      </trkpt>
      <trkpt lat="47.79587" lon="-3.52822">
        <ele>12</ele>
        <time>2019-07-15T11:47:46Z</time>
      </trkpt>
      <trkpt lat="47.79584" lon="-3.52823">
        <ele>12</ele>
        <time>2019-07-15T11:47:47Z</time>
      </trkpt>
      <trkpt lat="47.79583" lon="-3.52825">
        <ele>12</ele>
        <time>2019-07-15T11:47:48Z</time>
      </trkpt>
      <trkpt lat="47.79582" lon="-3.52827">
        <ele>12</ele>
        <time>2019-07-15T11:47:49Z</time>
      </trkpt>
      <trkpt lat="47.7958" lon="-3.52829">
        <ele>12</ele>
        <time>2019-07-15T11:47:50Z</time>
      </trkpt>
      <trkpt lat="47.79579" lon="-3.52831">
        <ele>12</ele>
        <time>2019-07-15T11:47:51Z</time>
      </trkpt>
      <trkpt lat="47.79577" lon="-3.52832">
        <ele>12</ele>
        <time>2019-07-15T11:47:52Z</time>
      </trkpt>
      <trkpt lat="47.79576" lon="-3.52834">
        <ele>12</ele>
        <time>2019-07-15T11:47:53Z</time>
      </trkpt>
      <trkpt lat="47.79575" lon="-3.52836">
        <ele>12</ele>
        <time>2019-07-15T11:47:54Z</time>
      </trkpt>
      <trkpt lat="47.79575" lon="-3.52838">
        <ele>12</ele>
        <time>2019-07-15T11:47:55Z</time>
      </trkpt>
      <trkpt lat="47.79575" lon="-3.52839">
        <ele>12</ele>
        <time>2019-07-15T11:47:56Z</time>
      </trkpt>
      <trkpt lat="47.79574" lon="-3.5284">
        <ele>13</ele>
        <time>2019-07-15T11:47:57Z</time>
      </trkpt>
      <trkpt lat="47.79574" lon="-3.52842">
        <ele>13</ele>
        <time>2019-07-15T11:47:58Z</time>
      </trkpt>
      <trkpt lat="47.79573" lon="-3.52844">
        <ele>13</ele>
        <time>2019-07-15T11:47:59Z</time>
      </trkpt>
      <trkpt lat="47.79573" lon="-3.52846">
        <ele>13</ele>
        <time>2019-07-15T11:48:00Z</time>
      </trkpt>
      <trkpt lat="47.79573" lon="-3.52849">
        <ele>14</ele>
        <time>2019-07-15T11:48:01Z</time>
      </trkpt>
      <trkpt lat="47.79572" lon="-3.52851">
        <ele>14</ele>
        <time>2019-07-15T11:48:02Z</time>
      </trkpt>
      <trkpt lat="47.79571" lon="-3.52853">
        <ele>14</ele>
        <time>2019-07-15T11:48:03Z</time>
      </trkpt>
      <trkpt lat="47.79571" lon="-3.52855">
        <ele>15</ele>
        <time>2019-07-15T11:48:04Z</time>
      </trkpt>
      <trkpt lat="47.7957" lon="-3.52857">
        <ele>15</ele>
        <time>2019-07-15T11:48:05Z</time>
      </trkpt>
      <trkpt lat="47.7957" lon="-3.52858">
        <ele>15</ele>
        <time>2019-07-15T11:48:06Z</time>
      </trkpt>
      <trkpt lat="47.7957" lon="-3.5286">
        <ele>15</ele>
        <time>2019-07-15T11:48:07Z</time>
      </trkpt>
      <trkpt lat="47.7957" lon="-3.52862">
        <ele>16</ele>
        <time>2019-07-15T11:48:08Z</time>
      </trkpt>
      <trkpt lat="47.7957" lon="-3.52863">
        <ele>16</ele>
        <time>2019-07-15T11:48:09Z</time>
      </trkpt>
      <trkpt lat="47.79571" lon="-3.52866">
        <ele>16</ele>
        <time>2019-07-15T11:48:10Z</time>
      </trkpt>
      <trkpt lat="47.79572" lon="-3.52868">
        <ele>16</ele>
        <time>2019-07-15T11:48:11Z</time>
      </trkpt>
      <trkpt lat="47.79572" lon="-3.52871">
        <ele>17</ele>
        <time>2019-07-15T11:48:12Z</time>
      </trkpt>
      <trkpt lat="47.79573" lon="-3.52873">
        <ele>17</ele>
        <time>2019-07-15T11:48:13Z</time>
      </trkpt>
      <trkpt lat="47.79573" lon="-3.52875">
        <ele>17</ele>
        <time>2019-07-15T11:48:14Z</time>
      </trkpt>
      <trkpt lat="47.79574" lon="-3.52877">
        <ele>17</ele>
        <time>2019-07-15T11:48:15Z</time>
      </trkpt>
      <trkpt lat="47.79575" lon="-3.52879">
        <ele>17</ele>
        <time>2019-07-15T11:48:16Z</time>
      </trkpt>
      <trkpt lat="47.79575" lon="-3.52882">
        <ele>17</ele>
        <time>2019-07-15T11:48:17Z</time>
      </trkpt>
      <trkpt lat="47.79575" lon="-3.52886">
        <ele>17</ele>
        <time>2019-07-15T11:48:18Z</time>
      </trkpt>
      <trkpt lat="47.79574" lon="-3.52891">
        <ele>17</ele>
        <time>2019-07-15T11:48:19Z</time>
      </trkpt>
      <trkpt lat="47.79573" lon="-3.52894">
        <ele>17</ele>
        <time>2019-07-15T11:48:20Z</time>
      </trkpt>
      <trkpt lat="47.79571" lon="-3.52896">
        <ele>17</ele>
        <time>2019-07-15T11:48:21Z</time>
      </trkpt>
      <trkpt lat="47.79569" lon="-3.52898">
        <ele>17</ele>
        <time>2019-07-15T11:48:22Z</time>
      </trkpt>
      <trkpt lat="47.79568" lon="-3.52899">
        <ele>18</ele>
        <time>2019-07-15T11:48:23Z</time>
      </trkpt>
      <trkpt lat="47.79566" lon="-3.52899">
        <ele>18</ele>
        <time>2019-07-15T11:48:24Z</time>
      </trkpt>
      <trkpt lat="47.79566" lon="-3.52899">
        <ele>18</ele>
        <time>2019-07-15T11:48:25Z</time>
      </trkpt>
      <trkpt lat="47.79565" lon="-3.52898">
        <ele>18</ele>
        <time>2019-07-15T11:48:26Z</time>
      </trkpt>
      <trkpt lat="47.79565" lon="-3.52897">
        <ele>18</ele>
        <time>2019-07-15T11:48:27Z</time>
      </trkpt>
      <trkpt lat="47.79565" lon="-3.52895">
        <ele>18</ele>
        <time>2019-07-15T11:48:28Z</time>
      </trkpt>
      <trkpt lat="47.79564" lon="-3.52892">
        <ele>18</ele>
        <time>2019-07-15T11:48:29Z</time>
      </trkpt>
      <trkpt lat="47.79563" lon="-3.5289">
        <ele>18</ele>
        <time>2019-07-15T11:48:30Z</time>
      </trkpt>
      <trkpt lat="47.79561" lon="-3.52887">
        <ele>18</ele>
        <time>2019-07-15T11:48:31Z</time>
      </trkpt>
      <trkpt lat="47.79559" lon="-3.52886">
        <ele>18</ele>
        <time>2019-07-15T11:48:32Z</time>
      </trkpt>
      <trkpt lat="47.79557" lon="-3.52885">
        <ele>17</ele>
        <time>2019-07-15T11:48:33Z</time>
      </trkpt>
      <trkpt lat="47.79554" lon="-3.52886">
        <ele>17</ele>
        <time>2019-07-15T11:48:34Z</time>
      </trkpt>
      <trkpt lat="47.79551" lon="-3.52885">
        <ele>17</ele>
        <time>2019-07-15T11:48:35Z</time>
      </trkpt>
      <trkpt lat="47.79549" lon="-3.52885">
        <ele>17</ele>
        <time>2019-07-15T11:48:36Z</time>
      </trkpt>
      <trkpt lat="47.79548" lon="-3.52885">
        <ele>17</ele>
        <time>2019-07-15T11:48:37Z</time>
      </trkpt>
      <trkpt lat="47.79546" lon="-3.52884">
        <ele>16</ele>
        <time>2019-07-15T11:48:38Z</time>
      </trkpt>
      <trkpt lat="47.79544" lon="-3.52884">
        <ele>16</ele>
        <time>2019-07-15T11:48:39Z</time>
      </trkpt>
      <trkpt lat="47.79542" lon="-3.52884">
        <ele>16</ele>
        <time>2019-07-15T11:48:40Z</time>
      </trkpt>
      <trkpt lat="47.7954" lon="-3.52883">
        <ele>16</ele>
        <time>2019-07-15T11:48:41Z</time>
      </trkpt>
      <trkpt lat="47.79538" lon="-3.52882">
        <ele>16</ele>
        <time>2019-07-15T11:48:42Z</time>
      </trkpt>
      <trkpt lat="47.79536" lon="-3.52881">
        <ele>16</ele>
        <time>2019-07-15T11:48:43Z</time>
      </trkpt>
      <trkpt lat="47.79534" lon="-3.5288">
        <ele>15</ele>
        <time>2019-07-15T11:48:44Z</time>
      </trkpt>
      <trkpt lat="47.79532" lon="-3.52879">
        <ele>16</ele>
        <time>2019-07-15T11:48:45Z</time>
      </trkpt>
      <trkpt lat="47.79531" lon="-3.52878">
        <ele>16</ele>
        <time>2019-07-15T11:48:46Z</time>
      </trkpt>
      <trkpt lat="47.79529" lon="-3.52876">
        <ele>16</ele>
        <time>2019-07-15T11:48:47Z</time>
      </trkpt>
      <trkpt lat="47.79529" lon="-3.52873">
        <ele>16</ele>
        <time>2019-07-15T11:48:48Z</time>
      </trkpt>
      <trkpt lat="47.79527" lon="-3.52872">
        <ele>16</ele>
        <time>2019-07-15T11:48:49Z</time>
      </trkpt>
      <trkpt lat="47.79526" lon="-3.5287">
        <ele>16</ele>
        <time>2019-07-15T11:48:50Z</time>
      </trkpt>
      <trkpt lat="47.79524" lon="-3.52868">
        <ele>16</ele>
        <time>2019-07-15T11:48:51Z</time>
      </trkpt>
      <trkpt lat="47.79524" lon="-3.52865">
        <ele>17</ele>
        <time>2019-07-15T11:48:52Z</time>
      </trkpt>
      <trkpt lat="47.79523" lon="-3.52863">
        <ele>17</ele>
        <time>2019-07-15T11:48:53Z</time>
      </trkpt>
      <trkpt lat="47.79522" lon="-3.52861">
        <ele>17</ele>
        <time>2019-07-15T11:48:54Z</time>
      </trkpt>
      <trkpt lat="47.79522" lon="-3.52859">
        <ele>17</ele>
        <time>2019-07-15T11:48:55Z</time>
      </trkpt>
      <trkpt lat="47.79521" lon="-3.52856">
        <ele>17</ele>
        <time>2019-07-15T11:48:56Z</time>
      </trkpt>
      <trkpt lat="47.7952" lon="-3.52854">
        <ele>17</ele>
        <time>2019-07-15T11:48:57Z</time>
      </trkpt>
      <trkpt lat="47.79519" lon="-3.52851">
        <ele>17</ele>
        <time>2019-07-15T11:48:58Z</time>
      </trkpt>
      <trkpt lat="47.79516" lon="-3.5285">
        <ele>17</ele>
        <time>2019-07-15T11:48:59Z</time>
      </trkpt>
      <trkpt lat="47.79514" lon="-3.52849">
        <ele>17</ele>
        <time>2019-07-15T11:49:00Z</time>
      </trkpt>
      <trkpt lat="47.79512" lon="-3.5285">
        <ele>17</ele>
        <time>2019-07-15T11:49:01Z</time>
      </trkpt>
      <trkpt lat="47.79509" lon="-3.52849">
        <ele>17</ele>
        <time>2019-07-15T11:49:02Z</time>
      </trkpt>
      <trkpt lat="47.79505" lon="-3.5285">
        <ele>17</ele>
        <time>2019-07-15T11:49:03Z</time>
      </trkpt>
      <trkpt lat="47.79501" lon="-3.52849">
        <ele>17</ele>
        <time>2019-07-15T11:49:04Z</time>
      </trkpt>
      <trkpt lat="47.79498" lon="-3.52847">
        <ele>17</ele>
        <time>2019-07-15T11:49:05Z</time>
      </trkpt>
      <trkpt lat="47.79495" lon="-3.52844">
        <ele>17</ele>
        <time>2019-07-15T11:49:06Z</time>
      </trkpt>
      <trkpt lat="47.79492" lon="-3.5284">
        <ele>17</ele>
        <time>2019-07-15T11:49:07Z</time>
      </trkpt>
      <trkpt lat="47.79489" lon="-3.52835">
        <ele>17</ele>
        <time>2019-07-15T11:49:08Z</time>
      </trkpt>
      <trkpt lat="47.79487" lon="-3.52832">
        <ele>17</ele>
        <time>2019-07-15T11:49:09Z</time>
      </trkpt>
      <trkpt lat="47.79485" lon="-3.52828">
        <ele>17</ele>
        <time>2019-07-15T11:49:10Z</time>
      </trkpt>
      <trkpt lat="47.79482" lon="-3.52826">
        <ele>17</ele>
        <time>2019-07-15T11:49:11Z</time>
      </trkpt>
      <trkpt lat="47.79479" lon="-3.52825">
        <ele>17</ele>
        <time>2019-07-15T11:49:12Z</time>
      </trkpt>
      <trkpt lat="47.79476" lon="-3.52824">
        <ele>17</ele>
        <time>2019-07-15T11:49:13Z</time>
      </trkpt>
      <trkpt lat="47.79473" lon="-3.52823">
        <ele>17</ele>
        <time>2019-07-15T11:49:14Z</time>
      </trkpt>
      <trkpt lat="47.7947" lon="-3.52823">
        <ele>17</ele>
        <time>2019-07-15T11:49:15Z</time>
      </trkpt>
      <trkpt lat="47.79467" lon="-3.52823">
        <ele>17</ele>
        <time>2019-07-15T11:49:16Z</time>
      </trkpt>
      <trkpt lat="47.79465" lon="-3.52822">
        <ele>17</ele>
        <time>2019-07-15T11:49:17Z</time>
      </trkpt>
      <trkpt lat="47.79461" lon="-3.52822">
        <ele>17</ele>
        <time>2019-07-15T11:49:18Z</time>
      </trkpt>
      <trkpt lat="47.79458" lon="-3.52823">
        <ele>17</ele>
        <time>2019-07-15T11:49:19Z</time>
      </trkpt>
      <trkpt lat="47.79456" lon="-3.52823">
        <ele>17</ele>
        <time>2019-07-15T11:49:20Z</time>
      </trkpt>
      <trkpt lat="47.79452" lon="-3.52822">
        <ele>16</ele>
        <time>2019-07-15T11:49:21Z</time>
      </trkpt>
      <trkpt lat="47.79448" lon="-3.52818">
        <ele>16</ele>
        <time>2019-07-15T11:49:22Z</time>
      </trkpt>
      <trkpt lat="47.79444" lon="-3.52813">
        <ele>16</ele>
        <time>2019-07-15T11:49:23Z</time>
      </trkpt>
      <trkpt lat="47.79441" lon="-3.52807">
        <ele>16</ele>
        <time>2019-07-15T11:49:24Z</time>
      </trkpt>
      <trkpt lat="47.79438" lon="-3.52799">
        <ele>16</ele>
        <time>2019-07-15T11:49:25Z</time>
      </trkpt>
      <trkpt lat="47.79436" lon="-3.5279">
        <ele>16</ele>
        <time>2019-07-15T11:49:26Z</time>
      </trkpt>
      <trkpt lat="47.79433" lon="-3.52785">
        <ele>15</ele>
        <time>2019-07-15T11:49:27Z</time>
      </trkpt>
      <trkpt lat="47.79429" lon="-3.52781">
        <ele>15</ele>
        <time>2019-07-15T11:49:28Z</time>
      </trkpt>
      <trkpt lat="47.79425" lon="-3.52779">
        <ele>15</ele>
        <time>2019-07-15T11:49:29Z</time>
      </trkpt>
      <trkpt lat="47.79421" lon="-3.52779">
        <ele>14</ele>
        <time>2019-07-15T11:49:30Z</time>
      </trkpt>
      <trkpt lat="47.79417" lon="-3.52778">
        <ele>14</ele>
        <time>2019-07-15T11:49:31Z</time>
      </trkpt>
      <trkpt lat="47.79412" lon="-3.52779">
        <ele>13</ele>
        <time>2019-07-15T11:49:32Z</time>
      </trkpt>
      <trkpt lat="47.79407" lon="-3.5278">
        <ele>13</ele>
        <time>2019-07-15T11:49:33Z</time>
      </trkpt>
      <trkpt lat="47.79401" lon="-3.52782">
        <ele>12</ele>
        <time>2019-07-15T11:49:34Z</time>
      </trkpt>
      <trkpt lat="47.79396" lon="-3.52784">
        <ele>12</ele>
        <time>2019-07-15T11:49:35Z</time>
      </trkpt>
      <trkpt lat="47.79392" lon="-3.52786">
        <ele>11</ele>
        <time>2019-07-15T11:49:36Z</time>
      </trkpt>
      <trkpt lat="47.79389" lon="-3.52787">
        <ele>11</ele>
        <time>2019-07-15T11:49:37Z</time>
      </trkpt>
      <trkpt lat="47.79388" lon="-3.52787">
        <ele>11</ele>
        <time>2019-07-15T11:49:38Z</time>
      </trkpt>
      <trkpt lat="47.79386" lon="-3.52788">
        <ele>10</ele>
        <time>2019-07-15T11:49:39Z</time>
      </trkpt>
      <trkpt lat="47.79385" lon="-3.52788">
        <ele>10</ele>
        <time>2019-07-15T11:49:40Z</time>
      </trkpt>
      <trkpt lat="47.79383" lon="-3.52791">
        <ele>9</ele>
        <time>2019-07-15T11:49:41Z</time>
      </trkpt>
      <trkpt lat="47.7938" lon="-3.52794">
        <ele>9</ele>
        <time>2019-07-15T11:49:42Z</time>
      </trkpt>
      <trkpt lat="47.79377" lon="-3.52798">
        <ele>9</ele>
        <time>2019-07-15T11:49:43Z</time>
      </trkpt>
      <trkpt lat="47.79375" lon="-3.52803">
        <ele>8</ele>
        <time>2019-07-15T11:49:44Z</time>
      </trkpt>
      <trkpt lat="47.79372" lon="-3.52809">
        <ele>8</ele>
        <time>2019-07-15T11:49:45Z</time>
      </trkpt>
      <trkpt lat="47.7937" lon="-3.52816">
        <ele>7</ele>
        <time>2019-07-15T11:49:46Z</time>
      </trkpt>
      <trkpt lat="47.79367" lon="-3.5282">
        <ele>7</ele>
        <time>2019-07-15T11:49:47Z</time>
      </trkpt>
      <trkpt lat="47.79365" lon="-3.52822">
        <ele>7</ele>
        <time>2019-07-15T11:49:48Z</time>
      </trkpt>
      <trkpt lat="47.79363" lon="-3.52823">
        <ele>7</ele>
        <time>2019-07-15T11:49:49Z</time>
      </trkpt>
      <trkpt lat="47.79361" lon="-3.52824">
        <ele>6</ele>
        <time>2019-07-15T11:49:50Z</time>
      </trkpt>
      <trkpt lat="47.79358" lon="-3.52824">
        <ele>6</ele>
        <time>2019-07-15T11:49:51Z</time>
      </trkpt>
      <trkpt lat="47.79356" lon="-3.52824">
        <ele>6</ele>
        <time>2019-07-15T11:49:52Z</time>
      </trkpt>
      <trkpt lat="47.79353" lon="-3.52824">
        <ele>6</ele>
        <time>2019-07-15T11:49:53Z</time>
      </trkpt>
      <trkpt lat="47.7935" lon="-3.52823">
        <ele>6</ele>
        <time>2019-07-15T11:49:54Z</time>
      </trkpt>
      <trkpt lat="47.79345" lon="-3.52824">
        <ele>6</ele>
        <time>2019-07-15T11:49:55Z</time>
      </trkpt>
      <trkpt lat="47.79342" lon="-3.52827">
        <ele>5</ele>
        <time>2019-07-15T11:49:56Z</time>
      </trkpt>
      <trkpt lat="47.79339" lon="-3.5283">
        <ele>5</ele>
        <time>2019-07-15T11:49:57Z</time>
      </trkpt>
      <trkpt lat="47.79336" lon="-3.52832">
        <ele>5</ele>
        <time>2019-07-15T11:49:58Z</time>
      </trkpt>
      <trkpt lat="47.79334" lon="-3.52833">
        <ele>5</ele>
        <time>2019-07-15T11:49:59Z</time>
      </trkpt>
      <trkpt lat="47.79331" lon="-3.52833">
        <ele>5</ele>
        <time>2019-07-15T11:50:00Z</time>
      </trkpt>
      <trkpt lat="47.79328" lon="-3.52833">
        <ele>5</ele>
        <time>2019-07-15T11:50:01Z</time>
      </trkpt>
      <trkpt lat="47.79325" lon="-3.52835">
        <ele>5</ele>
        <time>2019-07-15T11:50:02Z</time>
      </trkpt>
      <trkpt lat="47.79323" lon="-3.52836">
        <ele>5</ele>
        <time>2019-07-15T11:50:03Z</time>
      </trkpt>
      <trkpt lat="47.79321" lon="-3.52839">
        <ele>5</ele>
        <time>2019-07-15T11:50:04Z</time>
      </trkpt>
      <trkpt lat="47.79319" lon="-3.52843">
        <ele>5</ele>
        <time>2019-07-15T11:50:05Z</time>
      </trkpt>
      <trkpt lat="47.79316" lon="-3.52845">
        <ele>5</ele>
        <time>2019-07-15T11:50:06Z</time>
      </trkpt>
      <trkpt lat="47.79312" lon="-3.52846">
        <ele>5</ele>
        <time>2019-07-15T11:50:07Z</time>
      </trkpt>
      <trkpt lat="47.7931" lon="-3.52847">
        <ele>5</ele>
        <time>2019-07-15T11:50:08Z</time>
      </trkpt>
      <trkpt lat="47.79307" lon="-3.52849">
        <ele>5</ele>
        <time>2019-07-15T11:50:09Z</time>
      </trkpt>
      <trkpt lat="47.79305" lon="-3.52852">
        <ele>5</ele>
        <time>2019-07-15T11:50:10Z</time>
      </trkpt>
      <trkpt lat="47.79302" lon="-3.52853">
        <ele>5</ele>
        <time>2019-07-15T11:50:11Z</time>
      </trkpt>
      <trkpt lat="47.79297" lon="-3.52855">
        <ele>5</ele>
        <time>2019-07-15T11:50:12Z</time>
      </trkpt>
      <trkpt lat="47.79293" lon="-3.52857">
        <ele>5</ele>
        <time>2019-07-15T11:50:13Z</time>
      </trkpt>
      <trkpt lat="47.79288" lon="-3.52858">
        <ele>5</ele>
        <time>2019-07-15T11:50:14Z</time>
      </trkpt>
      <trkpt lat="47.79282" lon="-3.52859">
        <ele>5</ele>
        <time>2019-07-15T11:50:15Z</time>
      </trkpt>
      <trkpt lat="47.79277" lon="-3.5286">
        <ele>5</ele>
        <time>2019-07-15T11:50:16Z</time>
      </trkpt>
      <trkpt lat="47.79272" lon="-3.52861">
        <ele>5</ele>
        <time>2019-07-15T11:50:17Z</time>
      </trkpt>
      <trkpt lat="47.79268" lon="-3.52864">
        <ele>5</ele>
        <time>2019-07-15T11:50:18Z</time>
      </trkpt>
      <trkpt lat="47.79263" lon="-3.52866">
        <ele>5</ele>
        <time>2019-07-15T11:50:19Z</time>
      </trkpt>
      <trkpt lat="47.79259" lon="-3.52869">
        <ele>5</ele>
        <time>2019-07-15T11:50:20Z</time>
      </trkpt>
      <trkpt lat="47.79256" lon="-3.52872">
        <ele>5</ele>
        <time>2019-07-15T11:50:21Z</time>
      </trkpt>
      <trkpt lat="47.79252" lon="-3.52875">
        <ele>6</ele>
        <time>2019-07-15T11:50:22Z</time>
      </trkpt>
      <trkpt lat="47.79248" lon="-3.52879">
        <ele>6</ele>
        <time>2019-07-15T11:50:23Z</time>
      </trkpt>
      <trkpt lat="47.79244" lon="-3.52883">
        <ele>6</ele>
        <time>2019-07-15T11:50:24Z</time>
      </trkpt>
      <trkpt lat="47.7924" lon="-3.52888">
        <ele>7</ele>
        <time>2019-07-15T11:50:25Z</time>
      </trkpt>
      <trkpt lat="47.79237" lon="-3.52893">
        <ele>7</ele>
        <time>2019-07-15T11:50:26Z</time>
      </trkpt>
      <trkpt lat="47.79233" lon="-3.52897">
        <ele>7</ele>
        <time>2019-07-15T11:50:27Z</time>
      </trkpt>
      <trkpt lat="47.79229" lon="-3.52902">
        <ele>8</ele>
        <time>2019-07-15T11:50:28Z</time>
      </trkpt>
      <trkpt lat="47.79225" lon="-3.52906">
        <ele>8</ele>
        <time>2019-07-15T11:50:29Z</time>
      </trkpt>
      <trkpt lat="47.79221" lon="-3.52912">
        <ele>8</ele>
        <time>2019-07-15T11:50:30Z</time>
      </trkpt>
      <trkpt lat="47.79217" lon="-3.52916">
        <ele>7</ele>
        <time>2019-07-15T11:50:31Z</time>
      </trkpt>
      <trkpt lat="47.79214" lon="-3.52921">
        <ele>7</ele>
        <time>2019-07-15T11:50:32Z</time>
      </trkpt>
      <trkpt lat="47.79211" lon="-3.52927">
        <ele>7</ele>
        <time>2019-07-15T11:50:33Z</time>
      </trkpt>
      <trkpt lat="47.79209" lon="-3.52933">
        <ele>7</ele>
        <time>2019-07-15T11:50:34Z</time>
      </trkpt>
      <trkpt lat="47.79206" lon="-3.52939">
        <ele>7</ele>
        <time>2019-07-15T11:50:35Z</time>
      </trkpt>
      <trkpt lat="47.79204" lon="-3.52945">
        <ele>6</ele>
        <time>2019-07-15T11:50:36Z</time>
      </trkpt>
      <trkpt lat="47.79202" lon="-3.5295">
        <ele>6</ele>
        <time>2019-07-15T11:50:37Z</time>
      </trkpt>
      <trkpt lat="47.79201" lon="-3.52956">
        <ele>6</ele>
        <time>2019-07-15T11:50:38Z</time>
      </trkpt>
      <trkpt lat="47.792" lon="-3.52961">
        <ele>6</ele>
        <time>2019-07-15T11:50:39Z</time>
      </trkpt>
      <trkpt lat="47.79199" lon="-3.52966">
        <ele>6</ele>
        <time>2019-07-15T11:50:40Z</time>
      </trkpt>
      <trkpt lat="47.79199" lon="-3.52971">
        <ele>5</ele>
        <time>2019-07-15T11:50:41Z</time>
      </trkpt>
      <trkpt lat="47.79198" lon="-3.52977">
        <ele>5</ele>
        <time>2019-07-15T11:50:42Z</time>
      </trkpt>
      <trkpt lat="47.79197" lon="-3.52983">
        <ele>5</ele>
        <time>2019-07-15T11:50:43Z</time>
      </trkpt>
      <trkpt lat="47.79196" lon="-3.5299">
        <ele>5</ele>
        <time>2019-07-15T11:50:44Z</time>
      </trkpt>
      <trkpt lat="47.79194" lon="-3.52998">
        <ele>4</ele>
        <time>2019-07-15T11:50:45Z</time>
      </trkpt>
      <trkpt lat="47.79191" lon="-3.53004">
        <ele>4</ele>
        <time>2019-07-15T11:50:46Z</time>
      </trkpt>
      <trkpt lat="47.79189" lon="-3.5301">
        <ele>4</ele>
        <time>2019-07-15T11:50:47Z</time>
      </trkpt>
      <trkpt lat="47.79187" lon="-3.53013">
        <ele>4</ele>
        <time>2019-07-15T11:50:48Z</time>
      </trkpt>
      <trkpt lat="47.79185" lon="-3.53016">
        <ele>3</ele>
        <time>2019-07-15T11:50:49Z</time>
      </trkpt>
      <trkpt lat="47.79183" lon="-3.53018">
        <ele>3</ele>
        <time>2019-07-15T11:50:50Z</time>
      </trkpt>
      <trkpt lat="47.7918" lon="-3.53019">
        <ele>3</ele>
        <time>2019-07-15T11:50:51Z</time>
      </trkpt>
      <trkpt lat="47.79177" lon="-3.5302">
        <ele>3</ele>
        <time>2019-07-15T11:50:52Z</time>
      </trkpt>
      <trkpt lat="47.79174" lon="-3.53021">
        <ele>3</ele>
        <time>2019-07-15T11:50:53Z</time>
      </trkpt>
      <trkpt lat="47.7917" lon="-3.53023">
        <ele>3</ele>
        <time>2019-07-15T11:50:54Z</time>
      </trkpt>
      <trkpt lat="47.79166" lon="-3.53025">
        <ele>3</ele>
        <time>2019-07-15T11:50:55Z</time>
      </trkpt>
      <trkpt lat="47.79161" lon="-3.53027">
        <ele>3</ele>
        <time>2019-07-15T11:50:56Z</time>
      </trkpt>
      <trkpt lat="47.79157" lon="-3.5303">
        <ele>3</ele>
        <time>2019-07-15T11:50:57Z</time>
      </trkpt>
      <trkpt lat="47.79153" lon="-3.53034">
        <ele>2</ele>
        <time>2019-07-15T11:50:58Z</time>
      </trkpt>
      <trkpt lat="47.79149" lon="-3.53038">
        <ele>2</ele>
        <time>2019-07-15T11:50:59Z</time>
      </trkpt>
      <trkpt lat="47.79145" lon="-3.53043">
        <ele>2</ele>
        <time>2019-07-15T11:51:00Z</time>
      </trkpt>
      <trkpt lat="47.79142" lon="-3.53047">
        <ele>2</ele>
        <time>2019-07-15T11:51:01Z</time>
      </trkpt>
      <trkpt lat="47.7914" lon="-3.53052">
        <ele>2</ele>
        <time>2019-07-15T11:51:02Z</time>
      </trkpt>
      <trkpt lat="47.79138" lon="-3.53058">
        <ele>2</ele>
        <time>2019-07-15T11:51:03Z</time>
      </trkpt>
      <trkpt lat="47.79137" lon="-3.53063">
        <ele>2</ele>
        <time>2019-07-15T11:51:04Z</time>
      </trkpt>
      <trkpt lat="47.79137" lon="-3.53067">
        <ele>2</ele>
        <time>2019-07-15T11:51:05Z</time>
      </trkpt>
      <trkpt lat="47.79138" lon="-3.53073">
        <ele>2</ele>
        <time>2019-07-15T11:51:06Z</time>
      </trkpt>
      <trkpt lat="47.79138" lon="-3.53078">
        <ele>2</ele>
        <time>2019-07-15T11:51:07Z</time>
      </trkpt>
      <trkpt lat="47.79139" lon="-3.53083">
        <ele>2</ele>
        <time>2019-07-15T11:51:08Z</time>
      </trkpt>
      <trkpt lat="47.7914" lon="-3.53089">
        <ele>2</ele>
        <time>2019-07-15T11:51:09Z</time>
      </trkpt>
      <trkpt lat="47.79141" lon="-3.53095">
        <ele>3</ele>
        <time>2019-07-15T11:51:10Z</time>
      </trkpt>
      <trkpt lat="47.79142" lon="-3.531">
        <ele>3</ele>
        <time>2019-07-15T11:51:11Z</time>
      </trkpt>
      <trkpt lat="47.79143" lon="-3.53105">
        <ele>3</ele>
        <time>2019-07-15T11:51:12Z</time>
      </trkpt>
      <trkpt lat="47.79145" lon="-3.5311">
        <ele>3</ele>
        <time>2019-07-15T11:51:13Z</time>
      </trkpt>
      <trkpt lat="47.79146" lon="-3.53114">
        <ele>3</ele>
        <time>2019-07-15T11:51:14Z</time>
      </trkpt>
      <trkpt lat="47.79147" lon="-3.53118">
        <ele>3</ele>
        <time>2019-07-15T11:51:15Z</time>
      </trkpt>
      <trkpt lat="47.79148" lon="-3.53121">
        <ele>3</ele>
        <time>2019-07-15T11:51:16Z</time>
      </trkpt>
      <trkpt lat="47.79148" lon="-3.53124">
        <ele>3</ele>
        <time>2019-07-15T11:51:17Z</time>
      </trkpt>
      <trkpt lat="47.79147" lon="-3.53127">
        <ele>3</ele>
        <time>2019-07-15T11:51:18Z</time>
      </trkpt>
      <trkpt lat="47.79145" lon="-3.5313">
        <ele>3</ele>
        <time>2019-07-15T11:51:19Z</time>
      </trkpt>
      <trkpt lat="47.79142" lon="-3.53133">
        <ele>3</ele>
        <time>2019-07-15T11:51:20Z</time>
      </trkpt>
      <trkpt lat="47.79142" lon="-3.53134">
        <ele>3</ele>
        <time>2019-07-15T11:51:21Z</time>
      </trkpt>
      <trkpt lat="47.79142" lon="-3.53134">
        <ele>3</ele>
        <time>2019-07-15T11:51:22Z</time>
      </trkpt>
      <trkpt lat="47.79138" lon="-3.53141">
        <ele>3</ele>
        <time>2019-07-15T11:51:23Z</time>
      </trkpt>
      <trkpt lat="47.79136" lon="-3.53144">
        <ele>3</ele>
        <time>2019-07-15T11:51:24Z</time>
      </trkpt>
      <trkpt lat="47.79133" lon="-3.53146">
        <ele>3</ele>
        <time>2019-07-15T11:51:25Z</time>
      </trkpt>
      <trkpt lat="47.7913" lon="-3.53148">
        <ele>3</ele>
        <time>2019-07-15T11:51:26Z</time>
      </trkpt>
      <trkpt lat="47.79127" lon="-3.5315">
        <ele>3</ele>
        <time>2019-07-15T11:51:27Z</time>
      </trkpt>
      <trkpt lat="47.79124" lon="-3.53152">
        <ele>3</ele>
        <time>2019-07-15T11:51:28Z</time>
      </trkpt>
      <trkpt lat="47.79121" lon="-3.53153">
        <ele>2</ele>
        <time>2019-07-15T11:51:29Z</time>
      </trkpt>
      <trkpt lat="47.79118" lon="-3.53155">
        <ele>2</ele>
        <time>2019-07-15T11:51:30Z</time>
      </trkpt>
      <trkpt lat="47.79116" lon="-3.53157">
        <ele>2</ele>
        <time>2019-07-15T11:51:31Z</time>
      </trkpt>
      <trkpt lat="47.79113" lon="-3.53159">
        <ele>2</ele>
        <time>2019-07-15T11:51:32Z</time>
      </trkpt>
      <trkpt lat="47.79111" lon="-3.53161">
        <ele>2</ele>
        <time>2019-07-15T11:51:33Z</time>
      </trkpt>
      <trkpt lat="47.79109" lon="-3.53163">
        <ele>1</ele>
        <time>2019-07-15T11:51:34Z</time>
      </trkpt>
      <trkpt lat="47.79106" lon="-3.53165">
        <ele>1</ele>
        <time>2019-07-15T11:51:35Z</time>
      </trkpt>
      <trkpt lat="47.79103" lon="-3.53167">
        <ele>1</ele>
        <time>2019-07-15T11:51:36Z</time>
      </trkpt>
      <trkpt lat="47.791" lon="-3.53169">
        <ele>1</ele>
        <time>2019-07-15T11:51:37Z</time>
      </trkpt>
      <trkpt lat="47.79096" lon="-3.53171">
        <ele>1</ele>
        <time>2019-07-15T11:51:38Z</time>
      </trkpt>
      <trkpt lat="47.79094" lon="-3.53173">
        <ele>2</ele>
        <time>2019-07-15T11:51:39Z</time>
      </trkpt>
      <trkpt lat="47.79091" lon="-3.53175">
        <ele>1.9</ele>
        <time>2019-07-15T11:51:40Z</time>
      </trkpt>
      <trkpt lat="47.79088" lon="-3.53177">
        <ele>1.7</ele>
        <time>2019-07-15T11:51:41Z</time>
      </trkpt>
      <trkpt lat="47.79085" lon="-3.53179">
        <ele>1.6</ele>
        <time>2019-07-15T11:51:42Z</time>
      </trkpt>
      <trkpt lat="47.79083" lon="-3.53181">
        <ele>1.5</ele>
        <time>2019-07-15T11:51:43Z</time>
      </trkpt>
      <trkpt lat="47.7908" lon="-3.53182">
        <ele>1.5</ele>
        <time>2019-07-15T11:51:44Z</time>
      </trkpt>
      <trkpt lat="47.79077" lon="-3.53184">
        <ele>1.6</ele>
        <time>2019-07-15T11:51:45Z</time>
      </trkpt>
      <trkpt lat="47.79074" lon="-3.53185">
        <ele>1.7</ele>
        <time>2019-07-15T11:51:46Z</time>
      </trkpt>
      <trkpt lat="47.7907" lon="-3.53187">
        <ele>1.8</ele>
        <time>2019-07-15T11:51:47Z</time>
      </trkpt>
      <trkpt lat="47.79067" lon="-3.5319">
        <ele>2</ele>
        <time>2019-07-15T11:51:48Z</time>
      </trkpt>
      <trkpt lat="47.79063" lon="-3.53191">
        <ele>2.3</ele>
        <time>2019-07-15T11:51:49Z</time>
      </trkpt>
      <trkpt lat="47.7906" lon="-3.53194">
        <ele>2.7</ele>
        <time>2019-07-15T11:51:50Z</time>
      </trkpt>
      <trkpt lat="47.79056" lon="-3.53196">
        <ele>2.9</ele>
        <time>2019-07-15T11:51:51Z</time>
      </trkpt>
      <trkpt lat="47.79052" lon="-3.53198">
        <ele>3.4</ele>
        <time>2019-07-15T11:51:52Z</time>
      </trkpt>
      <trkpt lat="47.79049" lon="-3.53199">
        <ele>3.9</ele>
        <time>2019-07-15T11:51:53Z</time>
      </trkpt>
      <trkpt lat="47.79046" lon="-3.53199">
        <ele>4.4</ele>
        <time>2019-07-15T11:51:54Z</time>
      </trkpt>
      <trkpt lat="47.79043" lon="-3.53198">
        <ele>4.9</ele>
        <time>2019-07-15T11:51:55Z</time>
      </trkpt>
      <trkpt lat="47.7904" lon="-3.53197">
        <ele>5.3</ele>
        <time>2019-07-15T11:51:56Z</time>
      </trkpt>
      <trkpt lat="47.79038" lon="-3.53196">
        <ele>5.6</ele>
        <time>2019-07-15T11:51:57Z</time>
      </trkpt>
      <trkpt lat="47.79035" lon="-3.53195">
        <ele>5.9</ele>
        <time>2019-07-15T11:51:58Z</time>
      </trkpt>
      <trkpt lat="47.79033" lon="-3.53193">
        <ele>6</ele>
        <time>2019-07-15T11:51:59Z</time>
      </trkpt>
      <trkpt lat="47.7903" lon="-3.5319">
        <ele>5.7</ele>
        <time>2019-07-15T11:52:00Z</time>
      </trkpt>
      <trkpt lat="47.79028" lon="-3.53187">
        <ele>5.4</ele>
        <time>2019-07-15T11:52:01Z</time>
      </trkpt>
      <trkpt lat="47.79026" lon="-3.53185">
        <ele>5.3</ele>
        <time>2019-07-15T11:52:02Z</time>
      </trkpt>
      <trkpt lat="47.79023" lon="-3.53183">
        <ele>5.3</ele>
        <time>2019-07-15T11:52:03Z</time>
      </trkpt>
      <trkpt lat="47.7902" lon="-3.53181">
        <ele>1</ele>
        <time>2019-07-15T11:52:04Z</time>
      </trkpt>
      <trkpt lat="47.79017" lon="-3.53179">
        <ele>1</ele>
        <time>2019-07-15T11:52:05Z</time>
      </trkpt>
      <trkpt lat="47.79015" lon="-3.53177">
        <ele>1</ele>
        <time>2019-07-15T11:52:06Z</time>
      </trkpt>
      <trkpt lat="47.79012" lon="-3.53175">
        <ele>1</ele>
        <time>2019-07-15T11:52:07Z</time>
      </trkpt>
      <trkpt lat="47.7901" lon="-3.53174">
        <ele>1</ele>
        <time>2019-07-15T11:52:08Z</time>
      </trkpt>
      <trkpt lat="47.79006" lon="-3.53173">
        <ele>1</ele>
        <time>2019-07-15T11:52:09Z</time>
      </trkpt>
      <trkpt lat="47.79003" lon="-3.53172">
        <ele>2</ele>
        <time>2019-07-15T11:52:10Z</time>
      </trkpt>
      <trkpt lat="47.79" lon="-3.5317">
        <ele>2</ele>
        <time>2019-07-15T11:52:11Z</time>
      </trkpt>
      <trkpt lat="47.78997" lon="-3.53169">
        <ele>2</ele>
        <time>2019-07-15T11:52:12Z</time>
      </trkpt>
      <trkpt lat="47.78994" lon="-3.53167">
        <ele>2</ele>
        <time>2019-07-15T11:52:13Z</time>
      </trkpt>
      <trkpt lat="47.78991" lon="-3.53165">
        <ele>2</ele>
        <time>2019-07-15T11:52:14Z</time>
      </trkpt>
      <trkpt lat="47.78988" lon="-3.53163">
        <ele>3</ele>
        <time>2019-07-15T11:52:15Z</time>
      </trkpt>
      <trkpt lat="47.78986" lon="-3.53161">
        <ele>3</ele>
        <time>2019-07-15T11:52:16Z</time>
      </trkpt>
      <trkpt lat="47.78984" lon="-3.5316">
        <ele>3</ele>
        <time>2019-07-15T11:52:17Z</time>
      </trkpt>
      <trkpt lat="47.78982" lon="-3.53157">
        <ele>3</ele>
        <time>2019-07-15T11:52:18Z</time>
      </trkpt>
      <trkpt lat="47.7898" lon="-3.53154">
        <ele>4</ele>
        <time>2019-07-15T11:52:19Z</time>
      </trkpt>
      <trkpt lat="47.78977" lon="-3.53151">
        <ele>4</ele>
        <time>2019-07-15T11:52:20Z</time>
      </trkpt>
      <trkpt lat="47.78974" lon="-3.53147">
        <ele>5</ele>
        <time>2019-07-15T11:52:21Z</time>
      </trkpt>
      <trkpt lat="47.7897" lon="-3.53144">
        <ele>5</ele>
        <time>2019-07-15T11:52:22Z</time>
      </trkpt>
      <trkpt lat="47.78967" lon="-3.53141">
        <ele>5</ele>
        <time>2019-07-15T11:52:23Z</time>
      </trkpt>
      <trkpt lat="47.78964" lon="-3.53138">
        <ele>5</ele>
        <time>2019-07-15T11:52:24Z</time>
      </trkpt>
      <trkpt lat="47.78961" lon="-3.53138">
        <ele>6</ele>
        <time>2019-07-15T11:52:25Z</time>
      </trkpt>
      <trkpt lat="47.78959" lon="-3.53137">
        <ele>6</ele>
        <time>2019-07-15T11:52:26Z</time>
      </trkpt>
      <trkpt lat="47.78957" lon="-3.53137">
        <ele>6</ele>
        <time>2019-07-15T11:52:27Z</time>
      </trkpt>
      <trkpt lat="47.78954" lon="-3.53137">
        <ele>6</ele>
        <time>2019-07-15T11:52:28Z</time>
      </trkpt>
      <trkpt lat="47.78952" lon="-3.53138">
        <ele>6</ele>
        <time>2019-07-15T11:52:29Z</time>
      </trkpt>
      <trkpt lat="47.78948" lon="-3.53138">
        <ele>6</ele>
        <time>2019-07-15T11:52:30Z</time>
      </trkpt>
      <trkpt lat="47.78945" lon="-3.53136">
        <ele>6</ele>
        <time>2019-07-15T11:52:31Z</time>
      </trkpt>
      <trkpt lat="47.78942" lon="-3.53135">
        <ele>6</ele>
        <time>2019-07-15T11:52:32Z</time>
      </trkpt>
      <trkpt lat="47.78938" lon="-3.53132">
        <ele>7</ele>
        <time>2019-07-15T11:52:33Z</time>
      </trkpt>
      <trkpt lat="47.78935" lon="-3.5313">
        <ele>7</ele>
        <time>2019-07-15T11:52:34Z</time>
      </trkpt>
      <trkpt lat="47.78933" lon="-3.53129">
        <ele>7</ele>
        <time>2019-07-15T11:52:35Z</time>
      </trkpt>
      <trkpt lat="47.78931" lon="-3.53128">
        <ele>7</ele>
        <time>2019-07-15T11:52:36Z</time>
      </trkpt>
      <trkpt lat="47.78928" lon="-3.53128">
        <ele>7</ele>
        <time>2019-07-15T11:52:37Z</time>
      </trkpt>
      <trkpt lat="47.78927" lon="-3.53126">
        <ele>7</ele>
        <time>2019-07-15T11:52:38Z</time>
      </trkpt>
      <trkpt lat="47.78925" lon="-3.53125">
        <ele>8</ele>
        <time>2019-07-15T11:52:39Z</time>
      </trkpt>
      <trkpt lat="47.78922" lon="-3.53124">
        <ele>8</ele>
        <time>2019-07-15T11:52:40Z</time>
      </trkpt>
      <trkpt lat="47.78919" lon="-3.53122">
        <ele>8</ele>
        <time>2019-07-15T11:52:41Z</time>
      </trkpt>
      <trkpt lat="47.78916" lon="-3.5312">
        <ele>8</ele>
        <time>2019-07-15T11:52:42Z</time>
      </trkpt>
      <trkpt lat="47.78914" lon="-3.53119">
        <ele>8</ele>
        <time>2019-07-15T11:52:43Z</time>
      </trkpt>
      <trkpt lat="47.78912" lon="-3.53119">
        <ele>8</ele>
        <time>2019-07-15T11:52:44Z</time>
      </trkpt>
      <trkpt lat="47.7891" lon="-3.53119">
        <ele>8</ele>
        <time>2019-07-15T11:52:45Z</time>
      </trkpt>
      <trkpt lat="47.78908" lon="-3.53118">
        <ele>9</ele>
        <time>2019-07-15T11:52:46Z</time>
      </trkpt>
      <trkpt lat="47.78906" lon="-3.53117">
        <ele>9</ele>
        <time>2019-07-15T11:52:47Z</time>
      </trkpt>
      <trkpt lat="47.78904" lon="-3.53116">
        <ele>9</ele>
        <time>2019-07-15T11:52:48Z</time>
      </trkpt>
      <trkpt lat="47.78902" lon="-3.53114">
        <ele>9</ele>
        <time>2019-07-15T11:52:49Z</time>
      </trkpt>
      <trkpt lat="47.789" lon="-3.53113">
        <ele>9</ele>
        <time>2019-07-15T11:52:50Z</time>
      </trkpt>
      <trkpt lat="47.78899" lon="-3.53112">
        <ele>9</ele>
        <time>2019-07-15T11:52:51Z</time>
      </trkpt>
      <trkpt lat="47.78897" lon="-3.53111">
        <ele>10</ele>
        <time>2019-07-15T11:52:52Z</time>
      </trkpt>
      <trkpt lat="47.78895" lon="-3.5311">
        <ele>10</ele>
        <time>2019-07-15T11:52:53Z</time>
      </trkpt>
      <trkpt lat="47.78894" lon="-3.53109">
        <ele>10</ele>
        <time>2019-07-15T11:52:54Z</time>
      </trkpt>
      <trkpt lat="47.78892" lon="-3.53108">
        <ele>10</ele>
        <time>2019-07-15T11:52:55Z</time>
      </trkpt>
      <trkpt lat="47.7889" lon="-3.53107">
        <ele>11</ele>
        <time>2019-07-15T11:52:56Z</time>
      </trkpt>
      <trkpt lat="47.78889" lon="-3.53106">
        <ele>11</ele>
        <time>2019-07-15T11:52:57Z</time>
      </trkpt>
      <trkpt lat="47.78888" lon="-3.53105">
        <ele>11</ele>
        <time>2019-07-15T11:52:58Z</time>
      </trkpt>
      <trkpt lat="47.78887" lon="-3.53105">
        <ele>11</ele>
        <time>2019-07-15T11:52:59Z</time>
      </trkpt>
      <trkpt lat="47.78885" lon="-3.53103">
        <ele>11</ele>
        <time>2019-07-15T11:53:00Z</time>
      </trkpt>
      <trkpt lat="47.78884" lon="-3.53102">
        <ele>12</ele>
        <time>2019-07-15T11:53:01Z</time>
      </trkpt>
      <trkpt lat="47.78883" lon="-3.53101">
        <ele>12</ele>
        <time>2019-07-15T11:53:02Z</time>
      </trkpt>
      <trkpt lat="47.78881" lon="-3.531">
        <ele>12</ele>
        <time>2019-07-15T11:53:03Z</time>
      </trkpt>
      <trkpt lat="47.7888" lon="-3.53098">
        <ele>12</ele>
        <time>2019-07-15T11:53:04Z</time>
      </trkpt>
      <trkpt lat="47.78878" lon="-3.53096">
        <ele>13</ele>
        <time>2019-07-15T11:53:05Z</time>
      </trkpt>
      <trkpt lat="47.78877" lon="-3.53094">
        <ele>13</ele>
        <time>2019-07-15T11:53:06Z</time>
      </trkpt>
      <trkpt lat="47.78875" lon="-3.53092">
        <ele>13</ele>
        <time>2019-07-15T11:53:07Z</time>
      </trkpt>
      <trkpt lat="47.78873" lon="-3.53089">
        <ele>14</ele>
        <time>2019-07-15T11:53:08Z</time>
      </trkpt>
      <trkpt lat="47.78871" lon="-3.53086">
        <ele>14</ele>
        <time>2019-07-15T11:53:09Z</time>
      </trkpt>
      <trkpt lat="47.78869" lon="-3.53083">
        <ele>14</ele>
        <time>2019-07-15T11:53:10Z</time>
      </trkpt>
      <trkpt lat="47.78868" lon="-3.5308">
        <ele>15</ele>
        <time>2019-07-15T11:53:11Z</time>
      </trkpt>
      <trkpt lat="47.78866" lon="-3.53076">
        <ele>15</ele>
        <time>2019-07-15T11:53:12Z</time>
      </trkpt>
      <trkpt lat="47.78863" lon="-3.53071">
        <ele>16</ele>
        <time>2019-07-15T11:53:13Z</time>
      </trkpt>
      <trkpt lat="47.78861" lon="-3.53065">
        <ele>16</ele>
        <time>2019-07-15T11:53:14Z</time>
      </trkpt>
      <trkpt lat="47.78858" lon="-3.53058">
        <ele>16</ele>
        <time>2019-07-15T11:53:15Z</time>
      </trkpt>
      <trkpt lat="47.78856" lon="-3.53049">
        <ele>17</ele>
        <time>2019-07-15T11:53:16Z</time>
      </trkpt>
      <trkpt lat="47.78853" lon="-3.5304">
        <ele>17</ele>
        <time>2019-07-15T11:53:17Z</time>
      </trkpt>
      <trkpt lat="47.78851" lon="-3.53033">
        <ele>17</ele>
        <time>2019-07-15T11:53:18Z</time>
      </trkpt>
      <trkpt lat="47.78849" lon="-3.53026">
        <ele>17</ele>
        <time>2019-07-15T11:53:19Z</time>
      </trkpt>
      <trkpt lat="47.78847" lon="-3.53017">
        <ele>17</ele>
        <time>2019-07-15T11:53:20Z</time>
      </trkpt>
      <trkpt lat="47.78844" lon="-3.5301">
        <ele>17</ele>
        <time>2019-07-15T11:53:21Z</time>
      </trkpt>
      <trkpt lat="47.78841" lon="-3.53005">
        <ele>17</ele>
        <time>2019-07-15T11:53:22Z</time>
      </trkpt>
      <trkpt lat="47.78839" lon="-3.53">
        <ele>17</ele>
        <time>2019-07-15T11:53:23Z</time>
      </trkpt>
      <trkpt lat="47.78836" lon="-3.52996">
        <ele>17</ele>
        <time>2019-07-15T11:53:24Z</time>
      </trkpt>
      <trkpt lat="47.78833" lon="-3.52991">
        <ele>17</ele>
        <time>2019-07-15T11:53:25Z</time>
      </trkpt>
      <trkpt lat="47.78831" lon="-3.52987">
        <ele>16</ele>
        <time>2019-07-15T11:53:26Z</time>
      </trkpt>
      <trkpt lat="47.78829" lon="-3.52983">
        <ele>16</ele>
        <time>2019-07-15T11:53:27Z</time>
      </trkpt>
      <trkpt lat="47.78825" lon="-3.52979">
        <ele>16</ele>
        <time>2019-07-15T11:53:28Z</time>
      </trkpt>
      <trkpt lat="47.7882" lon="-3.52977">
        <ele>15</ele>
        <time>2019-07-15T11:53:29Z</time>
      </trkpt>
      <trkpt lat="47.78815" lon="-3.52975">
        <ele>15</ele>
        <time>2019-07-15T11:53:30Z</time>
      </trkpt>
      <trkpt lat="47.7881" lon="-3.52972">
        <ele>15</ele>
        <time>2019-07-15T11:53:31Z</time>
      </trkpt>
      <trkpt lat="47.78805" lon="-3.52969">
        <ele>14</ele>
        <time>2019-07-15T11:53:32Z</time>
      </trkpt>
      <trkpt lat="47.78801" lon="-3.52967">
        <ele>14</ele>
        <time>2019-07-15T11:53:33Z</time>
      </trkpt>
      <trkpt lat="47.78797" lon="-3.52966">
        <ele>14</ele>
        <time>2019-07-15T11:53:34Z</time>
      </trkpt>
      <trkpt lat="47.78794" lon="-3.52965">
        <ele>14</ele>
        <time>2019-07-15T11:53:35Z</time>
      </trkpt>
      <trkpt lat="47.78792" lon="-3.52964">
        <ele>13</ele>
        <time>2019-07-15T11:53:36Z</time>
      </trkpt>
      <trkpt lat="47.78789" lon="-3.52963">
        <ele>13</ele>
        <time>2019-07-15T11:53:37Z</time>
      </trkpt>
      <trkpt lat="47.78786" lon="-3.52962">
        <ele>13</ele>
        <time>2019-07-15T11:53:38Z</time>
      </trkpt>
      <trkpt lat="47.78784" lon="-3.52961">
        <ele>13</ele>
        <time>2019-07-15T11:53:39Z</time>
      </trkpt>
      <trkpt lat="47.78781" lon="-3.5296">
        <ele>13</ele>
        <time>2019-07-15T11:53:40Z</time>
      </trkpt>
      <trkpt lat="47.7878" lon="-3.5296">
        <ele>12</ele>
        <time>2019-07-15T11:53:41Z</time>
      </trkpt>
      <trkpt lat="47.78778" lon="-3.52959">
        <ele>12</ele>
        <time>2019-07-15T11:53:42Z</time>
      </trkpt>
      <trkpt lat="47.78777" lon="-3.52958">
        <ele>12</ele>
        <time>2019-07-15T11:53:43Z</time>
      </trkpt>
      <trkpt lat="47.78776" lon="-3.52956">
        <ele>12</ele>
        <time>2019-07-15T11:53:44Z</time>
      </trkpt>
      <trkpt lat="47.78774" lon="-3.52955">
        <ele>11</ele>
        <time>2019-07-15T11:53:45Z</time>
      </trkpt>
      <trkpt lat="47.78773" lon="-3.52954">
        <ele>11</ele>
        <time>2019-07-15T11:53:46Z</time>
      </trkpt>
      <trkpt lat="47.78771" lon="-3.52952">
        <ele>11</ele>
        <time>2019-07-15T11:53:47Z</time>
      </trkpt>
      <trkpt lat="47.78769" lon="-3.52951">
        <ele>11</ele>
        <time>2019-07-15T11:53:48Z</time>
      </trkpt>
      <trkpt lat="47.78767" lon="-3.52949">
        <ele>11</ele>
        <time>2019-07-15T11:53:49Z</time>
      </trkpt>
      <trkpt lat="47.78765" lon="-3.52948">
        <ele>11</ele>
        <time>2019-07-15T11:53:50Z</time>
      </trkpt>
      <trkpt lat="47.78764" lon="-3.52946">
        <ele>11</ele>
        <time>2019-07-15T11:53:51Z</time>
      </trkpt>
      <trkpt lat="47.78763" lon="-3.52944">
        <ele>11</ele>
        <time>2019-07-15T11:53:52Z</time>
      </trkpt>
      <trkpt lat="47.78761" lon="-3.52942">
        <ele>11</ele>
        <time>2019-07-15T11:53:53Z</time>
      </trkpt>
      <trkpt lat="47.7876" lon="-3.52939">
        <ele>10</ele>
        <time>2019-07-15T11:53:54Z</time>
      </trkpt>
      <trkpt lat="47.78758" lon="-3.52937">
        <ele>10</ele>
        <time>2019-07-15T11:53:55Z</time>
      </trkpt>
      <trkpt lat="47.78757" lon="-3.52934">
        <ele>10</ele>
        <time>2019-07-15T11:53:56Z</time>
      </trkpt>
      <trkpt lat="47.78755" lon="-3.52931">
        <ele>10</ele>
        <time>2019-07-15T11:53:57Z</time>
      </trkpt>
      <trkpt lat="47.78754" lon="-3.52928">
        <ele>10</ele>
        <time>2019-07-15T11:53:58Z</time>
      </trkpt>
      <trkpt lat="47.78752" lon="-3.52924">
        <ele>10</ele>
        <time>2019-07-15T11:53:59Z</time>
      </trkpt>
      <trkpt lat="47.78751" lon="-3.5292">
        <ele>11</ele>
        <time>2019-07-15T11:54:00Z</time>
      </trkpt>
      <trkpt lat="47.78749" lon="-3.52916">
        <ele>11</ele>
        <time>2019-07-15T11:54:01Z</time>
      </trkpt>
      <trkpt lat="47.78747" lon="-3.52913">
        <ele>11</ele>
        <time>2019-07-15T11:54:02Z</time>
      </trkpt>
      <trkpt lat="47.78746" lon="-3.52909">
        <ele>11</ele>
        <time>2019-07-15T11:54:03Z</time>
      </trkpt>
      <trkpt lat="47.78744" lon="-3.52906">
        <ele>11</ele>
        <time>2019-07-15T11:54:04Z</time>
      </trkpt>
      <trkpt lat="47.78743" lon="-3.52903">
        <ele>11</ele>
        <time>2019-07-15T11:54:05Z</time>
      </trkpt>
      <trkpt lat="47.78741" lon="-3.529">
        <ele>12</ele>
        <time>2019-07-15T11:54:06Z</time>
      </trkpt>
      <trkpt lat="47.78739" lon="-3.52897">
        <ele>12</ele>
        <time>2019-07-15T11:54:07Z</time>
      </trkpt>
      <trkpt lat="47.78737" lon="-3.52893">
        <ele>12</ele>
        <time>2019-07-15T11:54:08Z</time>
      </trkpt>
      <trkpt lat="47.78736" lon="-3.52889">
        <ele>12</ele>
        <time>2019-07-15T11:54:09Z</time>
      </trkpt>
      <trkpt lat="47.78734" lon="-3.52884">
        <ele>12</ele>
        <time>2019-07-15T11:54:10Z</time>
      </trkpt>
      <trkpt lat="47.78732" lon="-3.52879">
        <ele>12</ele>
        <time>2019-07-15T11:54:11Z</time>
      </trkpt>
      <trkpt lat="47.7873" lon="-3.52875">
        <ele>12</ele>
        <time>2019-07-15T11:54:12Z</time>
      </trkpt>
      <trkpt lat="47.78728" lon="-3.52871">
        <ele>12</ele>
        <time>2019-07-15T11:54:13Z</time>
      </trkpt>
      <trkpt lat="47.78726" lon="-3.52866">
        <ele>12</ele>
        <time>2019-07-15T11:54:14Z</time>
      </trkpt>
      <trkpt lat="47.78724" lon="-3.52864">
        <ele>12</ele>
        <time>2019-07-15T11:54:15Z</time>
      </trkpt>
      <trkpt lat="47.78723" lon="-3.52862">
        <ele>12</ele>
        <time>2019-07-15T11:54:16Z</time>
      </trkpt>
      <trkpt lat="47.78721" lon="-3.5286">
        <ele>12</ele>
        <time>2019-07-15T11:54:17Z</time>
      </trkpt>
      <trkpt lat="47.7872" lon="-3.52859">
        <ele>12</ele>
        <time>2019-07-15T11:54:18Z</time>
      </trkpt>
      <trkpt lat="47.78718" lon="-3.52857">
        <ele>12</ele>
        <time>2019-07-15T11:54:19Z</time>
      </trkpt>
      <trkpt lat="47.78716" lon="-3.52856">
        <ele>12</ele>
        <time>2019-07-15T11:54:20Z</time>
      </trkpt>
      <trkpt lat="47.78715" lon="-3.52854">
        <ele>12</ele>
        <time>2019-07-15T11:54:21Z</time>
      </trkpt>
      <trkpt lat="47.78713" lon="-3.52852">
        <ele>13</ele>
        <time>2019-07-15T11:54:22Z</time>
      </trkpt>
      <trkpt lat="47.78712" lon="-3.5285">
        <ele>13</ele>
        <time>2019-07-15T11:54:23Z</time>
      </trkpt>
      <trkpt lat="47.78709" lon="-3.52847">
        <ele>13</ele>
        <time>2019-07-15T11:54:24Z</time>
      </trkpt>
      <trkpt lat="47.78707" lon="-3.52845">
        <ele>13</ele>
        <time>2019-07-15T11:54:25Z</time>
      </trkpt>
      <trkpt lat="47.78706" lon="-3.52843">
        <ele>13</ele>
        <time>2019-07-15T11:54:26Z</time>
      </trkpt>
      <trkpt lat="47.78704" lon="-3.5284">
        <ele>13</ele>
        <time>2019-07-15T11:54:27Z</time>
      </trkpt>
      <trkpt lat="47.78702" lon="-3.52838">
        <ele>13</ele>
        <time>2019-07-15T11:54:28Z</time>
      </trkpt>
      <trkpt lat="47.787" lon="-3.52836">
        <ele>13</ele>
        <time>2019-07-15T11:54:29Z</time>
      </trkpt>
      <trkpt lat="47.78697" lon="-3.52834">
        <ele>13</ele>
        <time>2019-07-15T11:54:30Z</time>
      </trkpt>
      <trkpt lat="47.78694" lon="-3.52833">
        <ele>13</ele>
        <time>2019-07-15T11:54:31Z</time>
      </trkpt>
      <trkpt lat="47.7869" lon="-3.52831">
        <ele>13</ele>
        <time>2019-07-15T11:54:32Z</time>
      </trkpt>
      <trkpt lat="47.78685" lon="-3.52829">
        <ele>13</ele>
        <time>2019-07-15T11:54:33Z</time>
      </trkpt>
      <trkpt lat="47.78679" lon="-3.52828">
        <ele>13</ele>
        <time>2019-07-15T11:54:34Z</time>
      </trkpt>
      <trkpt lat="47.78673" lon="-3.52827">
        <ele>13</ele>
        <time>2019-07-15T11:54:35Z</time>
      </trkpt>
      <trkpt lat="47.78666" lon="-3.52827">
        <ele>13</ele>
        <time>2019-07-15T11:54:36Z</time>
      </trkpt>
      <trkpt lat="47.7866" lon="-3.52828">
        <ele>13</ele>
        <time>2019-07-15T11:54:37Z</time>
      </trkpt>
      <trkpt lat="47.78653" lon="-3.5283">
        <ele>12</ele>
        <time>2019-07-15T11:54:38Z</time>
      </trkpt>
      <trkpt lat="47.78646" lon="-3.52832">
        <ele>12</ele>
        <time>2019-07-15T11:54:39Z</time>
      </trkpt>
      <trkpt lat="47.78639" lon="-3.52834">
        <ele>12</ele>
        <time>2019-07-15T11:54:40Z</time>
      </trkpt>
      <trkpt lat="47.78631" lon="-3.52837">
        <ele>12</ele>
        <time>2019-07-15T11:54:41Z</time>
      </trkpt>
      <trkpt lat="47.78624" lon="-3.52838">
        <ele>11</ele>
        <time>2019-07-15T11:54:42Z</time>
      </trkpt>
      <trkpt lat="47.78617" lon="-3.5284">
        <ele>11</ele>
        <time>2019-07-15T11:54:43Z</time>
      </trkpt>
      <trkpt lat="47.78611" lon="-3.52843">
        <ele>10</ele>
        <time>2019-07-15T11:54:44Z</time>
      </trkpt>
      <trkpt lat="47.78606" lon="-3.52844">
        <ele>10</ele>
        <time>2019-07-15T11:54:45Z</time>
      </trkpt>
      <trkpt lat="47.78602" lon="-3.52846">
        <ele>10</ele>
        <time>2019-07-15T11:54:46Z</time>
      </trkpt>
      <trkpt lat="47.78599" lon="-3.52847">
        <ele>9</ele>
        <time>2019-07-15T11:54:47Z</time>
      </trkpt>
      <trkpt lat="47.78596" lon="-3.52849">
        <ele>9</ele>
        <time>2019-07-15T11:54:48Z</time>
      </trkpt>
      <trkpt lat="47.78593" lon="-3.52851">
        <ele>9</ele>
        <time>2019-07-15T11:54:49Z</time>
      </trkpt>
      <trkpt lat="47.7859" lon="-3.52853">
        <ele>9</ele>
        <time>2019-07-15T11:54:50Z</time>
      </trkpt>
      <trkpt lat="47.78588" lon="-3.52855">
        <ele>9</ele>
        <time>2019-07-15T11:54:51Z</time>
      </trkpt>
      <trkpt lat="47.78586" lon="-3.52856">
        <ele>9</ele>
        <time>2019-07-15T11:54:52Z</time>
      </trkpt>
      <trkpt lat="47.78583" lon="-3.52859">
        <ele>9</ele>
        <time>2019-07-15T11:54:53Z</time>
      </trkpt>
      <trkpt lat="47.78581" lon="-3.5286">
        <ele>9</ele>
        <time>2019-07-15T11:54:54Z</time>
      </trkpt>
      <trkpt lat="47.78578" lon="-3.52862">
        <ele>9</ele>
        <time>2019-07-15T11:54:55Z</time>
      </trkpt>
      <trkpt lat="47.78576" lon="-3.52865">
        <ele>9</ele>
        <time>2019-07-15T11:54:56Z</time>
      </trkpt>
      <trkpt lat="47.78573" lon="-3.52867">
        <ele>9</ele>
        <time>2019-07-15T11:54:57Z</time>
      </trkpt>
      <trkpt lat="47.7857" lon="-3.52869">
        <ele>9</ele>
        <time>2019-07-15T11:54:58Z</time>
      </trkpt>
      <trkpt lat="47.78568" lon="-3.52871">
        <ele>9</ele>
        <time>2019-07-15T11:54:59Z</time>
      </trkpt>
      <trkpt lat="47.78565" lon="-3.52874">
        <ele>9</ele>
        <time>2019-07-15T11:55:00Z</time>
      </trkpt>
      <trkpt lat="47.78563" lon="-3.52877">
        <ele>9</ele>
        <time>2019-07-15T11:55:01Z</time>
      </trkpt>
      <trkpt lat="47.78561" lon="-3.5288">
        <ele>9</ele>
        <time>2019-07-15T11:55:02Z</time>
      </trkpt>
      <trkpt lat="47.7856" lon="-3.52882">
        <ele>9</ele>
        <time>2019-07-15T11:55:03Z</time>
      </trkpt>
      <trkpt lat="47.78559" lon="-3.52884">
        <ele>9</ele>
        <time>2019-07-15T11:55:04Z</time>
      </trkpt>
      <trkpt lat="47.78557" lon="-3.52887">
        <ele>9</ele>
        <time>2019-07-15T11:55:05Z</time>
      </trkpt>
      <trkpt lat="47.78554" lon="-3.52891">
        <ele>9</ele>
        <time>2019-07-15T11:55:06Z</time>
      </trkpt>
      <trkpt lat="47.78553" lon="-3.52893">
        <ele>9</ele>
        <time>2019-07-15T11:55:07Z</time>
      </trkpt>
      <trkpt lat="47.78551" lon="-3.52897">
        <ele>9</ele>
        <time>2019-07-15T11:55:08Z</time>
      </trkpt>
      <trkpt lat="47.7855" lon="-3.529">
        <ele>10</ele>
        <time>2019-07-15T11:55:09Z</time>
      </trkpt>
      <trkpt lat="47.78549" lon="-3.52903">
        <ele>10</ele>
        <time>2019-07-15T11:55:10Z</time>
      </trkpt>
      <trkpt lat="47.78548" lon="-3.52906">
        <ele>10</ele>
        <time>2019-07-15T11:55:11Z</time>
      </trkpt>
      <trkpt lat="47.78547" lon="-3.5291">
        <ele>10</ele>
        <time>2019-07-15T11:55:12Z</time>
      </trkpt>
      <trkpt lat="47.78546" lon="-3.52914">
        <ele>10</ele>
        <time>2019-07-15T11:55:13Z</time>
      </trkpt>
      <trkpt lat="47.78546" lon="-3.52917">
        <ele>11</ele>
        <time>2019-07-15T11:55:14Z</time>
      </trkpt>
      <trkpt lat="47.78544" lon="-3.5292">
        <ele>11</ele>
        <time>2019-07-15T11:55:15Z</time>
      </trkpt>
      <trkpt lat="47.78542" lon="-3.52924">
        <ele>11</ele>
        <time>2019-07-15T11:55:16Z</time>
      </trkpt>
      <trkpt lat="47.7854" lon="-3.52927">
        <ele>11</ele>
        <time>2019-07-15T11:55:17Z</time>
      </trkpt>
      <trkpt lat="47.78537" lon="-3.52931">
        <ele>11</ele>
        <time>2019-07-15T11:55:18Z</time>
      </trkpt>
      <trkpt lat="47.78534" lon="-3.52935">
        <ele>11</ele>
        <time>2019-07-15T11:55:19Z</time>
      </trkpt>
      <trkpt lat="47.78531" lon="-3.52941">
        <ele>11</ele>
        <time>2019-07-15T11:55:20Z</time>
      </trkpt>
      <trkpt lat="47.78527" lon="-3.52945">
        <ele>11</ele>
        <time>2019-07-15T11:55:21Z</time>
      </trkpt>
      <trkpt lat="47.78523" lon="-3.5295">
        <ele>12</ele>
        <time>2019-07-15T11:55:22Z</time>
      </trkpt>
      <trkpt lat="47.7852" lon="-3.52956">
        <ele>12</ele>
        <time>2019-07-15T11:55:23Z</time>
      </trkpt>
      <trkpt lat="47.78516" lon="-3.52961">
        <ele>12</ele>
        <time>2019-07-15T11:55:24Z</time>
      </trkpt>
      <trkpt lat="47.78513" lon="-3.52965">
        <ele>12</ele>
        <time>2019-07-15T11:55:25Z</time>
      </trkpt>
      <trkpt lat="47.78509" lon="-3.52969">
        <ele>12</ele>
        <time>2019-07-15T11:55:26Z</time>
      </trkpt>
      <trkpt lat="47.78506" lon="-3.52973">
        <ele>12</ele>
        <time>2019-07-15T11:55:27Z</time>
      </trkpt>
      <trkpt lat="47.78503" lon="-3.52976">
        <ele>12</ele>
        <time>2019-07-15T11:55:28Z</time>
      </trkpt>
      <trkpt lat="47.785" lon="-3.5298">
        <ele>12</ele>
        <time>2019-07-15T11:55:29Z</time>
      </trkpt>
      <trkpt lat="47.78497" lon="-3.52984">
        <ele>12</ele>
        <time>2019-07-15T11:55:30Z</time>
      </trkpt>
      <trkpt lat="47.78494" lon="-3.52987">
        <ele>12</ele>
        <time>2019-07-15T11:55:31Z</time>
      </trkpt>
      <trkpt lat="47.78492" lon="-3.52991">
        <ele>12</ele>
        <time>2019-07-15T11:55:32Z</time>
      </trkpt>
      <trkpt lat="47.7849" lon="-3.52995">
        <ele>12</ele>
        <time>2019-07-15T11:55:33Z</time>
      </trkpt>
      <trkpt lat="47.78488" lon="-3.52999">
        <ele>12</ele>
        <time>2019-07-15T11:55:34Z</time>
      </trkpt>
      <trkpt lat="47.78485" lon="-3.53004">
        <ele>12</ele>
        <time>2019-07-15T11:55:35Z</time>
      </trkpt>
      <trkpt lat="47.78481" lon="-3.53008">
        <ele>12</ele>
        <time>2019-07-15T11:55:36Z</time>
      </trkpt>
      <trkpt lat="47.78478" lon="-3.53012">
        <ele>12</ele>
        <time>2019-07-15T11:55:37Z</time>
      </trkpt>
      <trkpt lat="47.78474" lon="-3.53017">
        <ele>12</ele>
        <time>2019-07-15T11:55:38Z</time>
      </trkpt>
      <trkpt lat="47.7847" lon="-3.53023">
        <ele>12</ele>
        <time>2019-07-15T11:55:39Z</time>
      </trkpt>
      <trkpt lat="47.78467" lon="-3.53028">
        <ele>12</ele>
        <time>2019-07-15T11:55:40Z</time>
      </trkpt>
      <trkpt lat="47.78464" lon="-3.53032">
        <ele>12</ele>
        <time>2019-07-15T11:55:41Z</time>
      </trkpt>
      <trkpt lat="47.78462" lon="-3.53037">
        <ele>12</ele>
        <time>2019-07-15T11:55:42Z</time>
      </trkpt>
      <trkpt lat="47.78462" lon="-3.5304">
        <ele>11</ele>
        <time>2019-07-15T11:55:43Z</time>
      </trkpt>
      <trkpt lat="47.78461" lon="-3.53043">
        <ele>11</ele>
        <time>2019-07-15T11:55:44Z</time>
      </trkpt>
      <trkpt lat="47.78461" lon="-3.53045">
        <ele>11</ele>
        <time>2019-07-15T11:55:45Z</time>
      </trkpt>
      <trkpt lat="47.7846" lon="-3.53048">
        <ele>11</ele>
        <time>2019-07-15T11:55:46Z</time>
      </trkpt>
      <trkpt lat="47.7846" lon="-3.53051">
        <ele>11</ele>
        <time>2019-07-15T11:55:47Z</time>
      </trkpt>
      <trkpt lat="47.78459" lon="-3.53054">
        <ele>11</ele>
        <time>2019-07-15T11:55:48Z</time>
      </trkpt>
      <trkpt lat="47.78458" lon="-3.53057">
        <ele>11</ele>
        <time>2019-07-15T11:55:49Z</time>
      </trkpt>
      <trkpt lat="47.78457" lon="-3.53059">
        <ele>11</ele>
        <time>2019-07-15T11:55:50Z</time>
      </trkpt>
      <trkpt lat="47.78455" lon="-3.53063">
        <ele>11</ele>
        <time>2019-07-15T11:55:51Z</time>
      </trkpt>
      <trkpt lat="47.78453" lon="-3.53067">
        <ele>11</ele>
        <time>2019-07-15T11:55:52Z</time>
      </trkpt>
      <trkpt lat="47.78452" lon="-3.53071">
        <ele>11</ele>
        <time>2019-07-15T11:55:53Z</time>
      </trkpt>
      <trkpt lat="47.7845" lon="-3.53075">
        <ele>11</ele>
        <time>2019-07-15T11:55:54Z</time>
      </trkpt>
      <trkpt lat="47.78448" lon="-3.53079">
        <ele>11</ele>
        <time>2019-07-15T11:55:55Z</time>
      </trkpt>
      <trkpt lat="47.78446" lon="-3.53082">
        <ele>11</ele>
        <time>2019-07-15T11:55:56Z</time>
      </trkpt>
      <trkpt lat="47.78445" lon="-3.53086">
        <ele>11</ele>
        <time>2019-07-15T11:55:57Z</time>
      </trkpt>
      <trkpt lat="47.78443" lon="-3.5309">
        <ele>11</ele>
        <time>2019-07-15T11:55:58Z</time>
      </trkpt>
      <trkpt lat="47.78441" lon="-3.53094">
        <ele>11</ele>
        <time>2019-07-15T11:55:59Z</time>
      </trkpt>
      <trkpt lat="47.78439" lon="-3.53097">
        <ele>11</ele>
        <time>2019-07-15T11:56:00Z</time>
      </trkpt>
      <trkpt lat="47.78438" lon="-3.531">
        <ele>11</ele>
        <time>2019-07-15T11:56:01Z</time>
      </trkpt>
      <trkpt lat="47.78436" lon="-3.53104">
        <ele>11</ele>
        <time>2019-07-15T11:56:02Z</time>
      </trkpt>
      <trkpt lat="47.78434" lon="-3.53107">
        <ele>11</ele>
        <time>2019-07-15T11:56:03Z</time>
      </trkpt>
      <trkpt lat="47.78431" lon="-3.5311">
        <ele>11</ele>
        <time>2019-07-15T11:56:04Z</time>
      </trkpt>
      <trkpt lat="47.78429" lon="-3.53113">
        <ele>11</ele>
        <time>2019-07-15T11:56:05Z</time>
      </trkpt>
      <trkpt lat="47.78426" lon="-3.53117">
        <ele>11</ele>
        <time>2019-07-15T11:56:06Z</time>
      </trkpt>
      <trkpt lat="47.78422" lon="-3.5312">
        <ele>11</ele>
        <time>2019-07-15T11:56:07Z</time>
      </trkpt>
      <trkpt lat="47.78418" lon="-3.53124">
        <ele>11</ele>
        <time>2019-07-15T11:56:08Z</time>
      </trkpt>
      <trkpt lat="47.78414" lon="-3.53127">
        <ele>11</ele>
        <time>2019-07-15T11:56:09Z</time>
      </trkpt>
      <trkpt lat="47.7841" lon="-3.53131">
        <ele>11</ele>
        <time>2019-07-15T11:56:10Z</time>
      </trkpt>
      <trkpt lat="47.78405" lon="-3.53134">
        <ele>11</ele>
        <time>2019-07-15T11:56:11Z</time>
      </trkpt>
      <trkpt lat="47.78401" lon="-3.53138">
        <ele>11</ele>
        <time>2019-07-15T11:56:12Z</time>
      </trkpt>
      <trkpt lat="47.78396" lon="-3.53141">
        <ele>11</ele>
        <time>2019-07-15T11:56:13Z</time>
      </trkpt>
      <trkpt lat="47.78392" lon="-3.53145">
        <ele>11</ele>
        <time>2019-07-15T11:56:14Z</time>
      </trkpt>
      <trkpt lat="47.78387" lon="-3.53149">
        <ele>10</ele>
        <time>2019-07-15T11:56:15Z</time>
      </trkpt>
      <trkpt lat="47.78382" lon="-3.53152">
        <ele>10</ele>
        <time>2019-07-15T11:56:16Z</time>
      </trkpt>
      <trkpt lat="47.78378" lon="-3.53155">
        <ele>10</ele>
        <time>2019-07-15T11:56:17Z</time>
      </trkpt>
      <trkpt lat="47.78374" lon="-3.53158">
        <ele>10</ele>
        <time>2019-07-15T11:56:18Z</time>
      </trkpt>
      <trkpt lat="47.7837" lon="-3.53161">
        <ele>10</ele>
        <time>2019-07-15T11:56:19Z</time>
      </trkpt>
      <trkpt lat="47.78367" lon="-3.53164">
        <ele>10</ele>
        <time>2019-07-15T11:56:20Z</time>
      </trkpt>
      <trkpt lat="47.78365" lon="-3.53168">
        <ele>10</ele>
        <time>2019-07-15T11:56:21Z</time>
      </trkpt>
      <trkpt lat="47.78363" lon="-3.53171">
        <ele>10</ele>
        <time>2019-07-15T11:56:22Z</time>
      </trkpt>
      <trkpt lat="47.78362" lon="-3.53174">
        <ele>10</ele>
        <time>2019-07-15T11:56:23Z</time>
      </trkpt>
      <trkpt lat="47.78361" lon="-3.53177">
        <ele>10</ele>
        <time>2019-07-15T11:56:24Z</time>
      </trkpt>
      <trkpt lat="47.7836" lon="-3.53181">
        <ele>10</ele>
        <time>2019-07-15T11:56:25Z</time>
      </trkpt>
      <trkpt lat="47.78358" lon="-3.53185">
        <ele>10</ele>
        <time>2019-07-15T11:56:26Z</time>
      </trkpt>
      <trkpt lat="47.78357" lon="-3.53189">
        <ele>10</ele>
        <time>2019-07-15T11:56:27Z</time>
      </trkpt>
      <trkpt lat="47.78357" lon="-3.53192">
        <ele>10</ele>
        <time>2019-07-15T11:56:28Z</time>
      </trkpt>
      <trkpt lat="47.78356" lon="-3.53195">
        <ele>10</ele>
        <time>2019-07-15T11:56:29Z</time>
      </trkpt>
      <trkpt lat="47.78356" lon="-3.53198">
        <ele>10</ele>
        <time>2019-07-15T11:56:30Z</time>
      </trkpt>
      <trkpt lat="47.78356" lon="-3.532">
        <ele>10</ele>
        <time>2019-07-15T11:56:31Z</time>
      </trkpt>
      <trkpt lat="47.78356" lon="-3.53202">
        <ele>10</ele>
        <time>2019-07-15T11:56:32Z</time>
      </trkpt>
      <trkpt lat="47.78355" lon="-3.53205">
        <ele>10</ele>
        <time>2019-07-15T11:56:33Z</time>
      </trkpt>
      <trkpt lat="47.78354" lon="-3.53208">
        <ele>10</ele>
        <time>2019-07-15T11:56:34Z</time>
      </trkpt>
      <trkpt lat="47.78353" lon="-3.53211">
        <ele>10</ele>
        <time>2019-07-15T11:56:35Z</time>
      </trkpt>
      <trkpt lat="47.78352" lon="-3.53212">
        <ele>10</ele>
        <time>2019-07-15T11:56:36Z</time>
      </trkpt>
      <trkpt lat="47.7835" lon="-3.53215">
        <ele>10</ele>
        <time>2019-07-15T11:56:37Z</time>
      </trkpt>
      <trkpt lat="47.78349" lon="-3.53217">
        <ele>10</ele>
        <time>2019-07-15T11:56:38Z</time>
      </trkpt>
      <trkpt lat="47.78347" lon="-3.53219">
        <ele>10</ele>
        <time>2019-07-15T11:56:39Z</time>
      </trkpt>
      <trkpt lat="47.78346" lon="-3.5322">
        <ele>10</ele>
        <time>2019-07-15T11:56:40Z</time>
      </trkpt>
      <trkpt lat="47.78345" lon="-3.53221">
        <ele>10</ele>
        <time>2019-07-15T11:56:41Z</time>
      </trkpt>
      <trkpt lat="47.78345" lon="-3.53221">
        <ele>10</ele>
        <time>2019-07-15T11:56:42Z</time>
      </trkpt>
      <trkpt lat="47.78345" lon="-3.53221">
        <ele>10</ele>
        <time>2019-07-15T11:56:43Z</time>
      </trkpt>
      <trkpt lat="47.7834" lon="-3.53247">
        <ele>7</ele>
        <time>2019-07-15T11:56:44Z</time>
      </trkpt>
      <trkpt lat="47.7834" lon="-3.53249">
        <ele>7</ele>
        <time>2019-07-15T11:56:45Z</time>
      </trkpt>
      <trkpt lat="47.7834" lon="-3.5325">
        <ele>7</ele>
        <time>2019-07-15T11:56:46Z</time>
      </trkpt>
      <trkpt lat="47.78341" lon="-3.53251">
        <ele>7</ele>
        <time>2019-07-15T11:56:47Z</time>
      </trkpt>
      <trkpt lat="47.78341" lon="-3.53253">
        <ele>7</ele>
        <time>2019-07-15T11:56:48Z</time>
      </trkpt>
      <trkpt lat="47.78342" lon="-3.53255">
        <ele>7</ele>
        <time>2019-07-15T11:56:49Z</time>
      </trkpt>
      <trkpt lat="47.78342" lon="-3.53258">
        <ele>7</ele>
        <time>2019-07-15T11:56:50Z</time>
      </trkpt>
      <trkpt lat="47.78343" lon="-3.5326">
        <ele>7</ele>
        <time>2019-07-15T11:56:51Z</time>
      </trkpt>
      <trkpt lat="47.78344" lon="-3.53262">
        <ele>8</ele>
        <time>2019-07-15T11:56:52Z</time>
      </trkpt>
      <trkpt lat="47.78345" lon="-3.53263">
        <ele>8</ele>
        <time>2019-07-15T11:56:53Z</time>
      </trkpt>
      <trkpt lat="47.78346" lon="-3.53266">
        <ele>8</ele>
        <time>2019-07-15T11:56:54Z</time>
      </trkpt>
      <trkpt lat="47.78346" lon="-3.53269">
        <ele>8</ele>
        <time>2019-07-15T11:56:55Z</time>
      </trkpt>
      <trkpt lat="47.78347" lon="-3.53272">
        <ele>8</ele>
        <time>2019-07-15T11:56:56Z</time>
      </trkpt>
      <trkpt lat="47.78347" lon="-3.53274">
        <ele>8</ele>
        <time>2019-07-15T11:56:57Z</time>
      </trkpt>
      <trkpt lat="47.78347" lon="-3.53276">
        <ele>8</ele>
        <time>2019-07-15T11:56:58Z</time>
      </trkpt>
      <trkpt lat="47.78348" lon="-3.53278">
        <ele>8</ele>
        <time>2019-07-15T11:56:59Z</time>
      </trkpt>
      <trkpt lat="47.78349" lon="-3.53281">
        <ele>8</ele>
        <time>2019-07-15T11:57:00Z</time>
      </trkpt>
      <trkpt lat="47.7835" lon="-3.53283">
        <ele>8</ele>
        <time>2019-07-15T11:57:01Z</time>
      </trkpt>
      <trkpt lat="47.78352" lon="-3.53286">
        <ele>8</ele>
        <time>2019-07-15T11:57:02Z</time>
      </trkpt>
      <trkpt lat="47.78353" lon="-3.53289">
        <ele>9</ele>
        <time>2019-07-15T11:57:03Z</time>
      </trkpt>
      <trkpt lat="47.78354" lon="-3.53292">
        <ele>9</ele>
        <time>2019-07-15T11:57:04Z</time>
      </trkpt>
      <trkpt lat="47.78355" lon="-3.53294">
        <ele>9</ele>
        <time>2019-07-15T11:57:05Z</time>
      </trkpt>
      <trkpt lat="47.78355" lon="-3.53297">
        <ele>9</ele>
        <time>2019-07-15T11:57:06Z</time>
      </trkpt>
      <trkpt lat="47.78356" lon="-3.533">
        <ele>10</ele>
        <time>2019-07-15T11:57:07Z</time>
      </trkpt>
      <trkpt lat="47.78357" lon="-3.53304">
        <ele>10</ele>
        <time>2019-07-15T11:57:08Z</time>
      </trkpt>
      <trkpt lat="47.78358" lon="-3.53306">
        <ele>10</ele>
        <time>2019-07-15T11:57:09Z</time>
      </trkpt>
      <trkpt lat="47.78359" lon="-3.53309">
        <ele>10</ele>
        <time>2019-07-15T11:57:10Z</time>
      </trkpt>
      <trkpt lat="47.7836" lon="-3.53313">
        <ele>11</ele>
        <time>2019-07-15T11:57:11Z</time>
      </trkpt>
      <trkpt lat="47.78361" lon="-3.53316">
        <ele>11</ele>
        <time>2019-07-15T11:57:12Z</time>
      </trkpt>
      <trkpt lat="47.78362" lon="-3.5332">
        <ele>11</ele>
        <time>2019-07-15T11:57:13Z</time>
      </trkpt>
      <trkpt lat="47.78363" lon="-3.53322">
        <ele>11</ele>
        <time>2019-07-15T11:57:14Z</time>
      </trkpt>
      <trkpt lat="47.78364" lon="-3.53325">
        <ele>12</ele>
        <time>2019-07-15T11:57:15Z</time>
      </trkpt>
      <trkpt lat="47.78366" lon="-3.53328">
        <ele>12</ele>
        <time>2019-07-15T11:57:16Z</time>
      </trkpt>
      <trkpt lat="47.78367" lon="-3.53331">
        <ele>12</ele>
        <time>2019-07-15T11:57:17Z</time>
      </trkpt>
      <trkpt lat="47.78368" lon="-3.53335">
        <ele>12</ele>
        <time>2019-07-15T11:57:18Z</time>
      </trkpt>
      <trkpt lat="47.7837" lon="-3.53338">
        <ele>12</ele>
        <time>2019-07-15T11:57:19Z</time>
      </trkpt>
      <trkpt lat="47.78371" lon="-3.53342">
        <ele>12</ele>
        <time>2019-07-15T11:57:20Z</time>
      </trkpt>
      <trkpt lat="47.78372" lon="-3.53346">
        <ele>12</ele>
        <time>2019-07-15T11:57:21Z</time>
      </trkpt>
      <trkpt lat="47.78373" lon="-3.5335">
        <ele>12</ele>
        <time>2019-07-15T11:57:22Z</time>
      </trkpt>
      <trkpt lat="47.78373" lon="-3.53354">
        <ele>12</ele>
        <time>2019-07-15T11:57:23Z</time>
      </trkpt>
      <trkpt lat="47.78375" lon="-3.53357">
        <ele>12</ele>
        <time>2019-07-15T11:57:24Z</time>
      </trkpt>
      <trkpt lat="47.78376" lon="-3.53361">
        <ele>12</ele>
        <time>2019-07-15T11:57:25Z</time>
      </trkpt>
      <trkpt lat="47.78377" lon="-3.53364">
        <ele>12</ele>
        <time>2019-07-15T11:57:26Z</time>
      </trkpt>
      <trkpt lat="47.78378" lon="-3.53368">
        <ele>12</ele>
        <time>2019-07-15T11:57:27Z</time>
      </trkpt>
      <trkpt lat="47.78379" lon="-3.53371">
        <ele>12</ele>
        <time>2019-07-15T11:57:28Z</time>
      </trkpt>
      <trkpt lat="47.7838" lon="-3.53375">
        <ele>13</ele>
        <time>2019-07-15T11:57:29Z</time>
      </trkpt>
      <trkpt lat="47.78382" lon="-3.53378">
        <ele>13</ele>
        <time>2019-07-15T11:57:30Z</time>
      </trkpt>
      <trkpt lat="47.78383" lon="-3.53381">
        <ele>13</ele>
        <time>2019-07-15T11:57:31Z</time>
      </trkpt>
      <trkpt lat="47.78384" lon="-3.53385">
        <ele>13</ele>
        <time>2019-07-15T11:57:32Z</time>
      </trkpt>
      <trkpt lat="47.78385" lon="-3.53388">
        <ele>14</ele>
        <time>2019-07-15T11:57:33Z</time>
      </trkpt>
      <trkpt lat="47.78386" lon="-3.53391">
        <ele>14</ele>
        <time>2019-07-15T11:57:34Z</time>
      </trkpt>
      <trkpt lat="47.78387" lon="-3.53394">
        <ele>15</ele>
        <time>2019-07-15T11:57:35Z</time>
      </trkpt>
      <trkpt lat="47.78389" lon="-3.53398">
        <ele>15</ele>
        <time>2019-07-15T11:57:36Z</time>
      </trkpt>
      <trkpt lat="47.7839" lon="-3.53401">
        <ele>15</ele>
        <time>2019-07-15T11:57:37Z</time>
      </trkpt>
      <trkpt lat="47.78392" lon="-3.53404">
        <ele>15</ele>
        <time>2019-07-15T11:57:38Z</time>
      </trkpt>
      <trkpt lat="47.78393" lon="-3.53407">
        <ele>16</ele>
        <time>2019-07-15T11:57:39Z</time>
      </trkpt>
      <trkpt lat="47.78394" lon="-3.5341">
        <ele>16</ele>
        <time>2019-07-15T11:57:40Z</time>
      </trkpt>
      <trkpt lat="47.78395" lon="-3.53413">
        <ele>16</ele>
        <time>2019-07-15T11:57:41Z</time>
      </trkpt>
      <trkpt lat="47.78396" lon="-3.53417">
        <ele>16</ele>
        <time>2019-07-15T11:57:42Z</time>
      </trkpt>
      <trkpt lat="47.78396" lon="-3.53419">
        <ele>16</ele>
        <time>2019-07-15T11:57:43Z</time>
      </trkpt>
      <trkpt lat="47.78397" lon="-3.53424">
        <ele>17</ele>
        <time>2019-07-15T11:57:44Z</time>
      </trkpt>
      <trkpt lat="47.78397" lon="-3.53427">
        <ele>17</ele>
        <time>2019-07-15T11:57:45Z</time>
      </trkpt>
      <trkpt lat="47.78397" lon="-3.53431">
        <ele>17</ele>
        <time>2019-07-15T11:57:46Z</time>
      </trkpt>
      <trkpt lat="47.78398" lon="-3.53435">
        <ele>17</ele>
        <time>2019-07-15T11:57:47Z</time>
      </trkpt>
      <trkpt lat="47.78398" lon="-3.53438">
        <ele>18</ele>
        <time>2019-07-15T11:57:48Z</time>
      </trkpt>
      <trkpt lat="47.78398" lon="-3.53441">
        <ele>18</ele>
        <time>2019-07-15T11:57:49Z</time>
      </trkpt>
      <trkpt lat="47.78398" lon="-3.53445">
        <ele>18</ele>
        <time>2019-07-15T11:57:50Z</time>
      </trkpt>
      <trkpt lat="47.78398" lon="-3.53448">
        <ele>19</ele>
        <time>2019-07-15T11:57:51Z</time>
      </trkpt>
      <trkpt lat="47.78398" lon="-3.53451">
        <ele>19</ele>
        <time>2019-07-15T11:57:52Z</time>
      </trkpt>
      <trkpt lat="47.78398" lon="-3.53455">
        <ele>19</ele>
        <time>2019-07-15T11:57:53Z</time>
      </trkpt>
      <trkpt lat="47.78398" lon="-3.53459">
        <ele>19</ele>
        <time>2019-07-15T11:57:54Z</time>
      </trkpt>
      <trkpt lat="47.78397" lon="-3.53462">
        <ele>20</ele>
        <time>2019-07-15T11:57:55Z</time>
      </trkpt>
      <trkpt lat="47.78397" lon="-3.53465">
        <ele>20</ele>
        <time>2019-07-15T11:57:56Z</time>
      </trkpt>
      <trkpt lat="47.78397" lon="-3.53468">
        <ele>20</ele>
        <time>2019-07-15T11:57:57Z</time>
      </trkpt>
      <trkpt lat="47.78396" lon="-3.53472">
        <ele>21</ele>
        <time>2019-07-15T11:57:58Z</time>
      </trkpt>
      <trkpt lat="47.78396" lon="-3.53475">
        <ele>21</ele>
        <time>2019-07-15T11:57:59Z</time>
      </trkpt>
      <trkpt lat="47.78396" lon="-3.53478">
        <ele>21</ele>
        <time>2019-07-15T11:58:00Z</time>
      </trkpt>
      <trkpt lat="47.78395" lon="-3.53482">
        <ele>21</ele>
        <time>2019-07-15T11:58:01Z</time>
      </trkpt>
      <trkpt lat="47.78395" lon="-3.53485">
        <ele>22</ele>
        <time>2019-07-15T11:58:02Z</time>
      </trkpt>
      <trkpt lat="47.78394" lon="-3.53488">
        <ele>22</ele>
        <time>2019-07-15T11:58:03Z</time>
      </trkpt>
      <trkpt lat="47.78394" lon="-3.53491">
        <ele>23</ele>
        <time>2019-07-15T11:58:04Z</time>
      </trkpt>
      <trkpt lat="47.78393" lon="-3.53494">
        <ele>23</ele>
        <time>2019-07-15T11:58:05Z</time>
      </trkpt>
      <trkpt lat="47.78392" lon="-3.53497">
        <ele>23</ele>
        <time>2019-07-15T11:58:06Z</time>
      </trkpt>
      <trkpt lat="47.78392" lon="-3.53501">
        <ele>24</ele>
        <time>2019-07-15T11:58:07Z</time>
      </trkpt>
      <trkpt lat="47.78392" lon="-3.53504">
        <ele>24</ele>
        <time>2019-07-15T11:58:08Z</time>
      </trkpt>
      <trkpt lat="47.78392" lon="-3.53507">
        <ele>25</ele>
        <time>2019-07-15T11:58:09Z</time>
      </trkpt>
      <trkpt lat="47.78391" lon="-3.5351">
        <ele>25</ele>
        <time>2019-07-15T11:58:10Z</time>
      </trkpt>
      <trkpt lat="47.78391" lon="-3.53513">
        <ele>25</ele>
        <time>2019-07-15T11:58:11Z</time>
      </trkpt>
      <trkpt lat="47.7839" lon="-3.53516">
        <ele>26</ele>
        <time>2019-07-15T11:58:12Z</time>
      </trkpt>
      <trkpt lat="47.7839" lon="-3.53519">
        <ele>26</ele>
        <time>2019-07-15T11:58:13Z</time>
      </trkpt>
      <trkpt lat="47.78389" lon="-3.53523">
        <ele>26</ele>
        <time>2019-07-15T11:58:14Z</time>
      </trkpt>
      <trkpt lat="47.78389" lon="-3.53527">
        <ele>26</ele>
        <time>2019-07-15T11:58:15Z</time>
      </trkpt>
      <trkpt lat="47.78389" lon="-3.53529">
        <ele>27</ele>
        <time>2019-07-15T11:58:16Z</time>
      </trkpt>
      <trkpt lat="47.78388" lon="-3.53532">
        <ele>27</ele>
        <time>2019-07-15T11:58:17Z</time>
      </trkpt>
      <trkpt lat="47.78387" lon="-3.53535">
        <ele>27</ele>
        <time>2019-07-15T11:58:18Z</time>
      </trkpt>
      <trkpt lat="47.78386" lon="-3.53539">
        <ele>27</ele>
        <time>2019-07-15T11:58:19Z</time>
      </trkpt>
      <trkpt lat="47.78386" lon="-3.53543">
        <ele>28</ele>
        <time>2019-07-15T11:58:20Z</time>
      </trkpt>
      <trkpt lat="47.78386" lon="-3.53547">
        <ele>28</ele>
        <time>2019-07-15T11:58:21Z</time>
      </trkpt>
      <trkpt lat="47.78385" lon="-3.5355">
        <ele>28</ele>
        <time>2019-07-15T11:58:22Z</time>
      </trkpt>
      <trkpt lat="47.78385" lon="-3.53553">
        <ele>28</ele>
        <time>2019-07-15T11:58:23Z</time>
      </trkpt>
      <trkpt lat="47.78384" lon="-3.53556">
        <ele>29</ele>
        <time>2019-07-15T11:58:24Z</time>
      </trkpt>
      <trkpt lat="47.78384" lon="-3.53559">
        <ele>29</ele>
        <time>2019-07-15T11:58:25Z</time>
      </trkpt>
      <trkpt lat="47.78383" lon="-3.53562">
        <ele>29</ele>
        <time>2019-07-15T11:58:26Z</time>
      </trkpt>
      <trkpt lat="47.78382" lon="-3.53565">
        <ele>30</ele>
        <time>2019-07-15T11:58:27Z</time>
      </trkpt>
      <trkpt lat="47.78381" lon="-3.53568">
        <ele>30</ele>
        <time>2019-07-15T11:58:28Z</time>
      </trkpt>
      <trkpt lat="47.78381" lon="-3.53571">
        <ele>30</ele>
        <time>2019-07-15T11:58:29Z</time>
      </trkpt>
      <trkpt lat="47.7838" lon="-3.53573">
        <ele>30</ele>
        <time>2019-07-15T11:58:30Z</time>
      </trkpt>
      <trkpt lat="47.78379" lon="-3.53576">
        <ele>30</ele>
        <time>2019-07-15T11:58:31Z</time>
      </trkpt>
      <trkpt lat="47.78379" lon="-3.5358">
        <ele>31</ele>
        <time>2019-07-15T11:58:32Z</time>
      </trkpt>
      <trkpt lat="47.78377" lon="-3.53583">
        <ele>31</ele>
        <time>2019-07-15T11:58:33Z</time>
      </trkpt>
      <trkpt lat="47.78376" lon="-3.53587">
        <ele>31</ele>
        <time>2019-07-15T11:58:34Z</time>
      </trkpt>
      <trkpt lat="47.78376" lon="-3.53591">
        <ele>31</ele>
        <time>2019-07-15T11:58:35Z</time>
      </trkpt>
      <trkpt lat="47.78374" lon="-3.53595">
        <ele>31</ele>
        <time>2019-07-15T11:58:36Z</time>
      </trkpt>
      <trkpt lat="47.78373" lon="-3.53598">
        <ele>31</ele>
        <time>2019-07-15T11:58:37Z</time>
      </trkpt>
      <trkpt lat="47.78372" lon="-3.53602">
        <ele>32</ele>
        <time>2019-07-15T11:58:38Z</time>
      </trkpt>
      <trkpt lat="47.7837" lon="-3.53606">
        <ele>32</ele>
        <time>2019-07-15T11:58:39Z</time>
      </trkpt>
      <trkpt lat="47.78369" lon="-3.5361">
        <ele>32</ele>
        <time>2019-07-15T11:58:40Z</time>
      </trkpt>
      <trkpt lat="47.78368" lon="-3.53614">
        <ele>32</ele>
        <time>2019-07-15T11:58:41Z</time>
      </trkpt>
      <trkpt lat="47.78367" lon="-3.53617">
        <ele>33</ele>
        <time>2019-07-15T11:58:42Z</time>
      </trkpt>
      <trkpt lat="47.78366" lon="-3.53622">
        <ele>33</ele>
        <time>2019-07-15T11:58:43Z</time>
      </trkpt>
      <trkpt lat="47.78365" lon="-3.53625">
        <ele>33</ele>
        <time>2019-07-15T11:58:44Z</time>
      </trkpt>
      <trkpt lat="47.78364" lon="-3.53629">
        <ele>33</ele>
        <time>2019-07-15T11:58:45Z</time>
      </trkpt>
      <trkpt lat="47.78363" lon="-3.53633">
        <ele>33</ele>
        <time>2019-07-15T11:58:46Z</time>
      </trkpt>
      <trkpt lat="47.78362" lon="-3.53637">
        <ele>34</ele>
        <time>2019-07-15T11:58:47Z</time>
      </trkpt>
      <trkpt lat="47.78361" lon="-3.5364">
        <ele>34</ele>
        <time>2019-07-15T11:58:48Z</time>
      </trkpt>
      <trkpt lat="47.7836" lon="-3.53644">
        <ele>34</ele>
        <time>2019-07-15T11:58:49Z</time>
      </trkpt>
      <trkpt lat="47.78358" lon="-3.53648">
        <ele>34</ele>
        <time>2019-07-15T11:58:50Z</time>
      </trkpt>
      <trkpt lat="47.78357" lon="-3.53653">
        <ele>35</ele>
        <time>2019-07-15T11:58:51Z</time>
      </trkpt>
      <trkpt lat="47.78356" lon="-3.53657">
        <ele>35</ele>
        <time>2019-07-15T11:58:52Z</time>
      </trkpt>
      <trkpt lat="47.78355" lon="-3.53661">
        <ele>35</ele>
        <time>2019-07-15T11:58:53Z</time>
      </trkpt>
      <trkpt lat="47.78354" lon="-3.53665">
        <ele>35</ele>
        <time>2019-07-15T11:58:54Z</time>
      </trkpt>
      <trkpt lat="47.78353" lon="-3.5367">
        <ele>35</ele>
        <time>2019-07-15T11:58:55Z</time>
      </trkpt>
      <trkpt lat="47.78352" lon="-3.53673">
        <ele>35</ele>
        <time>2019-07-15T11:58:56Z</time>
      </trkpt>
      <trkpt lat="47.78351" lon="-3.53678">
        <ele>35</ele>
        <time>2019-07-15T11:58:57Z</time>
      </trkpt>
      <trkpt lat="47.7835" lon="-3.53682">
        <ele>35</ele>
        <time>2019-07-15T11:58:58Z</time>
      </trkpt>
      <trkpt lat="47.78349" lon="-3.53687">
        <ele>35</ele>
        <time>2019-07-15T11:58:59Z</time>
      </trkpt>
      <trkpt lat="47.78347" lon="-3.53691">
        <ele>35</ele>
        <time>2019-07-15T11:59:00Z</time>
      </trkpt>
      <trkpt lat="47.78346" lon="-3.53695">
        <ele>35</ele>
        <time>2019-07-15T11:59:01Z</time>
      </trkpt>
      <trkpt lat="47.78345" lon="-3.53699">
        <ele>36</ele>
        <time>2019-07-15T11:59:02Z</time>
      </trkpt>
      <trkpt lat="47.78344" lon="-3.53703">
        <ele>36</ele>
        <time>2019-07-15T11:59:03Z</time>
      </trkpt>
      <trkpt lat="47.78343" lon="-3.53708">
        <ele>36</ele>
        <time>2019-07-15T11:59:04Z</time>
      </trkpt>
      <trkpt lat="47.78342" lon="-3.53712">
        <ele>36</ele>
        <time>2019-07-15T11:59:05Z</time>
      </trkpt>
      <trkpt lat="47.78341" lon="-3.53716">
        <ele>36</ele>
        <time>2019-07-15T11:59:06Z</time>
      </trkpt>
      <trkpt lat="47.7834" lon="-3.5372">
        <ele>36</ele>
        <time>2019-07-15T11:59:07Z</time>
      </trkpt>
      <trkpt lat="47.78339" lon="-3.53724">
        <ele>36</ele>
        <time>2019-07-15T11:59:08Z</time>
      </trkpt>
      <trkpt lat="47.78338" lon="-3.53728">
        <ele>36</ele>
        <time>2019-07-15T11:59:09Z</time>
      </trkpt>
      <trkpt lat="47.78337" lon="-3.53732">
        <ele>37</ele>
        <time>2019-07-15T11:59:10Z</time>
      </trkpt>
      <trkpt lat="47.78336" lon="-3.53737">
        <ele>37</ele>
        <time>2019-07-15T11:59:11Z</time>
      </trkpt>
      <trkpt lat="47.78335" lon="-3.53742">
        <ele>37</ele>
        <time>2019-07-15T11:59:12Z</time>
      </trkpt>
      <trkpt lat="47.78334" lon="-3.53746">
        <ele>37</ele>
        <time>2019-07-15T11:59:13Z</time>
      </trkpt>
      <trkpt lat="47.78333" lon="-3.53751">
        <ele>37</ele>
        <time>2019-07-15T11:59:14Z</time>
      </trkpt>
      <trkpt lat="47.78332" lon="-3.53756">
        <ele>37</ele>
        <time>2019-07-15T11:59:15Z</time>
      </trkpt>
      <trkpt lat="47.78331" lon="-3.53761">
        <ele>37</ele>
        <time>2019-07-15T11:59:16Z</time>
      </trkpt>
      <trkpt lat="47.7833" lon="-3.53765">
        <ele>38</ele>
        <time>2019-07-15T11:59:17Z</time>
      </trkpt>
      <trkpt lat="47.78329" lon="-3.5377">
        <ele>38</ele>
        <time>2019-07-15T11:59:18Z</time>
      </trkpt>
      <trkpt lat="47.78328" lon="-3.53775">
        <ele>38</ele>
        <time>2019-07-15T11:59:19Z</time>
      </trkpt>
      <trkpt lat="47.78327" lon="-3.53779">
        <ele>38</ele>
        <time>2019-07-15T11:59:20Z</time>
      </trkpt>
      <trkpt lat="47.78326" lon="-3.53785">
        <ele>38</ele>
        <time>2019-07-15T11:59:21Z</time>
      </trkpt>
      <trkpt lat="47.78325" lon="-3.53789">
        <ele>38</ele>
        <time>2019-07-15T11:59:22Z</time>
      </trkpt>
      <trkpt lat="47.78324" lon="-3.53795">
        <ele>38</ele>
        <time>2019-07-15T11:59:23Z</time>
      </trkpt>
      <trkpt lat="47.78322" lon="-3.538">
        <ele>38</ele>
        <time>2019-07-15T11:59:24Z</time>
      </trkpt>
      <trkpt lat="47.78321" lon="-3.53805">
        <ele>38</ele>
        <time>2019-07-15T11:59:25Z</time>
      </trkpt>
      <trkpt lat="47.7832" lon="-3.53809">
        <ele>38</ele>
        <time>2019-07-15T11:59:26Z</time>
      </trkpt>
      <trkpt lat="47.78319" lon="-3.53814">
        <ele>38</ele>
        <time>2019-07-15T11:59:27Z</time>
      </trkpt>
      <trkpt lat="47.78318" lon="-3.5382">
        <ele>38</ele>
        <time>2019-07-15T11:59:28Z</time>
      </trkpt>
      <trkpt lat="47.78317" lon="-3.53825">
        <ele>38</ele>
        <time>2019-07-15T11:59:29Z</time>
      </trkpt>
      <trkpt lat="47.78316" lon="-3.53831">
        <ele>38</ele>
        <time>2019-07-15T11:59:30Z</time>
      </trkpt>
      <trkpt lat="47.78314" lon="-3.53836">
        <ele>38</ele>
        <time>2019-07-15T11:59:31Z</time>
      </trkpt>
      <trkpt lat="47.78313" lon="-3.53841">
        <ele>39</ele>
        <time>2019-07-15T11:59:32Z</time>
      </trkpt>
      <trkpt lat="47.78312" lon="-3.53846">
        <ele>39</ele>
        <time>2019-07-15T11:59:33Z</time>
      </trkpt>
      <trkpt lat="47.78311" lon="-3.53851">
        <ele>39</ele>
        <time>2019-07-15T11:59:34Z</time>
      </trkpt>
      <trkpt lat="47.78309" lon="-3.53855">
        <ele>39</ele>
        <time>2019-07-15T11:59:35Z</time>
      </trkpt>
      <trkpt lat="47.78308" lon="-3.53859">
        <ele>39</ele>
        <time>2019-07-15T11:59:36Z</time>
      </trkpt>
      <trkpt lat="47.78307" lon="-3.53864">
        <ele>39</ele>
        <time>2019-07-15T11:59:37Z</time>
      </trkpt>
      <trkpt lat="47.78306" lon="-3.53869">
        <ele>39</ele>
        <time>2019-07-15T11:59:38Z</time>
      </trkpt>
      <trkpt lat="47.78305" lon="-3.53874">
        <ele>40</ele>
        <time>2019-07-15T11:59:39Z</time>
      </trkpt>
      <trkpt lat="47.78304" lon="-3.5388">
        <ele>40</ele>
        <time>2019-07-15T11:59:40Z</time>
      </trkpt>
      <trkpt lat="47.78302" lon="-3.53887">
        <ele>40</ele>
        <time>2019-07-15T11:59:41Z</time>
      </trkpt>
      <trkpt lat="47.78301" lon="-3.53893">
        <ele>40</ele>
        <time>2019-07-15T11:59:42Z</time>
      </trkpt>
      <trkpt lat="47.78299" lon="-3.539">
        <ele>40</ele>
        <time>2019-07-15T11:59:43Z</time>
      </trkpt>
      <trkpt lat="47.78297" lon="-3.53906">
        <ele>40</ele>
        <time>2019-07-15T11:59:44Z</time>
      </trkpt>
      <trkpt lat="47.78296" lon="-3.53913">
        <ele>40</ele>
        <time>2019-07-15T11:59:45Z</time>
      </trkpt>
      <trkpt lat="47.78294" lon="-3.5392">
        <ele>40</ele>
        <time>2019-07-15T11:59:46Z</time>
      </trkpt>
      <trkpt lat="47.78292" lon="-3.53926">
        <ele>40</ele>
        <time>2019-07-15T11:59:47Z</time>
      </trkpt>
      <trkpt lat="47.78291" lon="-3.53933">
        <ele>40</ele>
        <time>2019-07-15T11:59:48Z</time>
      </trkpt>
      <trkpt lat="47.78289" lon="-3.5394">
        <ele>40</ele>
        <time>2019-07-15T11:59:49Z</time>
      </trkpt>
      <trkpt lat="47.78288" lon="-3.53948">
        <ele>40</ele>
        <time>2019-07-15T11:59:50Z</time>
      </trkpt>
      <trkpt lat="47.78286" lon="-3.53955">
        <ele>40</ele>
        <time>2019-07-15T11:59:51Z</time>
      </trkpt>
      <trkpt lat="47.78284" lon="-3.53963">
        <ele>40</ele>
        <time>2019-07-15T11:59:52Z</time>
      </trkpt>
      <trkpt lat="47.78282" lon="-3.53971">
        <ele>40</ele>
        <time>2019-07-15T11:59:53Z</time>
      </trkpt>
      <trkpt lat="47.7828" lon="-3.53979">
        <ele>40</ele>
        <time>2019-07-15T11:59:54Z</time>
      </trkpt>
      <trkpt lat="47.78278" lon="-3.53988">
        <ele>40</ele>
        <time>2019-07-15T11:59:55Z</time>
      </trkpt>
      <trkpt lat="47.78276" lon="-3.53998">
        <ele>40</ele>
        <time>2019-07-15T11:59:56Z</time>
      </trkpt>
      <trkpt lat="47.78274" lon="-3.54007">
        <ele>40</ele>
        <time>2019-07-15T11:59:57Z</time>
      </trkpt>
      <trkpt lat="47.78271" lon="-3.54017">
        <ele>39</ele>
        <time>2019-07-15T11:59:58Z</time>
      </trkpt>
      <trkpt lat="47.78269" lon="-3.54027">
        <ele>39</ele>
        <time>2019-07-15T11:59:59Z</time>
      </trkpt>
      <trkpt lat="47.78267" lon="-3.54037">
        <ele>39</ele>
        <time>2019-07-15T12:00:00Z</time>
      </trkpt>
      <trkpt lat="47.78265" lon="-3.54048">
        <ele>38</ele>
        <time>2019-07-15T12:00:01Z</time>
      </trkpt>
      <trkpt lat="47.78263" lon="-3.54058">
        <ele>38</ele>
        <time>2019-07-15T12:00:02Z</time>
      </trkpt>
      <trkpt lat="47.78262" lon="-3.54069">
        <ele>38</ele>
        <time>2019-07-15T12:00:03Z</time>
      </trkpt>
      <trkpt lat="47.7826" lon="-3.54078">
        <ele>38</ele>
        <time>2019-07-15T12:00:04Z</time>
      </trkpt>
      <trkpt lat="47.78259" lon="-3.54088">
        <ele>38</ele>
        <time>2019-07-15T12:00:05Z</time>
      </trkpt>
      <trkpt lat="47.78258" lon="-3.54097">
        <ele>38</ele>
        <time>2019-07-15T12:00:06Z</time>
      </trkpt>
      <trkpt lat="47.78257" lon="-3.54105">
        <ele>38</ele>
        <time>2019-07-15T12:00:07Z</time>
      </trkpt>
      <trkpt lat="47.78256" lon="-3.54113">
        <ele>38</ele>
        <time>2019-07-15T12:00:08Z</time>
      </trkpt>
      <trkpt lat="47.78255" lon="-3.54121">
        <ele>38</ele>
        <time>2019-07-15T12:00:09Z</time>
      </trkpt>
      <trkpt lat="47.78254" lon="-3.54129">
        <ele>37</ele>
        <time>2019-07-15T12:00:10Z</time>
      </trkpt>
      <trkpt lat="47.78253" lon="-3.54137">
        <ele>37</ele>
        <time>2019-07-15T12:00:11Z</time>
      </trkpt>
      <trkpt lat="47.78252" lon="-3.54144">
        <ele>37</ele>
        <time>2019-07-15T12:00:12Z</time>
      </trkpt>
      <trkpt lat="47.78251" lon="-3.54151">
        <ele>37</ele>
        <time>2019-07-15T12:00:13Z</time>
      </trkpt>
      <trkpt lat="47.7825" lon="-3.54159">
        <ele>37</ele>
        <time>2019-07-15T12:00:14Z</time>
      </trkpt>
      <trkpt lat="47.78249" lon="-3.54166">
        <ele>38</ele>
        <time>2019-07-15T12:00:15Z</time>
      </trkpt>
      <trkpt lat="47.78249" lon="-3.54174">
        <ele>38</ele>
        <time>2019-07-15T12:00:16Z</time>
      </trkpt>
      <trkpt lat="47.78248" lon="-3.54182">
        <ele>38</ele>
        <time>2019-07-15T12:00:17Z</time>
      </trkpt>
      <trkpt lat="47.78247" lon="-3.54189">
        <ele>38</ele>
        <time>2019-07-15T12:00:18Z</time>
      </trkpt>
      <trkpt lat="47.78246" lon="-3.54197">
        <ele>38</ele>
        <time>2019-07-15T12:00:19Z</time>
      </trkpt>
      <trkpt lat="47.78245" lon="-3.54204">
        <ele>38</ele>
        <time>2019-07-15T12:00:20Z</time>
      </trkpt>
      <trkpt lat="47.78244" lon="-3.54212">
        <ele>38</ele>
        <time>2019-07-15T12:00:21Z</time>
      </trkpt>
      <trkpt lat="47.78243" lon="-3.54219">
        <ele>38</ele>
        <time>2019-07-15T12:00:22Z</time>
      </trkpt>
      <trkpt lat="47.78242" lon="-3.54227">
        <ele>38</ele>
        <time>2019-07-15T12:00:23Z</time>
      </trkpt>
      <trkpt lat="47.78241" lon="-3.54235">
        <ele>38</ele>
        <time>2019-07-15T12:00:24Z</time>
      </trkpt>
      <trkpt lat="47.7824" lon="-3.54242">
        <ele>38</ele>
        <time>2019-07-15T12:00:25Z</time>
      </trkpt>
      <trkpt lat="47.78239" lon="-3.54249">
        <ele>38</ele>
        <time>2019-07-15T12:00:26Z</time>
      </trkpt>
      <trkpt lat="47.78238" lon="-3.54256">
        <ele>38</ele>
        <time>2019-07-15T12:00:27Z</time>
      </trkpt>
      <trkpt lat="47.78237" lon="-3.54263">
        <ele>38</ele>
        <time>2019-07-15T12:00:28Z</time>
      </trkpt>
      <trkpt lat="47.78235" lon="-3.5427">
        <ele>39</ele>
        <time>2019-07-15T12:00:29Z</time>
      </trkpt>
      <trkpt lat="47.78233" lon="-3.54277">
        <ele>39</ele>
        <time>2019-07-15T12:00:30Z</time>
      </trkpt>
      <trkpt lat="47.78232" lon="-3.54284">
        <ele>39</ele>
        <time>2019-07-15T12:00:31Z</time>
      </trkpt>
      <trkpt lat="47.7823" lon="-3.54291">
        <ele>39</ele>
        <time>2019-07-15T12:00:32Z</time>
      </trkpt>
      <trkpt lat="47.78228" lon="-3.54299">
        <ele>39</ele>
        <time>2019-07-15T12:00:33Z</time>
      </trkpt>
      <trkpt lat="47.78226" lon="-3.54306">
        <ele>39</ele>
        <time>2019-07-15T12:00:34Z</time>
      </trkpt>
      <trkpt lat="47.78224" lon="-3.54313">
        <ele>39</ele>
        <time>2019-07-15T12:00:35Z</time>
      </trkpt>
      <trkpt lat="47.78222" lon="-3.5432">
        <ele>39</ele>
        <time>2019-07-15T12:00:36Z</time>
      </trkpt>
      <trkpt lat="47.78221" lon="-3.54328">
        <ele>39</ele>
        <time>2019-07-15T12:00:37Z</time>
      </trkpt>
      <trkpt lat="47.78219" lon="-3.54336">
        <ele>40</ele>
        <time>2019-07-15T12:00:38Z</time>
      </trkpt>
      <trkpt lat="47.78217" lon="-3.54343">
        <ele>40</ele>
        <time>2019-07-15T12:00:39Z</time>
      </trkpt>
      <trkpt lat="47.78215" lon="-3.5435">
        <ele>40</ele>
        <time>2019-07-15T12:00:40Z</time>
      </trkpt>
      <trkpt lat="47.78214" lon="-3.54357">
        <ele>40</ele>
        <time>2019-07-15T12:00:41Z</time>
      </trkpt>
      <trkpt lat="47.78212" lon="-3.54365">
        <ele>40</ele>
        <time>2019-07-15T12:00:42Z</time>
      </trkpt>
      <trkpt lat="47.78209" lon="-3.54372">
        <ele>40</ele>
        <time>2019-07-15T12:00:43Z</time>
      </trkpt>
      <trkpt lat="47.78208" lon="-3.54379">
        <ele>40</ele>
        <time>2019-07-15T12:00:44Z</time>
      </trkpt>
      <trkpt lat="47.78205" lon="-3.54387">
        <ele>40</ele>
        <time>2019-07-15T12:00:45Z</time>
      </trkpt>
      <trkpt lat="47.78203" lon="-3.54394">
        <ele>40</ele>
        <time>2019-07-15T12:00:46Z</time>
      </trkpt>
      <trkpt lat="47.78201" lon="-3.54402">
        <ele>40</ele>
        <time>2019-07-15T12:00:47Z</time>
      </trkpt>
      <trkpt lat="47.78199" lon="-3.5441">
        <ele>40</ele>
        <time>2019-07-15T12:00:48Z</time>
      </trkpt>
      <trkpt lat="47.78197" lon="-3.54418">
        <ele>40</ele>
        <time>2019-07-15T12:00:49Z</time>
      </trkpt>
      <trkpt lat="47.78195" lon="-3.54425">
        <ele>40</ele>
        <time>2019-07-15T12:00:50Z</time>
      </trkpt>
      <trkpt lat="47.78193" lon="-3.54432">
        <ele>40</ele>
        <time>2019-07-15T12:00:51Z</time>
      </trkpt>
      <trkpt lat="47.78192" lon="-3.5444">
        <ele>40</ele>
        <time>2019-07-15T12:00:52Z</time>
      </trkpt>
      <trkpt lat="47.78189" lon="-3.54448">
        <ele>40</ele>
        <time>2019-07-15T12:00:53Z</time>
      </trkpt>
      <trkpt lat="47.78187" lon="-3.54455">
        <ele>40</ele>
        <time>2019-07-15T12:00:54Z</time>
      </trkpt>
      <trkpt lat="47.78185" lon="-3.54463">
        <ele>40</ele>
        <time>2019-07-15T12:00:55Z</time>
      </trkpt>
      <trkpt lat="47.78183" lon="-3.54471">
        <ele>40</ele>
        <time>2019-07-15T12:00:56Z</time>
      </trkpt>
      <trkpt lat="47.78181" lon="-3.54479">
        <ele>40</ele>
        <time>2019-07-15T12:00:57Z</time>
      </trkpt>
      <trkpt lat="47.78179" lon="-3.54488">
        <ele>40</ele>
        <time>2019-07-15T12:00:58Z</time>
      </trkpt>
      <trkpt lat="47.78176" lon="-3.54496">
        <ele>39</ele>
        <time>2019-07-15T12:00:59Z</time>
      </trkpt>
      <trkpt lat="47.78174" lon="-3.54504">
        <ele>39</ele>
        <time>2019-07-15T12:01:00Z</time>
      </trkpt>
      <trkpt lat="47.78172" lon="-3.54512">
        <ele>39</ele>
        <time>2019-07-15T12:01:01Z</time>
      </trkpt>
      <trkpt lat="47.78169" lon="-3.5452">
        <ele>39</ele>
        <time>2019-07-15T12:01:02Z</time>
      </trkpt>
      <trkpt lat="47.78167" lon="-3.54527">
        <ele>39</ele>
        <time>2019-07-15T12:01:03Z</time>
      </trkpt>
      <trkpt lat="47.78165" lon="-3.54535">
        <ele>39</ele>
        <time>2019-07-15T12:01:04Z</time>
      </trkpt>
      <trkpt lat="47.78163" lon="-3.54543">
        <ele>39</ele>
        <time>2019-07-15T12:01:05Z</time>
      </trkpt>
      <trkpt lat="47.78162" lon="-3.5455">
        <ele>39</ele>
        <time>2019-07-15T12:01:06Z</time>
      </trkpt>
      <trkpt lat="47.7816" lon="-3.54558">
        <ele>39</ele>
        <time>2019-07-15T12:01:07Z</time>
      </trkpt>
      <trkpt lat="47.78158" lon="-3.54565">
        <ele>39</ele>
        <time>2019-07-15T12:01:08Z</time>
      </trkpt>
      <trkpt lat="47.78156" lon="-3.54573">
        <ele>39</ele>
        <time>2019-07-15T12:01:09Z</time>
      </trkpt>
      <trkpt lat="47.78155" lon="-3.5458">
        <ele>39</ele>
        <time>2019-07-15T12:01:10Z</time>
      </trkpt>
      <trkpt lat="47.78154" lon="-3.54586">
        <ele>38</ele>
        <time>2019-07-15T12:01:11Z</time>
      </trkpt>
      <trkpt lat="47.78154" lon="-3.5459">
        <ele>38</ele>
        <time>2019-07-15T12:01:12Z</time>
      </trkpt>
      <trkpt lat="47.78153" lon="-3.54594">
        <ele>38</ele>
        <time>2019-07-15T12:01:13Z</time>
      </trkpt>
      <trkpt lat="47.78152" lon="-3.54598">
        <ele>38</ele>
        <time>2019-07-15T12:01:14Z</time>
      </trkpt>
      <trkpt lat="47.78151" lon="-3.54603">
        <ele>38</ele>
        <time>2019-07-15T12:01:15Z</time>
      </trkpt>
      <trkpt lat="47.78149" lon="-3.54608">
        <ele>38</ele>
        <time>2019-07-15T12:01:16Z</time>
      </trkpt>
      <trkpt lat="47.78147" lon="-3.54613">
        <ele>38</ele>
        <time>2019-07-15T12:01:17Z</time>
      </trkpt>
      <trkpt lat="47.78145" lon="-3.54619">
        <ele>38</ele>
        <time>2019-07-15T12:01:18Z</time>
      </trkpt>
      <trkpt lat="47.78143" lon="-3.54625">
        <ele>38</ele>
        <time>2019-07-15T12:01:19Z</time>
      </trkpt>
      <trkpt lat="47.78141" lon="-3.54633">
        <ele>38</ele>
        <time>2019-07-15T12:01:20Z</time>
      </trkpt>
      <trkpt lat="47.78139" lon="-3.54641">
        <ele>38</ele>
        <time>2019-07-15T12:01:21Z</time>
      </trkpt>
      <trkpt lat="47.78137" lon="-3.54649">
        <ele>38</ele>
        <time>2019-07-15T12:01:22Z</time>
      </trkpt>
      <trkpt lat="47.78134" lon="-3.54657">
        <ele>38</ele>
        <time>2019-07-15T12:01:23Z</time>
      </trkpt>
      <trkpt lat="47.78132" lon="-3.54666">
        <ele>37</ele>
        <time>2019-07-15T12:01:24Z</time>
      </trkpt>
      <trkpt lat="47.7813" lon="-3.54675">
        <ele>37</ele>
        <time>2019-07-15T12:01:25Z</time>
      </trkpt>
      <trkpt lat="47.78127" lon="-3.54684">
        <ele>37</ele>
        <time>2019-07-15T12:01:26Z</time>
      </trkpt>
      <trkpt lat="47.78125" lon="-3.54694">
        <ele>37</ele>
        <time>2019-07-15T12:01:27Z</time>
      </trkpt>
      <trkpt lat="47.78123" lon="-3.54703">
        <ele>37</ele>
        <time>2019-07-15T12:01:28Z</time>
      </trkpt>
      <trkpt lat="47.7812" lon="-3.54711">
        <ele>37</ele>
        <time>2019-07-15T12:01:29Z</time>
      </trkpt>
      <trkpt lat="47.78118" lon="-3.5472">
        <ele>37</ele>
        <time>2019-07-15T12:01:30Z</time>
      </trkpt>
      <trkpt lat="47.78116" lon="-3.54729">
        <ele>37</ele>
        <time>2019-07-15T12:01:31Z</time>
      </trkpt>
      <trkpt lat="47.78114" lon="-3.54737">
        <ele>37</ele>
        <time>2019-07-15T12:01:32Z</time>
      </trkpt>
      <trkpt lat="47.78112" lon="-3.54745">
        <ele>37</ele>
        <time>2019-07-15T12:01:33Z</time>
      </trkpt>
      <trkpt lat="47.7811" lon="-3.54753">
        <ele>37</ele>
        <time>2019-07-15T12:01:34Z</time>
      </trkpt>
      <trkpt lat="47.78107" lon="-3.54762">
        <ele>36</ele>
        <time>2019-07-15T12:01:35Z</time>
      </trkpt>
      <trkpt lat="47.78105" lon="-3.5477">
        <ele>36</ele>
        <time>2019-07-15T12:01:36Z</time>
      </trkpt>
      <trkpt lat="47.78102" lon="-3.54778">
        <ele>36</ele>
        <time>2019-07-15T12:01:37Z</time>
      </trkpt>
      <trkpt lat="47.78099" lon="-3.54786">
        <ele>36</ele>
        <time>2019-07-15T12:01:38Z</time>
      </trkpt>
      <trkpt lat="47.78096" lon="-3.54795">
        <ele>36</ele>
        <time>2019-07-15T12:01:39Z</time>
      </trkpt>
      <trkpt lat="47.78094" lon="-3.54804">
        <ele>36</ele>
        <time>2019-07-15T12:01:40Z</time>
      </trkpt>
      <trkpt lat="47.78091" lon="-3.54812">
        <ele>35</ele>
        <time>2019-07-15T12:01:41Z</time>
      </trkpt>
      <trkpt lat="47.78087" lon="-3.54821">
        <ele>35</ele>
        <time>2019-07-15T12:01:42Z</time>
      </trkpt>
      <trkpt lat="47.78084" lon="-3.5483">
        <ele>35</ele>
        <time>2019-07-15T12:01:43Z</time>
      </trkpt>
      <trkpt lat="47.78081" lon="-3.54839">
        <ele>35</ele>
        <time>2019-07-15T12:01:44Z</time>
      </trkpt>
      <trkpt lat="47.78077" lon="-3.54848">
        <ele>34</ele>
        <time>2019-07-15T12:01:45Z</time>
      </trkpt>
      <trkpt lat="47.78074" lon="-3.54857">
        <ele>34</ele>
        <time>2019-07-15T12:01:46Z</time>
      </trkpt>
      <trkpt lat="47.78071" lon="-3.54865">
        <ele>34</ele>
        <time>2019-07-15T12:01:47Z</time>
      </trkpt>
      <trkpt lat="47.78067" lon="-3.54874">
        <ele>34</ele>
        <time>2019-07-15T12:01:48Z</time>
      </trkpt>
      <trkpt lat="47.78063" lon="-3.54883">
        <ele>33</ele>
        <time>2019-07-15T12:01:49Z</time>
      </trkpt>
      <trkpt lat="47.78059" lon="-3.54891">
        <ele>33</ele>
        <time>2019-07-15T12:01:50Z</time>
      </trkpt>
      <trkpt lat="47.78055" lon="-3.549">
        <ele>33</ele>
        <time>2019-07-15T12:01:51Z</time>
      </trkpt>
      <trkpt lat="47.78052" lon="-3.54908">
        <ele>33</ele>
        <time>2019-07-15T12:01:52Z</time>
      </trkpt>
      <trkpt lat="47.78049" lon="-3.54917">
        <ele>33</ele>
        <time>2019-07-15T12:01:53Z</time>
      </trkpt>
      <trkpt lat="47.78046" lon="-3.54925">
        <ele>33</ele>
        <time>2019-07-15T12:01:54Z</time>
      </trkpt>
      <trkpt lat="47.78043" lon="-3.54934">
        <ele>32</ele>
        <time>2019-07-15T12:01:55Z</time>
      </trkpt>
      <trkpt lat="47.78041" lon="-3.54942">
        <ele>32</ele>
        <time>2019-07-15T12:01:56Z</time>
      </trkpt>
      <trkpt lat="47.78038" lon="-3.54951">
        <ele>32</ele>
        <time>2019-07-15T12:01:57Z</time>
      </trkpt>
      <trkpt lat="47.78036" lon="-3.5496">
        <ele>32</ele>
        <time>2019-07-15T12:01:58Z</time>
      </trkpt>
      <trkpt lat="47.78035" lon="-3.54969">
        <ele>32</ele>
        <time>2019-07-15T12:01:59Z</time>
      </trkpt>
      <trkpt lat="47.78033" lon="-3.54978">
        <ele>32</ele>
        <time>2019-07-15T12:02:00Z</time>
      </trkpt>
      <trkpt lat="47.78031" lon="-3.54987">
        <ele>32</ele>
        <time>2019-07-15T12:02:01Z</time>
      </trkpt>
      <trkpt lat="47.7803" lon="-3.54996">
        <ele>33</ele>
        <time>2019-07-15T12:02:02Z</time>
      </trkpt>
      <trkpt lat="47.78028" lon="-3.55005">
        <ele>33</ele>
        <time>2019-07-15T12:02:03Z</time>
      </trkpt>
      <trkpt lat="47.78027" lon="-3.55014">
        <ele>33</ele>
        <time>2019-07-15T12:02:04Z</time>
      </trkpt>
      <trkpt lat="47.78025" lon="-3.55023">
        <ele>33</ele>
        <time>2019-07-15T12:02:05Z</time>
      </trkpt>
      <trkpt lat="47.78024" lon="-3.55032">
        <ele>33</ele>
        <time>2019-07-15T12:02:06Z</time>
      </trkpt>
      <trkpt lat="47.78023" lon="-3.55041">
        <ele>33</ele>
        <time>2019-07-15T12:02:07Z</time>
      </trkpt>
      <trkpt lat="47.78022" lon="-3.55049">
        <ele>33</ele>
        <time>2019-07-15T12:02:08Z</time>
      </trkpt>
      <trkpt lat="47.78021" lon="-3.55058">
        <ele>34</ele>
        <time>2019-07-15T12:02:09Z</time>
      </trkpt>
      <trkpt lat="47.7802" lon="-3.55067">
        <ele>34</ele>
        <time>2019-07-15T12:02:10Z</time>
      </trkpt>
      <trkpt lat="47.78019" lon="-3.55075">
        <ele>34</ele>
        <time>2019-07-15T12:02:11Z</time>
      </trkpt>
      <trkpt lat="47.78018" lon="-3.55083">
        <ele>34</ele>
        <time>2019-07-15T12:02:12Z</time>
      </trkpt>
      <trkpt lat="47.78017" lon="-3.55091">
        <ele>34</ele>
        <time>2019-07-15T12:02:13Z</time>
      </trkpt>
      <trkpt lat="47.78016" lon="-3.55099">
        <ele>34</ele>
        <time>2019-07-15T12:02:14Z</time>
      </trkpt>
      <trkpt lat="47.78015" lon="-3.55107">
        <ele>34</ele>
        <time>2019-07-15T12:02:15Z</time>
      </trkpt>
      <trkpt lat="47.78015" lon="-3.55115">
        <ele>34</ele>
        <time>2019-07-15T12:02:16Z</time>
      </trkpt>
      <trkpt lat="47.78014" lon="-3.55123">
        <ele>34</ele>
        <time>2019-07-15T12:02:17Z</time>
      </trkpt>
      <trkpt lat="47.78013" lon="-3.55131">
        <ele>34</ele>
        <time>2019-07-15T12:02:18Z</time>
      </trkpt>
      <trkpt lat="47.78013" lon="-3.55139">
        <ele>35</ele>
        <time>2019-07-15T12:02:19Z</time>
      </trkpt>
      <trkpt lat="47.78013" lon="-3.55147">
        <ele>35</ele>
        <time>2019-07-15T12:02:20Z</time>
      </trkpt>
      <trkpt lat="47.78012" lon="-3.55155">
        <ele>35</ele>
        <time>2019-07-15T12:02:21Z</time>
      </trkpt>
      <trkpt lat="47.78012" lon="-3.55163">
        <ele>35</ele>
        <time>2019-07-15T12:02:22Z</time>
      </trkpt>
      <trkpt lat="47.78011" lon="-3.5517">
        <ele>35</ele>
        <time>2019-07-15T12:02:23Z</time>
      </trkpt>
      <trkpt lat="47.78011" lon="-3.55178">
        <ele>35</ele>
        <time>2019-07-15T12:02:24Z</time>
      </trkpt>
      <trkpt lat="47.78011" lon="-3.55186">
        <ele>35</ele>
        <time>2019-07-15T12:02:25Z</time>
      </trkpt>
      <trkpt lat="47.7801" lon="-3.55194">
        <ele>36</ele>
        <time>2019-07-15T12:02:26Z</time>
      </trkpt>
      <trkpt lat="47.7801" lon="-3.55201">
        <ele>36</ele>
        <time>2019-07-15T12:02:27Z</time>
      </trkpt>
      <trkpt lat="47.7801" lon="-3.55209">
        <ele>36</ele>
        <time>2019-07-15T12:02:28Z</time>
      </trkpt>
      <trkpt lat="47.7801" lon="-3.55216">
        <ele>36</ele>
        <time>2019-07-15T12:02:29Z</time>
      </trkpt>
      <trkpt lat="47.78009" lon="-3.55224">
        <ele>36</ele>
        <time>2019-07-15T12:02:30Z</time>
      </trkpt>
      <trkpt lat="47.78009" lon="-3.55232">
        <ele>36</ele>
        <time>2019-07-15T12:02:31Z</time>
      </trkpt>
      <trkpt lat="47.78009" lon="-3.5524">
        <ele>36</ele>
        <time>2019-07-15T12:02:32Z</time>
      </trkpt>
      <trkpt lat="47.78009" lon="-3.55248">
        <ele>36</ele>
        <time>2019-07-15T12:02:33Z</time>
      </trkpt>
      <trkpt lat="47.78008" lon="-3.55256">
        <ele>36</ele>
        <time>2019-07-15T12:02:34Z</time>
      </trkpt>
      <trkpt lat="47.78007" lon="-3.55263">
        <ele>36</ele>
        <time>2019-07-15T12:02:35Z</time>
      </trkpt>
      <trkpt lat="47.78006" lon="-3.55271">
        <ele>37</ele>
        <time>2019-07-15T12:02:36Z</time>
      </trkpt>
      <trkpt lat="47.78006" lon="-3.55278">
        <ele>37</ele>
        <time>2019-07-15T12:02:37Z</time>
      </trkpt>
      <trkpt lat="47.78005" lon="-3.55285">
        <ele>37</ele>
        <time>2019-07-15T12:02:38Z</time>
      </trkpt>
      <trkpt lat="47.78005" lon="-3.55292">
        <ele>37</ele>
        <time>2019-07-15T12:02:39Z</time>
      </trkpt>
      <trkpt lat="47.78004" lon="-3.55299">
        <ele>37</ele>
        <time>2019-07-15T12:02:40Z</time>
      </trkpt>
      <trkpt lat="47.78002" lon="-3.55307">
        <ele>37</ele>
        <time>2019-07-15T12:02:41Z</time>
      </trkpt>
      <trkpt lat="47.78002" lon="-3.55313">
        <ele>37</ele>
        <time>2019-07-15T12:02:42Z</time>
      </trkpt>
      <trkpt lat="47.77999" lon="-3.5532">
        <ele>37</ele>
        <time>2019-07-15T12:02:43Z</time>
      </trkpt>
      <trkpt lat="47.77996" lon="-3.55324">
        <ele>37</ele>
        <time>2019-07-15T12:02:44Z</time>
      </trkpt>
      <trkpt lat="47.77992" lon="-3.55327">
        <ele>37</ele>
        <time>2019-07-15T12:02:45Z</time>
      </trkpt>
      <trkpt lat="47.77988" lon="-3.55329">
        <ele>37</ele>
        <time>2019-07-15T12:02:46Z</time>
      </trkpt>
      <trkpt lat="47.77984" lon="-3.5533">
        <ele>37</ele>
        <time>2019-07-15T12:02:47Z</time>
      </trkpt>
      <trkpt lat="47.77979" lon="-3.55331">
        <ele>38</ele>
        <time>2019-07-15T12:02:48Z</time>
      </trkpt>
      <trkpt lat="47.77974" lon="-3.5533">
        <ele>38</ele>
        <time>2019-07-15T12:02:49Z</time>
      </trkpt>
      <trkpt lat="47.77968" lon="-3.55329">
        <ele>38</ele>
        <time>2019-07-15T12:02:50Z</time>
      </trkpt>
      <trkpt lat="47.77963" lon="-3.55328">
        <ele>38</ele>
        <time>2019-07-15T12:02:51Z</time>
      </trkpt>
      <trkpt lat="47.77957" lon="-3.55328">
        <ele>38</ele>
        <time>2019-07-15T12:02:52Z</time>
      </trkpt>
      <trkpt lat="47.77952" lon="-3.55327">
        <ele>38</ele>
        <time>2019-07-15T12:02:53Z</time>
      </trkpt>
      <trkpt lat="47.77946" lon="-3.55327">
        <ele>38</ele>
        <time>2019-07-15T12:02:54Z</time>
      </trkpt>
      <trkpt lat="47.7794" lon="-3.55327">
        <ele>38</ele>
        <time>2019-07-15T12:02:55Z</time>
      </trkpt>
      <trkpt lat="47.77934" lon="-3.55327">
        <ele>37</ele>
        <time>2019-07-15T12:02:56Z</time>
      </trkpt>
      <trkpt lat="47.77929" lon="-3.55327">
        <ele>37</ele>
        <time>2019-07-15T12:02:57Z</time>
      </trkpt>
      <trkpt lat="47.77922" lon="-3.55328">
        <ele>37</ele>
        <time>2019-07-15T12:02:58Z</time>
      </trkpt>
      <trkpt lat="47.77916" lon="-3.55329">
        <ele>37</ele>
        <time>2019-07-15T12:02:59Z</time>
      </trkpt>
      <trkpt lat="47.7791" lon="-3.5533">
        <ele>37</ele>
        <time>2019-07-15T12:03:00Z</time>
      </trkpt>
      <trkpt lat="47.77903" lon="-3.55331">
        <ele>37</ele>
        <time>2019-07-15T12:03:01Z</time>
      </trkpt>
      <trkpt lat="47.77897" lon="-3.55332">
        <ele>37</ele>
        <time>2019-07-15T12:03:02Z</time>
      </trkpt>
      <trkpt lat="47.77891" lon="-3.55333">
        <ele>36</ele>
        <time>2019-07-15T12:03:03Z</time>
      </trkpt>
      <trkpt lat="47.77885" lon="-3.55334">
        <ele>36</ele>
        <time>2019-07-15T12:03:04Z</time>
      </trkpt>
      <trkpt lat="47.77879" lon="-3.55335">
        <ele>36</ele>
        <time>2019-07-15T12:03:05Z</time>
      </trkpt>
      <trkpt lat="47.77873" lon="-3.55336">
        <ele>36</ele>
        <time>2019-07-15T12:03:06Z</time>
      </trkpt>
      <trkpt lat="47.77867" lon="-3.55336">
        <ele>36</ele>
        <time>2019-07-15T12:03:07Z</time>
      </trkpt>
      <trkpt lat="47.77861" lon="-3.55336">
        <ele>35</ele>
        <time>2019-07-15T12:03:08Z</time>
      </trkpt>
      <trkpt lat="47.77855" lon="-3.55336">
        <ele>35</ele>
        <time>2019-07-15T12:03:09Z</time>
      </trkpt>
      <trkpt lat="47.77849" lon="-3.55337">
        <ele>35</ele>
        <time>2019-07-15T12:03:10Z</time>
      </trkpt>
      <trkpt lat="47.77843" lon="-3.55338">
        <ele>34</ele>
        <time>2019-07-15T12:03:11Z</time>
      </trkpt>
      <trkpt lat="47.77838" lon="-3.55337">
        <ele>34</ele>
        <time>2019-07-15T12:03:12Z</time>
      </trkpt>
      <trkpt lat="47.77833" lon="-3.55337">
        <ele>34</ele>
        <time>2019-07-15T12:03:13Z</time>
      </trkpt>
      <trkpt lat="47.77828" lon="-3.55336">
        <ele>34</ele>
        <time>2019-07-15T12:03:14Z</time>
      </trkpt>
      <trkpt lat="47.77824" lon="-3.55336">
        <ele>33</ele>
        <time>2019-07-15T12:03:15Z</time>
      </trkpt>
      <trkpt lat="47.77819" lon="-3.55336">
        <ele>33</ele>
        <time>2019-07-15T12:03:16Z</time>
      </trkpt>
      <trkpt lat="47.77814" lon="-3.55336">
        <ele>33</ele>
        <time>2019-07-15T12:03:17Z</time>
      </trkpt>
      <trkpt lat="47.77808" lon="-3.55335">
        <ele>33</ele>
        <time>2019-07-15T12:03:18Z</time>
      </trkpt>
      <trkpt lat="47.77803" lon="-3.55333">
        <ele>33</ele>
        <time>2019-07-15T12:03:19Z</time>
      </trkpt>
      <trkpt lat="47.77799" lon="-3.55328">
        <ele>33</ele>
        <time>2019-07-15T12:03:20Z</time>
      </trkpt>
      <trkpt lat="47.77797" lon="-3.55322">
        <ele>33</ele>
        <time>2019-07-15T12:03:21Z</time>
      </trkpt>
      <trkpt lat="47.77795" lon="-3.55318">
        <ele>33</ele>
        <time>2019-07-15T12:03:22Z</time>
      </trkpt>
      <trkpt lat="47.7779" lon="-3.55315">
        <ele>33</ele>
        <time>2019-07-15T12:03:23Z</time>
      </trkpt>
      <trkpt lat="47.77786" lon="-3.55314">
        <ele>34</ele>
        <time>2019-07-15T12:03:24Z</time>
      </trkpt>
      <trkpt lat="47.77782" lon="-3.55314">
        <ele>34</ele>
        <time>2019-07-15T12:03:25Z</time>
      </trkpt>
      <trkpt lat="47.77778" lon="-3.55315">
        <ele>34</ele>
        <time>2019-07-15T12:03:26Z</time>
      </trkpt>
      <trkpt lat="47.77773" lon="-3.55317">
        <ele>34</ele>
        <time>2019-07-15T12:03:27Z</time>
      </trkpt>
      <trkpt lat="47.77769" lon="-3.55318">
        <ele>34</ele>
        <time>2019-07-15T12:03:28Z</time>
      </trkpt>
      <trkpt lat="47.77764" lon="-3.5532">
        <ele>34</ele>
        <time>2019-07-15T12:03:29Z</time>
      </trkpt>
      <trkpt lat="47.7776" lon="-3.55321">
        <ele>34</ele>
        <time>2019-07-15T12:03:30Z</time>
      </trkpt>
      <trkpt lat="47.77756" lon="-3.55324">
        <ele>34</ele>
        <time>2019-07-15T12:03:31Z</time>
      </trkpt>
      <trkpt lat="47.77752" lon="-3.55327">
        <ele>35</ele>
        <time>2019-07-15T12:03:32Z</time>
      </trkpt>
      <trkpt lat="47.77749" lon="-3.5533">
        <ele>35</ele>
        <time>2019-07-15T12:03:33Z</time>
      </trkpt>
      <trkpt lat="47.77745" lon="-3.55334">
        <ele>35</ele>
        <time>2019-07-15T12:03:34Z</time>
      </trkpt>
      <trkpt lat="47.7774" lon="-3.55339">
        <ele>35</ele>
        <time>2019-07-15T12:03:35Z</time>
      </trkpt>
      <trkpt lat="47.77735" lon="-3.55343">
        <ele>35</ele>
        <time>2019-07-15T12:03:36Z</time>
      </trkpt>
      <trkpt lat="47.77729" lon="-3.55344">
        <ele>35</ele>
        <time>2019-07-15T12:03:37Z</time>
      </trkpt>
      <trkpt lat="47.77723" lon="-3.55345">
        <ele>35</ele>
        <time>2019-07-15T12:03:38Z</time>
      </trkpt>
      <trkpt lat="47.77717" lon="-3.55346">
        <ele>35</ele>
        <time>2019-07-15T12:03:39Z</time>
      </trkpt>
      <trkpt lat="47.77712" lon="-3.55347">
        <ele>35</ele>
        <time>2019-07-15T12:03:40Z</time>
      </trkpt>
      <trkpt lat="47.77706" lon="-3.55348">
        <ele>35</ele>
        <time>2019-07-15T12:03:41Z</time>
      </trkpt>
      <trkpt lat="47.77701" lon="-3.55349">
        <ele>35</ele>
        <time>2019-07-15T12:03:42Z</time>
      </trkpt>
      <trkpt lat="47.77695" lon="-3.5535">
        <ele>35</ele>
        <time>2019-07-15T12:03:43Z</time>
      </trkpt>
      <trkpt lat="47.7769" lon="-3.5535">
        <ele>35</ele>
        <time>2019-07-15T12:03:44Z</time>
      </trkpt>
      <trkpt lat="47.77686" lon="-3.55351">
        <ele>34</ele>
        <time>2019-07-15T12:03:45Z</time>
      </trkpt>
      <trkpt lat="47.77682" lon="-3.55351">
        <ele>34</ele>
        <time>2019-07-15T12:03:46Z</time>
      </trkpt>
      <trkpt lat="47.77679" lon="-3.55352">
        <ele>34</ele>
        <time>2019-07-15T12:03:47Z</time>
      </trkpt>
      <trkpt lat="47.77676" lon="-3.55351">
        <ele>34</ele>
        <time>2019-07-15T12:03:48Z</time>
      </trkpt>
      <trkpt lat="47.77671" lon="-3.55351">
        <ele>34</ele>
        <time>2019-07-15T12:03:49Z</time>
      </trkpt>
      <trkpt lat="47.77667" lon="-3.5535">
        <ele>33</ele>
        <time>2019-07-15T12:03:50Z</time>
      </trkpt>
      <trkpt lat="47.77662" lon="-3.55349">
        <ele>34</ele>
        <time>2019-07-15T12:03:51Z</time>
      </trkpt>
      <trkpt lat="47.77657" lon="-3.55349">
        <ele>34</ele>
        <time>2019-07-15T12:03:52Z</time>
      </trkpt>
      <trkpt lat="47.77653" lon="-3.5535">
        <ele>34</ele>
        <time>2019-07-15T12:03:53Z</time>
      </trkpt>
      <trkpt lat="47.77649" lon="-3.55351">
        <ele>34</ele>
        <time>2019-07-15T12:03:54Z</time>
      </trkpt>
      <trkpt lat="47.77644" lon="-3.55353">
        <ele>34</ele>
        <time>2019-07-15T12:03:55Z</time>
      </trkpt>
      <trkpt lat="47.7764" lon="-3.55355">
        <ele>34</ele>
        <time>2019-07-15T12:03:56Z</time>
      </trkpt>
      <trkpt lat="47.77636" lon="-3.55356">
        <ele>34</ele>
        <time>2019-07-15T12:03:57Z</time>
      </trkpt>
      <trkpt lat="47.77632" lon="-3.55358">
        <ele>34</ele>
        <time>2019-07-15T12:03:58Z</time>
      </trkpt>
      <trkpt lat="47.77628" lon="-3.5536">
        <ele>34</ele>
        <time>2019-07-15T12:03:59Z</time>
      </trkpt>
      <trkpt lat="47.77624" lon="-3.55361">
        <ele>34</ele>
        <time>2019-07-15T12:04:00Z</time>
      </trkpt>
      <trkpt lat="47.7762" lon="-3.55363">
        <ele>34</ele>
        <time>2019-07-15T12:04:01Z</time>
      </trkpt>
      <trkpt lat="47.77615" lon="-3.55364">
        <ele>35</ele>
        <time>2019-07-15T12:04:02Z</time>
      </trkpt>
      <trkpt lat="47.77611" lon="-3.55366">
        <ele>35</ele>
        <time>2019-07-15T12:04:03Z</time>
      </trkpt>
      <trkpt lat="47.77605" lon="-3.55368">
        <ele>35</ele>
        <time>2019-07-15T12:04:04Z</time>
      </trkpt>
      <trkpt lat="47.77601" lon="-3.55369">
        <ele>35</ele>
        <time>2019-07-15T12:04:05Z</time>
      </trkpt>
      <trkpt lat="47.77595" lon="-3.5537">
        <ele>35</ele>
        <time>2019-07-15T12:04:06Z</time>
      </trkpt>
      <trkpt lat="47.77591" lon="-3.55371">
        <ele>35</ele>
        <time>2019-07-15T12:04:07Z</time>
      </trkpt>
      <trkpt lat="47.77585" lon="-3.55372">
        <ele>35</ele>
        <time>2019-07-15T12:04:08Z</time>
      </trkpt>
      <trkpt lat="47.7758" lon="-3.55372">
        <ele>35</ele>
        <time>2019-07-15T12:04:09Z</time>
      </trkpt>
      <trkpt lat="47.77575" lon="-3.55372">
        <ele>35</ele>
        <time>2019-07-15T12:04:10Z</time>
      </trkpt>
      <trkpt lat="47.77569" lon="-3.55371">
        <ele>36</ele>
        <time>2019-07-15T12:04:11Z</time>
      </trkpt>
      <trkpt lat="47.77564" lon="-3.55372">
        <ele>36</ele>
        <time>2019-07-15T12:04:12Z</time>
      </trkpt>
      <trkpt lat="47.77559" lon="-3.55373">
        <ele>36</ele>
        <time>2019-07-15T12:04:13Z</time>
      </trkpt>
      <trkpt lat="47.77555" lon="-3.55374">
        <ele>36</ele>
        <time>2019-07-15T12:04:14Z</time>
      </trkpt>
      <trkpt lat="47.77552" lon="-3.55375">
        <ele>36</ele>
        <time>2019-07-15T12:04:15Z</time>
      </trkpt>
      <trkpt lat="47.77547" lon="-3.55377">
        <ele>36</ele>
        <time>2019-07-15T12:04:16Z</time>
      </trkpt>
      <trkpt lat="47.77542" lon="-3.55378">
        <ele>36</ele>
        <time>2019-07-15T12:04:17Z</time>
      </trkpt>
      <trkpt lat="47.77538" lon="-3.55379">
        <ele>36</ele>
        <time>2019-07-15T12:04:18Z</time>
      </trkpt>
      <trkpt lat="47.77533" lon="-3.5538">
        <ele>36</ele>
        <time>2019-07-15T12:04:19Z</time>
      </trkpt>
      <trkpt lat="47.77527" lon="-3.55381">
        <ele>36</ele>
        <time>2019-07-15T12:04:20Z</time>
      </trkpt>
      <trkpt lat="47.77523" lon="-3.55381">
        <ele>37</ele>
        <time>2019-07-15T12:04:21Z</time>
      </trkpt>
      <trkpt lat="47.77518" lon="-3.5538">
        <ele>37</ele>
        <time>2019-07-15T12:04:22Z</time>
      </trkpt>
      <trkpt lat="47.77513" lon="-3.55377">
        <ele>37</ele>
        <time>2019-07-15T12:04:23Z</time>
      </trkpt>
      <trkpt lat="47.7751" lon="-3.55373">
        <ele>37</ele>
        <time>2019-07-15T12:04:24Z</time>
      </trkpt>
      <trkpt lat="47.77506" lon="-3.55369">
        <ele>37</ele>
        <time>2019-07-15T12:04:25Z</time>
      </trkpt>
      <trkpt lat="47.77501" lon="-3.55365">
        <ele>37</ele>
        <time>2019-07-15T12:04:26Z</time>
      </trkpt>
      <trkpt lat="47.77497" lon="-3.55361">
        <ele>37</ele>
        <time>2019-07-15T12:04:27Z</time>
      </trkpt>
      <trkpt lat="47.77492" lon="-3.55357">
        <ele>37</ele>
        <time>2019-07-15T12:04:28Z</time>
      </trkpt>
      <trkpt lat="47.77487" lon="-3.55352">
        <ele>37</ele>
        <time>2019-07-15T12:04:29Z</time>
      </trkpt>
      <trkpt lat="47.77483" lon="-3.55347">
        <ele>37</ele>
        <time>2019-07-15T12:04:30Z</time>
      </trkpt>
      <trkpt lat="47.77478" lon="-3.55342">
        <ele>37</ele>
        <time>2019-07-15T12:04:31Z</time>
      </trkpt>
      <trkpt lat="47.77473" lon="-3.55338">
        <ele>37</ele>
        <time>2019-07-15T12:04:32Z</time>
      </trkpt>
      <trkpt lat="47.77469" lon="-3.55333">
        <ele>37</ele>
        <time>2019-07-15T12:04:33Z</time>
      </trkpt>
      <trkpt lat="47.77464" lon="-3.55329">
        <ele>37</ele>
        <time>2019-07-15T12:04:34Z</time>
      </trkpt>
      <trkpt lat="47.77459" lon="-3.55325">
        <ele>36</ele>
        <time>2019-07-15T12:04:35Z</time>
      </trkpt>
      <trkpt lat="47.77454" lon="-3.5532">
        <ele>36</ele>
        <time>2019-07-15T12:04:36Z</time>
      </trkpt>
      <trkpt lat="47.77449" lon="-3.55316">
        <ele>36</ele>
        <time>2019-07-15T12:04:37Z</time>
      </trkpt>
      <trkpt lat="47.77444" lon="-3.55312">
        <ele>36</ele>
        <time>2019-07-15T12:04:38Z</time>
      </trkpt>
      <trkpt lat="47.77439" lon="-3.55308">
        <ele>36</ele>
        <time>2019-07-15T12:04:39Z</time>
      </trkpt>
      <trkpt lat="47.77434" lon="-3.55303">
        <ele>36</ele>
        <time>2019-07-15T12:04:40Z</time>
      </trkpt>
      <trkpt lat="47.77429" lon="-3.55298">
        <ele>36</ele>
        <time>2019-07-15T12:04:41Z</time>
      </trkpt>
      <trkpt lat="47.77425" lon="-3.55294">
        <ele>36</ele>
        <time>2019-07-15T12:04:42Z</time>
      </trkpt>
      <trkpt lat="47.7742" lon="-3.5529">
        <ele>36</ele>
        <time>2019-07-15T12:04:43Z</time>
      </trkpt>
      <trkpt lat="47.77416" lon="-3.55286">
        <ele>36</ele>
        <time>2019-07-15T12:04:44Z</time>
      </trkpt>
      <trkpt lat="47.77412" lon="-3.55282">
        <ele>36</ele>
        <time>2019-07-15T12:04:45Z</time>
      </trkpt>
      <trkpt lat="47.77407" lon="-3.55278">
        <ele>36</ele>
        <time>2019-07-15T12:04:46Z</time>
      </trkpt>
      <trkpt lat="47.77402" lon="-3.55273">
        <ele>36</ele>
        <time>2019-07-15T12:04:47Z</time>
      </trkpt>
      <trkpt lat="47.77397" lon="-3.55268">
        <ele>36</ele>
        <time>2019-07-15T12:04:48Z</time>
      </trkpt>
      <trkpt lat="47.77392" lon="-3.55263">
        <ele>36</ele>
        <time>2019-07-15T12:04:49Z</time>
      </trkpt>
      <trkpt lat="47.77387" lon="-3.55259">
        <ele>36</ele>
        <time>2019-07-15T12:04:50Z</time>
      </trkpt>
      <trkpt lat="47.77382" lon="-3.55254">
        <ele>37</ele>
        <time>2019-07-15T12:04:51Z</time>
      </trkpt>
      <trkpt lat="47.77378" lon="-3.5525">
        <ele>37</ele>
        <time>2019-07-15T12:04:52Z</time>
      </trkpt>
      <trkpt lat="47.77373" lon="-3.55245">
        <ele>37</ele>
        <time>2019-07-15T12:04:53Z</time>
      </trkpt>
      <trkpt lat="47.77368" lon="-3.5524">
        <ele>37</ele>
        <time>2019-07-15T12:04:54Z</time>
      </trkpt>
      <trkpt lat="47.77364" lon="-3.55236">
        <ele>37</ele>
        <time>2019-07-15T12:04:55Z</time>
      </trkpt>
      <trkpt lat="47.77359" lon="-3.55231">
        <ele>36</ele>
        <time>2019-07-15T12:04:56Z</time>
      </trkpt>
      <trkpt lat="47.77354" lon="-3.55228">
        <ele>36</ele>
        <time>2019-07-15T12:04:57Z</time>
      </trkpt>
      <trkpt lat="47.77349" lon="-3.55224">
        <ele>36</ele>
        <time>2019-07-15T12:04:58Z</time>
      </trkpt>
      <trkpt lat="47.77345" lon="-3.5522">
        <ele>36</ele>
        <time>2019-07-15T12:04:59Z</time>
      </trkpt>
      <trkpt lat="47.77342" lon="-3.55216">
        <ele>36</ele>
        <time>2019-07-15T12:05:00Z</time>
      </trkpt>
      <trkpt lat="47.77339" lon="-3.55214">
        <ele>36</ele>
        <time>2019-07-15T12:05:01Z</time>
      </trkpt>
      <trkpt lat="47.77336" lon="-3.55211">
        <ele>36</ele>
        <time>2019-07-15T12:05:02Z</time>
      </trkpt>
      <trkpt lat="47.77333" lon="-3.55208">
        <ele>36</ele>
        <time>2019-07-15T12:05:03Z</time>
      </trkpt>
      <trkpt lat="47.7733" lon="-3.55206">
        <ele>37</ele>
        <time>2019-07-15T12:05:04Z</time>
      </trkpt>
      <trkpt lat="47.77328" lon="-3.55205">
        <ele>37</ele>
        <time>2019-07-15T12:05:05Z</time>
      </trkpt>
      <trkpt lat="47.77324" lon="-3.55202">
        <ele>37</ele>
        <time>2019-07-15T12:05:06Z</time>
      </trkpt>
      <trkpt lat="47.7732" lon="-3.55199">
        <ele>37</ele>
        <time>2019-07-15T12:05:07Z</time>
      </trkpt>
      <trkpt lat="47.77316" lon="-3.55195">
        <ele>37</ele>
        <time>2019-07-15T12:05:08Z</time>
      </trkpt>
      <trkpt lat="47.77312" lon="-3.55193">
        <ele>37</ele>
        <time>2019-07-15T12:05:09Z</time>
      </trkpt>
      <trkpt lat="47.77307" lon="-3.5519">
        <ele>37</ele>
        <time>2019-07-15T12:05:10Z</time>
      </trkpt>
      <trkpt lat="47.77303" lon="-3.55188">
        <ele>37</ele>
        <time>2019-07-15T12:05:11Z</time>
      </trkpt>
      <trkpt lat="47.77299" lon="-3.55186">
        <ele>37</ele>
        <time>2019-07-15T12:05:12Z</time>
      </trkpt>
      <trkpt lat="47.77294" lon="-3.55184">
        <ele>37</ele>
        <time>2019-07-15T12:05:13Z</time>
      </trkpt>
      <trkpt lat="47.7729" lon="-3.55181">
        <ele>37</ele>
        <time>2019-07-15T12:05:14Z</time>
      </trkpt>
      <trkpt lat="47.77289" lon="-3.55177">
        <ele>36</ele>
        <time>2019-07-15T12:05:15Z</time>
      </trkpt>
      <trkpt lat="47.77287" lon="-3.55172">
        <ele>36</ele>
        <time>2019-07-15T12:05:16Z</time>
      </trkpt>
      <trkpt lat="47.77287" lon="-3.55167">
        <ele>36</ele>
        <time>2019-07-15T12:05:17Z</time>
      </trkpt>
      <trkpt lat="47.77287" lon="-3.5516">
        <ele>36</ele>
        <time>2019-07-15T12:05:18Z</time>
      </trkpt>
      <trkpt lat="47.77286" lon="-3.55154">
        <ele>36</ele>
        <time>2019-07-15T12:05:19Z</time>
      </trkpt>
      <trkpt lat="47.77286" lon="-3.55148">
        <ele>36</ele>
        <time>2019-07-15T12:05:20Z</time>
      </trkpt>
      <trkpt lat="47.77286" lon="-3.55141">
        <ele>36</ele>
        <time>2019-07-15T12:05:21Z</time>
      </trkpt>
      <trkpt lat="47.77285" lon="-3.55135">
        <ele>36</ele>
        <time>2019-07-15T12:05:22Z</time>
      </trkpt>
      <trkpt lat="47.77285" lon="-3.5513">
        <ele>36</ele>
        <time>2019-07-15T12:05:23Z</time>
      </trkpt>
      <trkpt lat="47.77284" lon="-3.55123">
        <ele>36</ele>
        <time>2019-07-15T12:05:24Z</time>
      </trkpt>
      <trkpt lat="47.77284" lon="-3.55115">
        <ele>35</ele>
        <time>2019-07-15T12:05:25Z</time>
      </trkpt>
      <trkpt lat="47.77284" lon="-3.55107">
        <ele>35</ele>
        <time>2019-07-15T12:05:26Z</time>
      </trkpt>
      <trkpt lat="47.77284" lon="-3.55099">
        <ele>35</ele>
        <time>2019-07-15T12:05:27Z</time>
      </trkpt>
      <trkpt lat="47.77285" lon="-3.55093">
        <ele>35</ele>
        <time>2019-07-15T12:05:28Z</time>
      </trkpt>
      <trkpt lat="47.77285" lon="-3.55088">
        <ele>35</ele>
        <time>2019-07-15T12:05:29Z</time>
      </trkpt>
      <trkpt lat="47.77283" lon="-3.55085">
        <ele>34</ele>
        <time>2019-07-15T12:05:30Z</time>
      </trkpt>
      <trkpt lat="47.77281" lon="-3.55084">
        <ele>34</ele>
        <time>2019-07-15T12:05:31Z</time>
      </trkpt>
      <trkpt lat="47.77279" lon="-3.55086">
        <ele>34</ele>
        <time>2019-07-15T12:05:32Z</time>
      </trkpt>
      <trkpt lat="47.77278" lon="-3.55089">
        <ele>34</ele>
        <time>2019-07-15T12:05:33Z</time>
      </trkpt>
      <trkpt lat="47.77278" lon="-3.55093">
        <ele>34</ele>
        <time>2019-07-15T12:05:34Z</time>
      </trkpt>
      <trkpt lat="47.77277" lon="-3.55097">
        <ele>34</ele>
        <time>2019-07-15T12:05:35Z</time>
      </trkpt>
      <trkpt lat="47.77276" lon="-3.55099">
        <ele>34</ele>
        <time>2019-07-15T12:05:36Z</time>
      </trkpt>
      <trkpt lat="47.77275" lon="-3.551">
        <ele>34</ele>
        <time>2019-07-15T12:05:37Z</time>
      </trkpt>
      <trkpt lat="47.77273" lon="-3.55101">
        <ele>34</ele>
        <time>2019-07-15T12:05:38Z</time>
      </trkpt>
      <trkpt lat="47.77272" lon="-3.55101">
        <ele>34</ele>
        <time>2019-07-15T12:05:39Z</time>
      </trkpt>
      <trkpt lat="47.7727" lon="-3.551">
        <ele>34</ele>
        <time>2019-07-15T12:05:40Z</time>
      </trkpt>
      <trkpt lat="47.7727" lon="-3.551">
        <ele>34</ele>
        <time>2019-07-15T12:05:41Z</time>
      </trkpt>
      <trkpt lat="47.77269" lon="-3.551">
        <ele>34</ele>
        <time>2019-07-15T12:05:42Z</time>
      </trkpt>
    </trkseg>
  </trk>
</gpx>